<?xml version='1.0' encoding='UTF-8'?><gpx version="1.1" creator="JPX - https://github.com/jenetics/jpx" xmlns="http://www.topografix.com/GPX/1/1"><trk><trkseg><trkpt lat="42.52141178579508" lon="11.280152048819765"><ele>8.0</ele><time>2026-04-24T06:57:34.994Z</time></trkpt><trkpt lat="42.521398366696936" lon="11.280041389549973"><ele>8.0</ele><time>2026-04-24T06:57:38.995Z</time></trkpt><trkpt lat="42.52128854560959" lon="11.279980514197582"><ele>8.0</ele><time>2026-04-24T06:57:40.996Z</time></trkpt><trkpt lat="42.521211651911656" lon="11.279960148148877"><ele>8.0</ele><time>2026-04-24T06:57:41.996Z</time></trkpt><trkpt lat="42.521147353932754" lon="11.279975656336665"><ele>8.0</ele><time>2026-04-24T06:57:43.997Z</time></trkpt><trkpt lat="42.52108201427612" lon="11.28020736021564"><ele>8.0</ele><time>2026-04-24T06:58:04Z</time></trkpt><trkpt lat="42.52110940320637" lon="11.280306813971421"><ele>8.0</ele><time>2026-04-24T06:58:05Z</time></trkpt><trkpt lat="42.52114441006415" lon="11.280419927108646"><ele>8.0</ele><time>2026-04-24T06:58:06Z</time></trkpt><trkpt lat="42.52118335457731" lon="11.280559705693506"><ele>8.0</ele><time>2026-04-24T06:58:07Z</time></trkpt><trkpt lat="42.52121711593269" lon="11.280706466410166"><ele>8.0</ele><time>2026-04-24T06:58:08Z</time></trkpt><trkpt lat="42.521250533959766" lon="11.280855671255452"><ele>8.0</ele><time>2026-04-24T06:58:09Z</time></trkpt><trkpt lat="42.52128781189908" lon="11.281017896546864"><ele>8.0</ele><time>2026-04-24T06:58:10Z</time></trkpt><trkpt lat="42.52133304159015" lon="11.281188699039847"><ele>8.0</ele><time>2026-04-24T06:58:11Z</time></trkpt><trkpt lat="42.52138303718505" lon="11.281370090726517"><ele>8.0</ele><time>2026-04-24T06:58:12Z</time></trkpt><trkpt lat="42.521429174216735" lon="11.281549021272665"><ele>8.0</ele><time>2026-04-24T06:58:13Z</time></trkpt><trkpt lat="42.52147280127412" lon="11.281718792030778"><ele>8.0</ele><time>2026-04-24T06:58:14Z</time></trkpt><trkpt lat="42.521515577303234" lon="11.281887887486706"><ele>8.0</ele><time>2026-04-24T06:58:15Z</time></trkpt><trkpt lat="42.52155569119792" lon="11.2820578758463"><ele>8.0</ele><time>2026-04-24T06:58:16Z</time></trkpt><trkpt lat="42.52159351243035" lon="11.282221323483526"><ele>8.5</ele><time>2026-04-24T06:58:17Z</time></trkpt><trkpt lat="42.521633462201486" lon="11.282389785523355"><ele>9.0</ele><time>2026-04-24T06:58:18Z</time></trkpt><trkpt lat="42.521676679825674" lon="11.282569522707256"><ele>9.5</ele><time>2026-04-24T06:58:19Z</time></trkpt><trkpt lat="42.52172436049507" lon="11.282759297919206"><ele>10.0</ele><time>2026-04-24T06:58:20.001Z</time></trkpt><trkpt lat="42.521767774187715" lon="11.282943411461373"><ele>10.0</ele><time>2026-04-24T06:58:21.001Z</time></trkpt><trkpt lat="42.521813993509156" lon="11.2831294580351"><ele>10.0</ele><time>2026-04-24T06:58:22.001Z</time></trkpt><trkpt lat="42.52186207028926" lon="11.28332642753424"><ele>10.0</ele><time>2026-04-24T06:58:23.001Z</time></trkpt><trkpt lat="42.52190981413785" lon="11.283526688729301"><ele>10.0</ele><time>2026-04-24T06:58:24.001Z</time></trkpt><trkpt lat="42.521961803116014" lon="11.283735662668146"><ele>10.0</ele><time>2026-04-24T06:58:25.001Z</time></trkpt><trkpt lat="42.52201465310738" lon="11.283954965722556"><ele>10.0</ele><time>2026-04-24T06:58:26.001Z</time></trkpt><trkpt lat="42.52206682337889" lon="11.284170513196738"><ele>10.0</ele><time>2026-04-24T06:58:27.001Z</time></trkpt><trkpt lat="42.522121338379634" lon="11.284392430136341"><ele>10.0</ele><time>2026-04-24T06:58:28.002Z</time></trkpt><trkpt lat="42.5221765764815" lon="11.284606994666554"><ele>10.0</ele><time>2026-04-24T06:58:29.001Z</time></trkpt><trkpt lat="42.52223015351902" lon="11.284828338909744"><ele>10.666666666666668</ele><time>2026-04-24T06:58:30.001Z</time></trkpt><trkpt lat="42.52228510406239" lon="11.285034616672469"><ele>11.333333333333334</ele><time>2026-04-24T06:58:31.001Z</time></trkpt><trkpt lat="42.52233632168181" lon="11.285238020529835"><ele>12.0</ele><time>2026-04-24T06:58:32.001Z</time></trkpt><trkpt lat="42.522369826654966" lon="11.285465806978678"><ele>12.0</ele><time>2026-04-24T06:58:33.001Z</time></trkpt><trkpt lat="42.52242279684345" lon="11.285675635688827"><ele>12.0</ele><time>2026-04-24T06:58:34.001Z</time></trkpt><trkpt lat="42.52247807100271" lon="11.285888042883292"><ele>12.0</ele><time>2026-04-24T06:58:35.001Z</time></trkpt><trkpt lat="42.52253127843562" lon="11.28611309871133"><ele>12.0</ele><time>2026-04-24T06:58:36.001Z</time></trkpt><trkpt lat="42.52257969556136" lon="11.28634283648497"><ele>12.0</ele><time>2026-04-24T06:58:37.001Z</time></trkpt><trkpt lat="42.52263822960538" lon="11.28657626391752"><ele>12.0</ele><time>2026-04-24T06:58:38.001Z</time></trkpt><trkpt lat="42.5226921303407" lon="11.28679470782929"><ele>11.333333333333334</ele><time>2026-04-24T06:58:39.001Z</time></trkpt><trkpt lat="42.52275005066372" lon="11.287024408997093"><ele>10.666666666666668</ele><time>2026-04-24T06:58:40.001Z</time></trkpt><trkpt lat="42.52280543018656" lon="11.28726095351775"><ele>10.0</ele><time>2026-04-24T06:58:41.001Z</time></trkpt><trkpt lat="42.52286925649906" lon="11.287497535537895"><ele>10.666666666666668</ele><time>2026-04-24T06:58:42.001Z</time></trkpt><trkpt lat="42.52292585114912" lon="11.287730186966964"><ele>11.333333333333334</ele><time>2026-04-24T06:58:43.001Z</time></trkpt><trkpt lat="42.522983001909004" lon="11.28796457208633"><ele>12.0</ele><time>2026-04-24T06:58:44.001Z</time></trkpt><trkpt lat="42.52303874520954" lon="11.28820373421642"><ele>12.0</ele><time>2026-04-24T06:58:45.001Z</time></trkpt><trkpt lat="42.52309564252704" lon="11.288434913806393"><ele>12.0</ele><time>2026-04-24T06:58:46.001Z</time></trkpt><trkpt lat="42.5231521110031" lon="11.288668961587456"><ele>12.0</ele><time>2026-04-24T06:58:47.001Z</time></trkpt><trkpt lat="42.52320849296425" lon="11.288897715130291"><ele>12.0</ele><time>2026-04-24T06:58:48.001Z</time></trkpt><trkpt lat="42.5232621263284" lon="11.289124531437647"><ele>12.0</ele><time>2026-04-24T06:58:49.001Z</time></trkpt><trkpt lat="42.523322965770525" lon="11.289351032073982"><ele>12.0</ele><time>2026-04-24T06:58:50.001Z</time></trkpt><trkpt lat="42.52337753338084" lon="11.2895709544706"><ele>12.666666666666668</ele><time>2026-04-24T06:58:51.001Z</time></trkpt><trkpt lat="42.523424264099816" lon="11.289798035584072"><ele>13.333333333333334</ele><time>2026-04-24T06:58:52.001Z</time></trkpt><trkpt lat="42.523465433974394" lon="11.290014906381053"><ele>14.0</ele><time>2026-04-24T06:58:53.001Z</time></trkpt><trkpt lat="42.52351664559919" lon="11.290233159648066"><ele>14.0</ele><time>2026-04-24T06:58:54.001Z</time></trkpt><trkpt lat="42.52358287196539" lon="11.290444290403299"><ele>14.0</ele><time>2026-04-24T06:58:55.001Z</time></trkpt><trkpt lat="42.52363627520782" lon="11.290665721846619"><ele>14.0</ele><time>2026-04-24T06:58:56.001Z</time></trkpt><trkpt lat="42.523688414144864" lon="11.290892081498583"><ele>13.666666666666668</ele><time>2026-04-24T06:58:57.001Z</time></trkpt><trkpt lat="42.523742988876464" lon="11.291115209321033"><ele>13.333333333333332</ele><time>2026-04-24T06:58:58.001Z</time></trkpt><trkpt lat="42.52380227112023" lon="11.291339817050224"><ele>13.0</ele><time>2026-04-24T06:58:59.001Z</time></trkpt><trkpt lat="42.52385219573793" lon="11.291568764150748"><ele>14.0</ele><time>2026-04-24T06:59:00.001Z</time></trkpt><trkpt lat="42.52391452509222" lon="11.291795023897166"><ele>15.0</ele><time>2026-04-24T06:59:01.001Z</time></trkpt><trkpt lat="42.523973346195824" lon="11.292017516195497"><ele>16.0</ele><time>2026-04-24T06:59:02.001Z</time></trkpt><trkpt lat="42.52403371507653" lon="11.292232394419878"><ele>16.333333333333332</ele><time>2026-04-24T06:59:03.001Z</time></trkpt><trkpt lat="42.524094660225394" lon="11.292453232782803"><ele>16.666666666666668</ele><time>2026-04-24T06:59:04.001Z</time></trkpt><trkpt lat="42.52415034256566" lon="11.292664621393383"><ele>17.0</ele><time>2026-04-24T06:59:05.001Z</time></trkpt><trkpt lat="42.52420533129121" lon="11.292881792625352"><ele>16.666666666666668</ele><time>2026-04-24T06:59:06.002Z</time></trkpt><trkpt lat="42.52425037605722" lon="11.293091261173654"><ele>16.333333333333332</ele><time>2026-04-24T06:59:07.002Z</time></trkpt><trkpt lat="42.52430414276041" lon="11.293307840230867"><ele>16.0</ele><time>2026-04-24T06:59:08.002Z</time></trkpt><trkpt lat="42.52436066560781" lon="11.293528055267041"><ele>16.0</ele><time>2026-04-24T06:59:09.002Z</time></trkpt><trkpt lat="42.52441148905056" lon="11.293749865792124"><ele>16.0</ele><time>2026-04-24T06:59:10.002Z</time></trkpt><trkpt lat="42.52445821923915" lon="11.293934993283814"><ele>16.0</ele><time>2026-04-24T06:59:11.002Z</time></trkpt><trkpt lat="42.52446260126446" lon="11.294083388753066"><ele>16.0</ele><time>2026-04-24T06:59:12.002Z</time></trkpt><trkpt lat="42.52449140210502" lon="11.294180330389265"><ele>16.2</ele><time>2026-04-24T06:59:13.002Z</time></trkpt><trkpt lat="42.52441791175421" lon="11.294250302266834"><ele>16.400000000000002</ele><time>2026-04-24T06:59:16.002Z</time></trkpt><trkpt lat="42.52433461968351" lon="11.294183702681119"><ele>16.6</ele><time>2026-04-24T06:59:17.002Z</time></trkpt><trkpt lat="42.52427342365788" lon="11.29422530331863"><ele>16.8</ele><time>2026-04-24T06:59:18.002Z</time></trkpt><trkpt lat="42.52420249638345" lon="11.294275192466538"><ele>17.0</ele><time>2026-04-24T06:59:19.002Z</time></trkpt><trkpt lat="42.52409463588734" lon="11.294331735184965"><ele>17.0</ele><time>2026-04-24T06:59:20.002Z</time></trkpt><trkpt lat="42.52399093977301" lon="11.294407316198411"><ele>17.0</ele><time>2026-04-24T06:59:21.002Z</time></trkpt><trkpt lat="42.523887538762075" lon="11.294488292309376"><ele>17.0</ele><time>2026-04-24T06:59:22.002Z</time></trkpt><trkpt lat="42.523783542908504" lon="11.294565808888237"><ele>17.0</ele><time>2026-04-24T06:59:23.002Z</time></trkpt><trkpt lat="42.523672512629346" lon="11.29464559782651"><ele>17.0</ele><time>2026-04-24T06:59:24.002Z</time></trkpt><trkpt lat="42.52354549637994" lon="11.294741430442391"><ele>17.0</ele><time>2026-04-24T06:59:25.002Z</time></trkpt><trkpt lat="42.52340851278862" lon="11.294838906458718"><ele>17.0</ele><time>2026-04-24T06:59:26.002Z</time></trkpt><trkpt lat="42.523267984448225" lon="11.2949366331242"><ele>17.0</ele><time>2026-04-24T06:59:27.002Z</time></trkpt><trkpt lat="42.52313412019214" lon="11.295034342786462"><ele>17.0</ele><time>2026-04-24T06:59:28.002Z</time></trkpt><trkpt lat="42.52300964276333" lon="11.295139663405882"><ele>17.0</ele><time>2026-04-24T06:59:29.002Z</time></trkpt><trkpt lat="42.52288493661237" lon="11.295269166074618"><ele>16.666666666666668</ele><time>2026-04-24T06:59:30.002Z</time></trkpt><trkpt lat="42.52276816151488" lon="11.295428174125318"><ele>16.333333333333332</ele><time>2026-04-24T06:59:31.002Z</time></trkpt><trkpt lat="42.52265535599383" lon="11.295582760381725"><ele>16.0</ele><time>2026-04-24T06:59:32.002Z</time></trkpt><trkpt lat="42.522544805204745" lon="11.295747902128213"><ele>16.666666666666664</ele><time>2026-04-24T06:59:33.002Z</time></trkpt><trkpt lat="42.52244240838764" lon="11.29591553849498"><ele>17.333333333333332</ele><time>2026-04-24T06:59:34.002Z</time></trkpt><trkpt lat="42.52234601441252" lon="11.296108944737437"><ele>18.0</ele><time>2026-04-24T06:59:35.002Z</time></trkpt><trkpt lat="42.52223120174217" lon="11.296312205595406"><ele>18.0</ele><time>2026-04-24T06:59:36.002Z</time></trkpt><trkpt lat="42.52211514023598" lon="11.29650349717654"><ele>18.0</ele><time>2026-04-24T06:59:37.002Z</time></trkpt><trkpt lat="42.52200559115181" lon="11.296702917810451"><ele>18.0</ele><time>2026-04-24T06:59:38.002Z</time></trkpt><trkpt lat="42.52188750625356" lon="11.296901879756263"><ele>17.666666666666668</ele><time>2026-04-24T06:59:39.002Z</time></trkpt><trkpt lat="42.52177172257141" lon="11.297087902955921"><ele>17.333333333333336</ele><time>2026-04-24T06:59:40.002Z</time></trkpt><trkpt lat="42.52165838295142" lon="11.297277100881834"><ele>17.0</ele><time>2026-04-24T06:59:41.002Z</time></trkpt><trkpt lat="42.52154661369444" lon="11.29745816810794"><ele>17.0</ele><time>2026-04-24T06:59:42.002Z</time></trkpt><trkpt lat="42.52143950903168" lon="11.297638582855608"><ele>17.0</ele><time>2026-04-24T06:59:43.002Z</time></trkpt><trkpt lat="42.521334393132264" lon="11.297815418896947"><ele>17.0</ele><time>2026-04-24T06:59:44.002Z</time></trkpt><trkpt lat="42.521223144021" lon="11.297984172457946"><ele>16.333333333333336</ele><time>2026-04-24T06:59:45.002Z</time></trkpt><trkpt lat="42.52110585796056" lon="11.298138982782454"><ele>15.666666666666668</ele><time>2026-04-24T06:59:46.002Z</time></trkpt><trkpt lat="42.5209725246688" lon="11.298273883585926"><ele>15.0</ele><time>2026-04-24T06:59:47.002Z</time></trkpt><trkpt lat="42.52083504144798" lon="11.298403830543217"><ele>15.0</ele><time>2026-04-24T06:59:48.002Z</time></trkpt><trkpt lat="42.520694961831175" lon="11.298536098765641"><ele>15.0</ele><time>2026-04-24T06:59:49.002Z</time></trkpt><trkpt lat="42.52055768686303" lon="11.298676246645751"><ele>15.0</ele><time>2026-04-24T06:59:50.002Z</time></trkpt><trkpt lat="42.52042214008946" lon="11.298819167010034"><ele>15.666666666666668</ele><time>2026-04-24T06:59:51.002Z</time></trkpt><trkpt lat="42.520279783292324" lon="11.298959193404531"><ele>16.333333333333336</ele><time>2026-04-24T06:59:52.002Z</time></trkpt><trkpt lat="42.52013388609205" lon="11.29910822354742"><ele>17.0</ele><time>2026-04-24T06:59:53.002Z</time></trkpt><trkpt lat="42.51998765893168" lon="11.299252154107004"><ele>17.0</ele><time>2026-04-24T06:59:54.002Z</time></trkpt><trkpt lat="42.51984946513031" lon="11.29938902031015"><ele>17.0</ele><time>2026-04-24T06:59:55.002Z</time></trkpt><trkpt lat="42.519707496590605" lon="11.299522698700418"><ele>17.0</ele><time>2026-04-24T06:59:56.002Z</time></trkpt><trkpt lat="42.51955937325786" lon="11.299666771409559"><ele>17.0</ele><time>2026-04-24T06:59:57.002Z</time></trkpt><trkpt lat="42.519415883191954" lon="11.299811998962776"><ele>17.0</ele><time>2026-04-24T06:59:58.002Z</time></trkpt><trkpt lat="42.51926366737061" lon="11.299971723026427"><ele>17.0</ele><time>2026-04-24T06:59:59.002Z</time></trkpt><trkpt lat="42.51911801611316" lon="11.300123367083499"><ele>17.0</ele><time>2026-04-24T07:00:00.002Z</time></trkpt><trkpt lat="42.518978127595894" lon="11.300281438374622"><ele>17.0</ele><time>2026-04-24T07:00:01.002Z</time></trkpt><trkpt lat="42.51883729158553" lon="11.300445575381051"><ele>17.0</ele><time>2026-04-24T07:00:02.002Z</time></trkpt><trkpt lat="42.51869818153653" lon="11.30061434745032"><ele>17.333333333333336</ele><time>2026-04-24T07:00:03.002Z</time></trkpt><trkpt lat="42.51855974801422" lon="11.300795536238537"><ele>17.666666666666668</ele><time>2026-04-24T07:00:04.002Z</time></trkpt><trkpt lat="42.518428336204664" lon="11.300972683267261"><ele>18.0</ele><time>2026-04-24T07:00:05.002Z</time></trkpt><trkpt lat="42.51830495188643" lon="11.301161414603515"><ele>18.0</ele><time>2026-04-24T07:00:06.002Z</time></trkpt><trkpt lat="42.518172911704355" lon="11.301341353964288"><ele>18.0</ele><time>2026-04-24T07:00:07.002Z</time></trkpt><trkpt lat="42.518051209009506" lon="11.301535837944149"><ele>18.0</ele><time>2026-04-24T07:00:08.002Z</time></trkpt><trkpt lat="42.517928926806135" lon="11.301732492741252"><ele>17.666666666666668</ele><time>2026-04-24T07:00:09.002Z</time></trkpt><trkpt lat="42.517808784180694" lon="11.301924213058895"><ele>17.333333333333336</ele><time>2026-04-24T07:00:10.002Z</time></trkpt><trkpt lat="42.51768589605523" lon="11.302127102048766"><ele>17.0</ele><time>2026-04-24T07:00:11.002Z</time></trkpt><trkpt lat="42.51755943180911" lon="11.302326354339732"><ele>16.333333333333336</ele><time>2026-04-24T07:00:12.002Z</time></trkpt><trkpt lat="42.51742753544219" lon="11.302541690799037"><ele>15.666666666666668</ele><time>2026-04-24T07:00:13.002Z</time></trkpt><trkpt lat="42.51730113157548" lon="11.302755894306987"><ele>15.0</ele><time>2026-04-24T07:00:14.003Z</time></trkpt><trkpt lat="42.517170060615385" lon="11.302969658521183"><ele>15.666666666666668</ele><time>2026-04-24T07:00:15.003Z</time></trkpt><trkpt lat="42.51702939998795" lon="11.303184864726852"><ele>16.333333333333336</ele><time>2026-04-24T07:00:16.003Z</time></trkpt><trkpt lat="42.51689084825209" lon="11.30340118726278"><ele>17.0</ele><time>2026-04-24T07:00:17.003Z</time></trkpt><trkpt lat="42.51675575099879" lon="11.303602725693906"><ele>17.0</ele><time>2026-04-24T07:00:18.003Z</time></trkpt><trkpt lat="42.51662708012379" lon="11.303810910909737"><ele>17.0</ele><time>2026-04-24T07:00:19.003Z</time></trkpt><trkpt lat="42.5165029677005" lon="11.304010627492222"><ele>17.0</ele><time>2026-04-24T07:00:20.003Z</time></trkpt><trkpt lat="42.51637384183079" lon="11.304220500486966"><ele>17.0</ele><time>2026-04-24T07:00:21.003Z</time></trkpt><trkpt lat="42.51624735201191" lon="11.304416696751005"><ele>17.0</ele><time>2026-04-24T07:00:22.003Z</time></trkpt><trkpt lat="42.51611574948789" lon="11.304612217034236"><ele>17.0</ele><time>2026-04-24T07:00:23.003Z</time></trkpt><trkpt lat="42.515980965497995" lon="11.304808473912718"><ele>15.666666666666668</ele><time>2026-04-24T07:00:24.003Z</time></trkpt><trkpt lat="42.51583828386018" lon="11.30501358199307"><ele>14.333333333333332</ele><time>2026-04-24T07:00:25.003Z</time></trkpt><trkpt lat="42.51569205380138" lon="11.305222182492365"><ele>13.0</ele><time>2026-04-24T07:00:26.003Z</time></trkpt><trkpt lat="42.51553922415018" lon="11.305423602142165"><ele>11.666666666666666</ele><time>2026-04-24T07:00:27.003Z</time></trkpt><trkpt lat="42.51537580618487" lon="11.3056338250546"><ele>10.333333333333332</ele><time>2026-04-24T07:00:28.003Z</time></trkpt><trkpt lat="42.51522862420028" lon="11.305834269928512"><ele>9.0</ele><time>2026-04-24T07:00:29.003Z</time></trkpt><trkpt lat="42.515080450248995" lon="11.306032214109363"><ele>9.0</ele><time>2026-04-24T07:00:30.003Z</time></trkpt><trkpt lat="42.5149351151094" lon="11.306224295618138"><ele>9.0</ele><time>2026-04-24T07:00:31.003Z</time></trkpt><trkpt lat="42.51479239049831" lon="11.306420944081584"><ele>9.0</ele><time>2026-04-24T07:00:32.003Z</time></trkpt><trkpt lat="42.51465578785366" lon="11.306614209491684"><ele>8.666666666666666</ele><time>2026-04-24T07:00:33.003Z</time></trkpt><trkpt lat="42.51451956302644" lon="11.306810288516033"><ele>8.333333333333332</ele><time>2026-04-24T07:00:34.003Z</time></trkpt><trkpt lat="42.51438672170956" lon="11.307006247985472"><ele>8.0</ele><time>2026-04-24T07:00:35.003Z</time></trkpt><trkpt lat="42.514255404451404" lon="11.307200451071143"><ele>8.0</ele><time>2026-04-24T07:00:36.003Z</time></trkpt><trkpt lat="42.514127000129854" lon="11.307400343918987"><ele>8.0</ele><time>2026-04-24T07:00:37.003Z</time></trkpt><trkpt lat="42.51399582460557" lon="11.307601011189906"><ele>8.0</ele><time>2026-04-24T07:00:38.003Z</time></trkpt><trkpt lat="42.513864571290696" lon="11.307794905127654"><ele>8.0</ele><time>2026-04-24T07:00:39.003Z</time></trkpt><trkpt lat="42.51372285409133" lon="11.307988357205607"><ele>8.0</ele><time>2026-04-24T07:00:40.003Z</time></trkpt><trkpt lat="42.51358633716584" lon="11.308179179928803"><ele>8.0</ele><time>2026-04-24T07:00:41.003Z</time></trkpt><trkpt lat="42.51345378489369" lon="11.308384344350502"><ele>8.0</ele><time>2026-04-24T07:00:42.003Z</time></trkpt><trkpt lat="42.513326597828325" lon="11.308582462850323"><ele>8.0</ele><time>2026-04-24T07:00:43.003Z</time></trkpt><trkpt lat="42.5132018280342" lon="11.308778636048025"><ele>8.0</ele><time>2026-04-24T07:00:44.003Z</time></trkpt><trkpt lat="42.513075036279545" lon="11.308968537372502"><ele>8.333333333333332</ele><time>2026-04-24T07:00:45.003Z</time></trkpt><trkpt lat="42.5129473608047" lon="11.30916454975395"><ele>8.666666666666666</ele><time>2026-04-24T07:00:46.003Z</time></trkpt><trkpt lat="42.512828402457174" lon="11.309335087287682"><ele>9.0</ele><time>2026-04-24T07:00:47.003Z</time></trkpt><trkpt lat="42.512718306545246" lon="11.309495788604394"><ele>8.5</ele><time>2026-04-24T07:00:48.003Z</time></trkpt><trkpt lat="42.51262144191012" lon="11.309642858206889"><ele>8.0</ele><time>2026-04-24T07:00:49.003Z</time></trkpt><trkpt lat="42.512524411205156" lon="11.309799881070997"><ele>7.5</ele><time>2026-04-24T07:00:50.003Z</time></trkpt><trkpt lat="42.51243684016574" lon="11.309946858026525"><ele>7.0</ele><time>2026-04-24T07:00:51.003Z</time></trkpt><trkpt lat="42.512352447714676" lon="11.310105790251338"><ele>7.0</ele><time>2026-04-24T07:00:52.003Z</time></trkpt><trkpt lat="42.5122916372657" lon="11.310286708798314"><ele>7.0</ele><time>2026-04-24T07:00:53.003Z</time></trkpt><trkpt lat="42.51224392697384" lon="11.310490510455905"><ele>7.0</ele><time>2026-04-24T07:00:54.003Z</time></trkpt><trkpt lat="42.51220606660197" lon="11.310701482175421"><ele>7.0</ele><time>2026-04-24T07:00:55.003Z</time></trkpt><trkpt lat="42.512178536067644" lon="11.310908048962427"><ele>7.0</ele><time>2026-04-24T07:00:56.003Z</time></trkpt><trkpt lat="42.51215329910839" lon="11.311118684766985"><ele>7.0</ele><time>2026-04-24T07:00:57.003Z</time></trkpt><trkpt lat="42.512112524022655" lon="11.311333138542937"><ele>7.666666666666667</ele><time>2026-04-24T07:00:58.003Z</time></trkpt><trkpt lat="42.51207605514546" lon="11.311548759729993"><ele>8.333333333333334</ele><time>2026-04-24T07:00:59.003Z</time></trkpt><trkpt lat="42.51203673522299" lon="11.311765461502297"><ele>9.0</ele><time>2026-04-24T07:01:00.003Z</time></trkpt><trkpt lat="42.51199663025406" lon="11.311979438634221"><ele>9.666666666666666</ele><time>2026-04-24T07:01:01.003Z</time></trkpt><trkpt lat="42.51195668911611" lon="11.31219224835501"><ele>10.333333333333332</ele><time>2026-04-24T07:01:02.003Z</time></trkpt><trkpt lat="42.51191415861787" lon="11.31239669725454"><ele>11.0</ele><time>2026-04-24T07:01:03.003Z</time></trkpt><trkpt lat="42.51187430442124" lon="11.312591009715883"><ele>11.0</ele><time>2026-04-24T07:01:04.003Z</time></trkpt><trkpt lat="42.51184354957944" lon="11.312759696853588"><ele>11.0</ele><time>2026-04-24T07:01:05.003Z</time></trkpt><trkpt lat="42.51182371479278" lon="11.312913078481103"><ele>11.0</ele><time>2026-04-24T07:01:06.003Z</time></trkpt><trkpt lat="42.511802485166086" lon="11.31303964735591"><ele>11.0</ele><time>2026-04-24T07:01:07.003Z</time></trkpt><trkpt lat="42.51179235199417" lon="11.313160530944122"><ele>11.0</ele><time>2026-04-24T07:01:08.003Z</time></trkpt><trkpt lat="42.51179440137048" lon="11.31327213421541"><ele>10.75</ele><time>2026-04-24T07:01:09.003Z</time></trkpt><trkpt lat="42.51183404875569" lon="11.313394637926043"><ele>10.5</ele><time>2026-04-24T07:01:10.003Z</time></trkpt><trkpt lat="42.511910893105956" lon="11.313526272980782"><ele>10.25</ele><time>2026-04-24T07:01:11.003Z</time></trkpt><trkpt lat="42.51201352863387" lon="11.313645389015479"><ele>10.0</ele><time>2026-04-24T07:01:12.003Z</time></trkpt><trkpt lat="42.51213137299357" lon="11.313750712362772"><ele>9.5</ele><time>2026-04-24T07:01:13.003Z</time></trkpt><trkpt lat="42.51225551564938" lon="11.313854514192746"><ele>9.0</ele><time>2026-04-24T07:01:14.003Z</time></trkpt><trkpt lat="42.51236554546128" lon="11.313942679809484"><ele>8.5</ele><time>2026-04-24T07:01:15.003Z</time></trkpt><trkpt lat="42.51250091012432" lon="11.314062057634638"><ele>8.0</ele><time>2026-04-24T07:01:16.003Z</time></trkpt><trkpt lat="42.512649497169775" lon="11.314188111976174"><ele>8.0</ele><time>2026-04-24T07:01:17.003Z</time></trkpt><trkpt lat="42.51279897433519" lon="11.314325663946333"><ele>8.0</ele><time>2026-04-24T07:01:18.003Z</time></trkpt><trkpt lat="42.51295283451639" lon="11.314469087408353"><ele>8.0</ele><time>2026-04-24T07:01:19.003Z</time></trkpt><trkpt lat="42.51311437093176" lon="11.314607785977806"><ele>8.333333333333332</ele><time>2026-04-24T07:01:20.003Z</time></trkpt><trkpt lat="42.513284520869824" lon="11.314742053174545"><ele>8.666666666666666</ele><time>2026-04-24T07:01:21.003Z</time></trkpt><trkpt lat="42.51344478432593" lon="11.314883631165362"><ele>9.0</ele><time>2026-04-24T07:01:22.003Z</time></trkpt><trkpt lat="42.51360245279747" lon="11.315027904636043"><ele>8.666666666666666</ele><time>2026-04-24T07:01:23.004Z</time></trkpt><trkpt lat="42.513761904409144" lon="11.315181591746065"><ele>8.333333333333332</ele><time>2026-04-24T07:01:24.004Z</time></trkpt><trkpt lat="42.513927511480844" lon="11.315330828969392"><ele>8.0</ele><time>2026-04-24T07:01:25.004Z</time></trkpt><trkpt lat="42.514097668710335" lon="11.315475141541432"><ele>8.333333333333332</ele><time>2026-04-24T07:01:26.004Z</time></trkpt><trkpt lat="42.51427026561862" lon="11.315626429187706"><ele>8.666666666666666</ele><time>2026-04-24T07:01:27.004Z</time></trkpt><trkpt lat="42.51443823250297" lon="11.315772623775935"><ele>9.0</ele><time>2026-04-24T07:01:28.004Z</time></trkpt><trkpt lat="42.51460960064956" lon="11.315924166534076"><ele>9.0</ele><time>2026-04-24T07:01:29.004Z</time></trkpt><trkpt lat="42.514781414691434" lon="11.316074924032215"><ele>9.0</ele><time>2026-04-24T07:01:30.004Z</time></trkpt><trkpt lat="42.51494709979528" lon="11.316230839084021"><ele>9.0</ele><time>2026-04-24T07:01:31.004Z</time></trkpt><trkpt lat="42.515111324837974" lon="11.316376241067642"><ele>9.666666666666666</ele><time>2026-04-24T07:01:32.004Z</time></trkpt><trkpt lat="42.51527622320052" lon="11.316519955126067"><ele>10.333333333333332</ele><time>2026-04-24T07:01:33.004Z</time></trkpt><trkpt lat="42.5154367558705" lon="11.3166646701912"><ele>11.0</ele><time>2026-04-24T07:01:34.004Z</time></trkpt><trkpt lat="42.51559164062129" lon="11.316800125885099"><ele>11.25</ele><time>2026-04-24T07:01:35.004Z</time></trkpt><trkpt lat="42.51572386745046" lon="11.316920002971411"><ele>11.5</ele><time>2026-04-24T07:01:36.004Z</time></trkpt><trkpt lat="42.515845181958575" lon="11.317027122558818"><ele>11.75</ele><time>2026-04-24T07:01:37.004Z</time></trkpt><trkpt lat="42.51594549549843" lon="11.317116660178842"><ele>12.0</ele><time>2026-04-24T07:01:38.004Z</time></trkpt><trkpt lat="42.51603266039807" lon="11.317205463754703"><ele>12.399999999999999</ele><time>2026-04-24T07:01:39.004Z</time></trkpt><trkpt lat="42.51609983426376" lon="11.317319972247006"><ele>12.799999999999999</ele><time>2026-04-24T07:01:40.004Z</time></trkpt><trkpt lat="42.51614036894893" lon="11.317432749678"><ele>13.2</ele><time>2026-04-24T07:01:41.004Z</time></trkpt><trkpt lat="42.51616151815954" lon="11.317551171220767"><ele>13.6</ele><time>2026-04-24T07:01:42.004Z</time></trkpt><trkpt lat="42.516143090747924" lon="11.317678996061963"><ele>14.0</ele><time>2026-04-24T07:01:43.004Z</time></trkpt><trkpt lat="42.51611053035346" lon="11.317821937244466"><ele>14.0</ele><time>2026-04-24T07:01:44.004Z</time></trkpt><trkpt lat="42.51607459943191" lon="11.317991323735386"><ele>14.0</ele><time>2026-04-24T07:01:45.004Z</time></trkpt><trkpt lat="42.51603751648657" lon="11.318166141254665"><ele>14.0</ele><time>2026-04-24T07:01:46.004Z</time></trkpt><trkpt lat="42.516016000362576" lon="11.318348448892488"><ele>14.0</ele><time>2026-04-24T07:01:47.004Z</time></trkpt><trkpt lat="42.515944558049206" lon="11.31855359045645"><ele>13.666666666666668</ele><time>2026-04-24T07:01:48.004Z</time></trkpt><trkpt lat="42.51589543559599" lon="11.31877837801173"><ele>13.333333333333332</ele><time>2026-04-24T07:01:49.004Z</time></trkpt><trkpt lat="42.515843638823235" lon="11.319020044407996"><ele>13.0</ele><time>2026-04-24T07:01:50.004Z</time></trkpt><trkpt lat="42.51579993010805" lon="11.319268466416514"><ele>13.0</ele><time>2026-04-24T07:01:51.004Z</time></trkpt><trkpt lat="42.51575389219597" lon="11.319512606463949"><ele>13.0</ele><time>2026-04-24T07:01:52.004Z</time></trkpt><trkpt lat="42.515701923993234" lon="11.319754771599"><ele>13.0</ele><time>2026-04-24T07:01:53.004Z</time></trkpt><trkpt lat="42.51564697266526" lon="11.320005759673625"><ele>13.0</ele><time>2026-04-24T07:01:54.004Z</time></trkpt><trkpt lat="42.515593904238365" lon="11.320268586469114"><ele>13.0</ele><time>2026-04-24T07:01:55.004Z</time></trkpt><trkpt lat="42.51553587814234" lon="11.320523765365348"><ele>13.0</ele><time>2026-04-24T07:01:56.004Z</time></trkpt><trkpt lat="42.515482967524065" lon="11.320775001535907"><ele>13.0</ele><time>2026-04-24T07:01:57.004Z</time></trkpt><trkpt lat="42.51542079940466" lon="11.321030411251183"><ele>13.0</ele><time>2026-04-24T07:01:58.004Z</time></trkpt><trkpt lat="42.51536490620568" lon="11.321279573456504"><ele>13.0</ele><time>2026-04-24T07:01:59.004Z</time></trkpt><trkpt lat="42.515315444967705" lon="11.321539741106687"><ele>13.333333333333332</ele><time>2026-04-24T07:02:00.004Z</time></trkpt><trkpt lat="42.51526631653377" lon="11.321786726315855"><ele>13.666666666666668</ele><time>2026-04-24T07:02:01.004Z</time></trkpt><trkpt lat="42.51522030205275" lon="11.322019844752646"><ele>14.0</ele><time>2026-04-24T07:02:02.004Z</time></trkpt><trkpt lat="42.51516869878803" lon="11.322258760677032"><ele>14.0</ele><time>2026-04-24T07:02:03.004Z</time></trkpt><trkpt lat="42.515114700408134" lon="11.322502503355883"><ele>14.0</ele><time>2026-04-24T07:02:04.004Z</time></trkpt><trkpt lat="42.515066106674205" lon="11.322749254354314"><ele>14.0</ele><time>2026-04-24T07:02:05.004Z</time></trkpt><trkpt lat="42.5150128674622" lon="11.323000702397291"><ele>15.0</ele><time>2026-04-24T07:02:06.004Z</time></trkpt><trkpt lat="42.51496157913868" lon="11.323246687742424"><ele>16.0</ele><time>2026-04-24T07:02:07.004Z</time></trkpt><trkpt lat="42.514911255359245" lon="11.323492018795983"><ele>17.0</ele><time>2026-04-24T07:02:08.004Z</time></trkpt><trkpt lat="42.514861564075396" lon="11.323744048481855"><ele>16.666666666666668</ele><time>2026-04-24T07:02:09.004Z</time></trkpt><trkpt lat="42.51480728319022" lon="11.323996701865966"><ele>16.333333333333332</ele><time>2026-04-24T07:02:10.004Z</time></trkpt><trkpt lat="42.51475298223285" lon="11.324245180524658"><ele>16.0</ele><time>2026-04-24T07:02:11.004Z</time></trkpt><trkpt lat="42.51469899143897" lon="11.324485709961833"><ele>16.0</ele><time>2026-04-24T07:02:12.004Z</time></trkpt><trkpt lat="42.514644663111376" lon="11.3247410137444"><ele>16.0</ele><time>2026-04-24T07:02:13.004Z</time></trkpt><trkpt lat="42.51458942772064" lon="11.32499602242873"><ele>16.0</ele><time>2026-04-24T07:02:14.004Z</time></trkpt><trkpt lat="42.514535540786184" lon="11.325249605401778"><ele>16.333333333333332</ele><time>2026-04-24T07:02:15.004Z</time></trkpt><trkpt lat="42.514480774154734" lon="11.325509227249047"><ele>16.666666666666668</ele><time>2026-04-24T07:02:16.004Z</time></trkpt><trkpt lat="42.514425023931224" lon="11.325766187562303"><ele>17.0</ele><time>2026-04-24T07:02:17.004Z</time></trkpt><trkpt lat="42.514370926691996" lon="11.326032360517884"><ele>17.333333333333336</ele><time>2026-04-24T07:02:18.004Z</time></trkpt><trkpt lat="42.51431676291821" lon="11.326304320568102"><ele>17.666666666666668</ele><time>2026-04-24T07:02:19.004Z</time></trkpt><trkpt lat="42.51426506336971" lon="11.326569379508005"><ele>18.0</ele><time>2026-04-24T07:02:20.004Z</time></trkpt><trkpt lat="42.514208024963345" lon="11.326822024120561"><ele>18.0</ele><time>2026-04-24T07:02:21.004Z</time></trkpt><trkpt lat="42.514156360829375" lon="11.327077920390968"><ele>18.0</ele><time>2026-04-24T07:02:22.004Z</time></trkpt><trkpt lat="42.51408836039126" lon="11.327323080742811"><ele>18.0</ele><time>2026-04-24T07:02:23.004Z</time></trkpt><trkpt lat="42.514039064083775" lon="11.327555523809135"><ele>18.75</ele><time>2026-04-24T07:02:24.004Z</time></trkpt><trkpt lat="42.513995342933626" lon="11.327761678665272"><ele>19.5</ele><time>2026-04-24T07:02:25.004Z</time></trkpt><trkpt lat="42.51395299529458" lon="11.32796135704122"><ele>20.25</ele><time>2026-04-24T07:02:26.004Z</time></trkpt><trkpt lat="42.51392305292149" lon="11.328136857514238"><ele>21.0</ele><time>2026-04-24T07:02:27.004Z</time></trkpt><trkpt lat="42.513869878863424" lon="11.328264479809024"><ele>21.0</ele><time>2026-04-24T07:02:28.004Z</time></trkpt><trkpt lat="42.51384001590632" lon="11.328411942040189"><ele>21.0</ele><time>2026-04-24T07:02:29.004Z</time></trkpt><trkpt lat="42.51380990303947" lon="11.328553817251928"><ele>21.0</ele><time>2026-04-24T07:02:30.004Z</time></trkpt><trkpt lat="42.51375666384828" lon="11.32889231781116"><ele>21.25</ele><time>2026-04-24T07:02:31.004Z</time></trkpt><trkpt lat="42.51362831592918" lon="11.329025074708738"><ele>21.5</ele><time>2026-04-24T07:02:32.005Z</time></trkpt><trkpt lat="42.51351407375981" lon="11.32912528397993"><ele>21.75</ele><time>2026-04-24T07:02:33.005Z</time></trkpt><trkpt lat="42.51340921793475" lon="11.329215291468639"><ele>22.0</ele><time>2026-04-24T07:02:34.005Z</time></trkpt><trkpt lat="42.513272865547364" lon="11.329273320642724"><ele>22.0</ele><time>2026-04-24T07:02:35.005Z</time></trkpt><trkpt lat="42.51318523104521" lon="11.329322125629737"><ele>22.0</ele><time>2026-04-24T07:02:36.005Z</time></trkpt><trkpt lat="42.51309746306828" lon="11.329389435607503"><ele>22.0</ele><time>2026-04-24T07:02:37.005Z</time></trkpt><trkpt lat="42.51299153503543" lon="11.329483795157017"><ele>22.0</ele><time>2026-04-24T07:02:38.005Z</time></trkpt><trkpt lat="42.512869958624506" lon="11.329593396639908"><ele>21.333333333333332</ele><time>2026-04-24T07:02:39.005Z</time></trkpt><trkpt lat="42.512715764912926" lon="11.329732402793063"><ele>20.666666666666668</ele><time>2026-04-24T07:02:40.005Z</time></trkpt><trkpt lat="42.51256266893842" lon="11.329870419221926"><ele>20.0</ele><time>2026-04-24T07:02:41.005Z</time></trkpt><trkpt lat="42.51240594803968" lon="11.330013930958025"><ele>20.0</ele><time>2026-04-24T07:02:42.005Z</time></trkpt><trkpt lat="42.51224712575587" lon="11.330159407767649"><ele>20.0</ele><time>2026-04-24T07:02:43.005Z</time></trkpt><trkpt lat="42.51208402638933" lon="11.330308193667294"><ele>20.0</ele><time>2026-04-24T07:02:44.005Z</time></trkpt><trkpt lat="42.511917667838915" lon="11.330458271467412"><ele>19.666666666666668</ele><time>2026-04-24T07:02:45.005Z</time></trkpt><trkpt lat="42.51174962226736" lon="11.330609864491397"><ele>19.333333333333332</ele><time>2026-04-24T07:02:46.005Z</time></trkpt><trkpt lat="42.51158298115183" lon="11.330756324711922"><ele>19.0</ele><time>2026-04-24T07:02:47.005Z</time></trkpt><trkpt lat="42.51142109549922" lon="11.330919800143008"><ele>19.0</ele><time>2026-04-24T07:02:48.005Z</time></trkpt><trkpt lat="42.51125020147441" lon="11.331081098225196"><ele>19.0</ele><time>2026-04-24T07:02:49.005Z</time></trkpt><trkpt lat="42.511080761455204" lon="11.33123351787376"><ele>19.0</ele><time>2026-04-24T07:02:50.005Z</time></trkpt><trkpt lat="42.51091457471747" lon="11.331396966139572"><ele>19.0</ele><time>2026-04-24T07:02:51.005Z</time></trkpt><trkpt lat="42.51074383212901" lon="11.331554975638321"><ele>19.0</ele><time>2026-04-24T07:02:52.005Z</time></trkpt><trkpt lat="42.51057260891409" lon="11.331716164332173"><ele>19.0</ele><time>2026-04-24T07:02:53.005Z</time></trkpt><trkpt lat="42.51039703339282" lon="11.331861461618663"><ele>19.0</ele><time>2026-04-24T07:02:54.005Z</time></trkpt><trkpt lat="42.51022749401212" lon="11.332011936123223"><ele>19.0</ele><time>2026-04-24T07:02:55.005Z</time></trkpt><trkpt lat="42.51006146146591" lon="11.332170582893808"><ele>19.0</ele><time>2026-04-24T07:02:56.005Z</time></trkpt><trkpt lat="42.509900619379714" lon="11.33232335963977"><ele>20.333333333333332</ele><time>2026-04-24T07:02:57.005Z</time></trkpt><trkpt lat="42.50974408764663" lon="11.332465232030131"><ele>21.666666666666668</ele><time>2026-04-24T07:02:58.005Z</time></trkpt><trkpt lat="42.50958099128734" lon="11.332610109426483"><ele>23.0</ele><time>2026-04-24T07:02:59.005Z</time></trkpt><trkpt lat="42.50941659983055" lon="11.332770208749587"><ele>23.0</ele><time>2026-04-24T07:03:00.005Z</time></trkpt><trkpt lat="42.50925558805598" lon="11.332937054520015"><ele>23.0</ele><time>2026-04-24T07:03:01.005Z</time></trkpt><trkpt lat="42.50908990419392" lon="11.333093964218824"><ele>23.0</ele><time>2026-04-24T07:03:02.005Z</time></trkpt><trkpt lat="42.50891962577022" lon="11.333252302523368"><ele>22.666666666666668</ele><time>2026-04-24T07:03:03.005Z</time></trkpt><trkpt lat="42.508742187683715" lon="11.333414380541555"><ele>22.333333333333332</ele><time>2026-04-24T07:03:04.005Z</time></trkpt><trkpt lat="42.50856948006475" lon="11.333579002475846"><ele>22.0</ele><time>2026-04-24T07:03:05.005Z</time></trkpt><trkpt lat="42.508397713304085" lon="11.33373997851613"><ele>22.333333333333332</ele><time>2026-04-24T07:03:06.005Z</time></trkpt><trkpt lat="42.50821706422838" lon="11.333895272138154"><ele>22.666666666666668</ele><time>2026-04-24T07:03:07.005Z</time></trkpt><trkpt lat="42.50804866875086" lon="11.334048663076759"><ele>23.0</ele><time>2026-04-24T07:03:08.005Z</time></trkpt><trkpt lat="42.50787265062493" lon="11.334200670201533"><ele>23.0</ele><time>2026-04-24T07:03:09.005Z</time></trkpt><trkpt lat="42.50769928035752" lon="11.334362390382825"><ele>23.0</ele><time>2026-04-24T07:03:10.005Z</time></trkpt><trkpt lat="42.507526733799786" lon="11.334520832582594"><ele>23.0</ele><time>2026-04-24T07:03:11.005Z</time></trkpt><trkpt lat="42.5073535146747" lon="11.334673831000945"><ele>22.333333333333336</ele><time>2026-04-24T07:03:12.005Z</time></trkpt><trkpt lat="42.50718886078101" lon="11.334831799161991"><ele>21.666666666666668</ele><time>2026-04-24T07:03:13.005Z</time></trkpt><trkpt lat="42.5070150479511" lon="11.334987442018882"><ele>21.0</ele><time>2026-04-24T07:03:14.005Z</time></trkpt><trkpt lat="42.50684576523025" lon="11.33514415310794"><ele>21.0</ele><time>2026-04-24T07:03:15.005Z</time></trkpt><trkpt lat="42.506677838676495" lon="11.335309972502168"><ele>21.0</ele><time>2026-04-24T07:03:16.005Z</time></trkpt><trkpt lat="42.50650639458583" lon="11.335469663490443"><ele>21.0</ele><time>2026-04-24T07:03:17.005Z</time></trkpt><trkpt lat="42.50633150734311" lon="11.335626453443952"><ele>21.333333333333332</ele><time>2026-04-24T07:03:18.005Z</time></trkpt><trkpt lat="42.5061642468167" lon="11.335784168976389"><ele>21.666666666666664</ele><time>2026-04-24T07:03:19.005Z</time></trkpt><trkpt lat="42.5059788243598" lon="11.335930676246566"><ele>22.0</ele><time>2026-04-24T07:03:20.005Z</time></trkpt><trkpt lat="42.50581114176487" lon="11.336106826043485"><ele>22.0</ele><time>2026-04-24T07:03:21.005Z</time></trkpt><trkpt lat="42.50563692053186" lon="11.336267109328682"><ele>22.0</ele><time>2026-04-24T07:03:22.005Z</time></trkpt><trkpt lat="42.50545652321634" lon="11.336404436123647"><ele>22.0</ele><time>2026-04-24T07:03:23.005Z</time></trkpt><trkpt lat="42.505280021504426" lon="11.336564247190855"><ele>22.0</ele><time>2026-04-24T07:03:24.005Z</time></trkpt><trkpt lat="42.50511161718635" lon="11.336716724328392"><ele>22.0</ele><time>2026-04-24T07:03:25.005Z</time></trkpt><trkpt lat="42.50495331426871" lon="11.336886708399323"><ele>22.0</ele><time>2026-04-24T07:03:26.005Z</time></trkpt><trkpt lat="42.504762709302305" lon="11.337013190087523"><ele>22.0</ele><time>2026-04-24T07:03:27.005Z</time></trkpt><trkpt lat="42.504587416218925" lon="11.337169317607776"><ele>22.0</ele><time>2026-04-24T07:03:28.005Z</time></trkpt><trkpt lat="42.5044135594579" lon="11.337326439542814"><ele>22.0</ele><time>2026-04-24T07:03:29.005Z</time></trkpt><trkpt lat="42.50423844665109" lon="11.33749870849042"><ele>21.333333333333332</ele><time>2026-04-24T07:03:30.005Z</time></trkpt><trkpt lat="42.504056538673304" lon="11.337671402650663"><ele>20.666666666666668</ele><time>2026-04-24T07:03:31.005Z</time></trkpt><trkpt lat="42.50388192599429" lon="11.33784707126301"><ele>20.0</ele><time>2026-04-24T07:03:32.005Z</time></trkpt><trkpt lat="42.503709267399806" lon="11.338004074974872"><ele>19.666666666666668</ele><time>2026-04-24T07:03:33.005Z</time></trkpt><trkpt lat="42.503536157967716" lon="11.338156835669118"><ele>19.333333333333332</ele><time>2026-04-24T07:03:34.005Z</time></trkpt><trkpt lat="42.50336123254878" lon="11.338311647779083"><ele>19.0</ele><time>2026-04-24T07:03:35.005Z</time></trkpt><trkpt lat="42.50318565218078" lon="11.338468384954021"><ele>19.0</ele><time>2026-04-24T07:03:36.005Z</time></trkpt><trkpt lat="42.503007023799896" lon="11.338631777028423"><ele>19.0</ele><time>2026-04-24T07:03:37.005Z</time></trkpt><trkpt lat="42.50283236459692" lon="11.338791273861654"><ele>19.0</ele><time>2026-04-24T07:03:38.005Z</time></trkpt><trkpt lat="42.50265731497681" lon="11.338944725353938"><ele>19.333333333333332</ele><time>2026-04-24T07:03:39.005Z</time></trkpt><trkpt lat="42.50249394323534" lon="11.339098937873757"><ele>19.666666666666668</ele><time>2026-04-24T07:03:40.006Z</time></trkpt><trkpt lat="42.50232794271118" lon="11.339254861230737"><ele>20.0</ele><time>2026-04-24T07:03:41.006Z</time></trkpt><trkpt lat="42.50216273507769" lon="11.339411141182994"><ele>19.333333333333336</ele><time>2026-04-24T07:03:42.006Z</time></trkpt><trkpt lat="42.50200077136866" lon="11.339559788129197"><ele>18.666666666666668</ele><time>2026-04-24T07:03:43.006Z</time></trkpt><trkpt lat="42.501839344243386" lon="11.339700585977125"><ele>18.0</ele><time>2026-04-24T07:03:44.006Z</time></trkpt><trkpt lat="42.5016661128973" lon="11.339850547654951"><ele>18.0</ele><time>2026-04-24T07:03:45.006Z</time></trkpt><trkpt lat="42.50149743164995" lon="11.339999923307786"><ele>18.0</ele><time>2026-04-24T07:03:46.006Z</time></trkpt><trkpt lat="42.50132921627732" lon="11.34014818448954"><ele>18.0</ele><time>2026-04-24T07:03:47.006Z</time></trkpt><trkpt lat="42.50116406596021" lon="11.340298748067607"><ele>17.333333333333332</ele><time>2026-04-24T07:03:48.006Z</time></trkpt><trkpt lat="42.50099409200836" lon="11.34045796465997"><ele>16.666666666666664</ele><time>2026-04-24T07:03:49.006Z</time></trkpt><trkpt lat="42.50082377515532" lon="11.340612715842903"><ele>16.0</ele><time>2026-04-24T07:03:50.006Z</time></trkpt><trkpt lat="42.500650951943015" lon="11.340769617937358"><ele>16.0</ele><time>2026-04-24T07:03:51.006Z</time></trkpt><trkpt lat="42.50048256352272" lon="11.340925323058883"><ele>16.0</ele><time>2026-04-24T07:03:52.006Z</time></trkpt><trkpt lat="42.50031118760678" lon="11.341084869889261"><ele>16.0</ele><time>2026-04-24T07:03:53.006Z</time></trkpt><trkpt lat="42.50014030712763" lon="11.341243252941831"><ele>16.666666666666664</ele><time>2026-04-24T07:03:54.006Z</time></trkpt><trkpt lat="42.499966722267395" lon="11.3414009986502"><ele>17.333333333333332</ele><time>2026-04-24T07:03:55.006Z</time></trkpt><trkpt lat="42.499794360484586" lon="11.341548119651716"><ele>18.0</ele><time>2026-04-24T07:03:56.006Z</time></trkpt><trkpt lat="42.49961931790425" lon="11.341705294980274"><ele>17.666666666666668</ele><time>2026-04-24T07:03:57.006Z</time></trkpt><trkpt lat="42.499450314747094" lon="11.341864065923463"><ele>17.333333333333336</ele><time>2026-04-24T07:03:58.006Z</time></trkpt><trkpt lat="42.49928007422457" lon="11.342015429031845"><ele>17.0</ele><time>2026-04-24T07:03:59.006Z</time></trkpt><trkpt lat="42.49910817072946" lon="11.34216945449744"><ele>17.333333333333336</ele><time>2026-04-24T07:04:00.006Z</time></trkpt><trkpt lat="42.498938874428184" lon="11.34232063188605"><ele>17.666666666666668</ele><time>2026-04-24T07:04:01.006Z</time></trkpt><trkpt lat="42.498769967854564" lon="11.342467151148178"><ele>18.0</ele><time>2026-04-24T07:04:02.006Z</time></trkpt><trkpt lat="42.49860538402187" lon="11.342613332025948"><ele>18.0</ele><time>2026-04-24T07:04:03.006Z</time></trkpt><trkpt lat="42.498442467154774" lon="11.342755428635316"><ele>18.0</ele><time>2026-04-24T07:04:04.006Z</time></trkpt><trkpt lat="42.49828363215727" lon="11.342900451733964"><ele>18.0</ele><time>2026-04-24T07:04:05.006Z</time></trkpt><trkpt lat="42.4981253020054" lon="11.343050253353052"><ele>18.333333333333332</ele><time>2026-04-24T07:04:06.006Z</time></trkpt><trkpt lat="42.49797201076257" lon="11.343194232568798"><ele>18.666666666666664</ele><time>2026-04-24T07:04:07.006Z</time></trkpt><trkpt lat="42.497823491832946" lon="11.34332271520999"><ele>19.0</ele><time>2026-04-24T07:04:08.006Z</time></trkpt><trkpt lat="42.49767800719389" lon="11.343449264664072"><ele>19.0</ele><time>2026-04-24T07:04:09.006Z</time></trkpt><trkpt lat="42.49753638867358" lon="11.343585733059589"><ele>19.0</ele><time>2026-04-24T07:04:10.006Z</time></trkpt><trkpt lat="42.49739244584482" lon="11.343711521091475"><ele>19.0</ele><time>2026-04-24T07:04:11.006Z</time></trkpt><trkpt lat="42.49724746056646" lon="11.34385218722169"><ele>21.333333333333332</ele><time>2026-04-24T07:04:12.006Z</time></trkpt><trkpt lat="42.49709794603322" lon="11.344007482963022"><ele>23.666666666666664</ele><time>2026-04-24T07:04:13.006Z</time></trkpt><trkpt lat="42.49694716692821" lon="11.344180103574562"><ele>26.0</ele><time>2026-04-24T07:04:14.006Z</time></trkpt><trkpt lat="42.49681501480094" lon="11.344401546082485"><ele>26.0</ele><time>2026-04-24T07:04:15.006Z</time></trkpt><trkpt lat="42.496695811937045" lon="11.344615041063248"><ele>26.0</ele><time>2026-04-24T07:04:16.006Z</time></trkpt><trkpt lat="42.49658310869207" lon="11.344826721733234"><ele>26.0</ele><time>2026-04-24T07:04:17.006Z</time></trkpt><trkpt lat="42.4964751745992" lon="11.345027463073114"><ele>25.333333333333332</ele><time>2026-04-24T07:04:18.006Z</time></trkpt><trkpt lat="42.49638396185824" lon="11.345230631085926"><ele>24.666666666666664</ele><time>2026-04-24T07:04:19.006Z</time></trkpt><trkpt lat="42.49629342548357" lon="11.345422525241007"><ele>24.0</ele><time>2026-04-24T07:04:20.006Z</time></trkpt><trkpt lat="42.496232690023874" lon="11.345626723584614"><ele>24.0</ele><time>2026-04-24T07:04:21.006Z</time></trkpt><trkpt lat="42.49620617170476" lon="11.345827236237042"><ele>24.0</ele><time>2026-04-24T07:04:22.006Z</time></trkpt><trkpt lat="42.49618507816842" lon="11.346029819872113"><ele>24.0</ele><time>2026-04-24T07:04:23.006Z</time></trkpt><trkpt lat="42.49618494750892" lon="11.346204725456825"><ele>24.0</ele><time>2026-04-24T07:04:24.006Z</time></trkpt><trkpt lat="42.496189815114604" lon="11.346378811781914"><ele>22.75</ele><time>2026-04-24T07:04:25.006Z</time></trkpt><trkpt lat="42.496203222778" lon="11.346559901892775"><ele>21.5</ele><time>2026-04-24T07:04:26.006Z</time></trkpt><trkpt lat="42.49616358827182" lon="11.346721520434961"><ele>20.25</ele><time>2026-04-24T07:04:27.006Z</time></trkpt><trkpt lat="42.496094266620275" lon="11.346852617637108"><ele>19.0</ele><time>2026-04-24T07:04:28.006Z</time></trkpt><trkpt lat="42.4959912309405" lon="11.346963350274134"><ele>19.0</ele><time>2026-04-24T07:04:29.006Z</time></trkpt><trkpt lat="42.49586852367717" lon="11.347080647316131"><ele>19.0</ele><time>2026-04-24T07:04:30.006Z</time></trkpt><trkpt lat="42.49575138661503" lon="11.347207327495228"><ele>19.0</ele><time>2026-04-24T07:04:31.006Z</time></trkpt><trkpt lat="42.495626792061316" lon="11.347344869469495"><ele>18.666666666666664</ele><time>2026-04-24T07:04:32.006Z</time></trkpt><trkpt lat="42.49548639455319" lon="11.347474923249209"><ele>18.333333333333332</ele><time>2026-04-24T07:04:33.006Z</time></trkpt><trkpt lat="42.49533577405695" lon="11.347593716180535"><ele>18.0</ele><time>2026-04-24T07:04:34.006Z</time></trkpt><trkpt lat="42.49517931394471" lon="11.34769812070892"><ele>18.0</ele><time>2026-04-24T07:04:35.006Z</time></trkpt><trkpt lat="42.494982100296454" lon="11.347810967876741"><ele>18.0</ele><time>2026-04-24T07:04:36.006Z</time></trkpt><trkpt lat="42.49479484206927" lon="11.347935108257985"><ele>18.0</ele><time>2026-04-24T07:04:37.006Z</time></trkpt><trkpt lat="42.4946276531637" lon="11.34805607306598"><ele>19.0</ele><time>2026-04-24T07:04:38.006Z</time></trkpt><trkpt lat="42.49446638297562" lon="11.34817719957135"><ele>20.0</ele><time>2026-04-24T07:04:39.006Z</time></trkpt><trkpt lat="42.49431268068775" lon="11.348280727528799"><ele>21.0</ele><time>2026-04-24T07:04:40.006Z</time></trkpt><trkpt lat="42.49416672658135" lon="11.348393635434672"><ele>21.0</ele><time>2026-04-24T07:04:41.006Z</time></trkpt><trkpt lat="42.49404387351" lon="11.348512720999334"><ele>21.0</ele><time>2026-04-24T07:04:42.006Z</time></trkpt><trkpt lat="42.49392466081866" lon="11.348664635523708"><ele>21.0</ele><time>2026-04-24T07:04:43.006Z</time></trkpt><trkpt lat="42.49382348245505" lon="11.348849366290395"><ele>22.0</ele><time>2026-04-24T07:04:44.006Z</time></trkpt><trkpt lat="42.493735683767646" lon="11.349048999813656"><ele>23.0</ele><time>2026-04-24T07:04:45.006Z</time></trkpt><trkpt lat="42.49365313845797" lon="11.349254422751082"><ele>24.0</ele><time>2026-04-24T07:04:46.006Z</time></trkpt><trkpt lat="42.49356445225755" lon="11.349466952837597"><ele>24.0</ele><time>2026-04-24T07:04:47.006Z</time></trkpt><trkpt lat="42.49347632981525" lon="11.349672743755171"><ele>24.0</ele><time>2026-04-24T07:04:48.006Z</time></trkpt><trkpt lat="42.493376013826634" lon="11.349885275934446"><ele>24.0</ele><time>2026-04-24T07:04:49.007Z</time></trkpt><trkpt lat="42.493279296756704" lon="11.350102527825248"><ele>23.666666666666668</ele><time>2026-04-24T07:04:50.007Z</time></trkpt><trkpt lat="42.493180340517625" lon="11.350307018554616"><ele>23.333333333333336</ele><time>2026-04-24T07:04:51.007Z</time></trkpt><trkpt lat="42.49307754418435" lon="11.350510550661827"><ele>23.0</ele><time>2026-04-24T07:04:52.007Z</time></trkpt><trkpt lat="42.49296875053622" lon="11.350721897194246"><ele>23.333333333333336</ele><time>2026-04-24T07:04:53.007Z</time></trkpt><trkpt lat="42.49286171645395" lon="11.35094398115528"><ele>23.666666666666668</ele><time>2026-04-24T07:04:54.007Z</time></trkpt><trkpt lat="42.49276351739088" lon="11.351171537443342"><ele>24.0</ele><time>2026-04-24T07:04:55.007Z</time></trkpt><trkpt lat="42.49265508914254" lon="11.351392880736064"><ele>23.333333333333332</ele><time>2026-04-24T07:04:56.007Z</time></trkpt><trkpt lat="42.492544814256085" lon="11.351617149566115"><ele>22.666666666666664</ele><time>2026-04-24T07:04:57.007Z</time></trkpt><trkpt lat="42.49243284279565" lon="11.351844716401136"><ele>22.0</ele><time>2026-04-24T07:04:58.007Z</time></trkpt><trkpt lat="42.49232342460244" lon="11.352082771048693"><ele>21.666666666666664</ele><time>2026-04-24T07:04:59.007Z</time></trkpt><trkpt lat="42.49221549953419" lon="11.352318067295665"><ele>21.333333333333332</ele><time>2026-04-24T07:05:00.007Z</time></trkpt><trkpt lat="42.4920978923189" lon="11.352535827181315"><ele>21.0</ele><time>2026-04-24T07:05:01.007Z</time></trkpt><trkpt lat="42.49198562220092" lon="11.352768965808375"><ele>21.333333333333332</ele><time>2026-04-24T07:05:02.007Z</time></trkpt><trkpt lat="42.49188210220562" lon="11.353018539754128"><ele>21.666666666666664</ele><time>2026-04-24T07:05:03.007Z</time></trkpt><trkpt lat="42.4917708390937" lon="11.353251356044261"><ele>22.0</ele><time>2026-04-24T07:05:04.007Z</time></trkpt><trkpt lat="42.49166176505926" lon="11.353480883644512"><ele>22.0</ele><time>2026-04-24T07:05:05.007Z</time></trkpt><trkpt lat="42.49154808694458" lon="11.3537122504297"><ele>22.0</ele><time>2026-04-24T07:05:06.007Z</time></trkpt><trkpt lat="42.49143700460696" lon="11.353942801165358"><ele>22.0</ele><time>2026-04-24T07:05:07.007Z</time></trkpt><trkpt lat="42.49129501158196" lon="11.354145198204815"><ele>22.666666666666664</ele><time>2026-04-24T07:05:08.007Z</time></trkpt><trkpt lat="42.4911856874325" lon="11.354369867256853"><ele>23.333333333333332</ele><time>2026-04-24T07:05:09.007Z</time></trkpt><trkpt lat="42.49107902091728" lon="11.354596744753783"><ele>24.0</ele><time>2026-04-24T07:05:10.007Z</time></trkpt><trkpt lat="42.49096619269732" lon="11.354834225087425"><ele>24.0</ele><time>2026-04-24T07:05:11.007Z</time></trkpt><trkpt lat="42.4908492567936" lon="11.355075650203256"><ele>24.0</ele><time>2026-04-24T07:05:12.007Z</time></trkpt><trkpt lat="42.49073431062843" lon="11.355323748925056"><ele>24.0</ele><time>2026-04-24T07:05:13.007Z</time></trkpt><trkpt lat="42.49062259452899" lon="11.355570216090417"><ele>24.333333333333336</ele><time>2026-04-24T07:05:14.007Z</time></trkpt><trkpt lat="42.49050743859483" lon="11.355814162675877"><ele>24.666666666666668</ele><time>2026-04-24T07:05:15.007Z</time></trkpt><trkpt lat="42.490390124034924" lon="11.356058754232324"><ele>25.0</ele><time>2026-04-24T07:05:16.007Z</time></trkpt><trkpt lat="42.49027324894265" lon="11.356296682721645"><ele>26.666666666666668</ele><time>2026-04-24T07:05:17.007Z</time></trkpt><trkpt lat="42.490158425353435" lon="11.356538450845003"><ele>28.333333333333336</ele><time>2026-04-24T07:05:18.007Z</time></trkpt><trkpt lat="42.49004348418127" lon="11.356788830043651"><ele>30.0</ele><time>2026-04-24T07:05:19.007Z</time></trkpt><trkpt lat="42.48993043343946" lon="11.35703154203865"><ele>30.666666666666664</ele><time>2026-04-24T07:05:20.007Z</time></trkpt><trkpt lat="42.48981268029721" lon="11.357275756160327"><ele>31.333333333333332</ele><time>2026-04-24T07:05:21.007Z</time></trkpt><trkpt lat="42.48969401138076" lon="11.357511310890654"><ele>32.0</ele><time>2026-04-24T07:05:22.007Z</time></trkpt><trkpt lat="42.48957375330158" lon="11.357753377242549"><ele>32.0</ele><time>2026-04-24T07:05:23.007Z</time></trkpt><trkpt lat="42.489459231477696" lon="11.357996560863509"><ele>32.0</ele><time>2026-04-24T07:05:24.007Z</time></trkpt><trkpt lat="42.48934715931579" lon="11.358236453340059"><ele>32.0</ele><time>2026-04-24T07:05:25.007Z</time></trkpt><trkpt lat="42.48923201083899" lon="11.358476574798928"><ele>32.0</ele><time>2026-04-24T07:05:26.007Z</time></trkpt><trkpt lat="42.48911355866318" lon="11.358716180896522"><ele>32.0</ele><time>2026-04-24T07:05:27.007Z</time></trkpt><trkpt lat="42.488994562212724" lon="11.358962419704671"><ele>32.0</ele><time>2026-04-24T07:05:28.007Z</time></trkpt><trkpt lat="42.488873359306496" lon="11.359203712216424"><ele>32.0</ele><time>2026-04-24T07:05:29.007Z</time></trkpt><trkpt lat="42.48876087963299" lon="11.35944231448216"><ele>32.0</ele><time>2026-04-24T07:05:30.007Z</time></trkpt><trkpt lat="42.48864551983461" lon="11.359684639500111"><ele>32.0</ele><time>2026-04-24T07:05:31.007Z</time></trkpt><trkpt lat="42.4885261031137" lon="11.359927995678468"><ele>32.33333333333333</ele><time>2026-04-24T07:05:32.007Z</time></trkpt><trkpt lat="42.48840852837469" lon="11.36017184633897"><ele>32.666666666666664</ele><time>2026-04-24T07:05:33.007Z</time></trkpt><trkpt lat="42.48828899551283" lon="11.360407444772045"><ele>33.0</ele><time>2026-04-24T07:05:34.007Z</time></trkpt><trkpt lat="42.48818242782656" lon="11.360644469804686"><ele>33.0</ele><time>2026-04-24T07:05:35.007Z</time></trkpt><trkpt lat="42.48807383897513" lon="11.36086820037575"><ele>33.0</ele><time>2026-04-24T07:05:36.007Z</time></trkpt><trkpt lat="42.48796846052358" lon="11.361089412010871"><ele>33.0</ele><time>2026-04-24T07:05:37.007Z</time></trkpt><trkpt lat="42.487861648594375" lon="11.361307639533868"><ele>32.333333333333336</ele><time>2026-04-24T07:05:38.007Z</time></trkpt><trkpt lat="42.48775545287518" lon="11.361517147889197"><ele>31.666666666666668</ele><time>2026-04-24T07:05:39.007Z</time></trkpt><trkpt lat="42.487653528074645" lon="11.361731837603877"><ele>31.0</ele><time>2026-04-24T07:05:40.007Z</time></trkpt><trkpt lat="42.48755916668343" lon="11.361938783384607"><ele>31.0</ele><time>2026-04-24T07:05:41.007Z</time></trkpt><trkpt lat="42.487461742049675" lon="11.362137485318229"><ele>31.0</ele><time>2026-04-24T07:05:42.007Z</time></trkpt><trkpt lat="42.487362636633996" lon="11.362338819000527"><ele>31.0</ele><time>2026-04-24T07:05:43.007Z</time></trkpt><trkpt lat="42.487254323452845" lon="11.362554779992365"><ele>30.666666666666668</ele><time>2026-04-24T07:05:44.007Z</time></trkpt><trkpt lat="42.48714547931747" lon="11.362769582767035"><ele>30.333333333333336</ele><time>2026-04-24T07:05:45.007Z</time></trkpt><trkpt lat="42.487033504390276" lon="11.362990018281778"><ele>30.0</ele><time>2026-04-24T07:05:46.007Z</time></trkpt><trkpt lat="42.48692461141219" lon="11.363213694405028"><ele>30.0</ele><time>2026-04-24T07:05:47.007Z</time></trkpt><trkpt lat="42.48682187086665" lon="11.363435836794977"><ele>30.0</ele><time>2026-04-24T07:05:48.007Z</time></trkpt><trkpt lat="42.48672005526488" lon="11.363657832771173"><ele>30.0</ele><time>2026-04-24T07:05:49.007Z</time></trkpt><trkpt lat="42.48661299151155" lon="11.363878603594573"><ele>30.0</ele><time>2026-04-24T07:05:50.007Z</time></trkpt><trkpt lat="42.48650185708104" lon="11.3640999788313"><ele>30.0</ele><time>2026-04-24T07:05:51.007Z</time></trkpt><trkpt lat="42.48639125077213" lon="11.36431801720401"><ele>30.0</ele><time>2026-04-24T07:05:52.007Z</time></trkpt><trkpt lat="42.486273629682536" lon="11.364543358986547"><ele>30.0</ele><time>2026-04-24T07:05:53.007Z</time></trkpt><trkpt lat="42.48616143850735" lon="11.364770630772616"><ele>30.0</ele><time>2026-04-24T07:05:54.007Z</time></trkpt><trkpt lat="42.48604960691835" lon="11.365002516693838"><ele>30.0</ele><time>2026-04-24T07:05:55.007Z</time></trkpt><trkpt lat="42.485939382153326" lon="11.365235364659164"><ele>30.0</ele><time>2026-04-24T07:05:56.007Z</time></trkpt><trkpt lat="42.4858292942765" lon="11.365467933478095"><ele>30.0</ele><time>2026-04-24T07:05:57.007Z</time></trkpt><trkpt lat="42.48572141554783" lon="11.365693758016258"><ele>30.0</ele><time>2026-04-24T07:05:58.008Z</time></trkpt><trkpt lat="42.485615171678056" lon="11.365911294549482"><ele>30.333333333333336</ele><time>2026-04-24T07:05:59.008Z</time></trkpt><trkpt lat="42.48550946983961" lon="11.366125065351001"><ele>30.666666666666668</ele><time>2026-04-24T07:06:00.008Z</time></trkpt><trkpt lat="42.48539867660675" lon="11.366348025601678"><ele>31.0</ele><time>2026-04-24T07:06:01.008Z</time></trkpt><trkpt lat="42.48529047884883" lon="11.366562241319246"><ele>31.666666666666668</ele><time>2026-04-24T07:06:02.008Z</time></trkpt><trkpt lat="42.485180309781065" lon="11.366773126999352"><ele>32.333333333333336</ele><time>2026-04-24T07:06:03.008Z</time></trkpt><trkpt lat="42.48507585678029" lon="11.366997327336659"><ele>33.0</ele><time>2026-04-24T07:06:04.008Z</time></trkpt><trkpt lat="42.484969922044314" lon="11.36722629895845"><ele>33.0</ele><time>2026-04-24T07:06:05.008Z</time></trkpt><trkpt lat="42.48486428247762" lon="11.367452211844224"><ele>33.0</ele><time>2026-04-24T07:06:06.008Z</time></trkpt><trkpt lat="42.484753446123364" lon="11.367673380924154"><ele>33.0</ele><time>2026-04-24T07:06:07.008Z</time></trkpt><trkpt lat="42.484644831849565" lon="11.367896163913374"><ele>33.666666666666664</ele><time>2026-04-24T07:06:08.008Z</time></trkpt><trkpt lat="42.484530518775024" lon="11.368116068381545"><ele>34.33333333333333</ele><time>2026-04-24T07:06:09.008Z</time></trkpt><trkpt lat="42.48441998484408" lon="11.368344228338934"><ele>35.0</ele><time>2026-04-24T07:06:10.008Z</time></trkpt><trkpt lat="42.48430638567706" lon="11.368571336444544"><ele>35.0</ele><time>2026-04-24T07:06:11.008Z</time></trkpt><trkpt lat="42.484199008370815" lon="11.36880431827104"><ele>35.0</ele><time>2026-04-24T07:06:12.008Z</time></trkpt><trkpt lat="42.48407474322819" lon="11.369021546941914"><ele>35.0</ele><time>2026-04-24T07:06:13.008Z</time></trkpt><trkpt lat="42.48396428035614" lon="11.36924659344587"><ele>35.0</ele><time>2026-04-24T07:06:14.008Z</time></trkpt><trkpt lat="42.48385268376531" lon="11.369474990645086"><ele>35.0</ele><time>2026-04-24T07:06:15.008Z</time></trkpt><trkpt lat="42.48375254727509" lon="11.369709082836453"><ele>35.0</ele><time>2026-04-24T07:06:16.008Z</time></trkpt><trkpt lat="42.48363804379269" lon="11.36993963482317"><ele>35.33333333333333</ele><time>2026-04-24T07:06:17.008Z</time></trkpt><trkpt lat="42.48353332499602" lon="11.370166765794401"><ele>35.666666666666664</ele><time>2026-04-24T07:06:18.008Z</time></trkpt><trkpt lat="42.48342288647249" lon="11.370393427205403"><ele>36.0</ele><time>2026-04-24T07:06:19.008Z</time></trkpt><trkpt lat="42.48329690136303" lon="11.370610450879534"><ele>36.0</ele><time>2026-04-24T07:06:20.008Z</time></trkpt><trkpt lat="42.48318913861452" lon="11.370829406419208"><ele>36.0</ele><time>2026-04-24T07:06:21.008Z</time></trkpt><trkpt lat="42.483095797272284" lon="11.371053788794335"><ele>36.0</ele><time>2026-04-24T07:06:22.008Z</time></trkpt><trkpt lat="42.48297992540531" lon="11.371270756768824"><ele>38.0</ele><time>2026-04-24T07:06:23.008Z</time></trkpt><trkpt lat="42.48286714123222" lon="11.371495521943379"><ele>40.0</ele><time>2026-04-24T07:06:24.008Z</time></trkpt><trkpt lat="42.482757477580904" lon="11.371727545664944"><ele>42.0</ele><time>2026-04-24T07:06:25.008Z</time></trkpt><trkpt lat="42.482652890464806" lon="11.37197243864119"><ele>43.0</ele><time>2026-04-24T07:06:26.008Z</time></trkpt><trkpt lat="42.48254993741999" lon="11.37223106436472"><ele>44.0</ele><time>2026-04-24T07:06:27.008Z</time></trkpt><trkpt lat="42.4824547470104" lon="11.37250358166491"><ele>45.0</ele><time>2026-04-24T07:06:28.008Z</time></trkpt><trkpt lat="42.482370330037746" lon="11.372771859218645"><ele>45.333333333333336</ele><time>2026-04-24T07:06:29.008Z</time></trkpt><trkpt lat="42.48227827214218" lon="11.373047733746171"><ele>45.66666666666667</ele><time>2026-04-24T07:06:30.008Z</time></trkpt><trkpt lat="42.48218697567637" lon="11.37332529166718"><ele>46.0</ele><time>2026-04-24T07:06:31.008Z</time></trkpt><trkpt lat="42.48209784655487" lon="11.373588508219447"><ele>48.333333333333336</ele><time>2026-04-24T07:06:32.008Z</time></trkpt><trkpt lat="42.48201786609202" lon="11.373848915483467"><ele>50.66666666666667</ele><time>2026-04-24T07:06:33.008Z</time></trkpt><trkpt lat="42.481928893250696" lon="11.374100235671113"><ele>53.0</ele><time>2026-04-24T07:06:34.008Z</time></trkpt><trkpt lat="42.4818089592567" lon="11.374322115444684"><ele>53.0</ele><time>2026-04-24T07:06:35.008Z</time></trkpt><trkpt lat="42.481686055934844" lon="11.374534146869753"><ele>53.0</ele><time>2026-04-24T07:06:36.008Z</time></trkpt><trkpt lat="42.48156071457184" lon="11.374740747701384"><ele>53.0</ele><time>2026-04-24T07:06:37.008Z</time></trkpt><trkpt lat="42.481434548146105" lon="11.374954196883852"><ele>52.333333333333336</ele><time>2026-04-24T07:06:38.008Z</time></trkpt><trkpt lat="42.48130883832012" lon="11.375183770771029"><ele>51.66666666666667</ele><time>2026-04-24T07:06:39.008Z</time></trkpt><trkpt lat="42.48117423531642" lon="11.37540184791522"><ele>51.0</ele><time>2026-04-24T07:06:40.008Z</time></trkpt><trkpt lat="42.48104403280437" lon="11.37560482149947"><ele>53.0</ele><time>2026-04-24T07:06:41.008Z</time></trkpt><trkpt lat="42.480938363972626" lon="11.37579268922305"><ele>55.0</ele><time>2026-04-24T07:06:42.008Z</time></trkpt><trkpt lat="42.48083696327562" lon="11.375959125757563"><ele>57.0</ele><time>2026-04-24T07:06:43.008Z</time></trkpt><trkpt lat="42.4807410827847" lon="11.376129931096711"><ele>57.0</ele><time>2026-04-24T07:06:44.008Z</time></trkpt><trkpt lat="42.48064046152113" lon="11.37631504398365"><ele>57.0</ele><time>2026-04-24T07:06:45.008Z</time></trkpt><trkpt lat="42.48054744158846" lon="11.376510271633553"><ele>57.0</ele><time>2026-04-24T07:06:46.008Z</time></trkpt><trkpt lat="42.48047135978048" lon="11.376692222037432"><ele>57.5</ele><time>2026-04-24T07:06:47.008Z</time></trkpt><trkpt lat="42.48040347413097" lon="11.376869798509581"><ele>58.0</ele><time>2026-04-24T07:06:48.008Z</time></trkpt><trkpt lat="42.480342815127536" lon="11.37704121271877"><ele>58.5</ele><time>2026-04-24T07:06:49.008Z</time></trkpt><trkpt lat="42.48029446351858" lon="11.377219045062471"><ele>59.0</ele><time>2026-04-24T07:06:50.008Z</time></trkpt><trkpt lat="42.480257155412346" lon="11.377369314818194"><ele>58.2</ele><time>2026-04-24T07:06:51.008Z</time></trkpt><trkpt lat="42.48019689626379" lon="11.377486213232658"><ele>57.400000000000006</ele><time>2026-04-24T07:06:52.008Z</time></trkpt><trkpt lat="42.480146912515245" lon="11.377608216597126"><ele>56.6</ele><time>2026-04-24T07:06:53.008Z</time></trkpt><trkpt lat="42.48010026368155" lon="11.37772050521739"><ele>55.8</ele><time>2026-04-24T07:06:54.008Z</time></trkpt><trkpt lat="42.48005623707215" lon="11.377824784072615"><ele>55.0</ele><time>2026-04-24T07:06:55.008Z</time></trkpt><trkpt lat="42.480011870086116" lon="11.377927718234618"><ele>54.25</ele><time>2026-04-24T07:06:56.008Z</time></trkpt><trkpt lat="42.47996225872534" lon="11.378038371477338"><ele>53.5</ele><time>2026-04-24T07:06:57.008Z</time></trkpt><trkpt lat="42.4799014874174" lon="11.378170537039834"><ele>52.75</ele><time>2026-04-24T07:06:58.008Z</time></trkpt><trkpt lat="42.47984211823184" lon="11.37833366187941"><ele>52.0</ele><time>2026-04-24T07:06:59.008Z</time></trkpt><trkpt lat="42.479721111833975" lon="11.378506311756981"><ele>52.0</ele><time>2026-04-24T07:07:00.008Z</time></trkpt><trkpt lat="42.47961293094658" lon="11.378717262577828"><ele>52.0</ele><time>2026-04-24T07:07:01.008Z</time></trkpt><trkpt lat="42.479508734755925" lon="11.378929654277533"><ele>52.0</ele><time>2026-04-24T07:07:02.008Z</time></trkpt><trkpt lat="42.479410083661534" lon="11.379138859589117"><ele>52.33333333333333</ele><time>2026-04-24T07:07:03.008Z</time></trkpt><trkpt lat="42.47931223566177" lon="11.379345758858168"><ele>52.66666666666667</ele><time>2026-04-24T07:07:04.008Z</time></trkpt><trkpt lat="42.47921212745522" lon="11.379545177953316"><ele>53.0</ele><time>2026-04-24T07:07:05.008Z</time></trkpt><trkpt lat="42.47913279443251" lon="11.379719838008445"><ele>51.0</ele><time>2026-04-24T07:07:06.008Z</time></trkpt><trkpt lat="42.479054517093616" lon="11.379894793705287"><ele>49.0</ele><time>2026-04-24T07:07:07.009Z</time></trkpt><trkpt lat="42.478987324856156" lon="11.380084904932685"><ele>47.0</ele><time>2026-04-24T07:07:08.009Z</time></trkpt><trkpt lat="42.47895056247912" lon="11.380283954523819"><ele>43.33333333333333</ele><time>2026-04-24T07:07:09.009Z</time></trkpt><trkpt lat="42.478945383355104" lon="11.380521427623112"><ele>39.666666666666664</ele><time>2026-04-24T07:07:10.009Z</time></trkpt><trkpt lat="42.47894009312871" lon="11.38074286472348"><ele>36.0</ele><time>2026-04-24T07:07:11.009Z</time></trkpt><trkpt lat="42.478969740281585" lon="11.380959951063895"><ele>36.0</ele><time>2026-04-24T07:07:12.009Z</time></trkpt><trkpt lat="42.478980896669476" lon="11.381188466213905"><ele>36.0</ele><time>2026-04-24T07:07:13.009Z</time></trkpt><trkpt lat="42.478984310760865" lon="11.381441635883704"><ele>36.0</ele><time>2026-04-24T07:07:14.009Z</time></trkpt><trkpt lat="42.47897239517317" lon="11.381694710136676"><ele>36.0</ele><time>2026-04-24T07:07:15.009Z</time></trkpt><trkpt lat="42.478979998087105" lon="11.381957673058784"><ele>36.0</ele><time>2026-04-24T07:07:16.009Z</time></trkpt><trkpt lat="42.47896795943678" lon="11.382234704124082"><ele>36.0</ele><time>2026-04-24T07:07:17.009Z</time></trkpt><trkpt lat="42.47895619112125" lon="11.382505013395269"><ele>36.0</ele><time>2026-04-24T07:07:18.009Z</time></trkpt><trkpt lat="42.478949263949154" lon="11.382772527402274"><ele>36.0</ele><time>2026-04-24T07:07:19.009Z</time></trkpt><trkpt lat="42.47894958675139" lon="11.383042976179887"><ele>36.0</ele><time>2026-04-24T07:07:20.009Z</time></trkpt><trkpt lat="42.47894577926232" lon="11.383298947969438"><ele>37.333333333333336</ele><time>2026-04-24T07:07:21.009Z</time></trkpt><trkpt lat="42.47893171321074" lon="11.38355366938608"><ele>38.66666666666667</ele><time>2026-04-24T07:07:22.009Z</time></trkpt><trkpt lat="42.4788888324035" lon="11.383798411912617"><ele>40.0</ele><time>2026-04-24T07:07:23.009Z</time></trkpt><trkpt lat="42.47883737596084" lon="11.38403199332978"><ele>41.333333333333336</ele><time>2026-04-24T07:07:24.009Z</time></trkpt><trkpt lat="42.47875736290092" lon="11.384258112536036"><ele>42.666666666666664</ele><time>2026-04-24T07:07:25.009Z</time></trkpt><trkpt lat="42.47867276716795" lon="11.384485882466103"><ele>44.0</ele><time>2026-04-24T07:07:26.009Z</time></trkpt><trkpt lat="42.47858664247473" lon="11.384719020636362"><ele>44.0</ele><time>2026-04-24T07:07:27.009Z</time></trkpt><trkpt lat="42.478509215040205" lon="11.384965790040125"><ele>44.0</ele><time>2026-04-24T07:07:28.009Z</time></trkpt><trkpt lat="42.47841849574135" lon="11.385208144765375"><ele>44.0</ele><time>2026-04-24T07:07:29.009Z</time></trkpt><trkpt lat="42.478328080712586" lon="11.385456521822748"><ele>44.33333333333333</ele><time>2026-04-24T07:07:30.009Z</time></trkpt><trkpt lat="42.478237375932345" lon="11.385706926571338"><ele>44.666666666666664</ele><time>2026-04-24T07:07:31.009Z</time></trkpt><trkpt lat="42.478148730379104" lon="11.38596010285303"><ele>45.0</ele><time>2026-04-24T07:07:32.009Z</time></trkpt><trkpt lat="42.47805639331491" lon="11.386220012998853"><ele>44.666666666666664</ele><time>2026-04-24T07:07:33.009Z</time></trkpt><trkpt lat="42.47795911181282" lon="11.386487847921874"><ele>44.33333333333333</ele><time>2026-04-24T07:07:34.009Z</time></trkpt><trkpt lat="42.47785938688208" lon="11.386749104358906"><ele>44.0</ele><time>2026-04-24T07:07:35.009Z</time></trkpt><trkpt lat="42.477764386617025" lon="11.38701943578864"><ele>44.0</ele><time>2026-04-24T07:07:36.009Z</time></trkpt><trkpt lat="42.47767192565923" lon="11.387279531095658"><ele>44.0</ele><time>2026-04-24T07:07:37.009Z</time></trkpt><trkpt lat="42.47757728365444" lon="11.38753547554326"><ele>44.0</ele><time>2026-04-24T07:07:38.009Z</time></trkpt><trkpt lat="42.477491320275945" lon="11.387787810722882"><ele>45.0</ele><time>2026-04-24T07:07:39.009Z</time></trkpt><trkpt lat="42.477400785134144" lon="11.388033772464077"><ele>46.0</ele><time>2026-04-24T07:07:40.009Z</time></trkpt><trkpt lat="42.47731049985937" lon="11.388273798388749"><ele>47.0</ele><time>2026-04-24T07:07:41.009Z</time></trkpt><trkpt lat="42.477223803970695" lon="11.388520753717495"><ele>47.0</ele><time>2026-04-24T07:07:42.009Z</time></trkpt><trkpt lat="42.477119467915415" lon="11.38876456734827"><ele>47.0</ele><time>2026-04-24T07:07:43.009Z</time></trkpt><trkpt lat="42.477032209806474" lon="11.389003080718"><ele>47.0</ele><time>2026-04-24T07:07:44.009Z</time></trkpt><trkpt lat="42.47694405796528" lon="11.38924695078348"><ele>47.0</ele><time>2026-04-24T07:07:45.009Z</time></trkpt><trkpt lat="42.476854188870476" lon="11.389496369929825"><ele>47.0</ele><time>2026-04-24T07:07:46.009Z</time></trkpt><trkpt lat="42.47676461086594" lon="11.389744979835507"><ele>47.0</ele><time>2026-04-24T07:07:47.009Z</time></trkpt><trkpt lat="42.476689767027864" lon="11.389998096946927"><ele>47.0</ele><time>2026-04-24T07:07:48.009Z</time></trkpt><trkpt lat="42.476598248531154" lon="11.390243511686128"><ele>47.0</ele><time>2026-04-24T07:07:49.009Z</time></trkpt><trkpt lat="42.47651146260691" lon="11.39049031250415"><ele>47.0</ele><time>2026-04-24T07:07:50.009Z</time></trkpt><trkpt lat="42.47642366627369" lon="11.39074190275903"><ele>46.666666666666664</ele><time>2026-04-24T07:07:51.009Z</time></trkpt><trkpt lat="42.47632049153838" lon="11.390976003989485"><ele>46.333333333333336</ele><time>2026-04-24T07:07:52.009Z</time></trkpt><trkpt lat="42.47623464831319" lon="11.39121315731002"><ele>46.0</ele><time>2026-04-24T07:07:53.009Z</time></trkpt><trkpt lat="42.47614667599354" lon="11.391456193002144"><ele>45.66666666666667</ele><time>2026-04-24T07:07:54.009Z</time></trkpt><trkpt lat="42.476056693484196" lon="11.39170478250749"><ele>45.333333333333336</ele><time>2026-04-24T07:07:55.009Z</time></trkpt><trkpt lat="42.47596656903179" lon="11.3919537637024"><ele>45.0</ele><time>2026-04-24T07:07:56.009Z</time></trkpt><trkpt lat="42.47587862435384" lon="11.392196722766219"><ele>45.666666666666664</ele><time>2026-04-24T07:07:57.009Z</time></trkpt><trkpt lat="42.47578939470231" lon="11.392440743731326"><ele>46.33333333333333</ele><time>2026-04-24T07:07:58.009Z</time></trkpt><trkpt lat="42.47569857304751" lon="11.392687036347583"><ele>47.0</ele><time>2026-04-24T07:07:59.009Z</time></trkpt><trkpt lat="42.475610085595896" lon="11.392930094638366"><ele>47.0</ele><time>2026-04-24T07:08:00.009Z</time></trkpt><trkpt lat="42.47553957879379" lon="11.393172495118346"><ele>47.0</ele><time>2026-04-24T07:08:01.009Z</time></trkpt><trkpt lat="42.475440832131135" lon="11.393397198246"><ele>47.0</ele><time>2026-04-24T07:08:02.009Z</time></trkpt><trkpt lat="42.47536154218488" lon="11.393614690946276"><ele>47.0</ele><time>2026-04-24T07:08:03.009Z</time></trkpt><trkpt lat="42.47528210472659" lon="11.393832587862162"><ele>47.0</ele><time>2026-04-24T07:08:04.009Z</time></trkpt><trkpt lat="42.47520215112035" lon="11.39405189763674"><ele>47.0</ele><time>2026-04-24T07:08:05.009Z</time></trkpt><trkpt lat="42.47513220085402" lon="11.394291551722201"><ele>47.0</ele><time>2026-04-24T07:08:06.009Z</time></trkpt><trkpt lat="42.47502635924064" lon="11.394513701935645"><ele>47.0</ele><time>2026-04-24T07:08:07.009Z</time></trkpt><trkpt lat="42.474935036782796" lon="11.394744439622553"><ele>47.0</ele><time>2026-04-24T07:08:08.009Z</time></trkpt><trkpt lat="42.47482821859873" lon="11.394961732732167"><ele>47.33333333333333</ele><time>2026-04-24T07:08:09.009Z</time></trkpt><trkpt lat="42.47470186391706" lon="11.395170156432384"><ele>47.666666666666664</ele><time>2026-04-24T07:08:10.009Z</time></trkpt><trkpt lat="42.47455901354229" lon="11.395359690296917"><ele>48.0</ele><time>2026-04-24T07:08:11.009Z</time></trkpt><trkpt lat="42.47441137194655" lon="11.395551754694646"><ele>48.0</ele><time>2026-04-24T07:08:12.009Z</time></trkpt><trkpt lat="42.474272157228505" lon="11.395764025736717"><ele>48.0</ele><time>2026-04-24T07:08:13.009Z</time></trkpt><trkpt lat="42.47413440634669" lon="11.39597237220668"><ele>48.0</ele><time>2026-04-24T07:08:14.009Z</time></trkpt><trkpt lat="42.47399127927826" lon="11.396175529365355"><ele>48.0</ele><time>2026-04-24T07:08:15.009Z</time></trkpt><trkpt lat="42.473853002358666" lon="11.396375167101924"><ele>48.0</ele><time>2026-04-24T07:08:16.01Z</time></trkpt><trkpt lat="42.47371825543502" lon="11.396579427366083"><ele>48.0</ele><time>2026-04-24T07:08:17.01Z</time></trkpt><trkpt lat="42.47358474202006" lon="11.396785604726864"><ele>48.0</ele><time>2026-04-24T07:08:18.01Z</time></trkpt><trkpt lat="42.47345362059624" lon="11.39699019018395"><ele>48.0</ele><time>2026-04-24T07:08:19.01Z</time></trkpt><trkpt lat="42.4733168674633" lon="11.397199659044455"><ele>48.0</ele><time>2026-04-24T07:08:20.01Z</time></trkpt><trkpt lat="42.473178436798875" lon="11.397414538850088"><ele>48.66666666666667</ele><time>2026-04-24T07:08:21.01Z</time></trkpt><trkpt lat="42.47304792774715" lon="11.397617991868648"><ele>49.333333333333336</ele><time>2026-04-24T07:08:22.01Z</time></trkpt><trkpt lat="42.472920831427494" lon="11.39782471049849"><ele>50.0</ele><time>2026-04-24T07:08:23.01Z</time></trkpt><trkpt lat="42.47278375121696" lon="11.398032095044838"><ele>50.66666666666667</ele><time>2026-04-24T07:08:24.01Z</time></trkpt><trkpt lat="42.472645926290475" lon="11.398237363377268"><ele>51.33333333333333</ele><time>2026-04-24T07:08:25.01Z</time></trkpt><trkpt lat="42.47250907848819" lon="11.398436072526577"><ele>52.0</ele><time>2026-04-24T07:08:26.01Z</time></trkpt><trkpt lat="42.47238062442597" lon="11.398626792636914"><ele>52.0</ele><time>2026-04-24T07:08:27.01Z</time></trkpt><trkpt lat="42.472242088127096" lon="11.398824384539555"><ele>52.0</ele><time>2026-04-24T07:08:28.01Z</time></trkpt><trkpt lat="42.47210501919297" lon="11.399022242366087"><ele>52.0</ele><time>2026-04-24T07:08:29.01Z</time></trkpt><trkpt lat="42.471969498233754" lon="11.399219079656778"><ele>52.666666666666664</ele><time>2026-04-24T07:08:30.01Z</time></trkpt><trkpt lat="42.471837674850484" lon="11.399413094694609"><ele>53.33333333333333</ele><time>2026-04-24T07:08:31.01Z</time></trkpt><trkpt lat="42.47170847650498" lon="11.399613560667328"><ele>54.0</ele><time>2026-04-24T07:08:32.009Z</time></trkpt><trkpt lat="42.47157714884294" lon="11.399809060279742"><ele>55.0</ele><time>2026-04-24T07:08:33.009Z</time></trkpt><trkpt lat="42.47144745820011" lon="11.40000117529724"><ele>56.0</ele><time>2026-04-24T07:08:34.009Z</time></trkpt><trkpt lat="42.471314808034485" lon="11.400192753200706"><ele>57.0</ele><time>2026-04-24T07:08:35.009Z</time></trkpt><trkpt lat="42.47118602491046" lon="11.400387795420118"><ele>57.66666666666667</ele><time>2026-04-24T07:08:36.009Z</time></trkpt><trkpt lat="42.47105858344799" lon="11.400583102393412"><ele>58.333333333333336</ele><time>2026-04-24T07:08:37.009Z</time></trkpt><trkpt lat="42.47092909872915" lon="11.400773481546523"><ele>59.0</ele><time>2026-04-24T07:08:38.009Z</time></trkpt><trkpt lat="42.47080655916997" lon="11.400977507650783"><ele>59.0</ele><time>2026-04-24T07:08:39.009Z</time></trkpt><trkpt lat="42.470673972875424" lon="11.401183709284076"><ele>59.0</ele><time>2026-04-24T07:08:40.009Z</time></trkpt><trkpt lat="42.47052885049252" lon="11.401391569199154"><ele>59.0</ele><time>2026-04-24T07:08:41.009Z</time></trkpt><trkpt lat="42.47038953037291" lon="11.401597384772934"><ele>60.0</ele><time>2026-04-24T07:08:42.009Z</time></trkpt><trkpt lat="42.470254416926394" lon="11.401805818476923"><ele>61.0</ele><time>2026-04-24T07:08:43.009Z</time></trkpt><trkpt lat="42.47012042996126" lon="11.40200414724651"><ele>62.0</ele><time>2026-04-24T07:08:44.009Z</time></trkpt><trkpt lat="42.46998321587989" lon="11.40219994637833"><ele>62.0</ele><time>2026-04-24T07:08:45.009Z</time></trkpt><trkpt lat="42.46985230238428" lon="11.40239255582837"><ele>62.0</ele><time>2026-04-24T07:08:46.009Z</time></trkpt><trkpt lat="42.469725056008826" lon="11.402586301280534"><ele>62.0</ele><time>2026-04-24T07:08:47.009Z</time></trkpt><trkpt lat="42.469603933835714" lon="11.402772847781865"><ele>62.0</ele><time>2026-04-24T07:08:48.009Z</time></trkpt><trkpt lat="42.469491285457444" lon="11.402943863315103"><ele>62.0</ele><time>2026-04-24T07:08:49.009Z</time></trkpt><trkpt lat="42.46938234204559" lon="11.403108484126022"><ele>62.0</ele><time>2026-04-24T07:08:50.009Z</time></trkpt><trkpt lat="42.46926462141633" lon="11.40327321294246"><ele>63.66666666666667</ele><time>2026-04-24T07:08:51.009Z</time></trkpt><trkpt lat="42.46914138081247" lon="11.40342776448752"><ele>65.33333333333333</ele><time>2026-04-24T07:08:52.009Z</time></trkpt><trkpt lat="42.46900960188955" lon="11.403578831024019"><ele>67.0</ele><time>2026-04-24T07:08:53.009Z</time></trkpt><trkpt lat="42.4688636417109" lon="11.403726822751278"><ele>67.0</ele><time>2026-04-24T07:08:54.009Z</time></trkpt><trkpt lat="42.46871055690144" lon="11.403873285241287"><ele>67.0</ele><time>2026-04-24T07:08:55.009Z</time></trkpt><trkpt lat="42.46856102329414" lon="11.40402791528019"><ele>67.0</ele><time>2026-04-24T07:08:56.009Z</time></trkpt><trkpt lat="42.46839674393356" lon="11.40419839983213"><ele>67.0</ele><time>2026-04-24T07:08:57.009Z</time></trkpt><trkpt lat="42.468239657303634" lon="11.404373637589888"><ele>67.0</ele><time>2026-04-24T07:08:58.009Z</time></trkpt><trkpt lat="42.46807909244118" lon="11.40454655573701"><ele>67.0</ele><time>2026-04-24T07:08:59.009Z</time></trkpt><trkpt lat="42.467922262067994" lon="11.40471726048437"><ele>68.33333333333333</ele><time>2026-04-24T07:09:00.009Z</time></trkpt><trkpt lat="42.46775356117126" lon="11.40489255568416"><ele>69.66666666666667</ele><time>2026-04-24T07:09:01.009Z</time></trkpt><trkpt lat="42.46758985913501" lon="11.405064324275235"><ele>71.0</ele><time>2026-04-24T07:09:02.009Z</time></trkpt><trkpt lat="42.46742913445684" lon="11.405240775005746"><ele>71.0</ele><time>2026-04-24T07:09:03.009Z</time></trkpt><trkpt lat="42.46726478678434" lon="11.405416826327968"><ele>71.0</ele><time>2026-04-24T07:09:04.009Z</time></trkpt><trkpt lat="42.46710580852962" lon="11.405581909885841"><ele>71.0</ele><time>2026-04-24T07:09:05.009Z</time></trkpt><trkpt lat="42.466945476415454" lon="11.405747694487554"><ele>70.66666666666667</ele><time>2026-04-24T07:09:06.009Z</time></trkpt><trkpt lat="42.466791749800514" lon="11.40591005575531"><ele>70.33333333333333</ele><time>2026-04-24T07:09:07.009Z</time></trkpt><trkpt lat="42.46663420803401" lon="11.406069005068613"><ele>70.0</ele><time>2026-04-24T07:09:08.009Z</time></trkpt><trkpt lat="42.46647914638078" lon="11.406232421162624"><ele>70.66666666666666</ele><time>2026-04-24T07:09:09.009Z</time></trkpt><trkpt lat="42.466332172207366" lon="11.406394483861266"><ele>71.33333333333333</ele><time>2026-04-24T07:09:10.009Z</time></trkpt><trkpt lat="42.466171073254664" lon="11.40656164538174"><ele>72.0</ele><time>2026-04-24T07:09:11.009Z</time></trkpt><trkpt lat="42.466020612156484" lon="11.40671638060105"><ele>72.0</ele><time>2026-04-24T07:09:12.009Z</time></trkpt><trkpt lat="42.465871956586916" lon="11.406873327851905"><ele>72.0</ele><time>2026-04-24T07:09:13.009Z</time></trkpt><trkpt lat="42.46572853844072" lon="11.407026828957505"><ele>72.0</ele><time>2026-04-24T07:09:14.009Z</time></trkpt><trkpt lat="42.465601488021576" lon="11.407172823481684"><ele>73.66666666666667</ele><time>2026-04-24T07:09:15.009Z</time></trkpt><trkpt lat="42.46547298810522" lon="11.407311499398485"><ele>75.33333333333334</ele><time>2026-04-24T07:09:16.009Z</time></trkpt><trkpt lat="42.46534839825055" lon="11.40744411614673"><ele>77.0</ele><time>2026-04-24T07:09:17.009Z</time></trkpt><trkpt lat="42.465212170953734" lon="11.407574725581396"><ele>78.0</ele><time>2026-04-24T07:09:18.009Z</time></trkpt><trkpt lat="42.465076187663286" lon="11.407703518292447"><ele>79.0</ele><time>2026-04-24T07:09:19.009Z</time></trkpt><trkpt lat="42.464919018989235" lon="11.407821549723144"><ele>80.0</ele><time>2026-04-24T07:09:20.009Z</time></trkpt><trkpt lat="42.4647585413568" lon="11.407925696107595"><ele>83.33333333333334</ele><time>2026-04-24T07:09:21.009Z</time></trkpt><trkpt lat="42.464599076211435" lon="11.408028202285443"><ele>86.66666666666667</ele><time>2026-04-24T07:09:22.009Z</time></trkpt><trkpt lat="42.46443449901019" lon="11.408129931817516"><ele>90.0</ele><time>2026-04-24T07:09:23.009Z</time></trkpt><trkpt lat="42.464263733175734" lon="11.408228960028492"><ele>90.0</ele><time>2026-04-24T07:09:24.009Z</time></trkpt><trkpt lat="42.46408404481911" lon="11.408341494930601"><ele>90.0</ele><time>2026-04-24T07:09:25.01Z</time></trkpt><trkpt lat="42.463913139111476" lon="11.408458866048699"><ele>90.0</ele><time>2026-04-24T07:09:26.01Z</time></trkpt><trkpt lat="42.46373599040344" lon="11.408568069630357"><ele>89.0</ele><time>2026-04-24T07:09:27.01Z</time></trkpt><trkpt lat="42.46357525308824" lon="11.408685827250158"><ele>88.0</ele><time>2026-04-24T07:09:28.01Z</time></trkpt><trkpt lat="42.46343475906793" lon="11.408766943101751"><ele>87.0</ele><time>2026-04-24T07:09:29.01Z</time></trkpt><trkpt lat="42.46329480151238" lon="11.40882861343822"><ele>87.0</ele><time>2026-04-24T07:09:30.01Z</time></trkpt><trkpt lat="42.463158829595365" lon="11.408876963916699"><ele>87.0</ele><time>2026-04-24T07:09:31.01Z</time></trkpt><trkpt lat="42.46302910299148" lon="11.408799384356643"><ele>87.0</ele><time>2026-04-24T07:09:32.01Z</time></trkpt><trkpt lat="42.462914856817825" lon="11.408746366188097"><ele>87.0</ele><time>2026-04-24T07:09:33.01Z</time></trkpt><trkpt lat="42.46280887574429" lon="11.408702641915552"><ele>85.33333333333333</ele><time>2026-04-24T07:09:34.01Z</time></trkpt><trkpt lat="42.46267334476149" lon="11.408662556428695"><ele>83.66666666666666</ele><time>2026-04-24T07:09:35.01Z</time></trkpt><trkpt lat="42.462427115436746" lon="11.40852870794319"><ele>82.0</ele><time>2026-04-24T07:09:36.01Z</time></trkpt><trkpt lat="42.46223248005206" lon="11.408460133583457"><ele>80.0</ele><time>2026-04-24T07:09:37.01Z</time></trkpt><trkpt lat="42.46204239379178" lon="11.408401804346687"><ele>78.0</ele><time>2026-04-24T07:09:38.01Z</time></trkpt><trkpt lat="42.46186363188815" lon="11.408332393807264"><ele>76.0</ele><time>2026-04-24T07:09:39.01Z</time></trkpt><trkpt lat="42.46167131695996" lon="11.408246023164448"><ele>76.0</ele><time>2026-04-24T07:09:40.01Z</time></trkpt><trkpt lat="42.461490804057554" lon="11.4081733063045"><ele>76.0</ele><time>2026-04-24T07:09:41.01Z</time></trkpt><trkpt lat="42.461312620273304" lon="11.408102825684935"><ele>76.0</ele><time>2026-04-24T07:09:42.01Z</time></trkpt><trkpt lat="42.461147720284764" lon="11.40803700740161"><ele>74.66666666666666</ele><time>2026-04-24T07:09:43.01Z</time></trkpt><trkpt lat="42.46099806442966" lon="11.407999599298243"><ele>73.33333333333333</ele><time>2026-04-24T07:09:44.01Z</time></trkpt><trkpt lat="42.4608478403624" lon="11.40798909436761"><ele>72.0</ele><time>2026-04-24T07:09:45.01Z</time></trkpt><trkpt lat="42.46069862834541" lon="11.408015461045812"><ele>71.66666666666667</ele><time>2026-04-24T07:09:46.01Z</time></trkpt><trkpt lat="42.460545962525536" lon="11.408082131468909"><ele>71.33333333333334</ele><time>2026-04-24T07:09:47.01Z</time></trkpt><trkpt lat="42.460385832859195" lon="11.408169106192556"><ele>71.0</ele><time>2026-04-24T07:09:48.01Z</time></trkpt><trkpt lat="42.460215005025084" lon="11.408253787109029"><ele>70.0</ele><time>2026-04-24T07:09:49.01Z</time></trkpt><trkpt lat="42.460046470708086" lon="11.408330176738449"><ele>69.0</ele><time>2026-04-24T07:09:50.01Z</time></trkpt><trkpt lat="42.459870178844746" lon="11.408409399176195"><ele>68.0</ele><time>2026-04-24T07:09:51.01Z</time></trkpt><trkpt lat="42.459698755502366" lon="11.408490262098184"><ele>69.0</ele><time>2026-04-24T07:09:52.01Z</time></trkpt><trkpt lat="42.459519527029926" lon="11.40854712779583"><ele>70.0</ele><time>2026-04-24T07:09:53.01Z</time></trkpt><trkpt lat="42.45935104448965" lon="11.408639399789974"><ele>71.0</ele><time>2026-04-24T07:09:54.01Z</time></trkpt><trkpt lat="42.45919342726664" lon="11.408690783423125"><ele>71.0</ele><time>2026-04-24T07:09:55.01Z</time></trkpt><trkpt lat="42.45904893955979" lon="11.408746115985219"><ele>71.0</ele><time>2026-04-24T07:09:56.01Z</time></trkpt><trkpt lat="42.458926389676634" lon="11.408827767686025"><ele>71.0</ele><time>2026-04-24T07:09:57.01Z</time></trkpt><trkpt lat="42.458834030263986" lon="11.4089359082305"><ele>71.0</ele><time>2026-04-24T07:09:58.01Z</time></trkpt><trkpt lat="42.45875928016537" lon="11.409049977989504"><ele>72.2</ele><time>2026-04-24T07:09:59.01Z</time></trkpt><trkpt lat="42.4587192933677" lon="11.409182452337788"><ele>73.39999999999999</ele><time>2026-04-24T07:10:00.01Z</time></trkpt><trkpt lat="42.458707921601295" lon="11.4093226409539"><ele>74.6</ele><time>2026-04-24T07:10:01.01Z</time></trkpt><trkpt lat="42.458720932629035" lon="11.40945648694611"><ele>75.8</ele><time>2026-04-24T07:10:02.01Z</time></trkpt><trkpt lat="42.45874942720636" lon="11.409614905704792"><ele>77.0</ele><time>2026-04-24T07:10:03.01Z</time></trkpt><trkpt lat="42.458819742952414" lon="11.409760330786282"><ele>78.5</ele><time>2026-04-24T07:10:04.01Z</time></trkpt><trkpt lat="42.45889992123077" lon="11.409906184956004"><ele>80.0</ele><time>2026-04-24T07:10:05.01Z</time></trkpt><trkpt lat="42.458994169230884" lon="11.41003570990316"><ele>81.5</ele><time>2026-04-24T07:10:06.01Z</time></trkpt><trkpt lat="42.45909487827211" lon="11.410177828558812"><ele>83.0</ele><time>2026-04-24T07:10:07.01Z</time></trkpt><trkpt lat="42.45919520155111" lon="11.410336483501805"><ele>86.66666666666667</ele><time>2026-04-24T07:10:08.01Z</time></trkpt><trkpt lat="42.45929987278133" lon="11.410515373266714"><ele>90.33333333333333</ele><time>2026-04-24T07:10:09.01Z</time></trkpt><trkpt lat="42.45941401072626" lon="11.410705784910657"><ele>94.0</ele><time>2026-04-24T07:10:10.01Z</time></trkpt><trkpt lat="42.45951897476294" lon="11.410898703097283"><ele>93.66666666666666</ele><time>2026-04-24T07:10:11.01Z</time></trkpt><trkpt lat="42.45962980801408" lon="11.411079042682038"><ele>93.33333333333333</ele><time>2026-04-24T07:10:12.01Z</time></trkpt><trkpt lat="42.459749372707584" lon="11.411274889277621"><ele>93.0</ele><time>2026-04-24T07:10:13.01Z</time></trkpt><trkpt lat="42.459855741691825" lon="11.411458390365087"><ele>93.0</ele><time>2026-04-24T07:10:14.01Z</time></trkpt><trkpt lat="42.45993047582954" lon="11.411669835284522"><ele>93.0</ele><time>2026-04-24T07:10:15.01Z</time></trkpt><trkpt lat="42.459987028830454" lon="11.41188606870989"><ele>93.0</ele><time>2026-04-24T07:10:16.01Z</time></trkpt><trkpt lat="42.460042554244076" lon="11.412097191840086"><ele>95.66666666666666</ele><time>2026-04-24T07:10:17.01Z</time></trkpt><trkpt lat="42.46010908377515" lon="11.412312730934598"><ele>98.33333333333333</ele><time>2026-04-24T07:10:18.01Z</time></trkpt><trkpt lat="42.460164114444055" lon="11.412531991277648"><ele>101.0</ele><time>2026-04-24T07:10:19.01Z</time></trkpt><trkpt lat="42.460227614641006" lon="11.41275492008819"><ele>101.0</ele><time>2026-04-24T07:10:20.01Z</time></trkpt><trkpt lat="42.460305804444474" lon="11.412964733865005"><ele>101.0</ele><time>2026-04-24T07:10:21.01Z</time></trkpt><trkpt lat="42.460386255310034" lon="11.413165992407752"><ele>101.0</ele><time>2026-04-24T07:10:22.01Z</time></trkpt><trkpt lat="42.460466834558325" lon="11.413358411539933"><ele>100.0</ele><time>2026-04-24T07:10:23.01Z</time></trkpt><trkpt lat="42.460532272963896" lon="11.413557769589483"><ele>99.0</ele><time>2026-04-24T07:10:24.01Z</time></trkpt><trkpt lat="42.460595825342494" lon="11.413734512621934"><ele>98.0</ele><time>2026-04-24T07:10:25.01Z</time></trkpt><trkpt lat="42.4606436832696" lon="11.413923874995623"><ele>100.0</ele><time>2026-04-24T07:10:26.01Z</time></trkpt><trkpt lat="42.460669834389854" lon="11.414123284422796"><ele>102.0</ele><time>2026-04-24T07:10:27.01Z</time></trkpt><trkpt lat="42.46068272064332" lon="11.414340440104377"><ele>104.0</ele><time>2026-04-24T07:10:28.01Z</time></trkpt><trkpt lat="42.460686592977204" lon="11.414548297341575"><ele>104.25</ele><time>2026-04-24T07:10:29.01Z</time></trkpt><trkpt lat="42.460675576207954" lon="11.414748769596967"><ele>104.5</ele><time>2026-04-24T07:10:30.01Z</time></trkpt><trkpt lat="42.46064185732697" lon="11.414891083997153"><ele>104.75</ele><time>2026-04-24T07:10:31.01Z</time></trkpt><trkpt lat="42.46058709655745" lon="11.415020573731624"><ele>105.0</ele><time>2026-04-24T07:10:32.01Z</time></trkpt><trkpt lat="42.46049914133917" lon="11.41514387955015"><ele>107.5</ele><time>2026-04-24T07:10:33.01Z</time></trkpt><trkpt lat="42.46040186720573" lon="11.415253482388916"><ele>110.0</ele><time>2026-04-24T07:10:34.011Z</time></trkpt><trkpt lat="42.460288712856396" lon="11.415376566558859"><ele>112.5</ele><time>2026-04-24T07:10:35.011Z</time></trkpt><trkpt lat="42.46015318492485" lon="11.415517442529099"><ele>115.0</ele><time>2026-04-24T07:10:36.011Z</time></trkpt><trkpt lat="42.46001619299372" lon="11.415660331113006"><ele>115.0</ele><time>2026-04-24T07:10:37.011Z</time></trkpt><trkpt lat="42.45988955705578" lon="11.41581919881362"><ele>115.0</ele><time>2026-04-24T07:10:38.011Z</time></trkpt><trkpt lat="42.45974891106445" lon="11.415953525315107"><ele>115.0</ele><time>2026-04-24T07:10:39.011Z</time></trkpt><trkpt lat="42.45960977948821" lon="11.416090391610577"><ele>116.66666666666667</ele><time>2026-04-24T07:10:40.011Z</time></trkpt><trkpt lat="42.45946134419717" lon="11.416203964356555"><ele>118.33333333333334</ele><time>2026-04-24T07:10:41.011Z</time></trkpt><trkpt lat="42.459324581772" lon="11.416312541155278"><ele>120.0</ele><time>2026-04-24T07:10:42.011Z</time></trkpt><trkpt lat="42.459178402432" lon="11.416450079296792"><ele>121.66666666666666</ele><time>2026-04-24T07:10:43.011Z</time></trkpt><trkpt lat="42.45902705341615" lon="11.416563880877362"><ele>123.33333333333333</ele><time>2026-04-24T07:10:44.011Z</time></trkpt><trkpt lat="42.45888510120406" lon="11.416701700778274"><ele>125.0</ele><time>2026-04-24T07:10:45.011Z</time></trkpt><trkpt lat="42.458771038427805" lon="11.416875231688065"><ele>125.0</ele><time>2026-04-24T07:10:46.011Z</time></trkpt><trkpt lat="42.45867919650712" lon="11.417068418953528"><ele>125.0</ele><time>2026-04-24T07:10:47.011Z</time></trkpt><trkpt lat="42.45858385170313" lon="11.417251200007962"><ele>125.0</ele><time>2026-04-24T07:10:48.011Z</time></trkpt><trkpt lat="42.458489697533416" lon="11.417438686226786"><ele>127.0</ele><time>2026-04-24T07:10:49.011Z</time></trkpt><trkpt lat="42.45838984050371" lon="11.417633553673035"><ele>129.0</ele><time>2026-04-24T07:10:50.011Z</time></trkpt><trkpt lat="42.458287253308335" lon="11.417829458178314"><ele>131.0</ele><time>2026-04-24T07:10:51.011Z</time></trkpt><trkpt lat="42.45817898110716" lon="11.418022122576291"><ele>132.33333333333331</ele><time>2026-04-24T07:10:52.011Z</time></trkpt><trkpt lat="42.458062796695664" lon="11.418211484471882"><ele>133.66666666666666</ele><time>2026-04-24T07:10:53.011Z</time></trkpt><trkpt lat="42.45794827796963" lon="11.418395157633405"><ele>135.0</ele><time>2026-04-24T07:10:54.011Z</time></trkpt><trkpt lat="42.45782832255192" lon="11.418586585958604"><ele>135.0</ele><time>2026-04-24T07:10:55.011Z</time></trkpt><trkpt lat="42.45770624402874" lon="11.41877979941967"><ele>135.0</ele><time>2026-04-24T07:10:56.011Z</time></trkpt><trkpt lat="42.45758297966151" lon="11.418975058777532"><ele>135.0</ele><time>2026-04-24T07:10:57.011Z</time></trkpt><trkpt lat="42.4574768341364" lon="11.419186096245433"><ele>138.33333333333334</ele><time>2026-04-24T07:10:58.011Z</time></trkpt><trkpt lat="42.45735529341632" lon="11.419380545348929"><ele>141.66666666666669</ele><time>2026-04-24T07:10:59.011Z</time></trkpt><trkpt lat="42.457246414106784" lon="11.419586149326037"><ele>145.0</ele><time>2026-04-24T07:11:00.011Z</time></trkpt><trkpt lat="42.4571559616678" lon="11.419805584944156"><ele>145.33333333333334</ele><time>2026-04-24T07:11:01.011Z</time></trkpt><trkpt lat="42.45708225602884" lon="11.420025437180737"><ele>145.66666666666666</ele><time>2026-04-24T07:11:02.011Z</time></trkpt><trkpt lat="42.45700572384119" lon="11.420246696727105"><ele>146.0</ele><time>2026-04-24T07:11:03.011Z</time></trkpt><trkpt lat="42.45692807462862" lon="11.420469738272077"><ele>146.66666666666666</ele><time>2026-04-24T07:11:04.011Z</time></trkpt><trkpt lat="42.45684097853332" lon="11.42069129588539"><ele>147.33333333333334</ele><time>2026-04-24T07:11:05.011Z</time></trkpt><trkpt lat="42.456754802603626" lon="11.420907529818791"><ele>148.0</ele><time>2026-04-24T07:11:06.011Z</time></trkpt><trkpt lat="42.456675042971845" lon="11.421121629255822"><ele>151.33333333333334</ele><time>2026-04-24T07:11:07.011Z</time></trkpt><trkpt lat="42.45658418701619" lon="11.421334942827546"><ele>154.66666666666666</ele><time>2026-04-24T07:11:08.011Z</time></trkpt><trkpt lat="42.45648477271127" lon="11.421537196882063"><ele>158.0</ele><time>2026-04-24T07:11:09.011Z</time></trkpt><trkpt lat="42.45637304216934" lon="11.421723467759543"><ele>157.66666666666666</ele><time>2026-04-24T07:11:10.011Z</time></trkpt><trkpt lat="42.456274421996746" lon="11.421898757164774"><ele>157.33333333333334</ele><time>2026-04-24T07:11:11.011Z</time></trkpt><trkpt lat="42.45617912016557" lon="11.422080932886033"><ele>157.0</ele><time>2026-04-24T07:11:12.011Z</time></trkpt><trkpt lat="42.45610887995452" lon="11.422257195163589"><ele>155.5</ele><time>2026-04-24T07:11:13.011Z</time></trkpt><trkpt lat="42.45604386148169" lon="11.422439408261006"><ele>154.0</ele><time>2026-04-24T07:11:14.011Z</time></trkpt><trkpt lat="42.455998426404626" lon="11.422603376910192"><ele>152.5</ele><time>2026-04-24T07:11:15.011Z</time></trkpt><trkpt lat="42.45593612767166" lon="11.422744208283504"><ele>151.0</ele><time>2026-04-24T07:11:16.011Z</time></trkpt><trkpt lat="42.45588638260467" lon="11.422880575759269"><ele>152.0</ele><time>2026-04-24T07:11:17.011Z</time></trkpt><trkpt lat="42.455830008213546" lon="11.423000258612086"><ele>153.0</ele><time>2026-04-24T07:11:18.011Z</time></trkpt><trkpt lat="42.45577121248023" lon="11.423127226489749"><ele>154.0</ele><time>2026-04-24T07:11:19.011Z</time></trkpt><trkpt lat="42.45566327908483" lon="11.423186623848594"><ele>155.0</ele><time>2026-04-24T07:11:20.011Z</time></trkpt><trkpt lat="42.45554900445094" lon="11.423241350139802"><ele>155.25</ele><time>2026-04-24T07:11:21.011Z</time></trkpt><trkpt lat="42.45542376222723" lon="11.423286368046988"><ele>155.5</ele><time>2026-04-24T07:11:22.011Z</time></trkpt><trkpt lat="42.45529376539692" lon="11.423327194682875"><ele>155.75</ele><time>2026-04-24T07:11:23.011Z</time></trkpt><trkpt lat="42.45516298180681" lon="11.423392260581188"><ele>156.0</ele><time>2026-04-24T07:11:24.011Z</time></trkpt><trkpt lat="42.45503852788166" lon="11.423413743878859"><ele>156.0</ele><time>2026-04-24T07:11:25.011Z</time></trkpt><trkpt lat="42.45488877253043" lon="11.423462486590251"><ele>156.0</ele><time>2026-04-24T07:11:26.011Z</time></trkpt><trkpt lat="42.45472210907542" lon="11.423518777836938"><ele>156.0</ele><time>2026-04-24T07:11:27.011Z</time></trkpt><trkpt lat="42.45457981439144" lon="11.423567229873223"><ele>158.33333333333334</ele><time>2026-04-24T07:11:28.011Z</time></trkpt><trkpt lat="42.45445355296624" lon="11.423606668402345"><ele>160.66666666666669</ele><time>2026-04-24T07:11:29.011Z</time></trkpt><trkpt lat="42.45438420250087" lon="11.423616078693298"><ele>163.0</ele><time>2026-04-24T07:11:30.011Z</time></trkpt><trkpt lat="42.45403625980808" lon="11.42374143021972"><ele>163.0</ele><time>2026-04-24T07:11:32.011Z</time></trkpt><trkpt lat="42.45389974386966" lon="11.423761659756838"><ele>163.0</ele><time>2026-04-24T07:11:33.011Z</time></trkpt><trkpt lat="42.45378116625579" lon="11.423811331016413"><ele>163.0</ele><time>2026-04-24T07:11:34.011Z</time></trkpt><trkpt lat="42.453670598879995" lon="11.423798668142007"><ele>163.0</ele><time>2026-04-24T07:11:35.011Z</time></trkpt><trkpt lat="42.45358249960337" lon="11.423779058533741"><ele>163.8</ele><time>2026-04-24T07:11:36.011Z</time></trkpt><trkpt lat="42.45348655869575" lon="11.423708732498666"><ele>164.60000000000002</ele><time>2026-04-24T07:11:38.011Z</time></trkpt><trkpt lat="42.45342190666628" lon="11.423844326482557"><ele>165.39999999999998</ele><time>2026-04-24T07:11:42.011Z</time></trkpt><trkpt lat="42.45340874994679" lon="11.423948580234121"><ele>166.2</ele><time>2026-04-24T07:11:43.012Z</time></trkpt><trkpt lat="42.453409216869794" lon="11.424087895933736"><ele>167.0</ele><time>2026-04-24T07:11:44.012Z</time></trkpt><trkpt lat="42.453429456061585" lon="11.42422556403963"><ele>167.0</ele><time>2026-04-24T07:11:45.012Z</time></trkpt><trkpt lat="42.45344593690075" lon="11.424375532245522"><ele>167.0</ele><time>2026-04-24T07:11:46.012Z</time></trkpt><trkpt lat="42.45346118040836" lon="11.424561823895838"><ele>167.0</ele><time>2026-04-24T07:11:47.012Z</time></trkpt><trkpt lat="42.453460550116645" lon="11.424760268653065"><ele>167.0</ele><time>2026-04-24T07:11:48.012Z</time></trkpt><trkpt lat="42.45342929433896" lon="11.424945928183249"><ele>168.33333333333331</ele><time>2026-04-24T07:11:49.012Z</time></trkpt><trkpt lat="42.453405313716836" lon="11.425146826747431"><ele>169.66666666666666</ele><time>2026-04-24T07:11:50.012Z</time></trkpt><trkpt lat="42.45338374523858" lon="11.425354841879642"><ele>171.0</ele><time>2026-04-24T07:11:51.012Z</time></trkpt><trkpt lat="42.453360656430654" lon="11.425564323853083"><ele>172.0</ele><time>2026-04-24T07:11:52.012Z</time></trkpt><trkpt lat="42.453339658988526" lon="11.425766400930373"><ele>173.0</ele><time>2026-04-24T07:11:53.012Z</time></trkpt><trkpt lat="42.45334387577443" lon="11.425986365095314"><ele>174.0</ele><time>2026-04-24T07:11:54.012Z</time></trkpt><trkpt lat="42.45334734144461" lon="11.426188256240705"><ele>175.0</ele><time>2026-04-24T07:11:55.012Z</time></trkpt><trkpt lat="42.45335283482215" lon="11.426356795702507"><ele>176.0</ele><time>2026-04-24T07:11:56.012Z</time></trkpt><trkpt lat="42.453368985574805" lon="11.426512283105303"><ele>177.0</ele><time>2026-04-24T07:11:57.012Z</time></trkpt><trkpt lat="42.45339506396222" lon="11.426671492444173"><ele>178.0</ele><time>2026-04-24T07:11:58.012Z</time></trkpt><trkpt lat="42.453445748519975" lon="11.426838607310762"><ele>178.0</ele><time>2026-04-24T07:11:59.012Z</time></trkpt><trkpt lat="42.45351895770708" lon="11.427002451000458"><ele>178.0</ele><time>2026-04-24T07:12:00.012Z</time></trkpt><trkpt lat="42.45361702882633" lon="11.427185917460172"><ele>178.0</ele><time>2026-04-24T07:12:01.012Z</time></trkpt><trkpt lat="42.45370023161956" lon="11.427363402856193"><ele>177.33333333333334</ele><time>2026-04-24T07:12:02.012Z</time></trkpt><trkpt lat="42.45379514877693" lon="11.427545534607907"><ele>176.66666666666666</ele><time>2026-04-24T07:12:03.012Z</time></trkpt><trkpt lat="42.45388873534024" lon="11.427729627927086"><ele>176.0</ele><time>2026-04-24T07:12:04.012Z</time></trkpt><trkpt lat="42.45398799090342" lon="11.427922428387177"><ele>173.66666666666666</ele><time>2026-04-24T07:12:05.012Z</time></trkpt><trkpt lat="42.45409212962588" lon="11.4281221903161"><ele>171.33333333333334</ele><time>2026-04-24T07:12:06.012Z</time></trkpt><trkpt lat="42.45419029159965" lon="11.428332287013752"><ele>169.0</ele><time>2026-04-24T07:12:07.012Z</time></trkpt><trkpt lat="42.45429319476483" lon="11.428531145048302"><ele>169.0</ele><time>2026-04-24T07:12:08.012Z</time></trkpt><trkpt lat="42.4543961446719" lon="11.428713857480226"><ele>169.0</ele><time>2026-04-24T07:12:09.012Z</time></trkpt><trkpt lat="42.454487254223544" lon="11.428893581689067"><ele>169.0</ele><time>2026-04-24T07:12:10.012Z</time></trkpt><trkpt lat="42.454522988681326" lon="11.429109491558933"><ele>167.33333333333334</ele><time>2026-04-24T07:12:11.012Z</time></trkpt><trkpt lat="42.45456616281516" lon="11.429327508521125"><ele>165.66666666666666</ele><time>2026-04-24T07:12:12.012Z</time></trkpt><trkpt lat="42.454627011090786" lon="11.429554904619133"><ele>164.0</ele><time>2026-04-24T07:12:13.012Z</time></trkpt><trkpt lat="42.45466702934298" lon="11.42978704773607"><ele>164.0</ele><time>2026-04-24T07:12:14.012Z</time></trkpt><trkpt lat="42.45470327573576" lon="11.430023621641892"><ele>164.0</ele><time>2026-04-24T07:12:15.012Z</time></trkpt><trkpt lat="42.45470419257531" lon="11.430263525954922"><ele>164.0</ele><time>2026-04-24T07:12:16.012Z</time></trkpt><trkpt lat="42.45471322868598" lon="11.430507837518896"><ele>164.66666666666666</ele><time>2026-04-24T07:12:17.012Z</time></trkpt><trkpt lat="42.45473054738337" lon="11.430758860601392"><ele>165.33333333333334</ele><time>2026-04-24T07:12:18.012Z</time></trkpt><trkpt lat="42.45473702454565" lon="11.431015001786212"><ele>166.0</ele><time>2026-04-24T07:12:19.012Z</time></trkpt><trkpt lat="42.45472737572006" lon="11.431269860689195"><ele>166.33333333333334</ele><time>2026-04-24T07:12:20.012Z</time></trkpt><trkpt lat="42.454713856534816" lon="11.431510441394147"><ele>166.66666666666666</ele><time>2026-04-24T07:12:21.012Z</time></trkpt><trkpt lat="42.45470124903528" lon="11.431736046948028"><ele>167.0</ele><time>2026-04-24T07:12:22.012Z</time></trkpt><trkpt lat="42.45471934508206" lon="11.431945780716083"><ele>164.66666666666666</ele><time>2026-04-24T07:12:23.012Z</time></trkpt><trkpt lat="42.45473523106363" lon="11.43217043135297"><ele>162.33333333333334</ele><time>2026-04-24T07:12:24.012Z</time></trkpt><trkpt lat="42.454766839436076" lon="11.432404699677834"><ele>160.0</ele><time>2026-04-24T07:12:25.012Z</time></trkpt><trkpt lat="42.454811662768414" lon="11.432642796342753"><ele>160.0</ele><time>2026-04-24T07:12:26.012Z</time></trkpt><trkpt lat="42.454820560679636" lon="11.432881298996506"><ele>160.0</ele><time>2026-04-24T07:12:27.012Z</time></trkpt><trkpt lat="42.454834721584994" lon="11.433101520909137"><ele>160.0</ele><time>2026-04-24T07:12:28.012Z</time></trkpt><trkpt lat="42.454819577907664" lon="11.43330388953494"><ele>159.0</ele><time>2026-04-24T07:12:29.012Z</time></trkpt><trkpt lat="42.454779472094025" lon="11.433450338817135"><ele>158.0</ele><time>2026-04-24T07:12:30.012Z</time></trkpt><trkpt lat="42.45471581859118" lon="11.433586359975404"><ele>157.0</ele><time>2026-04-24T07:12:31.012Z</time></trkpt><trkpt lat="42.45464218179794" lon="11.433733460948542"><ele>156.0</ele><time>2026-04-24T07:12:32.012Z</time></trkpt><trkpt lat="42.454556127957325" lon="11.43388794366547"><ele>155.75</ele><time>2026-04-24T07:12:33.012Z</time></trkpt><trkpt lat="42.45446230934097" lon="11.434037349994513"><ele>155.5</ele><time>2026-04-24T07:12:34.012Z</time></trkpt><trkpt lat="42.45435409128898" lon="11.434181470380947"><ele>155.25</ele><time>2026-04-24T07:12:35.012Z</time></trkpt><trkpt lat="42.454238331926696" lon="11.434296848380152"><ele>155.0</ele><time>2026-04-24T07:12:36.012Z</time></trkpt><trkpt lat="42.45410917918703" lon="11.434387004240767"><ele>155.0</ele><time>2026-04-24T07:12:37.012Z</time></trkpt><trkpt lat="42.45398320718145" lon="11.43443916754584"><ele>155.0</ele><time>2026-04-24T07:12:38.012Z</time></trkpt><trkpt lat="42.453843788261295" lon="11.434472259159426"><ele>155.0</ele><time>2026-04-24T07:12:39.012Z</time></trkpt><trkpt lat="42.453723920680005" lon="11.434492457378674"><ele>155.0</ele><time>2026-04-24T07:12:40.012Z</time></trkpt><trkpt lat="42.45354653494265" lon="11.4345289828616"><ele>154.33333333333331</ele><time>2026-04-24T07:12:41.012Z</time></trkpt><trkpt lat="42.45338568274258" lon="11.434545410750308"><ele>153.66666666666666</ele><time>2026-04-24T07:12:42.012Z</time></trkpt><trkpt lat="42.453230934925976" lon="11.434540384088375"><ele>153.0</ele><time>2026-04-24T07:12:43.012Z</time></trkpt><trkpt lat="42.45306639138375" lon="11.43453855425549"><ele>152.25</ele><time>2026-04-24T07:12:44.012Z</time></trkpt><trkpt lat="42.45290892484151" lon="11.434555261706958"><ele>151.5</ele><time>2026-04-24T07:12:45.012Z</time></trkpt><trkpt lat="42.45277609621924" lon="11.434551294169864"><ele>150.75</ele><time>2026-04-24T07:12:46.012Z</time></trkpt><trkpt lat="42.452637692809894" lon="11.434564855759964"><ele>150.0</ele><time>2026-04-24T07:12:47.012Z</time></trkpt><trkpt lat="42.452501396969204" lon="11.434594021372556"><ele>151.0</ele><time>2026-04-24T07:12:48.012Z</time></trkpt><trkpt lat="42.45238204967565" lon="11.434659214879066"><ele>152.0</ele><time>2026-04-24T07:12:49.012Z</time></trkpt><trkpt lat="42.45227714282582" lon="11.434751641959172"><ele>153.0</ele><time>2026-04-24T07:12:50.012Z</time></trkpt><trkpt lat="42.452165387900486" lon="11.434869354712566"><ele>154.0</ele><time>2026-04-24T07:12:51.012Z</time></trkpt><trkpt lat="42.45207649994562" lon="11.43501321677291"><ele>151.25</ele><time>2026-04-24T07:12:52.013Z</time></trkpt><trkpt lat="42.452008759031216" lon="11.435178421808144"><ele>148.5</ele><time>2026-04-24T07:12:53.013Z</time></trkpt><trkpt lat="42.45194839039071" lon="11.435351478956447"><ele>145.75</ele><time>2026-04-24T07:12:54.013Z</time></trkpt><trkpt lat="42.451913056298956" lon="11.435523417749376"><ele>143.0</ele><time>2026-04-24T07:12:55.013Z</time></trkpt><trkpt lat="42.451844234916145" lon="11.435667600347426"><ele>142.6</ele><time>2026-04-24T07:12:56.013Z</time></trkpt><trkpt lat="42.45179347113587" lon="11.435787199721693"><ele>142.20000000000002</ele><time>2026-04-24T07:12:57.013Z</time></trkpt><trkpt lat="42.45173910549134" lon="11.435904229426596"><ele>141.8</ele><time>2026-04-24T07:12:58.013Z</time></trkpt><trkpt lat="42.45170393753053" lon="11.4360096090542"><ele>141.4</ele><time>2026-04-24T07:12:59.013Z</time></trkpt><trkpt lat="42.45169154660572" lon="11.436120444085107"><ele>141.0</ele><time>2026-04-24T07:13:00.013Z</time></trkpt><trkpt lat="42.451707985071124" lon="11.436243308437678"><ele>139.75</ele><time>2026-04-24T07:13:01.013Z</time></trkpt><trkpt lat="42.45177800591233" lon="11.436382364269235"><ele>138.5</ele><time>2026-04-24T07:13:02.013Z</time></trkpt><trkpt lat="42.451850812337675" lon="11.436527860543656"><ele>137.25</ele><time>2026-04-24T07:13:03.013Z</time></trkpt><trkpt lat="42.45191041083572" lon="11.436687797980717"><ele>136.0</ele><time>2026-04-24T07:13:04.013Z</time></trkpt><trkpt lat="42.4519230365979" lon="11.436867913812796"><ele>136.0</ele><time>2026-04-24T07:13:05.013Z</time></trkpt><trkpt lat="42.451960583946004" lon="11.437064547657569"><ele>136.0</ele><time>2026-04-24T07:13:06.013Z</time></trkpt><trkpt lat="42.452005797688386" lon="11.43727299398212"><ele>136.0</ele><time>2026-04-24T07:13:07.013Z</time></trkpt><trkpt lat="42.452049602416075" lon="11.437509789880261"><ele>136.66666666666669</ele><time>2026-04-24T07:13:08.013Z</time></trkpt><trkpt lat="42.45210800108693" lon="11.437720235840995"><ele>137.33333333333334</ele><time>2026-04-24T07:13:09.013Z</time></trkpt><trkpt lat="42.45217917111299" lon="11.437902824024757"><ele>138.0</ele><time>2026-04-24T07:13:10.013Z</time></trkpt><trkpt lat="42.45224819348752" lon="11.438096912204564"><ele>136.0</ele><time>2026-04-24T07:13:11.013Z</time></trkpt><trkpt lat="42.452312361145346" lon="11.438307182753045"><ele>134.0</ele><time>2026-04-24T07:13:12.013Z</time></trkpt><trkpt lat="42.45237148192161" lon="11.438532014789"><ele>132.0</ele><time>2026-04-24T07:13:13.013Z</time></trkpt><trkpt lat="42.452425226185866" lon="11.438747107919484"><ele>131.66666666666666</ele><time>2026-04-24T07:13:14.013Z</time></trkpt><trkpt lat="42.45248105133596" lon="11.438961641026783"><ele>131.33333333333331</ele><time>2026-04-24T07:13:15.013Z</time></trkpt><trkpt lat="42.45252508726254" lon="11.439173985783674"><ele>131.0</ele><time>2026-04-24T07:13:16.013Z</time></trkpt><trkpt lat="42.45257626333274" lon="11.439417925397464"><ele>131.0</ele><time>2026-04-24T07:13:17.013Z</time></trkpt><trkpt lat="42.452603345610875" lon="11.43965897112048"><ele>131.0</ele><time>2026-04-24T07:13:18.013Z</time></trkpt><trkpt lat="42.45264980574516" lon="11.43990048024808"><ele>131.0</ele><time>2026-04-24T07:13:19.013Z</time></trkpt><trkpt lat="42.45271115280412" lon="11.440112165215577"><ele>131.0</ele><time>2026-04-24T07:13:20.013Z</time></trkpt><trkpt lat="42.45274207850345" lon="11.440340468161066"><ele>131.0</ele><time>2026-04-24T07:13:21.013Z</time></trkpt><trkpt lat="42.452787753612064" lon="11.440563303624787"><ele>131.0</ele><time>2026-04-24T07:13:22.013Z</time></trkpt><trkpt lat="42.45282469730433" lon="11.440774517767116"><ele>132.33333333333331</ele><time>2026-04-24T07:13:23.013Z</time></trkpt><trkpt lat="42.45286297430711" lon="11.441022693217029"><ele>133.66666666666666</ele><time>2026-04-24T07:13:24.013Z</time></trkpt><trkpt lat="42.45288497027795" lon="11.441250106857233"><ele>135.0</ele><time>2026-04-24T07:13:25.013Z</time></trkpt><trkpt lat="42.45288820967641" lon="11.441469328770596"><ele>135.66666666666666</ele><time>2026-04-24T07:13:26.013Z</time></trkpt><trkpt lat="42.452896312560675" lon="11.441684024603012"><ele>136.33333333333331</ele><time>2026-04-24T07:13:27.013Z</time></trkpt><trkpt lat="42.45291510458087" lon="11.441897080182747"><ele>137.0</ele><time>2026-04-24T07:13:28.013Z</time></trkpt><trkpt lat="42.4529439674074" lon="11.442082794391782"><ele>136.66666666666666</ele><time>2026-04-24T07:13:29.013Z</time></trkpt><trkpt lat="42.45298853798279" lon="11.442278194085498"><ele>136.33333333333334</ele><time>2026-04-24T07:13:30.013Z</time></trkpt><trkpt lat="42.45304290840192" lon="11.442470017900416"><ele>136.0</ele><time>2026-04-24T07:13:31.013Z</time></trkpt><trkpt lat="42.45309307483171" lon="11.442667188673292"><ele>136.0</ele><time>2026-04-24T07:13:32.013Z</time></trkpt><trkpt lat="42.45312626159154" lon="11.442852631854668"><ele>136.0</ele><time>2026-04-24T07:13:33.013Z</time></trkpt><trkpt lat="42.45311730869414" lon="11.443013751582516"><ele>136.0</ele><time>2026-04-24T07:13:34.013Z</time></trkpt><trkpt lat="42.45309724469532" lon="11.44319353464549"><ele>136.0</ele><time>2026-04-24T07:13:35.013Z</time></trkpt><trkpt lat="42.453065740232006" lon="11.443399607437721"><ele>134.0</ele><time>2026-04-24T07:13:36.013Z</time></trkpt><trkpt lat="42.45304777249928" lon="11.443607895388972"><ele>132.0</ele><time>2026-04-24T07:13:37.013Z</time></trkpt><trkpt lat="42.45302251237942" lon="11.44381664700506"><ele>130.0</ele><time>2026-04-24T07:13:38.013Z</time></trkpt><trkpt lat="42.453004938183156" lon="11.44402089093464"><ele>128.0</ele><time>2026-04-24T07:13:39.013Z</time></trkpt><trkpt lat="42.45297362793157" lon="11.444234149654047"><ele>126.0</ele><time>2026-04-24T07:13:40.013Z</time></trkpt><trkpt lat="42.45292793264229" lon="11.44441821512675"><ele>124.0</ele><time>2026-04-24T07:13:41.013Z</time></trkpt><trkpt lat="42.45287171231277" lon="11.444597546518892"><ele>122.0</ele><time>2026-04-24T07:13:42.013Z</time></trkpt><trkpt lat="42.45282273265995" lon="11.44477077719613"><ele>121.0</ele><time>2026-04-24T07:13:43.013Z</time></trkpt><trkpt lat="42.45279569177874" lon="11.44492226423468"><ele>120.0</ele><time>2026-04-24T07:13:44.013Z</time></trkpt><trkpt lat="42.45279961412559" lon="11.445076269991256"><ele>119.0</ele><time>2026-04-24T07:13:45.013Z</time></trkpt><trkpt lat="42.452818391944405" lon="11.445225344109769"><ele>118.0</ele><time>2026-04-24T07:13:46.013Z</time></trkpt><trkpt lat="42.452846428192245" lon="11.445405578589757"><ele>116.80000000000001</ele><time>2026-04-24T07:13:47.013Z</time></trkpt><trkpt lat="42.452864578129585" lon="11.445563374736132"><ele>115.60000000000001</ele><time>2026-04-24T07:13:48.013Z</time></trkpt><trkpt lat="42.452844179891684" lon="11.445708534471693"><ele>114.39999999999999</ele><time>2026-04-24T07:13:49.013Z</time></trkpt><trkpt lat="42.45278687230814" lon="11.445828148360695"><ele>113.19999999999999</ele><time>2026-04-24T07:13:50.013Z</time></trkpt><trkpt lat="42.45272577471204" lon="11.445948039283419"><ele>112.0</ele><time>2026-04-24T07:13:51.013Z</time></trkpt><trkpt lat="42.45262465983052" lon="11.4460526776306"><ele>112.0</ele><time>2026-04-24T07:13:52.013Z</time></trkpt><trkpt lat="42.45251547938783" lon="11.446172180222025"><ele>112.0</ele><time>2026-04-24T07:13:53.013Z</time></trkpt><trkpt lat="42.45240396217308" lon="11.446293317968967"><ele>112.0</ele><time>2026-04-24T07:13:54.013Z</time></trkpt><trkpt lat="42.45226642448508" lon="11.446387672705816"><ele>112.0</ele><time>2026-04-24T07:13:55.013Z</time></trkpt><trkpt lat="42.452133079898196" lon="11.44648805145213"><ele>110.25</ele><time>2026-04-24T07:13:56.013Z</time></trkpt><trkpt lat="42.45200362999614" lon="11.446575825266947"><ele>108.5</ele><time>2026-04-24T07:13:57.013Z</time></trkpt><trkpt lat="42.451914208422906" lon="11.446641931870902"><ele>106.75</ele><time>2026-04-24T07:13:58.013Z</time></trkpt><trkpt lat="42.45182689158527" lon="11.446728280226024"><ele>105.0</ele><time>2026-04-24T07:13:59.013Z</time></trkpt><trkpt lat="42.45175196446184" lon="11.446866326725912"><ele>105.0</ele><time>2026-04-24T07:14:00.013Z</time></trkpt><trkpt lat="42.45170041753943" lon="11.447003838866056"><ele>105.0</ele><time>2026-04-24T07:14:01.014Z</time></trkpt><trkpt lat="42.45168555801276" lon="11.447128200130637"><ele>105.0</ele><time>2026-04-24T07:14:02.014Z</time></trkpt><trkpt lat="42.451699405857724" lon="11.447252442314149"><ele>105.0</ele><time>2026-04-24T07:14:03.014Z</time></trkpt><trkpt lat="42.451732929394055" lon="11.447355808653002"><ele>105.0</ele><time>2026-04-24T07:14:04.014Z</time></trkpt><trkpt lat="42.45177635667034" lon="11.447452209222732"><ele>105.25</ele><time>2026-04-24T07:14:05.014Z</time></trkpt><trkpt lat="42.45183548233284" lon="11.447590367329173"><ele>105.5</ele><time>2026-04-24T07:14:06.014Z</time></trkpt><trkpt lat="42.451972958578494" lon="11.447640929813003"><ele>105.75</ele><time>2026-04-24T07:14:07.014Z</time></trkpt><trkpt lat="42.45208206797148" lon="11.447669784583319"><ele>106.0</ele><time>2026-04-24T07:14:08.014Z</time></trkpt><trkpt lat="42.45219074409796" lon="11.447728834645027"><ele>106.4</ele><time>2026-04-24T07:14:09.014Z</time></trkpt><trkpt lat="42.45231157653163" lon="11.4477771941029"><ele>106.8</ele><time>2026-04-24T07:14:10.014Z</time></trkpt><trkpt lat="42.45241114627141" lon="11.447851292249114"><ele>107.20000000000002</ele><time>2026-04-24T07:14:11.014Z</time></trkpt><trkpt lat="42.45248466639075" lon="11.447938578238949"><ele>107.60000000000001</ele><time>2026-04-24T07:14:12.014Z</time></trkpt><trkpt lat="42.452519362253724" lon="11.448059574881967"><ele>108.0</ele><time>2026-04-24T07:14:13.014Z</time></trkpt><trkpt lat="42.4525341431307" lon="11.448177590883247"><ele>108.0</ele><time>2026-04-24T07:14:14.014Z</time></trkpt><trkpt lat="42.452502537257146" lon="11.448308259371732"><ele>108.0</ele><time>2026-04-24T07:14:15.014Z</time></trkpt><trkpt lat="42.45244585416401" lon="11.448443214889588"><ele>108.0</ele><time>2026-04-24T07:14:16.014Z</time></trkpt><trkpt lat="42.45238840934481" lon="11.448591383384736"><ele>108.0</ele><time>2026-04-24T07:14:17.014Z</time></trkpt><trkpt lat="42.45234369165118" lon="11.448728722227798"><ele>108.75</ele><time>2026-04-24T07:14:18.014Z</time></trkpt><trkpt lat="42.45232444742608" lon="11.448855997474718"><ele>109.5</ele><time>2026-04-24T07:14:19.014Z</time></trkpt><trkpt lat="42.452294185698285" lon="11.44901021499829"><ele>110.25</ele><time>2026-04-24T07:14:20.014Z</time></trkpt><trkpt lat="42.452280812335786" lon="11.449229542228151"><ele>111.0</ele><time>2026-04-24T07:14:21.014Z</time></trkpt><trkpt lat="42.45228435590583" lon="11.449404173406485"><ele>111.0</ele><time>2026-04-24T07:14:22.014Z</time></trkpt><trkpt lat="42.45228800562641" lon="11.44959177713963"><ele>111.0</ele><time>2026-04-24T07:14:23.014Z</time></trkpt><trkpt lat="42.45227795761546" lon="11.449778325868605"><ele>111.0</ele><time>2026-04-24T07:14:24.014Z</time></trkpt><trkpt lat="42.452303828181535" lon="11.449947209383556"><ele>111.0</ele><time>2026-04-24T07:14:25.014Z</time></trkpt><trkpt lat="42.452285191636676" lon="11.45011639560356"><ele>111.25</ele><time>2026-04-24T07:14:26.014Z</time></trkpt><trkpt lat="42.45224890513723" lon="11.45028968070334"><ele>111.5</ele><time>2026-04-24T07:14:27.014Z</time></trkpt><trkpt lat="42.45218874898868" lon="11.45048283289354"><ele>111.75</ele><time>2026-04-24T07:14:28.014Z</time></trkpt><trkpt lat="42.45211972251247" lon="11.450676070550964"><ele>112.0</ele><time>2026-04-24T07:14:29.014Z</time></trkpt><trkpt lat="42.45205817763832" lon="11.45085263504121"><ele>111.39999999999999</ele><time>2026-04-24T07:14:30.014Z</time></trkpt><trkpt lat="42.45201566166085" lon="11.451015921377502"><ele>110.79999999999998</ele><time>2026-04-24T07:14:31.014Z</time></trkpt><trkpt lat="42.451983014321854" lon="11.45116940218661"><ele>110.2</ele><time>2026-04-24T07:14:32.014Z</time></trkpt><trkpt lat="42.45195764315143" lon="11.451300658710577"><ele>109.6</ele><time>2026-04-24T07:14:33.014Z</time></trkpt><trkpt lat="42.45194773130137" lon="11.451435767543337"><ele>109.0</ele><time>2026-04-24T07:14:34.014Z</time></trkpt><trkpt lat="42.45191512499145" lon="11.4515886466248"><ele>110.5</ele><time>2026-04-24T07:14:35.014Z</time></trkpt><trkpt lat="42.45186718575782" lon="11.451745108045621"><ele>112.0</ele><time>2026-04-24T07:14:36.014Z</time></trkpt><trkpt lat="42.45181142532481" lon="11.451903873033773"><ele>113.5</ele><time>2026-04-24T07:14:37.014Z</time></trkpt><trkpt lat="42.4517467181243" lon="11.452049575969163"><ele>115.0</ele><time>2026-04-24T07:14:38.014Z</time></trkpt><trkpt lat="42.45163892281071" lon="11.45216311928065"><ele>115.0</ele><time>2026-04-24T07:14:39.014Z</time></trkpt><trkpt lat="42.45152368419875" lon="11.452283669281249"><ele>115.0</ele><time>2026-04-24T07:14:40.014Z</time></trkpt><trkpt lat="42.45140733808018" lon="11.452405321777173"><ele>115.0</ele><time>2026-04-24T07:14:41.014Z</time></trkpt><trkpt lat="42.451290146417975" lon="11.452546231232914"><ele>115.0</ele><time>2026-04-24T07:14:42.014Z</time></trkpt><trkpt lat="42.45117921143183" lon="11.452664131708332"><ele>115.33333333333334</ele><time>2026-04-24T07:14:43.014Z</time></trkpt><trkpt lat="42.451058051884964" lon="11.452791193375393"><ele>115.66666666666666</ele><time>2026-04-24T07:14:44.014Z</time></trkpt><trkpt lat="42.450930643470336" lon="11.452930264721806"><ele>116.0</ele><time>2026-04-24T07:14:45.014Z</time></trkpt><trkpt lat="42.45081077542446" lon="11.453072931207208"><ele>116.0</ele><time>2026-04-24T07:14:46.014Z</time></trkpt><trkpt lat="42.45069192355745" lon="11.45324115643876"><ele>116.0</ele><time>2026-04-24T07:14:47.014Z</time></trkpt><trkpt lat="42.45058924257164" lon="11.453427300435166"><ele>116.0</ele><time>2026-04-24T07:14:48.014Z</time></trkpt><trkpt lat="42.45049887047687" lon="11.453600009967733"><ele>116.75</ele><time>2026-04-24T07:14:49.014Z</time></trkpt><trkpt lat="42.45039547334187" lon="11.453757978440944"><ele>117.5</ele><time>2026-04-24T07:14:50.014Z</time></trkpt><trkpt lat="42.45030053076567" lon="11.453901542780997"><ele>118.25</ele><time>2026-04-24T07:14:51.014Z</time></trkpt><trkpt lat="42.45021335469241" lon="11.454038781410503"><ele>119.0</ele><time>2026-04-24T07:14:52.014Z</time></trkpt><trkpt lat="42.45010309733808" lon="11.454172626520235"><ele>119.0</ele><time>2026-04-24T07:14:53.014Z</time></trkpt><trkpt lat="42.44999661966587" lon="11.454308303633344"><ele>119.0</ele><time>2026-04-24T07:14:54.014Z</time></trkpt><trkpt lat="42.44987765833923" lon="11.454454036231466"><ele>119.0</ele><time>2026-04-24T07:14:55.014Z</time></trkpt><trkpt lat="42.44976750397047" lon="11.454608196331284"><ele>117.66666666666666</ele><time>2026-04-24T07:14:56.014Z</time></trkpt><trkpt lat="42.44963810901318" lon="11.454770288355645"><ele>116.33333333333334</ele><time>2026-04-24T07:14:57.014Z</time></trkpt><trkpt lat="42.449504797190635" lon="11.454923383637546"><ele>115.0</ele><time>2026-04-24T07:14:58.014Z</time></trkpt><trkpt lat="42.449369560206634" lon="11.455070955796353"><ele>115.0</ele><time>2026-04-24T07:14:59.014Z</time></trkpt><trkpt lat="42.449208663220006" lon="11.455199527143188"><ele>115.0</ele><time>2026-04-24T07:15:00.014Z</time></trkpt><trkpt lat="42.44905433572788" lon="11.455332029775299"><ele>115.0</ele><time>2026-04-24T07:15:01.014Z</time></trkpt><trkpt lat="42.448905115872854" lon="11.455458164984556"><ele>112.33333333333334</ele><time>2026-04-24T07:15:02.014Z</time></trkpt><trkpt lat="42.44875883616603" lon="11.455571008538394"><ele>109.66666666666666</ele><time>2026-04-24T07:15:03.014Z</time></trkpt><trkpt lat="42.44859716399395" lon="11.45568767296476"><ele>107.0</ele><time>2026-04-24T07:15:04.014Z</time></trkpt><trkpt lat="42.4484417143574" lon="11.455787456664467"><ele>107.0</ele><time>2026-04-24T07:15:05.014Z</time></trkpt><trkpt lat="42.448282933983336" lon="11.455888377515576"><ele>107.0</ele><time>2026-04-24T07:15:06.014Z</time></trkpt><trkpt lat="42.44811047979695" lon="11.456001596649417"><ele>107.0</ele><time>2026-04-24T07:15:07.014Z</time></trkpt><trkpt lat="42.44793483502831" lon="11.456121079977562"><ele>105.33333333333333</ele><time>2026-04-24T07:15:08.014Z</time></trkpt><trkpt lat="42.44777291926092" lon="11.45625422032363"><ele>103.66666666666666</ele><time>2026-04-24T07:15:09.014Z</time></trkpt><trkpt lat="42.44759955140415" lon="11.456327322316987"><ele>102.0</ele><time>2026-04-24T07:15:10.015Z</time></trkpt><trkpt lat="42.44745376856012" lon="11.456373512574421"><ele>101.5</ele><time>2026-04-24T07:15:11.015Z</time></trkpt><trkpt lat="42.44731484732381" lon="11.456405674266295"><ele>101.0</ele><time>2026-04-24T07:15:12.015Z</time></trkpt><trkpt lat="42.44717614572754" lon="11.456461498698069"><ele>100.5</ele><time>2026-04-24T07:15:13.015Z</time></trkpt><trkpt lat="42.44704935801014" lon="11.456550814087231"><ele>100.0</ele><time>2026-04-24T07:15:14.015Z</time></trkpt><trkpt lat="42.446940362595" lon="11.45662945699693"><ele>100.0</ele><time>2026-04-24T07:15:15.015Z</time></trkpt><trkpt lat="42.44682356111767" lon="11.456746901131497"><ele>100.0</ele><time>2026-04-24T07:15:16.015Z</time></trkpt><trkpt lat="42.44671722797204" lon="11.456894895372775"><ele>100.0</ele><time>2026-04-24T07:15:17.015Z</time></trkpt><trkpt lat="42.446610270527245" lon="11.457057933487656"><ele>100.33333333333334</ele><time>2026-04-24T07:15:18.015Z</time></trkpt><trkpt lat="42.446498053984136" lon="11.457218415507956"><ele>100.66666666666666</ele><time>2026-04-24T07:15:19.015Z</time></trkpt><trkpt lat="42.44637554188707" lon="11.457385118024465"><ele>101.0</ele><time>2026-04-24T07:15:20.015Z</time></trkpt><trkpt lat="42.44622947139857" lon="11.45753247403664"><ele>101.33333333333333</ele><time>2026-04-24T07:15:21.015Z</time></trkpt><trkpt lat="42.446094609974345" lon="11.457689271807263"><ele>101.66666666666666</ele><time>2026-04-24T07:15:22.015Z</time></trkpt><trkpt lat="42.44595975774428" lon="11.45784265576873"><ele>102.0</ele><time>2026-04-24T07:15:23.015Z</time></trkpt><trkpt lat="42.44582718332651" lon="11.457997716534418"><ele>102.0</ele><time>2026-04-24T07:15:24.015Z</time></trkpt><trkpt lat="42.44570412177777" lon="11.45814651626799"><ele>102.0</ele><time>2026-04-24T07:15:25.015Z</time></trkpt><trkpt lat="42.44558267390417" lon="11.458309348163382"><ele>102.0</ele><time>2026-04-24T07:15:26.015Z</time></trkpt><trkpt lat="42.445464582101415" lon="11.458486645104967"><ele>102.33333333333334</ele><time>2026-04-24T07:15:27.015Z</time></trkpt><trkpt lat="42.44536004388793" lon="11.45866860707394"><ele>102.66666666666667</ele><time>2026-04-24T07:15:28.015Z</time></trkpt><trkpt lat="42.44525996385633" lon="11.458842534504607"><ele>103.0</ele><time>2026-04-24T07:15:29.015Z</time></trkpt><trkpt lat="42.44515156829781" lon="11.45902573966857"><ele>103.0</ele><time>2026-04-24T07:15:30.015Z</time></trkpt><trkpt lat="42.4450451337384" lon="11.459202311754456"><ele>103.0</ele><time>2026-04-24T07:15:31.015Z</time></trkpt><trkpt lat="42.44494109372893" lon="11.459389480470332"><ele>103.0</ele><time>2026-04-24T07:15:32.015Z</time></trkpt><trkpt lat="42.44483773490938" lon="11.459563814951984"><ele>103.0</ele><time>2026-04-24T07:15:33.015Z</time></trkpt><trkpt lat="42.444733810738036" lon="11.459729126563488"><ele>103.0</ele><time>2026-04-24T07:15:34.015Z</time></trkpt><trkpt lat="42.44464006151154" lon="11.459871327018005"><ele>103.0</ele><time>2026-04-24T07:15:35.015Z</time></trkpt><trkpt lat="42.444541922625774" lon="11.46001794456342"><ele>103.0</ele><time>2026-04-24T07:15:36.015Z</time></trkpt><trkpt lat="42.44444057147702" lon="11.460167794506873"><ele>101.66666666666667</ele><time>2026-04-24T07:15:37.015Z</time></trkpt><trkpt lat="42.44436776118093" lon="11.460344117072312"><ele>100.33333333333334</ele><time>2026-04-24T07:15:38.015Z</time></trkpt><trkpt lat="42.44428692911014" lon="11.46052360651383"><ele>99.0</ele><time>2026-04-24T07:15:39.015Z</time></trkpt><trkpt lat="42.44421899971803" lon="11.46072630490368"><ele>99.0</ele><time>2026-04-24T07:15:40.015Z</time></trkpt><trkpt lat="42.444160005935984" lon="11.460944541348825"><ele>99.0</ele><time>2026-04-24T07:15:41.015Z</time></trkpt><trkpt lat="42.444095147591035" lon="11.46117794666258"><ele>99.0</ele><time>2026-04-24T07:15:42.015Z</time></trkpt><trkpt lat="42.4440263279517" lon="11.461410591619888"><ele>99.0</ele><time>2026-04-24T07:15:43.015Z</time></trkpt><trkpt lat="42.443943813014435" lon="11.461624085834707"><ele>99.0</ele><time>2026-04-24T07:15:44.015Z</time></trkpt><trkpt lat="42.44386285783492" lon="11.461817273447526"><ele>99.0</ele><time>2026-04-24T07:15:45.015Z</time></trkpt><trkpt lat="42.443793288076044" lon="11.462012304559101"><ele>98.5</ele><time>2026-04-24T07:15:46.015Z</time></trkpt><trkpt lat="42.44372493828528" lon="11.46219375906017"><ele>98.0</ele><time>2026-04-24T07:15:47.015Z</time></trkpt><trkpt lat="42.44365126782507" lon="11.46237002895075"><ele>97.5</ele><time>2026-04-24T07:15:48.015Z</time></trkpt><trkpt lat="42.44354176727365" lon="11.462504841211564"><ele>97.0</ele><time>2026-04-24T07:15:49.015Z</time></trkpt><trkpt lat="42.443416496952196" lon="11.462628546249745"><ele>97.0</ele><time>2026-04-24T07:15:50.015Z</time></trkpt><trkpt lat="42.44327091306735" lon="11.462763784014054"><ele>97.0</ele><time>2026-04-24T07:15:51.015Z</time></trkpt><trkpt lat="42.44313715596642" lon="11.462901259010694"><ele>97.0</ele><time>2026-04-24T07:15:52.015Z</time></trkpt><trkpt lat="42.44298528907428" lon="11.46300939175059"><ele>96.33333333333334</ele><time>2026-04-24T07:15:53.015Z</time></trkpt><trkpt lat="42.44284553544509" lon="11.463136998370665"><ele>95.66666666666667</ele><time>2026-04-24T07:15:54.015Z</time></trkpt><trkpt lat="42.44268845883062" lon="11.463275752811844"><ele>95.0</ele><time>2026-04-24T07:15:55.015Z</time></trkpt><trkpt lat="42.44252158876114" lon="11.463391144055564"><ele>95.0</ele><time>2026-04-24T07:15:56.015Z</time></trkpt><trkpt lat="42.442342526371796" lon="11.46348293707095"><ele>95.0</ele><time>2026-04-24T07:15:57.015Z</time></trkpt><trkpt lat="42.44217190809866" lon="11.463574395006102"><ele>95.0</ele><time>2026-04-24T07:15:58.015Z</time></trkpt><trkpt lat="42.44199601523688" lon="11.463641151942728"><ele>95.66666666666667</ele><time>2026-04-24T07:15:59.015Z</time></trkpt><trkpt lat="42.44180199545547" lon="11.46370458162607"><ele>96.33333333333334</ele><time>2026-04-24T07:16:00.015Z</time></trkpt><trkpt lat="42.4416259360623" lon="11.46376057417748"><ele>97.0</ele><time>2026-04-24T07:16:01.015Z</time></trkpt><trkpt lat="42.44145264654135" lon="11.463834063852312"><ele>98.66666666666667</ele><time>2026-04-24T07:16:02.015Z</time></trkpt><trkpt lat="42.44127407352934" lon="11.463887718118766"><ele>100.33333333333334</ele><time>2026-04-24T07:16:03.015Z</time></trkpt><trkpt lat="42.44109155971962" lon="11.463962287949718"><ele>102.0</ele><time>2026-04-24T07:16:04.015Z</time></trkpt><trkpt lat="42.44092148875798" lon="11.46401244766327"><ele>102.0</ele><time>2026-04-24T07:16:05.015Z</time></trkpt><trkpt lat="42.440764155137366" lon="11.46405924578822"><ele>102.0</ele><time>2026-04-24T07:16:06.015Z</time></trkpt><trkpt lat="42.44061364080664" lon="11.464097801124469"><ele>102.0</ele><time>2026-04-24T07:16:07.015Z</time></trkpt><trkpt lat="42.44047369576646" lon="11.464114413362838"><ele>102.66666666666666</ele><time>2026-04-24T07:16:08.015Z</time></trkpt><trkpt lat="42.44032135290399" lon="11.464081744198396"><ele>103.33333333333333</ele><time>2026-04-24T07:16:09.015Z</time></trkpt><trkpt lat="42.44016401316632" lon="11.464064940561949"><ele>104.0</ele><time>2026-04-24T07:16:10.015Z</time></trkpt><trkpt lat="42.43999492822406" lon="11.464040061107001"><ele>104.0</ele><time>2026-04-24T07:16:11.015Z</time></trkpt><trkpt lat="42.4398145995667" lon="11.464008953164758"><ele>104.0</ele><time>2026-04-24T07:16:12.015Z</time></trkpt><trkpt lat="42.439632853559026" lon="11.463970783868488"><ele>104.0</ele><time>2026-04-24T07:16:13.015Z</time></trkpt><trkpt lat="42.4394543710136" lon="11.463949278017562"><ele>104.75</ele><time>2026-04-24T07:16:14.015Z</time></trkpt><trkpt lat="42.439286524419614" lon="11.463934677209785"><ele>105.5</ele><time>2026-04-24T07:16:15.015Z</time></trkpt><trkpt lat="42.43915014030981" lon="11.463930210816923"><ele>106.25</ele><time>2026-04-24T07:16:16.015Z</time></trkpt><trkpt lat="42.439005367835186" lon="11.463922112262573"><ele>107.0</ele><time>2026-04-24T07:16:17.015Z</time></trkpt><trkpt lat="42.43886028637101" lon="11.463927839780075"><ele>105.66666666666666</ele><time>2026-04-24T07:16:18.015Z</time></trkpt><trkpt lat="42.43871782154672" lon="11.463956611858212"><ele>104.33333333333334</ele><time>2026-04-24T07:16:19.016Z</time></trkpt><trkpt lat="42.438573429177396" lon="11.464040268541453"><ele>103.0</ele><time>2026-04-24T07:16:20.016Z</time></trkpt><trkpt lat="42.4384243465933" lon="11.464128127685001"><ele>103.0</ele><time>2026-04-24T07:16:21.016Z</time></trkpt><trkpt lat="42.438260556867405" lon="11.464181334247861"><ele>103.0</ele><time>2026-04-24T07:16:22.016Z</time></trkpt><trkpt lat="42.43810639725799" lon="11.464257840637929"><ele>103.0</ele><time>2026-04-24T07:16:23.016Z</time></trkpt><trkpt lat="42.43795191908961" lon="11.464343076239713"><ele>103.33333333333334</ele><time>2026-04-24T07:16:24.016Z</time></trkpt><trkpt lat="42.437808963143205" lon="11.46443315276285"><ele>103.66666666666666</ele><time>2026-04-24T07:16:25.016Z</time></trkpt><trkpt lat="42.43767159888826" lon="11.464560518178484"><ele>104.0</ele><time>2026-04-24T07:16:26.016Z</time></trkpt><trkpt lat="42.43752538589288" lon="11.464666618615723"><ele>104.0</ele><time>2026-04-24T07:16:27.016Z</time></trkpt><trkpt lat="42.4373924855303" lon="11.464764364500205"><ele>104.0</ele><time>2026-04-24T07:16:28.016Z</time></trkpt><trkpt lat="42.43726067513423" lon="11.464859424112353"><ele>104.0</ele><time>2026-04-24T07:16:29.016Z</time></trkpt><trkpt lat="42.437134097291356" lon="11.464963466853302"><ele>104.0</ele><time>2026-04-24T07:16:30.016Z</time></trkpt><trkpt lat="42.43701501793784" lon="11.465110295916478"><ele>103.0</ele><time>2026-04-24T07:16:31.016Z</time></trkpt><trkpt lat="42.436916144135736" lon="11.465275358068409"><ele>102.0</ele><time>2026-04-24T07:16:32.016Z</time></trkpt><trkpt lat="42.43680974327569" lon="11.465445188417036"><ele>101.0</ele><time>2026-04-24T07:16:33.016Z</time></trkpt><trkpt lat="42.436722221852996" lon="11.465616294028031"><ele>101.0</ele><time>2026-04-24T07:16:34.016Z</time></trkpt><trkpt lat="42.43664816873317" lon="11.465815014856107"><ele>101.0</ele><time>2026-04-24T07:16:35.016Z</time></trkpt><trkpt lat="42.4365633798958" lon="11.46601220687671"><ele>101.0</ele><time>2026-04-24T07:16:36.016Z</time></trkpt><trkpt lat="42.43646243560544" lon="11.466185330607821"><ele>102.0</ele><time>2026-04-24T07:16:37.016Z</time></trkpt><trkpt lat="42.43639069282294" lon="11.466369276541794"><ele>103.0</ele><time>2026-04-24T07:16:38.016Z</time></trkpt><trkpt lat="42.436290967014266" lon="11.466529558180973"><ele>104.0</ele><time>2026-04-24T07:16:39.016Z</time></trkpt><trkpt lat="42.43622812035854" lon="11.466733851919917"><ele>101.0</ele><time>2026-04-24T07:16:40.016Z</time></trkpt><trkpt lat="42.43616398181957" lon="11.46694572474799"><ele>98.0</ele><time>2026-04-24T07:16:41.016Z</time></trkpt><trkpt lat="42.43612923054925" lon="11.467175955272694"><ele>95.0</ele><time>2026-04-24T07:16:42.016Z</time></trkpt><trkpt lat="42.436083205733155" lon="11.467418075074606"><ele>95.0</ele><time>2026-04-24T07:16:43.016Z</time></trkpt><trkpt lat="42.436026009399484" lon="11.467653474126612"><ele>95.0</ele><time>2026-04-24T07:16:44.016Z</time></trkpt><trkpt lat="42.43596287438385" lon="11.467873922632405"><ele>95.0</ele><time>2026-04-24T07:16:45.016Z</time></trkpt><trkpt lat="42.43589561579494" lon="11.46806765569359"><ele>95.8</ele><time>2026-04-24T07:16:46.016Z</time></trkpt><trkpt lat="42.43585079056451" lon="11.468246389075517"><ele>96.6</ele><time>2026-04-24T07:16:47.016Z</time></trkpt><trkpt lat="42.43581777436242" lon="11.468405375098397"><ele>97.4</ele><time>2026-04-24T07:16:48.016Z</time></trkpt><trkpt lat="42.435784261986214" lon="11.468525342950368"><ele>98.2</ele><time>2026-04-24T07:16:49.016Z</time></trkpt><trkpt lat="42.43576346139915" lon="11.46861837696324"><ele>99.0</ele><time>2026-04-24T07:16:50.016Z</time></trkpt><trkpt lat="42.43580038673527" lon="11.46876363033531"><ele>99.0</ele><time>2026-04-24T07:16:52.016Z</time></trkpt><trkpt lat="42.43586074736441" lon="11.468853060757342"><ele>99.0</ele><time>2026-04-24T07:16:53.016Z</time></trkpt><trkpt lat="42.43593640110649" lon="11.46895543145969"><ele>99.0</ele><time>2026-04-24T07:16:54.016Z</time></trkpt><trkpt lat="42.436020594857894" lon="11.469063552057891"><ele>99.0</ele><time>2026-04-24T07:16:55.016Z</time></trkpt><trkpt lat="42.436070870236456" lon="11.469186195141132"><ele>99.0</ele><time>2026-04-24T07:16:56.016Z</time></trkpt><trkpt lat="42.43610510933171" lon="11.469322595487538"><ele>99.0</ele><time>2026-04-24T07:16:57.016Z</time></trkpt><trkpt lat="42.43610971219276" lon="11.46946798665561"><ele>99.0</ele><time>2026-04-24T07:16:58.016Z</time></trkpt><trkpt lat="42.43605037392754" lon="11.469619082557383"><ele>99.0</ele><time>2026-04-24T07:16:59.016Z</time></trkpt><trkpt lat="42.43601806632229" lon="11.46977632749362"><ele>99.0</ele><time>2026-04-24T07:17:00.016Z</time></trkpt><trkpt lat="42.43601573513119" lon="11.469916341106815"><ele>98.0</ele><time>2026-04-24T07:17:01.016Z</time></trkpt><trkpt lat="42.43601166408332" lon="11.470055936980497"><ele>97.0</ele><time>2026-04-24T07:17:02.016Z</time></trkpt><trkpt lat="42.436031568665584" lon="11.470192274084878"><ele>96.0</ele><time>2026-04-24T07:17:03.016Z</time></trkpt><trkpt lat="42.4360944591538" lon="11.470361360099922"><ele>95.0</ele><time>2026-04-24T07:17:04.016Z</time></trkpt><trkpt lat="42.436144552904906" lon="11.47054890330916"><ele>94.66666666666667</ele><time>2026-04-24T07:17:05.016Z</time></trkpt><trkpt lat="42.436165516578164" lon="11.470760963040481"><ele>94.33333333333333</ele><time>2026-04-24T07:17:06.016Z</time></trkpt><trkpt lat="42.43622081997538" lon="11.470970898953254"><ele>94.0</ele><time>2026-04-24T07:17:07.016Z</time></trkpt><trkpt lat="42.43627196758707" lon="11.471188112860125"><ele>96.33333333333333</ele><time>2026-04-24T07:17:08.016Z</time></trkpt><trkpt lat="42.43632102199676" lon="11.471389890731672"><ele>98.66666666666666</ele><time>2026-04-24T07:17:09.016Z</time></trkpt><trkpt lat="42.436368283049724" lon="11.471588820920807"><ele>101.0</ele><time>2026-04-24T07:17:10.016Z</time></trkpt><trkpt lat="42.43640975989703" lon="11.471788875532672"><ele>101.0</ele><time>2026-04-24T07:17:11.016Z</time></trkpt><trkpt lat="42.436457671619934" lon="11.471981955903304"><ele>101.0</ele><time>2026-04-24T07:17:12.016Z</time></trkpt><trkpt lat="42.43650807115302" lon="11.472167675202503"><ele>101.0</ele><time>2026-04-24T07:17:13.016Z</time></trkpt><trkpt lat="42.43656605465333" lon="11.472341637985615"><ele>101.0</ele><time>2026-04-24T07:17:14.016Z</time></trkpt><trkpt lat="42.436630078970595" lon="11.472521899114682"><ele>99.75</ele><time>2026-04-24T07:17:15.016Z</time></trkpt><trkpt lat="42.43668237894363" lon="11.472689058281516"><ele>98.5</ele><time>2026-04-24T07:17:16.016Z</time></trkpt><trkpt lat="42.436736649294595" lon="11.472833797929948"><ele>97.25</ele><time>2026-04-24T07:17:17.016Z</time></trkpt><trkpt lat="42.436773768591" lon="11.472978980715038"><ele>96.0</ele><time>2026-04-24T07:17:18.016Z</time></trkpt><trkpt lat="42.436786485114816" lon="11.473134995263388"><ele>94.75</ele><time>2026-04-24T07:17:19.016Z</time></trkpt><trkpt lat="42.4367709649541" lon="11.473311217431327"><ele>93.5</ele><time>2026-04-24T07:17:20.016Z</time></trkpt><trkpt lat="42.43669953301142" lon="11.47347005799164"><ele>92.25</ele><time>2026-04-24T07:17:21.016Z</time></trkpt><trkpt lat="42.436642550810944" lon="11.473636318689165"><ele>91.0</ele><time>2026-04-24T07:17:22.016Z</time></trkpt><trkpt lat="42.43659995345954" lon="11.473798157891736"><ele>90.75</ele><time>2026-04-24T07:17:23.016Z</time></trkpt><trkpt lat="42.43653604153912" lon="11.473950854091173"><ele>90.5</ele><time>2026-04-24T07:17:24.016Z</time></trkpt><trkpt lat="42.43648329590312" lon="11.474105746516704"><ele>90.25</ele><time>2026-04-24T07:17:25.016Z</time></trkpt><trkpt lat="42.43644629213422" lon="11.474264509681722"><ele>90.0</ele><time>2026-04-24T07:17:26.016Z</time></trkpt><trkpt lat="42.43643425748899" lon="11.474424548962611"><ele>90.0</ele><time>2026-04-24T07:17:27.016Z</time></trkpt><trkpt lat="42.43645348382116" lon="11.474577161364088"><ele>90.0</ele><time>2026-04-24T07:17:28.017Z</time></trkpt><trkpt lat="42.43650154052135" lon="11.474726310563302"><ele>90.0</ele><time>2026-04-24T07:17:29.017Z</time></trkpt><trkpt lat="42.43656186269123" lon="11.474866175113778"><ele>90.0</ele><time>2026-04-24T07:17:30.002Z</time></trkpt><trkpt lat="42.43664827727466" lon="11.475010696111003"><ele>89.0</ele><time>2026-04-24T07:17:31.002Z</time></trkpt><trkpt lat="42.43673858726579" lon="11.47516034010199"><ele>88.0</ele><time>2026-04-24T07:17:32.002Z</time></trkpt><trkpt lat="42.43683063274218" lon="11.475318762823717"><ele>87.0</ele><time>2026-04-24T07:17:33.002Z</time></trkpt><trkpt lat="42.43690796962169" lon="11.475453696909756"><ele>86.0</ele><time>2026-04-24T07:17:34.002Z</time></trkpt><trkpt lat="42.43698404027992" lon="11.475585044456412"><ele>85.5</ele><time>2026-04-24T07:17:35.002Z</time></trkpt><trkpt lat="42.43706074362178" lon="11.475711094855535"><ele>85.0</ele><time>2026-04-24T07:17:36.002Z</time></trkpt><trkpt lat="42.43711136936771" lon="11.475861118754372"><ele>84.5</ele><time>2026-04-24T07:17:37.002Z</time></trkpt><trkpt lat="42.437192244949706" lon="11.47597188645596"><ele>84.0</ele><time>2026-04-24T07:17:38.002Z</time></trkpt><trkpt lat="42.43727186078487" lon="11.476065933838953"><ele>84.0</ele><time>2026-04-24T07:17:39.002Z</time></trkpt><trkpt lat="42.43734265036773" lon="11.476142517112853"><ele>84.0</ele><time>2026-04-24T07:17:40.002Z</time></trkpt><trkpt lat="42.43739808677559" lon="11.476206876095052"><ele>84.0</ele><time>2026-04-24T07:17:41.002Z</time></trkpt><trkpt lat="42.43746531424874" lon="11.476295250150086"><ele>84.0</ele><time>2026-04-24T07:17:43.002Z</time></trkpt><trkpt lat="42.43756431123907" lon="11.476340966414087"><ele>84.0</ele><time>2026-04-24T07:17:45.002Z</time></trkpt><trkpt lat="42.43763590615033" lon="11.476345721305737"><ele>84.0</ele><time>2026-04-24T07:17:46.002Z</time></trkpt><trkpt lat="42.437707963099044" lon="11.476341963515702"><ele>83.0</ele><time>2026-04-24T07:17:47.002Z</time></trkpt><trkpt lat="42.43779209314346" lon="11.476352774050108"><ele>82.0</ele><time>2026-04-24T07:17:48.002Z</time></trkpt><trkpt lat="42.43788081775303" lon="11.476370322042216"><ele>81.0</ele><time>2026-04-24T07:17:49.002Z</time></trkpt><trkpt lat="42.43797807475247" lon="11.476420366349242"><ele>80.0</ele><time>2026-04-24T07:17:50.002Z</time></trkpt><trkpt lat="42.43810180909613" lon="11.476490096681308"><ele>79.0</ele><time>2026-04-24T07:17:51.002Z</time></trkpt><trkpt lat="42.43822578325073" lon="11.476555990697793"><ele>78.0</ele><time>2026-04-24T07:17:52.002Z</time></trkpt><trkpt lat="42.4383487425931" lon="11.476608737298541"><ele>77.0</ele><time>2026-04-24T07:17:53.002Z</time></trkpt><trkpt lat="42.4384822780991" lon="11.476669616325035"><ele>76.0</ele><time>2026-04-24T07:17:54.002Z</time></trkpt><trkpt lat="42.438609346944276" lon="11.476727915564945"><ele>75.0</ele><time>2026-04-24T07:17:55.002Z</time></trkpt><trkpt lat="42.438746940769626" lon="11.47679331135341"><ele>73.75</ele><time>2026-04-24T07:17:56.003Z</time></trkpt><trkpt lat="42.43887248355185" lon="11.476851568295332"><ele>72.5</ele><time>2026-04-24T07:17:57.003Z</time></trkpt><trkpt lat="42.4389958488905" lon="11.476906375019405"><ele>71.25</ele><time>2026-04-24T07:17:58.003Z</time></trkpt><trkpt lat="42.43910157457446" lon="11.476994167871073"><ele>70.0</ele><time>2026-04-24T07:17:59.003Z</time></trkpt><trkpt lat="42.43921568763952" lon="11.47707706511532"><ele>68.5</ele><time>2026-04-24T07:18:00.003Z</time></trkpt><trkpt lat="42.43931083363096" lon="11.477212200122787"><ele>67.0</ele><time>2026-04-24T07:18:01.003Z</time></trkpt><trkpt lat="42.43942485670806" lon="11.477338214097161"><ele>65.5</ele><time>2026-04-24T07:18:02.003Z</time></trkpt><trkpt lat="42.43953174746778" lon="11.477433277116965"><ele>64.0</ele><time>2026-04-24T07:18:03.003Z</time></trkpt><trkpt lat="42.439618586886326" lon="11.477538156370994"><ele>64.5</ele><time>2026-04-24T07:18:04.003Z</time></trkpt><trkpt lat="42.439704142485354" lon="11.477648209983004"><ele>65.0</ele><time>2026-04-24T07:18:05.003Z</time></trkpt><trkpt lat="42.43978565003642" lon="11.477778863543952"><ele>65.5</ele><time>2026-04-24T07:18:06.003Z</time></trkpt><trkpt lat="42.43982533303356" lon="11.477944860716498"><ele>66.0</ele><time>2026-04-24T07:18:07.003Z</time></trkpt><trkpt lat="42.43986190201286" lon="11.478111596278588"><ele>66.25</ele><time>2026-04-24T07:18:08.003Z</time></trkpt><trkpt lat="42.439900988415644" lon="11.47829529488216"><ele>66.5</ele><time>2026-04-24T07:18:09.003Z</time></trkpt><trkpt lat="42.43993831536854" lon="11.478485078493888"><ele>66.75</ele><time>2026-04-24T07:18:10.003Z</time></trkpt><trkpt lat="42.440001377629336" lon="11.478659655345277"><ele>67.0</ele><time>2026-04-24T07:18:11.003Z</time></trkpt><trkpt lat="42.44004627283747" lon="11.478837788607878"><ele>67.0</ele><time>2026-04-24T07:18:12.003Z</time></trkpt><trkpt lat="42.44009994144669" lon="11.47899579336141"><ele>67.0</ele><time>2026-04-24T07:18:13.003Z</time></trkpt><trkpt lat="42.44015891936508" lon="11.479133951851816"><ele>67.0</ele><time>2026-04-24T07:18:14.003Z</time></trkpt><trkpt lat="42.44021375500635" lon="11.479253705988416"><ele>67.0</ele><time>2026-04-24T07:18:15.003Z</time></trkpt><trkpt lat="42.44025118924713" lon="11.479346944121357"><ele>67.0</ele><time>2026-04-24T07:18:16.002Z</time></trkpt><trkpt lat="42.44027067183619" lon="11.479440762633969"><ele>67.0</ele><time>2026-04-24T07:18:17.002Z</time></trkpt><trkpt lat="42.44026793279727" lon="11.479535777313064"><ele>67.0</ele><time>2026-04-24T07:18:18.002Z</time></trkpt><trkpt lat="42.440248871136724" lon="11.479648673112957"><ele>67.0</ele><time>2026-04-24T07:18:19.002Z</time></trkpt><trkpt lat="42.44016538620436" lon="11.47972279805976"><ele>67.0</ele><time>2026-04-24T07:18:20.002Z</time></trkpt><trkpt lat="42.440118305929886" lon="11.479825609931225"><ele>67.0</ele><time>2026-04-24T07:18:21.002Z</time></trkpt><trkpt lat="42.440065655820476" lon="11.47992240591083"><ele>67.0</ele><time>2026-04-24T07:18:22.003Z</time></trkpt><trkpt lat="42.43999872668072" lon="11.48002776807113"><ele>67.4</ele><time>2026-04-24T07:18:23.002Z</time></trkpt><trkpt lat="42.43992143523359" lon="11.480147847486554"><ele>67.80000000000001</ele><time>2026-04-24T07:18:24.002Z</time></trkpt><trkpt lat="42.43984504435269" lon="11.480261313866965"><ele>68.2</ele><time>2026-04-24T07:18:25.002Z</time></trkpt><trkpt lat="42.43978433064639" lon="11.480371771566652"><ele>68.60000000000001</ele><time>2026-04-24T07:18:26.002Z</time></trkpt><trkpt lat="42.43971588833636" lon="11.480464860436433"><ele>69.0</ele><time>2026-04-24T07:18:27.002Z</time></trkpt><trkpt lat="42.439659615553474" lon="11.480544401345885"><ele>69.0</ele><time>2026-04-24T07:18:28.002Z</time></trkpt><trkpt lat="42.43960869599588" lon="11.480616733656829"><ele>66.0</ele><time>2026-04-24T07:18:29.003Z</time></trkpt><trkpt lat="42.4395957341564" lon="11.480702588677483"><ele>66.0</ele><time>2026-04-24T07:18:30.003Z</time></trkpt><trkpt lat="42.43958887487379" lon="11.48084875328944"><ele>66.0</ele><time>2026-04-24T07:18:32.003Z</time></trkpt><trkpt lat="42.43957903507771" lon="11.480945809762009"><ele>66.0</ele><time>2026-04-24T07:18:34.003Z</time></trkpt><trkpt lat="42.439459072831646" lon="11.480916322765662"><ele>66.0</ele><time>2026-04-24T07:18:40.003Z</time></trkpt></trkseg><trkseg><trkpt lat="42.45454693316403" lon="11.48850197008477"><ele>97.0</ele><time>2026-04-24T08:36:32Z</time></trkpt><trkpt lat="42.45468109706727" lon="11.48855964824177"><ele>98.0</ele><time>2026-04-24T08:36:33Z</time></trkpt><trkpt lat="42.4548124818145" lon="11.488616132127117"><ele>99.0</ele><time>2026-04-24T08:36:34Z</time></trkpt><trkpt lat="42.45495064053667" lon="11.488674468718603"><ele>100.0</ele><time>2026-04-24T08:36:35Z</time></trkpt><trkpt lat="42.45509446865149" lon="11.4887235762926"><ele>101.25</ele><time>2026-04-24T08:36:36Z</time></trkpt><trkpt lat="42.45523831505517" lon="11.488784436322137"><ele>102.5</ele><time>2026-04-24T08:36:37Z</time></trkpt><trkpt lat="42.455374434374065" lon="11.488839267433882"><ele>103.75</ele><time>2026-04-24T08:36:38Z</time></trkpt><trkpt lat="42.45549824402993" lon="11.488884531989498"><ele>105.0</ele><time>2026-04-24T08:36:39Z</time></trkpt><trkpt lat="42.45562731389838" lon="11.488913024234732"><ele>106.33333333333334</ele><time>2026-04-24T08:36:40Z</time></trkpt><trkpt lat="42.45576534387913" lon="11.488903187519597"><ele>107.66666666666667</ele><time>2026-04-24T08:36:41Z</time></trkpt><trkpt lat="42.45591870169154" lon="11.488860495979798"><ele>109.0</ele><time>2026-04-24T08:36:42Z</time></trkpt><trkpt lat="42.4560735011865" lon="11.48879331094034"><ele>108.0</ele><time>2026-04-24T08:36:43Z</time></trkpt><trkpt lat="42.45622442769631" lon="11.488744641276476"><ele>107.0</ele><time>2026-04-24T08:36:44Z</time></trkpt><trkpt lat="42.4563629392269" lon="11.488690692649726"><ele>106.0</ele><time>2026-04-24T08:36:45.001Z</time></trkpt><trkpt lat="42.45648665112389" lon="11.488624923765272"><ele>105.0</ele><time>2026-04-24T08:36:46.001Z</time></trkpt><trkpt lat="42.45660906668097" lon="11.488529980115329"><ele>105.0</ele><time>2026-04-24T08:36:47.001Z</time></trkpt><trkpt lat="42.45673318906756" lon="11.488397043834436"><ele>105.0</ele><time>2026-04-24T08:36:48.001Z</time></trkpt><trkpt lat="42.45687246328825" lon="11.488259897361377"><ele>105.0</ele><time>2026-04-24T08:36:49.001Z</time></trkpt><trkpt lat="42.45701999478508" lon="11.488109186749844"><ele>105.66666666666666</ele><time>2026-04-24T08:36:50.001Z</time></trkpt><trkpt lat="42.45716348677612" lon="11.487961166344467"><ele>106.33333333333333</ele><time>2026-04-24T08:36:51.001Z</time></trkpt><trkpt lat="42.45731070193148" lon="11.487818943007467"><ele>107.0</ele><time>2026-04-24T08:36:52.001Z</time></trkpt><trkpt lat="42.457441338119466" lon="11.487689695041741"><ele>107.0</ele><time>2026-04-24T08:36:53.001Z</time></trkpt><trkpt lat="42.457571217290585" lon="11.487564302114844"><ele>107.0</ele><time>2026-04-24T08:36:54.001Z</time></trkpt><trkpt lat="42.457696107915055" lon="11.487413691255052"><ele>107.0</ele><time>2026-04-24T08:36:55.001Z</time></trkpt><trkpt lat="42.4578125814713" lon="11.487256996916129"><ele>107.66666666666666</ele><time>2026-04-24T08:36:56.001Z</time></trkpt><trkpt lat="42.457926595702475" lon="11.48708166889254"><ele>108.33333333333334</ele><time>2026-04-24T08:36:57.001Z</time></trkpt><trkpt lat="42.458039959751474" lon="11.486912666300142"><ele>109.0</ele><time>2026-04-24T08:36:58.001Z</time></trkpt><trkpt lat="42.458147788643956" lon="11.48674471003133"><ele>109.25</ele><time>2026-04-24T08:36:59.001Z</time></trkpt><trkpt lat="42.45825523495822" lon="11.486587574214749"><ele>109.5</ele><time>2026-04-24T08:37:00.001Z</time></trkpt><trkpt lat="42.45834844632051" lon="11.486460638138466"><ele>109.75</ele><time>2026-04-24T08:37:00.998Z</time></trkpt><trkpt lat="42.45842789763104" lon="11.486334715007748"><ele>110.0</ele><time>2026-04-24T08:37:01.998Z</time></trkpt><trkpt lat="42.458519765334955" lon="11.486228146359721"><ele>110.0</ele><time>2026-04-24T08:37:02.998Z</time></trkpt><trkpt lat="42.458596653644875" lon="11.48612336542802"><ele>110.0</ele><time>2026-04-24T08:37:03.998Z</time></trkpt><trkpt lat="42.45870210182125" lon="11.486054796352143"><ele>110.0</ele><time>2026-04-24T08:37:04.998Z</time></trkpt><trkpt lat="42.45882925862788" lon="11.485960058625105"><ele>110.0</ele><time>2026-04-24T08:37:05.998Z</time></trkpt><trkpt lat="42.45895340372105" lon="11.485854973182189"><ele>109.33333333333333</ele><time>2026-04-24T08:37:06.998Z</time></trkpt><trkpt lat="42.45907276179249" lon="11.485726616675034"><ele>108.66666666666666</ele><time>2026-04-24T08:37:07.998Z</time></trkpt><trkpt lat="42.459199851346405" lon="11.485614324032936"><ele>108.0</ele><time>2026-04-24T08:37:08.998Z</time></trkpt><trkpt lat="42.459331615296115" lon="11.4855255941905"><ele>108.0</ele><time>2026-04-24T08:37:09.998Z</time></trkpt><trkpt lat="42.459450673429" lon="11.48544698745219"><ele>108.0</ele><time>2026-04-24T08:37:10.998Z</time></trkpt><trkpt lat="42.459569213307226" lon="11.4853846325956"><ele>108.0</ele><time>2026-04-24T08:37:11.998Z</time></trkpt><trkpt lat="42.45970358496245" lon="11.485341333982934"><ele>108.0</ele><time>2026-04-24T08:37:12.998Z</time></trkpt><trkpt lat="42.45984050076315" lon="11.485313338401857"><ele>106.75</ele><time>2026-04-24T08:37:13.998Z</time></trkpt><trkpt lat="42.459984043194744" lon="11.48530130020939"><ele>105.5</ele><time>2026-04-24T08:37:14.998Z</time></trkpt><trkpt lat="42.46013332651212" lon="11.485294980217995"><ele>104.25</ele><time>2026-04-24T08:37:15.998Z</time></trkpt><trkpt lat="42.46028681039735" lon="11.48528858504905"><ele>103.0</ele><time>2026-04-24T08:37:16.999Z</time></trkpt><trkpt lat="42.46045738934727" lon="11.48527701710091"><ele>103.0</ele><time>2026-04-24T08:37:17.999Z</time></trkpt><trkpt lat="42.46061245113374" lon="11.485262824286727"><ele>103.0</ele><time>2026-04-24T08:37:18.999Z</time></trkpt><trkpt lat="42.46074688217884" lon="11.485253904412904"><ele>103.0</ele><time>2026-04-24T08:37:19.999Z</time></trkpt><trkpt lat="42.46087174222859" lon="11.485246802870051"><ele>103.0</ele><time>2026-04-24T08:37:20.999Z</time></trkpt><trkpt lat="42.460984961371686" lon="11.485235972022231"><ele>103.0</ele><time>2026-04-24T08:37:21.999Z</time></trkpt><trkpt lat="42.46109375339403" lon="11.485215405273872"><ele>103.0</ele><time>2026-04-24T08:37:22.999Z</time></trkpt><trkpt lat="42.461203795697735" lon="11.485206517438874"><ele>103.0</ele><time>2026-04-24T08:37:23.999Z</time></trkpt><trkpt lat="42.46130856041513" lon="11.485196434533393"><ele>103.0</ele><time>2026-04-24T08:37:24.999Z</time></trkpt><trkpt lat="42.46140505105681" lon="11.485188144177503"><ele>103.0</ele><time>2026-04-24T08:37:25.999Z</time></trkpt><trkpt lat="42.4615061726473" lon="11.485179859168847"><ele>102.4</ele><time>2026-04-24T08:37:26.999Z</time></trkpt><trkpt lat="42.461612196698326" lon="11.485170107612282"><ele>101.80000000000001</ele><time>2026-04-24T08:37:27.999Z</time></trkpt><trkpt lat="42.46170868156015" lon="11.485162313962164"><ele>101.2</ele><time>2026-04-24T08:37:28.999Z</time></trkpt><trkpt lat="42.46179593609949" lon="11.485172007117509"><ele>100.6</ele><time>2026-04-24T08:37:29.999Z</time></trkpt><trkpt lat="42.4618954545984" lon="11.485205898924049"><ele>100.0</ele><time>2026-04-24T08:37:30.999Z</time></trkpt><trkpt lat="42.46201757612716" lon="11.485273606992783"><ele>99.0</ele><time>2026-04-24T08:37:31.999Z</time></trkpt><trkpt lat="42.46214296494072" lon="11.485389794504483"><ele>98.0</ele><time>2026-04-24T08:37:32.999Z</time></trkpt><trkpt lat="42.46228208320869" lon="11.48548697857147"><ele>97.0</ele><time>2026-04-24T08:37:33.999Z</time></trkpt><trkpt lat="42.462436143839085" lon="11.485582505899307"><ele>100.66666666666667</ele><time>2026-04-24T08:37:34.999Z</time></trkpt><trkpt lat="42.46257624383939" lon="11.485673749630628"><ele>104.33333333333334</ele><time>2026-04-24T08:37:35.999Z</time></trkpt><trkpt lat="42.46270807535409" lon="11.485766760222178"><ele>108.0</ele><time>2026-04-24T08:37:36.999Z</time></trkpt><trkpt lat="42.46285365329666" lon="11.485852211566574"><ele>106.75</ele><time>2026-04-24T08:37:37.999Z</time></trkpt><trkpt lat="42.46301099087625" lon="11.485863686954422"><ele>105.5</ele><time>2026-04-24T08:37:38.999Z</time></trkpt><trkpt lat="42.46316147546111" lon="11.485922217098055"><ele>104.25</ele><time>2026-04-24T08:37:39.999Z</time></trkpt><trkpt lat="42.46329509323328" lon="11.48594776316037"><ele>103.0</ele><time>2026-04-24T08:37:40.999Z</time></trkpt><trkpt lat="42.46342974008088" lon="11.486007479158847"><ele>103.0</ele><time>2026-04-24T08:37:41.999Z</time></trkpt><trkpt lat="42.463563966442116" lon="11.486064301957276"><ele>103.0</ele><time>2026-04-24T08:37:42.999Z</time></trkpt><trkpt lat="42.46368875263441" lon="11.486148241896183"><ele>103.0</ele><time>2026-04-24T08:37:43.999Z</time></trkpt><trkpt lat="42.463802620348694" lon="11.486224093050309"><ele>103.0</ele><time>2026-04-24T08:37:44.999Z</time></trkpt><trkpt lat="42.46393358280102" lon="11.486271089593627"><ele>103.5</ele><time>2026-04-24T08:37:45.999Z</time></trkpt><trkpt lat="42.46407501527012" lon="11.48627717299062"><ele>104.0</ele><time>2026-04-24T08:37:46.999Z</time></trkpt><trkpt lat="42.46420759777812" lon="11.486257563988305"><ele>104.5</ele><time>2026-04-24T08:37:47.999Z</time></trkpt><trkpt lat="42.46433800314047" lon="11.486292493411746"><ele>105.0</ele><time>2026-04-24T08:37:48.999Z</time></trkpt><trkpt lat="42.464481425269874" lon="11.48630817454312"><ele>105.4</ele><time>2026-04-24T08:37:49.999Z</time></trkpt><trkpt lat="42.46461939151106" lon="11.486290791686688"><ele>105.8</ele><time>2026-04-24T08:37:50.999Z</time></trkpt><trkpt lat="42.4647250576713" lon="11.486301692589011"><ele>106.19999999999999</ele><time>2026-04-24T08:37:51.999Z</time></trkpt><trkpt lat="42.464829605678965" lon="11.486309376853757"><ele>106.6</ele><time>2026-04-24T08:37:52.999Z</time></trkpt><trkpt lat="42.46492307270231" lon="11.486309414554418"><ele>107.0</ele><time>2026-04-24T08:37:53.999Z</time></trkpt><trkpt lat="42.465005485427895" lon="11.486326934282724"><ele>107.0</ele><time>2026-04-24T08:37:54.999Z</time></trkpt><trkpt lat="42.46507986397916" lon="11.486343448385805"><ele>106.99999999999999</ele><time>2026-04-24T08:37:55.999Z</time></trkpt><trkpt lat="42.46514952310152" lon="11.486349391060426"><ele>106.99999999999999</ele><time>2026-04-24T08:37:56.999Z</time></trkpt><trkpt lat="42.465259626432875" lon="11.486360209112915"><ele>107.0</ele><time>2026-04-24T08:37:59Z</time></trkpt><trkpt lat="42.46535332439381" lon="11.486373749191497"><ele>107.0</ele><time>2026-04-24T08:38:01Z</time></trkpt><trkpt lat="42.465457883460864" lon="11.486393070772515"><ele>107.8</ele><time>2026-04-24T08:38:03Z</time></trkpt><trkpt lat="42.46554791442363" lon="11.486421664556188"><ele>108.6</ele><time>2026-04-24T08:38:05Z</time></trkpt><trkpt lat="42.4656451895343" lon="11.486438621930303"><ele>109.39999999999999</ele><time>2026-04-24T08:38:07Z</time></trkpt><trkpt lat="42.46573835178535" lon="11.486448676521691"><ele>110.19999999999999</ele><time>2026-04-24T08:38:09Z</time></trkpt><trkpt lat="42.4658626008389" lon="11.486479647273585"><ele>111.0</ele><time>2026-04-24T08:38:11Z</time></trkpt><trkpt lat="42.4659361502959" lon="11.48649595087768"><ele>111.0</ele><time>2026-04-24T08:38:12Z</time></trkpt><trkpt lat="42.4660070412784" lon="11.486498165400382"><ele>111.0</ele><time>2026-04-24T08:38:13Z</time></trkpt><trkpt lat="42.46609912753557" lon="11.486497458958487"><ele>111.0</ele><time>2026-04-24T08:38:14Z</time></trkpt><trkpt lat="42.4662206136752" lon="11.486497533203744"><ele>111.0</ele><time>2026-04-24T08:38:15Z</time></trkpt><trkpt lat="42.4663400050555" lon="11.48650538365829"><ele>111.0</ele><time>2026-04-24T08:38:16Z</time></trkpt><trkpt lat="42.466460811329526" lon="11.486530018621943"><ele>111.5</ele><time>2026-04-24T08:38:17Z</time></trkpt><trkpt lat="42.46660370467211" lon="11.486577070387908"><ele>112.0</ele><time>2026-04-24T08:38:18Z</time></trkpt><trkpt lat="42.46674763893969" lon="11.486640656105036"><ele>112.5</ele><time>2026-04-24T08:38:19Z</time></trkpt><trkpt lat="42.46688515175213" lon="11.486688032850305"><ele>113.0</ele><time>2026-04-24T08:38:20Z</time></trkpt><trkpt lat="42.467023054010866" lon="11.486715762455377"><ele>112.5</ele><time>2026-04-24T08:38:21Z</time></trkpt><trkpt lat="42.46718413171481" lon="11.486723036433908"><ele>112.0</ele><time>2026-04-24T08:38:22Z</time></trkpt><trkpt lat="42.467336440792444" lon="11.486718005095176"><ele>111.5</ele><time>2026-04-24T08:38:23Z</time></trkpt><trkpt lat="42.467465512369806" lon="11.486701091836359"><ele>111.0</ele><time>2026-04-24T08:38:24Z</time></trkpt><trkpt lat="42.46758441342708" lon="11.486686752470963"><ele>111.0</ele><time>2026-04-24T08:38:25Z</time></trkpt><trkpt lat="42.46768349206871" lon="11.486694130172989"><ele>111.0</ele><time>2026-04-24T08:38:26Z</time></trkpt><trkpt lat="42.46776092655453" lon="11.486709149763216"><ele>111.0</ele><time>2026-04-24T08:38:27Z</time></trkpt><trkpt lat="42.46783481006357" lon="11.486734738337592"><ele>111.0</ele><time>2026-04-24T08:38:28Z</time></trkpt><trkpt lat="42.467941987771134" lon="11.486786637311452"><ele>111.0</ele><time>2026-04-24T08:38:29Z</time></trkpt><trkpt lat="42.468083361714164" lon="11.486833655121757"><ele>111.75</ele><time>2026-04-24T08:38:30Z</time></trkpt><trkpt lat="42.46822911393999" lon="11.486858727060348"><ele>112.5</ele><time>2026-04-24T08:38:31Z</time></trkpt><trkpt lat="42.46835928350568" lon="11.486899302105172"><ele>113.25</ele><time>2026-04-24T08:38:32Z</time></trkpt><trkpt lat="42.46848393270788" lon="11.486956228916258"><ele>114.0</ele><time>2026-04-24T08:38:33Z</time></trkpt><trkpt lat="42.468611591577" lon="11.487001971358163"><ele>114.0</ele><time>2026-04-24T08:38:34Z</time></trkpt><trkpt lat="42.468738818813236" lon="11.487027053634671"><ele>114.0</ele><time>2026-04-24T08:38:35Z</time></trkpt><trkpt lat="42.4688253351509" lon="11.487045467911377"><ele>114.0</ele><time>2026-04-24T08:38:36Z</time></trkpt><trkpt lat="42.468912292411396" lon="11.487088071105452"><ele>114.0</ele><time>2026-04-24T08:38:37Z</time></trkpt><trkpt lat="42.46899722797791" lon="11.487158563817946"><ele>114.0</ele><time>2026-04-24T08:38:38Z</time></trkpt><trkpt lat="42.46909313554284" lon="11.487243421894688"><ele>115.0</ele><time>2026-04-24T08:38:39Z</time></trkpt><trkpt lat="42.46918717076582" lon="11.487331810402864"><ele>116.0</ele><time>2026-04-24T08:38:40Z</time></trkpt><trkpt lat="42.46928159070907" lon="11.487433535603284"><ele>117.0</ele><time>2026-04-24T08:38:41Z</time></trkpt><trkpt lat="42.469368943301895" lon="11.487562015007391"><ele>118.0</ele><time>2026-04-24T08:38:42Z</time></trkpt><trkpt lat="42.46946318388691" lon="11.487688072135438"><ele>118.0</ele><time>2026-04-24T08:38:43Z</time></trkpt><trkpt lat="42.46955115790952" lon="11.487804474157125"><ele>118.0</ele><time>2026-04-24T08:38:44Z</time></trkpt><trkpt lat="42.46963849697287" lon="11.487919011469394"><ele>118.0</ele><time>2026-04-24T08:38:45Z</time></trkpt><trkpt lat="42.469723671529536" lon="11.488012770039921"><ele>118.0</ele><time>2026-04-24T08:38:46Z</time></trkpt><trkpt lat="42.469817038037306" lon="11.488064918336311"><ele>119.5</ele><time>2026-04-24T08:38:47Z</time></trkpt><trkpt lat="42.46993171169361" lon="11.488081997328726"><ele>121.0</ele><time>2026-04-24T08:38:48Z</time></trkpt><trkpt lat="42.470047740306214" lon="11.48805983302799"><ele>122.5</ele><time>2026-04-24T08:38:49Z</time></trkpt><trkpt lat="42.47017892197233" lon="11.488029231841773"><ele>124.0</ele><time>2026-04-24T08:38:50Z</time></trkpt><trkpt lat="42.470291401535306" lon="11.487999147656247"><ele>124.0</ele><time>2026-04-24T08:38:51Z</time></trkpt><trkpt lat="42.47038890937748" lon="11.488001271296978"><ele>124.0</ele><time>2026-04-24T08:38:52Z</time></trkpt><trkpt lat="42.470511996199676" lon="11.488011005176974"><ele>124.0</ele><time>2026-04-24T08:38:53Z</time></trkpt><trkpt lat="42.4706479856777" lon="11.48804529790845"><ele>124.0</ele><time>2026-04-24T08:38:54Z</time></trkpt><trkpt lat="42.47077606413592" lon="11.488107014831098"><ele>123.75</ele><time>2026-04-24T08:38:55Z</time></trkpt><trkpt lat="42.470903686045595" lon="11.488154672423043"><ele>123.5</ele><time>2026-04-24T08:38:56Z</time></trkpt><trkpt lat="42.47106077886717" lon="11.488155264354168"><ele>123.25</ele><time>2026-04-24T08:38:57Z</time></trkpt><trkpt lat="42.47121124260808" lon="11.488140934059393"><ele>123.0</ele><time>2026-04-24T08:38:58Z</time></trkpt><trkpt lat="42.47137340484764" lon="11.488120342797439"><ele>122.33333333333334</ele><time>2026-04-24T08:38:59Z</time></trkpt><trkpt lat="42.47152513691785" lon="11.488079390718962"><ele>121.66666666666667</ele><time>2026-04-24T08:39:00Z</time></trkpt><trkpt lat="42.47167187393242" lon="11.488046589151027"><ele>121.0</ele><time>2026-04-24T08:39:01Z</time></trkpt><trkpt lat="42.47183252320304" lon="11.48802775820537"><ele>121.0</ele><time>2026-04-24T08:39:02Z</time></trkpt><trkpt lat="42.47198572668509" lon="11.488056652582276"><ele>121.0</ele><time>2026-04-24T08:39:03Z</time></trkpt><trkpt lat="42.472147800996275" lon="11.488107398267614"><ele>121.0</ele><time>2026-04-24T08:39:04Z</time></trkpt><trkpt lat="42.472322791554596" lon="11.488159783049618"><ele>120.66666666666667</ele><time>2026-04-24T08:39:05Z</time></trkpt><trkpt lat="42.472490307745765" lon="11.488219097388715"><ele>120.33333333333334</ele><time>2026-04-24T08:39:06Z</time></trkpt><trkpt lat="42.47265653578868" lon="11.488273860484242"><ele>120.0</ele><time>2026-04-24T08:39:07Z</time></trkpt><trkpt lat="42.47278800153613" lon="11.488322782930654"><ele>120.0</ele><time>2026-04-24T08:39:08Z</time></trkpt><trkpt lat="42.47290236148643" lon="11.488357694339156"><ele>120.0</ele><time>2026-04-24T08:39:09Z</time></trkpt><trkpt lat="42.473024461882304" lon="11.488412574443988"><ele>120.0</ele><time>2026-04-24T08:39:10.001Z</time></trkpt><trkpt lat="42.47312395911072" lon="11.488506294465093"><ele>120.0</ele><time>2026-04-24T08:39:11.001Z</time></trkpt><trkpt lat="42.47322140277566" lon="11.488629638553126"><ele>120.33333333333334</ele><time>2026-04-24T08:39:12.001Z</time></trkpt><trkpt lat="42.47332167750544" lon="11.488758925558328"><ele>120.66666666666667</ele><time>2026-04-24T08:39:13.001Z</time></trkpt><trkpt lat="42.47343989040947" lon="11.488909089019424"><ele>121.0</ele><time>2026-04-24T08:39:14.001Z</time></trkpt><trkpt lat="42.473567992311004" lon="11.489068146237532"><ele>121.0</ele><time>2026-04-24T08:39:15.001Z</time></trkpt><trkpt lat="42.47368714552427" lon="11.489212530353969"><ele>121.0</ele><time>2026-04-24T08:39:16.001Z</time></trkpt><trkpt lat="42.47380327510861" lon="11.489337983938865"><ele>121.0</ele><time>2026-04-24T08:39:17.001Z</time></trkpt><trkpt lat="42.47390839743455" lon="11.489471273790501"><ele>120.0</ele><time>2026-04-24T08:39:18.001Z</time></trkpt><trkpt lat="42.47402336738654" lon="11.48959068380617"><ele>119.0</ele><time>2026-04-24T08:39:19.001Z</time></trkpt><trkpt lat="42.474135010974294" lon="11.489664396967564"><ele>118.0</ele><time>2026-04-24T08:39:20.001Z</time></trkpt><trkpt lat="42.474258012422226" lon="11.489698952364863"><ele>117.0</ele><time>2026-04-24T08:39:21.001Z</time></trkpt><trkpt lat="42.47439973851256" lon="11.489726006430548"><ele>117.0</ele><time>2026-04-24T08:39:22.001Z</time></trkpt><trkpt lat="42.47455406458024" lon="11.489752575068223"><ele>117.0</ele><time>2026-04-24T08:39:23.001Z</time></trkpt><trkpt lat="42.474708706739285" lon="11.489796206897184"><ele>117.0</ele><time>2026-04-24T08:39:24.001Z</time></trkpt><trkpt lat="42.47485395899131" lon="11.4898511590177"><ele>116.25</ele><time>2026-04-24T08:39:25.001Z</time></trkpt><trkpt lat="42.47499013238717" lon="11.489914164503494"><ele>115.5</ele><time>2026-04-24T08:39:26.001Z</time></trkpt><trkpt lat="42.47512857350104" lon="11.489978000139393"><ele>114.75</ele><time>2026-04-24T08:39:27.001Z</time></trkpt><trkpt lat="42.47526474905518" lon="11.49004026392143"><ele>114.0</ele><time>2026-04-24T08:39:28.001Z</time></trkpt><trkpt lat="42.4754223850509" lon="11.490107329564813"><ele>115.0</ele><time>2026-04-24T08:39:29.001Z</time></trkpt><trkpt lat="42.47559419866415" lon="11.490172520299966"><ele>116.0</ele><time>2026-04-24T08:39:30.001Z</time></trkpt><trkpt lat="42.475782728337904" lon="11.490229132765432"><ele>117.0</ele><time>2026-04-24T08:39:31.001Z</time></trkpt><trkpt lat="42.47595989048175" lon="11.490283436970623"><ele>117.0</ele><time>2026-04-24T08:39:32.001Z</time></trkpt><trkpt lat="42.47612776074132" lon="11.490332971591295"><ele>117.0</ele><time>2026-04-24T08:39:33.001Z</time></trkpt><trkpt lat="42.476297268438266" lon="11.490398091219008"><ele>117.0</ele><time>2026-04-24T08:39:34.001Z</time></trkpt><trkpt lat="42.47646706955389" lon="11.490471187251988"><ele>118.33333333333334</ele><time>2026-04-24T08:39:35.001Z</time></trkpt><trkpt lat="42.476640024298874" lon="11.490535879468489"><ele>119.66666666666667</ele><time>2026-04-24T08:39:36.001Z</time></trkpt><trkpt lat="42.47681163289062" lon="11.490571285711708"><ele>121.0</ele><time>2026-04-24T08:39:37.001Z</time></trkpt><trkpt lat="42.476969804102644" lon="11.49062094214785"><ele>120.0</ele><time>2026-04-24T08:39:38.001Z</time></trkpt><trkpt lat="42.477122491614836" lon="11.490672007138134"><ele>119.0</ele><time>2026-04-24T08:39:39.001Z</time></trkpt><trkpt lat="42.47726325357265" lon="11.49072070258921"><ele>118.0</ele><time>2026-04-24T08:39:40.001Z</time></trkpt><trkpt lat="42.4773919621456" lon="11.490752275290873"><ele>117.0</ele><time>2026-04-24T08:39:41.001Z</time></trkpt><trkpt lat="42.477515370253506" lon="11.490794804037987"><ele>117.0</ele><time>2026-04-24T08:39:42.001Z</time></trkpt><trkpt lat="42.47762645261331" lon="11.490849941630543"><ele>117.0</ele><time>2026-04-24T08:39:43.001Z</time></trkpt><trkpt lat="42.47770891331921" lon="11.490923509930981"><ele>117.0</ele><time>2026-04-24T08:39:44.001Z</time></trkpt><trkpt lat="42.4777984653712" lon="11.49102818297387"><ele>117.0</ele><time>2026-04-24T08:39:45.001Z</time></trkpt><trkpt lat="42.477890443368736" lon="11.491173321820288"><ele>119.0</ele><time>2026-04-24T08:39:46.001Z</time></trkpt><trkpt lat="42.47798574728985" lon="11.491351371618514"><ele>121.0</ele><time>2026-04-24T08:39:47.001Z</time></trkpt><trkpt lat="42.47807384556633" lon="11.491526633120404"><ele>123.0</ele><time>2026-04-24T08:39:48.001Z</time></trkpt><trkpt lat="42.47817063884686" lon="11.491709422395912"><ele>123.0</ele><time>2026-04-24T08:39:49.001Z</time></trkpt><trkpt lat="42.478250792264895" lon="11.491904064974845"><ele>123.0</ele><time>2026-04-24T08:39:50.001Z</time></trkpt><trkpt lat="42.47833855333294" lon="11.492095787863267"><ele>123.0</ele><time>2026-04-24T08:39:51.001Z</time></trkpt><trkpt lat="42.47842438995515" lon="11.492278940699208"><ele>123.5</ele><time>2026-04-24T08:39:52.001Z</time></trkpt><trkpt lat="42.47851126285583" lon="11.492420942435484"><ele>124.0</ele><time>2026-04-24T08:39:53.001Z</time></trkpt><trkpt lat="42.47860296334076" lon="11.492547479296812"><ele>124.5</ele><time>2026-04-24T08:39:54.001Z</time></trkpt><trkpt lat="42.478688727962414" lon="11.492649485933855"><ele>125.0</ele><time>2026-04-24T08:39:55.001Z</time></trkpt><trkpt lat="42.47876503253587" lon="11.492743001686568"><ele>125.0</ele><time>2026-04-24T08:39:56.001Z</time></trkpt><trkpt lat="42.47881854156982" lon="11.492830455746924"><ele>125.0</ele><time>2026-04-24T08:39:57.001Z</time></trkpt><trkpt lat="42.47884365193289" lon="11.492920410462077"><ele>125.0</ele><time>2026-04-24T08:39:58.001Z</time></trkpt><trkpt lat="42.47888139136492" lon="11.49305244219547"><ele>125.0</ele><time>2026-04-24T08:39:59.001Z</time></trkpt><trkpt lat="42.4789262910027" lon="11.493216024491966"><ele>125.0</ele><time>2026-04-24T08:40:00.001Z</time></trkpt><trkpt lat="42.478961292887696" lon="11.493356170661011"><ele>125.0</ele><time>2026-04-24T08:40:01.001Z</time></trkpt><trkpt lat="42.478989800692446" lon="11.49348394547871"><ele>125.0</ele><time>2026-04-24T08:40:02.001Z</time></trkpt><trkpt lat="42.479041691915334" lon="11.49363042237004"><ele>125.0</ele><time>2026-04-24T08:40:03.001Z</time></trkpt><trkpt lat="42.479110519627284" lon="11.493781775100379"><ele>125.0</ele><time>2026-04-24T08:40:04.001Z</time></trkpt><trkpt lat="42.479187544641576" lon="11.49392436261051"><ele>125.0</ele><time>2026-04-24T08:40:05.001Z</time></trkpt><trkpt lat="42.47927580320405" lon="11.494065604093398"><ele>125.0</ele><time>2026-04-24T08:40:06.001Z</time></trkpt><trkpt lat="42.47936567549312" lon="11.494203106271925"><ele>125.0</ele><time>2026-04-24T08:40:07.001Z</time></trkpt><trkpt lat="42.47945955666049" lon="11.494350557706895"><ele>125.0</ele><time>2026-04-24T08:40:08.001Z</time></trkpt><trkpt lat="42.47954084159264" lon="11.494473251312307"><ele>125.75</ele><time>2026-04-24T08:40:09.001Z</time></trkpt><trkpt lat="42.47961758258845" lon="11.49459204838419"><ele>126.5</ele><time>2026-04-24T08:40:10.001Z</time></trkpt><trkpt lat="42.479685270728275" lon="11.494715068112043"><ele>127.25</ele><time>2026-04-24T08:40:11.001Z</time></trkpt><trkpt lat="42.47974571151342" lon="11.494860431050732"><ele>128.0</ele><time>2026-04-24T08:40:12.001Z</time></trkpt><trkpt lat="42.4797911413218" lon="11.495009058149966"><ele>128.0</ele><time>2026-04-24T08:40:13.001Z</time></trkpt><trkpt lat="42.47983204234859" lon="11.495184882239691"><ele>128.0</ele><time>2026-04-24T08:40:14.001Z</time></trkpt><trkpt lat="42.47987616113986" lon="11.49536001598254"><ele>128.0</ele><time>2026-04-24T08:40:15.001Z</time></trkpt><trkpt lat="42.47992137995311" lon="11.495531939645277"><ele>128.0</ele><time>2026-04-24T08:40:16.001Z</time></trkpt><trkpt lat="42.47996909915562" lon="11.495714865371331"><ele>128.0</ele><time>2026-04-24T08:40:17.001Z</time></trkpt><trkpt lat="42.4800109600257" lon="11.495899870725996"><ele>128.0</ele><time>2026-04-24T08:40:18.001Z</time></trkpt><trkpt lat="42.48003916523509" lon="11.496062022749452"><ele>128.0</ele><time>2026-04-24T08:40:19.001Z</time></trkpt><trkpt lat="42.48006426045511" lon="11.49620133128118"><ele>128.0</ele><time>2026-04-24T08:40:20.001Z</time></trkpt><trkpt lat="42.48009209818938" lon="11.496299186465581"><ele>128.0</ele><time>2026-04-24T08:40:21.001Z</time></trkpt><trkpt lat="42.480128887221305" lon="11.496370738437932"><ele>127.99999999999999</ele><time>2026-04-24T08:40:22.001Z</time></trkpt><trkpt lat="42.480162212290686" lon="11.4964441442192"><ele>128.0</ele><time>2026-04-24T08:40:23.001Z</time></trkpt><trkpt lat="42.4801967353536" lon="11.496554074432893"><ele>128.0</ele><time>2026-04-24T08:40:24.001Z</time></trkpt><trkpt lat="42.48020133501712" lon="11.496701039201305"><ele>128.0</ele><time>2026-04-24T08:40:25.001Z</time></trkpt><trkpt lat="42.48018556620592" lon="11.496836769302252"><ele>127.99999999999999</ele><time>2026-04-24T08:40:26.001Z</time></trkpt><trkpt lat="42.48015250709238" lon="11.496926823451735"><ele>128.0</ele><time>2026-04-24T08:40:27.002Z</time></trkpt><trkpt lat="42.48008822509103" lon="11.496994247679881"><ele>129.0</ele><time>2026-04-24T08:40:28.002Z</time></trkpt><trkpt lat="42.48001513595827" lon="11.4971151756198"><ele>130.0</ele><time>2026-04-24T08:40:29.002Z</time></trkpt><trkpt lat="42.47996464896186" lon="11.497219461596355"><ele>131.0</ele><time>2026-04-24T08:40:30.002Z</time></trkpt><trkpt lat="42.47993623972926" lon="11.497342756885766"><ele>132.0</ele><time>2026-04-24T08:40:31.002Z</time></trkpt><trkpt lat="42.47990594673412" lon="11.497466756294061"><ele>133.0</ele><time>2026-04-24T08:40:32.002Z</time></trkpt><trkpt lat="42.47987460568045" lon="11.497607496259938"><ele>133.0</ele><time>2026-04-24T08:40:33.002Z</time></trkpt><trkpt lat="42.479837822617725" lon="11.497733591577614"><ele>133.0</ele><time>2026-04-24T08:40:34.002Z</time></trkpt><trkpt lat="42.4798175915271" lon="11.497847908552215"><ele>133.0</ele><time>2026-04-24T08:40:35.002Z</time></trkpt><trkpt lat="42.4798067699044" lon="11.497954608544575"><ele>133.0</ele><time>2026-04-24T08:40:36.002Z</time></trkpt><trkpt lat="42.47979906679038" lon="11.498084902751994"><ele>133.0</ele><time>2026-04-24T08:40:37.002Z</time></trkpt><trkpt lat="42.47978645618559" lon="11.498204603646029"><ele>134.0</ele><time>2026-04-24T08:40:38.002Z</time></trkpt><trkpt lat="42.47978696441027" lon="11.498293356881387"><ele>135.0</ele><time>2026-04-24T08:40:39.002Z</time></trkpt><trkpt lat="42.47983911936176" lon="11.498443536709832"><ele>136.0</ele><time>2026-04-24T08:40:41.002Z</time></trkpt><trkpt lat="42.479876187343045" lon="11.498531750369493"><ele>137.0</ele><time>2026-04-24T08:40:42.002Z</time></trkpt><trkpt lat="42.47991082125201" lon="11.498620249880911"><ele>138.0</ele><time>2026-04-24T08:40:43.002Z</time></trkpt><trkpt lat="42.47993537244013" lon="11.498709865474908"><ele>139.0</ele><time>2026-04-24T08:40:44.002Z</time></trkpt><trkpt lat="42.47997377633639" lon="11.498865571004053"><ele>139.25</ele><time>2026-04-24T08:40:46.002Z</time></trkpt><trkpt lat="42.480052450176025" lon="11.499003722037765"><ele>139.5</ele><time>2026-04-24T08:40:48.002Z</time></trkpt><trkpt lat="42.480163195917" lon="11.499123437905752"><ele>139.75</ele><time>2026-04-24T08:40:49.002Z</time></trkpt><trkpt lat="42.48027068116216" lon="11.499221895433328"><ele>140.0</ele><time>2026-04-24T08:40:50.002Z</time></trkpt><trkpt lat="42.480352872502145" lon="11.499294633493683"><ele>140.0</ele><time>2026-04-24T08:40:51.002Z</time></trkpt><trkpt lat="42.48042138487716" lon="11.499352375898209"><ele>140.0</ele><time>2026-04-24T08:40:52.002Z</time></trkpt><trkpt lat="42.480496967233776" lon="11.499434971575747"><ele>140.0</ele><time>2026-04-24T08:40:53.002Z</time></trkpt><trkpt lat="42.480573182290286" lon="11.499537257214735"><ele>140.0</ele><time>2026-04-24T08:40:54.002Z</time></trkpt><trkpt lat="42.48065736528499" lon="11.4996439645805"><ele>140.0</ele><time>2026-04-24T08:40:55.002Z</time></trkpt><trkpt lat="42.48073923682981" lon="11.499765467771237"><ele>142.25</ele><time>2026-04-24T08:40:56.002Z</time></trkpt><trkpt lat="42.48082638598693" lon="11.499885795341228"><ele>144.5</ele><time>2026-04-24T08:40:57.002Z</time></trkpt><trkpt lat="42.48091325685053" lon="11.500019902044476"><ele>146.75</ele><time>2026-04-24T08:40:58.002Z</time></trkpt><trkpt lat="42.4810008764858" lon="11.500133447914491"><ele>149.0</ele><time>2026-04-24T08:40:59.002Z</time></trkpt><trkpt lat="42.48107071038394" lon="11.500217590900572"><ele>149.0</ele><time>2026-04-24T08:41:00.002Z</time></trkpt><trkpt lat="42.48113279161053" lon="11.500301840563514"><ele>149.0</ele><time>2026-04-24T08:41:01.002Z</time></trkpt><trkpt lat="42.48118911474212" lon="11.500406300132225"><ele>149.0</ele><time>2026-04-24T08:41:02.002Z</time></trkpt><trkpt lat="42.481220452285065" lon="11.50050507567189"><ele>149.0</ele><time>2026-04-24T08:41:03.002Z</time></trkpt><trkpt lat="42.4812549824017" lon="11.500607919283176"><ele>149.0</ele><time>2026-04-24T08:41:04.002Z</time></trkpt><trkpt lat="42.48128299217027" lon="11.50072175290414"><ele>149.0</ele><time>2026-04-24T08:41:05.002Z</time></trkpt><trkpt lat="42.48129512583567" lon="11.500840546437262"><ele>150.0</ele><time>2026-04-24T08:41:06.002Z</time></trkpt><trkpt lat="42.481307209446754" lon="11.500978168592566"><ele>151.0</ele><time>2026-04-24T08:41:07.002Z</time></trkpt><trkpt lat="42.48133715919236" lon="11.50111443633729"><ele>152.0</ele><time>2026-04-24T08:41:08.002Z</time></trkpt><trkpt lat="42.481368419787714" lon="11.501237665244082"><ele>153.0</ele><time>2026-04-24T08:41:09.002Z</time></trkpt><trkpt lat="42.48139831340931" lon="11.501354148121461"><ele>154.0</ele><time>2026-04-24T08:41:10.002Z</time></trkpt><trkpt lat="42.48143411123838" lon="11.501469569144989"><ele>154.66666666666669</ele><time>2026-04-24T08:41:11.002Z</time></trkpt><trkpt lat="42.48146212099243" lon="11.501580293238323"><ele>155.33333333333334</ele><time>2026-04-24T08:41:12.002Z</time></trkpt><trkpt lat="42.481478691612736" lon="11.501686139038489"><ele>156.0</ele><time>2026-04-24T08:41:13.002Z</time></trkpt><trkpt lat="42.48151250417395" lon="11.501788358885626"><ele>156.66666666666666</ele><time>2026-04-24T08:41:14.002Z</time></trkpt><trkpt lat="42.48155952483045" lon="11.501852842098868"><ele>157.33333333333331</ele><time>2026-04-24T08:41:15.002Z</time></trkpt><trkpt lat="42.48162654358596" lon="11.501889101167"><ele>158.0</ele><time>2026-04-24T08:41:16.002Z</time></trkpt><trkpt lat="42.48170165765628" lon="11.501907232668813"><ele>158.0</ele><time>2026-04-24T08:41:17.002Z</time></trkpt><trkpt lat="42.48177363609115" lon="11.501917063439222"><ele>158.0</ele><time>2026-04-24T08:41:18.002Z</time></trkpt><trkpt lat="42.48183939697318" lon="11.501894360832221"><ele>158.0</ele><time>2026-04-24T08:41:19.002Z</time></trkpt><trkpt lat="42.48192293505001" lon="11.501803684090483"><ele>158.0</ele><time>2026-04-24T08:41:21.002Z</time></trkpt><trkpt lat="42.48196193007672" lon="11.501713216945099"><ele>158.0</ele><time>2026-04-24T08:41:22.002Z</time></trkpt><trkpt lat="42.48200905836827" lon="11.501594996720424"><ele>158.0</ele><time>2026-04-24T08:41:23.002Z</time></trkpt><trkpt lat="42.48204473241092" lon="11.501479193169224"><ele>158.0</ele><time>2026-04-24T08:41:24.002Z</time></trkpt><trkpt lat="42.48207609400405" lon="11.501381036005926"><ele>158.0</ele><time>2026-04-24T08:41:25.002Z</time></trkpt><trkpt lat="42.482151697024825" lon="11.501258845485332"><ele>158.0</ele><time>2026-04-24T08:41:27.002Z</time></trkpt><trkpt lat="42.48225765667477" lon="11.501227547836288"><ele>158.0</ele><time>2026-04-24T08:41:29.002Z</time></trkpt><trkpt lat="42.48231610112799" lon="11.501268321027462"><ele>158.0</ele><time>2026-04-24T08:41:30.002Z</time></trkpt><trkpt lat="42.4823704354203" lon="11.501327441712569"><ele>158.0</ele><time>2026-04-24T08:41:31.002Z</time></trkpt><trkpt lat="42.482431875741504" lon="11.501423437240165"><ele>159.0</ele><time>2026-04-24T08:41:32.002Z</time></trkpt><trkpt lat="42.482494501237845" lon="11.501540487137063"><ele>160.0</ele><time>2026-04-24T08:41:33.002Z</time></trkpt><trkpt lat="42.48254673424464" lon="11.50163315680955"><ele>161.0</ele><time>2026-04-24T08:41:34.002Z</time></trkpt><trkpt lat="42.482600345325565" lon="11.501696493002273"><ele>162.0</ele><time>2026-04-24T08:41:35.002Z</time></trkpt><trkpt lat="42.482658849587715" lon="11.501749656237513"><ele>163.0</ele><time>2026-04-24T08:41:36.002Z</time></trkpt><trkpt lat="42.482717749482816" lon="11.501782134693991"><ele>164.0</ele><time>2026-04-24T08:41:37.002Z</time></trkpt><trkpt lat="42.482790528041484" lon="11.501808873052271"><ele>164.0</ele><time>2026-04-24T08:41:38.003Z</time></trkpt><trkpt lat="42.48287503241195" lon="11.501853558614735"><ele>164.0</ele><time>2026-04-24T08:41:39.003Z</time></trkpt><trkpt lat="42.48293848329615" lon="11.501888721003722"><ele>164.0</ele><time>2026-04-24T08:41:40.003Z</time></trkpt><trkpt lat="42.48300681983765" lon="11.501997861979762"><ele>164.0</ele><time>2026-04-24T08:42:00.003Z</time></trkpt><trkpt lat="42.48308913817657" lon="11.502104685375205"><ele>164.0</ele><time>2026-04-24T08:42:02.003Z</time></trkpt><trkpt lat="42.483155079908556" lon="11.502226813380451"><ele>165.6</ele><time>2026-04-24T08:42:04.003Z</time></trkpt><trkpt lat="42.48316315695948" lon="11.502377111554782"><ele>167.2</ele><time>2026-04-24T08:42:06.003Z</time></trkpt><trkpt lat="42.48317105082508" lon="11.502480883020302"><ele>168.79999999999998</ele><time>2026-04-24T08:42:07.003Z</time></trkpt><trkpt lat="42.48320118832433" lon="11.502593129080783"><ele>170.39999999999998</ele><time>2026-04-24T08:42:08.003Z</time></trkpt><trkpt lat="42.48324270069421" lon="11.5027090051445"><ele>172.0</ele><time>2026-04-24T08:42:09.003Z</time></trkpt><trkpt lat="42.483283217341565" lon="11.502804162647621"><ele>172.0</ele><time>2026-04-24T08:42:10.003Z</time></trkpt><trkpt lat="42.48333419104689" lon="11.502908625311175"><ele>172.0</ele><time>2026-04-24T08:42:11.003Z</time></trkpt><trkpt lat="42.48338503709064" lon="11.502994419010836"><ele>172.0</ele><time>2026-04-24T08:42:12.003Z</time></trkpt><trkpt lat="42.483451589810535" lon="11.503067393418418"><ele>172.0</ele><time>2026-04-24T08:42:13.003Z</time></trkpt><trkpt lat="42.483512786932934" lon="11.503119573620884"><ele>172.0</ele><time>2026-04-24T08:42:14.003Z</time></trkpt><trkpt lat="42.48358532290454" lon="11.503202168562565"><ele>172.0</ele><time>2026-04-24T08:42:16.003Z</time></trkpt><trkpt lat="42.4836410478073" lon="11.50331859652017"><ele>173.0</ele><time>2026-04-24T08:42:18.003Z</time></trkpt><trkpt lat="42.483686102043514" lon="11.503400189448007"><ele>174.0</ele><time>2026-04-24T08:42:19.003Z</time></trkpt><trkpt lat="42.48374021349921" lon="11.5034914404946"><ele>175.0</ele><time>2026-04-24T08:42:20.003Z</time></trkpt><trkpt lat="42.4838118429226" lon="11.503578561624735"><ele>176.0</ele><time>2026-04-24T08:42:21.003Z</time></trkpt><trkpt lat="42.48391782332737" lon="11.503664964489865"><ele>177.0</ele><time>2026-04-24T08:42:22.003Z</time></trkpt><trkpt lat="42.484025890486365" lon="11.50375158518845"><ele>179.2</ele><time>2026-04-24T08:42:23.003Z</time></trkpt><trkpt lat="42.48412152741342" lon="11.50383180355152"><ele>181.39999999999998</ele><time>2026-04-24T08:42:24.003Z</time></trkpt><trkpt lat="42.484211583850744" lon="11.50390050906075"><ele>183.60000000000002</ele><time>2026-04-24T08:42:25.003Z</time></trkpt><trkpt lat="42.48428052666098" lon="11.50398031164226"><ele>185.8</ele><time>2026-04-24T08:42:26.003Z</time></trkpt><trkpt lat="42.484365940685244" lon="11.504097548419056"><ele>188.0</ele><time>2026-04-24T08:42:27.003Z</time></trkpt><trkpt lat="42.48440917511677" lon="11.504190365448856"><ele>188.0</ele><time>2026-04-24T08:42:28.003Z</time></trkpt><trkpt lat="42.484446391928216" lon="11.50428945166057"><ele>188.0</ele><time>2026-04-24T08:42:29.003Z</time></trkpt><trkpt lat="42.484474728771076" lon="11.50438200206023"><ele>188.0</ele><time>2026-04-24T08:42:30.003Z</time></trkpt><trkpt lat="42.48450166971075" lon="11.50449011812799"><ele>188.0</ele><time>2026-04-24T08:42:31.003Z</time></trkpt><trkpt lat="42.484547883587545" lon="11.504638123291443"><ele>188.0</ele><time>2026-04-24T08:42:32.003Z</time></trkpt><trkpt lat="42.48461620857186" lon="11.504812623071192"><ele>188.0</ele><time>2026-04-24T08:42:33.003Z</time></trkpt><trkpt lat="42.484688197646335" lon="11.50499993696052"><ele>188.0</ele><time>2026-04-24T08:42:34.003Z</time></trkpt><trkpt lat="42.48475085940643" lon="11.505172843571895"><ele>188.0</ele><time>2026-04-24T08:42:35.003Z</time></trkpt><trkpt lat="42.48480279803287" lon="11.505329958330769"><ele>188.0</ele><time>2026-04-24T08:42:36.003Z</time></trkpt><trkpt lat="42.48486455521444" lon="11.505478173344962"><ele>189.2</ele><time>2026-04-24T08:42:37.003Z</time></trkpt><trkpt lat="42.48492967015464" lon="11.505601551023378"><ele>190.4</ele><time>2026-04-24T08:42:38.003Z</time></trkpt><trkpt lat="42.48499937021108" lon="11.50574081646074"><ele>191.6</ele><time>2026-04-24T08:42:39.003Z</time></trkpt><trkpt lat="42.48505919167257" lon="11.505872047812726"><ele>192.79999999999998</ele><time>2026-04-24T08:42:40.003Z</time></trkpt><trkpt lat="42.485123485964294" lon="11.50597183775227"><ele>194.0</ele><time>2026-04-24T08:42:41.003Z</time></trkpt><trkpt lat="42.48519537023041" lon="11.506047576822613"><ele>194.00000000000003</ele><time>2026-04-24T08:42:42.003Z</time></trkpt><trkpt lat="42.48527620463815" lon="11.506080308101774"><ele>194.0</ele><time>2026-04-24T08:42:43.003Z</time></trkpt><trkpt lat="42.485361325302065" lon="11.506090945311323"><ele>194.0</ele><time>2026-04-24T08:42:44.003Z</time></trkpt><trkpt lat="42.48544987039735" lon="11.506072685084039"><ele>194.0</ele><time>2026-04-24T08:42:45.003Z</time></trkpt><trkpt lat="42.48553226332026" lon="11.506065878244378"><ele>194.00000000000003</ele><time>2026-04-24T08:42:46.003Z</time></trkpt><trkpt lat="42.48560766928405" lon="11.506093184685094"><ele>194.0</ele><time>2026-04-24T08:42:47.003Z</time></trkpt><trkpt lat="42.48567597420113" lon="11.506165793773194"><ele>194.39999999999998</ele><time>2026-04-24T08:42:48.003Z</time></trkpt><trkpt lat="42.48574681909062" lon="11.506266059022003"><ele>194.8</ele><time>2026-04-24T08:42:49.003Z</time></trkpt><trkpt lat="42.485819383339134" lon="11.50635119699649"><ele>195.2</ele><time>2026-04-24T08:42:50.004Z</time></trkpt><trkpt lat="42.485878448192004" lon="11.506433114857714"><ele>195.60000000000002</ele><time>2026-04-24T08:42:51.004Z</time></trkpt><trkpt lat="42.4859136449038" lon="11.506529941138453"><ele>196.0</ele><time>2026-04-24T08:42:52.004Z</time></trkpt><trkpt lat="42.48593532601798" lon="11.506644404409869"><ele>196.0</ele><time>2026-04-24T08:42:53.004Z</time></trkpt><trkpt lat="42.485935035470526" lon="11.506785627633212"><ele>196.0</ele><time>2026-04-24T08:42:54.004Z</time></trkpt><trkpt lat="42.485898040834115" lon="11.506913224966496"><ele>196.0</ele><time>2026-04-24T08:42:55.004Z</time></trkpt><trkpt lat="42.48585234844553" lon="11.507038586293563"><ele>196.0</ele><time>2026-04-24T08:42:56.004Z</time></trkpt><trkpt lat="42.48581668229083" lon="11.507161230965732"><ele>196.0</ele><time>2026-04-24T08:42:57.004Z</time></trkpt><trkpt lat="42.48581270248796" lon="11.50724787906385"><ele>196.4</ele><time>2026-04-24T08:42:58.004Z</time></trkpt><trkpt lat="42.48589208106275" lon="11.50741059962332"><ele>196.8</ele><time>2026-04-24T08:43:00.004Z</time></trkpt><trkpt lat="42.48594456646742" lon="11.507485266633367"><ele>197.20000000000002</ele><time>2026-04-24T08:43:01.004Z</time></trkpt><trkpt lat="42.48601145054116" lon="11.507539959181093"><ele>197.60000000000002</ele><time>2026-04-24T08:43:02.004Z</time></trkpt><trkpt lat="42.4860909785661" lon="11.507569695610352"><ele>198.0</ele><time>2026-04-24T08:43:03.004Z</time></trkpt><trkpt lat="42.486171910355274" lon="11.507610831598098"><ele>199.4</ele><time>2026-04-24T08:43:04.004Z</time></trkpt><trkpt lat="42.48626711677897" lon="11.507657441057129"><ele>200.8</ele><time>2026-04-24T08:43:05.004Z</time></trkpt><trkpt lat="42.48635081443388" lon="11.507715940126227"><ele>202.2</ele><time>2026-04-24T08:43:06.004Z</time></trkpt><trkpt lat="42.4864697015938" lon="11.507757465063172"><ele>203.6</ele><time>2026-04-24T08:43:07.004Z</time></trkpt><trkpt lat="42.486567138121835" lon="11.507785236110434"><ele>205.0</ele><time>2026-04-24T08:43:08.004Z</time></trkpt><trkpt lat="42.48665934462056" lon="11.507776965918165"><ele>205.0</ele><time>2026-04-24T08:43:09.004Z</time></trkpt><trkpt lat="42.48674854222307" lon="11.507765831951344"><ele>205.0</ele><time>2026-04-24T08:43:10.004Z</time></trkpt><trkpt lat="42.48682794539805" lon="11.507766797832428"><ele>205.0</ele><time>2026-04-24T08:43:11.004Z</time></trkpt><trkpt lat="42.48691702169882" lon="11.507894397733248"><ele>205.0</ele><time>2026-04-24T08:43:13.004Z</time></trkpt><trkpt lat="42.48695640028809" lon="11.508012022147335"><ele>205.0</ele><time>2026-04-24T08:43:14.004Z</time></trkpt><trkpt lat="42.48698176439652" lon="11.508149665819275"><ele>205.66666666666666</ele><time>2026-04-24T08:43:15.004Z</time></trkpt><trkpt lat="42.48701211885575" lon="11.508249735771118"><ele>206.33333333333331</ele><time>2026-04-24T08:43:16.004Z</time></trkpt><trkpt lat="42.48706188271509" lon="11.50833088378408"><ele>207.0</ele><time>2026-04-24T08:43:17.004Z</time></trkpt><trkpt lat="42.487131865466516" lon="11.508377035077107"><ele>207.66666666666669</ele><time>2026-04-24T08:43:18.004Z</time></trkpt><trkpt lat="42.48721664734488" lon="11.50841380345783"><ele>208.33333333333334</ele><time>2026-04-24T08:43:19.004Z</time></trkpt><trkpt lat="42.487302229076136" lon="11.508463413306917"><ele>209.0</ele><time>2026-04-24T08:43:20.004Z</time></trkpt><trkpt lat="42.487411319836966" lon="11.508504827771723"><ele>209.79999999999998</ele><time>2026-04-24T08:43:21.004Z</time></trkpt><trkpt lat="42.48752639309272" lon="11.508535359534829"><ele>210.6</ele><time>2026-04-24T08:43:22.004Z</time></trkpt><trkpt lat="42.487622025576115" lon="11.508571160679002"><ele>211.4</ele><time>2026-04-24T08:43:23.004Z</time></trkpt><trkpt lat="42.487696507059056" lon="11.508606005057532"><ele>212.2</ele><time>2026-04-24T08:43:24.004Z</time></trkpt><trkpt lat="42.487772086984144" lon="11.508686132078509"><ele>213.0</ele><time>2026-04-24T08:43:25.004Z</time></trkpt><trkpt lat="42.487858794550974" lon="11.508811144050465"><ele>214.2</ele><time>2026-04-24T08:43:26.004Z</time></trkpt><trkpt lat="42.48793618892571" lon="11.508949584744313"><ele>215.4</ele><time>2026-04-24T08:43:27.004Z</time></trkpt><trkpt lat="42.488006625370765" lon="11.509061710576402"><ele>216.59999999999997</ele><time>2026-04-24T08:43:28.004Z</time></trkpt><trkpt lat="42.488080767354994" lon="11.50914807416618"><ele>217.79999999999998</ele><time>2026-04-24T08:43:29.004Z</time></trkpt><trkpt lat="42.48817188745659" lon="11.509221637601046"><ele>219.0</ele><time>2026-04-24T08:43:30.004Z</time></trkpt><trkpt lat="42.48827830167424" lon="11.509298445914059"><ele>219.0</ele><time>2026-04-24T08:43:31.004Z</time></trkpt><trkpt lat="42.48838685572448" lon="11.509387792766022"><ele>219.0</ele><time>2026-04-24T08:43:32.004Z</time></trkpt><trkpt lat="42.48848366664677" lon="11.50948642181959"><ele>219.0</ele><time>2026-04-24T08:43:33.004Z</time></trkpt><trkpt lat="42.48857184710379" lon="11.509575046835765"><ele>219.0</ele><time>2026-04-24T08:43:34.004Z</time></trkpt><trkpt lat="42.488659865308975" lon="11.50965085064777"><ele>220.5</ele><time>2026-04-24T08:43:35.004Z</time></trkpt><trkpt lat="42.48876579092017" lon="11.509714789940572"><ele>222.0</ele><time>2026-04-24T08:43:36.004Z</time></trkpt><trkpt lat="42.48886852677078" lon="11.50979149828067"><ele>223.5</ele><time>2026-04-24T08:43:37.004Z</time></trkpt><trkpt lat="42.48896503790468" lon="11.509875682975494"><ele>225.0</ele><time>2026-04-24T08:43:38.004Z</time></trkpt><trkpt lat="42.48905626782648" lon="11.50997621096137"><ele>225.0</ele><time>2026-04-24T08:43:39.004Z</time></trkpt><trkpt lat="42.489134091549346" lon="11.510069976652966"><ele>225.0</ele><time>2026-04-24T08:43:40.004Z</time></trkpt><trkpt lat="42.48920086466024" lon="11.510154043934325"><ele>225.0</ele><time>2026-04-24T08:43:41.004Z</time></trkpt><trkpt lat="42.48926417979992" lon="11.510228534888777"><ele>225.0</ele><time>2026-04-24T08:43:42.004Z</time></trkpt><trkpt lat="42.48931061792964" lon="11.510326139217671"><ele>225.0</ele><time>2026-04-24T08:43:43.004Z</time></trkpt><trkpt lat="42.48935430245587" lon="11.510462037394461"><ele>224.0</ele><time>2026-04-24T08:43:44.004Z</time></trkpt><trkpt lat="42.48940718446406" lon="11.51061201545307"><ele>223.0</ele><time>2026-04-24T08:43:45.004Z</time></trkpt><trkpt lat="42.48946610099253" lon="11.510765548765772"><ele>222.0</ele><time>2026-04-24T08:43:46.004Z</time></trkpt><trkpt lat="42.4895313417212" lon="11.510916643308967"><ele>221.0</ele><time>2026-04-24T08:43:47.004Z</time></trkpt><trkpt lat="42.48960938975954" lon="11.511060303178597"><ele>218.5</ele><time>2026-04-24T08:43:48.004Z</time></trkpt><trkpt lat="42.48968919755544" lon="11.511202536844694"><ele>216.0</ele><time>2026-04-24T08:43:49.004Z</time></trkpt><trkpt lat="42.48978866609683" lon="11.511348315755242"><ele>213.5</ele><time>2026-04-24T08:43:50.004Z</time></trkpt><trkpt lat="42.489875495591036" lon="11.511480968578134"><ele>211.0</ele><time>2026-04-24T08:43:51.004Z</time></trkpt><trkpt lat="42.48993372229982" lon="11.5116009096712"><ele>211.0</ele><time>2026-04-24T08:43:52.004Z</time></trkpt><trkpt lat="42.48998231417148" lon="11.51171729878904"><ele>211.0</ele><time>2026-04-24T08:43:53.004Z</time></trkpt><trkpt lat="42.49003495314002" lon="11.511837455929939"><ele>211.0</ele><time>2026-04-24T08:43:54.004Z</time></trkpt><trkpt lat="42.49011111270484" lon="11.511954350949066"><ele>211.0</ele><time>2026-04-24T08:43:55.004Z</time></trkpt><trkpt lat="42.490180251808745" lon="11.512033355444547"><ele>211.0</ele><time>2026-04-24T08:43:56.004Z</time></trkpt><trkpt lat="42.490240616102746" lon="11.512111882135628"><ele>210.0</ele><time>2026-04-24T08:43:57.004Z</time></trkpt><trkpt lat="42.49031586361999" lon="11.512168779060568"><ele>209.0</ele><time>2026-04-24T08:43:58.004Z</time></trkpt><trkpt lat="42.49039883549005" lon="11.512200214850216"><ele>208.0</ele><time>2026-04-24T08:43:59.004Z</time></trkpt><trkpt lat="42.490490923752276" lon="11.512206821346384"><ele>207.0</ele><time>2026-04-24T08:44:00.004Z</time></trkpt><trkpt lat="42.490587350845686" lon="11.512208959933009"><ele>206.0</ele><time>2026-04-24T08:44:01.005Z</time></trkpt><trkpt lat="42.490680409171546" lon="11.51220663367742"><ele>206.0</ele><time>2026-04-24T08:44:02.005Z</time></trkpt><trkpt lat="42.4907690005327" lon="11.512189659204989"><ele>206.0</ele><time>2026-04-24T08:44:03.005Z</time></trkpt><trkpt lat="42.49085373667968" lon="11.512185415417878"><ele>206.0</ele><time>2026-04-24T08:44:04.005Z</time></trkpt><trkpt lat="42.49093067791777" lon="11.512195274161584"><ele>206.0</ele><time>2026-04-24T08:44:05.005Z</time></trkpt><trkpt lat="42.4910237785678" lon="11.512224627079545"><ele>206.0</ele><time>2026-04-24T08:44:06.005Z</time></trkpt><trkpt lat="42.49113771384065" lon="11.512250786873246"><ele>206.5</ele><time>2026-04-24T08:44:07.005Z</time></trkpt><trkpt lat="42.49127097947781" lon="11.512264594480298"><ele>207.0</ele><time>2026-04-24T08:44:08.005Z</time></trkpt><trkpt lat="42.49141539182664" lon="11.512285299395693"><ele>207.5</ele><time>2026-04-24T08:44:09.005Z</time></trkpt><trkpt lat="42.4915493425887" lon="11.512290641652754"><ele>208.0</ele><time>2026-04-24T08:44:10.005Z</time></trkpt><trkpt lat="42.4916696114379" lon="11.5123067417235"><ele>208.0</ele><time>2026-04-24T08:44:11.005Z</time></trkpt><trkpt lat="42.49177193563918" lon="11.512319952769285"><ele>208.0</ele><time>2026-04-24T08:44:12.005Z</time></trkpt><trkpt lat="42.491854825862575" lon="11.512356945671327"><ele>208.0</ele><time>2026-04-24T08:44:13.005Z</time></trkpt><trkpt lat="42.4919318351062" lon="11.512406690433266"><ele>208.0</ele><time>2026-04-24T08:44:14.005Z</time></trkpt><trkpt lat="42.492006666753944" lon="11.512470109904807"><ele>208.0</ele><time>2026-04-24T08:44:15.005Z</time></trkpt><trkpt lat="42.49211227156279" lon="11.512528845729209"><ele>209.25</ele><time>2026-04-24T08:44:16.005Z</time></trkpt><trkpt lat="42.492227166653336" lon="11.512557531983576"><ele>210.5</ele><time>2026-04-24T08:44:17.005Z</time></trkpt><trkpt lat="42.49234360729845" lon="11.51257582247849"><ele>211.75</ele><time>2026-04-24T08:44:18.005Z</time></trkpt><trkpt lat="42.492471020277996" lon="11.51258493037641"><ele>213.0</ele><time>2026-04-24T08:44:19.005Z</time></trkpt><trkpt lat="42.49259485199919" lon="11.512605877902715"><ele>213.0</ele><time>2026-04-24T08:44:20.005Z</time></trkpt><trkpt lat="42.49270169161837" lon="11.512623850012233"><ele>213.0</ele><time>2026-04-24T08:44:21.005Z</time></trkpt><trkpt lat="42.49279605748658" lon="11.512643979942034"><ele>213.0</ele><time>2026-04-24T08:44:22.005Z</time></trkpt><trkpt lat="42.49287350056771" lon="11.512667512690328"><ele>213.0</ele><time>2026-04-24T08:44:23.005Z</time></trkpt><trkpt lat="42.4929574629288" lon="11.512710184399573"><ele>213.0</ele><time>2026-04-24T08:44:24.005Z</time></trkpt><trkpt lat="42.493053156243256" lon="11.512768102652618"><ele>213.5</ele><time>2026-04-24T08:44:25.005Z</time></trkpt><trkpt lat="42.49315918570263" lon="11.512846099391055"><ele>214.0</ele><time>2026-04-24T08:44:26.005Z</time></trkpt><trkpt lat="42.49327079442205" lon="11.512921542927494"><ele>214.5</ele><time>2026-04-24T08:44:27.005Z</time></trkpt><trkpt lat="42.493384708695906" lon="11.512990278469847"><ele>215.0</ele><time>2026-04-24T08:44:28.005Z</time></trkpt><trkpt lat="42.49346569888699" lon="11.5130402934233"><ele>215.6</ele><time>2026-04-24T08:44:29.005Z</time></trkpt><trkpt lat="42.493537086127176" lon="11.513089800336404"><ele>216.2</ele><time>2026-04-24T08:44:30.005Z</time></trkpt><trkpt lat="42.49361079533262" lon="11.51315691339665"><ele>216.8</ele><time>2026-04-24T08:44:31.005Z</time></trkpt><trkpt lat="42.49367401890641" lon="11.513250956747715"><ele>217.4</ele><time>2026-04-24T08:44:32.005Z</time></trkpt><trkpt lat="42.493755251650725" lon="11.51334111546499"><ele>218.0</ele><time>2026-04-24T08:44:33.005Z</time></trkpt><trkpt lat="42.49385103700117" lon="11.513445844687883"><ele>218.0</ele><time>2026-04-24T08:44:34.005Z</time></trkpt><trkpt lat="42.49395209600733" lon="11.513554914389132"><ele>218.0</ele><time>2026-04-24T08:44:35.005Z</time></trkpt><trkpt lat="42.49403839264386" lon="11.513661523513722"><ele>218.0</ele><time>2026-04-24T08:44:36.005Z</time></trkpt><trkpt lat="42.494127550373534" lon="11.513764188924107"><ele>218.0</ele><time>2026-04-24T08:44:37.005Z</time></trkpt><trkpt lat="42.49421260074069" lon="11.513868220078315"><ele>219.0</ele><time>2026-04-24T08:44:38.005Z</time></trkpt><trkpt lat="42.49430243550482" lon="11.513967608261655"><ele>220.0</ele><time>2026-04-24T08:44:39.005Z</time></trkpt><trkpt lat="42.494389972944674" lon="11.514072070941136"><ele>221.0</ele><time>2026-04-24T08:44:40.005Z</time></trkpt><trkpt lat="42.494486912104854" lon="11.514164610763851"><ele>222.0</ele><time>2026-04-24T08:44:41.005Z</time></trkpt><trkpt lat="42.49457669131389" lon="11.514248587443603"><ele>221.39999999999998</ele><time>2026-04-24T08:44:42.005Z</time></trkpt><trkpt lat="42.49467181870984" lon="11.514331351133306"><ele>220.79999999999998</ele><time>2026-04-24T08:44:43.005Z</time></trkpt><trkpt lat="42.49475713110205" lon="11.514415430722218"><ele>220.2</ele><time>2026-04-24T08:44:44.005Z</time></trkpt><trkpt lat="42.49484043802591" lon="11.51448217593205"><ele>219.6</ele><time>2026-04-24T08:44:45.005Z</time></trkpt><trkpt lat="42.49490926413455" lon="11.514547969141677"><ele>219.0</ele><time>2026-04-24T08:44:46.005Z</time></trkpt><trkpt lat="42.49496416598941" lon="11.514630086290873"><ele>219.0</ele><time>2026-04-24T08:44:47.005Z</time></trkpt><trkpt lat="42.495031454436024" lon="11.514678531413042"><ele>219.0</ele><time>2026-04-24T08:44:48.005Z</time></trkpt><trkpt lat="42.495108452406775" lon="11.514719971028082"><ele>219.0</ele><time>2026-04-24T08:44:49.005Z</time></trkpt><trkpt lat="42.49518314586415" lon="11.51474097438407"><ele>219.0</ele><time>2026-04-24T08:44:50.005Z</time></trkpt><trkpt lat="42.4952439104431" lon="11.514788874576036"><ele>219.0</ele><time>2026-04-24T08:44:51.005Z</time></trkpt><trkpt lat="42.4953204656214" lon="11.514811036052476"><ele>219.0</ele><time>2026-04-24T08:44:52.005Z</time></trkpt><trkpt lat="42.495405491024606" lon="11.514836190624182"><ele>219.75</ele><time>2026-04-24T08:44:53.005Z</time></trkpt><trkpt lat="42.495490465394" lon="11.514867258637421"><ele>220.5</ele><time>2026-04-24T08:44:54.005Z</time></trkpt><trkpt lat="42.49558660171773" lon="11.5149277258693"><ele>221.25</ele><time>2026-04-24T08:44:55.005Z</time></trkpt><trkpt lat="42.49570629890517" lon="11.51501273281202"><ele>222.0</ele><time>2026-04-24T08:44:56.005Z</time></trkpt><trkpt lat="42.49582473546604" lon="11.51508086519038"><ele>222.0</ele><time>2026-04-24T08:44:57.005Z</time></trkpt><trkpt lat="42.49592265548402" lon="11.515150069671058"><ele>222.0</ele><time>2026-04-24T08:44:58.005Z</time></trkpt><trkpt lat="42.496026019823226" lon="11.515208951951573"><ele>222.0</ele><time>2026-04-24T08:44:59.005Z</time></trkpt><trkpt lat="42.49610704340814" lon="11.515260650190449"><ele>222.0</ele><time>2026-04-24T08:45:00.005Z</time></trkpt><trkpt lat="42.49617857829773" lon="11.515286394594895"><ele>222.0</ele><time>2026-04-24T08:45:01.005Z</time></trkpt><trkpt lat="42.49626111226217" lon="11.515284457015063"><ele>222.39999999999998</ele><time>2026-04-24T08:45:02.005Z</time></trkpt><trkpt lat="42.49634573633088" lon="11.51525246755716"><ele>222.79999999999998</ele><time>2026-04-24T08:45:03.005Z</time></trkpt><trkpt lat="42.49644058663616" lon="11.515218124055426"><ele>223.2</ele><time>2026-04-24T08:45:04.005Z</time></trkpt><trkpt lat="42.49654452161" lon="11.515184625428509"><ele>223.6</ele><time>2026-04-24T08:45:05.005Z</time></trkpt><trkpt lat="42.496656771303876" lon="11.515140384003228"><ele>224.0</ele><time>2026-04-24T08:45:06.005Z</time></trkpt><trkpt lat="42.49677670446242" lon="11.515132493676367"><ele>224.0</ele><time>2026-04-24T08:45:07.005Z</time></trkpt><trkpt lat="42.49689946829796" lon="11.515119059441634"><ele>224.0</ele><time>2026-04-24T08:45:08.005Z</time></trkpt><trkpt lat="42.497033881785484" lon="11.515107846114644"><ele>224.0</ele><time>2026-04-24T08:45:09.005Z</time></trkpt><trkpt lat="42.4971649494529" lon="11.51512005371644"><ele>224.0</ele><time>2026-04-24T08:45:10.005Z</time></trkpt><trkpt lat="42.49728133333629" lon="11.515107977243687"><ele>224.5</ele><time>2026-04-24T08:45:11.005Z</time></trkpt><trkpt lat="42.49740446383369" lon="11.515072940643009"><ele>225.0</ele><time>2026-04-24T08:45:12.005Z</time></trkpt><trkpt lat="42.497531850252685" lon="11.515023839058248"><ele>225.5</ele><time>2026-04-24T08:45:13.006Z</time></trkpt><trkpt lat="42.497655174823294" lon="11.514968893221369"><ele>226.0</ele><time>2026-04-24T08:45:14.006Z</time></trkpt><trkpt lat="42.497763941670776" lon="11.514921907864375"><ele>225.99999999999997</ele><time>2026-04-24T08:45:15.006Z</time></trkpt><trkpt lat="42.497856871436014" lon="11.51487425158616"><ele>226.0</ele><time>2026-04-24T08:45:16.006Z</time></trkpt><trkpt lat="42.49792775218308" lon="11.514845483124198"><ele>226.0</ele><time>2026-04-24T08:45:17.006Z</time></trkpt><trkpt lat="42.498001288378276" lon="11.514854555534184"><ele>226.0</ele><time>2026-04-24T08:45:18.006Z</time></trkpt><trkpt lat="42.498085895301536" lon="11.514875390292687"><ele>225.99999999999997</ele><time>2026-04-24T08:45:19.006Z</time></trkpt><trkpt lat="42.49818269354828" lon="11.514913335914715"><ele>226.0</ele><time>2026-04-24T08:45:20.006Z</time></trkpt><trkpt lat="42.498287670872095" lon="11.514940107189373"><ele>227.25</ele><time>2026-04-24T08:45:21.006Z</time></trkpt><trkpt lat="42.498407202075924" lon="11.514955007966657"><ele>228.5</ele><time>2026-04-24T08:45:22.006Z</time></trkpt><trkpt lat="42.49853973215092" lon="11.51495715095174"><ele>229.75</ele><time>2026-04-24T08:45:23.006Z</time></trkpt><trkpt lat="42.49867979614118" lon="11.514950538677507"><ele>231.0</ele><time>2026-04-24T08:45:24.006Z</time></trkpt><trkpt lat="42.49881714570915" lon="11.514937573131114"><ele>232.0</ele><time>2026-04-24T08:45:25.006Z</time></trkpt><trkpt lat="42.498948197460216" lon="11.51492179691563"><ele>233.0</ele><time>2026-04-24T08:45:26.006Z</time></trkpt><trkpt lat="42.49907411851391" lon="11.514905714610759"><ele>234.0</ele><time>2026-04-24T08:45:27.006Z</time></trkpt><trkpt lat="42.49918870219327" lon="11.514895139655016"><ele>235.0</ele><time>2026-04-24T08:45:28.006Z</time></trkpt><trkpt lat="42.49929545909954" lon="11.514879334009699"><ele>235.0</ele><time>2026-04-24T08:45:29.006Z</time></trkpt><trkpt lat="42.499391381364646" lon="11.51488074771119"><ele>235.0</ele><time>2026-04-24T08:45:30.006Z</time></trkpt><trkpt lat="42.49948693314121" lon="11.514890265785233"><ele>235.0</ele><time>2026-04-24T08:45:31.006Z</time></trkpt><trkpt lat="42.4995997481212" lon="11.514905182629455"><ele>235.0</ele><time>2026-04-24T08:45:32.006Z</time></trkpt><trkpt lat="42.49973329176335" lon="11.514908810197888"><ele>235.0</ele><time>2026-04-24T08:45:33.006Z</time></trkpt><trkpt lat="42.49986362860938" lon="11.514913179375826"><ele>234.5</ele><time>2026-04-24T08:45:34.006Z</time></trkpt><trkpt lat="42.49999531539736" lon="11.51489731887459"><ele>234.0</ele><time>2026-04-24T08:45:35.006Z</time></trkpt><trkpt lat="42.500119797374815" lon="11.514901589726703"><ele>233.5</ele><time>2026-04-24T08:45:36.006Z</time></trkpt><trkpt lat="42.50022820624677" lon="11.514911599228542"><ele>233.0</ele><time>2026-04-24T08:45:37.006Z</time></trkpt><trkpt lat="42.5003292429621" lon="11.514923036117699"><ele>231.83333333333334</ele><time>2026-04-24T08:45:38.006Z</time></trkpt><trkpt lat="42.500423064148436" lon="11.514921453760584"><ele>230.66666666666669</ele><time>2026-04-24T08:45:39.006Z</time></trkpt><trkpt lat="42.50049994627478" lon="11.514911071608564"><ele>229.5</ele><time>2026-04-24T08:45:40.006Z</time></trkpt><trkpt lat="42.50057891765426" lon="11.514900238187144"><ele>228.33333333333331</ele><time>2026-04-24T08:45:41.006Z</time></trkpt><trkpt lat="42.500666541114555" lon="11.514880835430565"><ele>227.16666666666666</ele><time>2026-04-24T08:45:42.006Z</time></trkpt><trkpt lat="42.50076491328915" lon="11.514844860309143"><ele>226.0</ele><time>2026-04-24T08:45:43.006Z</time></trkpt><trkpt lat="42.50086912399689" lon="11.514787046184232"><ele>226.0</ele><time>2026-04-24T08:45:44.006Z</time></trkpt><trkpt lat="42.500983844021185" lon="11.514708873586942"><ele>226.0</ele><time>2026-04-24T08:45:45.006Z</time></trkpt><trkpt lat="42.50111783577372" lon="11.514651854023702"><ele>226.0</ele><time>2026-04-24T08:45:46.006Z</time></trkpt><trkpt lat="42.501242630576655" lon="11.51458800838732"><ele>226.0</ele><time>2026-04-24T08:45:47.006Z</time></trkpt><trkpt lat="42.50135612027181" lon="11.514522048090344"><ele>224.0</ele><time>2026-04-24T08:45:48.006Z</time></trkpt><trkpt lat="42.50145727393323" lon="11.514449316208072"><ele>222.0</ele><time>2026-04-24T08:45:49.006Z</time></trkpt><trkpt lat="42.50154331060042" lon="11.514359768059975"><ele>220.0</ele><time>2026-04-24T08:45:50.006Z</time></trkpt><trkpt lat="42.50165103467585" lon="11.514240031166779"><ele>218.0</ele><time>2026-04-24T08:45:51.006Z</time></trkpt><trkpt lat="42.50178742105537" lon="11.514119485495321"><ele>218.0</ele><time>2026-04-24T08:45:52.006Z</time></trkpt><trkpt lat="42.50189576879331" lon="11.513997830450794"><ele>218.0</ele><time>2026-04-24T08:45:53.006Z</time></trkpt><trkpt lat="42.50200516235054" lon="11.513889692638491"><ele>218.0</ele><time>2026-04-24T08:45:54.006Z</time></trkpt><trkpt lat="42.50208977886455" lon="11.51378243401213"><ele>218.0</ele><time>2026-04-24T08:45:55.006Z</time></trkpt><trkpt lat="42.5021724589558" lon="11.513685097676554"><ele>216.75</ele><time>2026-04-24T08:45:56.006Z</time></trkpt><trkpt lat="42.502253975287815" lon="11.513619676007519"><ele>215.5</ele><time>2026-04-24T08:45:57.006Z</time></trkpt><trkpt lat="42.50235896584441" lon="11.513551411674081"><ele>214.25</ele><time>2026-04-24T08:45:58.006Z</time></trkpt><trkpt lat="42.50247645493365" lon="11.513498577666567"><ele>213.0</ele><time>2026-04-24T08:45:59.006Z</time></trkpt><trkpt lat="42.50261178047651" lon="11.513436975330658"><ele>213.0</ele><time>2026-04-24T08:46:00.006Z</time></trkpt><trkpt lat="42.50274837601037" lon="11.513369843657957"><ele>213.0</ele><time>2026-04-24T08:46:01.006Z</time></trkpt><trkpt lat="42.502907805729805" lon="11.513292699539537"><ele>213.0</ele><time>2026-04-24T08:46:02.006Z</time></trkpt><trkpt lat="42.503045797535016" lon="11.513236279303603"><ele>211.75</ele><time>2026-04-24T08:46:03.006Z</time></trkpt><trkpt lat="42.50316900908152" lon="11.51317113932859"><ele>210.5</ele><time>2026-04-24T08:46:04.006Z</time></trkpt><trkpt lat="42.50328922880769" lon="11.513135666404086"><ele>209.25</ele><time>2026-04-24T08:46:05.006Z</time></trkpt><trkpt lat="42.5033890741266" lon="11.513094244233873"><ele>208.0</ele><time>2026-04-24T08:46:06.006Z</time></trkpt><trkpt lat="42.50348916525069" lon="11.513054931121102"><ele>207.99999999999997</ele><time>2026-04-24T08:46:07.006Z</time></trkpt><trkpt lat="42.503582357719" lon="11.51301832760477"><ele>208.0</ele><time>2026-04-24T08:46:08.006Z</time></trkpt><trkpt lat="42.50367092148096" lon="11.51298834490669"><ele>208.0</ele><time>2026-04-24T08:46:09.006Z</time></trkpt><trkpt lat="42.50375506473169" lon="11.512954961863432"><ele>208.0</ele><time>2026-04-24T08:46:11.006Z</time></trkpt><trkpt lat="42.50382410717428" lon="11.51292145273996"><ele>207.99999999999997</ele><time>2026-04-24T08:46:31.007Z</time></trkpt><trkpt lat="42.50391483786252" lon="11.512879164675777"><ele>208.0</ele><time>2026-04-24T08:46:32.007Z</time></trkpt><trkpt lat="42.50399923502592" lon="11.51282825617177"><ele>209.0</ele><time>2026-04-24T08:46:33.007Z</time></trkpt><trkpt lat="42.504123789388636" lon="11.512791485680076"><ele>210.0</ele><time>2026-04-24T08:46:34.007Z</time></trkpt><trkpt lat="42.5042344509319" lon="11.512724969857969"><ele>211.0</ele><time>2026-04-24T08:46:35.007Z</time></trkpt><trkpt lat="42.50433739373745" lon="11.512672065024706"><ele>212.0</ele><time>2026-04-24T08:46:36.007Z</time></trkpt><trkpt lat="42.50443511225166" lon="11.512616648218103"><ele>212.0</ele><time>2026-04-24T08:46:37.007Z</time></trkpt><trkpt lat="42.50452400101334" lon="11.512559633170708"><ele>212.0</ele><time>2026-04-24T08:46:38.007Z</time></trkpt><trkpt lat="42.504609453918874" lon="11.512501787502336"><ele>212.0</ele><time>2026-04-24T08:46:39.007Z</time></trkpt><trkpt lat="42.504688246667946" lon="11.512449160011839"><ele>212.0</ele><time>2026-04-24T08:46:40.007Z</time></trkpt><trkpt lat="42.504775644036236" lon="11.512402032351188"><ele>212.0</ele><time>2026-04-24T08:46:41.007Z</time></trkpt><trkpt lat="42.50487683868908" lon="11.512369531635896"><ele>212.8</ele><time>2026-04-24T08:46:42.007Z</time></trkpt><trkpt lat="42.50497993741956" lon="11.512390388972328"><ele>213.6</ele><time>2026-04-24T08:46:43.007Z</time></trkpt><trkpt lat="42.5050885522852" lon="11.512357900935198"><ele>214.40000000000003</ele><time>2026-04-24T08:46:44.007Z</time></trkpt><trkpt lat="42.5051882491522" lon="11.512336073857302"><ele>215.20000000000002</ele><time>2026-04-24T08:46:45.007Z</time></trkpt><trkpt lat="42.505284880231315" lon="11.512277234463053"><ele>216.0</ele><time>2026-04-24T08:46:46.007Z</time></trkpt><trkpt lat="42.50539230464002" lon="11.512191963849041"><ele>215.5</ele><time>2026-04-24T08:46:47.007Z</time></trkpt><trkpt lat="42.50550394094677" lon="11.512082598968824"><ele>215.0</ele><time>2026-04-24T08:46:48.007Z</time></trkpt><trkpt lat="42.50561059440749" lon="11.511973085205984"><ele>214.5</ele><time>2026-04-24T08:46:49.007Z</time></trkpt><trkpt lat="42.505702973237796" lon="11.511852192300518"><ele>214.0</ele><time>2026-04-24T08:46:50.007Z</time></trkpt><trkpt lat="42.50579459414056" lon="11.511706435169513"><ele>214.0</ele><time>2026-04-24T08:46:51.007Z</time></trkpt><trkpt lat="42.50589979825376" lon="11.511565878197231"><ele>214.0</ele><time>2026-04-24T08:46:52.007Z</time></trkpt><trkpt lat="42.506008564649214" lon="11.511425805783189"><ele>214.0</ele><time>2026-04-24T08:46:53.007Z</time></trkpt><trkpt lat="42.50611511501961" lon="11.511284968243434"><ele>214.0</ele><time>2026-04-24T08:46:54.007Z</time></trkpt><trkpt lat="42.50622028699098" lon="11.511164638885065"><ele>213.5</ele><time>2026-04-24T08:46:55.007Z</time></trkpt><trkpt lat="42.50631364899956" lon="11.511052490415395"><ele>213.0</ele><time>2026-04-24T08:46:56.007Z</time></trkpt><trkpt lat="42.50640539430972" lon="11.510934183077826"><ele>212.5</ele><time>2026-04-24T08:46:57.007Z</time></trkpt><trkpt lat="42.50650353360342" lon="11.510816458972101"><ele>212.0</ele><time>2026-04-24T08:46:58.007Z</time></trkpt><trkpt lat="42.50659677817864" lon="11.510698743943678"><ele>212.0</ele><time>2026-04-24T08:46:59.007Z</time></trkpt><trkpt lat="42.50669331002556" lon="11.5105914699091"><ele>212.0</ele><time>2026-04-24T08:47:00.007Z</time></trkpt><trkpt lat="42.5068050371387" lon="11.510482582049422"><ele>212.0</ele><time>2026-04-24T08:47:01.007Z</time></trkpt><trkpt lat="42.5069098668553" lon="11.51037702556386"><ele>212.0</ele><time>2026-04-24T08:47:02.007Z</time></trkpt><trkpt lat="42.50700012435574" lon="11.510268630477784"><ele>210.5</ele><time>2026-04-24T08:47:03.007Z</time></trkpt><trkpt lat="42.507081061177374" lon="11.510158539889963"><ele>209.0</ele><time>2026-04-24T08:47:04.007Z</time></trkpt><trkpt lat="42.50716458957769" lon="11.510036396184821"><ele>207.5</ele><time>2026-04-24T08:47:05.007Z</time></trkpt><trkpt lat="42.50724033832331" lon="11.509937135847476"><ele>206.0</ele><time>2026-04-24T08:47:06.007Z</time></trkpt><trkpt lat="42.50734257988032" lon="11.509862072974025"><ele>206.0</ele><time>2026-04-24T08:47:07.007Z</time></trkpt><trkpt lat="42.50743696420999" lon="11.50977780476471"><ele>206.0</ele><time>2026-04-24T08:47:08.007Z</time></trkpt><trkpt lat="42.50753316257493" lon="11.509729016033615"><ele>206.0</ele><time>2026-04-24T08:47:09.007Z</time></trkpt><trkpt lat="42.50762582463879" lon="11.509730482674572"><ele>206.0</ele><time>2026-04-24T08:47:10.007Z</time></trkpt><trkpt lat="42.50772471696679" lon="11.509729607043592"><ele>206.0</ele><time>2026-04-24T08:47:11.007Z</time></trkpt><trkpt lat="42.50781048352535" lon="11.509749818281698"><ele>206.0</ele><time>2026-04-24T08:47:12.007Z</time></trkpt><trkpt lat="42.50790375720341" lon="11.509782611377728"><ele>206.0</ele><time>2026-04-24T08:47:13.007Z</time></trkpt><trkpt lat="42.50799744757686" lon="11.509826134445108"><ele>206.0</ele><time>2026-04-24T08:47:14.007Z</time></trkpt><trkpt lat="42.50811406018392" lon="11.509843173397945"><ele>206.0</ele><time>2026-04-24T08:47:15.007Z</time></trkpt><trkpt lat="42.50819785449583" lon="11.509912573902076"><ele>206.0</ele><time>2026-04-24T08:47:16.007Z</time></trkpt><trkpt lat="42.50827988578172" lon="11.509992959670253"><ele>205.20000000000002</ele><time>2026-04-24T08:47:17.007Z</time></trkpt><trkpt lat="42.508360437240206" lon="11.510095670556677"><ele>204.4</ele><time>2026-04-24T08:47:18.007Z</time></trkpt><trkpt lat="42.50840714354018" lon="11.510238331980782"><ele>203.6</ele><time>2026-04-24T08:47:19.007Z</time></trkpt><trkpt lat="42.50847969990897" lon="11.510327921418794"><ele>202.8</ele><time>2026-04-24T08:47:20.007Z</time></trkpt><trkpt lat="42.50854710452511" lon="11.510407760281778"><ele>202.0</ele><time>2026-04-24T08:47:21.007Z</time></trkpt><trkpt lat="42.50860858960569" lon="11.510491924540965"><ele>201.99999999999997</ele><time>2026-04-24T08:47:22.007Z</time></trkpt><trkpt lat="42.50866888054805" lon="11.510569797251277"><ele>202.0</ele><time>2026-04-24T08:47:23.007Z</time></trkpt><trkpt lat="42.50873662731539" lon="11.510640793256623"><ele>202.0</ele><time>2026-04-24T08:47:24.007Z</time></trkpt><trkpt lat="42.508809158056515" lon="11.510704045128787"><ele>202.0</ele><time>2026-04-24T08:47:25.007Z</time></trkpt><trkpt lat="42.50888632041512" lon="11.510756327198266"><ele>201.99999999999997</ele><time>2026-04-24T08:47:26.007Z</time></trkpt><trkpt lat="42.508969909819754" lon="11.510811470014788"><ele>202.0</ele><time>2026-04-24T08:47:27.007Z</time></trkpt><trkpt lat="42.509068486877005" lon="11.510868292778383"><ele>199.75</ele><time>2026-04-24T08:47:28.007Z</time></trkpt><trkpt lat="42.50918114014758" lon="11.51092860253561"><ele>197.5</ele><time>2026-04-24T08:47:29.007Z</time></trkpt><trkpt lat="42.509300417102004" lon="11.510978723607623"><ele>195.25</ele><time>2026-04-24T08:47:30.007Z</time></trkpt><trkpt lat="42.509409276017855" lon="11.511022711709"><ele>193.0</ele><time>2026-04-24T08:47:31.007Z</time></trkpt><trkpt lat="42.509506635667655" lon="11.511062299897068"><ele>191.60000000000002</ele><time>2026-04-24T08:47:32.007Z</time></trkpt><trkpt lat="42.509590054780595" lon="11.511105804630867"><ele>190.20000000000002</ele><time>2026-04-24T08:47:33.007Z</time></trkpt><trkpt lat="42.50965705573568" lon="11.511200102197394"><ele>188.8</ele><time>2026-04-24T08:47:34.007Z</time></trkpt><trkpt lat="42.509742850252735" lon="11.511311135823055"><ele>187.4</ele><time>2026-04-24T08:47:35.007Z</time></trkpt><trkpt lat="42.50982421677415" lon="11.511420630437406"><ele>186.0</ele><time>2026-04-24T08:47:36.008Z</time></trkpt><trkpt lat="42.50989869361366" lon="11.511521683128402"><ele>185.66666666666666</ele><time>2026-04-24T08:47:37.008Z</time></trkpt><trkpt lat="42.509966743334566" lon="11.511615415845975"><ele>185.33333333333334</ele><time>2026-04-24T08:47:38.008Z</time></trkpt><trkpt lat="42.51003338333289" lon="11.51170728917983"><ele>185.0</ele><time>2026-04-24T08:47:39.008Z</time></trkpt><trkpt lat="42.51008762345899" lon="11.511793614790683"><ele>184.66666666666669</ele><time>2026-04-24T08:47:40.008Z</time></trkpt><trkpt lat="42.51013516494919" lon="11.511874556891065"><ele>184.33333333333334</ele><time>2026-04-24T08:47:41.008Z</time></trkpt><trkpt lat="42.51019037023619" lon="11.511952706081004"><ele>184.0</ele><time>2026-04-24T08:47:42.008Z</time></trkpt><trkpt lat="42.51023797381929" lon="11.512019004390494"><ele>183.39999999999998</ele><time>2026-04-24T08:47:43.008Z</time></trkpt><trkpt lat="42.51028339687653" lon="11.512081335468494"><ele>182.8</ele><time>2026-04-24T08:47:44.008Z</time></trkpt><trkpt lat="42.510360314728175" lon="11.512180742256032"><ele>182.2</ele><time>2026-04-24T08:47:46.008Z</time></trkpt><trkpt lat="42.51039641961181" lon="11.51225339403785"><ele>181.60000000000002</ele><time>2026-04-24T08:47:48.008Z</time></trkpt><trkpt lat="42.51055128617233" lon="11.512231239159208"><ele>181.0</ele><time>2026-04-24T08:48:01.008Z</time></trkpt><trkpt lat="42.51062515148737" lon="11.512178834601949"><ele>180.4</ele><time>2026-04-24T08:48:02.008Z</time></trkpt><trkpt lat="42.51069865440552" lon="11.512139499458668"><ele>179.8</ele><time>2026-04-24T08:48:03.008Z</time></trkpt><trkpt lat="42.510790382129095" lon="11.512096506683559"><ele>179.20000000000002</ele><time>2026-04-24T08:48:04.008Z</time></trkpt><trkpt lat="42.510887489766645" lon="11.512061956724342"><ele>178.60000000000002</ele><time>2026-04-24T08:48:05.008Z</time></trkpt><trkpt lat="42.51098438164316" lon="11.512024095304817"><ele>178.0</ele><time>2026-04-24T08:48:06.008Z</time></trkpt><trkpt lat="42.511097661275144" lon="11.511996415019016"><ele>178.0</ele><time>2026-04-24T08:48:07.008Z</time></trkpt><trkpt lat="42.51121833326341" lon="11.511959501668276"><ele>178.0</ele><time>2026-04-24T08:48:08.008Z</time></trkpt><trkpt lat="42.5113453385804" lon="11.511924585109675"><ele>178.0</ele><time>2026-04-24T08:48:09.008Z</time></trkpt><trkpt lat="42.5115004367768" lon="11.511874647847424"><ele>178.0</ele><time>2026-04-24T08:48:10.008Z</time></trkpt><trkpt lat="42.51165489496558" lon="11.511875204787621"><ele>174.0</ele><time>2026-04-24T08:48:11.008Z</time></trkpt><trkpt lat="42.51180898952079" lon="11.511826154464694"><ele>170.0</ele><time>2026-04-24T08:48:12.008Z</time></trkpt><trkpt lat="42.51197216134143" lon="11.511783750467117"><ele>166.0</ele><time>2026-04-24T08:48:13.008Z</time></trkpt><trkpt lat="42.51213626002596" lon="11.511741867207292"><ele>163.33333333333334</ele><time>2026-04-24T08:48:14.008Z</time></trkpt><trkpt lat="42.5123013406617" lon="11.511695204514703"><ele>160.66666666666666</ele><time>2026-04-24T08:48:15.008Z</time></trkpt><trkpt lat="42.512468760589385" lon="11.51164433643066"><ele>158.0</ele><time>2026-04-24T08:48:16.008Z</time></trkpt><trkpt lat="42.51263384331478" lon="11.511565605541197"><ele>158.0</ele><time>2026-04-24T08:48:17.008Z</time></trkpt><trkpt lat="42.51279689842964" lon="11.511471646862363"><ele>158.0</ele><time>2026-04-24T08:48:18.008Z</time></trkpt><trkpt lat="42.512947174491906" lon="11.511363895554547"><ele>158.0</ele><time>2026-04-24T08:48:19.008Z</time></trkpt><trkpt lat="42.51310501659311" lon="11.511243589928776"><ele>157.0</ele><time>2026-04-24T08:48:20.008Z</time></trkpt><trkpt lat="42.51325385042513" lon="11.511113160427904"><ele>156.0</ele><time>2026-04-24T08:48:21.008Z</time></trkpt><trkpt lat="42.51339922738219" lon="11.510987506345971"><ele>155.0</ele><time>2026-04-24T08:48:22.008Z</time></trkpt><trkpt lat="42.51355123713885" lon="11.510857506650328"><ele>155.0</ele><time>2026-04-24T08:48:23.008Z</time></trkpt><trkpt lat="42.51370865951925" lon="11.510724743252066"><ele>155.0</ele><time>2026-04-24T08:48:24.008Z</time></trkpt><trkpt lat="42.51386731300123" lon="11.510595236819508"><ele>155.0</ele><time>2026-04-24T08:48:25.008Z</time></trkpt><trkpt lat="42.51402152326793" lon="11.510471346808934"><ele>156.66666666666666</ele><time>2026-04-24T08:48:26.008Z</time></trkpt><trkpt lat="42.51417225048278" lon="11.510343762804421"><ele>158.33333333333334</ele><time>2026-04-24T08:48:27.008Z</time></trkpt><trkpt lat="42.514319010092656" lon="11.510216230451785"><ele>160.0</ele><time>2026-04-24T08:48:28.008Z</time></trkpt><trkpt lat="42.51447145632763" lon="11.510085892515479"><ele>162.0</ele><time>2026-04-24T08:48:29.008Z</time></trkpt><trkpt lat="42.51462161403086" lon="11.509957812347366"><ele>164.0</ele><time>2026-04-24T08:48:30.008Z</time></trkpt><trkpt lat="42.514770671260756" lon="11.509829144215697"><ele>166.0</ele><time>2026-04-24T08:48:31.008Z</time></trkpt><trkpt lat="42.514918014096786" lon="11.509699107362879"><ele>165.33333333333334</ele><time>2026-04-24T08:48:32.008Z</time></trkpt><trkpt lat="42.5150694494686" lon="11.509566859078149"><ele>164.66666666666666</ele><time>2026-04-24T08:48:33.008Z</time></trkpt><trkpt lat="42.51522122812743" lon="11.509442159982571"><ele>164.0</ele><time>2026-04-24T08:48:34.008Z</time></trkpt><trkpt lat="42.51537163465405" lon="11.509316621133921"><ele>163.66666666666666</ele><time>2026-04-24T08:48:35.008Z</time></trkpt><trkpt lat="42.51552130177637" lon="11.50921650189345"><ele>163.33333333333334</ele><time>2026-04-24T08:48:36.008Z</time></trkpt><trkpt lat="42.51567107447129" lon="11.509143337379733"><ele>163.0</ele><time>2026-04-24T08:48:37.008Z</time></trkpt><trkpt lat="42.51582874637664" lon="11.50911104866024"><ele>163.0</ele><time>2026-04-24T08:48:38.008Z</time></trkpt><trkpt lat="42.51598361500009" lon="11.509108210136308"><ele>163.0</ele><time>2026-04-24T08:48:39.008Z</time></trkpt><trkpt lat="42.51613559842036" lon="11.509185916977112"><ele>163.0</ele><time>2026-04-24T08:48:40.008Z</time></trkpt><trkpt lat="42.51629035059449" lon="11.509245869662678"><ele>164.66666666666669</ele><time>2026-04-24T08:48:41.008Z</time></trkpt><trkpt lat="42.51645627947726" lon="11.50930732292343"><ele>166.33333333333334</ele><time>2026-04-24T08:48:42.008Z</time></trkpt><trkpt lat="42.516632657166824" lon="11.509391185220755"><ele>168.0</ele><time>2026-04-24T08:48:43.008Z</time></trkpt><trkpt lat="42.51681603589636" lon="11.509469376049731"><ele>168.0</ele><time>2026-04-24T08:48:44.008Z</time></trkpt><trkpt lat="42.5169999788914" lon="11.509553931342122"><ele>168.0</ele><time>2026-04-24T08:48:45.008Z</time></trkpt><trkpt lat="42.51717816600163" lon="11.509653572049059"><ele>168.0</ele><time>2026-04-24T08:48:46.008Z</time></trkpt><trkpt lat="42.51735964964832" lon="11.509744733994472"><ele>173.0</ele><time>2026-04-24T08:48:47.008Z</time></trkpt><trkpt lat="42.51752903074112" lon="11.509837630239028"><ele>178.0</ele><time>2026-04-24T08:48:48.009Z</time></trkpt><trkpt lat="42.51769473718998" lon="11.509927735598174"><ele>183.0</ele><time>2026-04-24T08:48:49.009Z</time></trkpt><trkpt lat="42.51786561342273" lon="11.510015153289531"><ele>185.33333333333334</ele><time>2026-04-24T08:48:50.009Z</time></trkpt><trkpt lat="42.518029872065924" lon="11.5100989639063"><ele>187.66666666666669</ele><time>2026-04-24T08:48:51.009Z</time></trkpt><trkpt lat="42.51819282882986" lon="11.510176967979138"><ele>190.0</ele><time>2026-04-24T08:48:52.009Z</time></trkpt><trkpt lat="42.518356111468684" lon="11.510255039455034"><ele>190.0</ele><time>2026-04-24T08:48:53.009Z</time></trkpt><trkpt lat="42.51851296696984" lon="11.510337649845237"><ele>190.0</ele><time>2026-04-24T08:48:54.009Z</time></trkpt><trkpt lat="42.518662565918824" lon="11.51042686123219"><ele>190.0</ele><time>2026-04-24T08:48:55.009Z</time></trkpt><trkpt lat="42.51881612846001" lon="11.510508468824886"><ele>192.0</ele><time>2026-04-24T08:48:56.009Z</time></trkpt><trkpt lat="42.51897018352258" lon="11.510591063294049"><ele>194.0</ele><time>2026-04-24T08:48:57.009Z</time></trkpt><trkpt lat="42.51912230964838" lon="11.510669322279496"><ele>196.0</ele><time>2026-04-24T08:48:58.009Z</time></trkpt><trkpt lat="42.51927425875609" lon="11.51074533413175"><ele>196.0</ele><time>2026-04-24T08:48:59.009Z</time></trkpt><trkpt lat="42.51943096598537" lon="11.51082445792772"><ele>196.0</ele><time>2026-04-24T08:49:00.009Z</time></trkpt><trkpt lat="42.51958783418148" lon="11.510909687381195"><ele>196.0</ele><time>2026-04-24T08:49:01.009Z</time></trkpt><trkpt lat="42.51975177167139" lon="11.510999706813529"><ele>199.66666666666666</ele><time>2026-04-24T08:49:02.009Z</time></trkpt><trkpt lat="42.51992011873207" lon="11.51108854285926"><ele>203.33333333333331</ele><time>2026-04-24T08:49:03.009Z</time></trkpt><trkpt lat="42.5200883103445" lon="11.511179407300135"><ele>207.0</ele><time>2026-04-24T08:49:04.009Z</time></trkpt><trkpt lat="42.52025615059996" lon="11.511275211115501"><ele>208.66666666666669</ele><time>2026-04-24T08:49:05.009Z</time></trkpt><trkpt lat="42.52042587574403" lon="11.511368792504728"><ele>210.33333333333334</ele><time>2026-04-24T08:49:06.009Z</time></trkpt><trkpt lat="42.52059583362548" lon="11.511462210892132"><ele>212.0</ele><time>2026-04-24T08:49:07.009Z</time></trkpt><trkpt lat="42.52076333335311" lon="11.511546855613318"><ele>212.0</ele><time>2026-04-24T08:49:08.009Z</time></trkpt><trkpt lat="42.52093339679511" lon="11.51162818973273"><ele>212.0</ele><time>2026-04-24T08:49:09.009Z</time></trkpt><trkpt lat="42.521104140624786" lon="11.511712225323736"><ele>212.0</ele><time>2026-04-24T08:49:10.009Z</time></trkpt><trkpt lat="42.52126543899931" lon="11.511800796077997"><ele>212.0</ele><time>2026-04-24T08:49:11.009Z</time></trkpt><trkpt lat="42.521433068900656" lon="11.511885573815777"><ele>212.0</ele><time>2026-04-24T08:49:12.009Z</time></trkpt><trkpt lat="42.52160091510585" lon="11.511971339273067"><ele>212.0</ele><time>2026-04-24T08:49:13.009Z</time></trkpt><trkpt lat="42.521768013517644" lon="11.512062123647533"><ele>214.66666666666669</ele><time>2026-04-24T08:49:14.009Z</time></trkpt><trkpt lat="42.52193362969366" lon="11.512152469671433"><ele>217.33333333333331</ele><time>2026-04-24T08:49:15.009Z</time></trkpt><trkpt lat="42.52210641464908" lon="11.512247506618623"><ele>220.0</ele><time>2026-04-24T08:49:16.009Z</time></trkpt><trkpt lat="42.522279481115774" lon="11.512343612637187"><ele>221.0</ele><time>2026-04-24T08:49:17.009Z</time></trkpt><trkpt lat="42.5224571948549" lon="11.512445948822526"><ele>222.0</ele><time>2026-04-24T08:49:18.009Z</time></trkpt><trkpt lat="42.52264433732322" lon="11.51254596541962"><ele>223.0</ele><time>2026-04-24T08:49:19.009Z</time></trkpt><trkpt lat="42.52283672498834" lon="11.512637516982636"><ele>225.66666666666666</ele><time>2026-04-24T08:49:20.009Z</time></trkpt><trkpt lat="42.52302944322771" lon="11.512733412651135"><ele>228.33333333333331</ele><time>2026-04-24T08:49:21.009Z</time></trkpt><trkpt lat="42.52322748449961" lon="11.512838463788492"><ele>231.0</ele><time>2026-04-24T08:49:22.009Z</time></trkpt><trkpt lat="42.5234260321082" lon="11.512953185434606"><ele>231.66666666666669</ele><time>2026-04-24T08:49:23.009Z</time></trkpt><trkpt lat="42.523629302044554" lon="11.513056593818959"><ele>232.33333333333334</ele><time>2026-04-24T08:49:24.009Z</time></trkpt><trkpt lat="42.523835510625034" lon="11.513143676851492"><ele>233.0</ele><time>2026-04-24T08:49:25.009Z</time></trkpt><trkpt lat="42.52404099729553" lon="11.513214358327376"><ele>236.0</ele><time>2026-04-24T08:49:26.009Z</time></trkpt><trkpt lat="42.524248630687815" lon="11.513268664971152"><ele>239.0</ele><time>2026-04-24T08:49:27.009Z</time></trkpt><trkpt lat="42.52445904833348" lon="11.513298140386329"><ele>242.0</ele><time>2026-04-24T08:49:28.009Z</time></trkpt><trkpt lat="42.52466980576279" lon="11.513331155510318"><ele>243.66666666666669</ele><time>2026-04-24T08:49:29.009Z</time></trkpt><trkpt lat="42.524868931032074" lon="11.513375096609527"><ele>245.33333333333331</ele><time>2026-04-24T08:49:30.009Z</time></trkpt><trkpt lat="42.525067141115144" lon="11.513408990078215"><ele>247.0</ele><time>2026-04-24T08:49:31.009Z</time></trkpt><trkpt lat="42.525271403679994" lon="11.51344737120155"><ele>244.33333333333331</ele><time>2026-04-24T08:49:32.009Z</time></trkpt><trkpt lat="42.525452240995556" lon="11.513482966504727"><ele>241.66666666666669</ele><time>2026-04-24T08:49:33.009Z</time></trkpt><trkpt lat="42.52562551230595" lon="11.513550679700773"><ele>239.0</ele><time>2026-04-24T08:49:34.009Z</time></trkpt><trkpt lat="42.52578534410348" lon="11.51362601555075"><ele>239.0</ele><time>2026-04-24T08:49:35.009Z</time></trkpt><trkpt lat="42.52592268210022" lon="11.51371411391568"><ele>239.0</ele><time>2026-04-24T08:49:36.009Z</time></trkpt><trkpt lat="42.52603593089397" lon="11.513826393297997"><ele>239.0</ele><time>2026-04-24T08:49:37.009Z</time></trkpt><trkpt lat="42.52612936182607" lon="11.513963577708552"><ele>239.0</ele><time>2026-04-24T08:49:38.009Z</time></trkpt><trkpt lat="42.52620322200283" lon="11.514147372733092"><ele>236.33333333333334</ele><time>2026-04-24T08:49:39.009Z</time></trkpt><trkpt lat="42.52626130876241" lon="11.514346994516321"><ele>233.66666666666669</ele><time>2026-04-24T08:49:40.009Z</time></trkpt><trkpt lat="42.52629838985089" lon="11.514571193548989"><ele>231.0</ele><time>2026-04-24T08:49:41.009Z</time></trkpt><trkpt lat="42.526343957355884" lon="11.514837386769129"><ele>231.0</ele><time>2026-04-24T08:49:42.009Z</time></trkpt><trkpt lat="42.52638832383108" lon="11.515104802847723"><ele>231.0</ele><time>2026-04-24T08:49:43.009Z</time></trkpt><trkpt lat="42.526431767579844" lon="11.515362438664326"><ele>231.0</ele><time>2026-04-24T08:49:44.009Z</time></trkpt><trkpt lat="42.526480293076276" lon="11.51560573488889"><ele>231.66666666666669</ele><time>2026-04-24T08:49:45.009Z</time></trkpt><trkpt lat="42.52653140712502" lon="11.515816375760663"><ele>232.33333333333334</ele><time>2026-04-24T08:49:46.009Z</time></trkpt><trkpt lat="42.52661472743297" lon="11.516024967860726"><ele>233.0</ele><time>2026-04-24T08:49:47.009Z</time></trkpt><trkpt lat="42.526734915713114" lon="11.51619943222858"><ele>235.33333333333334</ele><time>2026-04-24T08:49:48.009Z</time></trkpt><trkpt lat="42.52684879230502" lon="11.51636826014382"><ele>237.66666666666669</ele><time>2026-04-24T08:49:49.009Z</time></trkpt><trkpt lat="42.52696986067884" lon="11.516536137978843"><ele>240.0</ele><time>2026-04-24T08:49:50.009Z</time></trkpt><trkpt lat="42.52708821474525" lon="11.516705299767397"><ele>239.66666666666669</ele><time>2026-04-24T08:49:51.009Z</time></trkpt><trkpt lat="42.52720353732105" lon="11.516864006752016"><ele>239.33333333333334</ele><time>2026-04-24T08:49:52.009Z</time></trkpt><trkpt lat="42.52732567944198" lon="11.517028301949143"><ele>239.0</ele><time>2026-04-24T08:49:53.009Z</time></trkpt><trkpt lat="42.52745182550466" lon="11.517197671378508"><ele>239.0</ele><time>2026-04-24T08:49:54.009Z</time></trkpt><trkpt lat="42.52758286835848" lon="11.517367096032764"><ele>239.0</ele><time>2026-04-24T08:49:55.009Z</time></trkpt><trkpt lat="42.527711683852644" lon="11.517540188508502"><ele>239.0</ele><time>2026-04-24T08:49:56.009Z</time></trkpt><trkpt lat="42.52784034206436" lon="11.517707711098263"><ele>242.33333333333334</ele><time>2026-04-24T08:49:57.009Z</time></trkpt><trkpt lat="42.52796863831091" lon="11.517872959869967"><ele>245.66666666666669</ele><time>2026-04-24T08:49:58.009Z</time></trkpt><trkpt lat="42.52809497729286" lon="11.518038586214411"><ele>249.0</ele><time>2026-04-24T08:49:59.01Z</time></trkpt><trkpt lat="42.52821562283385" lon="11.51820703589822"><ele>249.0</ele><time>2026-04-24T08:50:00.01Z</time></trkpt><trkpt lat="42.52833350663449" lon="11.518372756940249"><ele>249.0</ele><time>2026-04-24T08:50:01.01Z</time></trkpt><trkpt lat="42.52844824268782" lon="11.518541472146799"><ele>249.0</ele><time>2026-04-24T08:50:02.01Z</time></trkpt><trkpt lat="42.52856530315793" lon="11.518708619448512"><ele>250.66666666666669</ele><time>2026-04-24T08:50:03.01Z</time></trkpt><trkpt lat="42.528684417541626" lon="11.518877105858676"><ele>252.33333333333334</ele><time>2026-04-24T08:50:04.01Z</time></trkpt><trkpt lat="42.5287993414167" lon="11.519053170228151"><ele>254.0</ele><time>2026-04-24T08:50:05.01Z</time></trkpt><trkpt lat="42.528914351477184" lon="11.519236213465762"><ele>257.6666666666667</ele><time>2026-04-24T08:50:06.01Z</time></trkpt><trkpt lat="42.529035799478216" lon="11.519423886110475"><ele>261.3333333333333</ele><time>2026-04-24T08:50:07.01Z</time></trkpt><trkpt lat="42.52914721315426" lon="11.51962784675331"><ele>265.0</ele><time>2026-04-24T08:50:08.01Z</time></trkpt><trkpt lat="42.52927451741632" lon="11.519814080285824"><ele>266.3333333333333</ele><time>2026-04-24T08:50:09.01Z</time></trkpt><trkpt lat="42.52941795530841" lon="11.519968784615878"><ele>267.6666666666667</ele><time>2026-04-24T08:50:10.01Z</time></trkpt><trkpt lat="42.52955180733162" lon="11.520118258082448"><ele>269.0</ele><time>2026-04-24T08:50:11.01Z</time></trkpt><trkpt lat="42.52968777004399" lon="11.520245924294576"><ele>270.33333333333337</ele><time>2026-04-24T08:50:12.01Z</time></trkpt><trkpt lat="42.52982346720708" lon="11.520345642793504"><ele>271.6666666666667</ele><time>2026-04-24T08:50:13.01Z</time></trkpt><trkpt lat="42.529980329118985" lon="11.520421963964093"><ele>273.0</ele><time>2026-04-24T08:50:14.01Z</time></trkpt><trkpt lat="42.53015660096493" lon="11.520500707419897"><ele>273.3333333333333</ele><time>2026-04-24T08:50:15.01Z</time></trkpt><trkpt lat="42.530311838056306" lon="11.520629685356841"><ele>273.66666666666663</ele><time>2026-04-24T08:50:16.01Z</time></trkpt><trkpt lat="42.53049044090747" lon="11.520737407981684"><ele>274.0</ele><time>2026-04-24T08:50:17.01Z</time></trkpt><trkpt lat="42.530685728486354" lon="11.520841763618439"><ele>273.3333333333333</ele><time>2026-04-24T08:50:18.01Z</time></trkpt><trkpt lat="42.530888914105105" lon="11.520934819704713"><ele>272.6666666666667</ele><time>2026-04-24T08:50:19.01Z</time></trkpt><trkpt lat="42.5310804135443" lon="11.521022750886008"><ele>272.0</ele><time>2026-04-24T08:50:20.01Z</time></trkpt><trkpt lat="42.53126686340626" lon="11.521119306362385"><ele>272.0</ele><time>2026-04-24T08:50:21.01Z</time></trkpt><trkpt lat="42.53145628245181" lon="11.521213494042385"><ele>272.0</ele><time>2026-04-24T08:50:22.01Z</time></trkpt><trkpt lat="42.53164910211352" lon="11.52130336271283"><ele>272.0</ele><time>2026-04-24T08:50:23.01Z</time></trkpt><trkpt lat="42.53185617610394" lon="11.521403828439832"><ele>270.33333333333337</ele><time>2026-04-24T08:50:24.01Z</time></trkpt><trkpt lat="42.5320575107245" lon="11.52149529169343"><ele>268.6666666666667</ele><time>2026-04-24T08:50:25.01Z</time></trkpt><trkpt lat="42.53224515528359" lon="11.521588357148797"><ele>267.0</ele><time>2026-04-24T08:50:26.01Z</time></trkpt><trkpt lat="42.53243823950364" lon="11.521677853296694"><ele>267.0</ele><time>2026-04-24T08:50:27.01Z</time></trkpt><trkpt lat="42.53262583932293" lon="11.52176748108224"><ele>267.0</ele><time>2026-04-24T08:50:28.01Z</time></trkpt><trkpt lat="42.53281595907986" lon="11.521865000274799"><ele>267.0</ele><time>2026-04-24T08:50:29.01Z</time></trkpt><trkpt lat="42.53301082643814" lon="11.52195891268943"><ele>266.0</ele><time>2026-04-24T08:50:30.01Z</time></trkpt><trkpt lat="42.53320167427103" lon="11.522041522873094"><ele>265.0</ele><time>2026-04-24T08:50:31.01Z</time></trkpt><trkpt lat="42.53339116969059" lon="11.52213755827169"><ele>264.0</ele><time>2026-04-24T08:50:32.01Z</time></trkpt><trkpt lat="42.533584908478616" lon="11.522234843123648"><ele>261.3333333333333</ele><time>2026-04-24T08:50:33.01Z</time></trkpt><trkpt lat="42.53378769598675" lon="11.52232506265085"><ele>258.66666666666663</ele><time>2026-04-24T08:50:34.01Z</time></trkpt><trkpt lat="42.533974115652406" lon="11.522434656199447"><ele>256.0</ele><time>2026-04-24T08:50:35.01Z</time></trkpt><trkpt lat="42.534159499268895" lon="11.522518275055669"><ele>256.0</ele><time>2026-04-24T08:50:36.01Z</time></trkpt><trkpt lat="42.53434975669986" lon="11.522563806890687"><ele>256.0</ele><time>2026-04-24T08:50:37.01Z</time></trkpt><trkpt lat="42.534538299418244" lon="11.522625714579695"><ele>256.0</ele><time>2026-04-24T08:50:38.01Z</time></trkpt><trkpt lat="42.53471352081779" lon="11.522724392034313"><ele>254.66666666666666</ele><time>2026-04-24T08:50:39.01Z</time></trkpt><trkpt lat="42.53490716369976" lon="11.522771830101057"><ele>253.33333333333331</ele><time>2026-04-24T08:50:40.01Z</time></trkpt><trkpt lat="42.53511125604396" lon="11.522824951668817"><ele>252.0</ele><time>2026-04-24T08:50:41.01Z</time></trkpt><trkpt lat="42.53531049260899" lon="11.522869947405113"><ele>251.0</ele><time>2026-04-24T08:50:42.01Z</time></trkpt><trkpt lat="42.53550865742643" lon="11.522911783611548"><ele>250.0</ele><time>2026-04-24T08:50:43.01Z</time></trkpt><trkpt lat="42.53570366008353" lon="11.522956802492406"><ele>249.0</ele><time>2026-04-24T08:50:44.01Z</time></trkpt><trkpt lat="42.535888753969644" lon="11.522999114240202"><ele>249.0</ele><time>2026-04-24T08:50:45.01Z</time></trkpt><trkpt lat="42.536079083844236" lon="11.523047323802682"><ele>249.0</ele><time>2026-04-24T08:50:46.01Z</time></trkpt><trkpt lat="42.53625966302022" lon="11.523113360203409"><ele>249.0</ele><time>2026-04-24T08:50:47.01Z</time></trkpt><trkpt lat="42.536431702776824" lon="11.52321879921065"><ele>248.0</ele><time>2026-04-24T08:50:48.01Z</time></trkpt><trkpt lat="42.53658866271117" lon="11.523351076021207"><ele>247.0</ele><time>2026-04-24T08:50:49.01Z</time></trkpt><trkpt lat="42.53672611798802" lon="11.523519221678802"><ele>246.0</ele><time>2026-04-24T08:50:50.01Z</time></trkpt><trkpt lat="42.53685573631261" lon="11.52370564924152"><ele>245.33333333333331</ele><time>2026-04-24T08:50:51.01Z</time></trkpt><trkpt lat="42.53700190265202" lon="11.523887614272528"><ele>244.66666666666666</ele><time>2026-04-24T08:50:52.01Z</time></trkpt><trkpt lat="42.53714714129098" lon="11.524087353913945"><ele>244.0</ele><time>2026-04-24T08:50:53.01Z</time></trkpt><trkpt lat="42.537299298704724" lon="11.524286185323414"><ele>243.33333333333331</ele><time>2026-04-24T08:50:54.01Z</time></trkpt><trkpt lat="42.53746849035252" lon="11.52448071060545"><ele>242.66666666666669</ele><time>2026-04-24T08:50:55.01Z</time></trkpt><trkpt lat="42.53762887109164" lon="11.524673105236785"><ele>242.0</ele><time>2026-04-24T08:50:56.01Z</time></trkpt><trkpt lat="42.53778935852375" lon="11.524873241104366"><ele>241.0</ele><time>2026-04-24T08:50:57.01Z</time></trkpt><trkpt lat="42.53795081588015" lon="11.525063495248094"><ele>240.0</ele><time>2026-04-24T08:50:58.01Z</time></trkpt><trkpt lat="42.53811397889938" lon="11.525252230699104"><ele>239.0</ele><time>2026-04-24T08:50:59.01Z</time></trkpt><trkpt lat="42.538273926374764" lon="11.525450956202446"><ele>239.0</ele><time>2026-04-24T08:51:00.01Z</time></trkpt><trkpt lat="42.5384275235138" lon="11.525648402296502"><ele>239.0</ele><time>2026-04-24T08:51:01.01Z</time></trkpt><trkpt lat="42.5385863218935" lon="11.525846349538666"><ele>239.0</ele><time>2026-04-24T08:51:02.01Z</time></trkpt><trkpt lat="42.538750006970616" lon="11.526046055622786"><ele>240.0</ele><time>2026-04-24T08:51:03.01Z</time></trkpt><trkpt lat="42.538907453806814" lon="11.52624091515035"><ele>241.0</ele><time>2026-04-24T08:51:04.01Z</time></trkpt><trkpt lat="42.539068094915244" lon="11.52642785249216"><ele>242.0</ele><time>2026-04-24T08:51:05.01Z</time></trkpt><trkpt lat="42.539223686049304" lon="11.526622091049656"><ele>242.0</ele><time>2026-04-24T08:51:06.01Z</time></trkpt><trkpt lat="42.53936700148454" lon="11.526810805611223"><ele>242.0</ele><time>2026-04-24T08:51:07.01Z</time></trkpt><trkpt lat="42.53951156641361" lon="11.52699002616965"><ele>242.0</ele><time>2026-04-24T08:51:08.01Z</time></trkpt><trkpt lat="42.53965168815983" lon="11.527164089550814"><ele>242.0</ele><time>2026-04-24T08:51:09.01Z</time></trkpt><trkpt lat="42.53978771125856" lon="11.527336513847622"><ele>242.0</ele><time>2026-04-24T08:51:10.01Z</time></trkpt><trkpt lat="42.539921685941145" lon="11.5274938711394"><ele>242.0</ele><time>2026-04-24T08:51:11.011Z</time></trkpt><trkpt lat="42.540048255267145" lon="11.527627800981636"><ele>242.0</ele><time>2026-04-24T08:51:12.011Z</time></trkpt><trkpt lat="42.54018362435558" lon="11.527729642516995"><ele>242.0</ele><time>2026-04-24T08:51:13.011Z</time></trkpt><trkpt lat="42.54033542698885" lon="11.527796668434902"><ele>242.0</ele><time>2026-04-24T08:51:14.011Z</time></trkpt><trkpt lat="42.54048346976675" lon="11.52781338131878"><ele>243.0</ele><time>2026-04-24T08:51:15.011Z</time></trkpt><trkpt lat="42.54063284285605" lon="11.527791814092103"><ele>244.0</ele><time>2026-04-24T08:51:16.011Z</time></trkpt><trkpt lat="42.54079564472188" lon="11.527723268531824"><ele>245.0</ele><time>2026-04-24T08:51:17.011Z</time></trkpt><trkpt lat="42.54097414410303" lon="11.52762111562247"><ele>245.0</ele><time>2026-04-24T08:51:18.011Z</time></trkpt><trkpt lat="42.541150243591005" lon="11.527540786325774"><ele>245.0</ele><time>2026-04-24T08:51:19.011Z</time></trkpt><trkpt lat="42.541331876799646" lon="11.527450866375846"><ele>245.0</ele><time>2026-04-24T08:51:20.011Z</time></trkpt><trkpt lat="42.541519193831796" lon="11.527370629199483"><ele>245.66666666666669</ele><time>2026-04-24T08:51:21.011Z</time></trkpt><trkpt lat="42.54171264743441" lon="11.527284410403759"><ele>246.33333333333331</ele><time>2026-04-24T08:51:22.011Z</time></trkpt><trkpt lat="42.54190949897925" lon="11.52720425647499"><ele>247.0</ele><time>2026-04-24T08:51:23.011Z</time></trkpt><trkpt lat="42.54210540413149" lon="11.527127656459733"><ele>248.33333333333331</ele><time>2026-04-24T08:51:24.011Z</time></trkpt><trkpt lat="42.542297965934644" lon="11.527049303890204"><ele>249.66666666666669</ele><time>2026-04-24T08:51:25.011Z</time></trkpt><trkpt lat="42.54248976186583" lon="11.527007144353957"><ele>251.0</ele><time>2026-04-24T08:51:26.011Z</time></trkpt><trkpt lat="42.5426750736751" lon="11.526971274373556"><ele>251.0</ele><time>2026-04-24T08:51:27.011Z</time></trkpt><trkpt lat="42.5428630215105" lon="11.526935844412746"><ele>251.0</ele><time>2026-04-24T08:51:28.011Z</time></trkpt><trkpt lat="42.54302294016484" lon="11.526932842817837"><ele>251.0</ele><time>2026-04-24T08:51:29.011Z</time></trkpt><trkpt lat="42.54319769002749" lon="11.526898639856354"><ele>250.0</ele><time>2026-04-24T08:51:30.011Z</time></trkpt><trkpt lat="42.54337936825138" lon="11.52686541531196"><ele>249.0</ele><time>2026-04-24T08:51:31.011Z</time></trkpt><trkpt lat="42.54357190948689" lon="11.52682465492116"><ele>248.0</ele><time>2026-04-24T08:51:32.011Z</time></trkpt><trkpt lat="42.54376681822089" lon="11.5267876434558"><ele>247.0</ele><time>2026-04-24T08:51:33.011Z</time></trkpt><trkpt lat="42.54395317499431" lon="11.526749849655149"><ele>246.0</ele><time>2026-04-24T08:51:34.011Z</time></trkpt><trkpt lat="42.54413754133712" lon="11.526708816143897"><ele>245.0</ele><time>2026-04-24T08:51:35.011Z</time></trkpt><trkpt lat="42.54431250633734" lon="11.52665917681843"><ele>245.0</ele><time>2026-04-24T08:51:36.011Z</time></trkpt><trkpt lat="42.54450106035637" lon="11.526598505033672"><ele>245.0</ele><time>2026-04-24T08:51:37.011Z</time></trkpt><trkpt lat="42.544686463495864" lon="11.526514413475923"><ele>245.0</ele><time>2026-04-24T08:51:38.011Z</time></trkpt><trkpt lat="42.54484557525186" lon="11.526403540513195"><ele>243.33333333333334</ele><time>2026-04-24T08:51:39.011Z</time></trkpt><trkpt lat="42.5450155311033" lon="11.526254949186772"><ele>241.66666666666669</ele><time>2026-04-24T08:51:40.011Z</time></trkpt><trkpt lat="42.54518206142512" lon="11.52611194299374"><ele>240.0</ele><time>2026-04-24T08:51:41.011Z</time></trkpt><trkpt lat="42.54534506917596" lon="11.525982030958108"><ele>239.66666666666669</ele><time>2026-04-24T08:51:42.011Z</time></trkpt><trkpt lat="42.54551373115141" lon="11.525852778270384"><ele>239.33333333333334</ele><time>2026-04-24T08:51:43.011Z</time></trkpt><trkpt lat="42.545671819934725" lon="11.525723703979638"><ele>239.0</ele><time>2026-04-24T08:51:44.011Z</time></trkpt><trkpt lat="42.54582879875841" lon="11.525615000709012"><ele>239.0</ele><time>2026-04-24T08:51:45.011Z</time></trkpt><trkpt lat="42.545988360558106" lon="11.5255520479955"><ele>239.0</ele><time>2026-04-24T08:51:46.011Z</time></trkpt><trkpt lat="42.54615892420429" lon="11.525502485971684"><ele>239.0</ele><time>2026-04-24T08:51:47.011Z</time></trkpt><trkpt lat="42.546331244974084" lon="11.52547596730931"><ele>237.33333333333334</ele><time>2026-04-24T08:51:48.011Z</time></trkpt><trkpt lat="42.54652180864434" lon="11.52545558634038"><ele>235.66666666666669</ele><time>2026-04-24T08:51:49.011Z</time></trkpt><trkpt lat="42.54672288181771" lon="11.525434081405338"><ele>234.0</ele><time>2026-04-24T08:51:50.011Z</time></trkpt><trkpt lat="42.546917855170385" lon="11.525412463608605"><ele>230.66666666666669</ele><time>2026-04-24T08:51:51.011Z</time></trkpt><trkpt lat="42.54712599141751" lon="11.525388023733056"><ele>227.33333333333334</ele><time>2026-04-24T08:51:52.011Z</time></trkpt><trkpt lat="42.547321726777035" lon="11.525365040004214"><ele>224.0</ele><time>2026-04-24T08:51:53.011Z</time></trkpt><trkpt lat="42.547518927648" lon="11.525356170739657"><ele>224.0</ele><time>2026-04-24T08:51:54.011Z</time></trkpt><trkpt lat="42.54773133478669" lon="11.525333695248213"><ele>224.0</ele><time>2026-04-24T08:51:55.011Z</time></trkpt><trkpt lat="42.54794826470146" lon="11.525304073700436"><ele>224.0</ele><time>2026-04-24T08:51:56.011Z</time></trkpt><trkpt lat="42.54816337771031" lon="11.525278994474165"><ele>223.0</ele><time>2026-04-24T08:51:57.011Z</time></trkpt><trkpt lat="42.54837290703704" lon="11.525252168960318"><ele>222.0</ele><time>2026-04-24T08:51:58.011Z</time></trkpt><trkpt lat="42.548579533234694" lon="11.525222862052656"><ele>221.0</ele><time>2026-04-24T08:51:59.011Z</time></trkpt><trkpt lat="42.54878774461043" lon="11.52519195437973"><ele>221.0</ele><time>2026-04-24T08:52:00.011Z</time></trkpt><trkpt lat="42.54899101119477" lon="11.525172125386344"><ele>221.0</ele><time>2026-04-24T08:52:01.011Z</time></trkpt><trkpt lat="42.54918023976187" lon="11.525156732560824"><ele>221.0</ele><time>2026-04-24T08:52:02.011Z</time></trkpt><trkpt lat="42.54934880710616" lon="11.52513225166029"><ele>221.0</ele><time>2026-04-24T08:52:03.011Z</time></trkpt><trkpt lat="42.54948802808824" lon="11.525071122701414"><ele>221.0</ele><time>2026-04-24T08:52:04.011Z</time></trkpt><trkpt lat="42.54963281395694" lon="11.524976582798999"><ele>221.0</ele><time>2026-04-24T08:52:05.011Z</time></trkpt><trkpt lat="42.54977401155133" lon="11.524858034470073"><ele>221.0</ele><time>2026-04-24T08:52:06.011Z</time></trkpt><trkpt lat="42.54990487865121" lon="11.524706605879578"><ele>221.0</ele><time>2026-04-24T08:52:07.011Z</time></trkpt><trkpt lat="42.54999321528295" lon="11.524521544577672"><ele>221.0</ele><time>2026-04-24T08:52:08.011Z</time></trkpt><trkpt lat="42.550058463814196" lon="11.524303398328033"><ele>221.66666666666669</ele><time>2026-04-24T08:52:09.011Z</time></trkpt><trkpt lat="42.55015014539456" lon="11.524050210705003"><ele>222.33333333333331</ele><time>2026-04-24T08:52:10.011Z</time></trkpt><trkpt lat="42.55024681478161" lon="11.523796532216053"><ele>223.0</ele><time>2026-04-24T08:52:11.011Z</time></trkpt><trkpt lat="42.55033214968842" lon="11.523542827764464"><ele>223.33333333333331</ele><time>2026-04-24T08:52:12.011Z</time></trkpt><trkpt lat="42.55042118566503" lon="11.523313950045374"><ele>223.66666666666669</ele><time>2026-04-24T08:52:13.011Z</time></trkpt><trkpt lat="42.550512293083024" lon="11.523089285433183"><ele>224.0</ele><time>2026-04-24T08:52:14.011Z</time></trkpt><trkpt lat="42.55060233640749" lon="11.52286397476382"><ele>225.0</ele><time>2026-04-24T08:52:15.011Z</time></trkpt><trkpt lat="42.55068461147112" lon="11.522644474529379"><ele>226.0</ele><time>2026-04-24T08:52:16.011Z</time></trkpt><trkpt lat="42.55076637491392" lon="11.52242935289091"><ele>227.0</ele><time>2026-04-24T08:52:17.011Z</time></trkpt><trkpt lat="42.55084860844135" lon="11.522221621407994"><ele>227.66666666666669</ele><time>2026-04-24T08:52:18.011Z</time></trkpt><trkpt lat="42.550956660216904" lon="11.522045120191978"><ele>228.33333333333331</ele><time>2026-04-24T08:52:19.011Z</time></trkpt><trkpt lat="42.55106622343644" lon="11.521889306799434"><ele>229.0</ele><time>2026-04-24T08:52:20.011Z</time></trkpt><trkpt lat="42.551185956914466" lon="11.52176334675126"><ele>229.0</ele><time>2026-04-24T08:52:21.011Z</time></trkpt><trkpt lat="42.55132022792128" lon="11.521683145203998"><ele>229.0</ele><time>2026-04-24T08:52:22.011Z</time></trkpt><trkpt lat="42.55146173243379" lon="11.521644050679575"><ele>229.0</ele><time>2026-04-24T08:52:23.012Z</time></trkpt><trkpt lat="42.551620681332714" lon="11.521649233308631"><ele>229.0</ele><time>2026-04-24T08:52:24.012Z</time></trkpt><trkpt lat="42.551783577992424" lon="11.52166780922228"><ele>229.0</ele><time>2026-04-24T08:52:25.012Z</time></trkpt><trkpt lat="42.551963485620824" lon="11.521696756652904"><ele>229.0</ele><time>2026-04-24T08:52:26.012Z</time></trkpt><trkpt lat="42.55216026074876" lon="11.521729954292162"><ele>229.0</ele><time>2026-04-24T08:52:27.012Z</time></trkpt><trkpt lat="42.552362947550634" lon="11.521756140648145"><ele>229.0</ele><time>2026-04-24T08:52:28.012Z</time></trkpt><trkpt lat="42.55257711988633" lon="11.52178470546479"><ele>229.0</ele><time>2026-04-24T08:52:29.012Z</time></trkpt><trkpt lat="42.55278560510885" lon="11.521818421416324"><ele>228.66666666666666</ele><time>2026-04-24T08:52:30.012Z</time></trkpt><trkpt lat="42.552994986352694" lon="11.521870779457956"><ele>228.33333333333331</ele><time>2026-04-24T08:52:31.012Z</time></trkpt><trkpt lat="42.55320830661168" lon="11.521905132365031"><ele>228.0</ele><time>2026-04-24T08:52:32.012Z</time></trkpt><trkpt lat="42.55341750995354" lon="11.521916490455098"><ele>228.0</ele><time>2026-04-24T08:52:33.012Z</time></trkpt><trkpt lat="42.55362115852593" lon="11.521949884850594"><ele>228.0</ele><time>2026-04-24T08:52:34.012Z</time></trkpt><trkpt lat="42.55381556953301" lon="11.522013516977376"><ele>228.0</ele><time>2026-04-24T08:52:35.012Z</time></trkpt><trkpt lat="42.554018802116744" lon="11.522046217213575"><ele>228.33333333333331</ele><time>2026-04-24T08:52:36.012Z</time></trkpt><trkpt lat="42.55422427000655" lon="11.522074529783646"><ele>228.66666666666666</ele><time>2026-04-24T08:52:37.012Z</time></trkpt><trkpt lat="42.554434178051146" lon="11.52210386826048"><ele>229.0</ele><time>2026-04-24T08:52:38.012Z</time></trkpt><trkpt lat="42.55464331353052" lon="11.522136697646745"><ele>229.66666666666666</ele><time>2026-04-24T08:52:39.012Z</time></trkpt><trkpt lat="42.554846401902694" lon="11.522170854776745"><ele>230.33333333333331</ele><time>2026-04-24T08:52:40.012Z</time></trkpt><trkpt lat="42.555048151155226" lon="11.522202474910724"><ele>231.0</ele><time>2026-04-24T08:52:41.012Z</time></trkpt><trkpt lat="42.555247058355796" lon="11.522232680581066"><ele>231.66666666666669</ele><time>2026-04-24T08:52:42.012Z</time></trkpt><trkpt lat="42.55545347063359" lon="11.522260386156143"><ele>232.33333333333334</ele><time>2026-04-24T08:52:43.012Z</time></trkpt><trkpt lat="42.55565368024514" lon="11.522290615007346"><ele>233.0</ele><time>2026-04-24T08:52:44.012Z</time></trkpt><trkpt lat="42.55584785028071" lon="11.522316149051354"><ele>233.0</ele><time>2026-04-24T08:52:45.012Z</time></trkpt><trkpt lat="42.55604179795527" lon="11.52234347786124"><ele>233.0</ele><time>2026-04-24T08:52:46.012Z</time></trkpt><trkpt lat="42.556227065746235" lon="11.522393512928941"><ele>233.0</ele><time>2026-04-24T08:52:47.012Z</time></trkpt><trkpt lat="42.55641440733106" lon="11.522423529532016"><ele>233.66666666666669</ele><time>2026-04-24T08:52:48.012Z</time></trkpt><trkpt lat="42.55659218120697" lon="11.522452013184035"><ele>234.33333333333331</ele><time>2026-04-24T08:52:49.012Z</time></trkpt><trkpt lat="42.556764325707576" lon="11.522479594837764"><ele>235.0</ele><time>2026-04-24T08:52:50.012Z</time></trkpt><trkpt lat="42.556932508051005" lon="11.522510479026327"><ele>234.33333333333331</ele><time>2026-04-24T08:52:51.012Z</time></trkpt><trkpt lat="42.557101074882475" lon="11.52255068769795"><ele>233.66666666666669</ele><time>2026-04-24T08:52:52.012Z</time></trkpt><trkpt lat="42.5572612136948" lon="11.522607645190478"><ele>233.0</ele><time>2026-04-24T08:52:53.012Z</time></trkpt><trkpt lat="42.557421674977526" lon="11.522685166045203"><ele>233.0</ele><time>2026-04-24T08:52:54.012Z</time></trkpt><trkpt lat="42.55758478075382" lon="11.522774502496333"><ele>233.0</ele><time>2026-04-24T08:52:55.012Z</time></trkpt><trkpt lat="42.557751346271964" lon="11.522871094073727"><ele>233.0</ele><time>2026-04-24T08:52:56.012Z</time></trkpt><trkpt lat="42.557920192231784" lon="11.522972604836996"><ele>233.33333333333334</ele><time>2026-04-24T08:52:57.012Z</time></trkpt><trkpt lat="42.558090856404995" lon="11.52308051061094"><ele>233.66666666666669</ele><time>2026-04-24T08:52:58.012Z</time></trkpt><trkpt lat="42.55826991628103" lon="11.52318765758346"><ele>234.0</ele><time>2026-04-24T08:52:59.012Z</time></trkpt><trkpt lat="42.5584434778729" lon="11.52329089440902"><ele>234.0</ele><time>2026-04-24T08:53:00.012Z</time></trkpt><trkpt lat="42.5586125937723" lon="11.523391486875813"><ele>234.0</ele><time>2026-04-24T08:53:01.012Z</time></trkpt><trkpt lat="42.55879225850555" lon="11.523498355514896"><ele>234.0</ele><time>2026-04-24T08:53:02.012Z</time></trkpt><trkpt lat="42.55898390745417" lon="11.523613425894705"><ele>234.33333333333331</ele><time>2026-04-24T08:53:03.012Z</time></trkpt><trkpt lat="42.55919041352259" lon="11.52373795919841"><ele>234.66666666666666</ele><time>2026-04-24T08:53:04.012Z</time></trkpt><trkpt lat="42.55938776971592" lon="11.523856974719367"><ele>235.0</ele><time>2026-04-24T08:53:05.012Z</time></trkpt><trkpt lat="42.55957101115416" lon="11.523967478232706"><ele>237.66666666666666</ele><time>2026-04-24T08:53:06.012Z</time></trkpt><trkpt lat="42.55975219486368" lon="11.524076740934287"><ele>240.33333333333331</ele><time>2026-04-24T08:53:07.012Z</time></trkpt><trkpt lat="42.55992510189226" lon="11.524182239839142"><ele>243.0</ele><time>2026-04-24T08:53:08.012Z</time></trkpt><trkpt lat="42.56009572496159" lon="11.524292174364268"><ele>243.0</ele><time>2026-04-24T08:53:09.012Z</time></trkpt><trkpt lat="42.56025553334429" lon="11.524407258855106"><ele>243.0</ele><time>2026-04-24T08:53:10.012Z</time></trkpt><trkpt lat="42.56040963705683" lon="11.524537271574712"><ele>243.0</ele><time>2026-04-24T08:53:11.012Z</time></trkpt><trkpt lat="42.56056016775803" lon="11.524682053118509"><ele>243.66666666666669</ele><time>2026-04-24T08:53:12.012Z</time></trkpt><trkpt lat="42.560702531991865" lon="11.52483362019868"><ele>244.33333333333334</ele><time>2026-04-24T08:53:13.012Z</time></trkpt><trkpt lat="42.5608497101453" lon="11.524988933761781"><ele>245.0</ele><time>2026-04-24T08:53:14.012Z</time></trkpt><trkpt lat="42.56099875284005" lon="11.525144956213037"><ele>245.0</ele><time>2026-04-24T08:53:15.012Z</time></trkpt><trkpt lat="42.56115491412715" lon="11.525293911653527"><ele>245.0</ele><time>2026-04-24T08:53:16.012Z</time></trkpt><trkpt lat="42.56131591327504" lon="11.525434769164415"><ele>245.0</ele><time>2026-04-24T08:53:17.012Z</time></trkpt><trkpt lat="42.56149781720889" lon="11.525543924267952"><ele>245.66666666666669</ele><time>2026-04-24T08:53:18.012Z</time></trkpt><trkpt lat="42.56168228194878" lon="11.525657532675865"><ele>246.33333333333331</ele><time>2026-04-24T08:53:19.012Z</time></trkpt><trkpt lat="42.561869533984826" lon="11.52575658326704"><ele>247.0</ele><time>2026-04-24T08:53:20.012Z</time></trkpt><trkpt lat="42.56205945725493" lon="11.525829686838648"><ele>247.33333333333331</ele><time>2026-04-24T08:53:21.012Z</time></trkpt><trkpt lat="42.562246359230514" lon="11.525901407464438"><ele>247.66666666666669</ele><time>2026-04-24T08:53:22.012Z</time></trkpt><trkpt lat="42.562434728236084" lon="11.525959609434901"><ele>248.0</ele><time>2026-04-24T08:53:23.012Z</time></trkpt><trkpt lat="42.56263079908865" lon="11.525998736985876"><ele>248.0</ele><time>2026-04-24T08:53:24.012Z</time></trkpt><trkpt lat="42.56282786059091" lon="11.526029870999745"><ele>248.0</ele><time>2026-04-24T08:53:25.012Z</time></trkpt><trkpt lat="42.56299708928101" lon="11.526123038955907"><ele>248.0</ele><time>2026-04-24T08:53:26.012Z</time></trkpt><trkpt lat="42.563176289848926" lon="11.52617054279598"><ele>247.66666666666669</ele><time>2026-04-24T08:53:27.012Z</time></trkpt><trkpt lat="42.5633657828616" lon="11.526218852946446"><ele>247.33333333333331</ele><time>2026-04-24T08:53:28.012Z</time></trkpt><trkpt lat="42.56353698380933" lon="11.526284637132845"><ele>247.0</ele><time>2026-04-24T08:53:29.012Z</time></trkpt><trkpt lat="42.56368051532789" lon="11.526390120799645"><ele>244.33333333333331</ele><time>2026-04-24T08:53:30.012Z</time></trkpt><trkpt lat="42.563809155551034" lon="11.526537953697927"><ele>241.66666666666669</ele><time>2026-04-24T08:53:31.012Z</time></trkpt><trkpt lat="42.56393796967249" lon="11.526703929295113"><ele>239.0</ele><time>2026-04-24T08:53:32.012Z</time></trkpt><trkpt lat="42.564034895461575" lon="11.526901277219332"><ele>239.0</ele><time>2026-04-24T08:53:33.012Z</time></trkpt><trkpt lat="42.564131673169335" lon="11.52710676514618"><ele>239.0</ele><time>2026-04-24T08:53:34.013Z</time></trkpt><trkpt lat="42.564221147979914" lon="11.527330270631936"><ele>239.0</ele><time>2026-04-24T08:53:35.013Z</time></trkpt><trkpt lat="42.5643098737297" lon="11.527563120407327"><ele>239.0</ele><time>2026-04-24T08:53:36.013Z</time></trkpt><trkpt lat="42.56440728859209" lon="11.527803291947315"><ele>239.0</ele><time>2026-04-24T08:53:37.013Z</time></trkpt><trkpt lat="42.56450046542055" lon="11.528044628251523"><ele>239.0</ele><time>2026-04-24T08:53:38.013Z</time></trkpt><trkpt lat="42.56460298498714" lon="11.528283110065907"><ele>241.0</ele><time>2026-04-24T08:53:39.013Z</time></trkpt><trkpt lat="42.564700915204796" lon="11.528517178428443"><ele>243.0</ele><time>2026-04-24T08:53:40.013Z</time></trkpt><trkpt lat="42.56480927921365" lon="11.528760366938338"><ele>245.0</ele><time>2026-04-24T08:53:41.013Z</time></trkpt><trkpt lat="42.56491817467077" lon="11.529002599378664"><ele>245.33333333333334</ele><time>2026-04-24T08:53:42.013Z</time></trkpt><trkpt lat="42.56502141415599" lon="11.52924484283682"><ele>245.66666666666669</ele><time>2026-04-24T08:53:43.013Z</time></trkpt><trkpt lat="42.565123978483825" lon="11.529490843450123"><ele>246.0</ele><time>2026-04-24T08:53:44.013Z</time></trkpt><trkpt lat="42.565222675739754" lon="11.52972738392257"><ele>245.33333333333331</ele><time>2026-04-24T08:53:45.013Z</time></trkpt><trkpt lat="42.56532256523475" lon="11.529955778014134"><ele>244.66666666666666</ele><time>2026-04-24T08:53:46.013Z</time></trkpt><trkpt lat="42.565418902733754" lon="11.530183575596173"><ele>244.0</ele><time>2026-04-24T08:53:47.013Z</time></trkpt><trkpt lat="42.565513612181064" lon="11.530401956313339"><ele>247.33333333333331</ele><time>2026-04-24T08:53:48.013Z</time></trkpt><trkpt lat="42.56561158527331" lon="11.530624117616394"><ele>250.66666666666669</ele><time>2026-04-24T08:53:49.013Z</time></trkpt><trkpt lat="42.56570866281264" lon="11.530846690598887"><ele>254.0</ele><time>2026-04-24T08:53:50.013Z</time></trkpt><trkpt lat="42.56579550810654" lon="11.531050413680276"><ele>251.66666666666669</ele><time>2026-04-24T08:53:51.013Z</time></trkpt><trkpt lat="42.565875292360175" lon="11.531226557231765"><ele>249.33333333333331</ele><time>2026-04-24T08:53:52.013Z</time></trkpt><trkpt lat="42.565967708188396" lon="11.531383521231161"><ele>247.0</ele><time>2026-04-24T08:53:53.013Z</time></trkpt><trkpt lat="42.56608411619701" lon="11.531526858222488"><ele>251.0</ele><time>2026-04-24T08:53:54.013Z</time></trkpt><trkpt lat="42.56621859648023" lon="11.531635161051044"><ele>255.0</ele><time>2026-04-24T08:53:55.013Z</time></trkpt><trkpt lat="42.56636092885509" lon="11.531665990567369"><ele>259.0</ele><time>2026-04-24T08:53:56.013Z</time></trkpt><trkpt lat="42.566520236405026" lon="11.531686113448723"><ele>259.0</ele><time>2026-04-24T08:53:57.013Z</time></trkpt><trkpt lat="42.56670006298439" lon="11.5316974984002"><ele>259.0</ele><time>2026-04-24T08:53:58.013Z</time></trkpt><trkpt lat="42.566872346389914" lon="11.531738588128452"><ele>259.0</ele><time>2026-04-24T08:53:59.013Z</time></trkpt><trkpt lat="42.56705129102362" lon="11.531767379236298"><ele>261.0</ele><time>2026-04-24T08:54:00.013Z</time></trkpt><trkpt lat="42.56722744992769" lon="11.531801679836752"><ele>263.0</ele><time>2026-04-24T08:54:01.013Z</time></trkpt><trkpt lat="42.56741313085324" lon="11.531842952396033"><ele>265.0</ele><time>2026-04-24T08:54:02.013Z</time></trkpt><trkpt lat="42.56760140974625" lon="11.531890941687053"><ele>265.0</ele><time>2026-04-24T08:54:03.013Z</time></trkpt><trkpt lat="42.56778907187685" lon="11.531928505409196"><ele>265.0</ele><time>2026-04-24T08:54:04.013Z</time></trkpt><trkpt lat="42.56797417695773" lon="11.53196792493338"><ele>265.0</ele><time>2026-04-24T08:54:05.013Z</time></trkpt><trkpt lat="42.568163037057" lon="11.532010416304889"><ele>265.3333333333333</ele><time>2026-04-24T08:54:06.013Z</time></trkpt><trkpt lat="42.56835248742715" lon="11.532045655343117"><ele>265.6666666666667</ele><time>2026-04-24T08:54:07.013Z</time></trkpt><trkpt lat="42.568529589793755" lon="11.532079184736745"><ele>266.0</ele><time>2026-04-24T08:54:08.013Z</time></trkpt><trkpt lat="42.56869006072765" lon="11.532111794055705"><ele>267.5</ele><time>2026-04-24T08:54:09.013Z</time></trkpt><trkpt lat="42.56883109552898" lon="11.532175048455784"><ele>269.0</ele><time>2026-04-24T08:54:10.013Z</time></trkpt><trkpt lat="42.568945903421074" lon="11.532265438809045"><ele>270.5</ele><time>2026-04-24T08:54:11.013Z</time></trkpt><trkpt lat="42.569045149541175" lon="11.53237183913435"><ele>272.0</ele><time>2026-04-24T08:54:12.013Z</time></trkpt><trkpt lat="42.5691316000844" lon="11.532540405308028"><ele>272.0</ele><time>2026-04-24T08:54:13.013Z</time></trkpt><trkpt lat="42.569202151742054" lon="11.532729326429667"><ele>272.0</ele><time>2026-04-24T08:54:14.013Z</time></trkpt><trkpt lat="42.56927243201382" lon="11.532934203476968"><ele>272.0</ele><time>2026-04-24T08:54:15.013Z</time></trkpt><trkpt lat="42.56934703595984" lon="11.533151262205267"><ele>271.6666666666667</ele><time>2026-04-24T08:54:16.013Z</time></trkpt><trkpt lat="42.569423692635866" lon="11.533374293348661"><ele>271.3333333333333</ele><time>2026-04-24T08:54:17.013Z</time></trkpt><trkpt lat="42.56950322647939" lon="11.533608246127322"><ele>271.0</ele><time>2026-04-24T08:54:18.013Z</time></trkpt><trkpt lat="42.56958352286785" lon="11.533842898272582"><ele>275.66666666666663</ele><time>2026-04-24T08:54:19.013Z</time></trkpt><trkpt lat="42.569662082496755" lon="11.534062943679805"><ele>280.3333333333333</ele><time>2026-04-24T08:54:20.013Z</time></trkpt><trkpt lat="42.56975931107369" lon="11.534258444327262"><ele>285.0</ele><time>2026-04-24T08:54:21.013Z</time></trkpt><trkpt lat="42.56986177162809" lon="11.534449427749013"><ele>284.6666666666667</ele><time>2026-04-24T08:54:22.013Z</time></trkpt><trkpt lat="42.569982451918975" lon="11.534618499320654"><ele>284.33333333333337</ele><time>2026-04-24T08:54:23.013Z</time></trkpt><trkpt lat="42.570130703087685" lon="11.534765455787339"><ele>284.0</ele><time>2026-04-24T08:54:24.013Z</time></trkpt><trkpt lat="42.57029379905375" lon="11.534908542672712"><ele>286.6666666666667</ele><time>2026-04-24T08:54:25.013Z</time></trkpt><trkpt lat="42.57045745801802" lon="11.535059743376696"><ele>289.3333333333333</ele><time>2026-04-24T08:54:26.013Z</time></trkpt><trkpt lat="42.570620546954096" lon="11.535220069268057"><ele>292.0</ele><time>2026-04-24T08:54:27.013Z</time></trkpt><trkpt lat="42.57078276714444" lon="11.535382179168398"><ele>289.66666666666663</ele><time>2026-04-24T08:54:28.013Z</time></trkpt><trkpt lat="42.570937329546666" lon="11.53553010395793"><ele>287.3333333333333</ele><time>2026-04-24T08:54:29.013Z</time></trkpt><trkpt lat="42.571074660356395" lon="11.535665441774492"><ele>285.0</ele><time>2026-04-24T08:54:30.013Z</time></trkpt><trkpt lat="42.57118461905083" lon="11.535783098858284"><ele>286.8</ele><time>2026-04-24T08:54:31.013Z</time></trkpt><trkpt lat="42.57128880267367" lon="11.535910184913071"><ele>288.6</ele><time>2026-04-24T08:54:32.013Z</time></trkpt><trkpt lat="42.571397641469424" lon="11.535977756027897"><ele>290.4</ele><time>2026-04-24T08:54:33.013Z</time></trkpt><trkpt lat="42.57148421431414" lon="11.536055295980834"><ele>292.2</ele><time>2026-04-24T08:54:34.013Z</time></trkpt><trkpt lat="42.5715555910581" lon="11.536111859981691"><ele>294.0</ele><time>2026-04-24T08:54:35.013Z</time></trkpt><trkpt lat="42.57163148593899" lon="11.536192589606728"><ele>294.0</ele><time>2026-04-24T08:54:37.013Z</time></trkpt><trkpt lat="42.57171024425794" lon="11.536047878691909"><ele>294.0</ele><time>2026-04-24T08:54:38.013Z</time></trkpt><trkpt lat="42.57176290923466" lon="11.535895208728983"><ele>294.0</ele><time>2026-04-24T08:54:40.013Z</time></trkpt><trkpt lat="42.57176174152288" lon="11.535795591025005"><ele>294.0</ele><time>2026-04-24T08:54:41.013Z</time></trkpt><trkpt lat="42.571768997518284" lon="11.53570902797464"><ele>294.0</ele><time>2026-04-24T08:54:42.013Z</time></trkpt><trkpt lat="42.57178285897794" lon="11.535607345794078"><ele>294.0</ele><time>2026-04-24T08:54:44.013Z</time></trkpt><trkpt lat="42.571870769724285" lon="11.53568338367923"><ele>294.0</ele><time>2026-04-24T08:54:47.013Z</time></trkpt><trkpt lat="42.57198644899729" lon="11.535757639497648"><ele>294.0</ele><time>2026-04-24T08:54:49.013Z</time></trkpt><trkpt lat="42.57204542541263" lon="11.535813738552946"><ele>294.0</ele><time>2026-04-24T08:54:50.013Z</time></trkpt><trkpt lat="42.57212599496196" lon="11.535884472312347"><ele>294.0</ele><time>2026-04-24T08:54:51.013Z</time></trkpt><trkpt lat="42.57220730647758" lon="11.535934353677641"><ele>295.8</ele><time>2026-04-24T08:54:52.013Z</time></trkpt><trkpt lat="42.57230766720122" lon="11.535986936390636"><ele>297.59999999999997</ele><time>2026-04-24T08:54:53.013Z</time></trkpt><trkpt lat="42.57241302892218" lon="11.536041166826767"><ele>299.4</ele><time>2026-04-24T08:54:54.013Z</time></trkpt><trkpt lat="42.572511914847894" lon="11.536090689005619"><ele>301.2</ele><time>2026-04-24T08:54:55.013Z</time></trkpt><trkpt lat="42.57260889876387" lon="11.536146372241907"><ele>303.0</ele><time>2026-04-24T08:54:56.013Z</time></trkpt><trkpt lat="42.57268760203347" lon="11.536195208273007"><ele>303.5</ele><time>2026-04-24T08:54:57.013Z</time></trkpt><trkpt lat="42.5727660476066" lon="11.536238390903605"><ele>304.0</ele><time>2026-04-24T08:54:58.013Z</time></trkpt><trkpt lat="42.57284303728513" lon="11.53627895771342"><ele>304.5</ele><time>2026-04-24T08:54:59.013Z</time></trkpt><trkpt lat="42.57291725966856" lon="11.536317164071814"><ele>305.0</ele><time>2026-04-24T08:55:00.013Z</time></trkpt><trkpt lat="42.572982429783835" lon="11.536350987609476"><ele>305.5</ele><time>2026-04-24T08:55:01.013Z</time></trkpt><trkpt lat="42.57306336168579" lon="11.536398829654143"><ele>306.0</ele><time>2026-04-24T08:55:02.013Z</time></trkpt><trkpt lat="42.573164779229224" lon="11.536450140035772"><ele>306.0</ele><time>2026-04-24T08:55:03.013Z</time></trkpt><trkpt lat="42.573282554663514" lon="11.536529393072318"><ele>306.0</ele><time>2026-04-24T08:55:04.013Z</time></trkpt><trkpt lat="42.5734085236618" lon="11.536609663690603"><ele>306.0</ele><time>2026-04-24T08:55:05.013Z</time></trkpt><trkpt lat="42.57353399853843" lon="11.53667956995449"><ele>306.0</ele><time>2026-04-24T08:55:06.013Z</time></trkpt><trkpt lat="42.57365980920492" lon="11.53675146626899"><ele>305.75</ele><time>2026-04-24T08:55:07.013Z</time></trkpt><trkpt lat="42.57378172247061" lon="11.536819983324458"><ele>305.5</ele><time>2026-04-24T08:55:08.013Z</time></trkpt><trkpt lat="42.57390421273644" lon="11.53689625385975"><ele>305.25</ele><time>2026-04-24T08:55:09.013Z</time></trkpt><trkpt lat="42.574019397933164" lon="11.536981177570894"><ele>305.0</ele><time>2026-04-24T08:55:10.013Z</time></trkpt><trkpt lat="42.57414234467322" lon="11.53707201848265"><ele>305.0</ele><time>2026-04-24T08:55:11.013Z</time></trkpt><trkpt lat="42.574276681322864" lon="11.537160235660645"><ele>305.0</ele><time>2026-04-24T08:55:12.013Z</time></trkpt><trkpt lat="42.57442584214692" lon="11.537251090935147"><ele>305.0</ele><time>2026-04-24T08:55:13.013Z</time></trkpt><trkpt lat="42.574565136465516" lon="11.537351075165432"><ele>307.33333333333337</ele><time>2026-04-24T08:55:14.013Z</time></trkpt><trkpt lat="42.57469106202978" lon="11.537481298010867"><ele>309.6666666666667</ele><time>2026-04-24T08:55:15.013Z</time></trkpt><trkpt lat="42.57482138979727" lon="11.537611882082352"><ele>312.0</ele><time>2026-04-24T08:55:16.013Z</time></trkpt><trkpt lat="42.5749501688298" lon="11.537754848129527"><ele>311.0</ele><time>2026-04-24T08:55:17.013Z</time></trkpt><trkpt lat="42.575085043290876" lon="11.537893362918519"><ele>310.0</ele><time>2026-04-24T08:55:18.013Z</time></trkpt><trkpt lat="42.57522904382921" lon="11.53803023007147"><ele>309.0</ele><time>2026-04-24T08:55:19.013Z</time></trkpt><trkpt lat="42.575371136646794" lon="11.538174307230756"><ele>309.0</ele><time>2026-04-24T08:55:20.013Z</time></trkpt><trkpt lat="42.57550951222705" lon="11.538317526638432"><ele>309.0</ele><time>2026-04-24T08:55:21.013Z</time></trkpt><trkpt lat="42.57564918197129" lon="11.538465990469268"><ele>309.0</ele><time>2026-04-24T08:55:22.013Z</time></trkpt><trkpt lat="42.57579632999645" lon="11.538615614582682"><ele>309.3333333333333</ele><time>2026-04-24T08:55:23.013Z</time></trkpt><trkpt lat="42.57594552528431" lon="11.538765145681326"><ele>309.66666666666663</ele><time>2026-04-24T08:55:24.013Z</time></trkpt><trkpt lat="42.57608789296022" lon="11.538920158684746"><ele>310.0</ele><time>2026-04-24T08:55:25.013Z</time></trkpt><trkpt lat="42.57623030817388" lon="11.53908236885103"><ele>310.0</ele><time>2026-04-24T08:55:26.013Z</time></trkpt><trkpt lat="42.57636839548337" lon="11.539246320601169"><ele>310.0</ele><time>2026-04-24T08:55:27.013Z</time></trkpt><trkpt lat="42.576513524884966" lon="11.539413300311276"><ele>310.0</ele><time>2026-04-24T08:55:28.013Z</time></trkpt><trkpt lat="42.5766656858952" lon="11.539572940372462"><ele>310.0</ele><time>2026-04-24T08:55:29.013Z</time></trkpt><trkpt lat="42.57681713937991" lon="11.539726325095433"><ele>310.0</ele><time>2026-04-24T08:55:30.014Z</time></trkpt><trkpt lat="42.57696381472995" lon="11.539872721924475"><ele>310.0</ele><time>2026-04-24T08:55:31.014Z</time></trkpt><trkpt lat="42.57707956651211" lon="11.540024364375434"><ele>310.0</ele><time>2026-04-24T08:55:32.014Z</time></trkpt><trkpt lat="42.5772031450729" lon="11.540139110917673"><ele>310.0</ele><time>2026-04-24T08:55:33.014Z</time></trkpt><trkpt lat="42.577314647296824" lon="11.540243460020253"><ele>310.0</ele><time>2026-04-24T08:55:34.014Z</time></trkpt><trkpt lat="42.57742237499859" lon="11.540340939594206"><ele>310.0</ele><time>2026-04-24T08:55:35.014Z</time></trkpt><trkpt lat="42.57755271872945" lon="11.54038401585698"><ele>308.5</ele><time>2026-04-24T08:55:36.014Z</time></trkpt><trkpt lat="42.57767908667162" lon="11.540403851685392"><ele>307.0</ele><time>2026-04-24T08:55:37.014Z</time></trkpt><trkpt lat="42.57781137117765" lon="11.540427071098478"><ele>305.5</ele><time>2026-04-24T08:55:38.014Z</time></trkpt><trkpt lat="42.577936417800544" lon="11.54044267742134"><ele>304.0</ele><time>2026-04-24T08:55:39.014Z</time></trkpt><trkpt lat="42.57805344673141" lon="11.54050082400739"><ele>304.0</ele><time>2026-04-24T08:55:40.014Z</time></trkpt><trkpt lat="42.57816576713851" lon="11.54055640408751"><ele>304.0</ele><time>2026-04-24T08:55:41.014Z</time></trkpt><trkpt lat="42.57827481144846" lon="11.540649430266553"><ele>304.0</ele><time>2026-04-24T08:55:42.014Z</time></trkpt><trkpt lat="42.57836040132758" lon="11.540729594807367"><ele>304.0</ele><time>2026-04-24T08:55:43.014Z</time></trkpt><trkpt lat="42.57841932225413" lon="11.540791410291618"><ele>304.0</ele><time>2026-04-24T08:55:44.014Z</time></trkpt><trkpt lat="42.57854988023095" lon="11.540713687974575"><ele>304.0</ele><time>2026-04-24T08:55:46.014Z</time></trkpt><trkpt lat="42.5786406625228" lon="11.540663258264148"><ele>304.0</ele><time>2026-04-24T08:55:47.014Z</time></trkpt><trkpt lat="42.57874245003583" lon="11.540592532355221"><ele>304.0</ele><time>2026-04-24T08:55:48.014Z</time></trkpt><trkpt lat="42.57885756813753" lon="11.540543089777733"><ele>304.0</ele><time>2026-04-24T08:55:49.014Z</time></trkpt><trkpt lat="42.57896160007471" lon="11.54054800586152"><ele>304.0</ele><time>2026-04-24T08:55:50.014Z</time></trkpt><trkpt lat="42.57905831123241" lon="11.540562471829988"><ele>301.5</ele><time>2026-04-24T08:55:51.014Z</time></trkpt><trkpt lat="42.57915653853877" lon="11.540601684974522"><ele>299.0</ele><time>2026-04-24T08:55:52.014Z</time></trkpt><trkpt lat="42.57926753958191" lon="11.54066881649776"><ele>296.5</ele><time>2026-04-24T08:55:53.014Z</time></trkpt><trkpt lat="42.57937982356468" lon="11.540761117943179"><ele>294.0</ele><time>2026-04-24T08:55:54.014Z</time></trkpt><trkpt lat="42.579494530925885" lon="11.540869915300611"><ele>294.0</ele><time>2026-04-24T08:55:55.014Z</time></trkpt><trkpt lat="42.57960460133094" lon="11.540948752794458"><ele>294.0</ele><time>2026-04-24T08:55:56.014Z</time></trkpt><trkpt lat="42.57970361437849" lon="11.54103763139092"><ele>294.0</ele><time>2026-04-24T08:55:57.014Z</time></trkpt><trkpt lat="42.57979882731465" lon="11.541136531769611"><ele>294.0</ele><time>2026-04-24T08:55:58.014Z</time></trkpt><trkpt lat="42.5799164271852" lon="11.541208446642763"><ele>292.25</ele><time>2026-04-24T08:55:59.014Z</time></trkpt><trkpt lat="42.58005278632939" lon="11.54125326606338"><ele>290.5</ele><time>2026-04-24T08:56:00.014Z</time></trkpt><trkpt lat="42.580179897665154" lon="11.541272618645806"><ele>288.75</ele><time>2026-04-24T08:56:01.014Z</time></trkpt><trkpt lat="42.58029574568531" lon="11.541324401179512"><ele>287.0</ele><time>2026-04-24T08:56:02.014Z</time></trkpt><trkpt lat="42.58041800587163" lon="11.541365474569258"><ele>287.0</ele><time>2026-04-24T08:56:03.014Z</time></trkpt><trkpt lat="42.5805386744401" lon="11.541414483078153"><ele>287.0</ele><time>2026-04-24T08:56:04.014Z</time></trkpt><trkpt lat="42.580648423162565" lon="11.541470300533911"><ele>287.0</ele><time>2026-04-24T08:56:05.014Z</time></trkpt><trkpt lat="42.580741057514594" lon="11.54152237211752"><ele>287.0</ele><time>2026-04-24T08:56:06.014Z</time></trkpt><trkpt lat="42.58083606878577" lon="11.54156673959824"><ele>287.0</ele><time>2026-04-24T08:56:07.014Z</time></trkpt><trkpt lat="42.58094222597218" lon="11.54159722012453"><ele>287.0</ele><time>2026-04-24T08:56:08.014Z</time></trkpt><trkpt lat="42.581056750609356" lon="11.541601015286188"><ele>287.0</ele><time>2026-04-24T08:56:09.014Z</time></trkpt><trkpt lat="42.58117429483426" lon="11.541616305856376"><ele>287.0</ele><time>2026-04-24T08:56:10.014Z</time></trkpt><trkpt lat="42.58128314933713" lon="11.541620199339135"><ele>287.0</ele><time>2026-04-24T08:56:11.014Z</time></trkpt><trkpt lat="42.58143281520169" lon="11.541627054730718"><ele>287.0</ele><time>2026-04-24T08:56:12.014Z</time></trkpt><trkpt lat="42.5815902575333" lon="11.541644480543924"><ele>287.0</ele><time>2026-04-24T08:56:13.014Z</time></trkpt><trkpt lat="42.58176243217174" lon="11.541651644927175"><ele>287.0</ele><time>2026-04-24T08:56:14.014Z</time></trkpt><trkpt lat="42.58192566370771" lon="11.54165059394596"><ele>287.0</ele><time>2026-04-24T08:56:15.014Z</time></trkpt><trkpt lat="42.582081472525076" lon="11.541643151722546"><ele>287.0</ele><time>2026-04-24T08:56:16.014Z</time></trkpt><trkpt lat="42.58224403050808" lon="11.541647004937033"><ele>287.0</ele><time>2026-04-24T08:56:17.014Z</time></trkpt><trkpt lat="42.58239326823895" lon="11.541644652737157"><ele>287.0</ele><time>2026-04-24T08:56:18.014Z</time></trkpt><trkpt lat="42.58255034926282" lon="11.54162077642761"><ele>287.0</ele><time>2026-04-24T08:56:19.014Z</time></trkpt><trkpt lat="42.58268923082571" lon="11.541579549423737"><ele>287.0</ele><time>2026-04-24T08:56:20.014Z</time></trkpt><trkpt lat="42.58282743782706" lon="11.541520753008301"><ele>287.0</ele><time>2026-04-24T08:56:21.014Z</time></trkpt><trkpt lat="42.58297143700352" lon="11.541516696667296"><ele>287.0</ele><time>2026-04-24T08:56:22.014Z</time></trkpt><trkpt lat="42.583092867003" lon="11.54151907446755"><ele>287.0</ele><time>2026-04-24T08:56:23.014Z</time></trkpt><trkpt lat="42.58320898578536" lon="11.541548071993049"><ele>287.0</ele><time>2026-04-24T08:56:24.014Z</time></trkpt><trkpt lat="42.5833377672608" lon="11.541581225465462"><ele>287.0</ele><time>2026-04-24T08:56:25.014Z</time></trkpt><trkpt lat="42.583479454551764" lon="11.541619435611718"><ele>287.0</ele><time>2026-04-24T08:56:26.014Z</time></trkpt><trkpt lat="42.58363958282694" lon="11.541640512048064"><ele>287.0</ele><time>2026-04-24T08:56:27.014Z</time></trkpt><trkpt lat="42.583783640881435" lon="11.541645270135856"><ele>287.0</ele><time>2026-04-24T08:56:28.014Z</time></trkpt><trkpt lat="42.5839193926966" lon="11.541637105578879"><ele>287.0</ele><time>2026-04-24T08:56:29.014Z</time></trkpt><trkpt lat="42.58404341044653" lon="11.541666798445437"><ele>286.25</ele><time>2026-04-24T08:56:30.014Z</time></trkpt><trkpt lat="42.5841727324013" lon="11.541663997133538"><ele>285.5</ele><time>2026-04-24T08:56:31.014Z</time></trkpt><trkpt lat="42.584311751437696" lon="11.54169740678753"><ele>284.75</ele><time>2026-04-24T08:56:32.014Z</time></trkpt><trkpt lat="42.58445674701555" lon="11.541726924146136"><ele>284.0</ele><time>2026-04-24T08:56:33.014Z</time></trkpt><trkpt lat="42.58459999019456" lon="11.541758713011234"><ele>282.33333333333337</ele><time>2026-04-24T08:56:34.014Z</time></trkpt><trkpt lat="42.58475929939141" lon="11.541769200474333"><ele>280.6666666666667</ele><time>2026-04-24T08:56:35.014Z</time></trkpt><trkpt lat="42.58490175669376" lon="11.541773266096822"><ele>279.0</ele><time>2026-04-24T08:56:36.014Z</time></trkpt><trkpt lat="42.585063221792986" lon="11.541773901970847"><ele>279.0</ele><time>2026-04-24T08:56:37.014Z</time></trkpt><trkpt lat="42.585235253391346" lon="11.541766652345071"><ele>279.0</ele><time>2026-04-24T08:56:38.014Z</time></trkpt><trkpt lat="42.585380731621754" lon="11.54175747251215"><ele>279.0</ele><time>2026-04-24T08:56:39.014Z</time></trkpt><trkpt lat="42.58552483893192" lon="11.54179162407434"><ele>277.25</ele><time>2026-04-24T08:56:40.014Z</time></trkpt><trkpt lat="42.5856657825523" lon="11.541818571495169"><ele>275.5</ele><time>2026-04-24T08:56:41.014Z</time></trkpt><trkpt lat="42.585811771869665" lon="11.541862782702708"><ele>273.75</ele><time>2026-04-24T08:56:42.015Z</time></trkpt><trkpt lat="42.585960839008166" lon="11.541909414271823"><ele>272.0</ele><time>2026-04-24T08:56:43.015Z</time></trkpt><trkpt lat="42.586118081064626" lon="11.541982375438144"><ele>272.6666666666667</ele><time>2026-04-24T08:56:44.015Z</time></trkpt><trkpt lat="42.58628977491137" lon="11.542081982002216"><ele>273.3333333333333</ele><time>2026-04-24T08:56:45.015Z</time></trkpt><trkpt lat="42.586449182627675" lon="11.542165984335485"><ele>274.0</ele><time>2026-04-24T08:56:46.015Z</time></trkpt><trkpt lat="42.58659993939053" lon="11.542258794341564"><ele>274.0</ele><time>2026-04-24T08:56:47.015Z</time></trkpt><trkpt lat="42.58674696289555" lon="11.542352593386628"><ele>274.0</ele><time>2026-04-24T08:56:48.015Z</time></trkpt><trkpt lat="42.586895327163155" lon="11.54243991037097"><ele>274.0</ele><time>2026-04-24T08:56:49.015Z</time></trkpt><trkpt lat="42.58702070490092" lon="11.54251053596282"><ele>272.0</ele><time>2026-04-24T08:56:50.015Z</time></trkpt><trkpt lat="42.587166831097036" lon="11.542556383596924"><ele>270.0</ele><time>2026-04-24T08:56:51.015Z</time></trkpt><trkpt lat="42.587314636075064" lon="11.542580972761339"><ele>268.0</ele><time>2026-04-24T08:56:52.015Z</time></trkpt><trkpt lat="42.58747460033105" lon="11.542590717974516"><ele>268.0</ele><time>2026-04-24T08:56:53.015Z</time></trkpt><trkpt lat="42.58763882946225" lon="11.542582871774208"><ele>268.0</ele><time>2026-04-24T08:56:54.015Z</time></trkpt><trkpt lat="42.587809383361765" lon="11.542579634443225"><ele>268.0</ele><time>2026-04-24T08:56:55.015Z</time></trkpt><trkpt lat="42.58798191641883" lon="11.542571081846559"><ele>265.0</ele><time>2026-04-24T08:56:56.015Z</time></trkpt><trkpt lat="42.588159768026436" lon="11.542553385313163"><ele>262.0</ele><time>2026-04-24T08:56:57.015Z</time></trkpt><trkpt lat="42.588330659058876" lon="11.542531446012017"><ele>259.0</ele><time>2026-04-24T08:56:58.015Z</time></trkpt><trkpt lat="42.58849299688283" lon="11.542500982765143"><ele>259.0</ele><time>2026-04-24T08:56:59.015Z</time></trkpt><trkpt lat="42.58865644189198" lon="11.542477558026059"><ele>259.0</ele><time>2026-04-24T08:57:00.015Z</time></trkpt><trkpt lat="42.5888058772175" lon="11.54246723420869"><ele>259.0</ele><time>2026-04-24T08:57:01.015Z</time></trkpt><trkpt lat="42.58894876815957" lon="11.542443994739603"><ele>258.5</ele><time>2026-04-24T08:57:02.015Z</time></trkpt><trkpt lat="42.58908337509475" lon="11.542416773010329"><ele>258.0</ele><time>2026-04-24T08:57:03.015Z</time></trkpt><trkpt lat="42.58921290480861" lon="11.542365723741916"><ele>257.5</ele><time>2026-04-24T08:57:04.015Z</time></trkpt><trkpt lat="42.589340802019834" lon="11.542289168773532"><ele>257.0</ele><time>2026-04-24T08:57:05.015Z</time></trkpt><trkpt lat="42.589476817889505" lon="11.542201609742142"><ele>257.6666666666667</ele><time>2026-04-24T08:57:06.015Z</time></trkpt><trkpt lat="42.589606225569625" lon="11.542154765314402"><ele>258.3333333333333</ele><time>2026-04-24T08:57:07.015Z</time></trkpt><trkpt lat="42.589751253977134" lon="11.54211747452443"><ele>259.0</ele><time>2026-04-24T08:57:08.015Z</time></trkpt><trkpt lat="42.58991996196305" lon="11.542130194266903"><ele>259.0</ele><time>2026-04-24T08:57:09.015Z</time></trkpt><trkpt lat="42.59008235660293" lon="11.54211645348667"><ele>259.0</ele><time>2026-04-24T08:57:10.015Z</time></trkpt><trkpt lat="42.590276683470236" lon="11.542100165117608"><ele>259.0</ele><time>2026-04-24T08:57:11.015Z</time></trkpt><trkpt lat="42.59046045963393" lon="11.542089610592967"><ele>258.0</ele><time>2026-04-24T08:57:12.015Z</time></trkpt><trkpt lat="42.59063923392129" lon="11.542067566726546"><ele>257.0</ele><time>2026-04-24T08:57:13.015Z</time></trkpt><trkpt lat="42.590819918410105" lon="11.542043646886256"><ele>256.0</ele><time>2026-04-24T08:57:13.994Z</time></trkpt><trkpt lat="42.59098954958545" lon="11.54200972735541"><ele>256.0</ele><time>2026-04-24T08:57:14.994Z</time></trkpt><trkpt lat="42.591157666347414" lon="11.541967830271881"><ele>256.0</ele><time>2026-04-24T08:57:15.994Z</time></trkpt><trkpt lat="42.59132298693533" lon="11.5419594044197"><ele>256.0</ele><time>2026-04-24T08:57:16.994Z</time></trkpt><trkpt lat="42.59148144356964" lon="11.541935720368137"><ele>257.0</ele><time>2026-04-24T08:57:17.994Z</time></trkpt><trkpt lat="42.59164156805256" lon="11.541886979144627"><ele>258.0</ele><time>2026-04-24T08:57:18.994Z</time></trkpt><trkpt lat="42.59178575083412" lon="11.541878114670624"><ele>259.0</ele><time>2026-04-24T08:57:19.994Z</time></trkpt><trkpt lat="42.591937426897054" lon="11.54185106920008"><ele>258.66666666666663</ele><time>2026-04-24T08:57:20.994Z</time></trkpt><trkpt lat="42.59208835192129" lon="11.54181302580157"><ele>258.3333333333333</ele><time>2026-04-24T08:57:21.994Z</time></trkpt><trkpt lat="42.59225199015743" lon="11.541803916466327"><ele>258.0</ele><time>2026-04-24T08:57:22.994Z</time></trkpt><trkpt lat="42.59238515598314" lon="11.54179754043891"><ele>258.0</ele><time>2026-04-24T08:57:23.994Z</time></trkpt><trkpt lat="42.59251252207946" lon="11.541811187401"><ele>258.0</ele><time>2026-04-24T08:57:24.994Z</time></trkpt><trkpt lat="42.59263563479" lon="11.54184047939045"><ele>258.0</ele><time>2026-04-24T08:57:25.994Z</time></trkpt><trkpt lat="42.592748474986514" lon="11.541889623708501"><ele>258.0</ele><time>2026-04-24T08:57:26.994Z</time></trkpt><trkpt lat="42.59287190087079" lon="11.54193259467491"><ele>256.75</ele><time>2026-04-24T08:57:27.994Z</time></trkpt><trkpt lat="42.59299869243717" lon="11.541969505336938"><ele>255.5</ele><time>2026-04-24T08:57:28.994Z</time></trkpt><trkpt lat="42.59313308742558" lon="11.541993593747739"><ele>254.25</ele><time>2026-04-24T08:57:29.994Z</time></trkpt><trkpt lat="42.593263811433694" lon="11.541977417406757"><ele>253.0</ele><time>2026-04-24T08:57:30.994Z</time></trkpt><trkpt lat="42.59339586092289" lon="11.541935862383879"><ele>253.0</ele><time>2026-04-24T08:57:31.994Z</time></trkpt><trkpt lat="42.59352628125704" lon="11.541903291997487"><ele>253.0</ele><time>2026-04-24T08:57:32.994Z</time></trkpt><trkpt lat="42.593629914947556" lon="11.541790150335176"><ele>253.0</ele><time>2026-04-24T08:57:33.994Z</time></trkpt><trkpt lat="42.59371152943795" lon="11.541670087461185"><ele>253.0</ele><time>2026-04-24T08:57:34.994Z</time></trkpt><trkpt lat="42.59379415161262" lon="11.541545223863286"><ele>252.75</ele><time>2026-04-24T08:57:35.994Z</time></trkpt><trkpt lat="42.59389547576374" lon="11.541430779335357"><ele>252.5</ele><time>2026-04-24T08:57:36.994Z</time></trkpt><trkpt lat="42.5939955350396" lon="11.541361952235585"><ele>252.25</ele><time>2026-04-24T08:57:37.994Z</time></trkpt><trkpt lat="42.59413293536242" lon="11.541301649885758"><ele>252.0</ele><time>2026-04-24T08:57:38.994Z</time></trkpt><trkpt lat="42.59427205384235" lon="11.541286980206317"><ele>252.0</ele><time>2026-04-24T08:57:39.994Z</time></trkpt><trkpt lat="42.594422111856616" lon="11.541258247222236"><ele>252.0</ele><time>2026-04-24T08:57:40.994Z</time></trkpt><trkpt lat="42.5945637542439" lon="11.541214966402963"><ele>252.0</ele><time>2026-04-24T08:57:41.994Z</time></trkpt><trkpt lat="42.59472389033284" lon="11.541154456159417"><ele>251.66666666666669</ele><time>2026-04-24T08:57:42.994Z</time></trkpt><trkpt lat="42.59490070305823" lon="11.541114560439414"><ele>251.33333333333334</ele><time>2026-04-24T08:57:43.994Z</time></trkpt><trkpt lat="42.595058838970424" lon="11.54107133029045"><ele>251.0</ele><time>2026-04-24T08:57:44.994Z</time></trkpt><trkpt lat="42.59521290854157" lon="11.54105399190294"><ele>251.33333333333334</ele><time>2026-04-24T08:57:45.994Z</time></trkpt><trkpt lat="42.59537327351011" lon="11.541036543088447"><ele>251.66666666666669</ele><time>2026-04-24T08:57:46.994Z</time></trkpt><trkpt lat="42.5955319127637" lon="11.541021514226657"><ele>252.0</ele><time>2026-04-24T08:57:47.994Z</time></trkpt><trkpt lat="42.595683150500015" lon="11.541006234718665"><ele>252.0</ele><time>2026-04-24T08:57:48.994Z</time></trkpt><trkpt lat="42.59582362223364" lon="11.540984233841913"><ele>252.0</ele><time>2026-04-24T08:57:49.994Z</time></trkpt><trkpt lat="42.595960254524485" lon="11.540950937312122"><ele>252.0</ele><time>2026-04-24T08:57:50.994Z</time></trkpt><trkpt lat="42.59609347821507" lon="11.540912360497044"><ele>252.0</ele><time>2026-04-24T08:57:51.994Z</time></trkpt><trkpt lat="42.596227764897286" lon="11.540875403424469"><ele>251.25</ele><time>2026-04-24T08:57:52.994Z</time></trkpt><trkpt lat="42.59636500058836" lon="11.540847630433309"><ele>250.5</ele><time>2026-04-24T08:57:53.994Z</time></trkpt><trkpt lat="42.596497673230424" lon="11.540813216141114"><ele>249.75</ele><time>2026-04-24T08:57:54.994Z</time></trkpt><trkpt lat="42.59661152782128" lon="11.540757706013041"><ele>249.0</ele><time>2026-04-24T08:57:55.994Z</time></trkpt><trkpt lat="42.59672576125251" lon="11.540681823446482"><ele>249.0</ele><time>2026-04-24T08:57:56.994Z</time></trkpt><trkpt lat="42.596844226834804" lon="11.540586997644485"><ele>249.0</ele><time>2026-04-24T08:57:57.994Z</time></trkpt><trkpt lat="42.596947355959635" lon="11.54050950164256"><ele>249.0</ele><time>2026-04-24T08:57:58.994Z</time></trkpt><trkpt lat="42.597051373104954" lon="11.540463962764214"><ele>249.0</ele><time>2026-04-24T08:57:59.994Z</time></trkpt><trkpt lat="42.59714891012129" lon="11.540400047398167"><ele>249.2</ele><time>2026-04-24T08:58:00.993Z</time></trkpt><trkpt lat="42.59723990793024" lon="11.54034011531972"><ele>249.39999999999998</ele><time>2026-04-24T08:58:01.992Z</time></trkpt><trkpt lat="42.59732156403292" lon="11.540286784324907"><ele>249.6</ele><time>2026-04-24T08:58:02.993Z</time></trkpt><trkpt lat="42.59741041741904" lon="11.54023961332237"><ele>249.8</ele><time>2026-04-24T08:58:03.993Z</time></trkpt><trkpt lat="42.59748269769755" lon="11.540203311084387"><ele>250.0</ele><time>2026-04-24T08:58:04.992Z</time></trkpt><trkpt lat="42.597581117209586" lon="11.540158621696314"><ele>250.0</ele><time>2026-04-24T08:58:06.993Z</time></trkpt><trkpt lat="42.59752002270683" lon="11.540363493427334"><ele>250.0</ele><time>2026-04-24T08:58:10.993Z</time></trkpt><trkpt lat="42.59749958137804" lon="11.540464080093416"><ele>250.0</ele><time>2026-04-24T08:58:11.993Z</time></trkpt><trkpt lat="42.59747388573088" lon="11.540577991667227"><ele>250.0</ele><time>2026-04-24T08:58:12.993Z</time></trkpt><trkpt lat="42.59744508489918" lon="11.54069719072124"><ele>250.0</ele><time>2026-04-24T08:58:13.993Z</time></trkpt><trkpt lat="42.59741724572823" lon="11.540804331901395"><ele>250.75</ele><time>2026-04-24T08:58:14.993Z</time></trkpt><trkpt lat="42.597379537567264" lon="11.540931664722118"><ele>251.5</ele><time>2026-04-24T08:58:15.993Z</time></trkpt><trkpt lat="42.59735236790431" lon="11.541083958574625"><ele>252.25</ele><time>2026-04-24T08:58:16.993Z</time></trkpt><trkpt lat="42.597283007644855" lon="11.541246762254755"><ele>253.0</ele><time>2026-04-24T08:58:17.993Z</time></trkpt><trkpt lat="42.59724038630564" lon="11.54141876656331"><ele>253.0</ele><time>2026-04-24T08:58:18.993Z</time></trkpt><trkpt lat="42.597212234083905" lon="11.54158982321965"><ele>253.0</ele><time>2026-04-24T08:58:19.993Z</time></trkpt><trkpt lat="42.59719071975502" lon="11.541755678611482"><ele>253.0</ele><time>2026-04-24T08:58:20.993Z</time></trkpt><trkpt lat="42.5971764213704" lon="11.541924723100786"><ele>253.0</ele><time>2026-04-24T08:58:21.993Z</time></trkpt><trkpt lat="42.59717777192868" lon="11.542098908402153"><ele>254.0</ele><time>2026-04-24T08:58:22.993Z</time></trkpt><trkpt lat="42.59717629037885" lon="11.542277549016296"><ele>255.0</ele><time>2026-04-24T08:58:23.993Z</time></trkpt><trkpt lat="42.59718311990974" lon="11.54248004273527"><ele>256.0</ele><time>2026-04-24T08:58:24.993Z</time></trkpt><trkpt lat="42.59718764009174" lon="11.54267585982696"><ele>257.0</ele><time>2026-04-24T08:58:25.993Z</time></trkpt><trkpt lat="42.59718854340448" lon="11.542874568283182"><ele>258.6666666666667</ele><time>2026-04-24T08:58:26.993Z</time></trkpt><trkpt lat="42.59719688820583" lon="11.543095141990776"><ele>260.3333333333333</ele><time>2026-04-24T08:58:27.993Z</time></trkpt><trkpt lat="42.59720050366937" lon="11.54329586443161"><ele>262.0</ele><time>2026-04-24T08:58:28.993Z</time></trkpt><trkpt lat="42.59716750404863" lon="11.543489092326688"><ele>262.0</ele><time>2026-04-24T08:58:29.993Z</time></trkpt><trkpt lat="42.59714130022997" lon="11.543674398738272"><ele>262.0</ele><time>2026-04-24T08:58:30.993Z</time></trkpt><trkpt lat="42.59711948024129" lon="11.543851398060433"><ele>262.0</ele><time>2026-04-24T08:58:31.993Z</time></trkpt><trkpt lat="42.5970852329004" lon="11.544027999076917"><ele>262.0</ele><time>2026-04-24T08:58:32.993Z</time></trkpt><trkpt lat="42.59705903329404" lon="11.544214923616126"><ele>262.75</ele><time>2026-04-24T08:58:33.993Z</time></trkpt><trkpt lat="42.59703621493744" lon="11.544387609440616"><ele>263.5</ele><time>2026-04-24T08:58:34.993Z</time></trkpt><trkpt lat="42.596989048736944" lon="11.544547681262815"><ele>264.25</ele><time>2026-04-24T08:58:35.993Z</time></trkpt><trkpt lat="42.59692757769225" lon="11.544692626536344"><ele>265.0</ele><time>2026-04-24T08:58:36.993Z</time></trkpt><trkpt lat="42.59684243961599" lon="11.544840738513969"><ele>266.5</ele><time>2026-04-24T08:58:37.993Z</time></trkpt><trkpt lat="42.596736202216974" lon="11.544966573995767"><ele>268.0</ele><time>2026-04-24T08:58:38.993Z</time></trkpt><trkpt lat="42.59664438945273" lon="11.545112132926759"><ele>269.5</ele><time>2026-04-24T08:58:39.993Z</time></trkpt><trkpt lat="42.596572968712074" lon="11.545246573462032"><ele>271.0</ele><time>2026-04-24T08:58:40.993Z</time></trkpt><trkpt lat="42.59651347420327" lon="11.545392296392658"><ele>272.0</ele><time>2026-04-24T08:58:41.993Z</time></trkpt><trkpt lat="42.59646047694864" lon="11.545552062428035"><ele>273.0</ele><time>2026-04-24T08:58:42.993Z</time></trkpt><trkpt lat="42.59642851645586" lon="11.545744995148604"><ele>274.0</ele><time>2026-04-24T08:58:43.993Z</time></trkpt><trkpt lat="42.59641703166789" lon="11.545938083532821"><ele>275.0</ele><time>2026-04-24T08:58:44.993Z</time></trkpt><trkpt lat="42.59640745357765" lon="11.54611717052103"><ele>276.5</ele><time>2026-04-24T08:58:45.993Z</time></trkpt><trkpt lat="42.596389100717616" lon="11.546308024052665"><ele>278.0</ele><time>2026-04-24T08:58:46.993Z</time></trkpt><trkpt lat="42.59638048717707" lon="11.546502336959586"><ele>279.5</ele><time>2026-04-24T08:58:47.993Z</time></trkpt><trkpt lat="42.596396735611584" lon="11.546696890499367"><ele>281.0</ele><time>2026-04-24T08:58:48.993Z</time></trkpt><trkpt lat="42.596415001045514" lon="11.5468826508623"><ele>282.75</ele><time>2026-04-24T08:58:49.993Z</time></trkpt><trkpt lat="42.59644061294216" lon="11.54704832643714"><ele>284.5</ele><time>2026-04-24T08:58:50.993Z</time></trkpt><trkpt lat="42.59645342816604" lon="11.547226093255171"><ele>286.25</ele><time>2026-04-24T08:58:51.993Z</time></trkpt><trkpt lat="42.59645552469428" lon="11.547403001942024"><ele>288.0</ele><time>2026-04-24T08:58:52.993Z</time></trkpt><trkpt lat="42.59644673332541" lon="11.547578297986314"><ele>288.0</ele><time>2026-04-24T08:58:53.993Z</time></trkpt><trkpt lat="42.59644242106035" lon="11.547751642785848"><ele>288.0</ele><time>2026-04-24T08:58:54.993Z</time></trkpt><trkpt lat="42.59643981439253" lon="11.547929172627674"><ele>288.0</ele><time>2026-04-24T08:58:55.993Z</time></trkpt><trkpt lat="42.59643318844349" lon="11.548108535719257"><ele>288.0</ele><time>2026-04-24T08:58:56.993Z</time></trkpt><trkpt lat="42.59643455743269" lon="11.548298382820674"><ele>289.0</ele><time>2026-04-24T08:58:57.993Z</time></trkpt><trkpt lat="42.596436515208744" lon="11.548477401382685"><ele>290.0</ele><time>2026-04-24T08:58:58.993Z</time></trkpt><trkpt lat="42.59643065815815" lon="11.548659943252686"><ele>291.0</ele><time>2026-04-24T08:58:59.993Z</time></trkpt><trkpt lat="42.59640669291909" lon="11.54883033272229"><ele>292.0</ele><time>2026-04-24T08:59:00.993Z</time></trkpt><trkpt lat="42.596383227393396" lon="11.54898582912211"><ele>292.0</ele><time>2026-04-24T08:59:01.993Z</time></trkpt><trkpt lat="42.59634779685378" lon="11.54914315596174"><ele>292.0</ele><time>2026-04-24T08:59:02.993Z</time></trkpt><trkpt lat="42.59629598002717" lon="11.54930423733988"><ele>292.0</ele><time>2026-04-24T08:59:03.993Z</time></trkpt><trkpt lat="42.596229746888916" lon="11.549468419967758"><ele>292.0</ele><time>2026-04-24T08:59:04.993Z</time></trkpt><trkpt lat="42.59615863354345" lon="11.549630636547962"><ele>292.0</ele><time>2026-04-24T08:59:05.993Z</time></trkpt><trkpt lat="42.59608986959775" lon="11.549804511380113"><ele>292.0</ele><time>2026-04-24T08:59:06.993Z</time></trkpt><trkpt lat="42.59598951958261" lon="11.549944050163134"><ele>292.0</ele><time>2026-04-24T08:59:07.994Z</time></trkpt><trkpt lat="42.595911816220294" lon="11.55008710114357"><ele>292.0</ele><time>2026-04-24T08:59:08.994Z</time></trkpt><trkpt lat="42.59582064422491" lon="11.550157147041203"><ele>292.0</ele><time>2026-04-24T08:59:09.994Z</time></trkpt><trkpt lat="42.59573276127014" lon="11.55022363779636"><ele>292.0</ele><time>2026-04-24T08:59:10.994Z</time></trkpt><trkpt lat="42.59563306173844" lon="11.550273224012491"><ele>292.0</ele><time>2026-04-24T08:59:11.994Z</time></trkpt><trkpt lat="42.59551208674393" lon="11.550320449714818"><ele>292.0</ele><time>2026-04-24T08:59:12.994Z</time></trkpt><trkpt lat="42.59537119119845" lon="11.55037637415603"><ele>296.3333333333333</ele><time>2026-04-24T08:59:13.994Z</time></trkpt><trkpt lat="42.595216085754984" lon="11.550391792036038"><ele>300.6666666666667</ele><time>2026-04-24T08:59:14.994Z</time></trkpt><trkpt lat="42.59506099320788" lon="11.550423030046058"><ele>305.0</ele><time>2026-04-24T08:59:15.994Z</time></trkpt><trkpt lat="42.594926621776736" lon="11.550465334434382"><ele>305.0</ele><time>2026-04-24T08:59:16.994Z</time></trkpt><trkpt lat="42.59480548967628" lon="11.550498924801213"><ele>305.0</ele><time>2026-04-24T08:59:17.994Z</time></trkpt><trkpt lat="42.594691847330836" lon="11.550491608186489"><ele>305.0</ele><time>2026-04-24T08:59:18.994Z</time></trkpt><trkpt lat="42.59458939887286" lon="11.55048309005577"><ele>305.0</ele><time>2026-04-24T08:59:19.994Z</time></trkpt><trkpt lat="42.59450501693594" lon="11.550486856086916"><ele>305.0</ele><time>2026-04-24T08:59:20.994Z</time></trkpt><trkpt lat="42.594421136924815" lon="11.55053041287948"><ele>306.5</ele><time>2026-04-24T08:59:21.994Z</time></trkpt><trkpt lat="42.59431147130076" lon="11.550585599832667"><ele>308.0</ele><time>2026-04-24T08:59:22.994Z</time></trkpt><trkpt lat="42.594189866809174" lon="11.550630970221238"><ele>309.5</ele><time>2026-04-24T08:59:23.994Z</time></trkpt><trkpt lat="42.59406364430366" lon="11.550675777721755"><ele>311.0</ele><time>2026-04-24T08:59:24.994Z</time></trkpt><trkpt lat="42.59393482082626" lon="11.550721388713171"><ele>311.0</ele><time>2026-04-24T08:59:25.994Z</time></trkpt><trkpt lat="42.5938038538304" lon="11.550767059144182"><ele>311.0</ele><time>2026-04-24T08:59:26.994Z</time></trkpt><trkpt lat="42.59368505343108" lon="11.55081660716363"><ele>311.0</ele><time>2026-04-24T08:59:27.994Z</time></trkpt><trkpt lat="42.59357189300478" lon="11.550875017089762"><ele>311.0</ele><time>2026-04-24T08:59:28.994Z</time></trkpt><trkpt lat="42.59348067659795" lon="11.550931315646256"><ele>311.8</ele><time>2026-04-24T08:59:29.994Z</time></trkpt><trkpt lat="42.59339080185319" lon="11.55099121384365"><ele>312.6</ele><time>2026-04-24T08:59:30.994Z</time></trkpt><trkpt lat="42.59334282713842" lon="11.551053248021303"><ele>313.4</ele><time>2026-04-24T08:59:31.994Z</time></trkpt><trkpt lat="42.593291165631676" lon="11.55117861937465"><ele>314.2</ele><time>2026-04-24T08:59:33.994Z</time></trkpt><trkpt lat="42.5933405167916" lon="11.551377702689436"><ele>315.0</ele><time>2026-04-24T08:59:35.994Z</time></trkpt><trkpt lat="42.593437877553185" lon="11.551459174228569"><ele>317.0</ele><time>2026-04-24T08:59:36.994Z</time></trkpt><trkpt lat="42.593508133101395" lon="11.551559267673856"><ele>319.0</ele><time>2026-04-24T08:59:37.994Z</time></trkpt><trkpt lat="42.593589395823976" lon="11.551667596913868"><ele>321.0</ele><time>2026-04-24T08:59:38.994Z</time></trkpt><trkpt lat="42.59367705296155" lon="11.551760974277917"><ele>323.0</ele><time>2026-04-24T08:59:39.994Z</time></trkpt><trkpt lat="42.59376314363743" lon="11.551841915914538"><ele>325.0</ele><time>2026-04-24T08:59:40.994Z</time></trkpt><trkpt lat="42.59385026814193" lon="11.55191789082799"><ele>325.0</ele><time>2026-04-24T08:59:41.994Z</time></trkpt><trkpt lat="42.593944643749005" lon="11.55199418435103"><ele>325.0</ele><time>2026-04-24T08:59:42.994Z</time></trkpt><trkpt lat="42.59404161024717" lon="11.552050003228766"><ele>325.0</ele><time>2026-04-24T08:59:43.994Z</time></trkpt><trkpt lat="42.594139321143" lon="11.552119049418087"><ele>325.0</ele><time>2026-04-24T08:59:44.994Z</time></trkpt><trkpt lat="42.594237459777084" lon="11.552186948852592"><ele>325.0</ele><time>2026-04-24T08:59:45.994Z</time></trkpt><trkpt lat="42.59433941629961" lon="11.55223944818951"><ele>326.3333333333333</ele><time>2026-04-24T08:59:46.994Z</time></trkpt><trkpt lat="42.594434882969836" lon="11.552294593944369"><ele>327.66666666666663</ele><time>2026-04-24T08:59:47.994Z</time></trkpt><trkpt lat="42.59451521172727" lon="11.552358186723861"><ele>329.0</ele><time>2026-04-24T08:59:48.994Z</time></trkpt><trkpt lat="42.59458402360854" lon="11.552434769037943"><ele>330.3333333333333</ele><time>2026-04-24T08:59:49.994Z</time></trkpt><trkpt lat="42.5946407675978" lon="11.552526242296711"><ele>331.6666666666667</ele><time>2026-04-24T08:59:50.994Z</time></trkpt><trkpt lat="42.59466998216367" lon="11.552603870567841"><ele>333.0</ele><time>2026-04-24T08:59:51.994Z</time></trkpt><trkpt lat="42.594635703048354" lon="11.552763137668103"><ele>333.0</ele><time>2026-04-24T08:59:53.994Z</time></trkpt><trkpt lat="42.594580811375224" lon="11.552847812871011"><ele>333.0</ele><time>2026-04-24T08:59:54.994Z</time></trkpt><trkpt lat="42.59454154813936" lon="11.552956527544538"><ele>333.0</ele><time>2026-04-24T08:59:55.994Z</time></trkpt><trkpt lat="42.59447435089053" lon="11.553049074497899"><ele>333.0</ele><time>2026-04-24T08:59:56.994Z</time></trkpt><trkpt lat="42.5943797645363" lon="11.553141351840658"><ele>333.0</ele><time>2026-04-24T08:59:57.994Z</time></trkpt><trkpt lat="42.594265191130475" lon="11.553231245174363"><ele>336.0</ele><time>2026-04-24T08:59:58.994Z</time></trkpt><trkpt lat="42.59416318412371" lon="11.553305573838276"><ele>339.0</ele><time>2026-04-24T08:59:59.994Z</time></trkpt><trkpt lat="42.5940675214867" lon="11.553397179563198"><ele>342.0</ele><time>2026-04-24T09:00:00.994Z</time></trkpt><trkpt lat="42.5939937976368" lon="11.553510985039782"><ele>345.0</ele><time>2026-04-24T09:00:01.994Z</time></trkpt><trkpt lat="42.59393265867849" lon="11.553636385889186"><ele>343.5</ele><time>2026-04-24T09:00:02.994Z</time></trkpt><trkpt lat="42.59388139223197" lon="11.553779268477024"><ele>342.0</ele><time>2026-04-24T09:00:03.994Z</time></trkpt><trkpt lat="42.593832524780574" lon="11.553955445440314"><ele>340.5</ele><time>2026-04-24T09:00:04.994Z</time></trkpt><trkpt lat="42.593789236018175" lon="11.554115812047444"><ele>339.0</ele><time>2026-04-24T09:00:05.994Z</time></trkpt><trkpt lat="42.59373936079612" lon="11.554278876336186"><ele>339.0</ele><time>2026-04-24T09:00:06.992Z</time></trkpt><trkpt lat="42.5936828604264" lon="11.554421351167807"><ele>339.0</ele><time>2026-04-24T09:00:07.992Z</time></trkpt><trkpt lat="42.59361364470659" lon="11.554522198036434"><ele>339.0</ele><time>2026-04-24T09:00:08.992Z</time></trkpt><trkpt lat="42.59352078005391" lon="11.554654521464704"><ele>339.0</ele><time>2026-04-24T09:00:10.992Z</time></trkpt><trkpt lat="42.59340379257231" lon="11.55483965901477"><ele>342.75</ele><time>2026-04-24T09:00:11.992Z</time></trkpt><trkpt lat="42.59328093089729" lon="11.554968301969819"><ele>346.5</ele><time>2026-04-24T09:00:12.992Z</time></trkpt><trkpt lat="42.59318344360147" lon="11.555035412931185"><ele>350.25</ele><time>2026-04-24T09:00:13.992Z</time></trkpt><trkpt lat="42.593092361127226" lon="11.555086287144661"><ele>354.0</ele><time>2026-04-24T09:00:14.992Z</time></trkpt><trkpt lat="42.59301860388975" lon="11.555172811631767"><ele>354.0</ele><time>2026-04-24T09:00:15.992Z</time></trkpt><trkpt lat="42.59295070226152" lon="11.555272010562202"><ele>354.0</ele><time>2026-04-24T09:00:16.992Z</time></trkpt><trkpt lat="42.592899983548385" lon="11.55537880261384"><ele>354.0</ele><time>2026-04-24T09:00:17.992Z</time></trkpt><trkpt lat="42.592852968235334" lon="11.555494433640813"><ele>354.0</ele><time>2026-04-24T09:00:18.993Z</time></trkpt><trkpt lat="42.5927913629826" lon="11.555643801476316"><ele>354.0</ele><time>2026-04-24T09:00:19.993Z</time></trkpt><trkpt lat="42.59274927962724" lon="11.555844269244997"><ele>355.75</ele><time>2026-04-24T09:00:20.993Z</time></trkpt><trkpt lat="42.59270006658482" lon="11.556040670384235"><ele>357.5</ele><time>2026-04-24T09:00:21.993Z</time></trkpt><trkpt lat="42.592650770574615" lon="11.556221911465204"><ele>359.25</ele><time>2026-04-24T09:00:22.993Z</time></trkpt><trkpt lat="42.59260442784687" lon="11.556381125769036"><ele>361.0</ele><time>2026-04-24T09:00:23.993Z</time></trkpt><trkpt lat="42.592560147835194" lon="11.556524472537337"><ele>361.0</ele><time>2026-04-24T09:00:24.993Z</time></trkpt><trkpt lat="42.592510454992755" lon="11.556647847661523"><ele>361.0</ele><time>2026-04-24T09:00:25.993Z</time></trkpt><trkpt lat="42.592451534850305" lon="11.556744245247536"><ele>361.0</ele><time>2026-04-24T09:00:26.993Z</time></trkpt><trkpt lat="42.5923785501978" lon="11.556851164796358"><ele>361.0</ele><time>2026-04-24T09:00:27.993Z</time></trkpt><trkpt lat="42.59230683201197" lon="11.556972552709869"><ele>361.0</ele><time>2026-04-24T09:00:28.993Z</time></trkpt><trkpt lat="42.59225009579101" lon="11.5571022728205"><ele>360.0</ele><time>2026-04-24T09:00:29.993Z</time></trkpt><trkpt lat="42.5922182077047" lon="11.557243244643052"><ele>359.0</ele><time>2026-04-24T09:00:30.993Z</time></trkpt><trkpt lat="42.59217754721875" lon="11.55740410013221"><ele>358.0</ele><time>2026-04-24T09:00:31.993Z</time></trkpt><trkpt lat="42.59217582705702" lon="11.557590422153227"><ele>357.0</ele><time>2026-04-24T09:00:32.993Z</time></trkpt><trkpt lat="42.592215960922935" lon="11.557806489298281"><ele>359.3333333333333</ele><time>2026-04-24T09:00:33.993Z</time></trkpt><trkpt lat="42.592224600438094" lon="11.55800679516336"><ele>361.66666666666663</ele><time>2026-04-24T09:00:34.993Z</time></trkpt><trkpt lat="42.5922628993473" lon="11.558216001051235"><ele>364.0</ele><time>2026-04-24T09:00:35.993Z</time></trkpt><trkpt lat="42.59229950086087" lon="11.558418743017889"><ele>364.0</ele><time>2026-04-24T09:00:36.993Z</time></trkpt><trkpt lat="42.59234768851429" lon="11.558627799497287"><ele>364.0</ele><time>2026-04-24T09:00:37.993Z</time></trkpt><trkpt lat="42.59239972285753" lon="11.558839139380385"><ele>364.0</ele><time>2026-04-24T09:00:38.993Z</time></trkpt><trkpt lat="42.5924453887508" lon="11.559038626939776"><ele>366.25</ele><time>2026-04-24T09:00:39.993Z</time></trkpt><trkpt lat="42.592495124817546" lon="11.559225787274608"><ele>368.5</ele><time>2026-04-24T09:00:40.993Z</time></trkpt><trkpt lat="42.59254526227596" lon="11.559400139947579"><ele>370.75</ele><time>2026-04-24T09:00:41.993Z</time></trkpt><trkpt lat="42.592580781199466" lon="11.559567252376565"><ele>373.0</ele><time>2026-04-24T09:00:42.993Z</time></trkpt><trkpt lat="42.592613643100805" lon="11.559725579195472"><ele>373.4</ele><time>2026-04-24T09:00:43.993Z</time></trkpt><trkpt lat="42.59264247426605" lon="11.55986950632886"><ele>373.79999999999995</ele><time>2026-04-24T09:00:44.993Z</time></trkpt><trkpt lat="42.59267235157149" lon="11.55999727827294"><ele>374.2</ele><time>2026-04-24T09:00:45.993Z</time></trkpt><trkpt lat="42.59269032013774" lon="11.560098250819179"><ele>374.6</ele><time>2026-04-24T09:00:46.993Z</time></trkpt><trkpt lat="42.59270331031904" lon="11.560191442217468"><ele>375.0</ele><time>2026-04-24T09:00:47.993Z</time></trkpt><trkpt lat="42.5927393934192" lon="11.560326647286564"><ele>374.3333333333333</ele><time>2026-04-24T09:00:49.993Z</time></trkpt><trkpt lat="42.59275710074178" lon="11.560409319870717"><ele>373.6666666666667</ele><time>2026-04-24T09:00:50.993Z</time></trkpt><trkpt lat="42.59276851761831" lon="11.560529741285539"><ele>373.0</ele><time>2026-04-24T09:00:51.993Z</time></trkpt><trkpt lat="42.59279258682696" lon="11.560662998513955"><ele>372.33333333333337</ele><time>2026-04-24T09:00:52.993Z</time></trkpt><trkpt lat="42.592814000613416" lon="11.560783967614816"><ele>371.6666666666667</ele><time>2026-04-24T09:00:53.993Z</time></trkpt><trkpt lat="42.592824175394384" lon="11.560889296661179"><ele>371.0</ele><time>2026-04-24T09:00:54.993Z</time></trkpt><trkpt lat="42.59284113972347" lon="11.561015692275728"><ele>371.0</ele><time>2026-04-24T09:00:55.993Z</time></trkpt><trkpt lat="42.59283564706139" lon="11.561171467115614"><ele>371.0</ele><time>2026-04-24T09:00:56.993Z</time></trkpt><trkpt lat="42.592826487232536" lon="11.561313988556767"><ele>371.0</ele><time>2026-04-24T09:00:57.993Z</time></trkpt><trkpt lat="42.59280318234561" lon="11.56143833177136"><ele>371.0</ele><time>2026-04-24T09:00:58.993Z</time></trkpt><trkpt lat="42.59278692953448" lon="11.561557659808193"><ele>371.0</ele><time>2026-04-24T09:00:59.993Z</time></trkpt><trkpt lat="42.59275351365717" lon="11.561670018921005"><ele>372.4</ele><time>2026-04-24T09:01:00.993Z</time></trkpt><trkpt lat="42.59271592471836" lon="11.561770553766214"><ele>373.8</ele><time>2026-04-24T09:01:01.993Z</time></trkpt><trkpt lat="42.59266135230137" lon="11.561879969289697"><ele>375.2</ele><time>2026-04-24T09:01:02.993Z</time></trkpt><trkpt lat="42.59260480538005" lon="11.561982485804382"><ele>376.59999999999997</ele><time>2026-04-24T09:01:03.993Z</time></trkpt><trkpt lat="42.59255338054803" lon="11.562078090961224"><ele>378.0</ele><time>2026-04-24T09:01:04.993Z</time></trkpt><trkpt lat="42.5925056645573" lon="11.562182293162264"><ele>379.6666666666667</ele><time>2026-04-24T09:01:05.993Z</time></trkpt><trkpt lat="42.59246989289414" lon="11.562290223335609"><ele>381.33333333333337</ele><time>2026-04-24T09:01:06.993Z</time></trkpt><trkpt lat="42.59243682167705" lon="11.562391164175665"><ele>383.0</ele><time>2026-04-24T09:01:07.993Z</time></trkpt><trkpt lat="42.59241293883875" lon="11.562495227082492"><ele>384.6666666666667</ele><time>2026-04-24T09:01:08.993Z</time></trkpt><trkpt lat="42.59240718429778" lon="11.562604049425254"><ele>386.33333333333337</ele><time>2026-04-24T09:01:09.993Z</time></trkpt><trkpt lat="42.592407198718774" lon="11.562716972256945"><ele>388.0</ele><time>2026-04-24T09:01:10.993Z</time></trkpt><trkpt lat="42.59242004676561" lon="11.56283992198053"><ele>388.2</ele><time>2026-04-24T09:01:11.993Z</time></trkpt><trkpt lat="42.59242423964278" lon="11.562957711759095"><ele>388.4</ele><time>2026-04-24T09:01:12.993Z</time></trkpt><trkpt lat="42.59243121252531" lon="11.563096995514565"><ele>388.59999999999997</ele><time>2026-04-24T09:01:13.993Z</time></trkpt><trkpt lat="42.592445489624104" lon="11.563249577728163"><ele>388.79999999999995</ele><time>2026-04-24T09:01:14.993Z</time></trkpt><trkpt lat="42.59246276088096" lon="11.563413291791456"><ele>389.0</ele><time>2026-04-24T09:01:15.993Z</time></trkpt><trkpt lat="42.592469837751295" lon="11.563557226921727"><ele>389.0</ele><time>2026-04-24T09:01:16.993Z</time></trkpt><trkpt lat="42.5924601827694" lon="11.56367678666494"><ele>389.0</ele><time>2026-04-24T09:01:17.993Z</time></trkpt><trkpt lat="42.5924263050517" lon="11.56379122588582"><ele>389.0</ele><time>2026-04-24T09:01:18.993Z</time></trkpt><trkpt lat="42.59236488872006" lon="11.563906344024463"><ele>389.0</ele><time>2026-04-24T09:01:19.993Z</time></trkpt><trkpt lat="42.59228825016771" lon="11.564004869515495"><ele>389.0</ele><time>2026-04-24T09:01:20.993Z</time></trkpt><trkpt lat="42.59217978620257" lon="11.564088096141475"><ele>389.4</ele><time>2026-04-24T09:01:21.993Z</time></trkpt><trkpt lat="42.59209641986449" lon="11.564175026996505"><ele>389.79999999999995</ele><time>2026-04-24T09:01:22.994Z</time></trkpt><trkpt lat="42.592012636057476" lon="11.564240882284109"><ele>390.20000000000005</ele><time>2026-04-24T09:01:23.994Z</time></trkpt><trkpt lat="42.59193335780212" lon="11.564314757390502"><ele>390.6</ele><time>2026-04-24T09:01:24.994Z</time></trkpt><trkpt lat="42.59188363022163" lon="11.564377626863697"><ele>391.0</ele><time>2026-04-24T09:01:25.994Z</time></trkpt><trkpt lat="42.59183078728416" lon="11.564516746899972"><ele>388.83333333333337</ele><time>2026-04-24T09:01:27.994Z</time></trkpt><trkpt lat="42.5917847834469" lon="11.564664127511877"><ele>386.6666666666667</ele><time>2026-04-24T09:01:29.994Z</time></trkpt><trkpt lat="42.591791971773205" lon="11.564753724450554"><ele>384.5</ele><time>2026-04-24T09:01:30.994Z</time></trkpt><trkpt lat="42.59180428520756" lon="11.564866650905907"><ele>382.33333333333337</ele><time>2026-04-24T09:01:31.994Z</time></trkpt><trkpt lat="42.59183361069624" lon="11.564954230850477"><ele>380.1666666666667</ele><time>2026-04-24T09:01:32.994Z</time></trkpt><trkpt lat="42.591847277916976" lon="11.56504331545932"><ele>378.0</ele><time>2026-04-24T09:01:33.994Z</time></trkpt><trkpt lat="42.5918556852233" lon="11.565178838589874"><ele>378.0</ele><time>2026-04-24T09:01:34.994Z</time></trkpt><trkpt lat="42.59184734780151" lon="11.56532369440253"><ele>378.0</ele><time>2026-04-24T09:01:35.994Z</time></trkpt><trkpt lat="42.59184387682092" lon="11.565448312028263"><ele>378.0</ele><time>2026-04-24T09:01:36.994Z</time></trkpt><trkpt lat="42.59183463823939" lon="11.565568897610607"><ele>378.0</ele><time>2026-04-24T09:01:37.994Z</time></trkpt><trkpt lat="42.591808169744795" lon="11.565697306038636"><ele>378.0</ele><time>2026-04-24T09:01:38.994Z</time></trkpt><trkpt lat="42.591769187393766" lon="11.56585657900476"><ele>377.59999999999997</ele><time>2026-04-24T09:01:39.994Z</time></trkpt><trkpt lat="42.59173600349683" lon="11.566001209092969"><ele>377.2</ele><time>2026-04-24T09:01:40.994Z</time></trkpt><trkpt lat="42.59170115612592" lon="11.566124315450953"><ele>376.8</ele><time>2026-04-24T09:01:41.994Z</time></trkpt><trkpt lat="42.591663006066746" lon="11.566229120338074"><ele>376.4</ele><time>2026-04-24T09:01:42.994Z</time></trkpt><trkpt lat="42.59160349711991" lon="11.566340101666087"><ele>376.0</ele><time>2026-04-24T09:01:43.994Z</time></trkpt><trkpt lat="42.59150761365047" lon="11.566466135754064"><ele>376.0</ele><time>2026-04-24T09:01:44.994Z</time></trkpt><trkpt lat="42.591423437196546" lon="11.56658759523399"><ele>376.0</ele><time>2026-04-24T09:01:45.994Z</time></trkpt><trkpt lat="42.591353633268085" lon="11.5666794823851"><ele>376.0</ele><time>2026-04-24T09:01:46.994Z</time></trkpt><trkpt lat="42.59125920526923" lon="11.56674691542498"><ele>376.0</ele><time>2026-04-24T09:01:47.994Z</time></trkpt><trkpt lat="42.591170164483394" lon="11.566767574604418"><ele>376.0</ele><time>2026-04-24T09:01:48.994Z</time></trkpt><trkpt lat="42.591093730250165" lon="11.566790019613094"><ele>373.20000000000005</ele><time>2026-04-24T09:01:49.994Z</time></trkpt><trkpt lat="42.59099365176519" lon="11.566801086841902"><ele>370.40000000000003</ele><time>2026-04-24T09:01:50.994Z</time></trkpt><trkpt lat="42.590912991166036" lon="11.566842680601882"><ele>367.6</ele><time>2026-04-24T09:01:51.994Z</time></trkpt><trkpt lat="42.5908493385462" lon="11.566899748396645"><ele>364.8</ele><time>2026-04-24T09:01:52.994Z</time></trkpt><trkpt lat="42.590777558413905" lon="11.5669587830408"><ele>362.0</ele><time>2026-04-24T09:01:54.994Z</time></trkpt><trkpt lat="42.590710721578006" lon="11.567135692480555"><ele>362.0</ele><time>2026-04-24T09:01:56.994Z</time></trkpt><trkpt lat="42.590705264120395" lon="11.567291557488193"><ele>362.0</ele><time>2026-04-24T09:01:57.994Z</time></trkpt><trkpt lat="42.59067995129441" lon="11.567450267759057"><ele>362.0</ele><time>2026-04-24T09:01:58.994Z</time></trkpt><trkpt lat="42.590661840124355" lon="11.567606386892805"><ele>362.0</ele><time>2026-04-24T09:01:59.994Z</time></trkpt><trkpt lat="42.59062542764757" lon="11.567725876542296"><ele>362.0</ele><time>2026-04-24T09:02:00.994Z</time></trkpt><trkpt lat="42.59058645098157" lon="11.567829002334461"><ele>360.8</ele><time>2026-04-24T09:02:01.994Z</time></trkpt><trkpt lat="42.590512986431754" lon="11.567891401557727"><ele>359.6</ele><time>2026-04-24T09:02:02.994Z</time></trkpt><trkpt lat="42.590429869963394" lon="11.567939499866164"><ele>358.40000000000003</ele><time>2026-04-24T09:02:03.994Z</time></trkpt><trkpt lat="42.59032958598681" lon="11.567987622686365"><ele>357.20000000000005</ele><time>2026-04-24T09:02:04.994Z</time></trkpt><trkpt lat="42.590199726934415" lon="11.568029089550706"><ele>356.0</ele><time>2026-04-24T09:02:05.994Z</time></trkpt><trkpt lat="42.590075776270076" lon="11.568099306616045"><ele>356.0</ele><time>2026-04-24T09:02:06.994Z</time></trkpt><trkpt lat="42.589968124015925" lon="11.568151256798032"><ele>356.0</ele><time>2026-04-24T09:02:07.994Z</time></trkpt><trkpt lat="42.589882865267086" lon="11.568200295747493"><ele>356.0</ele><time>2026-04-24T09:02:08.994Z</time></trkpt><trkpt lat="42.58979282207245" lon="11.568233637556569"><ele>356.0</ele><time>2026-04-24T09:02:09.994Z</time></trkpt><trkpt lat="42.58969613538343" lon="11.568272114403449"><ele>356.0</ele><time>2026-04-24T09:02:10.994Z</time></trkpt><trkpt lat="42.5895880147198" lon="11.568327945705384"><ele>351.75</ele><time>2026-04-24T09:02:11.994Z</time></trkpt><trkpt lat="42.58948258351489" lon="11.568404414334381"><ele>347.5</ele><time>2026-04-24T09:02:12.992Z</time></trkpt><trkpt lat="42.58937477343354" lon="11.568505340805567"><ele>343.25</ele><time>2026-04-24T09:02:13.993Z</time></trkpt><trkpt lat="42.58925700208265" lon="11.568594889012843"><ele>339.0</ele><time>2026-04-24T09:02:14.993Z</time></trkpt><trkpt lat="42.58915643571217" lon="11.568674444669291"><ele>343.75</ele><time>2026-04-24T09:02:15.992Z</time></trkpt><trkpt lat="42.58904455839526" lon="11.568760807508523"><ele>348.5</ele><time>2026-04-24T09:02:16.992Z</time></trkpt><trkpt lat="42.588942265319076" lon="11.568844747868962"><ele>353.25</ele><time>2026-04-24T09:02:17.992Z</time></trkpt><trkpt lat="42.58884080096325" lon="11.568928713536454"><ele>358.0</ele><time>2026-04-24T09:02:18.992Z</time></trkpt><trkpt lat="42.58874746892685" lon="11.569009885168473"><ele>352.25</ele><time>2026-04-24T09:02:19.992Z</time></trkpt><trkpt lat="42.588655140010886" lon="11.569091221812593"><ele>346.5</ele><time>2026-04-24T09:02:20.992Z</time></trkpt><trkpt lat="42.58855003873598" lon="11.569178432611944"><ele>340.75</ele><time>2026-04-24T09:02:21.992Z</time></trkpt><trkpt lat="42.58844784889785" lon="11.569247369172587"><ele>335.0</ele><time>2026-04-24T09:02:22.992Z</time></trkpt><trkpt lat="42.58835291498869" lon="11.569329528247573"><ele>335.0</ele><time>2026-04-24T09:02:23.992Z</time></trkpt><trkpt lat="42.58824737837768" lon="11.569394752153029"><ele>335.0</ele><time>2026-04-24T09:02:24.992Z</time></trkpt><trkpt lat="42.58815401588368" lon="11.569496284264902"><ele>335.0</ele><time>2026-04-24T09:02:25.992Z</time></trkpt><trkpt lat="42.588036420076115" lon="11.569561034963682"><ele>335.0</ele><time>2026-04-24T09:02:26.992Z</time></trkpt><trkpt lat="42.58794163937352" lon="11.569642018480694"><ele>338.5</ele><time>2026-04-24T09:02:27.992Z</time></trkpt><trkpt lat="42.587863076002506" lon="11.569743738446638"><ele>342.0</ele><time>2026-04-24T09:02:28.992Z</time></trkpt><trkpt lat="42.587779591467665" lon="11.569851027975046"><ele>345.5</ele><time>2026-04-24T09:02:29.992Z</time></trkpt><trkpt lat="42.587706419940645" lon="11.56996302247772"><ele>349.0</ele><time>2026-04-24T09:02:30.992Z</time></trkpt><trkpt lat="42.58761680105227" lon="11.570087150058141"><ele>344.2</ele><time>2026-04-24T09:02:31.992Z</time></trkpt><trkpt lat="42.58752424301291" lon="11.570201794146575"><ele>339.4</ele><time>2026-04-24T09:02:32.992Z</time></trkpt><trkpt lat="42.58743757009187" lon="11.570302251516754"><ele>334.6</ele><time>2026-04-24T09:02:33.992Z</time></trkpt><trkpt lat="42.587364791522376" lon="11.570397256861545"><ele>329.8</ele><time>2026-04-24T09:02:34.992Z</time></trkpt><trkpt lat="42.58731118853464" lon="11.57049436434685"><ele>325.0</ele><time>2026-04-24T09:02:35.992Z</time></trkpt><trkpt lat="42.587254389112154" lon="11.570595626872066"><ele>325.0</ele><time>2026-04-24T09:02:36.992Z</time></trkpt><trkpt lat="42.58721195639196" lon="11.570698478805097"><ele>325.0</ele><time>2026-04-24T09:02:37.992Z</time></trkpt><trkpt lat="42.587217198669585" lon="11.570855141570528"><ele>325.0</ele><time>2026-04-24T09:02:38.992Z</time></trkpt><trkpt lat="42.58722456982666" lon="11.571001007587633"><ele>325.0</ele><time>2026-04-24T09:02:39.992Z</time></trkpt><trkpt lat="42.58720585263128" lon="11.571148940224692"><ele>325.0</ele><time>2026-04-24T09:02:40.992Z</time></trkpt><trkpt lat="42.58717259280937" lon="11.571299478578432"><ele>324.6</ele><time>2026-04-24T09:02:41.992Z</time></trkpt><trkpt lat="42.58713336693958" lon="11.571448997052855"><ele>324.2</ele><time>2026-04-24T09:02:42.992Z</time></trkpt><trkpt lat="42.58710129224436" lon="11.571576700642671"><ele>323.79999999999995</ele><time>2026-04-24T09:02:43.992Z</time></trkpt><trkpt lat="42.58707444608141" lon="11.571714711100272"><ele>323.4</ele><time>2026-04-24T09:02:44.992Z</time></trkpt><trkpt lat="42.58705646050736" lon="11.571881025795024"><ele>323.0</ele><time>2026-04-24T09:02:45.992Z</time></trkpt><trkpt lat="42.5870627457703" lon="11.572040091676282"><ele>322.75</ele><time>2026-04-24T09:02:46.992Z</time></trkpt><trkpt lat="42.58706639356043" lon="11.572235240829517"><ele>322.5</ele><time>2026-04-24T09:02:47.992Z</time></trkpt><trkpt lat="42.58703702926097" lon="11.572407353635134"><ele>322.25</ele><time>2026-04-24T09:02:48.992Z</time></trkpt><trkpt lat="42.58700389998914" lon="11.57258528596647"><ele>322.0</ele><time>2026-04-24T09:02:49.992Z</time></trkpt><trkpt lat="42.586976323528965" lon="11.572744291587908"><ele>318.8</ele><time>2026-04-24T09:02:50.992Z</time></trkpt><trkpt lat="42.58695191829174" lon="11.572897352046692"><ele>315.6</ele><time>2026-04-24T09:02:51.992Z</time></trkpt><trkpt lat="42.58691471709526" lon="11.573034661945078"><ele>312.40000000000003</ele><time>2026-04-24T09:02:52.992Z</time></trkpt><trkpt lat="42.5868783777641" lon="11.573152422744633"><ele>309.20000000000005</ele><time>2026-04-24T09:02:53.992Z</time></trkpt><trkpt lat="42.58683775480152" lon="11.573274097393295"><ele>306.0</ele><time>2026-04-24T09:02:54.992Z</time></trkpt><trkpt lat="42.586789216529425" lon="11.57340361733408"><ele>306.0</ele><time>2026-04-24T09:02:55.992Z</time></trkpt><trkpt lat="42.58672992420406" lon="11.573542131880615"><ele>306.0</ele><time>2026-04-24T09:02:56.992Z</time></trkpt><trkpt lat="42.58666375568732" lon="11.573672750071509"><ele>306.0</ele><time>2026-04-24T09:02:57.992Z</time></trkpt><trkpt lat="42.586597794009" lon="11.573787482656014"><ele>306.0</ele><time>2026-04-24T09:02:58.992Z</time></trkpt><trkpt lat="42.58653632580804" lon="11.573893768610523"><ele>306.0</ele><time>2026-04-24T09:02:59.992Z</time></trkpt><trkpt lat="42.58649994390369" lon="11.574001417082156"><ele>305.1428571428571</ele><time>2026-04-24T09:03:00.993Z</time></trkpt><trkpt lat="42.58645382956276" lon="11.57407615485168"><ele>304.2857142857143</ele><time>2026-04-24T09:03:01.993Z</time></trkpt><trkpt lat="42.58641261941185" lon="11.574160211182292"><ele>303.42857142857144</ele><time>2026-04-24T09:03:02.993Z</time></trkpt><trkpt lat="42.58638149088811" lon="11.57424629668229"><ele>302.57142857142856</ele><time>2026-04-24T09:03:03.993Z</time></trkpt><trkpt lat="42.586386835393505" lon="11.574332919953084"><ele>301.7142857142857</ele><time>2026-04-24T09:03:04.993Z</time></trkpt><trkpt lat="42.586419464965225" lon="11.574424975844998"><ele>300.85714285714283</ele><time>2026-04-24T09:03:05.993Z</time></trkpt><trkpt lat="42.58646108245364" lon="11.57452232438629"><ele>300.0</ele><time>2026-04-24T09:03:07.993Z</time></trkpt><trkpt lat="42.58651137516283" lon="11.574596126369089"><ele>300.0</ele><time>2026-04-24T09:03:10.993Z</time></trkpt><trkpt lat="42.586559926515996" lon="11.574657778523651"><ele>300.0</ele><time>2026-04-24T09:03:19.993Z</time></trkpt><trkpt lat="42.586623356317816" lon="11.574718932680872"><ele>300.0</ele><time>2026-04-24T09:03:21.993Z</time></trkpt><trkpt lat="42.58669187565487" lon="11.57477547827486"><ele>300.0</ele><time>2026-04-24T09:03:23.993Z</time></trkpt><trkpt lat="42.58680031885014" lon="11.574858286633187"><ele>300.0</ele><time>2026-04-24T09:03:25.993Z</time></trkpt><trkpt lat="42.5868615902804" lon="11.574932273553387"><ele>300.0</ele><time>2026-04-24T09:03:26.993Z</time></trkpt><trkpt lat="42.586915813834196" lon="11.575064112626855"><ele>300.0</ele><time>2026-04-24T09:03:27.993Z</time></trkpt><trkpt lat="42.58699661735993" lon="11.575159332934913"><ele>300.0</ele><time>2026-04-24T09:03:28.993Z</time></trkpt><trkpt lat="42.58706113808485" lon="11.575265302310381"><ele>300.0</ele><time>2026-04-24T09:03:29.993Z</time></trkpt><trkpt lat="42.58711453957563" lon="11.575359812260832"><ele>300.0</ele><time>2026-04-24T09:03:30.993Z</time></trkpt><trkpt lat="42.587171328442324" lon="11.575448768049984"><ele>300.0</ele><time>2026-04-24T09:03:31.993Z</time></trkpt><trkpt lat="42.58723167885904" lon="11.575538403834933"><ele>298.3333333333333</ele><time>2026-04-24T09:03:32.993Z</time></trkpt><trkpt lat="42.58728735175052" lon="11.57561356521874"><ele>296.6666666666667</ele><time>2026-04-24T09:03:33.993Z</time></trkpt><trkpt lat="42.58734944792422" lon="11.575687144165862"><ele>295.0</ele><time>2026-04-24T09:03:34.993Z</time></trkpt><trkpt lat="42.58741641754595" lon="11.575757302742439"><ele>293.33333333333337</ele><time>2026-04-24T09:03:35.993Z</time></trkpt><trkpt lat="42.5874938293797" lon="11.575828760110337"><ele>291.6666666666667</ele><time>2026-04-24T09:03:36.993Z</time></trkpt><trkpt lat="42.58756529874103" lon="11.575900630425245"><ele>290.0</ele><time>2026-04-24T09:03:37.993Z</time></trkpt><trkpt lat="42.587625553776114" lon="11.575967335420469"><ele>290.0</ele><time>2026-04-24T09:03:38.993Z</time></trkpt><trkpt lat="42.58768445688552" lon="11.576047080292208"><ele>290.0</ele><time>2026-04-24T09:03:39.993Z</time></trkpt><trkpt lat="42.587729661719685" lon="11.576128778637626"><ele>290.0</ele><time>2026-04-24T09:03:40.993Z</time></trkpt><trkpt lat="42.58776743361924" lon="11.576239851295487"><ele>290.0</ele><time>2026-04-24T09:03:41.993Z</time></trkpt><trkpt lat="42.58780291935773" lon="11.576377457300557"><ele>290.0</ele><time>2026-04-24T09:03:42.993Z</time></trkpt><trkpt lat="42.58783574750943" lon="11.576537499206017"><ele>290.4</ele><time>2026-04-24T09:03:43.993Z</time></trkpt><trkpt lat="42.587852435038386" lon="11.576696260631293"><ele>290.8</ele><time>2026-04-24T09:03:44.993Z</time></trkpt><trkpt lat="42.587847198242905" lon="11.576847009598003"><ele>291.2</ele><time>2026-04-24T09:03:45.993Z</time></trkpt><trkpt lat="42.58785440199916" lon="11.577005269028325"><ele>291.6</ele><time>2026-04-24T09:03:46.993Z</time></trkpt><trkpt lat="42.58785270032701" lon="11.577139177672176"><ele>292.0</ele><time>2026-04-24T09:03:47.993Z</time></trkpt><trkpt lat="42.58784036586622" lon="11.577299316259275"><ele>289.25</ele><time>2026-04-24T09:03:48.993Z</time></trkpt><trkpt lat="42.58779150805668" lon="11.577432856539682"><ele>286.5</ele><time>2026-04-24T09:03:49.993Z</time></trkpt><trkpt lat="42.58772788954182" lon="11.577592078802569"><ele>283.75</ele><time>2026-04-24T09:03:50.993Z</time></trkpt><trkpt lat="42.58765760700558" lon="11.577765405173736"><ele>281.0</ele><time>2026-04-24T09:03:51.993Z</time></trkpt><trkpt lat="42.5876229213789" lon="11.577908067406934"><ele>281.0</ele><time>2026-04-24T09:03:52.993Z</time></trkpt><trkpt lat="42.58757522061659" lon="11.578029319126523"><ele>281.0</ele><time>2026-04-24T09:03:53.993Z</time></trkpt><trkpt lat="42.58753129062665" lon="11.578172223308322"><ele>281.0</ele><time>2026-04-24T09:03:54.993Z</time></trkpt><trkpt lat="42.587496013312695" lon="11.578341063218751"><ele>281.0</ele><time>2026-04-24T09:03:55.993Z</time></trkpt><trkpt lat="42.58748313840276" lon="11.578522445444516"><ele>280.75</ele><time>2026-04-24T09:03:56.993Z</time></trkpt><trkpt lat="42.58749022274784" lon="11.578695668961828"><ele>280.5</ele><time>2026-04-24T09:03:57.993Z</time></trkpt><trkpt lat="42.58753232383241" lon="11.578881874393437"><ele>280.25</ele><time>2026-04-24T09:03:58.993Z</time></trkpt><trkpt lat="42.587542248660036" lon="11.57907782030037"><ele>280.0</ele><time>2026-04-24T09:03:59.993Z</time></trkpt><trkpt lat="42.58753315414849" lon="11.57926429551779"><ele>280.0</ele><time>2026-04-24T09:04:00.993Z</time></trkpt><trkpt lat="42.58752264189634" lon="11.579425745809194"><ele>280.0</ele><time>2026-04-24T09:04:01.993Z</time></trkpt><trkpt lat="42.58752016028591" lon="11.579578040838614"><ele>280.0</ele><time>2026-04-24T09:04:02.993Z</time></trkpt><trkpt lat="42.587525277870164" lon="11.57972476398168"><ele>280.0</ele><time>2026-04-24T09:04:03.993Z</time></trkpt><trkpt lat="42.587534834268205" lon="11.579845809726176"><ele>280.0</ele><time>2026-04-24T09:04:04.993Z</time></trkpt><trkpt lat="42.58754803580726" lon="11.579969027041987"><ele>279.66666666666663</ele><time>2026-04-24T09:04:05.993Z</time></trkpt><trkpt lat="42.58756676686839" lon="11.580081161454375"><ele>279.3333333333333</ele><time>2026-04-24T09:04:06.993Z</time></trkpt><trkpt lat="42.58759161161082" lon="11.580168308595104"><ele>279.0</ele><time>2026-04-24T09:04:07.993Z</time></trkpt><trkpt lat="42.58762966907877" lon="11.580286692277937"><ele>278.6666666666667</ele><time>2026-04-24T09:04:09.993Z</time></trkpt><trkpt lat="42.587647471124555" lon="11.580384869349611"><ele>278.33333333333337</ele><time>2026-04-24T09:04:13.994Z</time></trkpt><trkpt lat="42.58765313994174" lon="11.58048536322702"><ele>278.0</ele><time>2026-04-24T09:04:15.994Z</time></trkpt><trkpt lat="42.58767285241262" lon="11.580613531332684"><ele>277.6666666666667</ele><time>2026-04-24T09:04:17.994Z</time></trkpt><trkpt lat="42.58770327464186" lon="11.580742539861614"><ele>277.33333333333337</ele><time>2026-04-24T09:04:18.992Z</time></trkpt><trkpt lat="42.58773125468077" lon="11.580840087579572"><ele>277.0</ele><time>2026-04-24T09:04:19.992Z</time></trkpt><trkpt lat="42.587769208466035" lon="11.580926304000874"><ele>276.6666666666667</ele><time>2026-04-24T09:04:20.992Z</time></trkpt><trkpt lat="42.587809466516106" lon="11.581047576413633"><ele>276.3333333333333</ele><time>2026-04-24T09:04:21.993Z</time></trkpt><trkpt lat="42.58784341289208" lon="11.581140916864502"><ele>276.0</ele><time>2026-04-24T09:04:22.992Z</time></trkpt><trkpt lat="42.58788404565279" lon="11.581301933772378"><ele>273.75</ele><time>2026-04-24T09:04:24.993Z</time></trkpt><trkpt lat="42.58788900304413" lon="11.581440224607526"><ele>271.5</ele><time>2026-04-24T09:04:26.992Z</time></trkpt><trkpt lat="42.58792443468979" lon="11.581617359786472"><ele>269.25</ele><time>2026-04-24T09:04:28.992Z</time></trkpt><trkpt lat="42.58797253128315" lon="11.581752378357642"><ele>267.0</ele><time>2026-04-24T09:04:29.992Z</time></trkpt><trkpt lat="42.58804887265211" lon="11.581861749218278"><ele>267.0</ele><time>2026-04-24T09:04:30.992Z</time></trkpt><trkpt lat="42.58808807678874" lon="11.581964778643663"><ele>267.0</ele><time>2026-04-24T09:04:31.992Z</time></trkpt><trkpt lat="42.58809940763164" lon="11.58208594065701"><ele>267.0</ele><time>2026-04-24T09:04:32.992Z</time></trkpt><trkpt lat="42.588127284726426" lon="11.58221407064079"><ele>267.0</ele><time>2026-04-24T09:04:33.992Z</time></trkpt><trkpt lat="42.58810733160052" lon="11.582362088253078"><ele>267.0</ele><time>2026-04-24T09:04:34.992Z</time></trkpt><trkpt lat="42.58807385954699" lon="11.582519908699"><ele>265.5</ele><time>2026-04-24T09:04:35.992Z</time></trkpt><trkpt lat="42.58804730477577" lon="11.582632647922079"><ele>264.0</ele><time>2026-04-24T09:04:36.992Z</time></trkpt><trkpt lat="42.58802994622218" lon="11.582730253522758"><ele>262.5</ele><time>2026-04-24T09:04:37.992Z</time></trkpt><trkpt lat="42.58801999280392" lon="11.582830521408761"><ele>261.0</ele><time>2026-04-24T09:04:38.992Z</time></trkpt><trkpt lat="42.58800918691959" lon="11.582929849754072"><ele>259.5</ele><time>2026-04-24T09:04:39.992Z</time></trkpt><trkpt lat="42.588067346631604" lon="11.58300710331011"><ele>258.0</ele><time>2026-04-24T09:04:40.992Z</time></trkpt><trkpt lat="42.58814565841511" lon="11.58309526097235"><ele>257.0</ele><time>2026-04-24T09:04:41.992Z</time></trkpt><trkpt lat="42.58821603050715" lon="11.583183853625128"><ele>256.0</ele><time>2026-04-24T09:04:42.992Z</time></trkpt><trkpt lat="42.588285990404" lon="11.583277594705303"><ele>255.0</ele><time>2026-04-24T09:04:43.992Z</time></trkpt><trkpt lat="42.588346348763075" lon="11.583367848140227"><ele>254.0</ele><time>2026-04-24T09:04:44.992Z</time></trkpt><trkpt lat="42.588395453625466" lon="11.583502717852529"><ele>253.0</ele><time>2026-04-24T09:04:45.992Z</time></trkpt><trkpt lat="42.58843779715693" lon="11.583631732532393"><ele>252.2</ele><time>2026-04-24T09:04:46.992Z</time></trkpt><trkpt lat="42.588485931247355" lon="11.583737671228569"><ele>251.4</ele><time>2026-04-24T09:04:47.992Z</time></trkpt><trkpt lat="42.58854631772063" lon="11.583850492673577"><ele>250.59999999999997</ele><time>2026-04-24T09:04:48.992Z</time></trkpt><trkpt lat="42.588626268737336" lon="11.58397119065028"><ele>249.79999999999998</ele><time>2026-04-24T09:04:49.992Z</time></trkpt><trkpt lat="42.588694887076485" lon="11.584094720922298"><ele>249.0</ele><time>2026-04-24T09:04:50.993Z</time></trkpt><trkpt lat="42.58877105818801" lon="11.584230521452707"><ele>247.5</ele><time>2026-04-24T09:04:51.993Z</time></trkpt><trkpt lat="42.58884799375659" lon="11.584342837090231"><ele>246.0</ele><time>2026-04-24T09:04:52.993Z</time></trkpt><trkpt lat="42.58892342234468" lon="11.584448224411856"><ele>244.5</ele><time>2026-04-24T09:04:53.993Z</time></trkpt><trkpt lat="42.589020486204845" lon="11.584543733946115"><ele>243.0</ele><time>2026-04-24T09:04:54.993Z</time></trkpt><trkpt lat="42.589113734987045" lon="11.584654621785617"><ele>243.0</ele><time>2026-04-24T09:04:55.993Z</time></trkpt><trkpt lat="42.589205614549115" lon="11.584773832278902"><ele>243.0</ele><time>2026-04-24T09:04:56.993Z</time></trkpt><trkpt lat="42.58928322277395" lon="11.584888554485545"><ele>243.0</ele><time>2026-04-24T09:04:57.993Z</time></trkpt><trkpt lat="42.58935620259792" lon="11.584972493032332"><ele>243.0</ele><time>2026-04-24T09:04:58.993Z</time></trkpt><trkpt lat="42.58941384276476" lon="11.585070243190877"><ele>243.0</ele><time>2026-04-24T09:04:59.993Z</time></trkpt><trkpt lat="42.58947084011899" lon="11.58514880501055"><ele>241.4</ele><time>2026-04-24T09:05:00.993Z</time></trkpt><trkpt lat="42.58951444972942" lon="11.585219468202718"><ele>239.8</ele><time>2026-04-24T09:05:01.993Z</time></trkpt><trkpt lat="42.58955093825577" lon="11.5852897652716"><ele>238.2</ele><time>2026-04-24T09:05:02.993Z</time></trkpt><trkpt lat="42.58961786904572" lon="11.58545055813103"><ele>236.6</ele><time>2026-04-24T09:05:04.993Z</time></trkpt><trkpt lat="42.58966811480332" lon="11.585555698113792"><ele>235.0</ele><time>2026-04-24T09:05:05.993Z</time></trkpt><trkpt lat="42.589733582400655" lon="11.585640198024343"><ele>233.4</ele><time>2026-04-24T09:05:06.993Z</time></trkpt><trkpt lat="42.589797653236516" lon="11.585697022218218"><ele>231.8</ele><time>2026-04-24T09:05:07.993Z</time></trkpt><trkpt lat="42.58986628211218" lon="11.585722041965589"><ele>230.2</ele><time>2026-04-24T09:05:09.993Z</time></trkpt><trkpt lat="42.589958378963644" lon="11.585605747128955"><ele>228.6</ele><time>2026-04-24T09:05:11.993Z</time></trkpt><trkpt lat="42.59001990751896" lon="11.585633611313519"><ele>227.0</ele><time>2026-04-24T09:05:12.993Z</time></trkpt><trkpt lat="42.59009651449902" lon="11.585793515901296"><ele>227.0</ele><time>2026-04-24T09:05:14.993Z</time></trkpt><trkpt lat="42.59009504136901" lon="11.585937793117814"><ele>227.0</ele><time>2026-04-24T09:05:15.993Z</time></trkpt><trkpt lat="42.590136470024895" lon="11.586030658148248"><ele>227.0</ele><time>2026-04-24T09:05:16.993Z</time></trkpt><trkpt lat="42.59016634177401" lon="11.586186418408845"><ele>227.0</ele><time>2026-04-24T09:05:18.993Z</time></trkpt><trkpt lat="42.59022041683857" lon="11.586282066528929"><ele>227.0</ele><time>2026-04-24T09:05:20.993Z</time></trkpt><trkpt lat="42.59025131350226" lon="11.586364610457059"><ele>220.0</ele><time>2026-04-24T09:05:21.993Z</time></trkpt><trkpt lat="42.59028670571186" lon="11.586467910842877"><ele>220.0</ele><time>2026-04-24T09:05:22.993Z</time></trkpt><trkpt lat="42.59030032249093" lon="11.586560679005661"><ele>220.0</ele><time>2026-04-24T09:05:23.993Z</time></trkpt><trkpt lat="42.590291803059735" lon="11.586652636539611"><ele>220.0</ele><time>2026-04-24T09:05:24.993Z</time></trkpt><trkpt lat="42.590251189041325" lon="11.586743290692548"><ele>220.0</ele><time>2026-04-24T09:05:25.993Z</time></trkpt><trkpt lat="42.59024580841785" lon="11.586859700941561"><ele>220.0</ele><time>2026-04-24T09:05:27.993Z</time></trkpt></trkseg><trkseg><trkpt lat="42.59023070314573" lon="11.586954160146155"><ele>219.0</ele><time>2026-04-24T09:21:40.002Z</time></trkpt><trkpt lat="42.590226577344346" lon="11.587073434183509"><ele>218.0</ele><time>2026-04-24T09:21:43.002Z</time></trkpt><trkpt lat="42.59020713871604" lon="11.587286890977381"><ele>217.0</ele><time>2026-04-24T09:21:45.002Z</time></trkpt><trkpt lat="42.59020394266172" lon="11.587440951424748"><ele>216.0</ele><time>2026-04-24T09:21:46.002Z</time></trkpt><trkpt lat="42.590202709639435" lon="11.587539908796915"><ele>215.0</ele><time>2026-04-24T09:21:47.002Z</time></trkpt><trkpt lat="42.59023141964885" lon="11.587662218033229"><ele>215.0</ele><time>2026-04-24T09:21:49.002Z</time></trkpt><trkpt lat="42.59027211553988" lon="11.587746623797957"><ele>215.0</ele><time>2026-04-24T09:21:50.002Z</time></trkpt><trkpt lat="42.59031669844907" lon="11.587848394032578"><ele>215.0</ele><time>2026-04-24T09:21:51.002Z</time></trkpt><trkpt lat="42.590393387606795" lon="11.587983154552038"><ele>215.0</ele><time>2026-04-24T09:21:52.003Z</time></trkpt><trkpt lat="42.59046481651024" lon="11.588115629240741"><ele>215.0</ele><time>2026-04-24T09:21:53.003Z</time></trkpt><trkpt lat="42.59052708879604" lon="11.588229280151713"><ele>215.33333333333334</ele><time>2026-04-24T09:21:54.003Z</time></trkpt><trkpt lat="42.590577112100796" lon="11.588313257941573"><ele>215.66666666666669</ele><time>2026-04-24T09:21:55.003Z</time></trkpt><trkpt lat="42.590632128619546" lon="11.588375776897488"><ele>216.0</ele><time>2026-04-24T09:21:56.003Z</time></trkpt><trkpt lat="42.59069345787394" lon="11.58842261388751"><ele>216.33333333333331</ele><time>2026-04-24T09:21:57.003Z</time></trkpt><trkpt lat="42.59073733764159" lon="11.588524081084119"><ele>216.66666666666666</ele><time>2026-04-24T09:21:58.003Z</time></trkpt><trkpt lat="42.5907632994726" lon="11.588636690651835"><ele>217.0</ele><time>2026-04-24T09:21:59.003Z</time></trkpt><trkpt lat="42.59078967267127" lon="11.588737709091598"><ele>215.16666666666666</ele><time>2026-04-24T09:22:00.003Z</time></trkpt><trkpt lat="42.590826611515354" lon="11.588812244757468"><ele>213.33333333333331</ele><time>2026-04-24T09:22:01.003Z</time></trkpt><trkpt lat="42.59088927424534" lon="11.588891652289373"><ele>211.5</ele><time>2026-04-24T09:22:02.003Z</time></trkpt><trkpt lat="42.59094850516883" lon="11.588967126510155"><ele>209.66666666666669</ele><time>2026-04-24T09:22:03.003Z</time></trkpt><trkpt lat="42.59098297211316" lon="11.589053824050705"><ele>207.83333333333334</ele><time>2026-04-24T09:22:04.003Z</time></trkpt><trkpt lat="42.59099671300306" lon="11.589142990061884"><ele>206.0</ele><time>2026-04-24T09:22:05.003Z</time></trkpt><trkpt lat="42.59101956418695" lon="11.589278564219079"><ele>206.0</ele><time>2026-04-24T09:22:07.003Z</time></trkpt><trkpt lat="42.59099676610677" lon="11.589376984289135"><ele>206.0</ele><time>2026-04-24T09:22:08.003Z</time></trkpt><trkpt lat="42.590984944567005" lon="11.589494921409525"><ele>206.0</ele><time>2026-04-24T09:22:09.003Z</time></trkpt><trkpt lat="42.59097319289223" lon="11.589623314393348"><ele>206.0</ele><time>2026-04-24T09:22:10.003Z</time></trkpt><trkpt lat="42.59097388801864" lon="11.589770432874147"><ele>206.0</ele><time>2026-04-24T09:22:11.003Z</time></trkpt><trkpt lat="42.59098774198621" lon="11.589946489141411"><ele>205.20000000000002</ele><time>2026-04-24T09:22:12.003Z</time></trkpt><trkpt lat="42.59099478485802" lon="11.590105828188847"><ele>204.4</ele><time>2026-04-24T09:22:13.003Z</time></trkpt><trkpt lat="42.59099435890103" lon="11.590240678662035"><ele>203.6</ele><time>2026-04-24T09:22:14.003Z</time></trkpt><trkpt lat="42.59100193636974" lon="11.590389338602602"><ele>202.8</ele><time>2026-04-24T09:22:15.003Z</time></trkpt><trkpt lat="42.59101007180201" lon="11.590550146817476"><ele>202.0</ele><time>2026-04-24T09:22:16.003Z</time></trkpt><trkpt lat="42.59101182898736" lon="11.590680920779326"><ele>201.28571428571428</ele><time>2026-04-24T09:22:17.003Z</time></trkpt><trkpt lat="42.591014989811704" lon="11.590793504829229"><ele>200.57142857142856</ele><time>2026-04-24T09:22:18.003Z</time></trkpt><trkpt lat="42.59102631515882" lon="11.59088362405481"><ele>199.85714285714286</ele><time>2026-04-24T09:22:19.003Z</time></trkpt><trkpt lat="42.59105263636225" lon="11.590970199800116"><ele>199.14285714285714</ele><time>2026-04-24T09:22:20.003Z</time></trkpt><trkpt lat="42.591078185730545" lon="11.59104978378485"><ele>198.42857142857144</ele><time>2026-04-24T09:22:21.003Z</time></trkpt><trkpt lat="42.591126363150664" lon="11.59112921919934"><ele>197.71428571428572</ele><time>2026-04-24T09:22:22.003Z</time></trkpt><trkpt lat="42.591159234891215" lon="11.591229352794043"><ele>197.0</ele><time>2026-04-24T09:22:23.003Z</time></trkpt><trkpt lat="42.59116634194511" lon="11.591329830910945"><ele>195.2</ele><time>2026-04-24T09:22:24.003Z</time></trkpt><trkpt lat="42.59119412502298" lon="11.591438990725626"><ele>193.39999999999998</ele><time>2026-04-24T09:22:25.003Z</time></trkpt><trkpt lat="42.591216636116" lon="11.5915747765662"><ele>191.60000000000002</ele><time>2026-04-24T09:22:26.003Z</time></trkpt><trkpt lat="42.59122940033621" lon="11.591690262418558"><ele>189.8</ele><time>2026-04-24T09:22:27.003Z</time></trkpt><trkpt lat="42.59124958618654" lon="11.591814122071463"><ele>188.0</ele><time>2026-04-24T09:22:28.003Z</time></trkpt><trkpt lat="42.59128259680864" lon="11.591919985332963"><ele>186.2</ele><time>2026-04-24T09:22:29.003Z</time></trkpt><trkpt lat="42.59131896897922" lon="11.592026688154586"><ele>184.4</ele><time>2026-04-24T09:22:30.003Z</time></trkpt><trkpt lat="42.591364989179226" lon="11.592136059636934"><ele>182.6</ele><time>2026-04-24T09:22:31.003Z</time></trkpt><trkpt lat="42.59143157457614" lon="11.592256940097647"><ele>180.79999999999998</ele><time>2026-04-24T09:22:32.003Z</time></trkpt><trkpt lat="42.59150515311263" lon="11.592368178317349"><ele>179.0</ele><time>2026-04-24T09:22:33.003Z</time></trkpt><trkpt lat="42.59158370740141" lon="11.592511688539336"><ele>179.0</ele><time>2026-04-24T09:22:34.003Z</time></trkpt><trkpt lat="42.59162231211918" lon="11.592615081392696"><ele>179.0</ele><time>2026-04-24T09:22:36.003Z</time></trkpt><trkpt lat="42.591537445058044" lon="11.592789978289616"><ele>179.0</ele><time>2026-04-24T09:22:38.003Z</time></trkpt><trkpt lat="42.59150611029659" lon="11.592911931127787"><ele>179.0</ele><time>2026-04-24T09:22:39.003Z</time></trkpt><trkpt lat="42.591496569233584" lon="11.593029193572233"><ele>179.0</ele><time>2026-04-24T09:22:40.003Z</time></trkpt><trkpt lat="42.591497807801744" lon="11.593198468012147"><ele>177.5</ele><time>2026-04-24T09:22:41.003Z</time></trkpt><trkpt lat="42.591519644062885" lon="11.593392067034118"><ele>176.0</ele><time>2026-04-24T09:22:42.003Z</time></trkpt><trkpt lat="42.59154435186186" lon="11.59359232495212"><ele>174.5</ele><time>2026-04-24T09:22:43.003Z</time></trkpt><trkpt lat="42.59156965331394" lon="11.593767449091818"><ele>173.0</ele><time>2026-04-24T09:22:44.003Z</time></trkpt><trkpt lat="42.5916015343257" lon="11.593962018506236"><ele>172.5</ele><time>2026-04-24T09:22:45.003Z</time></trkpt><trkpt lat="42.59163434967898" lon="11.594114172011228"><ele>172.0</ele><time>2026-04-24T09:22:46.003Z</time></trkpt><trkpt lat="42.5916657337254" lon="11.594264640120869"><ele>171.5</ele><time>2026-04-24T09:22:47.003Z</time></trkpt><trkpt lat="42.591735174595726" lon="11.594414626603996"><ele>171.0</ele><time>2026-04-24T09:22:48.003Z</time></trkpt><trkpt lat="42.59180961721263" lon="11.594557429517883"><ele>170.0</ele><time>2026-04-24T09:22:49.003Z</time></trkpt><trkpt lat="42.591885107927205" lon="11.594726338405541"><ele>169.0</ele><time>2026-04-24T09:22:50.003Z</time></trkpt><trkpt lat="42.591959325366744" lon="11.594898201451475"><ele>168.0</ele><time>2026-04-24T09:22:51.003Z</time></trkpt><trkpt lat="42.59203736254091" lon="11.595068576579804"><ele>167.0</ele><time>2026-04-24T09:22:52.003Z</time></trkpt><trkpt lat="42.59210506990486" lon="11.595226555422006"><ele>167.5</ele><time>2026-04-24T09:22:53.003Z</time></trkpt><trkpt lat="42.592157796917974" lon="11.595343801452474"><ele>168.0</ele><time>2026-04-24T09:22:54.003Z</time></trkpt><trkpt lat="42.59219365059988" lon="11.59542869437226"><ele>168.5</ele><time>2026-04-24T09:22:55.003Z</time></trkpt><trkpt lat="42.59221655003588" lon="11.59551065648679"><ele>169.0</ele><time>2026-04-24T09:22:56.003Z</time></trkpt><trkpt lat="42.59226157899689" lon="11.595657026510299"><ele>169.5</ele><time>2026-04-24T09:22:58.003Z</time></trkpt><trkpt lat="42.592287230400984" lon="11.595750807237954"><ele>170.0</ele><time>2026-04-24T09:23:00.003Z</time></trkpt><trkpt lat="42.59230625209625" lon="11.595835496532715"><ele>170.0</ele><time>2026-04-24T09:23:15.002Z</time></trkpt><trkpt lat="42.59230310919883" lon="11.595974392230794"><ele>170.0</ele><time>2026-04-24T09:23:17.002Z</time></trkpt><trkpt lat="42.59230551583396" lon="11.596120426923202"><ele>170.0</ele><time>2026-04-24T09:23:19.002Z</time></trkpt><trkpt lat="42.59230610539777" lon="11.596234185201642"><ele>170.0</ele><time>2026-04-24T09:23:20.002Z</time></trkpt><trkpt lat="42.59231909983097" lon="11.596372795422871"><ele>170.0</ele><time>2026-04-24T09:23:21.002Z</time></trkpt><trkpt lat="42.592325850743094" lon="11.596496582129376"><ele>168.4</ele><time>2026-04-24T09:23:22.002Z</time></trkpt><trkpt lat="42.59233923082046" lon="11.596631081640052"><ele>166.8</ele><time>2026-04-24T09:23:23.002Z</time></trkpt><trkpt lat="42.5923654327447" lon="11.596762254330304"><ele>165.2</ele><time>2026-04-24T09:23:24.002Z</time></trkpt><trkpt lat="42.59239436941838" lon="11.59688737859211"><ele>163.6</ele><time>2026-04-24T09:23:25.002Z</time></trkpt><trkpt lat="42.59243348657454" lon="11.597004617538209"><ele>162.0</ele><time>2026-04-24T09:23:26.002Z</time></trkpt><trkpt lat="42.59249191520755" lon="11.597109908192804"><ele>162.8</ele><time>2026-04-24T09:23:27.002Z</time></trkpt><trkpt lat="42.59252919968095" lon="11.597222931809805"><ele>163.6</ele><time>2026-04-24T09:23:28.002Z</time></trkpt><trkpt lat="42.59257053568584" lon="11.597311052992561"><ele>164.4</ele><time>2026-04-24T09:23:29.002Z</time></trkpt><trkpt lat="42.59265099728361" lon="11.597420271935265"><ele>165.20000000000002</ele><time>2026-04-24T09:23:31.002Z</time></trkpt><trkpt lat="42.59278745796088" lon="11.597400458006486"><ele>166.0</ele><time>2026-04-24T09:23:33.002Z</time></trkpt><trkpt lat="42.59287456114209" lon="11.59741601667255"><ele>166.0</ele><time>2026-04-24T09:23:34.002Z</time></trkpt><trkpt lat="42.59296133018072" lon="11.597409256166777"><ele>166.0</ele><time>2026-04-24T09:23:35.002Z</time></trkpt><trkpt lat="42.59304852938789" lon="11.59740614657385"><ele>166.0</ele><time>2026-04-24T09:23:36.002Z</time></trkpt><trkpt lat="42.59314148327796" lon="11.597404870916284"><ele>166.0</ele><time>2026-04-24T09:23:37.002Z</time></trkpt><trkpt lat="42.59324858823037" lon="11.597406540962986"><ele>166.0</ele><time>2026-04-24T09:23:38.002Z</time></trkpt><trkpt lat="42.59334313062201" lon="11.597413648475092"><ele>166.0</ele><time>2026-04-24T09:23:39.002Z</time></trkpt><trkpt lat="42.59344045929473" lon="11.597433766914648"><ele>166.0</ele><time>2026-04-24T09:23:40.002Z</time></trkpt><trkpt lat="42.593532040316404" lon="11.597475059914792"><ele>166.0</ele><time>2026-04-24T09:23:41.002Z</time></trkpt><trkpt lat="42.59360268813161" lon="11.597526760880479"><ele>166.0</ele><time>2026-04-24T09:23:42.002Z</time></trkpt><trkpt lat="42.59368257008136" lon="11.597626660331176"><ele>166.0</ele><time>2026-04-24T09:23:44.002Z</time></trkpt><trkpt lat="42.5937190695657" lon="11.597752652732485"><ele>166.33333333333334</ele><time>2026-04-24T09:23:46.002Z</time></trkpt><trkpt lat="42.593716630123964" lon="11.597848825127201"><ele>166.66666666666669</ele><time>2026-04-24T09:23:47.002Z</time></trkpt><trkpt lat="42.59370408939062" lon="11.597951268595578"><ele>167.0</ele><time>2026-04-24T09:23:48.002Z</time></trkpt><trkpt lat="42.59366896512309" lon="11.598076140668477"><ele>167.33333333333334</ele><time>2026-04-24T09:23:49.002Z</time></trkpt><trkpt lat="42.59364578576299" lon="11.598191070383251"><ele>167.66666666666666</ele><time>2026-04-24T09:23:50.002Z</time></trkpt><trkpt lat="42.5936192885715" lon="11.598294351176557"><ele>168.0</ele><time>2026-04-24T09:23:51.002Z</time></trkpt><trkpt lat="42.59359430248975" lon="11.598396942389437"><ele>166.33333333333334</ele><time>2026-04-24T09:23:52.002Z</time></trkpt><trkpt lat="42.593581477276366" lon="11.598482303338093"><ele>164.66666666666666</ele><time>2026-04-24T09:23:53.002Z</time></trkpt><trkpt lat="42.593566242545116" lon="11.598566577435939"><ele>163.0</ele><time>2026-04-24T09:23:54.002Z</time></trkpt><trkpt lat="42.593565474899336" lon="11.59869118489934"><ele>161.33333333333331</ele><time>2026-04-24T09:23:56.002Z</time></trkpt><trkpt lat="42.59358597652135" lon="11.598844459100283"><ele>159.66666666666666</ele><time>2026-04-24T09:23:59.002Z</time></trkpt><trkpt lat="42.593576495213156" lon="11.59896764539425"><ele>158.0</ele><time>2026-04-24T09:24:00.002Z</time></trkpt><trkpt lat="42.59356687273227" lon="11.599109430043628"><ele>157.75</ele><time>2026-04-24T09:24:01.002Z</time></trkpt><trkpt lat="42.593554800542215" lon="11.599239308986652"><ele>157.5</ele><time>2026-04-24T09:24:02.002Z</time></trkpt><trkpt lat="42.593532771042284" lon="11.599383254753763"><ele>157.25</ele><time>2026-04-24T09:24:03.002Z</time></trkpt><trkpt lat="42.59351855943566" lon="11.599567219526733"><ele>157.0</ele><time>2026-04-24T09:24:04.002Z</time></trkpt><trkpt lat="42.59348703087232" lon="11.599745394884685"><ele>157.0</ele><time>2026-04-24T09:24:05.002Z</time></trkpt><trkpt lat="42.59346028999016" lon="11.599920975345004"><ele>157.0</ele><time>2026-04-24T09:24:06.003Z</time></trkpt><trkpt lat="42.593430832866446" lon="11.600060657317398"><ele>157.0</ele><time>2026-04-24T09:24:07.003Z</time></trkpt><trkpt lat="42.593374298643745" lon="11.600169390644501"><ele>157.0</ele><time>2026-04-24T09:24:08.003Z</time></trkpt><trkpt lat="42.59329352933455" lon="11.60024976983592"><ele>157.0</ele><time>2026-04-24T09:24:09.003Z</time></trkpt><trkpt lat="42.59319979905631" lon="11.600320965595833"><ele>158.33333333333334</ele><time>2026-04-24T09:24:10.003Z</time></trkpt><trkpt lat="42.59310259171146" lon="11.600374418656665"><ele>159.66666666666669</ele><time>2026-04-24T09:24:11.003Z</time></trkpt><trkpt lat="42.593016951228165" lon="11.600410736296375"><ele>161.0</ele><time>2026-04-24T09:24:12.003Z</time></trkpt><trkpt lat="42.592935538873704" lon="11.600440574335714"><ele>162.33333333333334</ele><time>2026-04-24T09:24:13.003Z</time></trkpt><trkpt lat="42.592861582891736" lon="11.60047196191528"><ele>163.66666666666666</ele><time>2026-04-24T09:24:14.003Z</time></trkpt><trkpt lat="42.59280160721088" lon="11.60050407189943"><ele>165.0</ele><time>2026-04-24T09:24:15.003Z</time></trkpt><trkpt lat="42.592732269242774" lon="11.60054812238836"><ele>165.0</ele><time>2026-04-24T09:24:17.003Z</time></trkpt><trkpt lat="42.592671984252966" lon="11.600574608467724"><ele>165.0</ele><time>2026-04-24T09:24:19.003Z</time></trkpt><trkpt lat="42.592622886127074" lon="11.600660609586566"><ele>165.0</ele><time>2026-04-24T09:29:12.004Z</time></trkpt><trkpt lat="42.592550949577245" lon="11.600768436831832"><ele>165.0</ele><time>2026-04-24T09:29:14.004Z</time></trkpt><trkpt lat="42.59248205732055" lon="11.600814038386076"><ele>165.0</ele><time>2026-04-24T09:29:15.004Z</time></trkpt><trkpt lat="42.59241231143766" lon="11.600863979720547"><ele>165.0</ele><time>2026-04-24T09:29:16.004Z</time></trkpt><trkpt lat="42.59232704013156" lon="11.600899104385533"><ele>165.0</ele><time>2026-04-24T09:29:17.004Z</time></trkpt><trkpt lat="42.59224119142881" lon="11.600958836607168"><ele>165.0</ele><time>2026-04-24T09:29:18.004Z</time></trkpt><trkpt lat="42.592160349914415" lon="11.60101508491215"><ele>165.0</ele><time>2026-04-24T09:29:19.004Z</time></trkpt><trkpt lat="42.59206323372504" lon="11.601084101590486"><ele>165.0</ele><time>2026-04-24T09:29:20.004Z</time></trkpt><trkpt lat="42.59196454691595" lon="11.601181423418323"><ele>165.0</ele><time>2026-04-24T09:29:21.004Z</time></trkpt><trkpt lat="42.59186261835304" lon="11.601260176889122"><ele>165.0</ele><time>2026-04-24T09:29:22.004Z</time></trkpt><trkpt lat="42.591759949950756" lon="11.601350154986195"><ele>165.0</ele><time>2026-04-24T09:29:23.004Z</time></trkpt><trkpt lat="42.59166705017532" lon="11.60145965557784"><ele>165.0</ele><time>2026-04-24T09:29:24.004Z</time></trkpt><trkpt lat="42.59157103408753" lon="11.601591688952775"><ele>165.0</ele><time>2026-04-24T09:29:25.004Z</time></trkpt><trkpt lat="42.59148357945331" lon="11.60175084604351"><ele>165.0</ele><time>2026-04-24T09:29:26.004Z</time></trkpt><trkpt lat="42.591428308770986" lon="11.601897797677767"><ele>165.0</ele><time>2026-04-24T09:29:27.004Z</time></trkpt><trkpt lat="42.59138276953778" lon="11.602065343197669"><ele>165.0</ele><time>2026-04-24T09:29:28.004Z</time></trkpt><trkpt lat="42.59134508361487" lon="11.602244553990298"><ele>165.0</ele><time>2026-04-24T09:29:29.004Z</time></trkpt><trkpt lat="42.59132210448151" lon="11.602424254421212"><ele>167.66666666666666</ele><time>2026-04-24T09:29:30.004Z</time></trkpt><trkpt lat="42.59131772805373" lon="11.602619160211047"><ele>170.33333333333331</ele><time>2026-04-24T09:29:31.003Z</time></trkpt><trkpt lat="42.591323542841224" lon="11.602833263989917"><ele>173.0</ele><time>2026-04-24T09:29:32.002Z</time></trkpt><trkpt lat="42.591342355967086" lon="11.60304061734385"><ele>174.0</ele><time>2026-04-24T09:29:33.002Z</time></trkpt><trkpt lat="42.591397678266304" lon="11.60322086749783"><ele>175.0</ele><time>2026-04-24T09:29:34.002Z</time></trkpt><trkpt lat="42.59146273702069" lon="11.603379208531395"><ele>176.0</ele><time>2026-04-24T09:29:35.003Z</time></trkpt><trkpt lat="42.59156552422024" lon="11.603573034989916"><ele>174.66666666666666</ele><time>2026-04-24T09:29:36.003Z</time></trkpt><trkpt lat="42.59168033725455" lon="11.603746974991294"><ele>173.33333333333334</ele><time>2026-04-24T09:29:37.003Z</time></trkpt><trkpt lat="42.5917921815111" lon="11.603899128482988"><ele>172.0</ele><time>2026-04-24T09:29:38.002Z</time></trkpt><trkpt lat="42.59191759244356" lon="11.604070866270662"><ele>175.33333333333334</ele><time>2026-04-24T09:29:39.002Z</time></trkpt><trkpt lat="42.592070948634124" lon="11.604243705000576"><ele>178.66666666666666</ele><time>2026-04-24T09:29:40.003Z</time></trkpt><trkpt lat="42.59220389984499" lon="11.604420340403662"><ele>182.0</ele><time>2026-04-24T09:29:41.003Z</time></trkpt><trkpt lat="42.59233708097495" lon="11.604587538706173"><ele>182.0</ele><time>2026-04-24T09:29:42.003Z</time></trkpt><trkpt lat="42.592470365163294" lon="11.604772022793425"><ele>182.0</ele><time>2026-04-24T09:29:43.003Z</time></trkpt><trkpt lat="42.592600386151176" lon="11.604938166823258"><ele>182.0</ele><time>2026-04-24T09:29:44.003Z</time></trkpt><trkpt lat="42.592730397595176" lon="11.60511562759731"><ele>185.0</ele><time>2026-04-24T09:29:45.003Z</time></trkpt><trkpt lat="42.59286204394719" lon="11.60528444712443"><ele>188.0</ele><time>2026-04-24T09:29:46.003Z</time></trkpt><trkpt lat="42.59298617803006" lon="11.605455125524312"><ele>191.0</ele><time>2026-04-24T09:29:47.003Z</time></trkpt><trkpt lat="42.59310962253579" lon="11.605631084255734"><ele>191.0</ele><time>2026-04-24T09:29:48.003Z</time></trkpt><trkpt lat="42.59323384220731" lon="11.605797097013962"><ele>191.0</ele><time>2026-04-24T09:29:49.003Z</time></trkpt><trkpt lat="42.59335230331607" lon="11.605962888301372"><ele>191.0</ele><time>2026-04-24T09:29:50.003Z</time></trkpt><trkpt lat="42.59347473536773" lon="11.606133540143393"><ele>192.33333333333331</ele><time>2026-04-24T09:29:51.003Z</time></trkpt><trkpt lat="42.59359699741406" lon="11.606308724000181"><ele>193.66666666666666</ele><time>2026-04-24T09:29:52.003Z</time></trkpt><trkpt lat="42.59372276191838" lon="11.606476531369681"><ele>195.0</ele><time>2026-04-24T09:29:53.003Z</time></trkpt><trkpt lat="42.59384899863671" lon="11.606640907663799"><ele>195.0</ele><time>2026-04-24T09:29:54.003Z</time></trkpt><trkpt lat="42.59397062147082" lon="11.60681343763945"><ele>195.0</ele><time>2026-04-24T09:29:55.003Z</time></trkpt><trkpt lat="42.5940903550705" lon="11.606984883144936"><ele>195.0</ele><time>2026-04-24T09:29:56.003Z</time></trkpt><trkpt lat="42.59421524500401" lon="11.60713731996531"><ele>195.0</ele><time>2026-04-24T09:29:57.003Z</time></trkpt><trkpt lat="42.59434291844993" lon="11.607299905588546"><ele>195.0</ele><time>2026-04-24T09:29:58.003Z</time></trkpt><trkpt lat="42.59444498486056" lon="11.607491338420965"><ele>195.0</ele><time>2026-04-24T09:29:59.003Z</time></trkpt><trkpt lat="42.59457521607732" lon="11.607653627131395"><ele>195.66666666666669</ele><time>2026-04-24T09:30:00.003Z</time></trkpt><trkpt lat="42.594714823496346" lon="11.607816126037783"><ele>196.33333333333334</ele><time>2026-04-24T09:30:01.003Z</time></trkpt><trkpt lat="42.594864288707015" lon="11.607958920954275"><ele>197.0</ele><time>2026-04-24T09:30:02.003Z</time></trkpt><trkpt lat="42.595006217179204" lon="11.608097167823576"><ele>197.0</ele><time>2026-04-24T09:30:03.003Z</time></trkpt><trkpt lat="42.595155476858956" lon="11.60822911527393"><ele>197.0</ele><time>2026-04-24T09:30:04.003Z</time></trkpt><trkpt lat="42.595302929019155" lon="11.608374150538177"><ele>197.0</ele><time>2026-04-24T09:30:05.003Z</time></trkpt><trkpt lat="42.59545595910834" lon="11.608514441527522"><ele>198.66666666666669</ele><time>2026-04-24T09:30:06.003Z</time></trkpt><trkpt lat="42.59560275363432" lon="11.608653921998288"><ele>200.33333333333331</ele><time>2026-04-24T09:30:07.003Z</time></trkpt><trkpt lat="42.59573616482123" lon="11.608801753361575"><ele>202.0</ele><time>2026-04-24T09:30:08.003Z</time></trkpt><trkpt lat="42.59587212762954" lon="11.608981541273993"><ele>202.0</ele><time>2026-04-24T09:30:09.003Z</time></trkpt><trkpt lat="42.595998007412554" lon="11.609153464567747"><ele>202.0</ele><time>2026-04-24T09:30:10.003Z</time></trkpt><trkpt lat="42.59610790683384" lon="11.609335970265237"><ele>202.0</ele><time>2026-04-24T09:30:11.003Z</time></trkpt><trkpt lat="42.596216852900206" lon="11.609520781105493"><ele>203.0</ele><time>2026-04-24T09:30:12.003Z</time></trkpt><trkpt lat="42.596335467630766" lon="11.609704936060712"><ele>204.0</ele><time>2026-04-24T09:30:13.003Z</time></trkpt><trkpt lat="42.596463908721276" lon="11.609890616992145"><ele>205.0</ele><time>2026-04-24T09:30:14.003Z</time></trkpt><trkpt lat="42.596591821768534" lon="11.610071016123355"><ele>205.0</ele><time>2026-04-24T09:30:15.003Z</time></trkpt><trkpt lat="42.59671371275512" lon="11.610262914105737"><ele>205.0</ele><time>2026-04-24T09:30:16.003Z</time></trkpt><trkpt lat="42.59684388157466" lon="11.610457302809579"><ele>205.0</ele><time>2026-04-24T09:30:17.003Z</time></trkpt><trkpt lat="42.59694704343833" lon="11.61064798951673"><ele>206.66666666666666</ele><time>2026-04-24T09:30:18.003Z</time></trkpt><trkpt lat="42.59705876927727" lon="11.610842676458297"><ele>208.33333333333331</ele><time>2026-04-24T09:30:19.003Z</time></trkpt><trkpt lat="42.59718195177022" lon="11.61101923409175"><ele>210.0</ele><time>2026-04-24T09:30:20.003Z</time></trkpt><trkpt lat="42.597304840673175" lon="11.611201346271098"><ele>211.0</ele><time>2026-04-24T09:30:21.003Z</time></trkpt><trkpt lat="42.59742900544991" lon="11.611380604929797"><ele>212.0</ele><time>2026-04-24T09:30:22.003Z</time></trkpt><trkpt lat="42.59754828151368" lon="11.611574033645665"><ele>213.0</ele><time>2026-04-24T09:30:23.003Z</time></trkpt><trkpt lat="42.59767121996992" lon="11.61176923469802"><ele>213.0</ele><time>2026-04-24T09:30:24.003Z</time></trkpt><trkpt lat="42.597783353832426" lon="11.611973014260956"><ele>213.0</ele><time>2026-04-24T09:30:25.003Z</time></trkpt><trkpt lat="42.59790430834345" lon="11.612164049992215"><ele>213.0</ele><time>2026-04-24T09:30:26.003Z</time></trkpt><trkpt lat="42.598025813571496" lon="11.612361072622175"><ele>214.66666666666669</ele><time>2026-04-24T09:30:27.003Z</time></trkpt><trkpt lat="42.5981490316855" lon="11.612552059997295"><ele>216.33333333333334</ele><time>2026-04-24T09:30:28.003Z</time></trkpt><trkpt lat="42.59823762447638" lon="11.612770419693973"><ele>218.0</ele><time>2026-04-24T09:30:29.003Z</time></trkpt><trkpt lat="42.59832233795597" lon="11.612986525632941"><ele>221.0</ele><time>2026-04-24T09:30:30.003Z</time></trkpt><trkpt lat="42.5983845055739" lon="11.613202003581687"><ele>224.0</ele><time>2026-04-24T09:30:31.003Z</time></trkpt><trkpt lat="42.598429666236534" lon="11.613418988801483"><ele>227.0</ele><time>2026-04-24T09:30:32.003Z</time></trkpt><trkpt lat="42.59847298940805" lon="11.61364275184301"><ele>229.0</ele><time>2026-04-24T09:30:33.003Z</time></trkpt><trkpt lat="42.59851791367594" lon="11.613873528847138"><ele>231.0</ele><time>2026-04-24T09:30:34.003Z</time></trkpt><trkpt lat="42.59856461819132" lon="11.614115517965487"><ele>233.0</ele><time>2026-04-24T09:30:35.003Z</time></trkpt><trkpt lat="42.598609397668646" lon="11.614350081181717"><ele>232.33333333333334</ele><time>2026-04-24T09:30:36.003Z</time></trkpt><trkpt lat="42.59865440133482" lon="11.614586117809832"><ele>231.66666666666669</ele><time>2026-04-24T09:30:37.003Z</time></trkpt><trkpt lat="42.59871462436969" lon="11.614823226120095"><ele>231.0</ele><time>2026-04-24T09:30:38.003Z</time></trkpt><trkpt lat="42.598740007559094" lon="11.615070080029174"><ele>233.0</ele><time>2026-04-24T09:30:39.003Z</time></trkpt><trkpt lat="42.59878947022377" lon="11.615321470427311"><ele>235.0</ele><time>2026-04-24T09:30:40.003Z</time></trkpt><trkpt lat="42.59881073037127" lon="11.615564327488487"><ele>237.0</ele><time>2026-04-24T09:30:41.003Z</time></trkpt><trkpt lat="42.59885983840634" lon="11.615799515097013"><ele>237.0</ele><time>2026-04-24T09:30:42.003Z</time></trkpt><trkpt lat="42.59891375297965" lon="11.616020688618551"><ele>237.0</ele><time>2026-04-24T09:30:43.003Z</time></trkpt><trkpt lat="42.59897848884209" lon="11.616243031240716"><ele>237.0</ele><time>2026-04-24T09:30:44.003Z</time></trkpt><trkpt lat="42.599020104135306" lon="11.616462041743782"><ele>237.0</ele><time>2026-04-24T09:30:45.003Z</time></trkpt><trkpt lat="42.59909642153665" lon="11.616676400927194"><ele>237.0</ele><time>2026-04-24T09:30:46.003Z</time></trkpt><trkpt lat="42.59920343465824" lon="11.61688417989924"><ele>237.0</ele><time>2026-04-24T09:30:47.003Z</time></trkpt><trkpt lat="42.599329199041904" lon="11.617060206489004"><ele>237.0</ele><time>2026-04-24T09:30:48.004Z</time></trkpt><trkpt lat="42.59946078355579" lon="11.617206879291253"><ele>237.0</ele><time>2026-04-24T09:30:49.004Z</time></trkpt><trkpt lat="42.5995995456653" lon="11.617344268060013"><ele>237.0</ele><time>2026-04-24T09:30:50.004Z</time></trkpt><trkpt lat="42.59974484278627" lon="11.617491124032952"><ele>238.0</ele><time>2026-04-24T09:30:51.004Z</time></trkpt><trkpt lat="42.59989215721643" lon="11.617640018923908"><ele>239.0</ele><time>2026-04-24T09:30:52.004Z</time></trkpt><trkpt lat="42.60003815033368" lon="11.617787194031715"><ele>240.0</ele><time>2026-04-24T09:30:53.004Z</time></trkpt><trkpt lat="42.60018776758832" lon="11.61793739327411"><ele>241.0</ele><time>2026-04-24T09:30:54.004Z</time></trkpt><trkpt lat="42.6003437045946" lon="11.618075503988864"><ele>242.0</ele><time>2026-04-24T09:30:55.004Z</time></trkpt><trkpt lat="42.60048026767372" lon="11.618254596837819"><ele>243.0</ele><time>2026-04-24T09:30:56.004Z</time></trkpt><trkpt lat="42.60063437782126" lon="11.618413897326274"><ele>243.0</ele><time>2026-04-24T09:30:57.004Z</time></trkpt><trkpt lat="42.600787493989884" lon="11.618572164327864"><ele>243.0</ele><time>2026-04-24T09:30:58.004Z</time></trkpt><trkpt lat="42.60092626030451" lon="11.618722767953425"><ele>243.0</ele><time>2026-04-24T09:30:59.004Z</time></trkpt><trkpt lat="42.60107119280366" lon="11.618871192721933"><ele>244.0</ele><time>2026-04-24T09:31:00.004Z</time></trkpt><trkpt lat="42.601209021071995" lon="11.619021144229034"><ele>245.0</ele><time>2026-04-24T09:31:01.004Z</time></trkpt><trkpt lat="42.60134642567147" lon="11.619167346584916"><ele>246.0</ele><time>2026-04-24T09:31:02.004Z</time></trkpt><trkpt lat="42.601474725437896" lon="11.61934575247454"><ele>246.0</ele><time>2026-04-24T09:31:03.004Z</time></trkpt><trkpt lat="42.601616680576235" lon="11.6194887635703"><ele>246.0</ele><time>2026-04-24T09:31:04.004Z</time></trkpt><trkpt lat="42.601761771405954" lon="11.619651362848174"><ele>246.0</ele><time>2026-04-24T09:31:05.004Z</time></trkpt><trkpt lat="42.60190344719253" lon="11.619813607337072"><ele>246.0</ele><time>2026-04-24T09:31:06.004Z</time></trkpt><trkpt lat="42.602048091032046" lon="11.619984797730169"><ele>246.0</ele><time>2026-04-24T09:31:07.004Z</time></trkpt><trkpt lat="42.60221143633917" lon="11.620182341861865"><ele>246.0</ele><time>2026-04-24T09:31:08.004Z</time></trkpt><trkpt lat="42.60236953705249" lon="11.620378309252818"><ele>245.33333333333331</ele><time>2026-04-24T09:31:09.004Z</time></trkpt><trkpt lat="42.602524950022605" lon="11.620581490377209"><ele>244.66666666666666</ele><time>2026-04-24T09:31:10.004Z</time></trkpt><trkpt lat="42.60265321268942" lon="11.620774604722886"><ele>244.0</ele><time>2026-04-24T09:31:11.004Z</time></trkpt><trkpt lat="42.602795297056524" lon="11.620946961196669"><ele>244.0</ele><time>2026-04-24T09:31:12.004Z</time></trkpt><trkpt lat="42.60292930222048" lon="11.621120561219557"><ele>244.0</ele><time>2026-04-24T09:31:13.004Z</time></trkpt><trkpt lat="42.60306083532129" lon="11.621297383200826"><ele>244.0</ele><time>2026-04-24T09:31:14.004Z</time></trkpt><trkpt lat="42.603199999726826" lon="11.621486236303483"><ele>244.0</ele><time>2026-04-24T09:31:15.004Z</time></trkpt><trkpt lat="42.60333772816647" lon="11.621685579034642"><ele>244.0</ele><time>2026-04-24T09:31:16.004Z</time></trkpt><trkpt lat="42.60347073849316" lon="11.621890133226318"><ele>244.0</ele><time>2026-04-24T09:31:17.004Z</time></trkpt><trkpt lat="42.60360428116822" lon="11.622095545550602"><ele>245.0</ele><time>2026-04-24T09:31:18.004Z</time></trkpt><trkpt lat="42.6037332118955" lon="11.622308272480444"><ele>246.0</ele><time>2026-04-24T09:31:19.004Z</time></trkpt><trkpt lat="42.6038635185231" lon="11.622521028065968"><ele>247.0</ele><time>2026-04-24T09:31:20.004Z</time></trkpt><trkpt lat="42.60399077744956" lon="11.622728715912753"><ele>247.33333333333331</ele><time>2026-04-24T09:31:21.004Z</time></trkpt><trkpt lat="42.60412595847872" lon="11.622942215880528"><ele>247.66666666666669</ele><time>2026-04-24T09:31:22.004Z</time></trkpt><trkpt lat="42.604258798909136" lon="11.623150501309949"><ele>248.0</ele><time>2026-04-24T09:31:23.004Z</time></trkpt><trkpt lat="42.60439030783367" lon="11.623361710209817"><ele>247.66666666666669</ele><time>2026-04-24T09:31:24.004Z</time></trkpt><trkpt lat="42.604522270426024" lon="11.623565951276266"><ele>247.33333333333331</ele><time>2026-04-24T09:31:25.004Z</time></trkpt><trkpt lat="42.604655485927815" lon="11.623771748775907"><ele>247.0</ele><time>2026-04-24T09:31:26.004Z</time></trkpt><trkpt lat="42.60478738504207" lon="11.623973351067805"><ele>247.66666666666666</ele><time>2026-04-24T09:31:27.004Z</time></trkpt><trkpt lat="42.60491683167897" lon="11.624180994474415"><ele>248.33333333333331</ele><time>2026-04-24T09:31:28.004Z</time></trkpt><trkpt lat="42.605043751016176" lon="11.624391755101145"><ele>249.0</ele><time>2026-04-24T09:31:29.004Z</time></trkpt><trkpt lat="42.60517035870395" lon="11.624601475588218"><ele>249.0</ele><time>2026-04-24T09:31:30.004Z</time></trkpt><trkpt lat="42.60530308320726" lon="11.624808379664733"><ele>249.0</ele><time>2026-04-24T09:31:31.004Z</time></trkpt><trkpt lat="42.605436629901284" lon="11.625018852326539"><ele>249.0</ele><time>2026-04-24T09:31:32.004Z</time></trkpt><trkpt lat="42.60556835824428" lon="11.625226301221739"><ele>251.0</ele><time>2026-04-24T09:31:33.004Z</time></trkpt><trkpt lat="42.6057087666832" lon="11.625437712811436"><ele>253.0</ele><time>2026-04-24T09:31:34.004Z</time></trkpt><trkpt lat="42.60584041680189" lon="11.62565183430156"><ele>255.0</ele><time>2026-04-24T09:31:35.004Z</time></trkpt><trkpt lat="42.60597291828552" lon="11.625869585080249"><ele>255.0</ele><time>2026-04-24T09:31:36.004Z</time></trkpt><trkpt lat="42.60610528262353" lon="11.626087039069239"><ele>255.0</ele><time>2026-04-24T09:31:37.002Z</time></trkpt><trkpt lat="42.606230147516314" lon="11.626313450993173"><ele>255.0</ele><time>2026-04-24T09:31:38.002Z</time></trkpt><trkpt lat="42.60636095589034" lon="11.626524118409721"><ele>255.33333333333331</ele><time>2026-04-24T09:31:39.002Z</time></trkpt><trkpt lat="42.606494789360404" lon="11.626742143133376"><ele>255.66666666666666</ele><time>2026-04-24T09:31:40.002Z</time></trkpt><trkpt lat="42.60662465185748" lon="11.626958971607248"><ele>256.0</ele><time>2026-04-24T09:31:41.002Z</time></trkpt><trkpt lat="42.60675118372759" lon="11.62717199335908"><ele>256.0</ele><time>2026-04-24T09:31:42.002Z</time></trkpt><trkpt lat="42.606880471760235" lon="11.627390472088495"><ele>256.0</ele><time>2026-04-24T09:31:43.002Z</time></trkpt><trkpt lat="42.60700884627961" lon="11.627609513039422"><ele>256.0</ele><time>2026-04-24T09:31:44.002Z</time></trkpt><trkpt lat="42.60713520391075" lon="11.627825112405722"><ele>255.66666666666666</ele><time>2026-04-24T09:31:45.002Z</time></trkpt><trkpt lat="42.60726053028818" lon="11.628038952221408"><ele>255.33333333333331</ele><time>2026-04-24T09:31:46.002Z</time></trkpt><trkpt lat="42.60738630970043" lon="11.628253564957609"><ele>255.0</ele><time>2026-04-24T09:31:47.002Z</time></trkpt><trkpt lat="42.60751204841558" lon="11.628468109409534"><ele>254.66666666666669</ele><time>2026-04-24T09:31:48.002Z</time></trkpt><trkpt lat="42.607638137048035" lon="11.628683249834072"><ele>254.33333333333334</ele><time>2026-04-24T09:31:49.002Z</time></trkpt><trkpt lat="42.6077759182609" lon="11.62888230979254"><ele>254.0</ele><time>2026-04-24T09:31:50.002Z</time></trkpt><trkpt lat="42.60788895371464" lon="11.629112404323534"><ele>254.0</ele><time>2026-04-24T09:31:51.002Z</time></trkpt><trkpt lat="42.60801442520202" lon="11.629327619751917"><ele>254.0</ele><time>2026-04-24T09:31:52.002Z</time></trkpt><trkpt lat="42.60813895157276" lon="11.629536584772346"><ele>254.0</ele><time>2026-04-24T09:31:53.002Z</time></trkpt><trkpt lat="42.608265796216166" lon="11.62974656053534"><ele>256.0</ele><time>2026-04-24T09:31:54.002Z</time></trkpt><trkpt lat="42.60838956497856" lon="11.629956499068552"><ele>258.0</ele><time>2026-04-24T09:31:55.002Z</time></trkpt><trkpt lat="42.60851292698752" lon="11.630170586280686"><ele>260.0</ele><time>2026-04-24T09:31:56.002Z</time></trkpt><trkpt lat="42.608636609742184" lon="11.630381376622069"><ele>261.0</ele><time>2026-04-24T09:31:57.002Z</time></trkpt><trkpt lat="42.60876266333679" lon="11.630599642518805"><ele>262.0</ele><time>2026-04-24T09:31:58.002Z</time></trkpt><trkpt lat="42.60888772677106" lon="11.630821289280568"><ele>263.0</ele><time>2026-04-24T09:31:59.002Z</time></trkpt><trkpt lat="42.60901180167104" lon="11.631036149912678"><ele>263.33333333333337</ele><time>2026-04-24T09:32:00.002Z</time></trkpt><trkpt lat="42.609134468130485" lon="11.631259588183335"><ele>263.6666666666667</ele><time>2026-04-24T09:32:01.002Z</time></trkpt><trkpt lat="42.609250958937935" lon="11.631483014369886"><ele>264.0</ele><time>2026-04-24T09:32:02.002Z</time></trkpt><trkpt lat="42.60936770965879" lon="11.63170536907016"><ele>264.0</ele><time>2026-04-24T09:32:03.002Z</time></trkpt><trkpt lat="42.60948904685738" lon="11.631929770333299"><ele>264.0</ele><time>2026-04-24T09:32:04.002Z</time></trkpt><trkpt lat="42.609597696619275" lon="11.632169395374273"><ele>264.0</ele><time>2026-04-24T09:32:05.002Z</time></trkpt><trkpt lat="42.609680605514754" lon="11.632420679953354"><ele>265.0</ele><time>2026-04-24T09:32:06.002Z</time></trkpt><trkpt lat="42.609767455281236" lon="11.632655529141868"><ele>266.0</ele><time>2026-04-24T09:32:07.002Z</time></trkpt><trkpt lat="42.60986810543529" lon="11.632895784747785"><ele>267.0</ele><time>2026-04-24T09:32:08.002Z</time></trkpt><trkpt lat="42.60993945208984" lon="11.633141757452021"><ele>267.6666666666667</ele><time>2026-04-24T09:32:09.002Z</time></trkpt><trkpt lat="42.610013261839924" lon="11.633394562581561"><ele>268.33333333333337</ele><time>2026-04-24T09:32:10.002Z</time></trkpt><trkpt lat="42.610084825548455" lon="11.633647550445508"><ele>269.0</ele><time>2026-04-24T09:32:11.002Z</time></trkpt><trkpt lat="42.61015084510386" lon="11.633906691890322"><ele>269.0</ele><time>2026-04-24T09:32:12.002Z</time></trkpt><trkpt lat="42.610205317888536" lon="11.634165955304136"><ele>269.0</ele><time>2026-04-24T09:32:13.002Z</time></trkpt><trkpt lat="42.61024743061709" lon="11.634433088961032"><ele>269.0</ele><time>2026-04-24T09:32:14.002Z</time></trkpt><trkpt lat="42.610276752626014" lon="11.634700892907277"><ele>268.6666666666667</ele><time>2026-04-24T09:32:15.002Z</time></trkpt><trkpt lat="42.61030743201052" lon="11.634976515905702"><ele>268.3333333333333</ele><time>2026-04-24T09:32:16.002Z</time></trkpt><trkpt lat="42.61034222937025" lon="11.635250052864196"><ele>268.0</ele><time>2026-04-24T09:32:17.002Z</time></trkpt><trkpt lat="42.61037558792711" lon="11.635525743745808"><ele>269.0</ele><time>2026-04-24T09:32:18.002Z</time></trkpt><trkpt lat="42.610409966933716" lon="11.63579815058668"><ele>270.0</ele><time>2026-04-24T09:32:19.002Z</time></trkpt><trkpt lat="42.61044827345831" lon="11.636071194560666"><ele>271.0</ele><time>2026-04-24T09:32:20.002Z</time></trkpt><trkpt lat="42.61049457049995" lon="11.636343415968703"><ele>271.0</ele><time>2026-04-24T09:32:21.002Z</time></trkpt><trkpt lat="42.61054926517925" lon="11.636604740882442"><ele>271.0</ele><time>2026-04-24T09:32:22.002Z</time></trkpt><trkpt lat="42.610624784439985" lon="11.636858392294199"><ele>271.0</ele><time>2026-04-24T09:32:23.002Z</time></trkpt><trkpt lat="42.61071671272166" lon="11.637105972970286"><ele>270.66666666666663</ele><time>2026-04-24T09:32:24.002Z</time></trkpt><trkpt lat="42.6108193117536" lon="11.637347393121779"><ele>270.3333333333333</ele><time>2026-04-24T09:32:25.002Z</time></trkpt><trkpt lat="42.610931672476184" lon="11.63758382662303"><ele>270.0</ele><time>2026-04-24T09:32:26.002Z</time></trkpt><trkpt lat="42.6110481634656" lon="11.637818357774938"><ele>269.3333333333333</ele><time>2026-04-24T09:32:27.002Z</time></trkpt><trkpt lat="42.611163316889375" lon="11.638059518471021"><ele>268.66666666666663</ele><time>2026-04-24T09:32:28.002Z</time></trkpt><trkpt lat="42.61127068488578" lon="11.638300182169642"><ele>268.0</ele><time>2026-04-24T09:32:29.002Z</time></trkpt><trkpt lat="42.61138209168618" lon="11.638543174023473"><ele>269.3333333333333</ele><time>2026-04-24T09:32:30.002Z</time></trkpt><trkpt lat="42.61149032699388" lon="11.638780965395082"><ele>270.6666666666667</ele><time>2026-04-24T09:32:31.002Z</time></trkpt><trkpt lat="42.61159629727478" lon="11.639022636575023"><ele>272.0</ele><time>2026-04-24T09:32:32.002Z</time></trkpt><trkpt lat="42.61170495624116" lon="11.63926056103009"><ele>272.33333333333337</ele><time>2026-04-24T09:32:33.002Z</time></trkpt><trkpt lat="42.611816583998454" lon="11.63950535100222"><ele>272.6666666666667</ele><time>2026-04-24T09:32:34.002Z</time></trkpt><trkpt lat="42.61192374040365" lon="11.639739397239996"><ele>273.0</ele><time>2026-04-24T09:32:35.002Z</time></trkpt><trkpt lat="42.612030530570195" lon="11.6399817854765"><ele>273.0</ele><time>2026-04-24T09:32:36.002Z</time></trkpt><trkpt lat="42.61213478766089" lon="11.640215393385015"><ele>273.0</ele><time>2026-04-24T09:32:37.002Z</time></trkpt><trkpt lat="42.61224070223974" lon="11.640449085564995"><ele>273.0</ele><time>2026-04-24T09:32:38.002Z</time></trkpt><trkpt lat="42.61234942656331" lon="11.64068551179138"><ele>273.3333333333333</ele><time>2026-04-24T09:32:39.002Z</time></trkpt><trkpt lat="42.61246186829614" lon="11.640929940667"><ele>273.66666666666663</ele><time>2026-04-24T09:32:40.002Z</time></trkpt><trkpt lat="42.61257123147368" lon="11.641170041254489"><ele>274.0</ele><time>2026-04-24T09:32:41.002Z</time></trkpt><trkpt lat="42.612683423015156" lon="11.641416001935848"><ele>274.0</ele><time>2026-04-24T09:32:42.002Z</time></trkpt><trkpt lat="42.61279238473854" lon="11.641656661736514"><ele>274.0</ele><time>2026-04-24T09:32:43.002Z</time></trkpt><trkpt lat="42.61290092834576" lon="11.64189491998462"><ele>274.0</ele><time>2026-04-24T09:32:44.002Z</time></trkpt><trkpt lat="42.61301131661716" lon="11.642135580727757"><ele>274.0</ele><time>2026-04-24T09:32:45.002Z</time></trkpt><trkpt lat="42.61311694813122" lon="11.64237284501872"><ele>274.0</ele><time>2026-04-24T09:32:46.001Z</time></trkpt><trkpt lat="42.6132242422856" lon="11.642611714650902"><ele>274.0</ele><time>2026-04-24T09:32:47.001Z</time></trkpt><trkpt lat="42.61333688824697" lon="11.642851569345865"><ele>274.66666666666663</ele><time>2026-04-24T09:32:48.001Z</time></trkpt><trkpt lat="42.613445597392406" lon="11.64308190096201"><ele>275.3333333333333</ele><time>2026-04-24T09:32:49Z</time></trkpt><trkpt lat="42.61355790422055" lon="11.643317438271161"><ele>276.0</ele><time>2026-04-24T09:32:50Z</time></trkpt><trkpt lat="42.61366798619203" lon="11.643557462291495"><ele>278.0</ele><time>2026-04-24T09:32:51Z</time></trkpt><trkpt lat="42.61377082547018" lon="11.643793497145172"><ele>280.0</ele><time>2026-04-24T09:32:52Z</time></trkpt><trkpt lat="42.6138717763957" lon="11.644027509888971"><ele>282.0</ele><time>2026-04-24T09:32:52.999Z</time></trkpt><trkpt lat="42.613980275138466" lon="11.64426144515074"><ele>281.3333333333333</ele><time>2026-04-24T09:32:53.999Z</time></trkpt><trkpt lat="42.6140873183381" lon="11.644494405006673"><ele>280.66666666666663</ele><time>2026-04-24T09:32:54.999Z</time></trkpt><trkpt lat="42.61419801288294" lon="11.644733267003248"><ele>280.0</ele><time>2026-04-24T09:32:55.999Z</time></trkpt><trkpt lat="42.6143015671039" lon="11.644958017440935"><ele>280.0</ele><time>2026-04-24T09:32:56.998Z</time></trkpt><trkpt lat="42.614403064641316" lon="11.645193050125082"><ele>280.0</ele><time>2026-04-24T09:32:57.998Z</time></trkpt><trkpt lat="42.61451202908571" lon="11.645430764955892"><ele>280.0</ele><time>2026-04-24T09:32:58.998Z</time></trkpt><trkpt lat="42.61462083814362" lon="11.64566436832244"><ele>280.66666666666663</ele><time>2026-04-24T09:32:59.998Z</time></trkpt><trkpt lat="42.61473263207926" lon="11.64589467972871"><ele>281.3333333333333</ele><time>2026-04-24T09:33:00.998Z</time></trkpt><trkpt lat="42.614837976138425" lon="11.64613091149076"><ele>282.0</ele><time>2026-04-24T09:33:01.998Z</time></trkpt><trkpt lat="42.61493664755317" lon="11.646373149445862"><ele>282.6666666666667</ele><time>2026-04-24T09:33:02.998Z</time></trkpt><trkpt lat="42.61502226897938" lon="11.646613311157324"><ele>283.33333333333337</ele><time>2026-04-24T09:33:03.998Z</time></trkpt><trkpt lat="42.61509520939016" lon="11.646855288921994"><ele>284.0</ele><time>2026-04-24T09:33:04.997Z</time></trkpt><trkpt lat="42.61515520558338" lon="11.647104972751722"><ele>284.33333333333337</ele><time>2026-04-24T09:33:05.997Z</time></trkpt><trkpt lat="42.61521574200165" lon="11.647362684336521"><ele>284.6666666666667</ele><time>2026-04-24T09:33:06.997Z</time></trkpt><trkpt lat="42.61527742545762" lon="11.647612205031889"><ele>285.0</ele><time>2026-04-24T09:33:07.997Z</time></trkpt><trkpt lat="42.61534271400371" lon="11.647846127930032"><ele>286.3333333333333</ele><time>2026-04-24T09:33:08.997Z</time></trkpt><trkpt lat="42.6154087879396" lon="11.648082992472645"><ele>287.66666666666663</ele><time>2026-04-24T09:33:09.997Z</time></trkpt><trkpt lat="42.61547226993189" lon="11.648320891405605"><ele>289.0</ele><time>2026-04-24T09:33:10.997Z</time></trkpt><trkpt lat="42.61553146685094" lon="11.648559777978209"><ele>290.3333333333333</ele><time>2026-04-24T09:33:11.997Z</time></trkpt><trkpt lat="42.61559304284817" lon="11.648795632047932"><ele>291.6666666666667</ele><time>2026-04-24T09:33:12.997Z</time></trkpt><trkpt lat="42.61566187731607" lon="11.649037193421696"><ele>293.0</ele><time>2026-04-24T09:33:13.997Z</time></trkpt><trkpt lat="42.61573500703026" lon="11.649281468232509"><ele>293.33333333333337</ele><time>2026-04-24T09:33:14.997Z</time></trkpt><trkpt lat="42.61578831531743" lon="11.649529396097257"><ele>293.6666666666667</ele><time>2026-04-24T09:33:15.997Z</time></trkpt><trkpt lat="42.615871732307816" lon="11.6497592956924"><ele>294.0</ele><time>2026-04-24T09:33:16.997Z</time></trkpt><trkpt lat="42.61593773961759" lon="11.649996857387706"><ele>294.0</ele><time>2026-04-24T09:33:17.997Z</time></trkpt><trkpt lat="42.616022369048004" lon="11.650222774282142"><ele>294.0</ele><time>2026-04-24T09:33:18.997Z</time></trkpt><trkpt lat="42.616134379332365" lon="11.650433812883396"><ele>294.0</ele><time>2026-04-24T09:33:19.997Z</time></trkpt><trkpt lat="42.61625901256443" lon="11.650638786052372"><ele>294.3333333333333</ele><time>2026-04-24T09:33:20.997Z</time></trkpt><trkpt lat="42.61638945885929" lon="11.650824672584937"><ele>294.66666666666663</ele><time>2026-04-24T09:33:21.996Z</time></trkpt><trkpt lat="42.616518601052476" lon="11.651005998809094"><ele>295.0</ele><time>2026-04-24T09:33:22.996Z</time></trkpt><trkpt lat="42.61664705378798" lon="11.65119260650103"><ele>295.3333333333333</ele><time>2026-04-24T09:33:23.996Z</time></trkpt><trkpt lat="42.61677849151678" lon="11.651374870570585"><ele>295.6666666666667</ele><time>2026-04-24T09:33:24.996Z</time></trkpt><trkpt lat="42.61691030011641" lon="11.651568546734099"><ele>296.0</ele><time>2026-04-24T09:33:25.996Z</time></trkpt><trkpt lat="42.61704247717613" lon="11.651760552493405"><ele>296.0</ele><time>2026-04-24T09:33:26.996Z</time></trkpt><trkpt lat="42.61717860688718" lon="11.651946235200182"><ele>296.0</ele><time>2026-04-24T09:33:27.996Z</time></trkpt><trkpt lat="42.61730474323503" lon="11.652148982945473"><ele>296.0</ele><time>2026-04-24T09:33:28.996Z</time></trkpt><trkpt lat="42.61746720879107" lon="11.652323455297184"><ele>296.0</ele><time>2026-04-24T09:33:29.996Z</time></trkpt><trkpt lat="42.61763184809732" lon="11.652499513565962"><ele>296.0</ele><time>2026-04-24T09:33:30.996Z</time></trkpt><trkpt lat="42.617783416376234" lon="11.652673194792259"><ele>296.0</ele><time>2026-04-24T09:33:31.996Z</time></trkpt><trkpt lat="42.617936082593424" lon="11.652861179218108"><ele>296.0</ele><time>2026-04-24T09:33:32.996Z</time></trkpt><trkpt lat="42.618091993676686" lon="11.653033903260509"><ele>296.0</ele><time>2026-04-24T09:33:33.996Z</time></trkpt><trkpt lat="42.61824422552002" lon="11.653199582103829"><ele>296.0</ele><time>2026-04-24T09:33:34.996Z</time></trkpt><trkpt lat="42.61839485626435" lon="11.653372300904628"><ele>296.0</ele><time>2026-04-24T09:33:35.996Z</time></trkpt><trkpt lat="42.61854209673566" lon="11.653544310199665"><ele>296.0</ele><time>2026-04-24T09:33:36.996Z</time></trkpt><trkpt lat="42.61869456291976" lon="11.653715142665439"><ele>296.0</ele><time>2026-04-24T09:33:37.996Z</time></trkpt><trkpt lat="42.618843261060135" lon="11.653883274414548"><ele>296.6666666666667</ele><time>2026-04-24T09:33:38.996Z</time></trkpt><trkpt lat="42.618993918098724" lon="11.65405844496643"><ele>297.3333333333333</ele><time>2026-04-24T09:33:39.996Z</time></trkpt><trkpt lat="42.61913551576548" lon="11.654242527631629"><ele>298.0</ele><time>2026-04-24T09:33:40.996Z</time></trkpt><trkpt lat="42.61926913001537" lon="11.654435794940934"><ele>298.66666666666663</ele><time>2026-04-24T09:33:41.996Z</time></trkpt><trkpt lat="42.61939935749814" lon="11.65464302318277"><ele>299.3333333333333</ele><time>2026-04-24T09:33:42.994Z</time></trkpt><trkpt lat="42.61953176980869" lon="11.65485481025227"><ele>300.0</ele><time>2026-04-24T09:33:43.995Z</time></trkpt><trkpt lat="42.619683686273476" lon="11.655052723387103"><ele>300.0</ele><time>2026-04-24T09:33:44.995Z</time></trkpt><trkpt lat="42.61984329470663" lon="11.655236299299627"><ele>300.0</ele><time>2026-04-24T09:33:45.994Z</time></trkpt><trkpt lat="42.62000639456755" lon="11.655418322230561"><ele>300.0</ele><time>2026-04-24T09:33:46.995Z</time></trkpt><trkpt lat="42.62016073819965" lon="11.655601324375535"><ele>298.6666666666667</ele><time>2026-04-24T09:33:47.995Z</time></trkpt><trkpt lat="42.62030387051465" lon="11.655792213377765"><ele>297.33333333333337</ele><time>2026-04-24T09:33:48.994Z</time></trkpt><trkpt lat="42.620418566750295" lon="11.656011928615802"><ele>296.0</ele><time>2026-04-24T09:33:49.994Z</time></trkpt><trkpt lat="42.62052485785588" lon="11.656247285495715"><ele>295.6666666666667</ele><time>2026-04-24T09:33:50.994Z</time></trkpt><trkpt lat="42.62061669883058" lon="11.656484600064772"><ele>295.3333333333333</ele><time>2026-04-24T09:33:51.994Z</time></trkpt><trkpt lat="42.62070829628587" lon="11.656716280961192"><ele>295.0</ele><time>2026-04-24T09:33:52.995Z</time></trkpt><trkpt lat="42.620812001718306" lon="11.656910007401418"><ele>296.0</ele><time>2026-04-24T09:33:53.995Z</time></trkpt><trkpt lat="42.62091633732765" lon="11.65709954814022"><ele>297.0</ele><time>2026-04-24T09:33:54.995Z</time></trkpt><trkpt lat="42.621035960364296" lon="11.657274228597942"><ele>298.0</ele><time>2026-04-24T09:33:55.994Z</time></trkpt><trkpt lat="42.62118256674953" lon="11.657433392058559"><ele>298.0</ele><time>2026-04-24T09:33:56.994Z</time></trkpt><trkpt lat="42.621341767188504" lon="11.657578841394399"><ele>298.0</ele><time>2026-04-24T09:33:57.994Z</time></trkpt><trkpt lat="42.62149951986601" lon="11.657743353922635"><ele>298.0</ele><time>2026-04-24T09:33:58.994Z</time></trkpt><trkpt lat="42.62165632980834" lon="11.657890702393821"><ele>298.3333333333333</ele><time>2026-04-24T09:33:59.994Z</time></trkpt><trkpt lat="42.62180347831001" lon="11.658042908299105"><ele>298.6666666666667</ele><time>2026-04-24T09:34:00.994Z</time></trkpt><trkpt lat="42.621906691803474" lon="11.65823551384598"><ele>299.0</ele><time>2026-04-24T09:34:01.994Z</time></trkpt><trkpt lat="42.621994973327766" lon="11.65844874419019"><ele>299.0</ele><time>2026-04-24T09:34:02.994Z</time></trkpt><trkpt lat="42.6220820636044" lon="11.658664742894787"><ele>299.0</ele><time>2026-04-24T09:34:03.994Z</time></trkpt><trkpt lat="42.62216296417524" lon="11.658861269545271"><ele>299.0</ele><time>2026-04-24T09:34:04.994Z</time></trkpt><trkpt lat="42.622257061984385" lon="11.659065571534"><ele>299.0</ele><time>2026-04-24T09:34:05.994Z</time></trkpt><trkpt lat="42.6223624385143" lon="11.659260287824004"><ele>299.0</ele><time>2026-04-24T09:34:06.994Z</time></trkpt><trkpt lat="42.622488126723674" lon="11.659442351297917"><ele>299.0</ele><time>2026-04-24T09:34:07.994Z</time></trkpt><trkpt lat="42.622630227346455" lon="11.659604750747732"><ele>299.33333333333337</ele><time>2026-04-24T09:34:08.994Z</time></trkpt><trkpt lat="42.622786544912046" lon="11.659750080082564"><ele>299.6666666666667</ele><time>2026-04-24T09:34:09.994Z</time></trkpt><trkpt lat="42.62294747929304" lon="11.65988104485303"><ele>300.0</ele><time>2026-04-24T09:34:10.994Z</time></trkpt><trkpt lat="42.62309647814027" lon="11.660019034299845"><ele>300.0</ele><time>2026-04-24T09:34:11.994Z</time></trkpt><trkpt lat="42.6232449422983" lon="11.660192591948338"><ele>300.0</ele><time>2026-04-24T09:34:12.994Z</time></trkpt><trkpt lat="42.62338474292758" lon="11.660366784699967"><ele>300.0</ele><time>2026-04-24T09:34:13.994Z</time></trkpt><trkpt lat="42.62352352965317" lon="11.660525475492989"><ele>301.0</ele><time>2026-04-24T09:34:14.994Z</time></trkpt><trkpt lat="42.62365587650737" lon="11.660681905453131"><ele>302.0</ele><time>2026-04-24T09:34:15.994Z</time></trkpt><trkpt lat="42.62379078709652" lon="11.66082856319693"><ele>303.0</ele><time>2026-04-24T09:34:16.994Z</time></trkpt><trkpt lat="42.623935073495964" lon="11.66095461512774"><ele>303.0</ele><time>2026-04-24T09:34:17.994Z</time></trkpt><trkpt lat="42.6240866868318" lon="11.661056208088967"><ele>303.0</ele><time>2026-04-24T09:34:18.994Z</time></trkpt><trkpt lat="42.62424756308159" lon="11.661118840771433"><ele>303.0</ele><time>2026-04-24T09:34:19.994Z</time></trkpt><trkpt lat="42.6244209898215" lon="11.661144602056241"><ele>303.0</ele><time>2026-04-24T09:34:20.994Z</time></trkpt><trkpt lat="42.62460582033658" lon="11.661137814317645"><ele>303.0</ele><time>2026-04-24T09:34:21.994Z</time></trkpt><trkpt lat="42.62478559232242" lon="11.66109934028948"><ele>303.0</ele><time>2026-04-24T09:34:22.994Z</time></trkpt><trkpt lat="42.62498385845255" lon="11.661045845643391"><ele>303.3333333333333</ele><time>2026-04-24T09:34:23.994Z</time></trkpt><trkpt lat="42.62517990155096" lon="11.661004122381243"><ele>303.66666666666663</ele><time>2026-04-24T09:34:24.994Z</time></trkpt><trkpt lat="42.62536770417905" lon="11.661014473219186"><ele>304.0</ele><time>2026-04-24T09:34:25.994Z</time></trkpt><trkpt lat="42.625556490335356" lon="11.661052302375253"><ele>304.0</ele><time>2026-04-24T09:34:26.994Z</time></trkpt><trkpt lat="42.625739605861476" lon="11.66107873662785"><ele>304.0</ele><time>2026-04-24T09:34:27.994Z</time></trkpt><trkpt lat="42.62591561283501" lon="11.661104143387604"><ele>304.0</ele><time>2026-04-24T09:34:28.994Z</time></trkpt><trkpt lat="42.626084147700986" lon="11.66112607375832"><ele>303.75</ele><time>2026-04-24T09:34:29.994Z</time></trkpt><trkpt lat="42.62624345326012" lon="11.661144255088862"><ele>303.5</ele><time>2026-04-24T09:34:30.994Z</time></trkpt><trkpt lat="42.626387456922515" lon="11.661172918729346"><ele>303.25</ele><time>2026-04-24T09:34:31.994Z</time></trkpt><trkpt lat="42.6265204120404" lon="11.66120862165415"><ele>303.0</ele><time>2026-04-24T09:34:32.995Z</time></trkpt><trkpt lat="42.62664784352703" lon="11.661266155610496"><ele>303.0</ele><time>2026-04-24T09:34:33.995Z</time></trkpt><trkpt lat="42.62676710296077" lon="11.661341566086914"><ele>303.0</ele><time>2026-04-24T09:34:34.995Z</time></trkpt><trkpt lat="42.62690721988574" lon="11.661430177337465"><ele>303.0</ele><time>2026-04-24T09:34:35.995Z</time></trkpt><trkpt lat="42.62702337151843" lon="11.661504427652721"><ele>303.0</ele><time>2026-04-24T09:34:36.995Z</time></trkpt><trkpt lat="42.627206414230386" lon="11.66161877832033"><ele>303.4</ele><time>2026-04-24T09:34:37.995Z</time></trkpt><trkpt lat="42.627332167530234" lon="11.661698673033735"><ele>303.8</ele><time>2026-04-24T09:34:38.995Z</time></trkpt><trkpt lat="42.627439800431006" lon="11.661756756441891"><ele>304.2</ele><time>2026-04-24T09:34:39.995Z</time></trkpt><trkpt lat="42.6275261112962" lon="11.661819520091628"><ele>304.6</ele><time>2026-04-24T09:34:40.995Z</time></trkpt><trkpt lat="42.62759448280691" lon="11.661886978710097"><ele>305.0</ele><time>2026-04-24T09:34:41.995Z</time></trkpt><trkpt lat="42.62765262781993" lon="11.661966555045172"><ele>305.0</ele><time>2026-04-24T09:34:42.995Z</time></trkpt><trkpt lat="42.62769929035364" lon="11.662067501900225"><ele>305.0</ele><time>2026-04-24T09:34:43.995Z</time></trkpt><trkpt lat="42.62767407192231" lon="11.662214021936828"><ele>305.0</ele><time>2026-04-24T09:34:44.995Z</time></trkpt><trkpt lat="42.62768851248281" lon="11.662360690463734"><ele>305.0</ele><time>2026-04-24T09:34:45.995Z</time></trkpt><trkpt lat="42.62772116554265" lon="11.662513872644189"><ele>305.0</ele><time>2026-04-24T09:34:46.995Z</time></trkpt><trkpt lat="42.627726283568244" lon="11.662683883384078"><ele>305.25</ele><time>2026-04-24T09:34:47.995Z</time></trkpt><trkpt lat="42.627752364122806" lon="11.662867293094628"><ele>305.5</ele><time>2026-04-24T09:34:48.995Z</time></trkpt><trkpt lat="42.62777983338823" lon="11.663060468822305"><ele>305.75</ele><time>2026-04-24T09:34:49.995Z</time></trkpt><trkpt lat="42.62780502615581" lon="11.663255046711738"><ele>306.0</ele><time>2026-04-24T09:34:50.995Z</time></trkpt><trkpt lat="42.627829339663265" lon="11.663442758999373"><ele>307.0</ele><time>2026-04-24T09:34:51.995Z</time></trkpt><trkpt lat="42.62785443942708" lon="11.663634393324482"><ele>308.0</ele><time>2026-04-24T09:34:52.995Z</time></trkpt><trkpt lat="42.6278818659771" lon="11.663837132319546"><ele>309.0</ele><time>2026-04-24T09:34:53.995Z</time></trkpt><trkpt lat="42.62790982692866" lon="11.664042214965166"><ele>310.0</ele><time>2026-04-24T09:34:54.995Z</time></trkpt><trkpt lat="42.627963225144526" lon="11.664238221856554"><ele>310.3333333333333</ele><time>2026-04-24T09:34:55.995Z</time></trkpt><trkpt lat="42.627985094642895" lon="11.664447657518886"><ele>310.6666666666667</ele><time>2026-04-24T09:34:56.995Z</time></trkpt><trkpt lat="42.62801130995227" lon="11.664666599582704"><ele>311.0</ele><time>2026-04-24T09:34:57.995Z</time></trkpt><trkpt lat="42.628039794496964" lon="11.664895125869208"><ele>311.0</ele><time>2026-04-24T09:34:58.995Z</time></trkpt><trkpt lat="42.62806238142076" lon="11.665159518710142"><ele>311.0</ele><time>2026-04-24T09:34:59.995Z</time></trkpt><trkpt lat="42.62809187755209" lon="11.665391978493588"><ele>311.0</ele><time>2026-04-24T09:35:00.995Z</time></trkpt><trkpt lat="42.62811893766431" lon="11.665634165643947"><ele>311.33333333333337</ele><time>2026-04-24T09:35:01.995Z</time></trkpt><trkpt lat="42.62814667503599" lon="11.665867893636477"><ele>311.6666666666667</ele><time>2026-04-24T09:35:02.995Z</time></trkpt><trkpt lat="42.628175585792384" lon="11.666104738942062"><ele>312.0</ele><time>2026-04-24T09:35:03.995Z</time></trkpt><trkpt lat="42.628211018358016" lon="11.666340218026955"><ele>313.0</ele><time>2026-04-24T09:35:04.995Z</time></trkpt><trkpt lat="42.62822277472451" lon="11.666563222920633"><ele>314.0</ele><time>2026-04-24T09:35:05.995Z</time></trkpt><trkpt lat="42.628248158318186" lon="11.666785476938955"><ele>315.0</ele><time>2026-04-24T09:35:06.995Z</time></trkpt><trkpt lat="42.62827237984868" lon="11.667013388954638"><ele>315.3333333333333</ele><time>2026-04-24T09:35:07.995Z</time></trkpt><trkpt lat="42.62829629866301" lon="11.667253241905298"><ele>315.66666666666663</ele><time>2026-04-24T09:35:08.995Z</time></trkpt><trkpt lat="42.628324331026285" lon="11.667493516849307"><ele>316.0</ele><time>2026-04-24T09:35:09.995Z</time></trkpt><trkpt lat="42.62834422723112" lon="11.667740957971462"><ele>315.3333333333333</ele><time>2026-04-24T09:35:10.995Z</time></trkpt><trkpt lat="42.62835977956484" lon="11.667984575291564"><ele>314.6666666666667</ele><time>2026-04-24T09:35:11.995Z</time></trkpt><trkpt lat="42.628370666644905" lon="11.6682230128618"><ele>314.0</ele><time>2026-04-24T09:35:12.995Z</time></trkpt><trkpt lat="42.6283806069022" lon="11.668464490834983"><ele>312.6666666666667</ele><time>2026-04-24T09:35:13.995Z</time></trkpt><trkpt lat="42.62839009335098" lon="11.66869496086171"><ele>311.3333333333333</ele><time>2026-04-24T09:35:14.995Z</time></trkpt><trkpt lat="42.62840372434495" lon="11.668914136032216"><ele>310.0</ele><time>2026-04-24T09:35:15.995Z</time></trkpt><trkpt lat="42.628418030270744" lon="11.669108663766137"><ele>310.0</ele><time>2026-04-24T09:35:16.995Z</time></trkpt><trkpt lat="42.62843804059099" lon="11.669291160077524"><ele>310.0</ele><time>2026-04-24T09:35:17.995Z</time></trkpt><trkpt lat="42.62843381895704" lon="11.669463594401615"><ele>310.0</ele><time>2026-04-24T09:35:18.995Z</time></trkpt><trkpt lat="42.62844401177518" lon="11.669611787003829"><ele>310.0</ele><time>2026-04-24T09:35:19.995Z</time></trkpt><trkpt lat="42.628456277030274" lon="11.669735874991252"><ele>310.0</ele><time>2026-04-24T09:35:20.995Z</time></trkpt><trkpt lat="42.62844086839333" lon="11.669833743069525"><ele>310.0</ele><time>2026-04-24T09:35:21.995Z</time></trkpt><trkpt lat="42.62842668811506" lon="11.669920686338271"><ele>310.0</ele><time>2026-04-24T09:35:23.995Z</time></trkpt><trkpt lat="42.62831712676867" lon="11.669866522769055"><ele>310.0</ele><time>2026-04-24T09:35:47.995Z</time></trkpt><trkpt lat="42.62818479795093" lon="11.669977978752941"><ele>310.0</ele><time>2026-04-24T09:35:49.994Z</time></trkpt><trkpt lat="42.62809325710166" lon="11.67003018607502"><ele>310.0</ele><time>2026-04-24T09:35:50.994Z</time></trkpt><trkpt lat="42.628000414033494" lon="11.670101715676179"><ele>310.0</ele><time>2026-04-24T09:35:51.993Z</time></trkpt><trkpt lat="42.627897869888315" lon="11.670185124964588"><ele>310.0</ele><time>2026-04-24T09:35:52.994Z</time></trkpt><trkpt lat="42.6277720908646" lon="11.670244969759255"><ele>310.0</ele><time>2026-04-24T09:35:53.994Z</time></trkpt><trkpt lat="42.627650228932936" lon="11.670314563896365"><ele>311.5</ele><time>2026-04-24T09:35:54.993Z</time></trkpt><trkpt lat="42.6275227654488" lon="11.670360188206226"><ele>313.0</ele><time>2026-04-24T09:35:55.993Z</time></trkpt><trkpt lat="42.62738382532651" lon="11.670388047073564"><ele>314.5</ele><time>2026-04-24T09:35:56.993Z</time></trkpt><trkpt lat="42.62724130917512" lon="11.670422706399783"><ele>316.0</ele><time>2026-04-24T09:35:57.993Z</time></trkpt><trkpt lat="42.62710330430459" lon="11.670457260156638"><ele>316.5</ele><time>2026-04-24T09:35:58.994Z</time></trkpt><trkpt lat="42.62697539203063" lon="11.6704903262733"><ele>317.0</ele><time>2026-04-24T09:35:59.994Z</time></trkpt><trkpt lat="42.626866712871795" lon="11.670516843907848"><ele>317.5</ele><time>2026-04-24T09:36:00.993Z</time></trkpt><trkpt lat="42.62676829381166" lon="11.670590721720544"><ele>318.0</ele><time>2026-04-24T09:36:01.994Z</time></trkpt><trkpt lat="42.626659664577275" lon="11.670705028907697"><ele>318.0</ele><time>2026-04-24T09:36:02.994Z</time></trkpt><trkpt lat="42.62657162630758" lon="11.670832921326161"><ele>318.0</ele><time>2026-04-24T09:36:03.994Z</time></trkpt><trkpt lat="42.62647719148873" lon="11.670971684856628"><ele>318.0</ele><time>2026-04-24T09:36:04.994Z</time></trkpt><trkpt lat="42.62636961539411" lon="11.671105310261813"><ele>318.0</ele><time>2026-04-24T09:36:05.994Z</time></trkpt><trkpt lat="42.62627041774243" lon="11.671225371824574"><ele>317.5</ele><time>2026-04-24T09:36:06.994Z</time></trkpt><trkpt lat="42.626155832697606" lon="11.671316053792061"><ele>317.0</ele><time>2026-04-24T09:36:07.994Z</time></trkpt><trkpt lat="42.62603135912609" lon="11.671376160746197"><ele>316.5</ele><time>2026-04-24T09:36:08.994Z</time></trkpt><trkpt lat="42.625910770034416" lon="11.671436770837614"><ele>316.0</ele><time>2026-04-24T09:36:09.994Z</time></trkpt><trkpt lat="42.625786087817396" lon="11.671506587036982"><ele>315.25</ele><time>2026-04-24T09:36:10.994Z</time></trkpt><trkpt lat="42.62567304861623" lon="11.671582663197652"><ele>314.5</ele><time>2026-04-24T09:36:11.994Z</time></trkpt><trkpt lat="42.62554576585057" lon="11.671669717924544"><ele>313.75</ele><time>2026-04-24T09:36:12.994Z</time></trkpt><trkpt lat="42.62542063911674" lon="11.671755649365382"><ele>313.0</ele><time>2026-04-24T09:36:13.994Z</time></trkpt><trkpt lat="42.625296772747824" lon="11.671824933517026"><ele>312.66666666666663</ele><time>2026-04-24T09:36:14.994Z</time></trkpt><trkpt lat="42.625139921377894" lon="11.671838291874442"><ele>312.3333333333333</ele><time>2026-04-24T09:36:15.994Z</time></trkpt><trkpt lat="42.624983735121546" lon="11.671865761006147"><ele>312.0</ele><time>2026-04-24T09:36:16.994Z</time></trkpt><trkpt lat="42.6248261147278" lon="11.671893550591445"><ele>312.0</ele><time>2026-04-24T09:36:17.994Z</time></trkpt><trkpt lat="42.624677506319685" lon="11.671922984740288"><ele>312.0</ele><time>2026-04-24T09:36:18.994Z</time></trkpt><trkpt lat="42.62452478166636" lon="11.6719541918096"><ele>312.0</ele><time>2026-04-24T09:36:19.994Z</time></trkpt><trkpt lat="42.624380117817125" lon="11.672010658353477"><ele>313.5</ele><time>2026-04-24T09:36:20.994Z</time></trkpt><trkpt lat="42.62424391075332" lon="11.672037233752985"><ele>315.0</ele><time>2026-04-24T09:36:21.994Z</time></trkpt><trkpt lat="42.624121108249824" lon="11.672072838152701"><ele>316.5</ele><time>2026-04-24T09:36:22.994Z</time></trkpt><trkpt lat="42.624001573470785" lon="11.67211579146882"><ele>318.0</ele><time>2026-04-24T09:36:23.994Z</time></trkpt><trkpt lat="42.62387772428485" lon="11.672187056158386"><ele>318.0</ele><time>2026-04-24T09:36:24.994Z</time></trkpt><trkpt lat="42.623769431695756" lon="11.67228212093051"><ele>318.0</ele><time>2026-04-24T09:36:25.994Z</time></trkpt><trkpt lat="42.62366555696844" lon="11.672394152535617"><ele>318.0</ele><time>2026-04-24T09:36:26.994Z</time></trkpt><trkpt lat="42.62355709262635" lon="11.67250902931441"><ele>318.0</ele><time>2026-04-24T09:36:27.994Z</time></trkpt><trkpt lat="42.623443526737105" lon="11.672620330292903"><ele>318.0</ele><time>2026-04-24T09:36:28.994Z</time></trkpt><trkpt lat="42.62332875992337" lon="11.672734838956844"><ele>318.0</ele><time>2026-04-24T09:36:29.994Z</time></trkpt><trkpt lat="42.62319590059114" lon="11.672862125477934"><ele>318.0</ele><time>2026-04-24T09:36:30.994Z</time></trkpt><trkpt lat="42.62305675660283" lon="11.672967047026566"><ele>318.25</ele><time>2026-04-24T09:36:31.994Z</time></trkpt><trkpt lat="42.62294078740195" lon="11.673093894824385"><ele>318.5</ele><time>2026-04-24T09:36:32.994Z</time></trkpt><trkpt lat="42.6228317926525" lon="11.673238305917415"><ele>318.75</ele><time>2026-04-24T09:36:33.994Z</time></trkpt><trkpt lat="42.62273878488226" lon="11.673369984248849"><ele>319.0</ele><time>2026-04-24T09:36:34.994Z</time></trkpt><trkpt lat="42.622637856981996" lon="11.673503400633807"><ele>317.5</ele><time>2026-04-24T09:36:35.994Z</time></trkpt><trkpt lat="42.622525920905915" lon="11.673620551629842"><ele>316.0</ele><time>2026-04-24T09:36:36.994Z</time></trkpt><trkpt lat="42.62239577551013" lon="11.673721851121575"><ele>314.5</ele><time>2026-04-24T09:36:37.994Z</time></trkpt><trkpt lat="42.62228167017579" lon="11.673816460498974"><ele>313.0</ele><time>2026-04-24T09:36:38.994Z</time></trkpt><trkpt lat="42.62217587717928" lon="11.67390987236238"><ele>313.0</ele><time>2026-04-24T09:36:39.994Z</time></trkpt><trkpt lat="42.62207047429317" lon="11.674008266164645"><ele>313.0</ele><time>2026-04-24T09:36:40.994Z</time></trkpt><trkpt lat="42.62198358037539" lon="11.674088724825882"><ele>313.0</ele><time>2026-04-24T09:36:41.994Z</time></trkpt><trkpt lat="42.621910588862505" lon="11.674124000845277"><ele>313.0</ele><time>2026-04-24T09:36:42.994Z</time></trkpt><trkpt lat="42.62183598648046" lon="11.674136253535485"><ele>313.0</ele><time>2026-04-24T09:36:43.994Z</time></trkpt><trkpt lat="42.6217815701676" lon="11.674046398710134"><ele>312.4</ele><time>2026-04-24T09:36:44.994Z</time></trkpt><trkpt lat="42.62174084207108" lon="11.673950721347154"><ele>311.8</ele><time>2026-04-24T09:36:45.994Z</time></trkpt><trkpt lat="42.62171952788594" lon="11.673822983127524"><ele>311.2</ele><time>2026-04-24T09:36:46.994Z</time></trkpt><trkpt lat="42.621700110595874" lon="11.67367308141644"><ele>310.6</ele><time>2026-04-24T09:36:47.994Z</time></trkpt><trkpt lat="42.62166563117418" lon="11.673492284959117"><ele>310.0</ele><time>2026-04-24T09:36:48.994Z</time></trkpt><trkpt lat="42.621630922226664" lon="11.673310694348581"><ele>308.25</ele><time>2026-04-24T09:36:49.994Z</time></trkpt><trkpt lat="42.62159572964364" lon="11.673128931969424"><ele>306.5</ele><time>2026-04-24T09:36:50.994Z</time></trkpt><trkpt lat="42.62156734199511" lon="11.672949553241477"><ele>304.75</ele><time>2026-04-24T09:36:51.994Z</time></trkpt><trkpt lat="42.621537285820445" lon="11.672778540064947"><ele>303.0</ele><time>2026-04-24T09:36:52.994Z</time></trkpt><trkpt lat="42.62150609073233" lon="11.672612729979239"><ele>302.6</ele><time>2026-04-24T09:36:53.994Z</time></trkpt><trkpt lat="42.62147364825712" lon="11.672456039821782"><ele>302.20000000000005</ele><time>2026-04-24T09:36:54.994Z</time></trkpt><trkpt lat="42.621437064052394" lon="11.672310651133557"><ele>301.8</ele><time>2026-04-24T09:36:55.994Z</time></trkpt><trkpt lat="42.62140018838062" lon="11.672174276943924"><ele>301.40000000000003</ele><time>2026-04-24T09:36:56.994Z</time></trkpt><trkpt lat="42.6213136418694" lon="11.672088182059452"><ele>301.0</ele><time>2026-04-24T09:36:57.994Z</time></trkpt><trkpt lat="42.62123017201866" lon="11.671999392157236"><ele>299.75</ele><time>2026-04-24T09:36:58.994Z</time></trkpt><trkpt lat="42.62112895073451" lon="11.671984639551546"><ele>298.5</ele><time>2026-04-24T09:36:59.994Z</time></trkpt><trkpt lat="42.62101364149107" lon="11.671979273184524"><ele>297.25</ele><time>2026-04-24T09:37:00.994Z</time></trkpt><trkpt lat="42.620880830874746" lon="11.671965129530372"><ele>296.0</ele><time>2026-04-24T09:37:01.994Z</time></trkpt><trkpt lat="42.62073316896832" lon="11.671948492380489"><ele>293.25</ele><time>2026-04-24T09:37:02.994Z</time></trkpt><trkpt lat="42.62058654960608" lon="11.671928797997"><ele>290.5</ele><time>2026-04-24T09:37:03.994Z</time></trkpt><trkpt lat="42.620444079183414" lon="11.671902416778023"><ele>287.75</ele><time>2026-04-24T09:37:04.994Z</time></trkpt><trkpt lat="42.620363196610676" lon="11.67188058010279"><ele>285.0</ele><time>2026-04-24T09:37:05.994Z</time></trkpt><trkpt lat="42.62025515259348" lon="11.6718328391772"><ele>282.3333333333333</ele><time>2026-04-24T09:37:06.994Z</time></trkpt><trkpt lat="42.6201493746087" lon="11.671840039417928"><ele>279.6666666666667</ele><time>2026-04-24T09:37:07.995Z</time></trkpt><trkpt lat="42.62004828593799" lon="11.671852831547964"><ele>277.0</ele><time>2026-04-24T09:37:08.995Z</time></trkpt><trkpt lat="42.61997610684276" lon="11.671901999387579"><ele>274.33333333333337</ele><time>2026-04-24T09:37:09.995Z</time></trkpt><trkpt lat="42.61992434163406" lon="11.671970624407711"><ele>271.6666666666667</ele><time>2026-04-24T09:37:10.995Z</time></trkpt><trkpt lat="42.61988173946712" lon="11.672059711201502"><ele>269.0</ele><time>2026-04-24T09:37:11.995Z</time></trkpt><trkpt lat="42.619845787942886" lon="11.672146235057138"><ele>269.0</ele><time>2026-04-24T09:37:12.995Z</time></trkpt><trkpt lat="42.61983614580425" lon="11.672275993847379"><ele>269.0</ele><time>2026-04-24T09:37:13.995Z</time></trkpt><trkpt lat="42.61985650798123" lon="11.672404419325872"><ele>269.0</ele><time>2026-04-24T09:37:14.995Z</time></trkpt><trkpt lat="42.61988838093482" lon="11.672535236275767"><ele>269.0</ele><time>2026-04-24T09:37:15.995Z</time></trkpt><trkpt lat="42.61992329327257" lon="11.672656170559936"><ele>269.0</ele><time>2026-04-24T09:37:16.995Z</time></trkpt><trkpt lat="42.619943013884786" lon="11.672774382718654"><ele>268.2</ele><time>2026-04-24T09:37:17.995Z</time></trkpt><trkpt lat="42.619906468714376" lon="11.67289461365225"><ele>267.4</ele><time>2026-04-24T09:37:18.995Z</time></trkpt><trkpt lat="42.619826530956445" lon="11.672966537668518"><ele>266.6</ele><time>2026-04-24T09:37:19.995Z</time></trkpt><trkpt lat="42.61971400938615" lon="11.672959303083864"><ele>265.8</ele><time>2026-04-24T09:37:20.995Z</time></trkpt><trkpt lat="42.61960970756014" lon="11.672942605985506"><ele>265.0</ele><time>2026-04-24T09:37:21.995Z</time></trkpt><trkpt lat="42.619501289367896" lon="11.672946513804744"><ele>266.5</ele><time>2026-04-24T09:37:22.995Z</time></trkpt><trkpt lat="42.61940361889219" lon="11.672940194241852"><ele>268.0</ele><time>2026-04-24T09:37:23.995Z</time></trkpt><trkpt lat="42.6193292944845" lon="11.672907111024879"><ele>269.5</ele><time>2026-04-24T09:37:24.995Z</time></trkpt><trkpt lat="42.619274558670384" lon="11.672836561308822"><ele>271.0</ele><time>2026-04-24T09:37:25.995Z</time></trkpt><trkpt lat="42.61924818563829" lon="11.672723621851643"><ele>272.5</ele><time>2026-04-24T09:37:26.995Z</time></trkpt><trkpt lat="42.619270648627115" lon="11.672627657296445"><ele>274.0</ele><time>2026-04-24T09:37:27.995Z</time></trkpt><trkpt lat="42.619265075291615" lon="11.672535745899655"><ele>274.0</ele><time>2026-04-24T09:37:28.995Z</time></trkpt><trkpt lat="42.619270589157914" lon="11.672407291610844"><ele>274.0</ele><time>2026-04-24T09:37:29.995Z</time></trkpt><trkpt lat="42.61928173652862" lon="11.672195260253227"><ele>274.0</ele><time>2026-04-24T09:37:30.995Z</time></trkpt><trkpt lat="42.61928405867652" lon="11.672013625388796"><ele>274.0</ele><time>2026-04-24T09:37:31.995Z</time></trkpt><trkpt lat="42.61927029799671" lon="11.671852683205783"><ele>273.0</ele><time>2026-04-24T09:37:32.995Z</time></trkpt><trkpt lat="42.61922048848961" lon="11.671664464866288"><ele>272.0</ele><time>2026-04-24T09:37:33.995Z</time></trkpt><trkpt lat="42.619159625880606" lon="11.671430482525972"><ele>271.0</ele><time>2026-04-24T09:37:34.995Z</time></trkpt><trkpt lat="42.619097274562456" lon="11.671216368615362"><ele>270.0</ele><time>2026-04-24T09:37:35.995Z</time></trkpt><trkpt lat="42.61905004717087" lon="11.671043054070426"><ele>269.0</ele><time>2026-04-24T09:37:36.995Z</time></trkpt><trkpt lat="42.618999300471806" lon="11.670882242306234"><ele>268.0</ele><time>2026-04-24T09:37:37.995Z</time></trkpt><trkpt lat="42.6189376431989" lon="11.670721251538525"><ele>267.0</ele><time>2026-04-24T09:37:38.995Z</time></trkpt><trkpt lat="42.61887415285135" lon="11.670556989067627"><ele>267.0</ele><time>2026-04-24T09:37:39.995Z</time></trkpt><trkpt lat="42.618810315383975" lon="11.670391377276147"><ele>267.0</ele><time>2026-04-24T09:37:40.995Z</time></trkpt><trkpt lat="42.61874318915461" lon="11.670233580954196"><ele>267.0</ele><time>2026-04-24T09:37:41.995Z</time></trkpt><trkpt lat="42.61866175168894" lon="11.670069817298605"><ele>267.0</ele><time>2026-04-24T09:37:42.995Z</time></trkpt><trkpt lat="42.6186177797977" lon="11.66988797683011"><ele>271.0</ele><time>2026-04-24T09:37:43.995Z</time></trkpt><trkpt lat="42.618549516312946" lon="11.669707042383756"><ele>275.0</ele><time>2026-04-24T09:37:44.995Z</time></trkpt><trkpt lat="42.61849141056588" lon="11.66952793808084"><ele>279.0</ele><time>2026-04-24T09:37:45.995Z</time></trkpt><trkpt lat="42.618437013449025" lon="11.669359900501272"><ele>283.0</ele><time>2026-04-24T09:37:46.995Z</time></trkpt><trkpt lat="42.618391324230245" lon="11.669183763707444"><ele>283.0</ele><time>2026-04-24T09:37:47.995Z</time></trkpt><trkpt lat="42.6183453476782" lon="11.669025516020032"><ele>283.0</ele><time>2026-04-24T09:37:48.995Z</time></trkpt><trkpt lat="42.61827874201086" lon="11.668854711006082"><ele>283.0</ele><time>2026-04-24T09:37:49.995Z</time></trkpt><trkpt lat="42.618218603286664" lon="11.668683357452936"><ele>283.0</ele><time>2026-04-24T09:37:50.995Z</time></trkpt><trkpt lat="42.61815759085981" lon="11.66852433965372"><ele>280.5</ele><time>2026-04-24T09:37:51.995Z</time></trkpt><trkpt lat="42.618086962401804" lon="11.668372801586875"><ele>278.0</ele><time>2026-04-24T09:37:52.995Z</time></trkpt><trkpt lat="42.61800679897297" lon="11.668214141244464"><ele>275.5</ele><time>2026-04-24T09:37:53.995Z</time></trkpt><trkpt lat="42.61792211599454" lon="11.668058300388608"><ele>273.0</ele><time>2026-04-24T09:37:54.992Z</time></trkpt><trkpt lat="42.617830355307476" lon="11.667903579073968"><ele>276.0</ele><time>2026-04-24T09:37:55.992Z</time></trkpt><trkpt lat="42.61774437043593" lon="11.667756840696718"><ele>279.0</ele><time>2026-04-24T09:37:56.992Z</time></trkpt><trkpt lat="42.61768111463779" lon="11.667627476703764"><ele>282.0</ele><time>2026-04-24T09:37:57.992Z</time></trkpt><trkpt lat="42.617620119550736" lon="11.667575092636492"><ele>285.0</ele><time>2026-04-24T09:37:58.993Z</time></trkpt><trkpt lat="42.61757458079307" lon="11.667514649364863"><ele>288.0</ele><time>2026-04-24T09:37:59.993Z</time></trkpt><trkpt lat="42.61749392360253" lon="11.667497541093166"><ele>288.0</ele><time>2026-04-24T09:38:00.992Z</time></trkpt><trkpt lat="42.617398710547135" lon="11.667578362530078"><ele>288.0</ele><time>2026-04-24T09:38:01.993Z</time></trkpt><trkpt lat="42.617332006247686" lon="11.667677143946896"><ele>288.0</ele><time>2026-04-24T09:38:02.993Z</time></trkpt><trkpt lat="42.617318634470266" lon="11.667824499236344"><ele>288.0</ele><time>2026-04-24T09:38:03.992Z</time></trkpt><trkpt lat="42.61728245001299" lon="11.667996639794092"><ele>291.0</ele><time>2026-04-24T09:38:04.992Z</time></trkpt><trkpt lat="42.61719499449675" lon="11.668140825530035"><ele>294.0</ele><time>2026-04-24T09:38:05.992Z</time></trkpt><trkpt lat="42.61711194774946" lon="11.66825264968232"><ele>297.0</ele><time>2026-04-24T09:38:06.992Z</time></trkpt><trkpt lat="42.61701800915186" lon="11.66835142751849"><ele>300.0</ele><time>2026-04-24T09:38:07.992Z</time></trkpt><trkpt lat="42.6169197241876" lon="11.668443893583706"><ele>301.5</ele><time>2026-04-24T09:38:08.992Z</time></trkpt><trkpt lat="42.61682150309005" lon="11.668528289407657"><ele>303.0</ele><time>2026-04-24T09:38:09.992Z</time></trkpt><trkpt lat="42.616723085935774" lon="11.668601572772788"><ele>304.5</ele><time>2026-04-24T09:38:10.992Z</time></trkpt><trkpt lat="42.61661663669505" lon="11.668665578441754"><ele>306.0</ele><time>2026-04-24T09:38:11.992Z</time></trkpt><trkpt lat="42.61649820275807" lon="11.66872662495811"><ele>306.0</ele><time>2026-04-24T09:38:12.992Z</time></trkpt><trkpt lat="42.61638552928303" lon="11.66877795858222"><ele>306.0</ele><time>2026-04-24T09:38:13.992Z</time></trkpt><trkpt lat="42.61626791547138" lon="11.668829125425447"><ele>306.0</ele><time>2026-04-24T09:38:14.992Z</time></trkpt><trkpt lat="42.616161532670766" lon="11.66887828613748"><ele>306.0</ele><time>2026-04-24T09:38:15.992Z</time></trkpt><trkpt lat="42.61605358359261" lon="11.668920085192768"><ele>306.0</ele><time>2026-04-24T09:38:16.992Z</time></trkpt><trkpt lat="42.61594092091818" lon="11.668958228553565"><ele>306.0</ele><time>2026-04-24T09:38:17.992Z</time></trkpt><trkpt lat="42.61583049479639" lon="11.668987815069102"><ele>306.0</ele><time>2026-04-24T09:38:18.992Z</time></trkpt><trkpt lat="42.61571344484503" lon="11.668984990881164"><ele>306.0</ele><time>2026-04-24T09:38:19.992Z</time></trkpt><trkpt lat="42.615598505785314" lon="11.669027087896149"><ele>306.0</ele><time>2026-04-24T09:38:20.992Z</time></trkpt><trkpt lat="42.61548034888648" lon="11.669042380683695"><ele>306.0</ele><time>2026-04-24T09:38:21.992Z</time></trkpt><trkpt lat="42.615364234074285" lon="11.6690592026647"><ele>306.0</ele><time>2026-04-24T09:38:22.992Z</time></trkpt><trkpt lat="42.6152415810195" lon="11.669079091450039"><ele>306.0</ele><time>2026-04-24T09:38:23.993Z</time></trkpt><trkpt lat="42.615113719914426" lon="11.66910484815236"><ele>306.0</ele><time>2026-04-24T09:38:24.993Z</time></trkpt><trkpt lat="42.61498966786567" lon="11.669130196796623"><ele>306.0</ele><time>2026-04-24T09:38:25.993Z</time></trkpt><trkpt lat="42.61486531709069" lon="11.669159146775279"><ele>306.0</ele><time>2026-04-24T09:38:26.993Z</time></trkpt><trkpt lat="42.6147198415289" lon="11.669186170951749"><ele>306.0</ele><time>2026-04-24T09:38:27.993Z</time></trkpt><trkpt lat="42.61458807058432" lon="11.669217895169991"><ele>307.25</ele><time>2026-04-24T09:38:28.993Z</time></trkpt><trkpt lat="42.61445338163355" lon="11.669245167876376"><ele>308.5</ele><time>2026-04-24T09:38:29.993Z</time></trkpt><trkpt lat="42.61432394661567" lon="11.669263741435811"><ele>309.75</ele><time>2026-04-24T09:38:30.993Z</time></trkpt><trkpt lat="42.61420286926563" lon="11.669297234134401"><ele>311.0</ele><time>2026-04-24T09:38:31.993Z</time></trkpt><trkpt lat="42.61408282371793" lon="11.669327961207362"><ele>311.0</ele><time>2026-04-24T09:38:32.993Z</time></trkpt><trkpt lat="42.61397291812027" lon="11.669356245885895"><ele>311.0</ele><time>2026-04-24T09:38:33.993Z</time></trkpt><trkpt lat="42.61387088121491" lon="11.669394003296603"><ele>311.0</ele><time>2026-04-24T09:38:34.993Z</time></trkpt><trkpt lat="42.61375818923661" lon="11.669430291843419"><ele>311.0</ele><time>2026-04-24T09:38:35.993Z</time></trkpt><trkpt lat="42.613638933272085" lon="11.669457534555985"><ele>307.25</ele><time>2026-04-24T09:38:36.993Z</time></trkpt><trkpt lat="42.6135146451224" lon="11.669495163535139"><ele>303.5</ele><time>2026-04-24T09:38:37.993Z</time></trkpt><trkpt lat="42.61340021936279" lon="11.669526940879052"><ele>299.75</ele><time>2026-04-24T09:38:38.993Z</time></trkpt><trkpt lat="42.61328270662588" lon="11.669564496690738"><ele>296.0</ele><time>2026-04-24T09:38:39.993Z</time></trkpt><trkpt lat="42.61317178691099" lon="11.669596398720437"><ele>296.0</ele><time>2026-04-24T09:38:40.993Z</time></trkpt><trkpt lat="42.613061284773835" lon="11.669603051261316"><ele>296.0</ele><time>2026-04-24T09:38:41.993Z</time></trkpt><trkpt lat="42.6129522212255" lon="11.66956845024662"><ele>296.0</ele><time>2026-04-24T09:38:42.993Z</time></trkpt><trkpt lat="42.61283944531261" lon="11.669527990990925"><ele>296.0</ele><time>2026-04-24T09:38:43.993Z</time></trkpt><trkpt lat="42.6127296281875" lon="11.669487759209032"><ele>296.2</ele><time>2026-04-24T09:38:44.993Z</time></trkpt><trkpt lat="42.612617236371925" lon="11.669456562626102"><ele>296.40000000000003</ele><time>2026-04-24T09:38:45.993Z</time></trkpt><trkpt lat="42.61250959455054" lon="11.669417638647488"><ele>296.6</ele><time>2026-04-24T09:38:46.993Z</time></trkpt><trkpt lat="42.61240319043909" lon="11.669414762973023"><ele>296.8</ele><time>2026-04-24T09:38:47.993Z</time></trkpt><trkpt lat="42.612291888959575" lon="11.669437217358906"><ele>297.0</ele><time>2026-04-24T09:38:48.993Z</time></trkpt><trkpt lat="42.6121940684639" lon="11.669476490319367"><ele>294.25</ele><time>2026-04-24T09:38:49.993Z</time></trkpt><trkpt lat="42.61209812685735" lon="11.66955595264357"><ele>291.5</ele><time>2026-04-24T09:38:50.993Z</time></trkpt><trkpt lat="42.61200693115371" lon="11.669659051431573"><ele>288.75</ele><time>2026-04-24T09:38:51.993Z</time></trkpt><trkpt lat="42.61194509738163" lon="11.669790708633087"><ele>286.0</ele><time>2026-04-24T09:38:52.993Z</time></trkpt><trkpt lat="42.61189721217436" lon="11.669920327954753"><ele>285.16666666666663</ele><time>2026-04-24T09:38:53.993Z</time></trkpt><trkpt lat="42.61185484534885" lon="11.67003942055285"><ele>284.3333333333333</ele><time>2026-04-24T09:38:54.993Z</time></trkpt><trkpt lat="42.61181139302031" lon="11.67014403464514"><ele>283.5</ele><time>2026-04-24T09:38:55.993Z</time></trkpt><trkpt lat="42.61176097824154" lon="11.670212665497234"><ele>282.6666666666667</ele><time>2026-04-24T09:38:56.993Z</time></trkpt><trkpt lat="42.6116933116301" lon="11.670257121841667"><ele>281.83333333333337</ele><time>2026-04-24T09:38:57.993Z</time></trkpt><trkpt lat="42.61159819149248" lon="11.67023417743896"><ele>281.0</ele><time>2026-04-24T09:38:58.993Z</time></trkpt><trkpt lat="42.61150086704826" lon="11.67020471680444"><ele>281.0</ele><time>2026-04-24T09:38:59.993Z</time></trkpt><trkpt lat="42.611377339233755" lon="11.670185393630685"><ele>281.0</ele><time>2026-04-24T09:39:00.993Z</time></trkpt><trkpt lat="42.611255735792675" lon="11.670179358049856"><ele>281.0</ele><time>2026-04-24T09:39:01.993Z</time></trkpt><trkpt lat="42.61115516677343" lon="11.670148403310812"><ele>281.0</ele><time>2026-04-24T09:39:02.993Z</time></trkpt><trkpt lat="42.61105079850519" lon="11.670074050256874"><ele>279.2</ele><time>2026-04-24T09:39:03.993Z</time></trkpt><trkpt lat="42.610951092683166" lon="11.670017887909559"><ele>277.40000000000003</ele><time>2026-04-24T09:39:04.993Z</time></trkpt><trkpt lat="42.61084279484038" lon="11.669945176993911"><ele>275.6</ele><time>2026-04-24T09:39:05.993Z</time></trkpt><trkpt lat="42.61074332084596" lon="11.66988582174084"><ele>273.8</ele><time>2026-04-24T09:39:06.993Z</time></trkpt><trkpt lat="42.610638659547966" lon="11.6698336527686"><ele>272.0</ele><time>2026-04-24T09:39:07.993Z</time></trkpt><trkpt lat="42.61053713213199" lon="11.669809522574344"><ele>272.0</ele><time>2026-04-24T09:39:08.993Z</time></trkpt><trkpt lat="42.61043095394994" lon="11.669815304929099"><ele>272.0</ele><time>2026-04-24T09:39:09.993Z</time></trkpt><trkpt lat="42.61032185899571" lon="11.669842136962547"><ele>272.0</ele><time>2026-04-24T09:39:10.993Z</time></trkpt><trkpt lat="42.610214079465734" lon="11.669887997831523"><ele>272.0</ele><time>2026-04-24T09:39:11.993Z</time></trkpt><trkpt lat="42.61010790750629" lon="11.669940091157825"><ele>272.0</ele><time>2026-04-24T09:39:12.993Z</time></trkpt><trkpt lat="42.61000871531753" lon="11.670003464984683"><ele>271.25</ele><time>2026-04-24T09:39:13.993Z</time></trkpt><trkpt lat="42.60991344930408" lon="11.670071676757447"><ele>270.5</ele><time>2026-04-24T09:39:14.993Z</time></trkpt><trkpt lat="42.60983570751742" lon="11.670186426216965"><ele>269.75</ele><time>2026-04-24T09:39:15.993Z</time></trkpt><trkpt lat="42.60975817917127" lon="11.67030629411803"><ele>269.0</ele><time>2026-04-24T09:39:16.993Z</time></trkpt><trkpt lat="42.60967141709658" lon="11.670415387578167"><ele>267.25</ele><time>2026-04-24T09:39:17.993Z</time></trkpt><trkpt lat="42.6096094552883" lon="11.670558869895887"><ele>265.5</ele><time>2026-04-24T09:39:18.993Z</time></trkpt><trkpt lat="42.609548861133575" lon="11.67069886035477"><ele>263.75</ele><time>2026-04-24T09:39:19.993Z</time></trkpt><trkpt lat="42.609486196740924" lon="11.670818588987792"><ele>262.0</ele><time>2026-04-24T09:39:20.993Z</time></trkpt><trkpt lat="42.60941495668895" lon="11.670927954130695"><ele>262.0</ele><time>2026-04-24T09:39:21.993Z</time></trkpt><trkpt lat="42.60933778235048" lon="11.671036510033982"><ele>262.0</ele><time>2026-04-24T09:39:22.993Z</time></trkpt><trkpt lat="42.6092528883212" lon="11.671129575064379"><ele>262.0</ele><time>2026-04-24T09:39:23.993Z</time></trkpt><trkpt lat="42.6091568913844" lon="11.671195211008007"><ele>262.0</ele><time>2026-04-24T09:39:24.993Z</time></trkpt><trkpt lat="42.60906172290992" lon="11.671236506755958"><ele>262.0</ele><time>2026-04-24T09:39:25.993Z</time></trkpt><trkpt lat="42.6089598472419" lon="11.67127814585572"><ele>260.0</ele><time>2026-04-24T09:39:26.993Z</time></trkpt><trkpt lat="42.60884934960912" lon="11.67131020124146"><ele>258.0</ele><time>2026-04-24T09:39:27.993Z</time></trkpt><trkpt lat="42.6087370936836" lon="11.671347033219881"><ele>256.0</ele><time>2026-04-24T09:39:28.993Z</time></trkpt><trkpt lat="42.60862554794337" lon="11.671379373541956"><ele>254.0</ele><time>2026-04-24T09:39:29.993Z</time></trkpt><trkpt lat="42.60851090973284" lon="11.671415463405712"><ele>253.6</ele><time>2026-04-24T09:39:30.993Z</time></trkpt><trkpt lat="42.60839538297201" lon="11.671455898861144"><ele>253.2</ele><time>2026-04-24T09:39:31.993Z</time></trkpt><trkpt lat="42.608288150743235" lon="11.671481897055138"><ele>252.79999999999998</ele><time>2026-04-24T09:39:32.993Z</time></trkpt><trkpt lat="42.60818240202899" lon="11.671510118322038"><ele>252.39999999999998</ele><time>2026-04-24T09:39:33.993Z</time></trkpt><trkpt lat="42.608071967869094" lon="11.671542320289024"><ele>252.0</ele><time>2026-04-24T09:39:34.993Z</time></trkpt><trkpt lat="42.607962903465655" lon="11.671567342645849"><ele>252.0</ele><time>2026-04-24T09:39:35.993Z</time></trkpt><trkpt lat="42.607863574685766" lon="11.671593099265147"><ele>252.0</ele><time>2026-04-24T09:39:36.993Z</time></trkpt><trkpt lat="42.60776632521361" lon="11.671625235815549"><ele>252.0</ele><time>2026-04-24T09:39:37.993Z</time></trkpt><trkpt lat="42.60767215142414" lon="11.671656663797672"><ele>252.0</ele><time>2026-04-24T09:39:38.993Z</time></trkpt><trkpt lat="42.607593476352164" lon="11.67169109576261"><ele>252.0</ele><time>2026-04-24T09:39:39.993Z</time></trkpt><trkpt lat="42.607528310013606" lon="11.671747707204606"><ele>251.39999999999998</ele><time>2026-04-24T09:39:40.993Z</time></trkpt><trkpt lat="42.60747715893349" lon="11.67181321488365"><ele>250.79999999999998</ele><time>2026-04-24T09:39:41.993Z</time></trkpt><trkpt lat="42.607444932173806" lon="11.671916898876052"><ele>250.2</ele><time>2026-04-24T09:39:42.993Z</time></trkpt><trkpt lat="42.60747329879029" lon="11.672090164344906"><ele>249.6</ele><time>2026-04-24T09:39:43.993Z</time></trkpt><trkpt lat="42.60752010553336" lon="11.672227089316525"><ele>249.0</ele><time>2026-04-24T09:39:44.993Z</time></trkpt><trkpt lat="42.60759935586745" lon="11.672341637789994"><ele>248.75</ele><time>2026-04-24T09:39:45.993Z</time></trkpt><trkpt lat="42.60768278055636" lon="11.672461241737361"><ele>248.5</ele><time>2026-04-24T09:39:46.993Z</time></trkpt><trkpt lat="42.60775589999163" lon="11.672578788546238"><ele>248.25</ele><time>2026-04-24T09:39:47.993Z</time></trkpt><trkpt lat="42.60782837372732" lon="11.672692876968135"><ele>248.0</ele><time>2026-04-24T09:39:48.993Z</time></trkpt><trkpt lat="42.60790039218495" lon="11.672808747125186"><ele>246.4</ele><time>2026-04-24T09:39:49.993Z</time></trkpt><trkpt lat="42.607971215857" lon="11.67290858026066"><ele>244.8</ele><time>2026-04-24T09:39:50.993Z</time></trkpt><trkpt lat="42.608054333075394" lon="11.673001494377916"><ele>243.2</ele><time>2026-04-24T09:39:51.993Z</time></trkpt><trkpt lat="42.60813523851924" lon="11.67308197620518"><ele>241.6</ele><time>2026-04-24T09:39:52.993Z</time></trkpt><trkpt lat="42.60821743714871" lon="11.673154952749757"><ele>240.0</ele><time>2026-04-24T09:39:53.993Z</time></trkpt><trkpt lat="42.608312138967634" lon="11.673210812500159"><ele>240.0</ele><time>2026-04-24T09:39:54.993Z</time></trkpt><trkpt lat="42.60840498307601" lon="11.673254533356584"><ele>240.0</ele><time>2026-04-24T09:39:55.994Z</time></trkpt><trkpt lat="42.60849180747273" lon="11.673297190252788"><ele>240.0</ele><time>2026-04-24T09:39:56.994Z</time></trkpt><trkpt lat="42.608591551165844" lon="11.673317666302871"><ele>240.0</ele><time>2026-04-24T09:39:57.994Z</time></trkpt><trkpt lat="42.60869230844664" lon="11.673347909147259"><ele>240.0</ele><time>2026-04-24T09:39:58.994Z</time></trkpt><trkpt lat="42.608774017392896" lon="11.673391230252143"><ele>240.2</ele><time>2026-04-24T09:39:59.994Z</time></trkpt><trkpt lat="42.60885962922748" lon="11.673453838702587"><ele>240.4</ele><time>2026-04-24T09:40:00.991Z</time></trkpt><trkpt lat="42.60891667742767" lon="11.673574035772017"><ele>240.60000000000002</ele><time>2026-04-24T09:40:01.99Z</time></trkpt><trkpt lat="42.608952394718514" lon="11.673691331219889"><ele>240.8</ele><time>2026-04-24T09:40:02.99Z</time></trkpt><trkpt lat="42.60898144280985" lon="11.67382148551757"><ele>241.0</ele><time>2026-04-24T09:40:03.991Z</time></trkpt><trkpt lat="42.6089980042195" lon="11.67397538969885"><ele>240.5</ele><time>2026-04-24T09:40:04.99Z</time></trkpt><trkpt lat="42.609011990196244" lon="11.67413976157126"><ele>240.0</ele><time>2026-04-24T09:40:05.99Z</time></trkpt><trkpt lat="42.60902618633141" lon="11.674297512283502"><ele>239.5</ele><time>2026-04-24T09:40:06.99Z</time></trkpt><trkpt lat="42.60902968300469" lon="11.674458535637417"><ele>239.0</ele><time>2026-04-24T09:40:07.99Z</time></trkpt><trkpt lat="42.60899634721015" lon="11.674624900838825"><ele>239.0</ele><time>2026-04-24T09:40:08.99Z</time></trkpt><trkpt lat="42.6089299936383" lon="11.674776217050827"><ele>239.0</ele><time>2026-04-24T09:40:09.99Z</time></trkpt><trkpt lat="42.60884811310968" lon="11.674904002731484"><ele>239.0</ele><time>2026-04-24T09:40:10.991Z</time></trkpt><trkpt lat="42.608757457764845" lon="11.675015269108906"><ele>239.0</ele><time>2026-04-24T09:40:11.991Z</time></trkpt><trkpt lat="42.60867705581504" lon="11.67512281366877"><ele>239.5</ele><time>2026-04-24T09:40:12.991Z</time></trkpt><trkpt lat="42.608600084130934" lon="11.675249898571606"><ele>240.0</ele><time>2026-04-24T09:40:13.99Z</time></trkpt><trkpt lat="42.60852489299048" lon="11.675373794718015"><ele>240.5</ele><time>2026-04-24T09:40:14.99Z</time></trkpt><trkpt lat="42.60843634307357" lon="11.675502693559762"><ele>241.0</ele><time>2026-04-24T09:40:15.99Z</time></trkpt><trkpt lat="42.6083535451676" lon="11.67562586201953"><ele>241.0</ele><time>2026-04-24T09:40:16.99Z</time></trkpt><trkpt lat="42.60827357978153" lon="11.675741097460286"><ele>241.0</ele><time>2026-04-24T09:40:17.99Z</time></trkpt><trkpt lat="42.608196053613675" lon="11.675863094196176"><ele>241.0</ele><time>2026-04-24T09:40:18.99Z</time></trkpt><trkpt lat="42.60812978915257" lon="11.675996458425493"><ele>241.0</ele><time>2026-04-24T09:40:19.99Z</time></trkpt><trkpt lat="42.6080804827476" lon="11.676146042792867"><ele>242.25</ele><time>2026-04-24T09:40:20.99Z</time></trkpt><trkpt lat="42.60805172689723" lon="11.676308579725225"><ele>243.5</ele><time>2026-04-24T09:40:21.99Z</time></trkpt><trkpt lat="42.608025513758925" lon="11.676485743175167"><ele>244.75</ele><time>2026-04-24T09:40:22.99Z</time></trkpt><trkpt lat="42.60800003191346" lon="11.676654724715917"><ele>246.0</ele><time>2026-04-24T09:40:23.99Z</time></trkpt><trkpt lat="42.6079667627972" lon="11.6768239183916"><ele>247.0</ele><time>2026-04-24T09:40:24.99Z</time></trkpt><trkpt lat="42.60793296105643" lon="11.676993038822648"><ele>248.0</ele><time>2026-04-24T09:40:25.99Z</time></trkpt><trkpt lat="42.607898665106696" lon="11.677156259989738"><ele>249.0</ele><time>2026-04-24T09:40:26.99Z</time></trkpt><trkpt lat="42.60786522594013" lon="11.677322559141542"><ele>250.0</ele><time>2026-04-24T09:40:27.99Z</time></trkpt><trkpt lat="42.60783203995151" lon="11.677478229146308"><ele>249.0</ele><time>2026-04-24T09:40:28.99Z</time></trkpt><trkpt lat="42.60779743312148" lon="11.677647912433956"><ele>248.0</ele><time>2026-04-24T09:40:29.99Z</time></trkpt><trkpt lat="42.60777043198999" lon="11.67781389204076"><ele>247.0</ele><time>2026-04-24T09:40:30.99Z</time></trkpt><trkpt lat="42.60774546078639" lon="11.677969699345498"><ele>246.0</ele><time>2026-04-24T09:40:31.99Z</time></trkpt><trkpt lat="42.6077184646394" lon="11.678110554245187"><ele>248.60000000000002</ele><time>2026-04-24T09:40:32.99Z</time></trkpt><trkpt lat="42.607681137357474" lon="11.678234735540252"><ele>251.20000000000002</ele><time>2026-04-24T09:40:33.99Z</time></trkpt><trkpt lat="42.607626144410766" lon="11.678362324510351"><ele>253.79999999999998</ele><time>2026-04-24T09:40:34.991Z</time></trkpt><trkpt lat="42.60755517404208" lon="11.67848240839875"><ele>256.4</ele><time>2026-04-24T09:40:35.991Z</time></trkpt><trkpt lat="42.607463930482695" lon="11.678602616378011"><ele>259.0</ele><time>2026-04-24T09:40:36.991Z</time></trkpt><trkpt lat="42.60735095648884" lon="11.67871655848234"><ele>260.5</ele><time>2026-04-24T09:40:37.991Z</time></trkpt><trkpt lat="42.60723819038043" lon="11.678825391647878"><ele>262.0</ele><time>2026-04-24T09:40:38.991Z</time></trkpt><trkpt lat="42.60714331416024" lon="11.678912573410908"><ele>263.5</ele><time>2026-04-24T09:40:39.991Z</time></trkpt><trkpt lat="42.60704579379454" lon="11.67901944089534"><ele>265.0</ele><time>2026-04-24T09:40:40.991Z</time></trkpt><trkpt lat="42.60695605468622" lon="11.679123529361721"><ele>266.5</ele><time>2026-04-24T09:40:41.991Z</time></trkpt><trkpt lat="42.60686478250399" lon="11.679224178033833"><ele>268.0</ele><time>2026-04-24T09:40:42.991Z</time></trkpt><trkpt lat="42.60676693015456" lon="11.67932237225109"><ele>269.5</ele><time>2026-04-24T09:40:43.991Z</time></trkpt><trkpt lat="42.606670027126086" lon="11.679419167539482"><ele>271.0</ele><time>2026-04-24T09:40:44.991Z</time></trkpt><trkpt lat="42.60657601709399" lon="11.679516975474957"><ele>273.40000000000003</ele><time>2026-04-24T09:40:45.991Z</time></trkpt><trkpt lat="42.606492685433075" lon="11.679609864959122"><ele>275.8</ele><time>2026-04-24T09:40:46.991Z</time></trkpt><trkpt lat="42.60641913768414" lon="11.679706520306091"><ele>278.20000000000005</ele><time>2026-04-24T09:40:47.991Z</time></trkpt><trkpt lat="42.60635409068127" lon="11.679816970334869"><ele>280.6</ele><time>2026-04-24T09:40:48.991Z</time></trkpt><trkpt lat="42.606292916332684" lon="11.679936908458137"><ele>283.0</ele><time>2026-04-24T09:40:49.991Z</time></trkpt><trkpt lat="42.60623504028386" lon="11.680067915457782"><ele>283.0</ele><time>2026-04-24T09:40:50.991Z</time></trkpt><trkpt lat="42.60617855001775" lon="11.680209960585653"><ele>283.0</ele><time>2026-04-24T09:40:51.991Z</time></trkpt><trkpt lat="42.60611621387775" lon="11.680341539278315"><ele>283.0</ele><time>2026-04-24T09:40:52.991Z</time></trkpt><trkpt lat="42.60604917968616" lon="11.680470468115473"><ele>283.0</ele><time>2026-04-24T09:40:53.991Z</time></trkpt><trkpt lat="42.60597975634263" lon="11.68059542900681"><ele>286.0</ele><time>2026-04-24T09:40:54.991Z</time></trkpt><trkpt lat="42.60589642657599" lon="11.68072431558324"><ele>289.0</ele><time>2026-04-24T09:40:55.991Z</time></trkpt><trkpt lat="42.60581594454549" lon="11.680814005285466"><ele>292.0</ele><time>2026-04-24T09:40:56.991Z</time></trkpt><trkpt lat="42.60572996215647" lon="11.680868222269952"><ele>295.0</ele><time>2026-04-24T09:40:57.991Z</time></trkpt><trkpt lat="42.60563880182803" lon="11.680900695631085"><ele>298.0</ele><time>2026-04-24T09:40:58.991Z</time></trkpt><trkpt lat="42.60554200309106" lon="11.680909064623304"><ele>298.0</ele><time>2026-04-24T09:40:59.991Z</time></trkpt><trkpt lat="42.60544485309632" lon="11.680882940621773"><ele>298.0</ele><time>2026-04-24T09:41:00.991Z</time></trkpt><trkpt lat="42.60534779693286" lon="11.68082542658098"><ele>298.0</ele><time>2026-04-24T09:41:01.991Z</time></trkpt><trkpt lat="42.60524426949338" lon="11.680753978758542"><ele>298.0</ele><time>2026-04-24T09:41:02.991Z</time></trkpt><trkpt lat="42.6051339767166" lon="11.680671880614474"><ele>298.0</ele><time>2026-04-24T09:41:03.991Z</time></trkpt><trkpt lat="42.60501610298049" lon="11.680587301900431"><ele>299.8</ele><time>2026-04-24T09:41:04.991Z</time></trkpt><trkpt lat="42.60490896371583" lon="11.68052132687146"><ele>301.6</ele><time>2026-04-24T09:41:05.991Z</time></trkpt><trkpt lat="42.60482292584036" lon="11.680474170799274"><ele>303.4</ele><time>2026-04-24T09:41:06.991Z</time></trkpt><trkpt lat="42.60472509624941" lon="11.680447784342368"><ele>305.2</ele><time>2026-04-24T09:41:07.991Z</time></trkpt><trkpt lat="42.60462223223079" lon="11.680434969620258"><ele>307.0</ele><time>2026-04-24T09:41:08.991Z</time></trkpt><trkpt lat="42.604499751100875" lon="11.680435116347855"><ele>309.0</ele><time>2026-04-24T09:41:09.991Z</time></trkpt><trkpt lat="42.6043698804818" lon="11.680442933944118"><ele>311.0</ele><time>2026-04-24T09:41:10.991Z</time></trkpt><trkpt lat="42.6042473819703" lon="11.680465330903683"><ele>313.0</ele><time>2026-04-24T09:41:11.991Z</time></trkpt><trkpt lat="42.60412998337722" lon="11.680500987984338"><ele>315.0</ele><time>2026-04-24T09:41:12.991Z</time></trkpt><trkpt lat="42.6040100416555" lon="11.680553346900082"><ele>315.0</ele><time>2026-04-24T09:41:13.991Z</time></trkpt><trkpt lat="42.60388694241925" lon="11.680608388428826"><ele>315.0</ele><time>2026-04-24T09:41:14.991Z</time></trkpt><trkpt lat="42.60376699502866" lon="11.680656388285664"><ele>315.0</ele><time>2026-04-24T09:41:15.991Z</time></trkpt><trkpt lat="42.60367050298068" lon="11.680700630413323"><ele>315.0</ele><time>2026-04-24T09:41:16.991Z</time></trkpt><trkpt lat="42.603574888756796" lon="11.680736601285755"><ele>314.5</ele><time>2026-04-24T09:41:17.991Z</time></trkpt><trkpt lat="42.60348030744084" lon="11.680785453229541"><ele>314.0</ele><time>2026-04-24T09:41:18.991Z</time></trkpt><trkpt lat="42.60338087712532" lon="11.68084828003926"><ele>313.5</ele><time>2026-04-24T09:41:19.991Z</time></trkpt><trkpt lat="42.603280202483575" lon="11.680928297037902"><ele>313.0</ele><time>2026-04-24T09:41:20.991Z</time></trkpt><trkpt lat="42.60316319406245" lon="11.681023252957631"><ele>313.3333333333333</ele><time>2026-04-24T09:41:21.991Z</time></trkpt><trkpt lat="42.60304618282527" lon="11.681164525599652"><ele>313.6666666666667</ele><time>2026-04-24T09:41:22.991Z</time></trkpt><trkpt lat="42.602919059424984" lon="11.68129838633036"><ele>314.0</ele><time>2026-04-24T09:41:23.991Z</time></trkpt><trkpt lat="42.60278838246194" lon="11.681423042248504"><ele>313.33333333333337</ele><time>2026-04-24T09:41:24.991Z</time></trkpt><trkpt lat="42.602660203984435" lon="11.681540756297107"><ele>312.6666666666667</ele><time>2026-04-24T09:41:25.991Z</time></trkpt><trkpt lat="42.60252856275902" lon="11.68165950168607"><ele>312.0</ele><time>2026-04-24T09:41:26.991Z</time></trkpt><trkpt lat="42.602391457028226" lon="11.681774107905724"><ele>312.0</ele><time>2026-04-24T09:41:27.991Z</time></trkpt><trkpt lat="42.60224820088526" lon="11.681892939653384"><ele>312.0</ele><time>2026-04-24T09:41:28.991Z</time></trkpt><trkpt lat="42.60210580246567" lon="11.682014460359703"><ele>312.0</ele><time>2026-04-24T09:41:29.991Z</time></trkpt><trkpt lat="42.6019692337412" lon="11.682135744572863"><ele>312.25</ele><time>2026-04-24T09:41:30.991Z</time></trkpt><trkpt lat="42.60183472417264" lon="11.682245166209581"><ele>312.5</ele><time>2026-04-24T09:41:31.991Z</time></trkpt><trkpt lat="42.6017112568302" lon="11.682349880963375"><ele>312.75</ele><time>2026-04-24T09:41:32.991Z</time></trkpt><trkpt lat="42.601601839017356" lon="11.682442637885238"><ele>313.0</ele><time>2026-04-24T09:41:33.991Z</time></trkpt><trkpt lat="42.601501007502854" lon="11.682544568823204"><ele>313.0</ele><time>2026-04-24T09:41:34.991Z</time></trkpt><trkpt lat="42.60139504108575" lon="11.682634108554984"><ele>313.0</ele><time>2026-04-24T09:41:35.991Z</time></trkpt><trkpt lat="42.601301985138115" lon="11.682747765123516"><ele>313.0</ele><time>2026-04-24T09:41:36.991Z</time></trkpt><trkpt lat="42.601202393816116" lon="11.682885952554491"><ele>313.0</ele><time>2026-04-24T09:41:37.991Z</time></trkpt><trkpt lat="42.60113385203632" lon="11.683034078795039"><ele>313.8</ele><time>2026-04-24T09:41:38.991Z</time></trkpt><trkpt lat="42.60108615689771" lon="11.683186133292466"><ele>314.6</ele><time>2026-04-24T09:41:39.991Z</time></trkpt><trkpt lat="42.60105411916558" lon="11.683341192290428"><ele>315.4</ele><time>2026-04-24T09:41:40.991Z</time></trkpt><trkpt lat="42.601040286631736" lon="11.68347776732698"><ele>316.2</ele><time>2026-04-24T09:41:41.991Z</time></trkpt><trkpt lat="42.601045550815506" lon="11.68359491416213"><ele>317.0</ele><time>2026-04-24T09:41:42.991Z</time></trkpt><trkpt lat="42.60107657663789" lon="11.683703201044098"><ele>317.0</ele><time>2026-04-24T09:41:43.991Z</time></trkpt><trkpt lat="42.60113442826176" lon="11.68379095552278"><ele>317.0</ele><time>2026-04-24T09:41:45.991Z</time></trkpt><trkpt lat="42.601162459773754" lon="11.683868605315423"><ele>317.0</ele><time>2026-04-24T09:42:08.989Z</time></trkpt><trkpt lat="42.60121411890325" lon="11.68392179764683"><ele>317.0</ele><time>2026-04-24T09:42:28.988Z</time></trkpt><trkpt lat="42.60128707187189" lon="11.68398841249672"><ele>317.0</ele><time>2026-04-24T09:43:00.989Z</time></trkpt><trkpt lat="42.601377083801644" lon="11.684057317686282"><ele>317.0</ele><time>2026-04-24T09:43:02.989Z</time></trkpt><trkpt lat="42.601462613986115" lon="11.684162728339345"><ele>317.6666666666667</ele><time>2026-04-24T09:43:04.989Z</time></trkpt><trkpt lat="42.60153315886543" lon="11.684247017548014"><ele>318.3333333333333</ele><time>2026-04-24T09:43:05.989Z</time></trkpt><trkpt lat="42.60164727060086" lon="11.684400306680473"><ele>319.0</ele><time>2026-04-24T09:43:06.989Z</time></trkpt><trkpt lat="42.601787706259" lon="11.684584413868428"><ele>319.25</ele><time>2026-04-24T09:43:07.989Z</time></trkpt><trkpt lat="42.60190643917269" lon="11.684728144322756"><ele>319.5</ele><time>2026-04-24T09:43:08.989Z</time></trkpt><trkpt lat="42.60199664170604" lon="11.68487345693569"><ele>319.75</ele><time>2026-04-24T09:43:09.989Z</time></trkpt><trkpt lat="42.602096169089194" lon="11.684995351138008"><ele>320.0</ele><time>2026-04-24T09:43:10.989Z</time></trkpt><trkpt lat="42.60219142864333" lon="11.685126649705767"><ele>320.25</ele><time>2026-04-24T09:43:11.989Z</time></trkpt><trkpt lat="42.602289425645075" lon="11.685252146536653"><ele>320.5</ele><time>2026-04-24T09:43:12.989Z</time></trkpt><trkpt lat="42.60238887813852" lon="11.685375647610236"><ele>320.75</ele><time>2026-04-24T09:43:13.989Z</time></trkpt><trkpt lat="42.60249561948144" lon="11.685521860415921"><ele>321.0</ele><time>2026-04-24T09:43:14.989Z</time></trkpt><trkpt lat="42.60260623938139" lon="11.685617822699243"><ele>321.0</ele><time>2026-04-24T09:43:15.989Z</time></trkpt><trkpt lat="42.60271817284472" lon="11.685718171464636"><ele>321.0</ele><time>2026-04-24T09:43:16.989Z</time></trkpt><trkpt lat="42.60282785187608" lon="11.685823180219986"><ele>321.0</ele><time>2026-04-24T09:43:17.989Z</time></trkpt><trkpt lat="42.60294424065214" lon="11.685932345375464"><ele>321.0</ele><time>2026-04-24T09:43:18.989Z</time></trkpt><trkpt lat="42.603058365903266" lon="11.68604749532163"><ele>322.25</ele><time>2026-04-24T09:43:19.989Z</time></trkpt><trkpt lat="42.603165421028535" lon="11.686175236839306"><ele>323.5</ele><time>2026-04-24T09:43:20.989Z</time></trkpt><trkpt lat="42.603265465307835" lon="11.686312385233235"><ele>324.75</ele><time>2026-04-24T09:43:21.989Z</time></trkpt><trkpt lat="42.60335951260175" lon="11.686461306026166"><ele>326.0</ele><time>2026-04-24T09:43:22.989Z</time></trkpt><trkpt lat="42.60345174411194" lon="11.686620479943366"><ele>326.0</ele><time>2026-04-24T09:43:23.989Z</time></trkpt><trkpt lat="42.603541707597" lon="11.686782494549796"><ele>326.0</ele><time>2026-04-24T09:43:24.989Z</time></trkpt><trkpt lat="42.60363716002572" lon="11.686937889198513"><ele>326.0</ele><time>2026-04-24T09:43:25.989Z</time></trkpt><trkpt lat="42.60373466159626" lon="11.687090982024259"><ele>326.0</ele><time>2026-04-24T09:43:26.989Z</time></trkpt><trkpt lat="42.60382697387989" lon="11.687238935742537"><ele>326.75</ele><time>2026-04-24T09:43:27.989Z</time></trkpt><trkpt lat="42.60391765851324" lon="11.68738650463612"><ele>327.5</ele><time>2026-04-24T09:43:28.989Z</time></trkpt><trkpt lat="42.60401038936005" lon="11.687532449226131"><ele>328.25</ele><time>2026-04-24T09:43:29.989Z</time></trkpt><trkpt lat="42.60410174388274" lon="11.687681157677943"><ele>329.0</ele><time>2026-04-24T09:43:30.989Z</time></trkpt><trkpt lat="42.60418665141597" lon="11.68784649901063"><ele>329.25</ele><time>2026-04-24T09:43:31.989Z</time></trkpt><trkpt lat="42.604257083459906" lon="11.688015870988893"><ele>329.5</ele><time>2026-04-24T09:43:32.989Z</time></trkpt><trkpt lat="42.604305920353994" lon="11.688208165796336"><ele>329.75</ele><time>2026-04-24T09:43:33.989Z</time></trkpt><trkpt lat="42.60438523625227" lon="11.688382543235425"><ele>330.0</ele><time>2026-04-24T09:43:34.989Z</time></trkpt><trkpt lat="42.60445732476043" lon="11.688546540049272"><ele>329.5</ele><time>2026-04-24T09:43:35.989Z</time></trkpt><trkpt lat="42.60453961410371" lon="11.688707316363011"><ele>329.0</ele><time>2026-04-24T09:43:36.989Z</time></trkpt><trkpt lat="42.604618362516945" lon="11.688858738938482"><ele>328.5</ele><time>2026-04-24T09:43:37.989Z</time></trkpt><trkpt lat="42.60469027322024" lon="11.689006253024754"><ele>328.0</ele><time>2026-04-24T09:43:38.989Z</time></trkpt><trkpt lat="42.604760617592646" lon="11.689145458377714"><ele>328.0</ele><time>2026-04-24T09:43:39.989Z</time></trkpt><trkpt lat="42.60483109355445" lon="11.689285259922045"><ele>328.0</ele><time>2026-04-24T09:43:40.989Z</time></trkpt><trkpt lat="42.604909322656155" lon="11.689414781295016"><ele>328.0</ele><time>2026-04-24T09:43:41.989Z</time></trkpt><trkpt lat="42.60499946892865" lon="11.689530957614178"><ele>328.0</ele><time>2026-04-24T09:43:42.989Z</time></trkpt><trkpt lat="42.60509806221155" lon="11.689645299712462"><ele>329.0</ele><time>2026-04-24T09:43:43.989Z</time></trkpt><trkpt lat="42.605194445164315" lon="11.689765972203977"><ele>330.0</ele><time>2026-04-24T09:43:44.989Z</time></trkpt><trkpt lat="42.605271136974544" lon="11.689907728905704"><ele>331.0</ele><time>2026-04-24T09:43:45.989Z</time></trkpt><trkpt lat="42.6053640871093" lon="11.690047852880474"><ele>332.0</ele><time>2026-04-24T09:43:46.989Z</time></trkpt><trkpt lat="42.60544421765745" lon="11.690200370411684"><ele>332.75</ele><time>2026-04-24T09:43:47.989Z</time></trkpt><trkpt lat="42.6055157270089" lon="11.690361752281635"><ele>333.5</ele><time>2026-04-24T09:43:48.989Z</time></trkpt><trkpt lat="42.60557783879639" lon="11.690533173560622"><ele>334.25</ele><time>2026-04-24T09:43:49.989Z</time></trkpt><trkpt lat="42.60563905262138" lon="11.690711759590359"><ele>335.0</ele><time>2026-04-24T09:43:50.989Z</time></trkpt><trkpt lat="42.605701401352405" lon="11.690880601049896"><ele>335.0</ele><time>2026-04-24T09:43:51.989Z</time></trkpt><trkpt lat="42.60577145950404" lon="11.691077562951492"><ele>335.0</ele><time>2026-04-24T09:43:52.989Z</time></trkpt><trkpt lat="42.60583188297432" lon="11.69123016708133"><ele>335.0</ele><time>2026-04-24T09:43:53.989Z</time></trkpt><trkpt lat="42.605896742099524" lon="11.691395625061183"><ele>335.0</ele><time>2026-04-24T09:43:54.989Z</time></trkpt><trkpt lat="42.605965193373294" lon="11.691561437093027"><ele>335.5</ele><time>2026-04-24T09:43:55.989Z</time></trkpt><trkpt lat="42.60602737283902" lon="11.691723599660115"><ele>336.0</ele><time>2026-04-24T09:43:56.989Z</time></trkpt><trkpt lat="42.60608938019059" lon="11.691885817980141"><ele>336.5</ele><time>2026-04-24T09:43:57.989Z</time></trkpt><trkpt lat="42.60615238268207" lon="11.692048774269272"><ele>337.0</ele><time>2026-04-24T09:43:58.989Z</time></trkpt><trkpt lat="42.606212440664244" lon="11.69220481203587"><ele>337.0</ele><time>2026-04-24T09:43:59.989Z</time></trkpt><trkpt lat="42.606269648875205" lon="11.69237197375281"><ele>337.0</ele><time>2026-04-24T09:44:00.989Z</time></trkpt><trkpt lat="42.60633286069805" lon="11.692547538034496"><ele>337.0</ele><time>2026-04-24T09:44:01.989Z</time></trkpt><trkpt lat="42.60639670113528" lon="11.692726289149212"><ele>337.0</ele><time>2026-04-24T09:44:02.99Z</time></trkpt><trkpt lat="42.60646197171549" lon="11.69291045757869"><ele>337.3333333333333</ele><time>2026-04-24T09:44:03.99Z</time></trkpt><trkpt lat="42.60652458366225" lon="11.693096081914781"><ele>337.6666666666667</ele><time>2026-04-24T09:44:04.99Z</time></trkpt><trkpt lat="42.6065707824083" lon="11.693311302889741"><ele>338.0</ele><time>2026-04-24T09:44:05.99Z</time></trkpt><trkpt lat="42.60663092529576" lon="11.693509062939407"><ele>338.25</ele><time>2026-04-24T09:44:06.99Z</time></trkpt><trkpt lat="42.606694553735096" lon="11.69366970256075"><ele>338.5</ele><time>2026-04-24T09:44:07.99Z</time></trkpt><trkpt lat="42.60672589547354" lon="11.693861768860195"><ele>338.75</ele><time>2026-04-24T09:44:08.99Z</time></trkpt><trkpt lat="42.606772564850466" lon="11.694044394667822"><ele>339.0</ele><time>2026-04-24T09:44:09.99Z</time></trkpt><trkpt lat="42.606821484149116" lon="11.694224693444887"><ele>339.0</ele><time>2026-04-24T09:44:10.99Z</time></trkpt><trkpt lat="42.6068835919878" lon="11.694377076841835"><ele>339.0</ele><time>2026-04-24T09:44:11.99Z</time></trkpt><trkpt lat="42.60693147295085" lon="11.694555992215141"><ele>339.0</ele><time>2026-04-24T09:44:12.986Z</time></trkpt><trkpt lat="42.60698828017268" lon="11.69472593363112"><ele>339.0</ele><time>2026-04-24T09:44:13.987Z</time></trkpt><trkpt lat="42.60701704267162" lon="11.694890030408686"><ele>339.75</ele><time>2026-04-24T09:44:14.987Z</time></trkpt><trkpt lat="42.60706744324921" lon="11.695063248863725"><ele>340.5</ele><time>2026-04-24T09:44:15.986Z</time></trkpt><trkpt lat="42.607123746885115" lon="11.695225666960042"><ele>341.25</ele><time>2026-04-24T09:44:16.986Z</time></trkpt><trkpt lat="42.60719268468794" lon="11.695420340995616"><ele>342.0</ele><time>2026-04-24T09:44:17.986Z</time></trkpt><trkpt lat="42.60724933219871" lon="11.695607141913593"><ele>342.0</ele><time>2026-04-24T09:44:18.986Z</time></trkpt><trkpt lat="42.60730527000851" lon="11.695784993156835"><ele>342.0</ele><time>2026-04-24T09:44:19.986Z</time></trkpt><trkpt lat="42.6073626679826" lon="11.695959821566394"><ele>342.0</ele><time>2026-04-24T09:44:20.986Z</time></trkpt><trkpt lat="42.607427981788945" lon="11.69613826067898"><ele>342.0</ele><time>2026-04-24T09:44:21.986Z</time></trkpt><trkpt lat="42.60748446033734" lon="11.696295637135359"><ele>342.25</ele><time>2026-04-24T09:44:22.986Z</time></trkpt><trkpt lat="42.60753843626027" lon="11.69644269147329"><ele>342.5</ele><time>2026-04-24T09:44:23.986Z</time></trkpt><trkpt lat="42.60759320596603" lon="11.696590169548278"><ele>342.75</ele><time>2026-04-24T09:44:24.986Z</time></trkpt><trkpt lat="42.60763815466765" lon="11.696724986742748"><ele>343.0</ele><time>2026-04-24T09:44:25.986Z</time></trkpt><trkpt lat="42.60768036777454" lon="11.696853237458466"><ele>343.4</ele><time>2026-04-24T09:44:26.986Z</time></trkpt><trkpt lat="42.607713455529854" lon="11.696978998445068"><ele>343.79999999999995</ele><time>2026-04-24T09:44:27.986Z</time></trkpt><trkpt lat="42.60771552070001" lon="11.697114517431457"><ele>344.2</ele><time>2026-04-24T09:44:28.986Z</time></trkpt><trkpt lat="42.60773239494415" lon="11.697237081395349"><ele>344.6</ele><time>2026-04-24T09:44:29.986Z</time></trkpt><trkpt lat="42.607746433425035" lon="11.697365591131929"><ele>345.0</ele><time>2026-04-24T09:44:30.986Z</time></trkpt><trkpt lat="42.60775919860044" lon="11.697466361103425"><ele>345.0</ele><time>2026-04-24T09:44:31.986Z</time></trkpt><trkpt lat="42.60773459838642" lon="11.697617758222522"><ele>345.0</ele><time>2026-04-24T09:44:33.986Z</time></trkpt><trkpt lat="42.60761137597584" lon="11.697677124185645"><ele>345.0</ele><time>2026-04-24T09:44:35.986Z</time></trkpt><trkpt lat="42.60754400031574" lon="11.697764122635819"><ele>345.0</ele><time>2026-04-24T09:44:36.987Z</time></trkpt><trkpt lat="42.607469841136385" lon="11.697837700401692"><ele>345.0</ele><time>2026-04-24T09:44:37.987Z</time></trkpt><trkpt lat="42.60739487892129" lon="11.69791347880419"><ele>345.3333333333333</ele><time>2026-04-24T09:44:38.987Z</time></trkpt><trkpt lat="42.60732087516683" lon="11.697984003024159"><ele>345.6666666666667</ele><time>2026-04-24T09:44:39.987Z</time></trkpt><trkpt lat="42.60725786122377" lon="11.698049319650467"><ele>346.0</ele><time>2026-04-24T09:44:40.987Z</time></trkpt><trkpt lat="42.607192153273935" lon="11.698113345922591"><ele>346.33333333333337</ele><time>2026-04-24T09:44:41.987Z</time></trkpt><trkpt lat="42.607126612858" lon="11.698175726349728"><ele>346.6666666666667</ele><time>2026-04-24T09:44:42.987Z</time></trkpt><trkpt lat="42.60706123098785" lon="11.69824218574948"><ele>347.0</ele><time>2026-04-24T09:44:43.987Z</time></trkpt><trkpt lat="42.60699431959641" lon="11.698271139795272"><ele>347.0</ele><time>2026-04-24T09:44:44.987Z</time></trkpt><trkpt lat="42.606902334347566" lon="11.698358271465265"><ele>347.0</ele><time>2026-04-24T09:44:46.987Z</time></trkpt><trkpt lat="42.60685805227125" lon="11.698427143351214"><ele>347.0</ele><time>2026-04-24T09:44:48.987Z</time></trkpt><trkpt lat="42.606820515600845" lon="11.698520851400838"><ele>347.0</ele><time>2026-04-24T09:45:01.987Z</time></trkpt><trkpt lat="42.606899567557754" lon="11.698650008033846"><ele>347.0</ele><time>2026-04-24T09:45:02.987Z</time></trkpt><trkpt lat="42.606928703508125" lon="11.698751447502074"><ele>347.0</ele><time>2026-04-24T09:45:03.987Z</time></trkpt><trkpt lat="42.60696567362444" lon="11.698840039449474"><ele>347.0</ele><time>2026-04-24T09:45:04.987Z</time></trkpt><trkpt lat="42.607009898934976" lon="11.69893524198156"><ele>347.0</ele><time>2026-04-24T09:45:05.987Z</time></trkpt><trkpt lat="42.60705830448439" lon="11.699042335311189"><ele>347.0</ele><time>2026-04-24T09:45:06.987Z</time></trkpt><trkpt lat="42.60710617958315" lon="11.69915576705545"><ele>347.0</ele><time>2026-04-24T09:45:07.987Z</time></trkpt><trkpt lat="42.60715845303302" lon="11.699280403490885"><ele>347.20000000000005</ele><time>2026-04-24T09:45:08.987Z</time></trkpt><trkpt lat="42.60720290061056" lon="11.699399236706038"><ele>347.4</ele><time>2026-04-24T09:45:09.987Z</time></trkpt><trkpt lat="42.607247832878585" lon="11.699521779641097"><ele>347.6</ele><time>2026-04-24T09:45:10.987Z</time></trkpt><trkpt lat="42.60729753876228" lon="11.699654642074995"><ele>347.79999999999995</ele><time>2026-04-24T09:45:11.987Z</time></trkpt><trkpt lat="42.60734836116014" lon="11.699789333031978"><ele>348.0</ele><time>2026-04-24T09:45:12.987Z</time></trkpt><trkpt lat="42.60740145246555" lon="11.69992860923291"><ele>349.0</ele><time>2026-04-24T09:45:13.987Z</time></trkpt><trkpt lat="42.607454133618454" lon="11.7000669677053"><ele>350.0</ele><time>2026-04-24T09:45:14.987Z</time></trkpt><trkpt lat="42.60751112120231" lon="11.70021062553075"><ele>351.0</ele><time>2026-04-24T09:45:15.987Z</time></trkpt><trkpt lat="42.607567697041716" lon="11.700353953309369"><ele>352.0</ele><time>2026-04-24T09:45:16.987Z</time></trkpt><trkpt lat="42.60762556675036" lon="11.700494433586512"><ele>352.5</ele><time>2026-04-24T09:45:17.987Z</time></trkpt><trkpt lat="42.607682884792204" lon="11.700637603393616"><ele>353.0</ele><time>2026-04-24T09:45:18.987Z</time></trkpt><trkpt lat="42.607743720833135" lon="11.70078559350545"><ele>353.5</ele><time>2026-04-24T09:45:19.987Z</time></trkpt><trkpt lat="42.60780572653284" lon="11.700931446434685"><ele>354.0</ele><time>2026-04-24T09:45:20.987Z</time></trkpt><trkpt lat="42.60786906498065" lon="11.701078592802698"><ele>356.0</ele><time>2026-04-24T09:45:21.987Z</time></trkpt><trkpt lat="42.60791450344749" lon="11.701240066828309"><ele>358.0</ele><time>2026-04-24T09:45:22.987Z</time></trkpt><trkpt lat="42.607983579695066" lon="11.701379292592732"><ele>360.0</ele><time>2026-04-24T09:45:23.987Z</time></trkpt><trkpt lat="42.608054653133244" lon="11.701519622668714"><ele>362.0</ele><time>2026-04-24T09:45:24.987Z</time></trkpt><trkpt lat="42.608131259829364" lon="11.701661429974939"><ele>362.0</ele><time>2026-04-24T09:45:25.987Z</time></trkpt><trkpt lat="42.60820643390997" lon="11.701801608740528"><ele>362.0</ele><time>2026-04-24T09:45:26.987Z</time></trkpt><trkpt lat="42.60828048682449" lon="11.701947041476368"><ele>362.0</ele><time>2026-04-24T09:45:27.987Z</time></trkpt><trkpt lat="42.608345869250385" lon="11.702088802249865"><ele>362.0</ele><time>2026-04-24T09:45:28.987Z</time></trkpt><trkpt lat="42.6084084759148" lon="11.702223570899564"><ele>363.6</ele><time>2026-04-24T09:45:29.987Z</time></trkpt><trkpt lat="42.60847618030699" lon="11.70234894825976"><ele>365.20000000000005</ele><time>2026-04-24T09:45:30.987Z</time></trkpt><trkpt lat="42.60853110866036" lon="11.702475270142333"><ele>366.8</ele><time>2026-04-24T09:45:31.987Z</time></trkpt><trkpt lat="42.60858785494113" lon="11.702607951921577"><ele>368.4</ele><time>2026-04-24T09:45:32.987Z</time></trkpt><trkpt lat="42.60864350206656" lon="11.702739338205527"><ele>370.0</ele><time>2026-04-24T09:45:33.987Z</time></trkpt><trkpt lat="42.608707134291535" lon="11.702871943041552"><ele>370.0</ele><time>2026-04-24T09:45:34.987Z</time></trkpt><trkpt lat="42.608773462145585" lon="11.703007437870676"><ele>370.0</ele><time>2026-04-24T09:45:35.987Z</time></trkpt><trkpt lat="42.60883394152739" lon="11.703153776068723"><ele>370.0</ele><time>2026-04-24T09:45:36.987Z</time></trkpt><trkpt lat="42.60890411667111" lon="11.703303241001313"><ele>370.0</ele><time>2026-04-24T09:45:37.987Z</time></trkpt><trkpt lat="42.608972945363966" lon="11.70344794405176"><ele>371.0</ele><time>2026-04-24T09:45:38.987Z</time></trkpt><trkpt lat="42.60903982873733" lon="11.703588557292482"><ele>372.0</ele><time>2026-04-24T09:45:39.987Z</time></trkpt><trkpt lat="42.60911585631865" lon="11.703714556419703"><ele>373.0</ele><time>2026-04-24T09:45:40.987Z</time></trkpt><trkpt lat="42.60916384751856" lon="11.703859663722689"><ele>374.0</ele><time>2026-04-24T09:45:41.987Z</time></trkpt><trkpt lat="42.60920837571175" lon="11.703994538977545"><ele>374.0</ele><time>2026-04-24T09:45:42.987Z</time></trkpt><trkpt lat="42.60930727719207" lon="11.704140579198432"><ele>374.0</ele><time>2026-04-24T09:45:43.987Z</time></trkpt><trkpt lat="42.6093684158068" lon="11.704271500026566"><ele>374.0</ele><time>2026-04-24T09:45:44.987Z</time></trkpt><trkpt lat="42.60942581646324" lon="11.704395960806904"><ele>374.0</ele><time>2026-04-24T09:45:45.987Z</time></trkpt><trkpt lat="42.6094591120348" lon="11.704515048482891"><ele>375.1666666666667</ele><time>2026-04-24T09:45:46.987Z</time></trkpt><trkpt lat="42.60950123882621" lon="11.704603054764481"><ele>376.33333333333337</ele><time>2026-04-24T09:45:47.987Z</time></trkpt><trkpt lat="42.609542736071376" lon="11.704672932142952"><ele>377.5</ele><time>2026-04-24T09:45:48.987Z</time></trkpt><trkpt lat="42.60965462462868" lon="11.704745664107348"><ele>378.6666666666667</ele><time>2026-04-24T09:45:50.987Z</time></trkpt><trkpt lat="42.609729762111606" lon="11.70475414162922"><ele>379.8333333333333</ele><time>2026-04-24T09:45:51.987Z</time></trkpt><trkpt lat="42.609826965197435" lon="11.704748624443445"><ele>381.0</ele><time>2026-04-24T09:45:52.987Z</time></trkpt><trkpt lat="42.60991905032346" lon="11.704748809730656"><ele>381.0</ele><time>2026-04-24T09:45:53.987Z</time></trkpt><trkpt lat="42.610021386898495" lon="11.704748560413687"><ele>381.0</ele><time>2026-04-24T09:45:54.987Z</time></trkpt><trkpt lat="42.61013545436835" lon="11.704753879735147"><ele>381.0</ele><time>2026-04-24T09:45:55.987Z</time></trkpt><trkpt lat="42.61025055815202" lon="11.704756742777732"><ele>381.0</ele><time>2026-04-24T09:45:56.987Z</time></trkpt><trkpt lat="42.610362623837645" lon="11.704759171845824"><ele>381.0</ele><time>2026-04-24T09:45:57.987Z</time></trkpt><trkpt lat="42.61047735493575" lon="11.704762704360702"><ele>382.0</ele><time>2026-04-24T09:45:58.987Z</time></trkpt><trkpt lat="42.61059231688642" lon="11.704765825631338"><ele>383.0</ele><time>2026-04-24T09:45:59.987Z</time></trkpt><trkpt lat="42.610708739694154" lon="11.704769282383603"><ele>384.0</ele><time>2026-04-24T09:46:00.987Z</time></trkpt><trkpt lat="42.6108200087691" lon="11.704771085439335"><ele>385.0</ele><time>2026-04-24T09:46:01.987Z</time></trkpt><trkpt lat="42.61092546076074" lon="11.704772359729256"><ele>386.0</ele><time>2026-04-24T09:46:02.987Z</time></trkpt><trkpt lat="42.61101411425171" lon="11.704802573794888"><ele>386.0</ele><time>2026-04-24T09:46:03.987Z</time></trkpt><trkpt lat="42.611086057004336" lon="11.70484981666628"><ele>386.0</ele><time>2026-04-24T09:46:04.987Z</time></trkpt><trkpt lat="42.611152754364944" lon="11.704912287864511"><ele>386.0</ele><time>2026-04-24T09:46:05.987Z</time></trkpt><trkpt lat="42.611228019179656" lon="11.704982655441093"><ele>386.0</ele><time>2026-04-24T09:46:06.987Z</time></trkpt><trkpt lat="42.61129906606617" lon="11.70507009914459"><ele>386.0</ele><time>2026-04-24T09:46:07.987Z</time></trkpt><trkpt lat="42.611378800871314" lon="11.705171545240487"><ele>386.0</ele><time>2026-04-24T09:46:08.988Z</time></trkpt><trkpt lat="42.611469429813624" lon="11.705268277321165"><ele>386.0</ele><time>2026-04-24T09:46:09.988Z</time></trkpt><trkpt lat="42.611558000205214" lon="11.705354563535819"><ele>386.0</ele><time>2026-04-24T09:46:10.988Z</time></trkpt><trkpt lat="42.611645559468705" lon="11.70544664526918"><ele>386.0</ele><time>2026-04-24T09:46:11.988Z</time></trkpt><trkpt lat="42.61172257374873" lon="11.705531786607931"><ele>386.0</ele><time>2026-04-24T09:46:12.988Z</time></trkpt><trkpt lat="42.61179574506494" lon="11.705616440784661"><ele>385.99999999999994</ele><time>2026-04-24T09:46:13.988Z</time></trkpt><trkpt lat="42.611862246298216" lon="11.705697853506473"><ele>386.0</ele><time>2026-04-24T09:46:14.988Z</time></trkpt><trkpt lat="42.61191630073897" lon="11.70576649105349"><ele>386.0</ele><time>2026-04-24T09:46:15.988Z</time></trkpt><trkpt lat="42.611948009186435" lon="11.705845107144787"><ele>386.0</ele><time>2026-04-24T09:46:16.988Z</time></trkpt><trkpt lat="42.611967643012164" lon="11.705928552089814"><ele>385.99999999999994</ele><time>2026-04-24T09:46:17.988Z</time></trkpt><trkpt lat="42.61197772204976" lon="11.706031792725096"><ele>386.0</ele><time>2026-04-24T09:46:18.985Z</time></trkpt><trkpt lat="42.61198303460796" lon="11.706158757834153"><ele>386.20000000000005</ele><time>2026-04-24T09:46:19.985Z</time></trkpt><trkpt lat="42.61198912068258" lon="11.706293368987591"><ele>386.40000000000003</ele><time>2026-04-24T09:46:20.985Z</time></trkpt><trkpt lat="42.611995308980696" lon="11.706424727348566"><ele>386.6</ele><time>2026-04-24T09:46:21.984Z</time></trkpt><trkpt lat="42.61200201837977" lon="11.706554211000967"><ele>386.8</ele><time>2026-04-24T09:46:22.984Z</time></trkpt><trkpt lat="42.61201215077441" lon="11.706668136442044"><ele>387.0</ele><time>2026-04-24T09:46:23.984Z</time></trkpt><trkpt lat="42.61202908990972" lon="11.706774827911804"><ele>387.0</ele><time>2026-04-24T09:46:24.985Z</time></trkpt><trkpt lat="42.612070632477504" lon="11.706907345222477"><ele>387.0</ele><time>2026-04-24T09:46:26.985Z</time></trkpt><trkpt lat="42.61218590653474" lon="11.707005957919234"><ele>387.0</ele><time>2026-04-24T09:46:28.985Z</time></trkpt><trkpt lat="42.61226329774209" lon="11.707078072156003"><ele>387.0</ele><time>2026-04-24T09:46:29.985Z</time></trkpt><trkpt lat="42.61234124025007" lon="11.707168943527115"><ele>387.0</ele><time>2026-04-24T09:46:30.985Z</time></trkpt><trkpt lat="42.61241586288007" lon="11.70726281615762"><ele>387.0</ele><time>2026-04-24T09:46:31.984Z</time></trkpt><trkpt lat="42.61249324895443" lon="11.707368684634718"><ele>387.0</ele><time>2026-04-24T09:46:32.984Z</time></trkpt><trkpt lat="42.61256763702109" lon="11.707483724268675"><ele>387.0</ele><time>2026-04-24T09:46:33.984Z</time></trkpt><trkpt lat="42.61263217501195" lon="11.707604312152894"><ele>387.0</ele><time>2026-04-24T09:46:34.984Z</time></trkpt><trkpt lat="42.612695623151964" lon="11.707728713305913"><ele>387.0</ele><time>2026-04-24T09:46:35.984Z</time></trkpt><trkpt lat="42.61275838265076" lon="11.707857335586656"><ele>387.0</ele><time>2026-04-24T09:46:36.984Z</time></trkpt><trkpt lat="42.612813821011734" lon="11.707991170101957"><ele>387.0</ele><time>2026-04-24T09:46:37.984Z</time></trkpt><trkpt lat="42.61286638990724" lon="11.708114802054467"><ele>387.0</ele><time>2026-04-24T09:46:38.984Z</time></trkpt><trkpt lat="42.61292215266839" lon="11.708227095428526"><ele>387.0</ele><time>2026-04-24T09:46:39.984Z</time></trkpt><trkpt lat="42.61299127916251" lon="11.708323304093366"><ele>387.0</ele><time>2026-04-24T09:46:40.984Z</time></trkpt><trkpt lat="42.61307876038798" lon="11.708426878581612"><ele>387.0</ele><time>2026-04-24T09:46:41.984Z</time></trkpt><trkpt lat="42.613167880919654" lon="11.708532044690026"><ele>387.0</ele><time>2026-04-24T09:46:42.984Z</time></trkpt><trkpt lat="42.6132547286217" lon="11.70863848023341"><ele>387.0</ele><time>2026-04-24T09:46:43.984Z</time></trkpt><trkpt lat="42.613356198168105" lon="11.708750406626354"><ele>387.0</ele><time>2026-04-24T09:46:44.984Z</time></trkpt><trkpt lat="42.613465258322556" lon="11.708860600585371"><ele>387.5</ele><time>2026-04-24T09:46:45.984Z</time></trkpt><trkpt lat="42.6135801647366" lon="11.708966657160467"><ele>388.0</ele><time>2026-04-24T09:46:46.984Z</time></trkpt><trkpt lat="42.613697409248715" lon="11.709079061729115"><ele>388.5</ele><time>2026-04-24T09:46:47.984Z</time></trkpt><trkpt lat="42.6138071715749" lon="11.70919415510283"><ele>389.0</ele><time>2026-04-24T09:46:48.984Z</time></trkpt><trkpt lat="42.613915117964034" lon="11.709306275515543"><ele>388.5</ele><time>2026-04-24T09:46:49.984Z</time></trkpt><trkpt lat="42.614025962003005" lon="11.709419689638212"><ele>388.0</ele><time>2026-04-24T09:46:50.984Z</time></trkpt><trkpt lat="42.614131314684116" lon="11.709533207279826"><ele>387.5</ele><time>2026-04-24T09:46:51.984Z</time></trkpt><trkpt lat="42.61423665314234" lon="11.709654664672863"><ele>387.0</ele><time>2026-04-24T09:46:52.984Z</time></trkpt><trkpt lat="42.61433958993806" lon="11.709766740138212"><ele>387.0</ele><time>2026-04-24T09:46:53.984Z</time></trkpt><trkpt lat="42.61444585598008" lon="11.709869201664993"><ele>387.0</ele><time>2026-04-24T09:46:54.984Z</time></trkpt><trkpt lat="42.6145494581904" lon="11.709984657674143"><ele>387.0</ele><time>2026-04-24T09:46:55.984Z</time></trkpt><trkpt lat="42.61466176151629" lon="11.710096864102571"><ele>387.0</ele><time>2026-04-24T09:46:56.984Z</time></trkpt><trkpt lat="42.614758777828875" lon="11.71023278584172"><ele>390.0</ele><time>2026-04-24T09:46:57.984Z</time></trkpt><trkpt lat="42.61487408019379" lon="11.71035411441882"><ele>393.0</ele><time>2026-04-24T09:46:58.984Z</time></trkpt><trkpt lat="42.61499465591511" lon="11.710483836857478"><ele>396.0</ele><time>2026-04-24T09:46:59.984Z</time></trkpt><trkpt lat="42.615112937071096" lon="11.710607968358769"><ele>399.0</ele><time>2026-04-24T09:47:00.984Z</time></trkpt><trkpt lat="42.61522747224775" lon="11.710721522216971"><ele>398.75</ele><time>2026-04-24T09:47:01.984Z</time></trkpt><trkpt lat="42.61534135294666" lon="11.710833843528505"><ele>398.5</ele><time>2026-04-24T09:47:02.984Z</time></trkpt><trkpt lat="42.61545457415744" lon="11.710944363519195"><ele>398.25</ele><time>2026-04-24T09:47:03.984Z</time></trkpt><trkpt lat="42.61556095247968" lon="11.711058790927792"><ele>398.0</ele><time>2026-04-24T09:47:04.984Z</time></trkpt><trkpt lat="42.61566787141108" lon="11.711176868207671"><ele>398.75</ele><time>2026-04-24T09:47:05.984Z</time></trkpt><trkpt lat="42.61577259360556" lon="11.711285728660759"><ele>399.5</ele><time>2026-04-24T09:47:06.984Z</time></trkpt><trkpt lat="42.615875892120144" lon="11.711395710302744"><ele>400.25</ele><time>2026-04-24T09:47:07.984Z</time></trkpt><trkpt lat="42.615985843095125" lon="11.711503005737486"><ele>401.0</ele><time>2026-04-24T09:47:08.984Z</time></trkpt><trkpt lat="42.61608658109656" lon="11.711602677390127"><ele>400.75</ele><time>2026-04-24T09:47:09.984Z</time></trkpt><trkpt lat="42.61618150632427" lon="11.711705071142296"><ele>400.5</ele><time>2026-04-24T09:47:10.984Z</time></trkpt><trkpt lat="42.61627420672056" lon="11.711805384071875"><ele>400.25</ele><time>2026-04-24T09:47:11.984Z</time></trkpt><trkpt lat="42.616370217839666" lon="11.711910591223264"><ele>400.0</ele><time>2026-04-24T09:47:12.984Z</time></trkpt><trkpt lat="42.61646783094529" lon="11.712010573047339"><ele>400.75</ele><time>2026-04-24T09:47:13.984Z</time></trkpt><trkpt lat="42.61656336785175" lon="11.71211386381991"><ele>401.5</ele><time>2026-04-24T09:47:14.984Z</time></trkpt><trkpt lat="42.616661337960124" lon="11.712212046693304"><ele>402.25</ele><time>2026-04-24T09:47:15.984Z</time></trkpt><trkpt lat="42.61675107026181" lon="11.712306784052679"><ele>403.0</ele><time>2026-04-24T09:47:16.984Z</time></trkpt><trkpt lat="42.61683617003164" lon="11.712404386126329"><ele>403.0</ele><time>2026-04-24T09:47:17.984Z</time></trkpt><trkpt lat="42.616912874689845" lon="11.712487685552299"><ele>403.0</ele><time>2026-04-24T09:47:18.985Z</time></trkpt><trkpt lat="42.61699425348371" lon="11.712550146028645"><ele>403.0</ele><time>2026-04-24T09:47:19.985Z</time></trkpt><trkpt lat="42.61707668969356" lon="11.7126034709867"><ele>403.0</ele><time>2026-04-24T09:47:20.985Z</time></trkpt><trkpt lat="42.617169877688504" lon="11.712624459028703"><ele>403.0</ele><time>2026-04-24T09:47:21.985Z</time></trkpt><trkpt lat="42.617265228675905" lon="11.712637804309628"><ele>403.4</ele><time>2026-04-24T09:47:22.985Z</time></trkpt><trkpt lat="42.61736945071463" lon="11.71263283881185"><ele>403.79999999999995</ele><time>2026-04-24T09:47:23.985Z</time></trkpt><trkpt lat="42.617485194075236" lon="11.712609271399709"><ele>404.2</ele><time>2026-04-24T09:47:24.985Z</time></trkpt><trkpt lat="42.61759919097849" lon="11.712600410472328"><ele>404.6</ele><time>2026-04-24T09:47:25.985Z</time></trkpt><trkpt lat="42.617707525215685" lon="11.712592748496697"><ele>405.0</ele><time>2026-04-24T09:47:26.985Z</time></trkpt><trkpt lat="42.61780575273616" lon="11.712586285610618"><ele>405.0</ele><time>2026-04-24T09:47:27.985Z</time></trkpt><trkpt lat="42.61790205678817" lon="11.712577000563723"><ele>405.0</ele><time>2026-04-24T09:47:28.985Z</time></trkpt><trkpt lat="42.6179907701382" lon="11.71260254033574"><ele>405.0</ele><time>2026-04-24T09:47:29.985Z</time></trkpt><trkpt lat="42.61806890920016" lon="11.712598477964097"><ele>405.0</ele><time>2026-04-24T09:47:30.985Z</time></trkpt><trkpt lat="42.61815058885948" lon="11.712590546150963"><ele>405.0</ele><time>2026-04-24T09:47:31.985Z</time></trkpt><trkpt lat="42.61822600287418" lon="11.712583267623117"><ele>405.0</ele><time>2026-04-24T09:47:32.985Z</time></trkpt><trkpt lat="42.61830600816253" lon="11.712576531627429"><ele>405.0</ele><time>2026-04-24T09:47:33.985Z</time></trkpt><trkpt lat="42.618385270918694" lon="11.712572327562198"><ele>405.0</ele><time>2026-04-24T09:47:34.985Z</time></trkpt><trkpt lat="42.61848718970052" lon="11.712575259009288"><ele>405.0</ele><time>2026-04-24T09:47:36.985Z</time></trkpt><trkpt lat="42.6185422217175" lon="11.712632511004786"><ele>405.0</ele><time>2026-04-24T09:47:45.985Z</time></trkpt><trkpt lat="42.618558243970476" lon="11.712797703159282"><ele>405.0</ele><time>2026-04-24T09:47:47.985Z</time></trkpt><trkpt lat="42.618584401664656" lon="11.712896006142913"><ele>405.0</ele><time>2026-04-24T09:47:48.985Z</time></trkpt><trkpt lat="42.61861004934989" lon="11.71299239253599"><ele>405.0</ele><time>2026-04-24T09:47:49.985Z</time></trkpt><trkpt lat="42.61865442684689" lon="11.713106970799933"><ele>405.0</ele><time>2026-04-24T09:47:50.985Z</time></trkpt><trkpt lat="42.61867168900709" lon="11.713241604187699"><ele>405.0</ele><time>2026-04-24T09:47:51.985Z</time></trkpt><trkpt lat="42.61871168957589" lon="11.713368178812003"><ele>405.0</ele><time>2026-04-24T09:47:52.985Z</time></trkpt><trkpt lat="42.61875509014262" lon="11.713509498941239"><ele>406.0</ele><time>2026-04-24T09:47:53.985Z</time></trkpt><trkpt lat="42.6187984668533" lon="11.713657490153238"><ele>407.0</ele><time>2026-04-24T09:47:54.985Z</time></trkpt><trkpt lat="42.61884187224866" lon="11.71382051089211"><ele>408.0</ele><time>2026-04-24T09:47:55.985Z</time></trkpt><trkpt lat="42.618889578919735" lon="11.713994955777741"><ele>409.0</ele><time>2026-04-24T09:47:56.985Z</time></trkpt><trkpt lat="42.618940598652266" lon="11.714173488831937"><ele>409.0</ele><time>2026-04-24T09:47:57.985Z</time></trkpt><trkpt lat="42.618985618574264" lon="11.714341666633674"><ele>409.0</ele><time>2026-04-24T09:47:58.985Z</time></trkpt><trkpt lat="42.619034597080216" lon="11.714518234256774"><ele>409.0</ele><time>2026-04-24T09:47:59.985Z</time></trkpt><trkpt lat="42.619083192947784" lon="11.714693194826168"><ele>409.0</ele><time>2026-04-24T09:48:00.985Z</time></trkpt><trkpt lat="42.61911456356819" lon="11.714887347990212"><ele>408.6666666666667</ele><time>2026-04-24T09:48:01.985Z</time></trkpt><trkpt lat="42.619160841373635" lon="11.7150742788462"><ele>408.33333333333337</ele><time>2026-04-24T09:48:02.985Z</time></trkpt><trkpt lat="42.619213603274666" lon="11.715261764337702"><ele>408.0</ele><time>2026-04-24T09:48:03.985Z</time></trkpt><trkpt lat="42.61927412496973" lon="11.715458426610203"><ele>408.0</ele><time>2026-04-24T09:48:04.985Z</time></trkpt><trkpt lat="42.61932611549986" lon="11.7156438033268"><ele>408.0</ele><time>2026-04-24T09:48:05.985Z</time></trkpt><trkpt lat="42.61937873549056" lon="11.715835615474703"><ele>408.0</ele><time>2026-04-24T09:48:06.985Z</time></trkpt><trkpt lat="42.619429200892476" lon="11.716018400959102"><ele>408.0</ele><time>2026-04-24T09:48:07.985Z</time></trkpt><trkpt lat="42.61948380320349" lon="11.716211784758361"><ele>409.33333333333337</ele><time>2026-04-24T09:48:08.985Z</time></trkpt><trkpt lat="42.619541294497516" lon="11.716412460210837"><ele>410.6666666666667</ele><time>2026-04-24T09:48:09.985Z</time></trkpt><trkpt lat="42.61959823201426" lon="11.716611999477808"><ele>412.0</ele><time>2026-04-24T09:48:10.985Z</time></trkpt><trkpt lat="42.61965036796918" lon="11.716803142350168"><ele>412.6666666666667</ele><time>2026-04-24T09:48:11.985Z</time></trkpt><trkpt lat="42.61970171700215" lon="11.716985517505188"><ele>413.33333333333337</ele><time>2026-04-24T09:48:12.985Z</time></trkpt><trkpt lat="42.61975399870156" lon="11.717179640748835"><ele>414.0</ele><time>2026-04-24T09:48:13.985Z</time></trkpt><trkpt lat="42.61981335120104" lon="11.717379801001433"><ele>414.0</ele><time>2026-04-24T09:48:14.985Z</time></trkpt><trkpt lat="42.61986560472094" lon="11.717572832541405"><ele>414.0</ele><time>2026-04-24T09:48:15.985Z</time></trkpt><trkpt lat="42.61992535787633" lon="11.717770939471231"><ele>414.0</ele><time>2026-04-24T09:48:16.985Z</time></trkpt><trkpt lat="42.619973822931044" lon="11.717976811985602"><ele>414.0</ele><time>2026-04-24T09:48:17.985Z</time></trkpt><trkpt lat="42.62002540418174" lon="11.71817086239571"><ele>414.0</ele><time>2026-04-24T09:48:18.985Z</time></trkpt><trkpt lat="42.620081140437826" lon="11.718368476958034"><ele>414.0</ele><time>2026-04-24T09:48:19.985Z</time></trkpt><trkpt lat="42.62014414672635" lon="11.718571937659627"><ele>414.33333333333337</ele><time>2026-04-24T09:48:20.985Z</time></trkpt><trkpt lat="42.62020107918105" lon="11.718771778957011"><ele>414.6666666666667</ele><time>2026-04-24T09:48:21.985Z</time></trkpt><trkpt lat="42.62025289841232" lon="11.71897376225778"><ele>415.0</ele><time>2026-04-24T09:48:22.985Z</time></trkpt><trkpt lat="42.62030856609119" lon="11.719173042370944"><ele>415.0</ele><time>2026-04-24T09:48:23.985Z</time></trkpt><trkpt lat="42.62036395380537" lon="11.719367854221089"><ele>415.0</ele><time>2026-04-24T09:48:24.983Z</time></trkpt><trkpt lat="42.62042024490003" lon="11.71956504069669"><ele>415.0</ele><time>2026-04-24T09:48:25.984Z</time></trkpt><trkpt lat="42.62047255183846" lon="11.719763483604574"><ele>415.6666666666667</ele><time>2026-04-24T09:48:26.984Z</time></trkpt><trkpt lat="42.62052644452763" lon="11.719969856850527"><ele>416.33333333333337</ele><time>2026-04-24T09:48:27.983Z</time></trkpt><trkpt lat="42.620579291262985" lon="11.720163921471086"><ele>417.0</ele><time>2026-04-24T09:48:28.983Z</time></trkpt><trkpt lat="42.62063443955108" lon="11.720364507997491"><ele>418.66666666666663</ele><time>2026-04-24T09:48:29.983Z</time></trkpt><trkpt lat="42.62069082618776" lon="11.720565167964281"><ele>420.3333333333333</ele><time>2026-04-24T09:48:30.983Z</time></trkpt><trkpt lat="42.620740283165105" lon="11.72076785752161"><ele>422.0</ele><time>2026-04-24T09:48:31.983Z</time></trkpt><trkpt lat="42.62079412600281" lon="11.720966371659635"><ele>423.0</ele><time>2026-04-24T09:48:32.983Z</time></trkpt><trkpt lat="42.62085094767116" lon="11.72116380021295"><ele>424.0</ele><time>2026-04-24T09:48:33.984Z</time></trkpt><trkpt lat="42.62090746822883" lon="11.721362429183248"><ele>425.0</ele><time>2026-04-24T09:48:34.983Z</time></trkpt><trkpt lat="42.6209683874904" lon="11.721573229131574"><ele>425.0</ele><time>2026-04-24T09:48:35.983Z</time></trkpt><trkpt lat="42.621020170083185" lon="11.721777710885235"><ele>425.0</ele><time>2026-04-24T09:48:36.983Z</time></trkpt><trkpt lat="42.62107809891423" lon="11.721982514906557"><ele>425.0</ele><time>2026-04-24T09:48:37.983Z</time></trkpt><trkpt lat="42.62113612912237" lon="11.722184397581772"><ele>424.75</ele><time>2026-04-24T09:48:38.983Z</time></trkpt><trkpt lat="42.62119088061554" lon="11.722377057337082"><ele>424.5</ele><time>2026-04-24T09:48:39.983Z</time></trkpt><trkpt lat="42.621239889692966" lon="11.722550970669786"><ele>424.25</ele><time>2026-04-24T09:48:40.983Z</time></trkpt><trkpt lat="42.62128227347572" lon="11.722711390646959"><ele>424.0</ele><time>2026-04-24T09:48:41.983Z</time></trkpt><trkpt lat="42.621322376989184" lon="11.722873193674369"><ele>424.6</ele><time>2026-04-24T09:48:42.983Z</time></trkpt><trkpt lat="42.621364852280074" lon="11.723031474754595"><ele>425.2</ele><time>2026-04-24T09:48:43.983Z</time></trkpt><trkpt lat="42.62140513843808" lon="11.723170724275139"><ele>425.80000000000007</ele><time>2026-04-24T09:48:44.983Z</time></trkpt><trkpt lat="42.621450777128" lon="11.723285587455035"><ele>426.40000000000003</ele><time>2026-04-24T09:48:45.983Z</time></trkpt><trkpt lat="42.6215196887049" lon="11.723385440295333"><ele>427.0</ele><time>2026-04-24T09:48:46.983Z</time></trkpt><trkpt lat="42.62160143802356" lon="11.723474405572336"><ele>427.0</ele><time>2026-04-24T09:48:47.983Z</time></trkpt><trkpt lat="42.621707601603255" lon="11.723541743054462"><ele>427.0</ele><time>2026-04-24T09:48:48.983Z</time></trkpt><trkpt lat="42.621823026814766" lon="11.723610998408382"><ele>427.0</ele><time>2026-04-24T09:48:49.983Z</time></trkpt><trkpt lat="42.62194135715287" lon="11.723681432981264"><ele>427.0</ele><time>2026-04-24T09:48:50.983Z</time></trkpt><trkpt lat="42.62205848097727" lon="11.723783341541099"><ele>427.0</ele><time>2026-04-24T09:48:51.983Z</time></trkpt><trkpt lat="42.62218247593845" lon="11.723865754783292"><ele>427.0</ele><time>2026-04-24T09:48:52.983Z</time></trkpt><trkpt lat="42.622309019494125" lon="11.723943038932829"><ele>427.0</ele><time>2026-04-24T09:48:53.983Z</time></trkpt><trkpt lat="42.622436023817826" lon="11.724026132084674"><ele>427.0</ele><time>2026-04-24T09:48:54.983Z</time></trkpt><trkpt lat="42.62255511794389" lon="11.724108602385993"><ele>427.0</ele><time>2026-04-24T09:48:55.983Z</time></trkpt><trkpt lat="42.62267737980116" lon="11.724198375669166"><ele>427.0</ele><time>2026-04-24T09:48:56.983Z</time></trkpt><trkpt lat="42.62280949222495" lon="11.724297566214476"><ele>427.0</ele><time>2026-04-24T09:48:57.983Z</time></trkpt><trkpt lat="42.622940398596626" lon="11.724384842726897"><ele>427.0</ele><time>2026-04-24T09:48:58.983Z</time></trkpt><trkpt lat="42.62308639919484" lon="11.724478887530834"><ele>428.0</ele><time>2026-04-24T09:48:59.983Z</time></trkpt><trkpt lat="42.623208228661646" lon="11.72458259234645"><ele>429.0</ele><time>2026-04-24T09:49:00.983Z</time></trkpt><trkpt lat="42.623354986764085" lon="11.724675519377119"><ele>430.0</ele><time>2026-04-24T09:49:01.983Z</time></trkpt><trkpt lat="42.623506276196444" lon="11.724783075957355"><ele>431.5</ele><time>2026-04-24T09:49:02.983Z</time></trkpt><trkpt lat="42.62365459759535" lon="11.72489338751217"><ele>433.0</ele><time>2026-04-24T09:49:03.983Z</time></trkpt><trkpt lat="42.62375485577731" lon="11.724963076794054"><ele>434.5</ele><time>2026-04-24T09:49:04.983Z</time></trkpt><trkpt lat="42.623839230277675" lon="11.725030425071639"><ele>436.0</ele><time>2026-04-24T09:49:05.984Z</time></trkpt><trkpt lat="42.6239066015571" lon="11.725081305729462"><ele>436.0</ele><time>2026-04-24T09:49:06.984Z</time></trkpt><trkpt lat="42.62397278625433" lon="11.725139828117799"><ele>436.0</ele><time>2026-04-24T09:49:07.984Z</time></trkpt><trkpt lat="42.624071781270985" lon="11.725220705819424"><ele>436.0</ele><time>2026-04-24T09:49:09.984Z</time></trkpt><trkpt lat="42.62413835815038" lon="11.72528261527121"><ele>436.0</ele><time>2026-04-24T09:49:10.984Z</time></trkpt><trkpt lat="42.62423184712079" lon="11.725367556612218"><ele>436.0</ele><time>2026-04-24T09:49:11.984Z</time></trkpt><trkpt lat="42.62432781696604" lon="11.725465662174702"><ele>434.5</ele><time>2026-04-24T09:49:12.984Z</time></trkpt><trkpt lat="42.624424230177645" lon="11.725567596128071"><ele>433.0</ele><time>2026-04-24T09:49:13.984Z</time></trkpt><trkpt lat="42.624523388056005" lon="11.725669407482357"><ele>431.5</ele><time>2026-04-24T09:49:14.984Z</time></trkpt><trkpt lat="42.6246203005769" lon="11.725767607433378"><ele>430.0</ele><time>2026-04-24T09:49:15.984Z</time></trkpt><trkpt lat="42.62470615047027" lon="11.725864020177651"><ele>430.0</ele><time>2026-04-24T09:49:16.984Z</time></trkpt><trkpt lat="42.62479190587117" lon="11.725956121913118"><ele>430.0</ele><time>2026-04-24T09:49:17.984Z</time></trkpt><trkpt lat="42.62487705426749" lon="11.726031920507085"><ele>430.0</ele><time>2026-04-24T09:49:18.984Z</time></trkpt><trkpt lat="42.6249663414891" lon="11.72609911629634"><ele>430.0</ele><time>2026-04-24T09:49:19.984Z</time></trkpt><trkpt lat="42.625059648904" lon="11.726144506630835"><ele>430.0</ele><time>2026-04-24T09:49:20.984Z</time></trkpt><trkpt lat="42.62516351789879" lon="11.726184419114647"><ele>430.25</ele><time>2026-04-24T09:49:21.984Z</time></trkpt><trkpt lat="42.6252681688854" lon="11.72620320470387"><ele>430.5</ele><time>2026-04-24T09:49:22.984Z</time></trkpt><trkpt lat="42.625381962175084" lon="11.726227760525191"><ele>430.75</ele><time>2026-04-24T09:49:23.984Z</time></trkpt><trkpt lat="42.62549373497259" lon="11.726261796106002"><ele>431.0</ele><time>2026-04-24T09:49:24.984Z</time></trkpt><trkpt lat="42.625605645518284" lon="11.726307390217778"><ele>431.0</ele><time>2026-04-24T09:49:25.984Z</time></trkpt><trkpt lat="42.62571167274869" lon="11.726344905586691"><ele>431.0</ele><time>2026-04-24T09:49:26.984Z</time></trkpt><trkpt lat="42.6258166075971" lon="11.726376253014575"><ele>431.0</ele><time>2026-04-24T09:49:27.984Z</time></trkpt><trkpt lat="42.62592061879853" lon="11.726415531800285"><ele>431.0</ele><time>2026-04-24T09:49:28.984Z</time></trkpt><trkpt lat="42.62601607184191" lon="11.726457556178607"><ele>431.0</ele><time>2026-04-24T09:49:29.984Z</time></trkpt><trkpt lat="42.62610798901097" lon="11.726490319011708"><ele>430.3333333333333</ele><time>2026-04-24T09:49:30.984Z</time></trkpt><trkpt lat="42.626195193771196" lon="11.726514760869387"><ele>429.66666666666663</ele><time>2026-04-24T09:49:31.984Z</time></trkpt><trkpt lat="42.62627334335412" lon="11.726515043907247"><ele>429.0</ele><time>2026-04-24T09:49:32.984Z</time></trkpt><trkpt lat="42.62634363446922" lon="11.726476897380833"><ele>428.33333333333337</ele><time>2026-04-24T09:49:33.984Z</time></trkpt><trkpt lat="42.626407662311415" lon="11.726406258457146"><ele>427.6666666666667</ele><time>2026-04-24T09:49:34.984Z</time></trkpt><trkpt lat="42.6264835087002" lon="11.726311235092776"><ele>427.0</ele><time>2026-04-24T09:49:35.984Z</time></trkpt><trkpt lat="42.626553620199225" lon="11.726199704233089"><ele>427.0</ele><time>2026-04-24T09:49:36.984Z</time></trkpt><trkpt lat="42.62662707372868" lon="11.726075748429885"><ele>427.0</ele><time>2026-04-24T09:49:37.984Z</time></trkpt><trkpt lat="42.626703297226726" lon="11.725941393420788"><ele>427.0</ele><time>2026-04-24T09:49:38.984Z</time></trkpt><trkpt lat="42.626777703918876" lon="11.725800555639916"><ele>427.0</ele><time>2026-04-24T09:49:39.984Z</time></trkpt><trkpt lat="42.62684916856277" lon="11.725661608348735"><ele>427.00000000000006</ele><time>2026-04-24T09:49:40.984Z</time></trkpt><trkpt lat="42.626920566361655" lon="11.725546845236007"><ele>427.0</ele><time>2026-04-24T09:49:41.984Z</time></trkpt><trkpt lat="42.626988312343244" lon="11.725451467649721"><ele>427.0</ele><time>2026-04-24T09:49:42.984Z</time></trkpt><trkpt lat="42.62704806112615" lon="11.725365596345373"><ele>427.0</ele><time>2026-04-24T09:49:43.984Z</time></trkpt><trkpt lat="42.62709276414207" lon="11.72528242662989"><ele>427.00000000000006</ele><time>2026-04-24T09:49:44.984Z</time></trkpt><trkpt lat="42.62713915294643" lon="11.725208743913688"><ele>427.0</ele><time>2026-04-24T09:49:45.984Z</time></trkpt><trkpt lat="42.62719701979562" lon="11.725053538826993"><ele>427.6666666666667</ele><time>2026-04-24T09:49:47.984Z</time></trkpt><trkpt lat="42.62719476145029" lon="11.72496087748089"><ele>428.33333333333337</ele><time>2026-04-24T09:49:48.984Z</time></trkpt><trkpt lat="42.62718647625634" lon="11.72487449514753"><ele>429.0</ele><time>2026-04-24T09:49:49.984Z</time></trkpt><trkpt lat="42.62715222075761" lon="11.724779466740314"><ele>429.66666666666663</ele><time>2026-04-24T09:49:50.984Z</time></trkpt><trkpt lat="42.62713854229928" lon="11.724677495420138"><ele>430.3333333333333</ele><time>2026-04-24T09:49:51.984Z</time></trkpt><trkpt lat="42.62712250522594" lon="11.724547248599295"><ele>431.0</ele><time>2026-04-24T09:49:52.984Z</time></trkpt><trkpt lat="42.62711071630611" lon="11.724420804961268"><ele>430.66666666666663</ele><time>2026-04-24T09:49:53.984Z</time></trkpt><trkpt lat="42.627109005444304" lon="11.724291311378181"><ele>430.3333333333333</ele><time>2026-04-24T09:49:54.984Z</time></trkpt><trkpt lat="42.62712230727828" lon="11.724158339953615"><ele>430.0</ele><time>2026-04-24T09:49:55.984Z</time></trkpt><trkpt lat="42.62717483717513" lon="11.724017150511472"><ele>429.66666666666663</ele><time>2026-04-24T09:49:56.984Z</time></trkpt><trkpt lat="42.627205386334" lon="11.72393217281"><ele>429.3333333333333</ele><time>2026-04-24T09:49:57.984Z</time></trkpt><trkpt lat="42.627239982257635" lon="11.723851265042665"><ele>429.0</ele><time>2026-04-24T09:49:58.984Z</time></trkpt><trkpt lat="42.62725173549891" lon="11.723743559790222"><ele>429.0</ele><time>2026-04-24T09:49:59.984Z</time></trkpt><trkpt lat="42.62723251372904" lon="11.723626419944503"><ele>429.0</ele><time>2026-04-24T09:50:00.984Z</time></trkpt><trkpt lat="42.627223357903134" lon="11.723489926870226"><ele>429.0</ele><time>2026-04-24T09:50:01.984Z</time></trkpt><trkpt lat="42.62723760992082" lon="11.723345830940312"><ele>429.0</ele><time>2026-04-24T09:50:02.984Z</time></trkpt><trkpt lat="42.62722761752841" lon="11.723194462816998"><ele>429.0</ele><time>2026-04-24T09:50:03.984Z</time></trkpt><trkpt lat="42.62724170368543" lon="11.72304922398719"><ele>428.79999999999995</ele><time>2026-04-24T09:50:04.984Z</time></trkpt><trkpt lat="42.6272565632248" lon="11.722899888802196"><ele>428.59999999999997</ele><time>2026-04-24T09:50:05.984Z</time></trkpt><trkpt lat="42.62726688723371" lon="11.722758504063842"><ele>428.4</ele><time>2026-04-24T09:50:06.984Z</time></trkpt><trkpt lat="42.62728025824554" lon="11.722617152254527"><ele>428.2</ele><time>2026-04-24T09:50:07.984Z</time></trkpt><trkpt lat="42.62728048796766" lon="11.722503304632331"><ele>428.0</ele><time>2026-04-24T09:50:08.984Z</time></trkpt><trkpt lat="42.62728995994069" lon="11.722410137822106"><ele>427.99999999999994</ele><time>2026-04-24T09:50:09.984Z</time></trkpt><trkpt lat="42.62729329605025" lon="11.722285056258682"><ele>428.0</ele><time>2026-04-24T09:50:11.984Z</time></trkpt><trkpt lat="42.627268712851915" lon="11.722395776363285"><ele>428.0</ele><time>2026-04-24T09:52:26.983Z</time></trkpt><trkpt lat="42.627252482422605" lon="11.72250042170122"><ele>428.0</ele><time>2026-04-24T09:52:28.983Z</time></trkpt><trkpt lat="42.62724357256983" lon="11.722668971344847"><ele>427.99999999999994</ele><time>2026-04-24T09:52:30.983Z</time></trkpt><trkpt lat="42.62724823990871" lon="11.722760855757173"><ele>428.0</ele><time>2026-04-24T09:52:31.983Z</time></trkpt><trkpt lat="42.62721543939027" lon="11.722946837486115"><ele>428.2</ele><time>2026-04-24T09:52:32.983Z</time></trkpt><trkpt lat="42.62720236691597" lon="11.723091643875224"><ele>428.4</ele><time>2026-04-24T09:52:33.983Z</time></trkpt><trkpt lat="42.6271953631488" lon="11.723248437368385"><ele>428.59999999999997</ele><time>2026-04-24T09:52:34.983Z</time></trkpt><trkpt lat="42.627162297498664" lon="11.723390593633438"><ele>428.79999999999995</ele><time>2026-04-24T09:52:35.983Z</time></trkpt><trkpt lat="42.62715736009635" lon="11.723526362827897"><ele>429.0</ele><time>2026-04-24T09:52:36.98Z</time></trkpt><trkpt lat="42.62716492515171" lon="11.723618205500147"><ele>429.0</ele><time>2026-04-24T09:52:37.981Z</time></trkpt><trkpt lat="42.62717994150485" lon="11.723702558311036"><ele>429.0</ele><time>2026-04-24T09:52:38.981Z</time></trkpt><trkpt lat="42.62717553776837" lon="11.723820967707063"><ele>429.0</ele><time>2026-04-24T09:52:40.981Z</time></trkpt><trkpt lat="42.62714334436846" lon="11.723981192889394"><ele>429.0</ele><time>2026-04-24T09:52:42.981Z</time></trkpt><trkpt lat="42.62709179969813" lon="11.724082783066121"><ele>429.0</ele><time>2026-04-24T09:52:43.98Z</time></trkpt><trkpt lat="42.627068835522046" lon="11.724198131933887"><ele>429.0</ele><time>2026-04-24T09:52:44.98Z</time></trkpt><trkpt lat="42.62704812583129" lon="11.724280880882082"><ele>429.0</ele><time>2026-04-24T09:52:45.98Z</time></trkpt><trkpt lat="42.627029882152925" lon="11.724384106188202"><ele>429.0</ele><time>2026-04-24T09:52:46.98Z</time></trkpt><trkpt lat="42.62704950397612" lon="11.724504179119759"><ele>429.0</ele><time>2026-04-24T09:52:47.98Z</time></trkpt><trkpt lat="42.62706032349544" lon="11.72459227080341"><ele>429.0</ele><time>2026-04-24T09:52:48.98Z</time></trkpt><trkpt lat="42.62706432437658" lon="11.72475128683727"><ele>429.0</ele><time>2026-04-24T09:52:50.981Z</time></trkpt><trkpt lat="42.627113317372554" lon="11.724854813480798"><ele>429.4</ele><time>2026-04-24T09:52:52.981Z</time></trkpt><trkpt lat="42.62712272794341" lon="11.725028951919874"><ele>429.79999999999995</ele><time>2026-04-24T09:52:54.981Z</time></trkpt><trkpt lat="42.627110880645205" lon="11.72514475573604"><ele>430.20000000000005</ele><time>2026-04-24T09:52:55.981Z</time></trkpt><trkpt lat="42.62704887426746" lon="11.725266058736764"><ele>430.6</ele><time>2026-04-24T09:52:56.981Z</time></trkpt><trkpt lat="42.62696714543826" lon="11.725396431082471"><ele>431.0</ele><time>2026-04-24T09:52:57.981Z</time></trkpt><trkpt lat="42.626891738243934" lon="11.725496026423603"><ele>430.0</ele><time>2026-04-24T09:52:58.981Z</time></trkpt><trkpt lat="42.626814582883355" lon="11.725609855586292"><ele>429.0</ele><time>2026-04-24T09:52:59.981Z</time></trkpt><trkpt lat="42.6267343712343" lon="11.725724842498542"><ele>428.0</ele><time>2026-04-24T09:53:00.981Z</time></trkpt><trkpt lat="42.626662612611206" lon="11.725868350023777"><ele>427.0</ele><time>2026-04-24T09:53:01.981Z</time></trkpt><trkpt lat="42.626594633135156" lon="11.72600964926016"><ele>427.0</ele><time>2026-04-24T09:53:02.981Z</time></trkpt><trkpt lat="42.626527464733826" lon="11.726132431784311"><ele>427.00000000000006</ele><time>2026-04-24T09:53:03.981Z</time></trkpt><trkpt lat="42.62645611116066" lon="11.726238749913124"><ele>427.00000000000006</ele><time>2026-04-24T09:53:04.981Z</time></trkpt><trkpt lat="42.62638792160417" lon="11.72633625572336"><ele>427.0</ele><time>2026-04-24T09:53:05.981Z</time></trkpt><trkpt lat="42.62632122256603" lon="11.726412347546015"><ele>427.0</ele><time>2026-04-24T09:53:06.981Z</time></trkpt><trkpt lat="42.62623997331929" lon="11.726471664219451"><ele>427.0</ele><time>2026-04-24T09:53:07.981Z</time></trkpt><trkpt lat="42.62615206207952" lon="11.72647358332652"><ele>427.00000000000006</ele><time>2026-04-24T09:53:08.981Z</time></trkpt><trkpt lat="42.626069361500214" lon="11.726448569403429"><ele>427.00000000000006</ele><time>2026-04-24T09:53:09.981Z</time></trkpt><trkpt lat="42.62597461569265" lon="11.726430162262465"><ele>427.0</ele><time>2026-04-24T09:53:10.981Z</time></trkpt><trkpt lat="42.62585392987993" lon="11.726363852973646"><ele>427.0</ele><time>2026-04-24T09:53:11.981Z</time></trkpt><trkpt lat="42.6257328534729" lon="11.726310808098834"><ele>427.8</ele><time>2026-04-24T09:53:12.981Z</time></trkpt><trkpt lat="42.62561469066281" lon="11.726260477143207"><ele>428.6</ele><time>2026-04-24T09:53:13.981Z</time></trkpt><trkpt lat="42.625500169932295" lon="11.72622819932514"><ele>429.40000000000003</ele><time>2026-04-24T09:53:14.981Z</time></trkpt><trkpt lat="42.625398977240486" lon="11.726201283849237"><ele>430.20000000000005</ele><time>2026-04-24T09:53:15.981Z</time></trkpt><trkpt lat="42.625307212252125" lon="11.726167933242149"><ele>431.0</ele><time>2026-04-24T09:53:16.981Z</time></trkpt><trkpt lat="42.62522303350126" lon="11.726142190040973"><ele>431.4</ele><time>2026-04-24T09:53:17.981Z</time></trkpt><trkpt lat="42.62513525458805" lon="11.726115368658517"><ele>431.8</ele><time>2026-04-24T09:53:19.981Z</time></trkpt><trkpt lat="42.6251648980703" lon="11.726283709646033"><ele>432.19999999999993</ele><time>2026-04-24T09:53:24.981Z</time></trkpt><trkpt lat="42.62520711073533" lon="11.726439970574525"><ele>432.59999999999997</ele><time>2026-04-24T09:53:26.981Z</time></trkpt><trkpt lat="42.62524080209588" lon="11.726552707569786"><ele>433.0</ele><time>2026-04-24T09:53:27.981Z</time></trkpt><trkpt lat="42.625269227868074" lon="11.726651216477"><ele>432.59999999999997</ele><time>2026-04-24T09:53:28.981Z</time></trkpt><trkpt lat="42.6253143974669" lon="11.726773575205398"><ele>432.19999999999993</ele><time>2026-04-24T09:53:29.981Z</time></trkpt><trkpt lat="42.62536139544803" lon="11.72691787431712"><ele>431.8</ele><time>2026-04-24T09:53:30.981Z</time></trkpt><trkpt lat="42.625381824276126" lon="11.72705696353411"><ele>431.4</ele><time>2026-04-24T09:53:31.981Z</time></trkpt><trkpt lat="42.62541954638091" lon="11.727191637546555"><ele>431.0</ele><time>2026-04-24T09:53:32.981Z</time></trkpt><trkpt lat="42.62545685661472" lon="11.727331502836615"><ele>433.25</ele><time>2026-04-24T09:53:33.981Z</time></trkpt><trkpt lat="42.62549730807758" lon="11.72748354802792"><ele>435.5</ele><time>2026-04-24T09:53:34.981Z</time></trkpt><trkpt lat="42.62553253756274" lon="11.727645126149149"><ele>437.75</ele><time>2026-04-24T09:53:35.981Z</time></trkpt><trkpt lat="42.62556692866131" lon="11.727816091611317"><ele>440.0</ele><time>2026-04-24T09:53:36.981Z</time></trkpt><trkpt lat="42.62559245335371" lon="11.728001279527302"><ele>441.75</ele><time>2026-04-24T09:53:37.981Z</time></trkpt><trkpt lat="42.625614648484415" lon="11.728174796169718"><ele>443.5</ele><time>2026-04-24T09:53:38.981Z</time></trkpt><trkpt lat="42.625638730635565" lon="11.728339357168387"><ele>445.25</ele><time>2026-04-24T09:53:39.981Z</time></trkpt><trkpt lat="42.625660217195545" lon="11.72851020343642"><ele>447.0</ele><time>2026-04-24T09:53:40.981Z</time></trkpt><trkpt lat="42.625680064083596" lon="11.728694939201311"><ele>447.75</ele><time>2026-04-24T09:53:41.981Z</time></trkpt><trkpt lat="42.625694463272055" lon="11.728886958951097"><ele>448.5</ele><time>2026-04-24T09:53:42.981Z</time></trkpt><trkpt lat="42.62572529850517" lon="11.729091508290304"><ele>449.25</ele><time>2026-04-24T09:53:43.981Z</time></trkpt><trkpt lat="42.62574399693998" lon="11.729291103788944"><ele>450.0</ele><time>2026-04-24T09:53:44.981Z</time></trkpt><trkpt lat="42.625759732171126" lon="11.729495272976935"><ele>451.0</ele><time>2026-04-24T09:53:45.981Z</time></trkpt><trkpt lat="42.625784177039996" lon="11.729699437654771"><ele>452.0</ele><time>2026-04-24T09:53:46.981Z</time></trkpt><trkpt lat="42.625816226465645" lon="11.729904482352321"><ele>453.0</ele><time>2026-04-24T09:53:47.981Z</time></trkpt><trkpt lat="42.62584442575807" lon="11.730101482366127"><ele>453.33333333333337</ele><time>2026-04-24T09:53:48.981Z</time></trkpt><trkpt lat="42.625877995794255" lon="11.73031458674134"><ele>453.6666666666667</ele><time>2026-04-24T09:53:49.981Z</time></trkpt><trkpt lat="42.62590622968941" lon="11.730524287700405"><ele>454.0</ele><time>2026-04-24T09:53:50.981Z</time></trkpt><trkpt lat="42.625932644496594" lon="11.730726322828865"><ele>454.0</ele><time>2026-04-24T09:53:51.981Z</time></trkpt><trkpt lat="42.62595706962385" lon="11.730921740377097"><ele>454.0</ele><time>2026-04-24T09:53:52.981Z</time></trkpt><trkpt lat="42.62597293640007" lon="11.731132060745727"><ele>454.0</ele><time>2026-04-24T09:53:53.981Z</time></trkpt><trkpt lat="42.62595376906069" lon="11.731344304961032"><ele>455.0</ele><time>2026-04-24T09:53:54.981Z</time></trkpt><trkpt lat="42.62593362658934" lon="11.731563968189663"><ele>456.0</ele><time>2026-04-24T09:53:55.981Z</time></trkpt><trkpt lat="42.62591175461185" lon="11.731789185370387"><ele>457.0</ele><time>2026-04-24T09:53:56.981Z</time></trkpt><trkpt lat="42.625906653360786" lon="11.732006785715143"><ele>459.0</ele><time>2026-04-24T09:53:57.981Z</time></trkpt><trkpt lat="42.62588410591661" lon="11.732232775085972"><ele>461.0</ele><time>2026-04-24T09:53:58.981Z</time></trkpt><trkpt lat="42.62585990686875" lon="11.732464603482748"><ele>463.0</ele><time>2026-04-24T09:53:59.981Z</time></trkpt><trkpt lat="42.625839110696" lon="11.732695779709415"><ele>464.0</ele><time>2026-04-24T09:54:00.981Z</time></trkpt><trkpt lat="42.625822237983435" lon="11.732927075595311"><ele>465.0</ele><time>2026-04-24T09:54:01.981Z</time></trkpt><trkpt lat="42.62580283314301" lon="11.733150132079773"><ele>466.0</ele><time>2026-04-24T09:54:02.981Z</time></trkpt><trkpt lat="42.62578175483716" lon="11.733362231697182"><ele>466.0</ele><time>2026-04-24T09:54:03.981Z</time></trkpt><trkpt lat="42.62575931794171" lon="11.733560740671951"><ele>466.0</ele><time>2026-04-24T09:54:04.981Z</time></trkpt><trkpt lat="42.62574068908975" lon="11.733754583223867"><ele>466.0</ele><time>2026-04-24T09:54:05.981Z</time></trkpt><trkpt lat="42.625731802471954" lon="11.733926506637212"><ele>466.0</ele><time>2026-04-24T09:54:06.981Z</time></trkpt><trkpt lat="42.62572952987288" lon="11.73410752119532"><ele>466.0</ele><time>2026-04-24T09:54:07.982Z</time></trkpt><trkpt lat="42.62573635947065" lon="11.734285722192416"><ele>466.0</ele><time>2026-04-24T09:54:08.982Z</time></trkpt><trkpt lat="42.62574480997451" lon="11.73447358037704"><ele>466.0</ele><time>2026-04-24T09:54:09.982Z</time></trkpt><trkpt lat="42.62574647355089" lon="11.734655799368342"><ele>466.0</ele><time>2026-04-24T09:54:10.982Z</time></trkpt><trkpt lat="42.62574420069496" lon="11.734828757968577"><ele>465.75</ele><time>2026-04-24T09:54:11.982Z</time></trkpt><trkpt lat="42.6257476437715" lon="11.73500387413347"><ele>465.5</ele><time>2026-04-24T09:54:12.982Z</time></trkpt><trkpt lat="42.62573192522349" lon="11.735174744424294"><ele>465.25</ele><time>2026-04-24T09:54:13.982Z</time></trkpt><trkpt lat="42.625735900575705" lon="11.735340155909256"><ele>465.0</ele><time>2026-04-24T09:54:14.982Z</time></trkpt><trkpt lat="42.62574425247716" lon="11.735499624543348"><ele>465.0</ele><time>2026-04-24T09:54:15.982Z</time></trkpt><trkpt lat="42.62574814869027" lon="11.73565159116507"><ele>465.0</ele><time>2026-04-24T09:54:16.982Z</time></trkpt><trkpt lat="42.62573771935803" lon="11.735804578626958"><ele>465.0</ele><time>2026-04-24T09:54:17.982Z</time></trkpt><trkpt lat="42.62571746714469" lon="11.735952543026412"><ele>465.0</ele><time>2026-04-24T09:54:18.982Z</time></trkpt><trkpt lat="42.62568807022293" lon="11.736082898679053"><ele>465.0</ele><time>2026-04-24T09:54:19.982Z</time></trkpt><trkpt lat="42.625653019137275" lon="11.73622656600543"><ele>465.0</ele><time>2026-04-24T09:54:20.982Z</time></trkpt><trkpt lat="42.62561738475411" lon="11.736371666057986"><ele>465.0</ele><time>2026-04-24T09:54:21.982Z</time></trkpt><trkpt lat="42.62560889991586" lon="11.736515138162607"><ele>465.0</ele><time>2026-04-24T09:54:22.982Z</time></trkpt><trkpt lat="42.6256054412198" lon="11.736660950357203"><ele>465.0</ele><time>2026-04-24T09:54:23.982Z</time></trkpt><trkpt lat="42.62560631343551" lon="11.73681459351628"><ele>465.0</ele><time>2026-04-24T09:54:24.982Z</time></trkpt><trkpt lat="42.625606683833055" lon="11.736975809722686"><ele>464.5</ele><time>2026-04-24T09:54:25.982Z</time></trkpt><trkpt lat="42.625602485160954" lon="11.7371474016237"><ele>464.0</ele><time>2026-04-24T09:54:26.982Z</time></trkpt><trkpt lat="42.62558673105494" lon="11.737323550964994"><ele>463.5</ele><time>2026-04-24T09:54:27.982Z</time></trkpt><trkpt lat="42.62556994373622" lon="11.73750314040668"><ele>463.0</ele><time>2026-04-24T09:54:28.982Z</time></trkpt><trkpt lat="42.62554278468659" lon="11.73769364221546"><ele>464.0</ele><time>2026-04-24T09:54:29.982Z</time></trkpt><trkpt lat="42.62551139995518" lon="11.737877880174278"><ele>465.0</ele><time>2026-04-24T09:54:30.982Z</time></trkpt><trkpt lat="42.625484479944795" lon="11.73806410041107"><ele>466.0</ele><time>2026-04-24T09:54:31.982Z</time></trkpt><trkpt lat="42.6254443968086" lon="11.738219119469822"><ele>467.0</ele><time>2026-04-24T09:54:32.982Z</time></trkpt><trkpt lat="42.62542823464035" lon="11.738390519521289"><ele>467.5</ele><time>2026-04-24T09:54:33.982Z</time></trkpt><trkpt lat="42.625429471456364" lon="11.738560002211086"><ele>468.0</ele><time>2026-04-24T09:54:34.982Z</time></trkpt><trkpt lat="42.625441097389896" lon="11.738715262004819"><ele>468.5</ele><time>2026-04-24T09:54:35.982Z</time></trkpt><trkpt lat="42.62545813937755" lon="11.738875920474413"><ele>469.0</ele><time>2026-04-24T09:54:36.982Z</time></trkpt><trkpt lat="42.625454096448365" lon="11.739046038393639"><ele>469.0</ele><time>2026-04-24T09:54:37.982Z</time></trkpt><trkpt lat="42.6254183551215" lon="11.73921142872961"><ele>469.0</ele><time>2026-04-24T09:54:38.982Z</time></trkpt><trkpt lat="42.625365773080404" lon="11.739369269395787"><ele>469.0</ele><time>2026-04-24T09:54:39.982Z</time></trkpt><trkpt lat="42.625307926062675" lon="11.739533396075773"><ele>469.0</ele><time>2026-04-24T09:54:40.982Z</time></trkpt><trkpt lat="42.62525001858544" lon="11.739692839018652"><ele>469.25</ele><time>2026-04-24T09:54:41.982Z</time></trkpt><trkpt lat="42.62519300085744" lon="11.739851467118735"><ele>469.5</ele><time>2026-04-24T09:54:42.979Z</time></trkpt><trkpt lat="42.6251442265767" lon="11.74001800069515"><ele>469.75</ele><time>2026-04-24T09:54:43.98Z</time></trkpt><trkpt lat="42.62510810636494" lon="11.740181940216473"><ele>470.0</ele><time>2026-04-24T09:54:44.98Z</time></trkpt><trkpt lat="42.62508728333777" lon="11.740361366336892"><ele>470.5</ele><time>2026-04-24T09:54:45.979Z</time></trkpt><trkpt lat="42.62507953044458" lon="11.740532972647157"><ele>471.0</ele><time>2026-04-24T09:54:46.979Z</time></trkpt><trkpt lat="42.62507042993373" lon="11.740700815160467"><ele>471.5</ele><time>2026-04-24T09:54:47.979Z</time></trkpt><trkpt lat="42.625040538725116" lon="11.740858001150372"><ele>472.0</ele><time>2026-04-24T09:54:48.979Z</time></trkpt><trkpt lat="42.62499342622617" lon="11.741014151891317"><ele>471.33333333333337</ele><time>2026-04-24T09:54:49.98Z</time></trkpt><trkpt lat="42.624937626243344" lon="11.741189390039862"><ele>470.66666666666663</ele><time>2026-04-24T09:54:50.98Z</time></trkpt><trkpt lat="42.62488606678016" lon="11.74138918164032"><ele>470.0</ele><time>2026-04-24T09:54:51.98Z</time></trkpt><trkpt lat="42.62483286258799" lon="11.741586560690838"><ele>470.0</ele><time>2026-04-24T09:54:52.98Z</time></trkpt><trkpt lat="42.624763227492735" lon="11.741763181238408"><ele>470.0</ele><time>2026-04-24T09:54:53.98Z</time></trkpt><trkpt lat="42.6247136919769" lon="11.74195816173656"><ele>470.0</ele><time>2026-04-24T09:54:54.98Z</time></trkpt><trkpt lat="42.62466346394544" lon="11.742163886934303"><ele>469.66666666666663</ele><time>2026-04-24T09:54:55.98Z</time></trkpt><trkpt lat="42.624607512505385" lon="11.742367357874995"><ele>469.33333333333337</ele><time>2026-04-24T09:54:56.98Z</time></trkpt><trkpt lat="42.624554330070715" lon="11.742572896632113"><ele>469.0</ele><time>2026-04-24T09:54:57.98Z</time></trkpt><trkpt lat="42.62451071011803" lon="11.742775871998907"><ele>469.6666666666667</ele><time>2026-04-24T09:54:58.98Z</time></trkpt><trkpt lat="42.62447149366156" lon="11.742986090916194"><ele>470.33333333333337</ele><time>2026-04-24T09:54:59.98Z</time></trkpt><trkpt lat="42.624431901798744" lon="11.743200752790894"><ele>471.0</ele><time>2026-04-24T09:55:00.98Z</time></trkpt><trkpt lat="42.62438976836048" lon="11.743407753713644"><ele>471.33333333333337</ele><time>2026-04-24T09:55:01.98Z</time></trkpt><trkpt lat="42.62434348465376" lon="11.743615369468293"><ele>471.6666666666667</ele><time>2026-04-24T09:55:02.98Z</time></trkpt><trkpt lat="42.62429843915769" lon="11.743816069782248"><ele>472.0</ele><time>2026-04-24T09:55:03.98Z</time></trkpt><trkpt lat="42.624257772426375" lon="11.744017636550712"><ele>472.0</ele><time>2026-04-24T09:55:04.98Z</time></trkpt><trkpt lat="42.624219359510775" lon="11.744221248905061"><ele>472.0</ele><time>2026-04-24T09:55:05.98Z</time></trkpt><trkpt lat="42.62418680802891" lon="11.744427596469968"><ele>472.0</ele><time>2026-04-24T09:55:06.98Z</time></trkpt><trkpt lat="42.62414926241221" lon="11.744625844280616"><ele>473.0</ele><time>2026-04-24T09:55:07.98Z</time></trkpt><trkpt lat="42.62411885966465" lon="11.744802840222665"><ele>474.0</ele><time>2026-04-24T09:55:08.98Z</time></trkpt><trkpt lat="42.624100352054874" lon="11.74498848558208"><ele>475.0</ele><time>2026-04-24T09:55:09.98Z</time></trkpt><trkpt lat="42.624088573285555" lon="11.74518946235224"><ele>476.0</ele><time>2026-04-24T09:55:10.98Z</time></trkpt><trkpt lat="42.624039518017874" lon="11.745371633035779"><ele>476.0</ele><time>2026-04-24T09:55:11.98Z</time></trkpt><trkpt lat="42.62399300157796" lon="11.745543298901914"><ele>476.0</ele><time>2026-04-24T09:55:12.98Z</time></trkpt><trkpt lat="42.62394763886011" lon="11.745709495303462"><ele>476.0</ele><time>2026-04-24T09:55:13.98Z</time></trkpt><trkpt lat="42.62389612626776" lon="11.745867868332827"><ele>476.0</ele><time>2026-04-24T09:55:14.98Z</time></trkpt><trkpt lat="42.623838693983345" lon="11.745999534567515"><ele>475.8</ele><time>2026-04-24T09:55:15.98Z</time></trkpt><trkpt lat="42.62377459366416" lon="11.746101260367288"><ele>475.6</ele><time>2026-04-24T09:55:16.98Z</time></trkpt><trkpt lat="42.6237283445874" lon="11.746185007835196"><ele>475.4</ele><time>2026-04-24T09:55:17.98Z</time></trkpt><trkpt lat="42.62365194278334" lon="11.746326642023067"><ele>475.2</ele><time>2026-04-24T09:55:19.98Z</time></trkpt><trkpt lat="42.62360903091431" lon="11.74640081619191"><ele>475.0</ele><time>2026-04-24T09:55:20.98Z</time></trkpt><trkpt lat="42.623555137473865" lon="11.74649397206671"><ele>476.0</ele><time>2026-04-24T09:55:21.98Z</time></trkpt><trkpt lat="42.62349176291081" lon="11.746598776422292"><ele>477.0</ele><time>2026-04-24T09:55:22.98Z</time></trkpt><trkpt lat="42.62342591073423" lon="11.746707361303896"><ele>478.0</ele><time>2026-04-24T09:55:23.98Z</time></trkpt><trkpt lat="42.62335791619173" lon="11.74679978212081"><ele>479.0</ele><time>2026-04-24T09:55:24.98Z</time></trkpt><trkpt lat="42.623284482043886" lon="11.746921228451216"><ele>480.0</ele><time>2026-04-24T09:55:25.98Z</time></trkpt><trkpt lat="42.623211203002185" lon="11.747036585577128"><ele>480.75</ele><time>2026-04-24T09:55:26.98Z</time></trkpt><trkpt lat="42.6231334116885" lon="11.747166807832095"><ele>481.5</ele><time>2026-04-24T09:55:27.98Z</time></trkpt><trkpt lat="42.623054116451534" lon="11.747291714928393"><ele>482.25</ele><time>2026-04-24T09:55:28.98Z</time></trkpt><trkpt lat="42.622975501547984" lon="11.747408032663577"><ele>483.0</ele><time>2026-04-24T09:55:29.98Z</time></trkpt><trkpt lat="42.62290308408559" lon="11.747527537650445"><ele>483.0</ele><time>2026-04-24T09:55:30.98Z</time></trkpt><trkpt lat="42.62283864753073" lon="11.747636156258388"><ele>482.99999999999994</ele><time>2026-04-24T09:55:31.98Z</time></trkpt><trkpt lat="42.62277550220913" lon="11.747741306492085"><ele>482.99999999999994</ele><time>2026-04-24T09:55:32.98Z</time></trkpt><trkpt lat="42.62271318165329" lon="11.74784792025444"><ele>483.0</ele><time>2026-04-24T09:55:33.98Z</time></trkpt><trkpt lat="42.622653823000825" lon="11.747950717697597"><ele>483.0</ele><time>2026-04-24T09:55:34.98Z</time></trkpt><trkpt lat="42.62258529111491" lon="11.748053154981388"><ele>482.6666666666667</ele><time>2026-04-24T09:55:35.98Z</time></trkpt><trkpt lat="42.62252656834184" lon="11.748135386324398"><ele>482.33333333333337</ele><time>2026-04-24T09:55:36.98Z</time></trkpt><trkpt lat="42.62245859844244" lon="11.748224709592797"><ele>482.0</ele><time>2026-04-24T09:55:37.98Z</time></trkpt><trkpt lat="42.62240828066852" lon="11.748309703820686"><ele>481.6666666666667</ele><time>2026-04-24T09:55:38.98Z</time></trkpt><trkpt lat="42.6223589607225" lon="11.748394718351427"><ele>481.33333333333337</ele><time>2026-04-24T09:55:39.98Z</time></trkpt><trkpt lat="42.622312857009646" lon="11.74848236031458"><ele>481.0</ele><time>2026-04-24T09:55:40.98Z</time></trkpt><trkpt lat="42.62226858523785" lon="11.748593028316504"><ele>480.4</ele><time>2026-04-24T09:55:41.98Z</time></trkpt><trkpt lat="42.62223740507515" lon="11.74871295762914"><ele>479.8</ele><time>2026-04-24T09:55:42.98Z</time></trkpt><trkpt lat="42.6221781618532" lon="11.74881661473818"><ele>479.19999999999993</ele><time>2026-04-24T09:55:43.98Z</time></trkpt><trkpt lat="42.622124129046234" lon="11.74892779062792"><ele>478.59999999999997</ele><time>2026-04-24T09:55:44.98Z</time></trkpt><trkpt lat="42.622072300742104" lon="11.749045547436152"><ele>478.0</ele><time>2026-04-24T09:55:45.98Z</time></trkpt><trkpt lat="42.622020400774865" lon="11.749172370579474"><ele>477.2</ele><time>2026-04-24T09:55:46.98Z</time></trkpt><trkpt lat="42.621972045487006" lon="11.749297898283196"><ele>476.4</ele><time>2026-04-24T09:55:47.98Z</time></trkpt><trkpt lat="42.62193187430119" lon="11.749411509932767"><ele>475.59999999999997</ele><time>2026-04-24T09:55:48.98Z</time></trkpt><trkpt lat="42.62189884345276" lon="11.749553459202039"><ele>474.79999999999995</ele><time>2026-04-24T09:55:49.98Z</time></trkpt><trkpt lat="42.62186974374996" lon="11.749697580017813"><ele>474.0</ele><time>2026-04-24T09:55:50.98Z</time></trkpt><trkpt lat="42.62183618645044" lon="11.749832068906633"><ele>473.25</ele><time>2026-04-24T09:55:51.98Z</time></trkpt><trkpt lat="42.62179217791851" lon="11.749967608458407"><ele>472.5</ele><time>2026-04-24T09:55:52.98Z</time></trkpt><trkpt lat="42.62172853771871" lon="11.750107686440446"><ele>471.75</ele><time>2026-04-24T09:55:53.98Z</time></trkpt><trkpt lat="42.62166516726069" lon="11.750244552112859"><ele>471.0</ele><time>2026-04-24T09:55:54.98Z</time></trkpt><trkpt lat="42.62161647703193" lon="11.750374950747625"><ele>470.8571428571429</ele><time>2026-04-24T09:55:55.98Z</time></trkpt><trkpt lat="42.62157196788433" lon="11.750486899647099"><ele>470.7142857142857</ele><time>2026-04-24T09:55:56.98Z</time></trkpt><trkpt lat="42.621526552397036" lon="11.75057647212791"><ele>470.57142857142856</ele><time>2026-04-24T09:55:57.98Z</time></trkpt><trkpt lat="42.621477795763724" lon="11.75064357216369"><ele>470.42857142857144</ele><time>2026-04-24T09:55:58.98Z</time></trkpt><trkpt lat="42.62142211343366" lon="11.750685936401482"><ele>470.2857142857142</ele><time>2026-04-24T09:55:59.98Z</time></trkpt><trkpt lat="42.621359381987126" lon="11.75071936379579"><ele>470.1428571428571</ele><time>2026-04-24T09:56:00.98Z</time></trkpt><trkpt lat="42.62129795951759" lon="11.750740373544684"><ele>470.0</ele><time>2026-04-24T09:56:01.98Z</time></trkpt><trkpt lat="42.621200514508764" lon="11.750783563188326"><ele>470.2</ele><time>2026-04-24T09:56:03.981Z</time></trkpt><trkpt lat="42.62112479762501" lon="11.7508109664875"><ele>470.4</ele><time>2026-04-24T09:56:05.981Z</time></trkpt><trkpt lat="42.62100382523185" lon="11.750887863609229"><ele>470.6</ele><time>2026-04-24T09:56:13.981Z</time></trkpt><trkpt lat="42.62091770589047" lon="11.750938422046342"><ele>470.8</ele><time>2026-04-24T09:56:14.981Z</time></trkpt><trkpt lat="42.620832571821296" lon="11.750985613746398"><ele>471.0</ele><time>2026-04-24T09:56:15.981Z</time></trkpt><trkpt lat="42.620731787269996" lon="11.75103008161841"><ele>470.6</ele><time>2026-04-24T09:56:16.981Z</time></trkpt><trkpt lat="42.620625499121125" lon="11.751073239654465"><ele>470.20000000000005</ele><time>2026-04-24T09:56:17.981Z</time></trkpt><trkpt lat="42.62052818159037" lon="11.751108990226852"><ele>469.79999999999995</ele><time>2026-04-24T09:56:18.981Z</time></trkpt><trkpt lat="42.62044171449887" lon="11.751148651220118"><ele>469.4</ele><time>2026-04-24T09:56:19.981Z</time></trkpt><trkpt lat="42.62036018961937" lon="11.75119349170649"><ele>469.0</ele><time>2026-04-24T09:56:20.981Z</time></trkpt><trkpt lat="42.62027788467313" lon="11.751229209543473"><ele>469.0</ele><time>2026-04-24T09:56:21.981Z</time></trkpt><trkpt lat="42.62018499453671" lon="11.751264987180576"><ele>469.0</ele><time>2026-04-24T09:56:22.981Z</time></trkpt><trkpt lat="42.62008643573988" lon="11.751241511785821"><ele>469.0</ele><time>2026-04-24T09:56:23.981Z</time></trkpt><trkpt lat="42.61999920533674" lon="11.751256973337266"><ele>469.0</ele><time>2026-04-24T09:56:24.981Z</time></trkpt><trkpt lat="42.619912163866545" lon="11.75128798174123"><ele>469.0</ele><time>2026-04-24T09:56:25.981Z</time></trkpt><trkpt lat="42.61983741611182" lon="11.751337046552162"><ele>469.0</ele><time>2026-04-24T09:56:26.981Z</time></trkpt><trkpt lat="42.61976698256333" lon="11.751398818598897"><ele>469.0</ele><time>2026-04-24T09:56:27.981Z</time></trkpt><trkpt lat="42.61969128210322" lon="11.751478599368763"><ele>469.0</ele><time>2026-04-24T09:56:28.981Z</time></trkpt><trkpt lat="42.61960823810117" lon="11.751578614736141"><ele>469.0</ele><time>2026-04-24T09:56:29.981Z</time></trkpt><trkpt lat="42.619533280124735" lon="11.751691862919655"><ele>469.0</ele><time>2026-04-24T09:56:30.981Z</time></trkpt><trkpt lat="42.6194517781436" lon="11.751820381038163"><ele>469.75</ele><time>2026-04-24T09:56:31.981Z</time></trkpt><trkpt lat="42.619363175778425" lon="11.751947301278635"><ele>470.5</ele><time>2026-04-24T09:56:32.981Z</time></trkpt><trkpt lat="42.61927525473529" lon="11.75207403459395"><ele>471.25</ele><time>2026-04-24T09:56:33.981Z</time></trkpt><trkpt lat="42.619179455873606" lon="11.7522192608422"><ele>472.0</ele><time>2026-04-24T09:56:34.981Z</time></trkpt><trkpt lat="42.61908432297964" lon="11.752366235095941"><ele>472.0</ele><time>2026-04-24T09:56:35.981Z</time></trkpt><trkpt lat="42.61900174404947" lon="11.752494712618462"><ele>472.0</ele><time>2026-04-24T09:56:36.981Z</time></trkpt><trkpt lat="42.61891330584299" lon="11.7526129612758"><ele>472.0</ele><time>2026-04-24T09:56:37.981Z</time></trkpt><trkpt lat="42.6188133458074" lon="11.752740979797666"><ele>472.0</ele><time>2026-04-24T09:56:38.981Z</time></trkpt><trkpt lat="42.618740487308855" lon="11.75285350835674"><ele>472.5</ele><time>2026-04-24T09:56:39.981Z</time></trkpt><trkpt lat="42.61866391875415" lon="11.752961069836815"><ele>473.0</ele><time>2026-04-24T09:56:40.981Z</time></trkpt><trkpt lat="42.6185885715499" lon="11.753063403088058"><ele>473.5</ele><time>2026-04-24T09:56:41.981Z</time></trkpt><trkpt lat="42.61850919715423" lon="11.753181811509933"><ele>474.0</ele><time>2026-04-24T09:56:42.981Z</time></trkpt><trkpt lat="42.618416611976855" lon="11.75330885378601"><ele>474.0</ele><time>2026-04-24T09:56:43.981Z</time></trkpt><trkpt lat="42.61832425781143" lon="11.753441491191838"><ele>474.0</ele><time>2026-04-24T09:56:44.981Z</time></trkpt><trkpt lat="42.61823617965825" lon="11.753570526536107"><ele>474.0</ele><time>2026-04-24T09:56:45.981Z</time></trkpt><trkpt lat="42.61813390574212" lon="11.75367796346268"><ele>474.0</ele><time>2026-04-24T09:56:46.981Z</time></trkpt><trkpt lat="42.618058596005014" lon="11.753789985415311"><ele>474.75</ele><time>2026-04-24T09:56:47.981Z</time></trkpt><trkpt lat="42.61798191818031" lon="11.753901832955117"><ele>475.5</ele><time>2026-04-24T09:56:48.979Z</time></trkpt><trkpt lat="42.61789709947782" lon="11.754022651689134"><ele>476.25</ele><time>2026-04-24T09:56:49.978Z</time></trkpt><trkpt lat="42.617801151813495" lon="11.75414825712147"><ele>477.0</ele><time>2026-04-24T09:56:50.978Z</time></trkpt><trkpt lat="42.61770284102172" lon="11.754276920120752"><ele>477.0</ele><time>2026-04-24T09:56:51.979Z</time></trkpt><trkpt lat="42.61761237338394" lon="11.754397111643527"><ele>477.0</ele><time>2026-04-24T09:56:52.979Z</time></trkpt><trkpt lat="42.617519773904576" lon="11.754518022805547"><ele>477.0</ele><time>2026-04-24T09:56:53.979Z</time></trkpt><trkpt lat="42.61743263170161" lon="11.754639519677161"><ele>477.0</ele><time>2026-04-24T09:56:54.978Z</time></trkpt><trkpt lat="42.61734774859594" lon="11.754761609882015"><ele>477.0</ele><time>2026-04-24T09:56:55.978Z</time></trkpt><trkpt lat="42.6172716482415" lon="11.754872120742382"><ele>477.0</ele><time>2026-04-24T09:56:56.978Z</time></trkpt><trkpt lat="42.617192942014455" lon="11.7549851165359"><ele>477.0</ele><time>2026-04-24T09:56:57.979Z</time></trkpt><trkpt lat="42.617105969149335" lon="11.755099753558872"><ele>477.0</ele><time>2026-04-24T09:56:58.978Z</time></trkpt><trkpt lat="42.61700660786139" lon="11.755228515117462"><ele>476.75</ele><time>2026-04-24T09:56:59.978Z</time></trkpt><trkpt lat="42.61690494640354" lon="11.755327595696047"><ele>476.5</ele><time>2026-04-24T09:57:00.978Z</time></trkpt><trkpt lat="42.61682031759454" lon="11.755447451465935"><ele>476.25</ele><time>2026-04-24T09:57:01.979Z</time></trkpt><trkpt lat="42.61673707858474" lon="11.755568620194785"><ele>476.0</ele><time>2026-04-24T09:57:02.979Z</time></trkpt><trkpt lat="42.61665049806789" lon="11.755700511082853"><ele>476.0</ele><time>2026-04-24T09:57:03.979Z</time></trkpt><trkpt lat="42.616555518088994" lon="11.755837017515939"><ele>476.0</ele><time>2026-04-24T09:57:04.979Z</time></trkpt><trkpt lat="42.61646275742797" lon="11.75597713980767"><ele>476.0</ele><time>2026-04-24T09:57:05.979Z</time></trkpt><trkpt lat="42.6163708723939" lon="11.756115081522916"><ele>476.0</ele><time>2026-04-24T09:57:06.979Z</time></trkpt><trkpt lat="42.61627451060346" lon="11.756249559813012"><ele>475.75</ele><time>2026-04-24T09:57:07.979Z</time></trkpt><trkpt lat="42.61617469800879" lon="11.756401781623298"><ele>475.5</ele><time>2026-04-24T09:57:08.979Z</time></trkpt><trkpt lat="42.61609839523241" lon="11.756510163205947"><ele>475.25</ele><time>2026-04-24T09:57:09.979Z</time></trkpt><trkpt lat="42.616007699331256" lon="11.756641100975285"><ele>475.0</ele><time>2026-04-24T09:57:10.979Z</time></trkpt><trkpt lat="42.61591458657819" lon="11.756772033418464"><ele>475.75</ele><time>2026-04-24T09:57:11.979Z</time></trkpt><trkpt lat="42.61581922704318" lon="11.756906942657778"><ele>476.5</ele><time>2026-04-24T09:57:12.979Z</time></trkpt><trkpt lat="42.61571707406283" lon="11.75705061968551"><ele>477.25</ele><time>2026-04-24T09:57:13.979Z</time></trkpt><trkpt lat="42.61562028089792" lon="11.757183008297025"><ele>478.0</ele><time>2026-04-24T09:57:14.979Z</time></trkpt><trkpt lat="42.61552262677084" lon="11.757318036413135"><ele>478.0</ele><time>2026-04-24T09:57:15.979Z</time></trkpt><trkpt lat="42.61541877038391" lon="11.757460800302972"><ele>478.0</ele><time>2026-04-24T09:57:16.979Z</time></trkpt><trkpt lat="42.61531553622623" lon="11.757603577062783"><ele>478.0</ele><time>2026-04-24T09:57:17.979Z</time></trkpt><trkpt lat="42.61521617620278" lon="11.757755783626617"><ele>478.0</ele><time>2026-04-24T09:57:18.979Z</time></trkpt><trkpt lat="42.61511925276582" lon="11.757893540395278"><ele>478.0</ele><time>2026-04-24T09:57:19.979Z</time></trkpt><trkpt lat="42.615022767492924" lon="11.758024946641262"><ele>478.0</ele><time>2026-04-24T09:57:20.979Z</time></trkpt><trkpt lat="42.61492917169871" lon="11.758149551310051"><ele>478.0</ele><time>2026-04-24T09:57:21.979Z</time></trkpt><trkpt lat="42.614834985276694" lon="11.758276914950187"><ele>478.0</ele><time>2026-04-24T09:57:22.979Z</time></trkpt><trkpt lat="42.61474506377422" lon="11.758404141651704"><ele>478.0</ele><time>2026-04-24T09:57:23.979Z</time></trkpt><trkpt lat="42.614655341309" lon="11.758527578697612"><ele>478.0</ele><time>2026-04-24T09:57:24.979Z</time></trkpt><trkpt lat="42.61456478785359" lon="11.758658998712708"><ele>478.0</ele><time>2026-04-24T09:57:25.979Z</time></trkpt><trkpt lat="42.61447289565309" lon="11.758795012848214"><ele>478.0</ele><time>2026-04-24T09:57:26.979Z</time></trkpt><trkpt lat="42.61435493323129" lon="11.758918405395413"><ele>478.33333333333337</ele><time>2026-04-24T09:57:27.979Z</time></trkpt><trkpt lat="42.61423823739042" lon="11.759069572702472"><ele>478.66666666666663</ele><time>2026-04-24T09:57:28.979Z</time></trkpt><trkpt lat="42.61412514529032" lon="11.759217552416128"><ele>479.0</ele><time>2026-04-24T09:57:29.979Z</time></trkpt><trkpt lat="42.614011199393566" lon="11.759356749685644"><ele>479.75</ele><time>2026-04-24T09:57:30.979Z</time></trkpt><trkpt lat="42.61391337124228" lon="11.759497134477705"><ele>480.5</ele><time>2026-04-24T09:57:31.979Z</time></trkpt><trkpt lat="42.61381551873732" lon="11.75962089025312"><ele>481.25</ele><time>2026-04-24T09:57:32.979Z</time></trkpt><trkpt lat="42.61372634136576" lon="11.75972884945318"><ele>482.0</ele><time>2026-04-24T09:57:33.979Z</time></trkpt><trkpt lat="42.613635911250356" lon="11.759829771375498"><ele>483.25</ele><time>2026-04-24T09:57:34.979Z</time></trkpt><trkpt lat="42.613549599546815" lon="11.759933631613505"><ele>484.5</ele><time>2026-04-24T09:57:35.979Z</time></trkpt><trkpt lat="42.61345897620992" lon="11.760050712231372"><ele>485.75</ele><time>2026-04-24T09:57:36.979Z</time></trkpt><trkpt lat="42.61336422191472" lon="11.760193199351928"><ele>487.0</ele><time>2026-04-24T09:57:37.979Z</time></trkpt><trkpt lat="42.61327764057156" lon="11.760329278553694"><ele>488.20000000000005</ele><time>2026-04-24T09:57:38.979Z</time></trkpt><trkpt lat="42.61318467174633" lon="11.760441865429819"><ele>489.40000000000003</ele><time>2026-04-24T09:57:39.979Z</time></trkpt><trkpt lat="42.61311390262534" lon="11.760567694385703"><ele>490.59999999999997</ele><time>2026-04-24T09:57:40.979Z</time></trkpt><trkpt lat="42.613076800078886" lon="11.760693239659293"><ele>491.79999999999995</ele><time>2026-04-24T09:57:41.979Z</time></trkpt><trkpt lat="42.61303861747351" lon="11.76082933188749"><ele>493.0</ele><time>2026-04-24T09:57:42.979Z</time></trkpt><trkpt lat="42.6130051635861" lon="11.760970243316823"><ele>493.4</ele><time>2026-04-24T09:57:43.979Z</time></trkpt><trkpt lat="42.61297267832531" lon="11.761103594070079"><ele>493.79999999999995</ele><time>2026-04-24T09:57:44.979Z</time></trkpt><trkpt lat="42.61295142926029" lon="11.761241426442488"><ele>494.2</ele><time>2026-04-24T09:57:45.979Z</time></trkpt><trkpt lat="42.6129353888681" lon="11.761373552871454"><ele>494.6</ele><time>2026-04-24T09:57:46.979Z</time></trkpt><trkpt lat="42.61291237253468" lon="11.761489249662691"><ele>495.0</ele><time>2026-04-24T09:57:47.979Z</time></trkpt><trkpt lat="42.61288406621676" lon="11.761595493919804"><ele>495.0</ele><time>2026-04-24T09:57:48.979Z</time></trkpt><trkpt lat="42.612852562046434" lon="11.761722789849646"><ele>495.0</ele><time>2026-04-24T09:57:49.979Z</time></trkpt><trkpt lat="42.612804627787405" lon="11.761850732833556"><ele>495.0</ele><time>2026-04-24T09:57:50.979Z</time></trkpt><trkpt lat="42.61274239489699" lon="11.76193990788664"><ele>495.0</ele><time>2026-04-24T09:57:51.979Z</time></trkpt><trkpt lat="42.612686708666516" lon="11.762030164551176"><ele>495.0</ele><time>2026-04-24T09:57:52.979Z</time></trkpt><trkpt lat="42.61263466667664" lon="11.762095106845617"><ele>497.3333333333333</ele><time>2026-04-24T09:57:53.979Z</time></trkpt><trkpt lat="42.6125766344709" lon="11.762156454557896"><ele>499.66666666666663</ele><time>2026-04-24T09:57:54.979Z</time></trkpt><trkpt lat="42.61244543822909" lon="11.762187727727532"><ele>502.0</ele><time>2026-04-24T09:57:56.979Z</time></trkpt><trkpt lat="42.612376579177116" lon="11.762183290149828"><ele>504.3333333333333</ele><time>2026-04-24T09:57:57.979Z</time></trkpt><trkpt lat="42.61230064511687" lon="11.762173261919672"><ele>506.66666666666663</ele><time>2026-04-24T09:57:58.979Z</time></trkpt><trkpt lat="42.612228678318345" lon="11.762159554558432"><ele>509.0</ele><time>2026-04-24T09:57:59.979Z</time></trkpt><trkpt lat="42.61216137841927" lon="11.76215801956384"><ele>509.0</ele><time>2026-04-24T09:58:00.979Z</time></trkpt><trkpt lat="42.61205808392804" lon="11.762154760669235"><ele>509.0</ele><time>2026-04-24T09:58:02.979Z</time></trkpt><trkpt lat="42.61197196456371" lon="11.762168136668173"><ele>509.0</ele><time>2026-04-24T09:58:04.979Z</time></trkpt><trkpt lat="42.61185328585186" lon="11.762199502069047"><ele>509.0</ele><time>2026-04-24T09:58:06.979Z</time></trkpt><trkpt lat="42.61175070501178" lon="11.762243686413731"><ele>509.0</ele><time>2026-04-24T09:58:08.979Z</time></trkpt><trkpt lat="42.61164880555414" lon="11.762296669976555"><ele>512.6</ele><time>2026-04-24T09:58:10.979Z</time></trkpt><trkpt lat="42.61157164617123" lon="11.762308158549104"><ele>516.2</ele><time>2026-04-24T09:58:11.979Z</time></trkpt><trkpt lat="42.61148941241592" lon="11.762352146162973"><ele>519.8000000000001</ele><time>2026-04-24T09:58:12.979Z</time></trkpt><trkpt lat="42.61138876922782" lon="11.762408530238721"><ele>523.4</ele><time>2026-04-24T09:58:13.979Z</time></trkpt><trkpt lat="42.6112757401365" lon="11.762476657167051"><ele>527.0</ele><time>2026-04-24T09:58:14.979Z</time></trkpt><trkpt lat="42.61117319163704" lon="11.76253124725417"><ele>525.8000000000001</ele><time>2026-04-24T09:58:15.979Z</time></trkpt><trkpt lat="42.61107767553731" lon="11.762583416219648"><ele>524.6</ele><time>2026-04-24T09:58:16.979Z</time></trkpt><trkpt lat="42.61098243097452" lon="11.762636351938886"><ele>523.4000000000001</ele><time>2026-04-24T09:58:17.979Z</time></trkpt><trkpt lat="42.6108939985459" lon="11.762680909192591"><ele>522.2</ele><time>2026-04-24T09:58:18.979Z</time></trkpt><trkpt lat="42.610817807571614" lon="11.762750035311573"><ele>521.0</ele><time>2026-04-24T09:58:19.979Z</time></trkpt><trkpt lat="42.61074616134276" lon="11.762797802841654"><ele>521.0</ele><time>2026-04-24T09:58:20.979Z</time></trkpt><trkpt lat="42.61067914913544" lon="11.76282916966558"><ele>521.0</ele><time>2026-04-24T09:58:21.979Z</time></trkpt><trkpt lat="42.610610702034954" lon="11.762860183612755"><ele>521.0</ele><time>2026-04-24T09:58:22.979Z</time></trkpt><trkpt lat="42.61053018890691" lon="11.762904615159854"><ele>521.0</ele><time>2026-04-24T09:58:23.98Z</time></trkpt><trkpt lat="42.61044146935011" lon="11.762943918148652"><ele>521.0</ele><time>2026-04-24T09:58:24.98Z</time></trkpt><trkpt lat="42.61034723225446" lon="11.762976684620915"><ele>521.0</ele><time>2026-04-24T09:58:25.98Z</time></trkpt><trkpt lat="42.610256283127086" lon="11.763014646843335"><ele>524.1666666666666</ele><time>2026-04-24T09:58:26.98Z</time></trkpt><trkpt lat="42.610183122945024" lon="11.763064928491678"><ele>527.3333333333333</ele><time>2026-04-24T09:58:27.98Z</time></trkpt><trkpt lat="42.61011084750558" lon="11.763104454263908"><ele>530.5</ele><time>2026-04-24T09:58:28.98Z</time></trkpt><trkpt lat="42.6100365919786" lon="11.763129174100996"><ele>533.6666666666666</ele><time>2026-04-24T09:58:29.98Z</time></trkpt><trkpt lat="42.60995373015508" lon="11.76315560607705"><ele>536.8333333333334</ele><time>2026-04-24T09:58:30.98Z</time></trkpt><trkpt lat="42.60986180651486" lon="11.763182426922123"><ele>540.0</ele><time>2026-04-24T09:58:31.98Z</time></trkpt><trkpt lat="42.60977444875201" lon="11.763193034351511"><ele>540.0</ele><time>2026-04-24T09:58:32.98Z</time></trkpt><trkpt lat="42.60968218057698" lon="11.763209005167402"><ele>540.0</ele><time>2026-04-24T09:58:33.98Z</time></trkpt><trkpt lat="42.609603121938726" lon="11.763220099220973"><ele>540.0</ele><time>2026-04-24T09:58:34.98Z</time></trkpt><trkpt lat="42.609517439985154" lon="11.763248754878115"><ele>540.0</ele><time>2026-04-24T09:58:35.98Z</time></trkpt><trkpt lat="42.6094118411332" lon="11.763308203401847"><ele>540.0</ele><time>2026-04-24T09:58:36.98Z</time></trkpt><trkpt lat="42.609294531933706" lon="11.76341154500852"><ele>538.6</ele><time>2026-04-24T09:58:37.98Z</time></trkpt><trkpt lat="42.6091960787736" lon="11.76349833341471"><ele>537.2</ele><time>2026-04-24T09:58:38.98Z</time></trkpt><trkpt lat="42.60910727979627" lon="11.763551494555216"><ele>535.8</ele><time>2026-04-24T09:58:39.98Z</time></trkpt><trkpt lat="42.6090093494892" lon="11.763602398071765"><ele>534.4</ele><time>2026-04-24T09:58:40.98Z</time></trkpt><trkpt lat="42.60891837927853" lon="11.763656162579496"><ele>533.0</ele><time>2026-04-24T09:58:41.98Z</time></trkpt><trkpt lat="42.60883295942463" lon="11.763735045208499"><ele>533.0</ele><time>2026-04-24T09:58:42.98Z</time></trkpt><trkpt lat="42.608749941577386" lon="11.763808043447108"><ele>533.0</ele><time>2026-04-24T09:58:43.98Z</time></trkpt><trkpt lat="42.60865653282959" lon="11.763900244789255"><ele>533.0</ele><time>2026-04-24T09:58:44.98Z</time></trkpt><trkpt lat="42.608554249916935" lon="11.764026710681508"><ele>533.0</ele><time>2026-04-24T09:58:45.98Z</time></trkpt><trkpt lat="42.60845745790901" lon="11.764163240028441"><ele>533.5</ele><time>2026-04-24T09:58:46.98Z</time></trkpt><trkpt lat="42.60836337938365" lon="11.764298921821979"><ele>534.0</ele><time>2026-04-24T09:58:47.98Z</time></trkpt><trkpt lat="42.60826101682154" lon="11.764409446599604"><ele>534.5</ele><time>2026-04-24T09:58:48.98Z</time></trkpt><trkpt lat="42.608193918819794" lon="11.764553646858536"><ele>535.0</ele><time>2026-04-24T09:58:49.98Z</time></trkpt><trkpt lat="42.608124408332465" lon="11.76466273980885"><ele>535.0</ele><time>2026-04-24T09:58:50.98Z</time></trkpt><trkpt lat="42.60805292792868" lon="11.764737437388446"><ele>535.0</ele><time>2026-04-24T09:58:51.98Z</time></trkpt><trkpt lat="42.60799064967174" lon="11.764803690841651"><ele>535.0</ele><time>2026-04-24T09:58:52.98Z</time></trkpt><trkpt lat="42.6079351084912" lon="11.764864075227244"><ele>535.0</ele><time>2026-04-24T09:58:53.98Z</time></trkpt><trkpt lat="42.60787917290348" lon="11.764913900612168"><ele>535.0</ele><time>2026-04-24T09:58:54.978Z</time></trkpt><trkpt lat="42.607760557532785" lon="11.764978029149527"><ele>535.0</ele><time>2026-04-24T09:58:56.978Z</time></trkpt><trkpt lat="42.607660770029824" lon="11.764978607899936"><ele>534.25</ele><time>2026-04-24T09:58:57.977Z</time></trkpt><trkpt lat="42.607557465032144" lon="11.76497445510963"><ele>533.5</ele><time>2026-04-24T09:58:58.978Z</time></trkpt><trkpt lat="42.607438619782144" lon="11.764968323602105"><ele>532.75</ele><time>2026-04-24T09:58:59.978Z</time></trkpt><trkpt lat="42.6073066232304" lon="11.764969728411"><ele>532.0</ele><time>2026-04-24T09:59:00.978Z</time></trkpt><trkpt lat="42.60718893917292" lon="11.764983589773603"><ele>532.0</ele><time>2026-04-24T09:59:01.977Z</time></trkpt><trkpt lat="42.60707720675795" lon="11.76500303883723"><ele>532.0</ele><time>2026-04-24T09:59:02.977Z</time></trkpt><trkpt lat="42.6069647352162" lon="11.765019342071026"><ele>532.0</ele><time>2026-04-24T09:59:03.977Z</time></trkpt><trkpt lat="42.60685930678085" lon="11.765047552294531"><ele>532.0</ele><time>2026-04-24T09:59:04.977Z</time></trkpt><trkpt lat="42.60677424284398" lon="11.765081530377785"><ele>532.0</ele><time>2026-04-24T09:59:05.977Z</time></trkpt><trkpt lat="42.60668382330474" lon="11.765125249387038"><ele>530.8000000000001</ele><time>2026-04-24T09:59:06.977Z</time></trkpt><trkpt lat="42.60658755569987" lon="11.765187832910788"><ele>529.6</ele><time>2026-04-24T09:59:07.978Z</time></trkpt><trkpt lat="42.60649436849562" lon="11.765267488108414"><ele>528.4000000000001</ele><time>2026-04-24T09:59:08.978Z</time></trkpt><trkpt lat="42.60640826681133" lon="11.76535242153304"><ele>527.2</ele><time>2026-04-24T09:59:09.978Z</time></trkpt><trkpt lat="42.60634089698446" lon="11.76544753690439"><ele>526.0</ele><time>2026-04-24T09:59:10.978Z</time></trkpt><trkpt lat="42.60628738269212" lon="11.7655429303067"><ele>526.0</ele><time>2026-04-24T09:59:11.978Z</time></trkpt><trkpt lat="42.60626422198919" lon="11.765631113177674"><ele>526.0</ele><time>2026-04-24T09:59:12.978Z</time></trkpt><trkpt lat="42.60623150020911" lon="11.765740551868022"><ele>526.0</ele><time>2026-04-24T09:59:13.978Z</time></trkpt><trkpt lat="42.606180199393066" lon="11.76586604053006"><ele>526.0</ele><time>2026-04-24T09:59:14.978Z</time></trkpt><trkpt lat="42.60615434973218" lon="11.765995398654745"><ele>526.0</ele><time>2026-04-24T09:59:15.978Z</time></trkpt><trkpt lat="42.60612390594999" lon="11.766128871563687"><ele>526.0</ele><time>2026-04-24T09:59:16.978Z</time></trkpt><trkpt lat="42.60610643350541" lon="11.766266382299284"><ele>526.0</ele><time>2026-04-24T09:59:17.978Z</time></trkpt><trkpt lat="42.60607671424215" lon="11.766409640922365"><ele>526.0</ele><time>2026-04-24T09:59:18.978Z</time></trkpt><trkpt lat="42.60606120610095" lon="11.766568475491518"><ele>526.0</ele><time>2026-04-24T09:59:19.978Z</time></trkpt><trkpt lat="42.606048137692895" lon="11.76676928688633"><ele>527.25</ele><time>2026-04-24T09:59:20.978Z</time></trkpt><trkpt lat="42.60604337412429" lon="11.766946839758255"><ele>528.5</ele><time>2026-04-24T09:59:21.978Z</time></trkpt><trkpt lat="42.6060386985468" lon="11.767127344239109"><ele>529.75</ele><time>2026-04-24T09:59:22.978Z</time></trkpt><trkpt lat="42.60602920230695" lon="11.767317904074837"><ele>531.0</ele><time>2026-04-24T09:59:23.978Z</time></trkpt><trkpt lat="42.60601427324868" lon="11.767525827198565"><ele>532.3333333333334</ele><time>2026-04-24T09:59:24.978Z</time></trkpt><trkpt lat="42.60599564554718" lon="11.767746234464527"><ele>533.6666666666667</ele><time>2026-04-24T09:59:25.978Z</time></trkpt><trkpt lat="42.6059789959269" lon="11.767958847403326"><ele>535.0</ele><time>2026-04-24T09:59:26.978Z</time></trkpt><trkpt lat="42.60596191924923" lon="11.76817602272224"><ele>535.0</ele><time>2026-04-24T09:59:27.978Z</time></trkpt><trkpt lat="42.60596278221488" lon="11.76838361774789"><ele>535.0</ele><time>2026-04-24T09:59:28.978Z</time></trkpt><trkpt lat="42.60597210376378" lon="11.768593934540572"><ele>535.0</ele><time>2026-04-24T09:59:29.978Z</time></trkpt><trkpt lat="42.6059565989094" lon="11.768786165364192"><ele>535.0</ele><time>2026-04-24T09:59:30.978Z</time></trkpt><trkpt lat="42.605957888853155" lon="11.768951621747899"><ele>535.0</ele><time>2026-04-24T09:59:31.978Z</time></trkpt><trkpt lat="42.60591262037423" lon="11.769099125383555"><ele>535.0</ele><time>2026-04-24T09:59:32.978Z</time></trkpt><trkpt lat="42.605865364427736" lon="11.769238952954906"><ele>535.0</ele><time>2026-04-24T09:59:33.978Z</time></trkpt><trkpt lat="42.60580919924724" lon="11.769369458496687"><ele>535.0</ele><time>2026-04-24T09:59:34.978Z</time></trkpt><trkpt lat="42.60574106204853" lon="11.769511219976945"><ele>535.0</ele><time>2026-04-24T09:59:35.978Z</time></trkpt><trkpt lat="42.605664585770484" lon="11.769678027247654"><ele>535.0</ele><time>2026-04-24T09:59:36.978Z</time></trkpt><trkpt lat="42.60558464691833" lon="11.769833795429536"><ele>535.0</ele><time>2026-04-24T09:59:37.978Z</time></trkpt><trkpt lat="42.60549252105693" lon="11.769985717595695"><ele>535.0</ele><time>2026-04-24T09:59:38.978Z</time></trkpt><trkpt lat="42.605394661268605" lon="11.770147603018026"><ele>535.0</ele><time>2026-04-24T09:59:39.978Z</time></trkpt><trkpt lat="42.60528570368392" lon="11.770314571471665"><ele>535.0</ele><time>2026-04-24T09:59:40.978Z</time></trkpt><trkpt lat="42.60517631538241" lon="11.77048436571022"><ele>534.0</ele><time>2026-04-24T09:59:41.978Z</time></trkpt><trkpt lat="42.605074854696014" lon="11.770662327838885"><ele>533.0</ele><time>2026-04-24T09:59:42.978Z</time></trkpt><trkpt lat="42.604975677313504" lon="11.770838251154068"><ele>532.0</ele><time>2026-04-24T09:59:43.978Z</time></trkpt><trkpt lat="42.60486773874426" lon="11.771017391756029"><ele>532.3333333333334</ele><time>2026-04-24T09:59:44.978Z</time></trkpt><trkpt lat="42.60475965036983" lon="11.77118831298632"><ele>532.6666666666666</ele><time>2026-04-24T09:59:45.978Z</time></trkpt><trkpt lat="42.60464849167698" lon="11.771356900625532"><ele>533.0</ele><time>2026-04-24T09:59:46.978Z</time></trkpt><trkpt lat="42.60453706421133" lon="11.771528333860902"><ele>534.0</ele><time>2026-04-24T09:59:47.978Z</time></trkpt><trkpt lat="42.60442107384745" lon="11.77170843366732"><ele>535.0</ele><time>2026-04-24T09:59:48.978Z</time></trkpt><trkpt lat="42.604309708808835" lon="11.771890229413355"><ele>536.0</ele><time>2026-04-24T09:59:49.978Z</time></trkpt><trkpt lat="42.60419442001178" lon="11.772069065881588"><ele>536.6666666666666</ele><time>2026-04-24T09:59:50.978Z</time></trkpt><trkpt lat="42.60407640905157" lon="11.772253738975477"><ele>537.3333333333334</ele><time>2026-04-24T09:59:51.978Z</time></trkpt><trkpt lat="42.60397344224573" lon="11.772421966782273"><ele>538.0</ele><time>2026-04-24T09:59:52.978Z</time></trkpt><trkpt lat="42.60386597939278" lon="11.772605496956313"><ele>538.3333333333334</ele><time>2026-04-24T09:59:53.978Z</time></trkpt><trkpt lat="42.60376037414115" lon="11.772776210577529"><ele>538.6666666666666</ele><time>2026-04-24T09:59:54.978Z</time></trkpt><trkpt lat="42.60366292794215" lon="11.772929886971015"><ele>539.0</ele><time>2026-04-24T09:59:55.978Z</time></trkpt><trkpt lat="42.60356408358171" lon="11.773087600153637"><ele>541.25</ele><time>2026-04-24T09:59:56.978Z</time></trkpt><trkpt lat="42.603482285094486" lon="11.773240566417897"><ele>543.5</ele><time>2026-04-24T09:59:57.978Z</time></trkpt><trkpt lat="42.60340973531854" lon="11.77338394762879"><ele>545.75</ele><time>2026-04-24T09:59:58.978Z</time></trkpt><trkpt lat="42.60333251596261" lon="11.773500692978024"><ele>548.0</ele><time>2026-04-24T09:59:59.978Z</time></trkpt><trkpt lat="42.60326653182703" lon="11.773609191153655"><ele>548.4</ele><time>2026-04-24T10:00:00.978Z</time></trkpt><trkpt lat="42.603181169867796" lon="11.773690497274927"><ele>548.8</ele><time>2026-04-24T10:00:01.978Z</time></trkpt><trkpt lat="42.60313031544841" lon="11.773798308516643"><ele>549.2</ele><time>2026-04-24T10:00:02.978Z</time></trkpt><trkpt lat="42.60306129883679" lon="11.773876739065289"><ele>549.6</ele><time>2026-04-24T10:00:03.978Z</time></trkpt><trkpt lat="42.60300254414258" lon="11.773981086869187"><ele>550.0</ele><time>2026-04-24T10:00:04.978Z</time></trkpt><trkpt lat="42.602954141730734" lon="11.774109331729928"><ele>550.0</ele><time>2026-04-24T10:00:05.978Z</time></trkpt><trkpt lat="42.60290204261782" lon="11.77424025786787"><ele>550.0</ele><time>2026-04-24T10:00:06.978Z</time></trkpt><trkpt lat="42.60284559292956" lon="11.774379324027946"><ele>550.0</ele><time>2026-04-24T10:00:07.978Z</time></trkpt><trkpt lat="42.602788147840926" lon="11.77452505507429"><ele>550.0</ele><time>2026-04-24T10:00:08.978Z</time></trkpt><trkpt lat="42.602732776655444" lon="11.774675120026785"><ele>547.0</ele><time>2026-04-24T10:00:09.978Z</time></trkpt><trkpt lat="42.6026776762101" lon="11.774833720811872"><ele>544.0</ele><time>2026-04-24T10:00:10.978Z</time></trkpt><trkpt lat="42.60261963765139" lon="11.77498572250257"><ele>541.0</ele><time>2026-04-24T10:00:11.978Z</time></trkpt><trkpt lat="42.60256088887895" lon="11.775139478686963"><ele>538.0</ele><time>2026-04-24T10:00:12.978Z</time></trkpt><trkpt lat="42.602515892832876" lon="11.775286212901003"><ele>537.75</ele><time>2026-04-24T10:00:13.978Z</time></trkpt><trkpt lat="42.60246870621778" lon="11.775431555452705"><ele>537.5</ele><time>2026-04-24T10:00:14.978Z</time></trkpt><trkpt lat="42.60240253010056" lon="11.775568725842549"><ele>537.25</ele><time>2026-04-24T10:00:15.978Z</time></trkpt><trkpt lat="42.60234162800756" lon="11.775707524150175"><ele>537.0</ele><time>2026-04-24T10:00:16.978Z</time></trkpt><trkpt lat="42.602286236068416" lon="11.775842627023726"><ele>537.0</ele><time>2026-04-24T10:00:17.978Z</time></trkpt><trkpt lat="42.602237591835284" lon="11.775976037539795"><ele>537.0</ele><time>2026-04-24T10:00:18.978Z</time></trkpt><trkpt lat="42.60219402042879" lon="11.776106234625495"><ele>537.0</ele><time>2026-04-24T10:00:19.978Z</time></trkpt><trkpt lat="42.60214693469465" lon="11.776234173900482"><ele>537.0</ele><time>2026-04-24T10:00:20.978Z</time></trkpt><trkpt lat="42.60208967932634" lon="11.776380975605527"><ele>537.0</ele><time>2026-04-24T10:00:21.979Z</time></trkpt><trkpt lat="42.60202534902859" lon="11.776546279627567"><ele>536.0</ele><time>2026-04-24T10:00:22.979Z</time></trkpt><trkpt lat="42.601958884557334" lon="11.776714502378443"><ele>535.0</ele><time>2026-04-24T10:00:23.979Z</time></trkpt><trkpt lat="42.60188501651083" lon="11.776870898698935"><ele>534.0</ele><time>2026-04-24T10:00:24.979Z</time></trkpt><trkpt lat="42.60179722543712" lon="11.777012149783546"><ele>533.0</ele><time>2026-04-24T10:00:25.979Z</time></trkpt><trkpt lat="42.60170284778413" lon="11.777149564939059"><ele>533.0</ele><time>2026-04-24T10:00:26.979Z</time></trkpt><trkpt lat="42.601610907227304" lon="11.777274377118479"><ele>533.0</ele><time>2026-04-24T10:00:27.979Z</time></trkpt><trkpt lat="42.60152787022332" lon="11.777385188818366"><ele>533.0</ele><time>2026-04-24T10:00:28.979Z</time></trkpt><trkpt lat="42.60145860830915" lon="11.777484925347428"><ele>533.0</ele><time>2026-04-24T10:00:29.979Z</time></trkpt><trkpt lat="42.60140419154363" lon="11.77757829223704"><ele>533.0</ele><time>2026-04-24T10:00:30.979Z</time></trkpt><trkpt lat="42.60136018843927" lon="11.777667574667905"><ele>532.8</ele><time>2026-04-24T10:00:31.979Z</time></trkpt><trkpt lat="42.60132317345497" lon="11.77777078386935"><ele>532.5999999999999</ele><time>2026-04-24T10:00:32.979Z</time></trkpt><trkpt lat="42.60128866442842" lon="11.77788703745777"><ele>532.4000000000001</ele><time>2026-04-24T10:00:33.979Z</time></trkpt><trkpt lat="42.601250230409114" lon="11.7780056740951"><ele>532.2</ele><time>2026-04-24T10:00:34.979Z</time></trkpt><trkpt lat="42.60121211017262" lon="11.778122153187805"><ele>532.0</ele><time>2026-04-24T10:00:35.979Z</time></trkpt><trkpt lat="42.6011667701972" lon="11.77824399767461"><ele>530.8333333333334</ele><time>2026-04-24T10:00:36.979Z</time></trkpt><trkpt lat="42.6011230691206" lon="11.77835489309162"><ele>529.6666666666667</ele><time>2026-04-24T10:00:37.979Z</time></trkpt><trkpt lat="42.601046369113725" lon="11.778435739700386"><ele>528.5</ele><time>2026-04-24T10:00:38.979Z</time></trkpt><trkpt lat="42.60097978439588" lon="11.77852774800917"><ele>527.3333333333334</ele><time>2026-04-24T10:00:39.979Z</time></trkpt><trkpt lat="42.600930848014286" lon="11.778618446428924"><ele>526.1666666666666</ele><time>2026-04-24T10:00:40.979Z</time></trkpt><trkpt lat="42.60087548815317" lon="11.778671168475638"><ele>525.0</ele><time>2026-04-24T10:00:41.979Z</time></trkpt><trkpt lat="42.60080279197692" lon="11.778747965243973"><ele>525.0</ele><time>2026-04-24T10:00:43.979Z</time></trkpt><trkpt lat="42.60091177970543" lon="11.77881085994037"><ele>525.0</ele><time>2026-04-24T10:05:47.002Z</time></trkpt><trkpt lat="42.60097370387193" lon="11.778877862399717"><ele>525.0</ele><time>2026-04-24T10:05:49.002Z</time></trkpt><trkpt lat="42.60104869393867" lon="11.778910773265423"><ele>525.0</ele><time>2026-04-24T10:05:52.002Z</time></trkpt><trkpt lat="42.60111568485319" lon="11.77891703861771"><ele>525.0</ele><time>2026-04-24T10:06:08Z</time></trkpt><trkpt lat="42.60118556373717" lon="11.778932980328443"><ele>525.0</ele><time>2026-04-24T10:06:10Z</time></trkpt><trkpt lat="42.6012500982136" lon="11.778940245373056"><ele>524.4</ele><time>2026-04-24T10:06:12Z</time></trkpt><trkpt lat="42.60132960582811" lon="11.778943812909642"><ele>523.8</ele><time>2026-04-24T10:06:18Z</time></trkpt><trkpt lat="42.601433613159145" lon="11.778966163929642"><ele>523.2</ele><time>2026-04-24T10:06:21Z</time></trkpt><trkpt lat="42.60157331796977" lon="11.778954886151332"><ele>522.6</ele><time>2026-04-24T10:06:23Z</time></trkpt><trkpt lat="42.60166354003828" lon="11.778952569830812"><ele>522.0</ele><time>2026-04-24T10:06:24Z</time></trkpt><trkpt lat="42.60177265882497" lon="11.778950822938167"><ele>522.0</ele><time>2026-04-24T10:06:25Z</time></trkpt><trkpt lat="42.601890652218536" lon="11.778947226127343"><ele>522.0</ele><time>2026-04-24T10:06:26.001Z</time></trkpt><trkpt lat="42.60200251535663" lon="11.778944790856938"><ele>522.0</ele><time>2026-04-24T10:06:27.001Z</time></trkpt><trkpt lat="42.60211753869299" lon="11.778927858928958"><ele>522.0</ele><time>2026-04-24T10:06:28.001Z</time></trkpt><trkpt lat="42.6022339915695" lon="11.778903211774173"><ele>522.3333333333334</ele><time>2026-04-24T10:06:29.001Z</time></trkpt><trkpt lat="42.60234104404396" lon="11.778916879811883"><ele>522.6666666666666</ele><time>2026-04-24T10:06:30.001Z</time></trkpt><trkpt lat="42.602431458660774" lon="11.778909532600412"><ele>523.0</ele><time>2026-04-24T10:06:31.001Z</time></trkpt><trkpt lat="42.6025035896333" lon="11.778906553201868"><ele>523.3333333333333</ele><time>2026-04-24T10:06:32.001Z</time></trkpt><trkpt lat="42.60257039671685" lon="11.778899686153148"><ele>523.6666666666666</ele><time>2026-04-24T10:06:33.001Z</time></trkpt><trkpt lat="42.60264039704214" lon="11.778897252480565"><ele>524.0</ele><time>2026-04-24T10:06:34.001Z</time></trkpt><trkpt lat="42.60271971241334" lon="11.77889954812315"><ele>524.0</ele><time>2026-04-24T10:06:35.001Z</time></trkpt><trkpt lat="42.602785197900765" lon="11.778898500015421"><ele>524.0</ele><time>2026-04-24T10:06:36.001Z</time></trkpt><trkpt lat="42.60291509773517" lon="11.778924628511945"><ele>524.0</ele><time>2026-04-24T10:06:38.001Z</time></trkpt><trkpt lat="42.60296972075332" lon="11.778978583287714"><ele>524.0</ele><time>2026-04-24T10:06:39.001Z</time></trkpt><trkpt lat="42.60308601942011" lon="11.779009799224651"><ele>524.0</ele><time>2026-04-24T10:06:41.001Z</time></trkpt><trkpt lat="42.603169825698835" lon="11.778997654830398"><ele>521.5</ele><time>2026-04-24T10:06:42.001Z</time></trkpt><trkpt lat="42.603296096692894" lon="11.778964328274839"><ele>519.0</ele><time>2026-04-24T10:06:43.001Z</time></trkpt><trkpt lat="42.603412298125626" lon="11.778929093614627"><ele>516.5</ele><time>2026-04-24T10:06:44.001Z</time></trkpt><trkpt lat="42.603547951210864" lon="11.778890717973434"><ele>514.0</ele><time>2026-04-24T10:06:45.001Z</time></trkpt><trkpt lat="42.60367889115237" lon="11.778861887388755"><ele>510.5</ele><time>2026-04-24T10:06:46.001Z</time></trkpt><trkpt lat="42.60378789844336" lon="11.7788056935071"><ele>507.0</ele><time>2026-04-24T10:06:47.001Z</time></trkpt><trkpt lat="42.60390831340766" lon="11.778757887673184"><ele>503.5</ele><time>2026-04-24T10:06:48.001Z</time></trkpt><trkpt lat="42.604021108892404" lon="11.778706374069642"><ele>500.0</ele><time>2026-04-24T10:06:49.001Z</time></trkpt><trkpt lat="42.60414312766747" lon="11.77864776178116"><ele>500.0</ele><time>2026-04-24T10:06:50.001Z</time></trkpt><trkpt lat="42.604271671210896" lon="11.778583560367892"><ele>500.0</ele><time>2026-04-24T10:06:51.001Z</time></trkpt><trkpt lat="42.604412794632395" lon="11.778509201786582"><ele>500.0</ele><time>2026-04-24T10:06:52.001Z</time></trkpt><trkpt lat="42.604559155722555" lon="11.778423563058682"><ele>500.0</ele><time>2026-04-24T10:06:53.001Z</time></trkpt><trkpt lat="42.604703922009975" lon="11.778337420112974"><ele>498.75</ele><time>2026-04-24T10:06:54.001Z</time></trkpt><trkpt lat="42.60482851190201" lon="11.778270842730556"><ele>497.5</ele><time>2026-04-24T10:06:55.001Z</time></trkpt><trkpt lat="42.60495533799244" lon="11.778196698955378"><ele>496.25</ele><time>2026-04-24T10:06:56.001Z</time></trkpt><trkpt lat="42.60509301542239" lon="11.778111882001868"><ele>495.0</ele><time>2026-04-24T10:06:57.001Z</time></trkpt><trkpt lat="42.605215985352764" lon="11.77801655908298"><ele>494.25</ele><time>2026-04-24T10:06:58.001Z</time></trkpt><trkpt lat="42.605332058420856" lon="11.777923795372047"><ele>493.5</ele><time>2026-04-24T10:06:59.001Z</time></trkpt><trkpt lat="42.60545957955717" lon="11.777840455026883"><ele>492.75</ele><time>2026-04-24T10:07:00.001Z</time></trkpt><trkpt lat="42.605578452084735" lon="11.777758674828947"><ele>492.0</ele><time>2026-04-24T10:07:01.001Z</time></trkpt><trkpt lat="42.60571201329783" lon="11.777662825012738"><ele>492.0</ele><time>2026-04-24T10:07:02.001Z</time></trkpt><trkpt lat="42.605843794301656" lon="11.777575357173463"><ele>492.0</ele><time>2026-04-24T10:07:03.001Z</time></trkpt><trkpt lat="42.60598771852349" lon="11.777506145439116"><ele>492.0</ele><time>2026-04-24T10:07:04.001Z</time></trkpt><trkpt lat="42.60614495915814" lon="11.777443446996747"><ele>490.66666666666663</ele><time>2026-04-24T10:07:05.001Z</time></trkpt><trkpt lat="42.606293224914786" lon="11.777391046108681"><ele>489.3333333333333</ele><time>2026-04-24T10:07:06.001Z</time></trkpt><trkpt lat="42.60645041616964" lon="11.777321400214431"><ele>488.0</ele><time>2026-04-24T10:07:07.001Z</time></trkpt><trkpt lat="42.606599466854874" lon="11.77725551308876"><ele>488.0</ele><time>2026-04-24T10:07:08.001Z</time></trkpt><trkpt lat="42.60673903148233" lon="11.777188958238908"><ele>488.0</ele><time>2026-04-24T10:07:09.001Z</time></trkpt><trkpt lat="42.60687473299339" lon="11.777106885276508"><ele>488.0</ele><time>2026-04-24T10:07:10.002Z</time></trkpt><trkpt lat="42.60700446283525" lon="11.777053439128565"><ele>488.0</ele><time>2026-04-24T10:07:11.002Z</time></trkpt><trkpt lat="42.6071274280748" lon="11.77700062548872"><ele>487.5</ele><time>2026-04-24T10:07:12.002Z</time></trkpt><trkpt lat="42.6072621993629" lon="11.776962081952725"><ele>487.0</ele><time>2026-04-24T10:07:13.002Z</time></trkpt><trkpt lat="42.607401018831446" lon="11.77694201957898"><ele>486.5</ele><time>2026-04-24T10:07:14.002Z</time></trkpt><trkpt lat="42.60754661358903" lon="11.776931549765013"><ele>486.0</ele><time>2026-04-24T10:07:15.002Z</time></trkpt><trkpt lat="42.60768936387988" lon="11.77692774337457"><ele>486.0</ele><time>2026-04-24T10:07:16.002Z</time></trkpt><trkpt lat="42.60781816210782" lon="11.776930528750773"><ele>486.0</ele><time>2026-04-24T10:07:17.002Z</time></trkpt><trkpt lat="42.607949830773634" lon="11.776918100148219"><ele>486.0</ele><time>2026-04-24T10:07:18.002Z</time></trkpt><trkpt lat="42.608072744289984" lon="11.776915706875934"><ele>486.0</ele><time>2026-04-24T10:07:19.002Z</time></trkpt><trkpt lat="42.60818482564617" lon="11.776919696821178"><ele>486.0</ele><time>2026-04-24T10:07:20.002Z</time></trkpt><trkpt lat="42.60827783827029" lon="11.776926224669909"><ele>486.0</ele><time>2026-04-24T10:07:21.002Z</time></trkpt><trkpt lat="42.6083750071867" lon="11.776953589237348"><ele>486.0</ele><time>2026-04-24T10:07:22.002Z</time></trkpt><trkpt lat="42.608474106782495" lon="11.776978702132247"><ele>486.0</ele><time>2026-04-24T10:07:23.002Z</time></trkpt><trkpt lat="42.60857988336035" lon="11.777021594503218"><ele>486.0</ele><time>2026-04-24T10:07:24.002Z</time></trkpt><trkpt lat="42.60868394383663" lon="11.777086321637752"><ele>486.0</ele><time>2026-04-24T10:07:25.002Z</time></trkpt><trkpt lat="42.608780069234705" lon="11.777185052995685"><ele>486.0</ele><time>2026-04-24T10:07:26.002Z</time></trkpt><trkpt lat="42.6088790302072" lon="11.777277054399352"><ele>486.0</ele><time>2026-04-24T10:07:27.002Z</time></trkpt><trkpt lat="42.60896682549551" lon="11.777366689753899"><ele>486.0</ele><time>2026-04-24T10:07:28.002Z</time></trkpt><trkpt lat="42.60905133517255" lon="11.777461483905226"><ele>486.0</ele><time>2026-04-24T10:07:29.002Z</time></trkpt><trkpt lat="42.609133046038146" lon="11.777558952909557"><ele>486.0</ele><time>2026-04-24T10:07:30.002Z</time></trkpt><trkpt lat="42.60921823770498" lon="11.777629604564359"><ele>486.0</ele><time>2026-04-24T10:07:31.002Z</time></trkpt><trkpt lat="42.609284646667994" lon="11.777675582756265"><ele>486.0</ele><time>2026-04-24T10:07:32.002Z</time></trkpt><trkpt lat="42.60938425505162" lon="11.777713784961827"><ele>486.0</ele><time>2026-04-24T10:07:34.002Z</time></trkpt><trkpt lat="42.6094688865603" lon="11.777697175603251"><ele>485.1666666666667</ele><time>2026-04-24T10:07:36.002Z</time></trkpt><trkpt lat="42.60954306140488" lon="11.777598575879344"><ele>484.33333333333337</ele><time>2026-04-24T10:07:37.002Z</time></trkpt><trkpt lat="42.60961134342362" lon="11.777519628387322"><ele>483.5</ele><time>2026-04-24T10:07:38.002Z</time></trkpt><trkpt lat="42.60969007984461" lon="11.777488580444103"><ele>482.6666666666667</ele><time>2026-04-24T10:07:39.002Z</time></trkpt><trkpt lat="42.60976331943768" lon="11.777438833389311"><ele>481.83333333333337</ele><time>2026-04-24T10:07:40.002Z</time></trkpt><trkpt lat="42.60984542663906" lon="11.777387883435061"><ele>481.0</ele><time>2026-04-24T10:07:41.002Z</time></trkpt><trkpt lat="42.60993214915735" lon="11.77735300893607"><ele>481.00000000000006</ele><time>2026-04-24T10:07:42.002Z</time></trkpt><trkpt lat="42.61002114952673" lon="11.777322371769472"><ele>481.0</ele><time>2026-04-24T10:07:43.002Z</time></trkpt><trkpt lat="42.610100679114566" lon="11.777301815393288"><ele>481.0</ele><time>2026-04-24T10:07:44.002Z</time></trkpt><trkpt lat="42.61017960312195" lon="11.777273447479947"><ele>481.0</ele><time>2026-04-24T10:07:45.002Z</time></trkpt><trkpt lat="42.61025866038472" lon="11.77727274806396"><ele>481.00000000000006</ele><time>2026-04-24T10:07:46.002Z</time></trkpt><trkpt lat="42.61033868203141" lon="11.777281943084889"><ele>481.0</ele><time>2026-04-24T10:07:47.002Z</time></trkpt><trkpt lat="42.61041792922802" lon="11.777285700426155"><ele>479.20000000000005</ele><time>2026-04-24T10:07:48.002Z</time></trkpt><trkpt lat="42.61051805069211" lon="11.777296590961354"><ele>477.40000000000003</ele><time>2026-04-24T10:07:49.002Z</time></trkpt><trkpt lat="42.610616789148324" lon="11.77732102311795"><ele>475.6</ele><time>2026-04-24T10:07:50.002Z</time></trkpt><trkpt lat="42.61070890522086" lon="11.777372267624632"><ele>473.8</ele><time>2026-04-24T10:07:51.002Z</time></trkpt><trkpt lat="42.610796354914825" lon="11.777423161625661"><ele>472.0</ele><time>2026-04-24T10:07:52.002Z</time></trkpt><trkpt lat="42.61089228684827" lon="11.777466396775406"><ele>472.00000000000006</ele><time>2026-04-24T10:07:53.002Z</time></trkpt><trkpt lat="42.61098118372327" lon="11.777499942642834"><ele>472.0</ele><time>2026-04-24T10:07:54.002Z</time></trkpt><trkpt lat="42.61106423888271" lon="11.777534313592737"><ele>472.0</ele><time>2026-04-24T10:07:55.002Z</time></trkpt><trkpt lat="42.61115279621282" lon="11.777568117372903"><ele>472.0</ele><time>2026-04-24T10:07:56.002Z</time></trkpt><trkpt lat="42.61123154316498" lon="11.777600566023782"><ele>472.00000000000006</ele><time>2026-04-24T10:07:57.002Z</time></trkpt><trkpt lat="42.611308851399556" lon="11.777635529742673"><ele>472.0</ele><time>2026-04-24T10:07:58.003Z</time></trkpt><trkpt lat="42.611388067946464" lon="11.777660869342577"><ele>471.33333333333337</ele><time>2026-04-24T10:07:59.003Z</time></trkpt><trkpt lat="42.61145871673404" lon="11.777653874306495"><ele>470.6666666666667</ele><time>2026-04-24T10:08:00.003Z</time></trkpt><trkpt lat="42.61152014998976" lon="11.777632234424697"><ele>470.0</ele><time>2026-04-24T10:08:01.003Z</time></trkpt><trkpt lat="42.61160918169522" lon="11.777595567829643"><ele>469.33333333333337</ele><time>2026-04-24T10:08:02.003Z</time></trkpt><trkpt lat="42.61169251318272" lon="11.777548239170457"><ele>468.6666666666667</ele><time>2026-04-24T10:08:03.003Z</time></trkpt><trkpt lat="42.61177349416966" lon="11.77748086329554"><ele>468.0</ele><time>2026-04-24T10:08:04.003Z</time></trkpt><trkpt lat="42.61184900029887" lon="11.777411124495236"><ele>468.0</ele><time>2026-04-24T10:08:05.003Z</time></trkpt><trkpt lat="42.6119156038051" lon="11.777319124168288"><ele>468.0</ele><time>2026-04-24T10:08:06.003Z</time></trkpt><trkpt lat="42.61198654944138" lon="11.777242080620336"><ele>468.0</ele><time>2026-04-24T10:08:07.003Z</time></trkpt><trkpt lat="42.61205583293492" lon="11.777174490866487"><ele>468.0</ele><time>2026-04-24T10:08:08.003Z</time></trkpt><trkpt lat="42.61213144030651" lon="11.777139059437411"><ele>468.0</ele><time>2026-04-24T10:08:09.003Z</time></trkpt><trkpt lat="42.612191206843846" lon="11.777088002791192"><ele>468.0</ele><time>2026-04-24T10:08:10.003Z</time></trkpt><trkpt lat="42.61226130660847" lon="11.777108951300429"><ele>467.8333333333333</ele><time>2026-04-24T10:08:11.003Z</time></trkpt><trkpt lat="42.61232359640125" lon="11.777130525388001"><ele>467.66666666666663</ele><time>2026-04-24T10:08:12.003Z</time></trkpt><trkpt lat="42.612415450340855" lon="11.777163397080209"><ele>467.5</ele><time>2026-04-24T10:08:13.003Z</time></trkpt><trkpt lat="42.612495821813326" lon="11.777183301364682"><ele>467.3333333333333</ele><time>2026-04-24T10:08:14.003Z</time></trkpt><trkpt lat="42.61257600341156" lon="11.777262213523612"><ele>467.16666666666663</ele><time>2026-04-24T10:08:15.003Z</time></trkpt><trkpt lat="42.61266163754104" lon="11.777331401486476"><ele>467.0</ele><time>2026-04-24T10:08:16.003Z</time></trkpt><trkpt lat="42.61276161229054" lon="11.777412287081953"><ele>466.5</ele><time>2026-04-24T10:08:17.003Z</time></trkpt><trkpt lat="42.61286333728463" lon="11.777497488353946"><ele>466.0</ele><time>2026-04-24T10:08:18.003Z</time></trkpt><trkpt lat="42.61298948427169" lon="11.777578745931958"><ele>465.5</ele><time>2026-04-24T10:08:19.003Z</time></trkpt><trkpt lat="42.61308894148116" lon="11.777694899352339"><ele>465.0</ele><time>2026-04-24T10:08:20.003Z</time></trkpt><trkpt lat="42.61319928091514" lon="11.777772520069517"><ele>465.0</ele><time>2026-04-24T10:08:21.003Z</time></trkpt><trkpt lat="42.61330900323549" lon="11.777846943942789"><ele>465.0</ele><time>2026-04-24T10:08:22.003Z</time></trkpt><trkpt lat="42.61342045892905" lon="11.777918519255785"><ele>465.0</ele><time>2026-04-24T10:08:23.003Z</time></trkpt><trkpt lat="42.61352143519819" lon="11.777981178783842"><ele>465.0</ele><time>2026-04-24T10:08:24.003Z</time></trkpt><trkpt lat="42.61359246612415" lon="11.778071758929679"><ele>463.2</ele><time>2026-04-24T10:08:25.003Z</time></trkpt><trkpt lat="42.61367350472203" lon="11.778149122949975"><ele>461.4</ele><time>2026-04-24T10:08:26.003Z</time></trkpt><trkpt lat="42.61376139216547" lon="11.778203340267389"><ele>459.6</ele><time>2026-04-24T10:08:27.003Z</time></trkpt><trkpt lat="42.613824468090314" lon="11.778301039791286"><ele>457.8</ele><time>2026-04-24T10:08:28.003Z</time></trkpt><trkpt lat="42.61388504694665" lon="11.77836097158669"><ele>456.0</ele><time>2026-04-24T10:08:29.003Z</time></trkpt><trkpt lat="42.61396448649241" lon="11.778436323108322"><ele>456.0</ele><time>2026-04-24T10:08:31.003Z</time></trkpt><trkpt lat="42.614031471307484" lon="11.778469469079887"><ele>456.0</ele><time>2026-04-24T10:08:33.003Z</time></trkpt><trkpt lat="42.61410260992803" lon="11.778482394538454"><ele>456.0</ele><time>2026-04-24T10:08:36.003Z</time></trkpt><trkpt lat="42.61422827796507" lon="11.778514833897587"><ele>456.0</ele><time>2026-04-24T10:08:39.003Z</time></trkpt><trkpt lat="42.61432447366038" lon="11.778527923998704"><ele>456.0</ele><time>2026-04-24T10:08:40.003Z</time></trkpt><trkpt lat="42.61442435369166" lon="11.778549573579431"><ele>457.5</ele><time>2026-04-24T10:08:41.003Z</time></trkpt><trkpt lat="42.614533627274035" lon="11.778573334789286"><ele>459.0</ele><time>2026-04-24T10:08:42.003Z</time></trkpt><trkpt lat="42.61465639276001" lon="11.778625238300418"><ele>460.5</ele><time>2026-04-24T10:08:43.003Z</time></trkpt><trkpt lat="42.61478483423563" lon="11.778629475121907"><ele>462.0</ele><time>2026-04-24T10:08:44.003Z</time></trkpt><trkpt lat="42.61491627062387" lon="11.778653148216662"><ele>462.0</ele><time>2026-04-24T10:08:45.003Z</time></trkpt><trkpt lat="42.61503504117155" lon="11.77869029218086"><ele>462.00000000000006</ele><time>2026-04-24T10:08:46.003Z</time></trkpt><trkpt lat="42.61514768216097" lon="11.778701899940474"><ele>462.00000000000006</ele><time>2026-04-24T10:08:47.004Z</time></trkpt><trkpt lat="42.61524368698055" lon="11.778719097286691"><ele>462.0</ele><time>2026-04-24T10:08:48.004Z</time></trkpt><trkpt lat="42.61532646739393" lon="11.77874043429766"><ele>462.0</ele><time>2026-04-24T10:08:49.004Z</time></trkpt><trkpt lat="42.61541755689256" lon="11.7787989045129"><ele>461.40000000000003</ele><time>2026-04-24T10:08:50.004Z</time></trkpt><trkpt lat="42.61552005612971" lon="11.778854565651793"><ele>460.80000000000007</ele><time>2026-04-24T10:08:51.004Z</time></trkpt><trkpt lat="42.61561968147073" lon="11.778921967308019"><ele>460.2</ele><time>2026-04-24T10:08:52.004Z</time></trkpt><trkpt lat="42.615702521553004" lon="11.77899626232183"><ele>459.6</ele><time>2026-04-24T10:08:53.004Z</time></trkpt><trkpt lat="42.61577797347552" lon="11.779064195525198"><ele>459.0</ele><time>2026-04-24T10:08:54.004Z</time></trkpt><trkpt lat="42.61584703161561" lon="11.77913584081394"><ele>459.0</ele><time>2026-04-24T10:08:55.004Z</time></trkpt><trkpt lat="42.61591220716351" lon="11.779213065032398"><ele>459.0</ele><time>2026-04-24T10:08:56.004Z</time></trkpt><trkpt lat="42.61597241324514" lon="11.779299449383705"><ele>459.0</ele><time>2026-04-24T10:08:57.004Z</time></trkpt><trkpt lat="42.616035813928725" lon="11.779381704459496"><ele>459.0</ele><time>2026-04-24T10:08:58.004Z</time></trkpt><trkpt lat="42.616083582187024" lon="11.779445227328008"><ele>459.0</ele><time>2026-04-24T10:08:59.004Z</time></trkpt><trkpt lat="42.61613257838901" lon="11.779508500281626"><ele>459.0</ele><time>2026-04-24T10:09:01.004Z</time></trkpt><trkpt lat="42.6159663639857" lon="11.779653872285605"><ele>459.79999999999995</ele><time>2026-04-24T10:09:04.004Z</time></trkpt><trkpt lat="42.61591606398917" lon="11.779741084419761"><ele>460.59999999999997</ele><time>2026-04-24T10:09:05.004Z</time></trkpt><trkpt lat="42.61589020047673" lon="11.779844255749524"><ele>461.4</ele><time>2026-04-24T10:09:06.004Z</time></trkpt><trkpt lat="42.615913748422344" lon="11.779990118085221"><ele>462.2</ele><time>2026-04-24T10:09:08.004Z</time></trkpt><trkpt lat="42.61598798358473" lon="11.780060378125938"><ele>463.0</ele><time>2026-04-24T10:09:09.004Z</time></trkpt><trkpt lat="42.616068648567875" lon="11.780167448602022"><ele>461.0</ele><time>2026-04-24T10:09:10.004Z</time></trkpt><trkpt lat="42.61615785896594" lon="11.780264953442414"><ele>459.0</ele><time>2026-04-24T10:09:11.004Z</time></trkpt><trkpt lat="42.616263780759446" lon="11.780395355490889"><ele>457.0</ele><time>2026-04-24T10:09:12.004Z</time></trkpt><trkpt lat="42.616364632880206" lon="11.780546592731124"><ele>455.0</ele><time>2026-04-24T10:09:13.004Z</time></trkpt><trkpt lat="42.61647813867778" lon="11.780698553014743"><ele>455.0</ele><time>2026-04-24T10:09:14.004Z</time></trkpt><trkpt lat="42.61658171912051" lon="11.780838803262908"><ele>455.0</ele><time>2026-04-24T10:09:15.004Z</time></trkpt><trkpt lat="42.61667456637297" lon="11.780968414076163"><ele>455.0</ele><time>2026-04-24T10:09:16.004Z</time></trkpt><trkpt lat="42.61678101661702" lon="11.781122892331735"><ele>455.0</ele><time>2026-04-24T10:09:17.004Z</time></trkpt><trkpt lat="42.61689671171881" lon="11.781294778895829"><ele>454.3333333333333</ele><time>2026-04-24T10:09:18.004Z</time></trkpt><trkpt lat="42.617029325916924" lon="11.78147636336085"><ele>453.66666666666663</ele><time>2026-04-24T10:09:19.004Z</time></trkpt><trkpt lat="42.61715955129232" lon="11.781631801058571"><ele>453.0</ele><time>2026-04-24T10:09:20.004Z</time></trkpt><trkpt lat="42.61727131342044" lon="11.781771956911209"><ele>454.25</ele><time>2026-04-24T10:09:21.004Z</time></trkpt><trkpt lat="42.61737185626725" lon="11.781890551113204"><ele>455.5</ele><time>2026-04-24T10:09:22.004Z</time></trkpt><trkpt lat="42.617473594434855" lon="11.782027881455049"><ele>456.75</ele><time>2026-04-24T10:09:23.004Z</time></trkpt><trkpt lat="42.617566327618015" lon="11.782149926257768"><ele>458.0</ele><time>2026-04-24T10:09:24.004Z</time></trkpt><trkpt lat="42.61764443800995" lon="11.782281282771416"><ele>458.0</ele><time>2026-04-24T10:09:25.004Z</time></trkpt><trkpt lat="42.61771425946742" lon="11.78239308374742"><ele>457.99999999999994</ele><time>2026-04-24T10:09:26.004Z</time></trkpt><trkpt lat="42.61778344268557" lon="11.782499703360031"><ele>457.99999999999994</ele><time>2026-04-24T10:09:27.004Z</time></trkpt><trkpt lat="42.6178271313802" lon="11.782598208025654"><ele>458.0</ele><time>2026-04-24T10:09:28.004Z</time></trkpt><trkpt lat="42.61785601748006" lon="11.782707346439619"><ele>458.0</ele><time>2026-04-24T10:09:29.004Z</time></trkpt><trkpt lat="42.61785266855153" lon="11.782833648379542"><ele>457.4</ele><time>2026-04-24T10:09:30.004Z</time></trkpt><trkpt lat="42.6178418513943" lon="11.78295613755975"><ele>456.79999999999995</ele><time>2026-04-24T10:09:31.004Z</time></trkpt><trkpt lat="42.6177965252148" lon="11.7830703489055"><ele>456.2</ele><time>2026-04-24T10:09:32.004Z</time></trkpt><trkpt lat="42.61776561003238" lon="11.783207519533848"><ele>455.6</ele><time>2026-04-24T10:09:33.004Z</time></trkpt><trkpt lat="42.61770204329123" lon="11.783339859634076"><ele>455.0</ele><time>2026-04-24T10:09:34.004Z</time></trkpt><trkpt lat="42.617642564441965" lon="11.783469230386684"><ele>454.5</ele><time>2026-04-24T10:09:35.004Z</time></trkpt><trkpt lat="42.61756317778472" lon="11.783599761421623"><ele>454.0</ele><time>2026-04-24T10:09:36.005Z</time></trkpt><trkpt lat="42.61748022775334" lon="11.783739124694156"><ele>453.5</ele><time>2026-04-24T10:09:37.005Z</time></trkpt><trkpt lat="42.6174132791976" lon="11.783873689266324"><ele>453.0</ele><time>2026-04-24T10:09:38.005Z</time></trkpt><trkpt lat="42.61736988095108" lon="11.78400724668562"><ele>453.0</ele><time>2026-04-24T10:09:39.005Z</time></trkpt><trkpt lat="42.617337188177" lon="11.784153826086365"><ele>452.99999999999994</ele><time>2026-04-24T10:09:40.005Z</time></trkpt><trkpt lat="42.617324425578616" lon="11.784307349829383"><ele>452.99999999999994</ele><time>2026-04-24T10:09:41.005Z</time></trkpt><trkpt lat="42.61732240992969" lon="11.784445405641693"><ele>453.0</ele><time>2026-04-24T10:09:42.005Z</time></trkpt><trkpt lat="42.617292401459" lon="11.784567950723321"><ele>453.0</ele><time>2026-04-24T10:09:43.005Z</time></trkpt><trkpt lat="42.61727008806501" lon="11.784696652332304"><ele>452.5</ele><time>2026-04-24T10:09:44.005Z</time></trkpt><trkpt lat="42.61724611569712" lon="11.784834626321656"><ele>452.0</ele><time>2026-04-24T10:09:45.005Z</time></trkpt><trkpt lat="42.61722556653576" lon="11.784986739114073"><ele>451.5</ele><time>2026-04-24T10:09:46.005Z</time></trkpt><trkpt lat="42.617203446439056" lon="11.785150481009458"><ele>451.0</ele><time>2026-04-24T10:09:47.005Z</time></trkpt><trkpt lat="42.61718618380498" lon="11.785308917553323"><ele>450.8</ele><time>2026-04-24T10:09:48.005Z</time></trkpt><trkpt lat="42.617173686374805" lon="11.785451282888072"><ele>450.6</ele><time>2026-04-24T10:09:49.005Z</time></trkpt><trkpt lat="42.61716874730944" lon="11.785581098044007"><ele>450.4</ele><time>2026-04-24T10:09:50.005Z</time></trkpt><trkpt lat="42.61717926483268" lon="11.7857147563212"><ele>450.2</ele><time>2026-04-24T10:09:51.005Z</time></trkpt><trkpt lat="42.617190582603726" lon="11.785854843452174"><ele>450.0</ele><time>2026-04-24T10:09:52.005Z</time></trkpt><trkpt lat="42.61719903750544" lon="11.785999939065121"><ele>450.25</ele><time>2026-04-24T10:09:53.005Z</time></trkpt><trkpt lat="42.61721957559913" lon="11.786179802741053"><ele>450.5</ele><time>2026-04-24T10:09:54.005Z</time></trkpt><trkpt lat="42.61723593843962" lon="11.78635160343939"><ele>450.75</ele><time>2026-04-24T10:09:55.005Z</time></trkpt><trkpt lat="42.617265644814154" lon="11.78654613970143"><ele>451.0</ele><time>2026-04-24T10:09:56.005Z</time></trkpt><trkpt lat="42.617274649343976" lon="11.786692175509923"><ele>451.0</ele><time>2026-04-24T10:09:57.005Z</time></trkpt><trkpt lat="42.617310196507646" lon="11.786861778413861"><ele>451.0</ele><time>2026-04-24T10:09:58.005Z</time></trkpt><trkpt lat="42.61734317965949" lon="11.78702346609809"><ele>451.0</ele><time>2026-04-24T10:09:59.005Z</time></trkpt><trkpt lat="42.617385641292984" lon="11.787203095025726"><ele>451.0</ele><time>2026-04-24T10:10:00.005Z</time></trkpt><trkpt lat="42.617428253583974" lon="11.787389446513927"><ele>451.0</ele><time>2026-04-24T10:10:01.005Z</time></trkpt><trkpt lat="42.61747057981439" lon="11.787574466673028"><ele>451.0</ele><time>2026-04-24T10:10:02.005Z</time></trkpt><trkpt lat="42.6175158952059" lon="11.78775131506747"><ele>451.0</ele><time>2026-04-24T10:10:03.005Z</time></trkpt><trkpt lat="42.61756187143496" lon="11.78793306975201"><ele>451.0</ele><time>2026-04-24T10:10:04.005Z</time></trkpt><trkpt lat="42.617606532802135" lon="11.788115492220562"><ele>450.5</ele><time>2026-04-24T10:10:05.005Z</time></trkpt><trkpt lat="42.617656084411706" lon="11.788307220785066"><ele>450.0</ele><time>2026-04-24T10:10:06.005Z</time></trkpt><trkpt lat="42.61769482683511" lon="11.788492200469783"><ele>449.5</ele><time>2026-04-24T10:10:07.005Z</time></trkpt><trkpt lat="42.61772548962779" lon="11.78867826388847"><ele>449.0</ele><time>2026-04-24T10:10:08.005Z</time></trkpt><trkpt lat="42.61775032533511" lon="11.788872894814677"><ele>448.75</ele><time>2026-04-24T10:10:09.005Z</time></trkpt><trkpt lat="42.617768535752155" lon="11.789060969913816"><ele>448.5</ele><time>2026-04-24T10:10:10.005Z</time></trkpt><trkpt lat="42.61778152575236" lon="11.789248421445516"><ele>448.25</ele><time>2026-04-24T10:10:11.005Z</time></trkpt><trkpt lat="42.61779952087591" lon="11.789441924365851"><ele>448.0</ele><time>2026-04-24T10:10:12.005Z</time></trkpt><trkpt lat="42.61782854235125" lon="11.78964893943364"><ele>447.6666666666667</ele><time>2026-04-24T10:10:13.005Z</time></trkpt><trkpt lat="42.617866251113796" lon="11.789861917271736"><ele>447.33333333333337</ele><time>2026-04-24T10:10:14.005Z</time></trkpt><trkpt lat="42.617902675778424" lon="11.790065845476022"><ele>447.0</ele><time>2026-04-24T10:10:15.005Z</time></trkpt><trkpt lat="42.617946355917226" lon="11.790254556009979"><ele>447.0</ele><time>2026-04-24T10:10:16.005Z</time></trkpt><trkpt lat="42.617990224435" lon="11.790447564559752"><ele>447.0</ele><time>2026-04-24T10:10:17.005Z</time></trkpt><trkpt lat="42.6180437861998" lon="11.79064118934782"><ele>447.0</ele><time>2026-04-24T10:10:18.005Z</time></trkpt><trkpt lat="42.61809860907425" lon="11.79082987685892"><ele>447.0</ele><time>2026-04-24T10:10:19.005Z</time></trkpt><trkpt lat="42.618156833476654" lon="11.79102926647737"><ele>447.0</ele><time>2026-04-24T10:10:20.005Z</time></trkpt><trkpt lat="42.61821512659517" lon="11.791217201520706"><ele>447.0</ele><time>2026-04-24T10:10:21.005Z</time></trkpt><trkpt lat="42.61827658859488" lon="11.79141222691942"><ele>447.0</ele><time>2026-04-24T10:10:22.005Z</time></trkpt><trkpt lat="42.61833490695436" lon="11.791606852999877"><ele>447.0</ele><time>2026-04-24T10:10:23.005Z</time></trkpt><trkpt lat="42.618392138889234" lon="11.791814381757026"><ele>447.0</ele><time>2026-04-24T10:10:24.005Z</time></trkpt><trkpt lat="42.618453519026914" lon="11.792020798316555"><ele>447.66666666666663</ele><time>2026-04-24T10:10:25.006Z</time></trkpt><trkpt lat="42.618513394134276" lon="11.792216101855868"><ele>448.3333333333333</ele><time>2026-04-24T10:10:26.006Z</time></trkpt><trkpt lat="42.61857346650089" lon="11.79241386528788"><ele>449.0</ele><time>2026-04-24T10:10:27.006Z</time></trkpt><trkpt lat="42.61862801459385" lon="11.792591098496109"><ele>449.5</ele><time>2026-04-24T10:10:28.006Z</time></trkpt><trkpt lat="42.61868766079051" lon="11.792776554109322"><ele>450.0</ele><time>2026-04-24T10:10:29.006Z</time></trkpt><trkpt lat="42.61874900703295" lon="11.792959356601058"><ele>450.5</ele><time>2026-04-24T10:10:30.006Z</time></trkpt><trkpt lat="42.61880989934533" lon="11.79314661865269"><ele>451.0</ele><time>2026-04-24T10:10:31.006Z</time></trkpt><trkpt lat="42.6188730536329" lon="11.79333017815855"><ele>451.0</ele><time>2026-04-24T10:10:32.006Z</time></trkpt><trkpt lat="42.6189227454497" lon="11.793488585034611"><ele>451.0</ele><time>2026-04-24T10:10:33.006Z</time></trkpt><trkpt lat="42.61896567416027" lon="11.793637956541373"><ele>451.0</ele><time>2026-04-24T10:10:34.006Z</time></trkpt><trkpt lat="42.61900500712781" lon="11.793778439280954"><ele>451.0</ele><time>2026-04-24T10:10:35.006Z</time></trkpt><trkpt lat="42.61905140844049" lon="11.793931310051308"><ele>450.75</ele><time>2026-04-24T10:10:36.006Z</time></trkpt><trkpt lat="42.61910189912226" lon="11.794073691075022"><ele>450.5</ele><time>2026-04-24T10:10:37.006Z</time></trkpt><trkpt lat="42.619153708067664" lon="11.794206551538375"><ele>450.25</ele><time>2026-04-24T10:10:38.006Z</time></trkpt><trkpt lat="42.61920906111379" lon="11.794342578535977"><ele>450.0</ele><time>2026-04-24T10:10:39.006Z</time></trkpt><trkpt lat="42.61924113322865" lon="11.794492544901283"><ele>449.8</ele><time>2026-04-24T10:10:40.006Z</time></trkpt><trkpt lat="42.61929904889584" lon="11.794640612404406"><ele>449.6</ele><time>2026-04-24T10:10:41.006Z</time></trkpt><trkpt lat="42.61935409374052" lon="11.794785452808268"><ele>449.4</ele><time>2026-04-24T10:10:42.006Z</time></trkpt><trkpt lat="42.61939460730875" lon="11.794917182874846"><ele>449.2</ele><time>2026-04-24T10:10:43.006Z</time></trkpt><trkpt lat="42.619431958888896" lon="11.795036528505024"><ele>449.0</ele><time>2026-04-24T10:10:44.006Z</time></trkpt><trkpt lat="42.61948794540367" lon="11.79512640797633"><ele>448.4</ele><time>2026-04-24T10:10:45.006Z</time></trkpt><trkpt lat="42.61954475476635" lon="11.795222206509175"><ele>447.79999999999995</ele><time>2026-04-24T10:10:46.006Z</time></trkpt><trkpt lat="42.61960576277043" lon="11.795313945430513"><ele>447.20000000000005</ele><time>2026-04-24T10:10:47.006Z</time></trkpt><trkpt lat="42.6196753051215" lon="11.795405060632124"><ele>446.6</ele><time>2026-04-24T10:10:48.006Z</time></trkpt><trkpt lat="42.61975870367851" lon="11.795503425255209"><ele>446.0</ele><time>2026-04-24T10:10:49.006Z</time></trkpt><trkpt lat="42.619856558736004" lon="11.795604571202071"><ele>446.0</ele><time>2026-04-24T10:10:50.006Z</time></trkpt><trkpt lat="42.61996652954558" lon="11.795711822955493"><ele>446.0</ele><time>2026-04-24T10:10:51.006Z</time></trkpt><trkpt lat="42.62007239807025" lon="11.795814199117968"><ele>446.0</ele><time>2026-04-24T10:10:52.006Z</time></trkpt><trkpt lat="42.6201613464241" lon="11.795927584006943"><ele>446.0</ele><time>2026-04-24T10:10:53.006Z</time></trkpt><trkpt lat="42.620250505527686" lon="11.796015645037912"><ele>444.6</ele><time>2026-04-24T10:10:54.006Z</time></trkpt><trkpt lat="42.62033006741944" lon="11.79610241515188"><ele>443.20000000000005</ele><time>2026-04-24T10:10:55.006Z</time></trkpt><trkpt lat="42.62041598119927" lon="11.796199291604115"><ele>441.79999999999995</ele><time>2026-04-24T10:10:56.006Z</time></trkpt><trkpt lat="42.62049119378934" lon="11.796279051046252"><ele>440.4</ele><time>2026-04-24T10:10:57.006Z</time></trkpt><trkpt lat="42.62056377452884" lon="11.796359229530799"><ele>439.0</ele><time>2026-04-24T10:10:58.006Z</time></trkpt><trkpt lat="42.620633661050725" lon="11.796440247257443"><ele>439.0</ele><time>2026-04-24T10:10:59.006Z</time></trkpt><trkpt lat="42.620710953946805" lon="11.796524335581932"><ele>439.0</ele><time>2026-04-24T10:11:00.006Z</time></trkpt><trkpt lat="42.6207798667879" lon="11.796622248506855"><ele>439.0</ele><time>2026-04-24T10:11:01.006Z</time></trkpt><trkpt lat="42.62085107635131" lon="11.79673323431621"><ele>439.0</ele><time>2026-04-24T10:11:02.006Z</time></trkpt><trkpt lat="42.62091023070417" lon="11.796848824503167"><ele>439.0</ele><time>2026-04-24T10:11:03.006Z</time></trkpt><trkpt lat="42.620961084938344" lon="11.79695649183728"><ele>438.6</ele><time>2026-04-24T10:11:04.006Z</time></trkpt><trkpt lat="42.621009110560145" lon="11.797066269606441"><ele>438.2</ele><time>2026-04-24T10:11:05.006Z</time></trkpt><trkpt lat="42.62102519313462" lon="11.797185934281506"><ele>437.80000000000007</ele><time>2026-04-24T10:11:06.006Z</time></trkpt><trkpt lat="42.62104979817902" lon="11.797310162633552"><ele>437.40000000000003</ele><time>2026-04-24T10:11:07.006Z</time></trkpt><trkpt lat="42.621071710746115" lon="11.797435150216701"><ele>437.0</ele><time>2026-04-24T10:11:08.006Z</time></trkpt><trkpt lat="42.621095386161436" lon="11.797584945281159"><ele>436.75</ele><time>2026-04-24T10:11:09.006Z</time></trkpt><trkpt lat="42.621116962561004" lon="11.797736734532885"><ele>436.5</ele><time>2026-04-24T10:11:10.006Z</time></trkpt><trkpt lat="42.62113543829116" lon="11.797889589860224"><ele>436.25</ele><time>2026-04-24T10:11:11.006Z</time></trkpt><trkpt lat="42.62115049000517" lon="11.798042947877608"><ele>436.0</ele><time>2026-04-24T10:11:12.006Z</time></trkpt><trkpt lat="42.62116214755081" lon="11.798194215116823"><ele>436.0</ele><time>2026-04-24T10:11:13.007Z</time></trkpt><trkpt lat="42.621184716932795" lon="11.798347288610788"><ele>436.0</ele><time>2026-04-24T10:11:14.007Z</time></trkpt><trkpt lat="42.62118555529762" lon="11.798518496834934"><ele>436.0</ele><time>2026-04-24T10:11:15.007Z</time></trkpt><trkpt lat="42.62118733077194" lon="11.798694091712505"><ele>436.0</ele><time>2026-04-24T10:11:16.007Z</time></trkpt><trkpt lat="42.621189120853806" lon="11.798855073551898"><ele>436.0</ele><time>2026-04-24T10:11:17.007Z</time></trkpt><trkpt lat="42.62119382116176" lon="11.799024218072395"><ele>436.0</ele><time>2026-04-24T10:11:18.007Z</time></trkpt><trkpt lat="42.62119539086126" lon="11.799180453016163"><ele>436.0</ele><time>2026-04-24T10:11:19.007Z</time></trkpt><trkpt lat="42.621197015994646" lon="11.799331384954456"><ele>436.0</ele><time>2026-04-24T10:11:20.007Z</time></trkpt><trkpt lat="42.62119411380461" lon="11.799471214993423"><ele>436.00000000000006</ele><time>2026-04-24T10:11:21.007Z</time></trkpt><trkpt lat="42.621185376561" lon="11.799599738579996"><ele>436.0</ele><time>2026-04-24T10:11:22.007Z</time></trkpt><trkpt lat="42.62118015744722" lon="11.799721019501385"><ele>436.0</ele><time>2026-04-24T10:11:23.007Z</time></trkpt><trkpt lat="42.62118214014485" lon="11.799831179627683"><ele>436.0</ele><time>2026-04-24T10:11:24.007Z</time></trkpt><trkpt lat="42.62118162171175" lon="11.799944706715857"><ele>436.00000000000006</ele><time>2026-04-24T10:11:25.007Z</time></trkpt><trkpt lat="42.62116300082874" lon="11.800067507938095"><ele>436.0</ele><time>2026-04-24T10:11:26.007Z</time></trkpt><trkpt lat="42.62113061937035" lon="11.8001830110026"><ele>436.0</ele><time>2026-04-24T10:11:27.007Z</time></trkpt><trkpt lat="42.62108286550111" lon="11.800301686129362"><ele>436.0</ele><time>2026-04-24T10:11:28.007Z</time></trkpt><trkpt lat="42.621021685045655" lon="11.800419999541804"><ele>436.0</ele><time>2026-04-24T10:11:29.007Z</time></trkpt><trkpt lat="42.62095994798302" lon="11.800539379836861"><ele>436.0</ele><time>2026-04-24T10:11:30.007Z</time></trkpt><trkpt lat="42.62089789515707" lon="11.800652678411607"><ele>436.0</ele><time>2026-04-24T10:11:31.007Z</time></trkpt><trkpt lat="42.6208368033185" lon="11.800764730425248"><ele>436.00000000000006</ele><time>2026-04-24T10:11:32.007Z</time></trkpt><trkpt lat="42.62078674707019" lon="11.80086389723709"><ele>436.0</ele><time>2026-04-24T10:11:33.007Z</time></trkpt><trkpt lat="42.62074407853439" lon="11.800964531669502"><ele>436.0</ele><time>2026-04-24T10:11:34.007Z</time></trkpt><trkpt lat="42.620709584710525" lon="11.801060195992786"><ele>436.0</ele><time>2026-04-24T10:11:35.007Z</time></trkpt><trkpt lat="42.62067664424859" lon="11.801164798989598"><ele>436.00000000000006</ele><time>2026-04-24T10:11:36.007Z</time></trkpt><trkpt lat="42.620642926580345" lon="11.80127689452247"><ele>436.0</ele><time>2026-04-24T10:11:37.007Z</time></trkpt><trkpt lat="42.620608865463986" lon="11.801391462811951"><ele>436.0</ele><time>2026-04-24T10:11:38.007Z</time></trkpt><trkpt lat="42.620587502296665" lon="11.801530344191047"><ele>436.0</ele><time>2026-04-24T10:11:39.007Z</time></trkpt><trkpt lat="42.620580059332035" lon="11.801677259499957"><ele>436.0</ele><time>2026-04-24T10:11:40.007Z</time></trkpt><trkpt lat="42.62057748313887" lon="11.801829945588585"><ele>436.0</ele><time>2026-04-24T10:11:41.007Z</time></trkpt><trkpt lat="42.62057921813893" lon="11.801990683943997"><ele>436.0</ele><time>2026-04-24T10:11:42.007Z</time></trkpt><trkpt lat="42.62058425811485" lon="11.80217293847265"><ele>436.0</ele><time>2026-04-24T10:11:43.007Z</time></trkpt><trkpt lat="42.620590442386096" lon="11.80234048481369"><ele>436.0</ele><time>2026-04-24T10:11:44.007Z</time></trkpt><trkpt lat="42.62057251184278" lon="11.80249093320228"><ele>436.0</ele><time>2026-04-24T10:11:45.007Z</time></trkpt><trkpt lat="42.62056538194865" lon="11.802630785209232"><ele>436.0</ele><time>2026-04-24T10:11:46.007Z</time></trkpt><trkpt lat="42.62055261489234" lon="11.802775445556438"><ele>436.0</ele><time>2026-04-24T10:11:47.007Z</time></trkpt><trkpt lat="42.62053782863702" lon="11.80291386514389"><ele>436.00000000000006</ele><time>2026-04-24T10:11:48.007Z</time></trkpt><trkpt lat="42.62052477180783" lon="11.803035176408233"><ele>436.0</ele><time>2026-04-24T10:11:49.007Z</time></trkpt><trkpt lat="42.620526861816856" lon="11.80314392732699"><ele>436.0</ele><time>2026-04-24T10:11:50.007Z</time></trkpt><trkpt lat="42.62054732250217" lon="11.803249153432581"><ele>436.0</ele><time>2026-04-24T10:11:51.007Z</time></trkpt><trkpt lat="42.62059610729526" lon="11.8033492329611"><ele>436.00000000000006</ele><time>2026-04-24T10:11:52.007Z</time></trkpt><trkpt lat="42.62063281976097" lon="11.80348103144188"><ele>436.0</ele><time>2026-04-24T10:11:53.007Z</time></trkpt><trkpt lat="42.62068259261506" lon="11.803587903536027"><ele>436.20000000000005</ele><time>2026-04-24T10:11:54.007Z</time></trkpt><trkpt lat="42.62072023873446" lon="11.80369313718404"><ele>436.40000000000003</ele><time>2026-04-24T10:11:55.007Z</time></trkpt><trkpt lat="42.62075298208638" lon="11.80380920293107"><ele>436.6</ele><time>2026-04-24T10:11:56.007Z</time></trkpt><trkpt lat="42.620776838648126" lon="11.803925441366227"><ele>436.8</ele><time>2026-04-24T10:11:57.007Z</time></trkpt><trkpt lat="42.62080287159586" lon="11.804067802214957"><ele>437.0</ele><time>2026-04-24T10:11:58.007Z</time></trkpt><trkpt lat="42.620826324232965" lon="11.804221034605403"><ele>437.0</ele><time>2026-04-24T10:11:59.007Z</time></trkpt><trkpt lat="42.62084915211699" lon="11.804382641887102"><ele>437.0</ele><time>2026-04-24T10:12:00.007Z</time></trkpt><trkpt lat="42.620875945841846" lon="11.80454285531851"><ele>437.0</ele><time>2026-04-24T10:12:01.007Z</time></trkpt><trkpt lat="42.62090183968881" lon="11.804702572169058"><ele>437.0</ele><time>2026-04-24T10:12:02.008Z</time></trkpt><trkpt lat="42.62095035832302" lon="11.804872069636948"><ele>437.0</ele><time>2026-04-24T10:12:03.008Z</time></trkpt><trkpt lat="42.6210034778848" lon="11.805031903801769"><ele>437.00000000000006</ele><time>2026-04-24T10:12:04.008Z</time></trkpt><trkpt lat="42.62105027199056" lon="11.805179180237884"><ele>437.00000000000006</ele><time>2026-04-24T10:12:05.008Z</time></trkpt><trkpt lat="42.62106990424606" lon="11.805313846567817"><ele>437.0</ele><time>2026-04-24T10:12:06.008Z</time></trkpt><trkpt lat="42.62109464826626" lon="11.80543566374011"><ele>437.0</ele><time>2026-04-24T10:12:07.008Z</time></trkpt><trkpt lat="42.62112734287398" lon="11.805555873934294"><ele>436.6</ele><time>2026-04-24T10:12:08.008Z</time></trkpt><trkpt lat="42.62116480284168" lon="11.805684003742412"><ele>436.20000000000005</ele><time>2026-04-24T10:12:09.008Z</time></trkpt><trkpt lat="42.62121607088588" lon="11.805833454443968"><ele>435.8</ele><time>2026-04-24T10:12:10.008Z</time></trkpt><trkpt lat="42.621249594464764" lon="11.805983113171806"><ele>435.4</ele><time>2026-04-24T10:12:11.008Z</time></trkpt><trkpt lat="42.62128179141634" lon="11.806118922676927"><ele>435.0</ele><time>2026-04-24T10:12:12.008Z</time></trkpt><trkpt lat="42.621321432567484" lon="11.806259959470419"><ele>435.0</ele><time>2026-04-24T10:12:13.008Z</time></trkpt><trkpt lat="42.621360977742135" lon="11.806397539049083"><ele>435.0</ele><time>2026-04-24T10:12:14.008Z</time></trkpt><trkpt lat="42.62140322692468" lon="11.806545772317557"><ele>435.0</ele><time>2026-04-24T10:12:15.008Z</time></trkpt><trkpt lat="42.62144071328409" lon="11.806701278550157"><ele>435.0</ele><time>2026-04-24T10:12:16.008Z</time></trkpt><trkpt lat="42.621474870900975" lon="11.806848690068936"><ele>434.75</ele><time>2026-04-24T10:12:17.008Z</time></trkpt><trkpt lat="42.6215068649391" lon="11.807001415605187"><ele>434.5</ele><time>2026-04-24T10:12:18.008Z</time></trkpt><trkpt lat="42.621547573982404" lon="11.807149237399157"><ele>434.25</ele><time>2026-04-24T10:12:19.008Z</time></trkpt><trkpt lat="42.62159029882973" lon="11.807297627105651"><ele>434.0</ele><time>2026-04-24T10:12:20.008Z</time></trkpt><trkpt lat="42.6216236577313" lon="11.807448999287303"><ele>434.0</ele><time>2026-04-24T10:12:21.008Z</time></trkpt><trkpt lat="42.621671421153934" lon="11.807595113239335"><ele>434.0</ele><time>2026-04-24T10:12:22.008Z</time></trkpt><trkpt lat="42.62172453100482" lon="11.807730243252815"><ele>434.0</ele><time>2026-04-24T10:12:23.008Z</time></trkpt><trkpt lat="42.62177462105209" lon="11.807853066906613"><ele>434.0</ele><time>2026-04-24T10:12:24.008Z</time></trkpt><trkpt lat="42.62182767714312" lon="11.807979053437396"><ele>434.0</ele><time>2026-04-24T10:12:25.008Z</time></trkpt><trkpt lat="42.62188279684593" lon="11.80810889988699"><ele>435.0</ele><time>2026-04-24T10:12:26.008Z</time></trkpt><trkpt lat="42.62192659899377" lon="11.808234132274546"><ele>436.0</ele><time>2026-04-24T10:12:27.008Z</time></trkpt><trkpt lat="42.62196859530092" lon="11.808357413402907"><ele>437.0</ele><time>2026-04-24T10:12:28.008Z</time></trkpt><trkpt lat="42.62201464912888" lon="11.808470259703375"><ele>438.0</ele><time>2026-04-24T10:12:29.008Z</time></trkpt><trkpt lat="42.62207981471547" lon="11.808588561912162"><ele>439.0</ele><time>2026-04-24T10:12:30.008Z</time></trkpt><trkpt lat="42.6221532573289" lon="11.80869770954633"><ele>440.4</ele><time>2026-04-24T10:12:31.008Z</time></trkpt><trkpt lat="42.622220230139526" lon="11.808798042482596"><ele>441.79999999999995</ele><time>2026-04-24T10:12:32.008Z</time></trkpt><trkpt lat="42.62228353693146" lon="11.808901437470764"><ele>443.20000000000005</ele><time>2026-04-24T10:12:33.008Z</time></trkpt><trkpt lat="42.62233907650406" lon="11.80900289560161"><ele>444.6</ele><time>2026-04-24T10:12:34.008Z</time></trkpt><trkpt lat="42.62237669098245" lon="11.809117170123793"><ele>446.0</ele><time>2026-04-24T10:12:35.008Z</time></trkpt><trkpt lat="42.622393313889354" lon="11.80922862665046"><ele>446.0</ele><time>2026-04-24T10:12:36.008Z</time></trkpt><trkpt lat="42.62237352727559" lon="11.809362513882318"><ele>446.0</ele><time>2026-04-24T10:12:37.008Z</time></trkpt><trkpt lat="42.62237364142736" lon="11.809498506744866"><ele>446.0</ele><time>2026-04-24T10:12:38.008Z</time></trkpt><trkpt lat="42.62236523247699" lon="11.80964257983584"><ele>446.0</ele><time>2026-04-24T10:12:39.008Z</time></trkpt><trkpt lat="42.62237044004958" lon="11.809818348577355"><ele>446.0</ele><time>2026-04-24T10:12:40.008Z</time></trkpt><trkpt lat="42.62238317304028" lon="11.81001891873681"><ele>445.75</ele><time>2026-04-24T10:12:41.008Z</time></trkpt><trkpt lat="42.62239420487849" lon="11.810216324409357"><ele>445.5</ele><time>2026-04-24T10:12:42.008Z</time></trkpt><trkpt lat="42.62241281722702" lon="11.810417947378234"><ele>445.25</ele><time>2026-04-24T10:12:43.008Z</time></trkpt><trkpt lat="42.62244249588229" lon="11.810596486750738"><ele>445.0</ele><time>2026-04-24T10:12:44.008Z</time></trkpt><trkpt lat="42.62247868162553" lon="11.810775333328182"><ele>445.0</ele><time>2026-04-24T10:12:45.008Z</time></trkpt><trkpt lat="42.62250780802456" lon="11.810954367984587"><ele>445.0</ele><time>2026-04-24T10:12:46.008Z</time></trkpt><trkpt lat="42.6225330370705" lon="11.8111299174109"><ele>445.0</ele><time>2026-04-24T10:12:47.008Z</time></trkpt><trkpt lat="42.62256076472126" lon="11.811313327733426"><ele>445.0</ele><time>2026-04-24T10:12:48.008Z</time></trkpt><trkpt lat="42.62258350446382" lon="11.811473222491506"><ele>444.75</ele><time>2026-04-24T10:12:49.008Z</time></trkpt><trkpt lat="42.62260141936911" lon="11.81161419395183"><ele>444.5</ele><time>2026-04-24T10:12:50.008Z</time></trkpt><trkpt lat="42.62258961968673" lon="11.811768704521384"><ele>444.25</ele><time>2026-04-24T10:12:51.009Z</time></trkpt><trkpt lat="42.62257852638878" lon="11.81194478353806"><ele>444.0</ele><time>2026-04-24T10:12:52.009Z</time></trkpt><trkpt lat="42.62256341973542" lon="11.812125552091365"><ele>443.25</ele><time>2026-04-24T10:12:53.009Z</time></trkpt><trkpt lat="42.62254878466751" lon="11.812300677583176"><ele>442.5</ele><time>2026-04-24T10:12:54.009Z</time></trkpt><trkpt lat="42.622553325499204" lon="11.812455560147919"><ele>441.75</ele><time>2026-04-24T10:12:55.009Z</time></trkpt><trkpt lat="42.622537071472074" lon="11.812606986655402"><ele>441.0</ele><time>2026-04-24T10:12:56.009Z</time></trkpt><trkpt lat="42.62254145157222" lon="11.81275164950898"><ele>440.25</ele><time>2026-04-24T10:12:57.009Z</time></trkpt><trkpt lat="42.62255715187707" lon="11.812902066868208"><ele>439.5</ele><time>2026-04-24T10:12:58.009Z</time></trkpt><trkpt lat="42.62259134128012" lon="11.81305722528514"><ele>438.75</ele><time>2026-04-24T10:12:59.009Z</time></trkpt><trkpt lat="42.62261469021515" lon="11.813211621105545"><ele>438.0</ele><time>2026-04-24T10:13:00.009Z</time></trkpt><trkpt lat="42.62263105598935" lon="11.813358727310343"><ele>437.5</ele><time>2026-04-24T10:13:01.009Z</time></trkpt><trkpt lat="42.62261111256125" lon="11.813502989670475"><ele>437.0</ele><time>2026-04-24T10:13:02.009Z</time></trkpt><trkpt lat="42.62258736039789" lon="11.81365174530681"><ele>436.5</ele><time>2026-04-24T10:13:03.009Z</time></trkpt><trkpt lat="42.62258060466507" lon="11.81382760002617"><ele>436.0</ele><time>2026-04-24T10:13:04.009Z</time></trkpt><trkpt lat="42.622559364878484" lon="11.814011606909945"><ele>436.0</ele><time>2026-04-24T10:13:05.009Z</time></trkpt><trkpt lat="42.62254678025935" lon="11.814187723869011"><ele>436.0</ele><time>2026-04-24T10:13:06.009Z</time></trkpt><trkpt lat="42.622529710624214" lon="11.814377598526454"><ele>436.0</ele><time>2026-04-24T10:13:07.009Z</time></trkpt><trkpt lat="42.622504497006716" lon="11.814549744657866"><ele>436.0</ele><time>2026-04-24T10:13:08.009Z</time></trkpt><trkpt lat="42.622503193272024" lon="11.814660631420509"><ele>435.6</ele><time>2026-04-24T10:13:09.009Z</time></trkpt><trkpt lat="42.62248374661784" lon="11.814781893255956"><ele>435.20000000000005</ele><time>2026-04-24T10:13:10.009Z</time></trkpt><trkpt lat="42.6224487319996" lon="11.81489667336898"><ele>434.79999999999995</ele><time>2026-04-24T10:13:11.009Z</time></trkpt><trkpt lat="42.62239069655095" lon="11.815019796128047"><ele>434.4</ele><time>2026-04-24T10:13:12.009Z</time></trkpt><trkpt lat="42.622321014492755" lon="11.815153944195396"><ele>434.0</ele><time>2026-04-24T10:13:13.009Z</time></trkpt><trkpt lat="42.622245041323225" lon="11.815287252211082"><ele>434.0</ele><time>2026-04-24T10:13:14.009Z</time></trkpt><trkpt lat="42.622178308149955" lon="11.81542330425824"><ele>434.0</ele><time>2026-04-24T10:13:15.009Z</time></trkpt><trkpt lat="42.62211729567035" lon="11.815565622188503"><ele>434.0</ele><time>2026-04-24T10:13:16.009Z</time></trkpt><trkpt lat="42.62203525463442" lon="11.815682979486338"><ele>434.0</ele><time>2026-04-24T10:13:17.009Z</time></trkpt><trkpt lat="42.62197942650679" lon="11.815799334205474"><ele>433.79999999999995</ele><time>2026-04-24T10:13:18.009Z</time></trkpt><trkpt lat="42.62192591662355" lon="11.815903524620074"><ele>433.59999999999997</ele><time>2026-04-24T10:13:19.009Z</time></trkpt><trkpt lat="42.62184927366089" lon="11.816015740695118"><ele>433.4</ele><time>2026-04-24T10:13:20.009Z</time></trkpt><trkpt lat="42.62176017934341" lon="11.816133374168551"><ele>433.2</ele><time>2026-04-24T10:13:21.009Z</time></trkpt><trkpt lat="42.62166241344878" lon="11.816221632888572"><ele>433.0</ele><time>2026-04-24T10:13:22.009Z</time></trkpt><trkpt lat="42.62157326592866" lon="11.816308371365848"><ele>433.0</ele><time>2026-04-24T10:13:23.009Z</time></trkpt><trkpt lat="42.6215024259607" lon="11.816396173252182"><ele>432.99999999999994</ele><time>2026-04-24T10:13:24.009Z</time></trkpt><trkpt lat="42.62144035502957" lon="11.816488692810982"><ele>432.99999999999994</ele><time>2026-04-24T10:13:25.009Z</time></trkpt><trkpt lat="42.62139310368443" lon="11.816601478430691"><ele>433.0</ele><time>2026-04-24T10:13:26.009Z</time></trkpt><trkpt lat="42.6213670660999" lon="11.81673416394936"><ele>433.0</ele><time>2026-04-24T10:13:27.009Z</time></trkpt><trkpt lat="42.62134289918712" lon="11.81688850117422"><ele>433.75</ele><time>2026-04-24T10:13:28.009Z</time></trkpt><trkpt lat="42.621311500947996" lon="11.817056255594435"><ele>434.5</ele><time>2026-04-24T10:13:29.009Z</time></trkpt><trkpt lat="42.62127305976139" lon="11.817251145024654"><ele>435.25</ele><time>2026-04-24T10:13:30.009Z</time></trkpt><trkpt lat="42.621230606044534" lon="11.817461220517139"><ele>436.0</ele><time>2026-04-24T10:13:31.009Z</time></trkpt><trkpt lat="42.62118366514505" lon="11.81765189201236"><ele>434.5</ele><time>2026-04-24T10:13:32.009Z</time></trkpt><trkpt lat="42.621136319620035" lon="11.817834807167195"><ele>433.0</ele><time>2026-04-24T10:13:33.009Z</time></trkpt><trkpt lat="42.62109315560943" lon="11.818001514504969"><ele>431.5</ele><time>2026-04-24T10:13:34.009Z</time></trkpt><trkpt lat="42.62104673717883" lon="11.818171131723298"><ele>430.0</ele><time>2026-04-24T10:13:35.009Z</time></trkpt><trkpt lat="42.62100461555891" lon="11.818330377055144"><ele>430.0</ele><time>2026-04-24T10:13:36.009Z</time></trkpt><trkpt lat="42.62095662199271" lon="11.818468066874944"><ele>430.0</ele><time>2026-04-24T10:13:37.009Z</time></trkpt><trkpt lat="42.62088458053257" lon="11.818588582888802"><ele>430.0</ele><time>2026-04-24T10:13:38.009Z</time></trkpt><trkpt lat="42.62082146823587" lon="11.818711579113472"><ele>430.0</ele><time>2026-04-24T10:13:39.009Z</time></trkpt><trkpt lat="42.62076175894796" lon="11.818816732342837"><ele>430.0</ele><time>2026-04-24T10:13:40.01Z</time></trkpt><trkpt lat="42.62069085826998" lon="11.818923939567918"><ele>431.6</ele><time>2026-04-24T10:13:41.01Z</time></trkpt><trkpt lat="42.62061763566608" lon="11.819017406240523"><ele>433.2</ele><time>2026-04-24T10:13:42.01Z</time></trkpt><trkpt lat="42.62054454235397" lon="11.819115990919636"><ele>434.79999999999995</ele><time>2026-04-24T10:13:43.01Z</time></trkpt><trkpt lat="42.62045858393515" lon="11.819170642436012"><ele>436.4</ele><time>2026-04-24T10:13:44.01Z</time></trkpt><trkpt lat="42.62038803241944" lon="11.819225233271904"><ele>438.0</ele><time>2026-04-24T10:13:45.01Z</time></trkpt><trkpt lat="42.62032809839782" lon="11.819275316872652"><ele>437.0</ele><time>2026-04-24T10:13:46.01Z</time></trkpt><trkpt lat="42.62026516739953" lon="11.819301971207981"><ele>436.0</ele><time>2026-04-24T10:13:47.01Z</time></trkpt><trkpt lat="42.62014420536552" lon="11.819309526798824"><ele>435.0</ele><time>2026-04-24T10:13:49.01Z</time></trkpt><trkpt lat="42.62001887133465" lon="11.819344429725676"><ele>434.0</ele><time>2026-04-24T10:13:51.01Z</time></trkpt><trkpt lat="42.619952962622676" lon="11.819352385908585"><ele>433.0</ele><time>2026-04-24T10:13:52.01Z</time></trkpt><trkpt lat="42.619888031765136" lon="11.819358877910366"><ele>432.0</ele><time>2026-04-24T10:13:53.01Z</time></trkpt><trkpt lat="42.61981451083295" lon="11.819360896691121"><ele>432.6</ele><time>2026-04-24T10:13:54.01Z</time></trkpt><trkpt lat="42.61973404081273" lon="11.819387514376396"><ele>433.20000000000005</ele><time>2026-04-24T10:13:55.01Z</time></trkpt><trkpt lat="42.61964377550123" lon="11.819407365614943"><ele>433.8</ele><time>2026-04-24T10:13:56.01Z</time></trkpt><trkpt lat="42.6195492626983" lon="11.819386775872312"><ele>434.4</ele><time>2026-04-24T10:13:57.01Z</time></trkpt><trkpt lat="42.619449536619626" lon="11.819381200697158"><ele>435.0</ele><time>2026-04-24T10:13:58.01Z</time></trkpt><trkpt lat="42.61934229236897" lon="11.81936886000164"><ele>435.0</ele><time>2026-04-24T10:13:59.01Z</time></trkpt><trkpt lat="42.619220416504035" lon="11.819374075577164"><ele>435.0</ele><time>2026-04-24T10:14:00.01Z</time></trkpt><trkpt lat="42.61910462463427" lon="11.81934836919808"><ele>435.0</ele><time>2026-04-24T10:14:01.01Z</time></trkpt><trkpt lat="42.61899059660188" lon="11.81932248758666"><ele>435.0</ele><time>2026-04-24T10:14:02.01Z</time></trkpt><trkpt lat="42.6188810279189" lon="11.819295193086752"><ele>433.25</ele><time>2026-04-24T10:14:03.01Z</time></trkpt><trkpt lat="42.61877191069348" lon="11.819276390700235"><ele>431.5</ele><time>2026-04-24T10:14:04.01Z</time></trkpt><trkpt lat="42.618660638753624" lon="11.819262500907175"><ele>429.75</ele><time>2026-04-24T10:14:05.01Z</time></trkpt><trkpt lat="42.6185432375656" lon="11.81927638166761"><ele>428.0</ele><time>2026-04-24T10:14:06.01Z</time></trkpt><trkpt lat="42.61840962475605" lon="11.819284580285514"><ele>427.5</ele><time>2026-04-24T10:14:07.01Z</time></trkpt><trkpt lat="42.61827886062376" lon="11.819299699257295"><ele>427.0</ele><time>2026-04-24T10:14:08.01Z</time></trkpt><trkpt lat="42.61816150176414" lon="11.819310217559602"><ele>426.5</ele><time>2026-04-24T10:14:09.01Z</time></trkpt><trkpt lat="42.61806217528019" lon="11.819331346485265"><ele>426.0</ele><time>2026-04-24T10:14:10.01Z</time></trkpt><trkpt lat="42.61794653497878" lon="11.81933785498746"><ele>425.6</ele><time>2026-04-24T10:14:11.01Z</time></trkpt><trkpt lat="42.61783866432114" lon="11.81935297908207"><ele>425.20000000000005</ele><time>2026-04-24T10:14:12.01Z</time></trkpt><trkpt lat="42.61773357327284" lon="11.819380485405507"><ele>424.79999999999995</ele><time>2026-04-24T10:14:13.01Z</time></trkpt><trkpt lat="42.61763514796964" lon="11.819429670277842"><ele>424.4</ele><time>2026-04-24T10:14:14.01Z</time></trkpt><trkpt lat="42.6175525283556" lon="11.819495221196977"><ele>424.0</ele><time>2026-04-24T10:14:15.01Z</time></trkpt><trkpt lat="42.61748475826904" lon="11.819560995255738"><ele>424.00000000000006</ele><time>2026-04-24T10:14:16.01Z</time></trkpt><trkpt lat="42.61744140568952" lon="11.819624279327762"><ele>424.0</ele><time>2026-04-24T10:14:17.01Z</time></trkpt><trkpt lat="42.617407290450515" lon="11.819722320216682"><ele>424.0</ele><time>2026-04-24T10:14:19.01Z</time></trkpt><trkpt lat="42.617360237815596" lon="11.819781789509953"><ele>424.0</ele><time>2026-04-24T10:14:21.01Z</time></trkpt><trkpt lat="42.617452652770304" lon="11.819913119427678"><ele>424.00000000000006</ele><time>2026-04-24T10:14:22.01Z</time></trkpt><trkpt lat="42.61747792202642" lon="11.820005453291992"><ele>424.0</ele><time>2026-04-24T10:14:23.01Z</time></trkpt><trkpt lat="42.617507521114184" lon="11.820110013937136"><ele>424.0</ele><time>2026-04-24T10:14:24.01Z</time></trkpt><trkpt lat="42.61744132767276" lon="11.820238804319235"><ele>424.0</ele><time>2026-04-24T10:14:25.01Z</time></trkpt><trkpt lat="42.61738919504877" lon="11.820346689429684"><ele>424.0</ele><time>2026-04-24T10:14:26.01Z</time></trkpt><trkpt lat="42.61731636314506" lon="11.820457565351642"><ele>424.0</ele><time>2026-04-24T10:14:27.01Z</time></trkpt><trkpt lat="42.61723779730151" lon="11.820581822603073"><ele>424.0</ele><time>2026-04-24T10:14:28.011Z</time></trkpt><trkpt lat="42.61715398347175" lon="11.820713645127885"><ele>424.0</ele><time>2026-04-24T10:14:29.011Z</time></trkpt><trkpt lat="42.61707720236126" lon="11.82083237087246"><ele>424.0</ele><time>2026-04-24T10:14:30.011Z</time></trkpt><trkpt lat="42.61701333440334" lon="11.820965347633994"><ele>424.0</ele><time>2026-04-24T10:14:31.011Z</time></trkpt><trkpt lat="42.61692565518692" lon="11.82109060174612"><ele>424.0</ele><time>2026-04-24T10:14:32.011Z</time></trkpt><trkpt lat="42.61684655727104" lon="11.821230266998967"><ele>424.25</ele><time>2026-04-24T10:14:33.011Z</time></trkpt><trkpt lat="42.61675614977963" lon="11.821354821447601"><ele>424.5</ele><time>2026-04-24T10:14:34.011Z</time></trkpt><trkpt lat="42.6166813305969" lon="11.821524623772945"><ele>424.75</ele><time>2026-04-24T10:14:35.011Z</time></trkpt><trkpt lat="42.616585294837506" lon="11.8216820253669"><ele>425.0</ele><time>2026-04-24T10:14:36.011Z</time></trkpt><trkpt lat="42.61649403128446" lon="11.821844104742533"><ele>425.75</ele><time>2026-04-24T10:14:37.011Z</time></trkpt><trkpt lat="42.61641581089355" lon="11.821981733629352"><ele>426.5</ele><time>2026-04-24T10:14:38.011Z</time></trkpt><trkpt lat="42.61633860036403" lon="11.822108187391281"><ele>427.25</ele><time>2026-04-24T10:14:39.011Z</time></trkpt><trkpt lat="42.61626267812517" lon="11.82225806226965"><ele>428.0</ele><time>2026-04-24T10:14:40.011Z</time></trkpt><trkpt lat="42.61617409227344" lon="11.822408361274167"><ele>428.0</ele><time>2026-04-24T10:14:41.011Z</time></trkpt><trkpt lat="42.616075762535615" lon="11.82254973899985"><ele>427.99999999999994</ele><time>2026-04-24T10:14:42.011Z</time></trkpt><trkpt lat="42.61599986927806" lon="11.822678721646858"><ele>427.99999999999994</ele><time>2026-04-24T10:14:43.011Z</time></trkpt><trkpt lat="42.61593636167281" lon="11.822786654538545"><ele>428.0</ele><time>2026-04-24T10:14:44.011Z</time></trkpt><trkpt lat="42.615889905856" lon="11.822865607450463"><ele>428.0</ele><time>2026-04-24T10:14:45.011Z</time></trkpt><trkpt lat="42.615839213769824" lon="11.82294785126887"><ele>427.99999999999994</ele><time>2026-04-24T10:14:57.011Z</time></trkpt><trkpt lat="42.615798626920046" lon="11.823024842712407"><ele>428.0</ele><time>2026-04-24T10:14:59.011Z</time></trkpt><trkpt lat="42.61571529792829" lon="11.823079890325657"><ele>428.0</ele><time>2026-04-24T10:15:01.011Z</time></trkpt><trkpt lat="42.615644843033856" lon="11.823054708605094"><ele>428.0</ele><time>2026-04-24T10:15:02.011Z</time></trkpt><trkpt lat="42.61557324262635" lon="11.823002825057035"><ele>427.99999999999994</ele><time>2026-04-24T10:15:03.011Z</time></trkpt><trkpt lat="42.61547055376567" lon="11.822952669816548"><ele>428.0</ele><time>2026-04-24T10:15:04.011Z</time></trkpt><trkpt lat="42.615377588469336" lon="11.822906854420532"><ele>427.49999999999994</ele><time>2026-04-24T10:15:05.011Z</time></trkpt><trkpt lat="42.615287408074764" lon="11.822884351582926"><ele>427.0</ele><time>2026-04-24T10:15:06.011Z</time></trkpt><trkpt lat="42.61521919967745" lon="11.82287981767957"><ele>426.5</ele><time>2026-04-24T10:15:07.011Z</time></trkpt><trkpt lat="42.615111146726996" lon="11.822907616310951"><ele>426.0</ele><time>2026-04-24T10:15:09.011Z</time></trkpt><trkpt lat="42.61506876860508" lon="11.822975759804264"><ele>425.49999999999994</ele><time>2026-04-24T10:15:10.011Z</time></trkpt><trkpt lat="42.6150602056928" lon="11.823073961614597"><ele>425.0</ele><time>2026-04-24T10:15:11.011Z</time></trkpt><trkpt lat="42.6150377085193" lon="11.823170626115628"><ele>425.0</ele><time>2026-04-24T10:15:12.011Z</time></trkpt><trkpt lat="42.61500704423309" lon="11.82331244393614"><ele>425.0</ele><time>2026-04-24T10:15:13.011Z</time></trkpt><trkpt lat="42.61495426100748" lon="11.823444287265845"><ele>425.0</ele><time>2026-04-24T10:15:14.011Z</time></trkpt><trkpt lat="42.6149172742069" lon="11.823588067596324"><ele>425.0</ele><time>2026-04-24T10:15:15.011Z</time></trkpt><trkpt lat="42.61487592783794" lon="11.823746044470145"><ele>425.2</ele><time>2026-04-24T10:15:16.011Z</time></trkpt><trkpt lat="42.6148328062973" lon="11.823896153476985"><ele>425.4</ele><time>2026-04-24T10:15:17.012Z</time></trkpt><trkpt lat="42.61480644606017" lon="11.824036500311403"><ele>425.6</ele><time>2026-04-24T10:15:18.012Z</time></trkpt><trkpt lat="42.61476241217162" lon="11.824168335239815"><ele>425.8</ele><time>2026-04-24T10:15:19.012Z</time></trkpt><trkpt lat="42.6147193286538" lon="11.824306635720689"><ele>426.0</ele><time>2026-04-24T10:15:20.012Z</time></trkpt><trkpt lat="42.61468634965381" lon="11.824444772976236"><ele>426.0</ele><time>2026-04-24T10:15:21.012Z</time></trkpt><trkpt lat="42.61464134824257" lon="11.824580983548328"><ele>426.0</ele><time>2026-04-24T10:15:22.012Z</time></trkpt><trkpt lat="42.61460836495843" lon="11.824711762576474"><ele>426.0</ele><time>2026-04-24T10:15:23.012Z</time></trkpt><trkpt lat="42.61457344167848" lon="11.824838028882445"><ele>426.0</ele><time>2026-04-24T10:15:24.012Z</time></trkpt><trkpt lat="42.61453544031829" lon="11.824966605853112"><ele>426.0</ele><time>2026-04-24T10:15:25.012Z</time></trkpt><trkpt lat="42.61449460104455" lon="11.825099844004637"><ele>426.4</ele><time>2026-04-24T10:15:26.012Z</time></trkpt><trkpt lat="42.61446840894436" lon="11.82523347369848"><ele>426.8</ele><time>2026-04-24T10:15:27.012Z</time></trkpt><trkpt lat="42.61443071032488" lon="11.825360130968498"><ele>427.19999999999993</ele><time>2026-04-24T10:15:28.012Z</time></trkpt><trkpt lat="42.61439280966125" lon="11.825478674073551"><ele>427.59999999999997</ele><time>2026-04-24T10:15:29.012Z</time></trkpt><trkpt lat="42.61436030965728" lon="11.82558813002342"><ele>428.0</ele><time>2026-04-24T10:15:30.012Z</time></trkpt><trkpt lat="42.61433059569868" lon="11.8256908000658"><ele>428.0</ele><time>2026-04-24T10:15:31.012Z</time></trkpt><trkpt lat="42.61432281113123" lon="11.82577996318215"><ele>427.99999999999994</ele><time>2026-04-24T10:15:32.012Z</time></trkpt><trkpt lat="42.61421124768076" lon="11.82585989107648"><ele>427.99999999999994</ele><time>2026-04-24T10:15:34.012Z</time></trkpt><trkpt lat="42.6141469888441" lon="11.825910133794352"><ele>428.0</ele><time>2026-04-24T10:15:35.012Z</time></trkpt><trkpt lat="42.614046748203684" lon="11.825999438686368"><ele>428.0</ele><time>2026-04-24T10:15:36.012Z</time></trkpt><trkpt lat="42.61396557603996" lon="11.826106545415124"><ele>426.75</ele><time>2026-04-24T10:15:37.012Z</time></trkpt><trkpt lat="42.61386718086826" lon="11.826171759894011"><ele>425.5</ele><time>2026-04-24T10:15:38.012Z</time></trkpt><trkpt lat="42.613779030828006" lon="11.826264003166589"><ele>424.25</ele><time>2026-04-24T10:15:39.012Z</time></trkpt><trkpt lat="42.613694229959464" lon="11.826362834503469"><ele>423.0</ele><time>2026-04-24T10:15:40.012Z</time></trkpt><trkpt lat="42.6136161399389" lon="11.826485807581962"><ele>423.0</ele><time>2026-04-24T10:15:41.012Z</time></trkpt><trkpt lat="42.61353667995279" lon="11.826623296358903"><ele>423.0</ele><time>2026-04-24T10:15:42.012Z</time></trkpt><trkpt lat="42.61345063338422" lon="11.826758352758738"><ele>423.0</ele><time>2026-04-24T10:15:43.012Z</time></trkpt><trkpt lat="42.61338474242395" lon="11.826908422917688"><ele>423.0</ele><time>2026-04-24T10:15:44.012Z</time></trkpt><trkpt lat="42.61329183732625" lon="11.827038308666603"><ele>423.75</ele><time>2026-04-24T10:15:45.012Z</time></trkpt><trkpt lat="42.61319225038531" lon="11.827165267688267"><ele>424.5</ele><time>2026-04-24T10:15:46.012Z</time></trkpt><trkpt lat="42.61307736291041" lon="11.827289029129654"><ele>425.25</ele><time>2026-04-24T10:15:47.012Z</time></trkpt><trkpt lat="42.61296846161532" lon="11.827393975867372"><ele>426.0</ele><time>2026-04-24T10:15:48.012Z</time></trkpt><trkpt lat="42.612848715919775" lon="11.827495973424188"><ele>425.75</ele><time>2026-04-24T10:15:49.012Z</time></trkpt><trkpt lat="42.61272297302924" lon="11.827608954778528"><ele>425.5</ele><time>2026-04-24T10:15:50.012Z</time></trkpt><trkpt lat="42.61260528855005" lon="11.82772913859044"><ele>425.25</ele><time>2026-04-24T10:15:51.012Z</time></trkpt><trkpt lat="42.61249822286234" lon="11.827843530149963"><ele>425.0</ele><time>2026-04-24T10:15:52.012Z</time></trkpt><trkpt lat="42.612400715554124" lon="11.827949427783992"><ele>425.0</ele><time>2026-04-24T10:15:53.012Z</time></trkpt><trkpt lat="42.612311740904225" lon="11.82804333997285"><ele>425.0</ele><time>2026-04-24T10:15:54.012Z</time></trkpt><trkpt lat="42.612223420114674" lon="11.828124565625373"><ele>425.0</ele><time>2026-04-24T10:15:55.012Z</time></trkpt><trkpt lat="42.61213961473657" lon="11.828193752931881"><ele>425.0</ele><time>2026-04-24T10:15:56.012Z</time></trkpt><trkpt lat="42.61204972739626" lon="11.828253848862722"><ele>425.0</ele><time>2026-04-24T10:15:57.012Z</time></trkpt><trkpt lat="42.6119510845424" lon="11.828289971199307"><ele>424.25</ele><time>2026-04-24T10:15:58.012Z</time></trkpt><trkpt lat="42.611847394580884" lon="11.828269610257511"><ele>423.5</ele><time>2026-04-24T10:15:59.012Z</time></trkpt><trkpt lat="42.611731947551384" lon="11.82827463104778"><ele>422.75</ele><time>2026-04-24T10:16:00.012Z</time></trkpt><trkpt lat="42.61159471088354" lon="11.828290166313062"><ele>422.0</ele><time>2026-04-24T10:16:01.012Z</time></trkpt><trkpt lat="42.61145131263403" lon="11.828280692790473"><ele>422.0</ele><time>2026-04-24T10:16:02.012Z</time></trkpt><trkpt lat="42.61129915647213" lon="11.828277750197433"><ele>422.0</ele><time>2026-04-24T10:16:03.012Z</time></trkpt><trkpt lat="42.61113992509623" lon="11.828274041230523"><ele>422.0</ele><time>2026-04-24T10:16:04.012Z</time></trkpt><trkpt lat="42.6109808026554" lon="11.8282744182052"><ele>421.0</ele><time>2026-04-24T10:16:05.012Z</time></trkpt><trkpt lat="42.610825953200134" lon="11.828272703460197"><ele>420.0</ele><time>2026-04-24T10:16:06.013Z</time></trkpt><trkpt lat="42.61066852115552" lon="11.828275514287776"><ele>419.0</ele><time>2026-04-24T10:16:07.013Z</time></trkpt><trkpt lat="42.610507902085374" lon="11.828274914567812"><ele>419.0</ele><time>2026-04-24T10:16:08.013Z</time></trkpt><trkpt lat="42.61034905323991" lon="11.828274301381416"><ele>419.0</ele><time>2026-04-24T10:16:09.013Z</time></trkpt><trkpt lat="42.6101873384553" lon="11.828274102904032"><ele>419.0</ele><time>2026-04-24T10:16:10.013Z</time></trkpt><trkpt lat="42.61002790985337" lon="11.828272237545725"><ele>418.66666666666663</ele><time>2026-04-24T10:16:11.013Z</time></trkpt><trkpt lat="42.60987683516162" lon="11.82826393721556"><ele>418.33333333333337</ele><time>2026-04-24T10:16:12.013Z</time></trkpt><trkpt lat="42.60972712606766" lon="11.828258586619379"><ele>418.0</ele><time>2026-04-24T10:16:13.013Z</time></trkpt><trkpt lat="42.60957739165765" lon="11.828254999022848"><ele>417.75</ele><time>2026-04-24T10:16:14.013Z</time></trkpt><trkpt lat="42.60942579596819" lon="11.828250828023677"><ele>417.5</ele><time>2026-04-24T10:16:15.013Z</time></trkpt><trkpt lat="42.60928027907835" lon="11.828247736769196"><ele>417.25</ele><time>2026-04-24T10:16:16.013Z</time></trkpt><trkpt lat="42.60914826248682" lon="11.828245806461476"><ele>417.0</ele><time>2026-04-24T10:16:17.013Z</time></trkpt><trkpt lat="42.60902089380229" lon="11.828247031223498"><ele>417.0</ele><time>2026-04-24T10:16:18.013Z</time></trkpt><trkpt lat="42.60888376311658" lon="11.82825158502473"><ele>417.0</ele><time>2026-04-24T10:16:19.013Z</time></trkpt><trkpt lat="42.608744758112394" lon="11.828275261968674"><ele>417.0</ele><time>2026-04-24T10:16:20.013Z</time></trkpt><trkpt lat="42.60861199001711" lon="11.828310775257666"><ele>417.0</ele><time>2026-04-24T10:16:21.013Z</time></trkpt><trkpt lat="42.608489961493895" lon="11.828358643606446"><ele>416.33333333333337</ele><time>2026-04-24T10:16:22.013Z</time></trkpt><trkpt lat="42.60835848395882" lon="11.828407011760046"><ele>415.6666666666667</ele><time>2026-04-24T10:16:23.013Z</time></trkpt><trkpt lat="42.608207204884685" lon="11.82845285596009"><ele>415.0</ele><time>2026-04-24T10:16:24.013Z</time></trkpt><trkpt lat="42.60804677258699" lon="11.828502326520065"><ele>414.6666666666667</ele><time>2026-04-24T10:16:25.013Z</time></trkpt><trkpt lat="42.6078921897187" lon="11.828554343451385"><ele>414.33333333333337</ele><time>2026-04-24T10:16:26.013Z</time></trkpt><trkpt lat="42.60774198780652" lon="11.828609214016623"><ele>414.0</ele><time>2026-04-24T10:16:27.013Z</time></trkpt><trkpt lat="42.60760094505183" lon="11.828666271460065"><ele>414.0</ele><time>2026-04-24T10:16:28.013Z</time></trkpt><trkpt lat="42.607455163753514" lon="11.828723249766023"><ele>414.0</ele><time>2026-04-24T10:16:29.013Z</time></trkpt><trkpt lat="42.60730960134906" lon="11.828783295120708"><ele>414.0</ele><time>2026-04-24T10:16:30.013Z</time></trkpt><trkpt lat="42.607170845417265" lon="11.82884251422586"><ele>414.0</ele><time>2026-04-24T10:16:31.013Z</time></trkpt><trkpt lat="42.60702796381373" lon="11.82889656043657"><ele>413.0</ele><time>2026-04-24T10:16:32.013Z</time></trkpt><trkpt lat="42.60688035372905" lon="11.82895323742379"><ele>412.0</ele><time>2026-04-24T10:16:33.013Z</time></trkpt><trkpt lat="42.60673665961805" lon="11.829008229083957"><ele>411.0</ele><time>2026-04-24T10:16:34.013Z</time></trkpt><trkpt lat="42.60659371827997" lon="11.82906243986156"><ele>411.0</ele><time>2026-04-24T10:16:35.013Z</time></trkpt><trkpt lat="42.60644763806994" lon="11.829111377760935"><ele>411.0</ele><time>2026-04-24T10:16:36.013Z</time></trkpt><trkpt lat="42.60630498852774" lon="11.829168910285956"><ele>411.0</ele><time>2026-04-24T10:16:37.013Z</time></trkpt><trkpt lat="42.60617280346155" lon="11.829227566707742"><ele>411.0</ele><time>2026-04-24T10:16:38.013Z</time></trkpt><trkpt lat="42.6060435437209" lon="11.829283954854855"><ele>410.25</ele><time>2026-04-24T10:16:39.013Z</time></trkpt><trkpt lat="42.6059136779436" lon="11.829328030146323"><ele>409.5</ele><time>2026-04-24T10:16:40.013Z</time></trkpt><trkpt lat="42.60577230112506" lon="11.829374774918929"><ele>408.75</ele><time>2026-04-24T10:16:41.013Z</time></trkpt><trkpt lat="42.605626366661234" lon="11.829432910969157"><ele>408.0</ele><time>2026-04-24T10:16:42.013Z</time></trkpt><trkpt lat="42.60549406215477" lon="11.829482908472194"><ele>408.0</ele><time>2026-04-24T10:16:43.013Z</time></trkpt><trkpt lat="42.60537247030172" lon="11.82952565072941"><ele>408.0</ele><time>2026-04-24T10:16:44.013Z</time></trkpt><trkpt lat="42.60524996195484" lon="11.829551132690833"><ele>408.0</ele><time>2026-04-24T10:16:45.013Z</time></trkpt><trkpt lat="42.605125688413565" lon="11.829562076489946"><ele>408.0</ele><time>2026-04-24T10:16:46.013Z</time></trkpt><trkpt lat="42.60500866357723" lon="11.829552258157815"><ele>408.75</ele><time>2026-04-24T10:16:47.013Z</time></trkpt><trkpt lat="42.60489053245095" lon="11.829534134422692"><ele>409.5</ele><time>2026-04-24T10:16:48.013Z</time></trkpt><trkpt lat="42.60477909064206" lon="11.829498462589749"><ele>410.25</ele><time>2026-04-24T10:16:49.013Z</time></trkpt><trkpt lat="42.60467227752925" lon="11.829459765491633"><ele>411.0</ele><time>2026-04-24T10:16:50.013Z</time></trkpt><trkpt lat="42.60457622198134" lon="11.829388902429816"><ele>411.0</ele><time>2026-04-24T10:16:51.013Z</time></trkpt><trkpt lat="42.60448552586439" lon="11.82932751365166"><ele>411.0</ele><time>2026-04-24T10:16:52.013Z</time></trkpt><trkpt lat="42.60438898944458" lon="11.829266076985313"><ele>411.0</ele><time>2026-04-24T10:16:53.013Z</time></trkpt><trkpt lat="42.60428631254993" lon="11.829205186175884"><ele>411.0</ele><time>2026-04-24T10:16:54.013Z</time></trkpt><trkpt lat="42.60417172643685" lon="11.829164022099484"><ele>411.0</ele><time>2026-04-24T10:16:55.014Z</time></trkpt><trkpt lat="42.60406099278864" lon="11.82908418019459"><ele>410.75</ele><time>2026-04-24T10:16:56.014Z</time></trkpt><trkpt lat="42.60394121995493" lon="11.829020308216236"><ele>410.5</ele><time>2026-04-24T10:16:57.014Z</time></trkpt><trkpt lat="42.603819102772626" lon="11.828955104667898"><ele>410.25</ele><time>2026-04-24T10:16:58.014Z</time></trkpt><trkpt lat="42.60370210477647" lon="11.828889430138236"><ele>410.0</ele><time>2026-04-24T10:16:59.014Z</time></trkpt><trkpt lat="42.60358176322368" lon="11.828821473723293"><ele>410.0</ele><time>2026-04-24T10:17:00.014Z</time></trkpt><trkpt lat="42.60345773940654" lon="11.8287517992095"><ele>410.0</ele><time>2026-04-24T10:17:01.014Z</time></trkpt><trkpt lat="42.60333728858295" lon="11.828686322210375"><ele>410.0</ele><time>2026-04-24T10:17:02.014Z</time></trkpt><trkpt lat="42.60321936119563" lon="11.828617408037607"><ele>410.0</ele><time>2026-04-24T10:17:03.014Z</time></trkpt><trkpt lat="42.603110062586246" lon="11.828548968201607"><ele>409.25</ele><time>2026-04-24T10:17:04.014Z</time></trkpt><trkpt lat="42.60300625365761" lon="11.828473486875135"><ele>408.5</ele><time>2026-04-24T10:17:05.014Z</time></trkpt><trkpt lat="42.60291205610868" lon="11.828394475168883"><ele>407.75</ele><time>2026-04-24T10:17:06.014Z</time></trkpt><trkpt lat="42.60282803980125" lon="11.828300966917926"><ele>407.0</ele><time>2026-04-24T10:17:07.014Z</time></trkpt><trkpt lat="42.60274506283783" lon="11.8281940949727"><ele>406.6</ele><time>2026-04-24T10:17:08.014Z</time></trkpt><trkpt lat="42.60267226284868" lon="11.828082633568979"><ele>406.20000000000005</ele><time>2026-04-24T10:17:09.014Z</time></trkpt><trkpt lat="42.60260765787584" lon="11.827968664535332"><ele>405.8</ele><time>2026-04-24T10:17:10.014Z</time></trkpt><trkpt lat="42.602549827728446" lon="11.827857075279434"><ele>405.4</ele><time>2026-04-24T10:17:11.014Z</time></trkpt><trkpt lat="42.60249594549073" lon="11.827757019550221"><ele>405.0</ele><time>2026-04-24T10:17:12.014Z</time></trkpt><trkpt lat="42.602448907919396" lon="11.82767017655364"><ele>405.4</ele><time>2026-04-24T10:17:13.014Z</time></trkpt><trkpt lat="42.602413306553316" lon="11.827599117449338"><ele>405.8</ele><time>2026-04-24T10:17:14.014Z</time></trkpt><trkpt lat="42.60238656748103" lon="11.827519553764143"><ele>406.20000000000005</ele><time>2026-04-24T10:17:17.014Z</time></trkpt><trkpt lat="42.602206255642024" lon="11.82747083062496"><ele>406.6</ele><time>2026-04-24T10:17:35.014Z</time></trkpt><trkpt lat="42.602111750800034" lon="11.827439569452505"><ele>407.0</ele><time>2026-04-24T10:17:36.014Z</time></trkpt><trkpt lat="42.60201309935003" lon="11.82742379345803"><ele>407.0</ele><time>2026-04-24T10:17:37.014Z</time></trkpt><trkpt lat="42.60189930843724" lon="11.82744955964523"><ele>407.0</ele><time>2026-04-24T10:17:38.014Z</time></trkpt><trkpt lat="42.60179697572586" lon="11.827466338254954"><ele>407.0</ele><time>2026-04-24T10:17:39.014Z</time></trkpt><trkpt lat="42.60169482873845" lon="11.82748574333468"><ele>407.0</ele><time>2026-04-24T10:17:40.014Z</time></trkpt><trkpt lat="42.6015952303853" lon="11.82749136053528"><ele>407.0</ele><time>2026-04-24T10:17:41.014Z</time></trkpt><trkpt lat="42.60148517988004" lon="11.827541133733824"><ele>407.0</ele><time>2026-04-24T10:17:42.014Z</time></trkpt><trkpt lat="42.60137218678053" lon="11.827588488120472"><ele>407.0</ele><time>2026-04-24T10:17:43.015Z</time></trkpt><trkpt lat="42.60125956986885" lon="11.827626635856312"><ele>407.0</ele><time>2026-04-24T10:17:44.015Z</time></trkpt><trkpt lat="42.601141810990754" lon="11.827651330519428"><ele>407.0</ele><time>2026-04-24T10:17:45.015Z</time></trkpt><trkpt lat="42.601017595610074" lon="11.827687617683194"><ele>406.75</ele><time>2026-04-24T10:17:46.015Z</time></trkpt><trkpt lat="42.60088497364963" lon="11.82772907166212"><ele>406.5</ele><time>2026-04-24T10:17:47.015Z</time></trkpt><trkpt lat="42.60075263080949" lon="11.827795211905496"><ele>406.25</ele><time>2026-04-24T10:17:48.015Z</time></trkpt><trkpt lat="42.60062109782782" lon="11.827810956783845"><ele>406.0</ele><time>2026-04-24T10:17:49.015Z</time></trkpt><trkpt lat="42.600506358617764" lon="11.82786111929507"><ele>406.0</ele><time>2026-04-24T10:17:50.015Z</time></trkpt><trkpt lat="42.600389388740915" lon="11.827890162877726"><ele>406.0</ele><time>2026-04-24T10:17:51.015Z</time></trkpt><trkpt lat="42.60026952256227" lon="11.827934939629758"><ele>406.0</ele><time>2026-04-24T10:17:52.015Z</time></trkpt><trkpt lat="42.60014081431523" lon="11.827977653260984"><ele>406.0</ele><time>2026-04-24T10:17:53.015Z</time></trkpt><trkpt lat="42.60000962675592" lon="11.82801387524532"><ele>405.5</ele><time>2026-04-24T10:17:54.015Z</time></trkpt><trkpt lat="42.59987622708503" lon="11.82804459647388"><ele>405.0</ele><time>2026-04-24T10:17:55.015Z</time></trkpt><trkpt lat="42.5997457852227" lon="11.828096951913642"><ele>404.5</ele><time>2026-04-24T10:17:56.015Z</time></trkpt><trkpt lat="42.5996201841771" lon="11.82815179076982"><ele>404.0</ele><time>2026-04-24T10:17:57.015Z</time></trkpt><trkpt lat="42.59950406169012" lon="11.828199742960532"><ele>404.0</ele><time>2026-04-24T10:17:58.015Z</time></trkpt><trkpt lat="42.59938821934303" lon="11.828251376907925"><ele>404.0</ele><time>2026-04-24T10:17:59.015Z</time></trkpt><trkpt lat="42.599272448768836" lon="11.828304103633325"><ele>404.0</ele><time>2026-04-24T10:18:00.015Z</time></trkpt><trkpt lat="42.59915446378604" lon="11.828344260278529"><ele>404.0</ele><time>2026-04-24T10:18:01.015Z</time></trkpt><trkpt lat="42.59902929849047" lon="11.828370373626163"><ele>404.0</ele><time>2026-04-24T10:18:02.015Z</time></trkpt><trkpt lat="42.59889750751051" lon="11.828383588301884"><ele>404.0</ele><time>2026-04-24T10:18:03.015Z</time></trkpt><trkpt lat="42.59876682071526" lon="11.82836749520747"><ele>404.0</ele><time>2026-04-24T10:18:04.015Z</time></trkpt><trkpt lat="42.59863499980654" lon="11.828371496662532"><ele>404.0</ele><time>2026-04-24T10:18:05.015Z</time></trkpt><trkpt lat="42.598500960729986" lon="11.828371245889905"><ele>404.0</ele><time>2026-04-24T10:18:06.015Z</time></trkpt><trkpt lat="42.59837470607498" lon="11.828381614781868"><ele>404.0</ele><time>2026-04-24T10:18:07.015Z</time></trkpt><trkpt lat="42.59825157628231" lon="11.828394756841822"><ele>404.0</ele><time>2026-04-24T10:18:08.015Z</time></trkpt><trkpt lat="42.59812239104508" lon="11.82841251050472"><ele>404.0</ele><time>2026-04-24T10:18:09.015Z</time></trkpt><trkpt lat="42.597992706365964" lon="11.828423037423494"><ele>404.0</ele><time>2026-04-24T10:18:10.015Z</time></trkpt><trkpt lat="42.59785811132793" lon="11.828424426845949"><ele>404.0</ele><time>2026-04-24T10:18:11.015Z</time></trkpt><trkpt lat="42.597720982553945" lon="11.828422879483458"><ele>404.0</ele><time>2026-04-24T10:18:12.015Z</time></trkpt><trkpt lat="42.59759000473963" lon="11.82842601784479"><ele>404.0</ele><time>2026-04-24T10:18:13.015Z</time></trkpt><trkpt lat="42.59744383604166" lon="11.828435823559335"><ele>404.0</ele><time>2026-04-24T10:18:14.015Z</time></trkpt><trkpt lat="42.59728694124873" lon="11.828441521418327"><ele>404.0</ele><time>2026-04-24T10:18:15.014Z</time></trkpt><trkpt lat="42.59710856111089" lon="11.8284531574148"><ele>404.0</ele><time>2026-04-24T10:18:16.014Z</time></trkpt><trkpt lat="42.59697452222598" lon="11.828500289074642"><ele>404.0</ele><time>2026-04-24T10:18:18.014Z</time></trkpt><trkpt lat="42.59683377609004" lon="11.828504120550043"><ele>404.0</ele><time>2026-04-24T10:18:19.014Z</time></trkpt><trkpt lat="42.59669221561566" lon="11.82851122031125"><ele>404.0</ele><time>2026-04-24T10:18:20.014Z</time></trkpt><trkpt lat="42.59655325151519" lon="11.828519032883342"><ele>404.0</ele><time>2026-04-24T10:18:21.014Z</time></trkpt><trkpt lat="42.59641864471562" lon="11.828527192566751"><ele>404.0</ele><time>2026-04-24T10:18:22.014Z</time></trkpt><trkpt lat="42.59629054595484" lon="11.828538706249146"><ele>404.0</ele><time>2026-04-24T10:18:23.014Z</time></trkpt><trkpt lat="42.59616632809024" lon="11.828546098702033"><ele>404.0</ele><time>2026-04-24T10:18:24.014Z</time></trkpt><trkpt lat="42.59604900838638" lon="11.828554049825565"><ele>404.0</ele><time>2026-04-24T10:18:25.014Z</time></trkpt><trkpt lat="42.595928826301865" lon="11.828561457014228"><ele>403.5</ele><time>2026-04-24T10:18:26.014Z</time></trkpt><trkpt lat="42.595818606574596" lon="11.82856765830436"><ele>403.0</ele><time>2026-04-24T10:18:27.014Z</time></trkpt><trkpt lat="42.595707582691126" lon="11.828570103546522"><ele>402.5</ele><time>2026-04-24T10:18:28.014Z</time></trkpt><trkpt lat="42.595579921967925" lon="11.828575478509686"><ele>402.0</ele><time>2026-04-24T10:18:29.015Z</time></trkpt><trkpt lat="42.59543804304934" lon="11.828577335860405"><ele>401.75</ele><time>2026-04-24T10:18:30.015Z</time></trkpt><trkpt lat="42.595283921269285" lon="11.828586511665776"><ele>401.5</ele><time>2026-04-24T10:18:31.015Z</time></trkpt><trkpt lat="42.595135667670185" lon="11.828594454048522"><ele>401.25</ele><time>2026-04-24T10:18:32.015Z</time></trkpt><trkpt lat="42.5949953510923" lon="11.828602101546835"><ele>401.0</ele><time>2026-04-24T10:18:33.015Z</time></trkpt><trkpt lat="42.59486372247687" lon="11.828610017422942"><ele>401.0</ele><time>2026-04-24T10:18:34.015Z</time></trkpt><trkpt lat="42.59474668599512" lon="11.828618624413325"><ele>401.0</ele><time>2026-04-24T10:18:35.015Z</time></trkpt><trkpt lat="42.59462602101408" lon="11.828631876182065"><ele>401.0</ele><time>2026-04-24T10:18:36.015Z</time></trkpt><trkpt lat="42.59451293442282" lon="11.828640088492183"><ele>401.0</ele><time>2026-04-24T10:18:37.015Z</time></trkpt><trkpt lat="42.59441182273337" lon="11.828636829318414"><ele>401.20000000000005</ele><time>2026-04-24T10:18:38.015Z</time></trkpt><trkpt lat="42.59432450019763" lon="11.828642634504375"><ele>401.40000000000003</ele><time>2026-04-24T10:18:39.015Z</time></trkpt><trkpt lat="42.594239437720056" lon="11.828695319224439"><ele>401.6</ele><time>2026-04-24T10:18:40.015Z</time></trkpt><trkpt lat="42.59415269150734" lon="11.828653414184213"><ele>401.8</ele><time>2026-04-24T10:18:41.015Z</time></trkpt><trkpt lat="42.59405770875932" lon="11.828624834244266"><ele>402.0</ele><time>2026-04-24T10:18:42.015Z</time></trkpt><trkpt lat="42.5939377492711" lon="11.828583957223133"><ele>402.0</ele><time>2026-04-24T10:18:43.015Z</time></trkpt><trkpt lat="42.59376630689423" lon="11.828542737155074"><ele>402.0</ele><time>2026-04-24T10:18:44.015Z</time></trkpt><trkpt lat="42.593604097573646" lon="11.828444969701433"><ele>402.0</ele><time>2026-04-24T10:18:45.015Z</time></trkpt><trkpt lat="42.59344071756868" lon="11.828383657700089"><ele>401.33333333333337</ele><time>2026-04-24T10:18:46.015Z</time></trkpt><trkpt lat="42.593284011782195" lon="11.828330083472592"><ele>400.6666666666667</ele><time>2026-04-24T10:18:47.015Z</time></trkpt><trkpt lat="42.59312199298741" lon="11.828282240535112"><ele>400.0</ele><time>2026-04-24T10:18:48.015Z</time></trkpt><trkpt lat="42.59295681033156" lon="11.828233161447473"><ele>400.6666666666667</ele><time>2026-04-24T10:18:49.015Z</time></trkpt><trkpt lat="42.59280562978485" lon="11.82817703178594"><ele>401.33333333333337</ele><time>2026-04-24T10:18:50.015Z</time></trkpt><trkpt lat="42.592649997333446" lon="11.82812220077928"><ele>402.0</ele><time>2026-04-24T10:18:51.015Z</time></trkpt><trkpt lat="42.59250065014143" lon="11.828065973751727"><ele>402.0</ele><time>2026-04-24T10:18:52.015Z</time></trkpt><trkpt lat="42.59234799251279" lon="11.828007712972807"><ele>402.0</ele><time>2026-04-24T10:18:53.015Z</time></trkpt><trkpt lat="42.592190166984295" lon="11.827957249425758"><ele>402.0</ele><time>2026-04-24T10:18:54.015Z</time></trkpt><trkpt lat="42.592023661480404" lon="11.827892898501938"><ele>401.0</ele><time>2026-04-24T10:18:55.015Z</time></trkpt><trkpt lat="42.59185474222175" lon="11.827833426464196"><ele>400.0</ele><time>2026-04-24T10:18:56.015Z</time></trkpt><trkpt lat="42.591681749368455" lon="11.827781411794305"><ele>399.0</ele><time>2026-04-24T10:18:57.015Z</time></trkpt><trkpt lat="42.591507211994674" lon="11.827721472325788"><ele>399.0</ele><time>2026-04-24T10:18:58.015Z</time></trkpt><trkpt lat="42.59132697280231" lon="11.827661667822747"><ele>399.0</ele><time>2026-04-24T10:18:59.015Z</time></trkpt><trkpt lat="42.591155296979444" lon="11.827613808170785"><ele>399.0</ele><time>2026-04-24T10:19:00.015Z</time></trkpt><trkpt lat="42.591001439333944" lon="11.827542088001845"><ele>399.0</ele><time>2026-04-24T10:19:01.015Z</time></trkpt><trkpt lat="42.59084015300415" lon="11.827512352156711"><ele>399.0</ele><time>2026-04-24T10:19:02.015Z</time></trkpt><trkpt lat="42.59068147902955" lon="11.827484429564446"><ele>399.0</ele><time>2026-04-24T10:19:03.015Z</time></trkpt><trkpt lat="42.59051765893369" lon="11.827455827265661"><ele>399.0</ele><time>2026-04-24T10:19:04.015Z</time></trkpt><trkpt lat="42.590356511916504" lon="11.827432716384106"><ele>399.0</ele><time>2026-04-24T10:19:05.015Z</time></trkpt><trkpt lat="42.590196492625786" lon="11.8274066868474"><ele>399.0</ele><time>2026-04-24T10:19:06.015Z</time></trkpt><trkpt lat="42.59003486615388" lon="11.827389823563838"><ele>399.33333333333337</ele><time>2026-04-24T10:19:07.015Z</time></trkpt><trkpt lat="42.589866573737986" lon="11.827375276955044"><ele>399.6666666666667</ele><time>2026-04-24T10:19:08.015Z</time></trkpt><trkpt lat="42.589699031046884" lon="11.827357173184128"><ele>400.0</ele><time>2026-04-24T10:19:09.015Z</time></trkpt><trkpt lat="42.58952902848941" lon="11.827341932480318"><ele>399.6666666666667</ele><time>2026-04-24T10:19:10.015Z</time></trkpt><trkpt lat="42.589361316740515" lon="11.827311645019916"><ele>399.33333333333337</ele><time>2026-04-24T10:19:11.015Z</time></trkpt><trkpt lat="42.58919477743925" lon="11.827281672811258"><ele>399.0</ele><time>2026-04-24T10:19:12.015Z</time></trkpt><trkpt lat="42.589022380638" lon="11.827263543311249"><ele>399.0</ele><time>2026-04-24T10:19:13.015Z</time></trkpt><trkpt lat="42.58884999781664" lon="11.827243738968255"><ele>399.0</ele><time>2026-04-24T10:19:14.015Z</time></trkpt><trkpt lat="42.58867383905764" lon="11.827221795215593"><ele>399.0</ele><time>2026-04-24T10:19:15.015Z</time></trkpt><trkpt lat="42.58850105915437" lon="11.827198477250993"><ele>399.0</ele><time>2026-04-24T10:19:16.015Z</time></trkpt><trkpt lat="42.58833272654806" lon="11.827187117801884"><ele>399.0</ele><time>2026-04-24T10:19:17.015Z</time></trkpt><trkpt lat="42.58817033489615" lon="11.827163803248936"><ele>399.0</ele><time>2026-04-24T10:19:18.015Z</time></trkpt><trkpt lat="42.58801209336495" lon="11.827143355035062"><ele>399.0</ele><time>2026-04-24T10:19:19.015Z</time></trkpt><trkpt lat="42.58785493181735" lon="11.82711949637005"><ele>399.0</ele><time>2026-04-24T10:19:20.015Z</time></trkpt><trkpt lat="42.58769370456299" lon="11.827093374439883"><ele>399.0</ele><time>2026-04-24T10:19:21.015Z</time></trkpt><trkpt lat="42.58752694437572" lon="11.827071764761694"><ele>399.0</ele><time>2026-04-24T10:19:22.015Z</time></trkpt><trkpt lat="42.58736662591437" lon="11.827050891199237"><ele>399.0</ele><time>2026-04-24T10:19:23.015Z</time></trkpt><trkpt lat="42.5871959046605" lon="11.82703778554941"><ele>399.0</ele><time>2026-04-24T10:19:24.015Z</time></trkpt><trkpt lat="42.58701013848098" lon="11.827008338267179"><ele>398.66666666666663</ele><time>2026-04-24T10:19:25.016Z</time></trkpt><trkpt lat="42.586826995989476" lon="11.826961627175757"><ele>398.3333333333333</ele><time>2026-04-24T10:19:26.015Z</time></trkpt><trkpt lat="42.5866504663541" lon="11.826924147018898"><ele>398.0</ele><time>2026-04-24T10:19:27.015Z</time></trkpt><trkpt lat="42.586490057167005" lon="11.826895756389238"><ele>398.0</ele><time>2026-04-24T10:19:28.015Z</time></trkpt><trkpt lat="42.58633507630201" lon="11.826891667758328"><ele>398.0</ele><time>2026-04-24T10:19:29.015Z</time></trkpt><trkpt lat="42.58617563812356" lon="11.826883980972859"><ele>398.0</ele><time>2026-04-24T10:19:30.016Z</time></trkpt><trkpt lat="42.586014281246335" lon="11.82687633993255"><ele>398.0</ele><time>2026-04-24T10:19:31.016Z</time></trkpt><trkpt lat="42.585850113650736" lon="11.826876640939286"><ele>398.0</ele><time>2026-04-24T10:19:32.016Z</time></trkpt><trkpt lat="42.58568439033627" lon="11.826882861489526"><ele>398.0</ele><time>2026-04-24T10:19:33.016Z</time></trkpt><trkpt lat="42.58551901776584" lon="11.826884223393657"><ele>398.0</ele><time>2026-04-24T10:19:34.016Z</time></trkpt><trkpt lat="42.58535454354268" lon="11.826893205254413"><ele>398.0</ele><time>2026-04-24T10:19:35.016Z</time></trkpt><trkpt lat="42.58518861362481" lon="11.826906258582557"><ele>398.0</ele><time>2026-04-24T10:19:36.016Z</time></trkpt><trkpt lat="42.5850403426294" lon="11.826915981323973"><ele>398.5</ele><time>2026-04-24T10:19:37.016Z</time></trkpt><trkpt lat="42.584912722567104" lon="11.826897369687766"><ele>399.0</ele><time>2026-04-24T10:19:38.016Z</time></trkpt><trkpt lat="42.58478446536973" lon="11.826906612459501"><ele>399.5</ele><time>2026-04-24T10:19:39.016Z</time></trkpt><trkpt lat="42.58465732074813" lon="11.826868965817532"><ele>400.0</ele><time>2026-04-24T10:19:40.016Z</time></trkpt><trkpt lat="42.584521199204254" lon="11.82682364395066"><ele>400.0</ele><time>2026-04-24T10:19:41.016Z</time></trkpt><trkpt lat="42.58437071295669" lon="11.826758359689958"><ele>400.0</ele><time>2026-04-24T10:19:42.016Z</time></trkpt><trkpt lat="42.584213653782776" lon="11.826680464889488"><ele>400.0</ele><time>2026-04-24T10:19:43.016Z</time></trkpt><trkpt lat="42.58406463317544" lon="11.826583892557998"><ele>400.0</ele><time>2026-04-24T10:19:44.016Z</time></trkpt><trkpt lat="42.58392202755393" lon="11.826454516047743"><ele>400.0</ele><time>2026-04-24T10:19:45.016Z</time></trkpt><trkpt lat="42.58383932227311" lon="11.826366034591272"><ele>400.0</ele><time>2026-04-24T10:19:46.016Z</time></trkpt><trkpt lat="42.583736001850134" lon="11.826224075844436"><ele>400.0</ele><time>2026-04-24T10:19:47.016Z</time></trkpt><trkpt lat="42.58362362813491" lon="11.826073903482325"><ele>400.0</ele><time>2026-04-24T10:19:48.016Z</time></trkpt><trkpt lat="42.583509150277685" lon="11.825920492658035"><ele>400.0</ele><time>2026-04-24T10:19:49.016Z</time></trkpt><trkpt lat="42.583390095893606" lon="11.82576001626478"><ele>400.0</ele><time>2026-04-24T10:19:50.016Z</time></trkpt><trkpt lat="42.58327178648928" lon="11.825600328446031"><ele>400.0</ele><time>2026-04-24T10:19:51.016Z</time></trkpt><trkpt lat="42.58315116787679" lon="11.825435503466895"><ele>400.0</ele><time>2026-04-24T10:19:52.016Z</time></trkpt><trkpt lat="42.58303612040763" lon="11.825278291180238"><ele>400.0</ele><time>2026-04-24T10:19:53.016Z</time></trkpt><trkpt lat="42.58292057624014" lon="11.825121959308099"><ele>399.33333333333337</ele><time>2026-04-24T10:19:54.016Z</time></trkpt><trkpt lat="42.58279219480193" lon="11.824980491811209"><ele>398.66666666666663</ele><time>2026-04-24T10:19:55.016Z</time></trkpt><trkpt lat="42.58268224583558" lon="11.824821505462134"><ele>398.0</ele><time>2026-04-24T10:19:56.016Z</time></trkpt><trkpt lat="42.58257726486269" lon="11.824678497655485"><ele>398.0</ele><time>2026-04-24T10:19:57.016Z</time></trkpt><trkpt lat="42.58246749847458" lon="11.82455668056067"><ele>398.0</ele><time>2026-04-24T10:19:58.016Z</time></trkpt><trkpt lat="42.58234825369747" lon="11.824456587769049"><ele>398.0</ele><time>2026-04-24T10:19:59.016Z</time></trkpt><trkpt lat="42.58221739546536" lon="11.824365526544954"><ele>398.0</ele><time>2026-04-24T10:20:00.016Z</time></trkpt><trkpt lat="42.582079208094825" lon="11.824275611458182"><ele>398.66666666666663</ele><time>2026-04-24T10:20:01.016Z</time></trkpt><trkpt lat="42.58193079169282" lon="11.824179255104386"><ele>399.33333333333337</ele><time>2026-04-24T10:20:02.016Z</time></trkpt><trkpt lat="42.581776521605725" lon="11.824087626312473"><ele>400.0</ele><time>2026-04-24T10:20:03.016Z</time></trkpt><trkpt lat="42.58161640146709" lon="11.824010788181408"><ele>400.0</ele><time>2026-04-24T10:20:04.016Z</time></trkpt><trkpt lat="42.58144880379922" lon="11.823915961984516"><ele>400.0</ele><time>2026-04-24T10:20:05.016Z</time></trkpt><trkpt lat="42.581280360515784" lon="11.823816572320101"><ele>400.0</ele><time>2026-04-24T10:20:06.016Z</time></trkpt><trkpt lat="42.58111468581912" lon="11.82371944662298"><ele>400.33333333333337</ele><time>2026-04-24T10:20:07.016Z</time></trkpt><trkpt lat="42.580944905605655" lon="11.82362253609765"><ele>400.66666666666663</ele><time>2026-04-24T10:20:08.016Z</time></trkpt><trkpt lat="42.58076625617098" lon="11.823541540968465"><ele>401.0</ele><time>2026-04-24T10:20:09.016Z</time></trkpt><trkpt lat="42.58059896116438" lon="11.823439982829042"><ele>401.0</ele><time>2026-04-24T10:20:10.016Z</time></trkpt><trkpt lat="42.58042951880817" lon="11.823341366480422"><ele>401.0</ele><time>2026-04-24T10:20:11.016Z</time></trkpt><trkpt lat="42.580253291871514" lon="11.823243701764195"><ele>401.0</ele><time>2026-04-24T10:20:12.016Z</time></trkpt><trkpt lat="42.580080845501406" lon="11.823133958590859"><ele>401.66666666666663</ele><time>2026-04-24T10:20:13.016Z</time></trkpt><trkpt lat="42.579908804672186" lon="11.823030792467964"><ele>402.33333333333337</ele><time>2026-04-24T10:20:14.016Z</time></trkpt><trkpt lat="42.57973923025602" lon="11.822925709701744"><ele>403.0</ele><time>2026-04-24T10:20:15.016Z</time></trkpt><trkpt lat="42.57956611024815" lon="11.82282814276477"><ele>404.0</ele><time>2026-04-24T10:20:16.016Z</time></trkpt><trkpt lat="42.57940473451545" lon="11.822732801997292"><ele>405.0</ele><time>2026-04-24T10:20:17.016Z</time></trkpt><trkpt lat="42.57924304156337" lon="11.82264103503855"><ele>406.0</ele><time>2026-04-24T10:20:18.016Z</time></trkpt><trkpt lat="42.57907849482486" lon="11.822542717556841"><ele>406.6666666666667</ele><time>2026-04-24T10:20:19.016Z</time></trkpt><trkpt lat="42.57891968636728" lon="11.822448543970228"><ele>407.33333333333337</ele><time>2026-04-24T10:20:20.016Z</time></trkpt><trkpt lat="42.578764230344134" lon="11.822353920790704"><ele>408.0</ele><time>2026-04-24T10:20:21.016Z</time></trkpt><trkpt lat="42.57860094776736" lon="11.822264279695702"><ele>408.33333333333337</ele><time>2026-04-24T10:20:22.016Z</time></trkpt><trkpt lat="42.57843912914915" lon="11.822172535418549"><ele>408.6666666666667</ele><time>2026-04-24T10:20:23.017Z</time></trkpt><trkpt lat="42.57827591733236" lon="11.822076844819923"><ele>409.0</ele><time>2026-04-24T10:20:24.017Z</time></trkpt><trkpt lat="42.578120781307604" lon="11.821980185420015"><ele>409.0</ele><time>2026-04-24T10:20:25.017Z</time></trkpt><trkpt lat="42.57796746966332" lon="11.821886633677034"><ele>409.0</ele><time>2026-04-24T10:20:26.017Z</time></trkpt><trkpt lat="42.57781280228767" lon="11.82179851682527"><ele>409.0</ele><time>2026-04-24T10:20:27.017Z</time></trkpt><trkpt lat="42.57767229404421" lon="11.82172280726703"><ele>410.0</ele><time>2026-04-24T10:20:28.017Z</time></trkpt><trkpt lat="42.57753666063851" lon="11.821648214075788"><ele>411.0</ele><time>2026-04-24T10:20:29.017Z</time></trkpt><trkpt lat="42.57740401584439" lon="11.82156330696233"><ele>412.0</ele><time>2026-04-24T10:20:30.017Z</time></trkpt><trkpt lat="42.577282956163735" lon="11.821491562594876"><ele>413.0</ele><time>2026-04-24T10:20:31.017Z</time></trkpt><trkpt lat="42.577164070489694" lon="11.82142601948812"><ele>413.0</ele><time>2026-04-24T10:20:32.017Z</time></trkpt><trkpt lat="42.57705253166094" lon="11.821346026816482"><ele>413.0</ele><time>2026-04-24T10:20:33.017Z</time></trkpt><trkpt lat="42.57692841853175" lon="11.821287256901863"><ele>413.0</ele><time>2026-04-24T10:20:34.017Z</time></trkpt><trkpt lat="42.57680066310095" lon="11.821220548090956"><ele>413.0</ele><time>2026-04-24T10:20:35.017Z</time></trkpt><trkpt lat="42.57667924787005" lon="11.82118390071592"><ele>413.5</ele><time>2026-04-24T10:20:36.017Z</time></trkpt><trkpt lat="42.576548358923645" lon="11.821168379102563"><ele>414.0</ele><time>2026-04-24T10:20:37.017Z</time></trkpt><trkpt lat="42.576417659094616" lon="11.821153224217504"><ele>414.5</ele><time>2026-04-24T10:20:38.017Z</time></trkpt><trkpt lat="42.576283490144135" lon="11.821139028838767"><ele>415.0</ele><time>2026-04-24T10:20:39.017Z</time></trkpt><trkpt lat="42.57615385503841" lon="11.821131516001023"><ele>416.5</ele><time>2026-04-24T10:20:40.017Z</time></trkpt><trkpt lat="42.57601625582138" lon="11.821120559586332"><ele>418.0</ele><time>2026-04-24T10:20:41.017Z</time></trkpt><trkpt lat="42.57588009838138" lon="11.821104730420412"><ele>419.5</ele><time>2026-04-24T10:20:42.017Z</time></trkpt><trkpt lat="42.57573847011513" lon="11.821093291401102"><ele>421.0</ele><time>2026-04-24T10:20:43.017Z</time></trkpt><trkpt lat="42.57559216677734" lon="11.821103554344964"><ele>421.0</ele><time>2026-04-24T10:20:44.017Z</time></trkpt><trkpt lat="42.575446593861585" lon="11.821132981540524"><ele>421.0</ele><time>2026-04-24T10:20:45.017Z</time></trkpt><trkpt lat="42.57531107522598" lon="11.821181053232648"><ele>421.0</ele><time>2026-04-24T10:20:46.017Z</time></trkpt><trkpt lat="42.57518278213663" lon="11.821244354909304"><ele>421.0</ele><time>2026-04-24T10:20:47.017Z</time></trkpt><trkpt lat="42.57505803858014" lon="11.821316652638636"><ele>421.5</ele><time>2026-04-24T10:20:48.017Z</time></trkpt><trkpt lat="42.57493980981514" lon="11.821401515878138"><ele>422.0</ele><time>2026-04-24T10:20:49.017Z</time></trkpt><trkpt lat="42.57481282734361" lon="11.821493360948029"><ele>422.5</ele><time>2026-04-24T10:20:50.017Z</time></trkpt><trkpt lat="42.57467119468804" lon="11.821579732250326"><ele>423.0</ele><time>2026-04-24T10:20:51.017Z</time></trkpt><trkpt lat="42.574526834846296" lon="11.821668550140213"><ele>425.33333333333337</ele><time>2026-04-24T10:20:52.017Z</time></trkpt><trkpt lat="42.57436603899717" lon="11.821730029047927"><ele>427.6666666666667</ele><time>2026-04-24T10:20:53.017Z</time></trkpt><trkpt lat="42.57420872334888" lon="11.821793143650464"><ele>430.0</ele><time>2026-04-24T10:20:54.017Z</time></trkpt><trkpt lat="42.57405616396009" lon="11.82187643601721"><ele>431.0</ele><time>2026-04-24T10:20:55.017Z</time></trkpt><trkpt lat="42.573906303832175" lon="11.821916174705729"><ele>432.0</ele><time>2026-04-24T10:20:56.017Z</time></trkpt><trkpt lat="42.57375186426003" lon="11.821963436074947"><ele>433.0</ele><time>2026-04-24T10:20:57.017Z</time></trkpt><trkpt lat="42.57359144846371" lon="11.822041637044157"><ele>435.0</ele><time>2026-04-24T10:20:58.017Z</time></trkpt><trkpt lat="42.57342866621333" lon="11.822131247979096"><ele>437.0</ele><time>2026-04-24T10:20:59.017Z</time></trkpt><trkpt lat="42.57326454961636" lon="11.822226326382259"><ele>439.0</ele><time>2026-04-24T10:21:00.017Z</time></trkpt><trkpt lat="42.57310338991567" lon="11.822329153799767"><ele>439.0</ele><time>2026-04-24T10:21:01.017Z</time></trkpt><trkpt lat="42.57294270655793" lon="11.822434200728217"><ele>439.0</ele><time>2026-04-24T10:21:02.017Z</time></trkpt><trkpt lat="42.57279163550528" lon="11.822527187919865"><ele>439.0</ele><time>2026-04-24T10:21:03.017Z</time></trkpt><trkpt lat="42.57264565955523" lon="11.822611658349826"><ele>444.0</ele><time>2026-04-24T10:21:04.017Z</time></trkpt><trkpt lat="42.57250953805862" lon="11.82269263536697"><ele>449.0</ele><time>2026-04-24T10:21:05.017Z</time></trkpt><trkpt lat="42.57237595607593" lon="11.822767561375588"><ele>454.0</ele><time>2026-04-24T10:21:06.017Z</time></trkpt><trkpt lat="42.57225471017324" lon="11.822834173396018"><ele>459.0</ele><time>2026-04-24T10:21:07.017Z</time></trkpt><trkpt lat="42.57214165849974" lon="11.82290460414149"><ele>459.75</ele><time>2026-04-24T10:21:08.017Z</time></trkpt><trkpt lat="42.57202125790085" lon="11.822996649747019"><ele>460.5</ele><time>2026-04-24T10:21:09.017Z</time></trkpt><trkpt lat="42.571900448566765" lon="11.823098194674838"><ele>461.25</ele><time>2026-04-24T10:21:10.017Z</time></trkpt><trkpt lat="42.57178985427356" lon="11.823210400017087"><ele>462.0</ele><time>2026-04-24T10:21:11.017Z</time></trkpt><trkpt lat="42.57168046526458" lon="11.823305948240916"><ele>462.0</ele><time>2026-04-24T10:21:12.017Z</time></trkpt><trkpt lat="42.57157803262298" lon="11.823396347131146"><ele>462.0</ele><time>2026-04-24T10:21:13.017Z</time></trkpt><trkpt lat="42.571470866321825" lon="11.823479507377025"><ele>462.0</ele><time>2026-04-24T10:21:14.017Z</time></trkpt><trkpt lat="42.57136031973977" lon="11.823536753411162"><ele>462.0</ele><time>2026-04-24T10:21:15.017Z</time></trkpt><trkpt lat="42.571237562530136" lon="11.823599544827688"><ele>465.5</ele><time>2026-04-24T10:21:16.018Z</time></trkpt><trkpt lat="42.571109721973606" lon="11.823639201357798"><ele>469.0</ele><time>2026-04-24T10:21:17.018Z</time></trkpt><trkpt lat="42.57097588577541" lon="11.823674053018514"><ele>472.5</ele><time>2026-04-24T10:21:18.018Z</time></trkpt><trkpt lat="42.57083704980224" lon="11.823701984362645"><ele>476.0</ele><time>2026-04-24T10:21:19.018Z</time></trkpt><trkpt lat="42.57069363461469" lon="11.823732651321333"><ele>476.0</ele><time>2026-04-24T10:21:20.018Z</time></trkpt><trkpt lat="42.57053724107096" lon="11.823762644902407"><ele>476.0</ele><time>2026-04-24T10:21:21.018Z</time></trkpt><trkpt lat="42.57038396434398" lon="11.82379749956066"><ele>476.0</ele><time>2026-04-24T10:21:22.018Z</time></trkpt><trkpt lat="42.57022367110885" lon="11.82382476364836"><ele>478.25</ele><time>2026-04-24T10:21:23.018Z</time></trkpt><trkpt lat="42.570073946888506" lon="11.823859755029456"><ele>480.5</ele><time>2026-04-24T10:21:24.018Z</time></trkpt><trkpt lat="42.569937983523126" lon="11.823871490520068"><ele>482.75</ele><time>2026-04-24T10:21:25.018Z</time></trkpt><trkpt lat="42.56980905103622" lon="11.823854562825252"><ele>485.0</ele><time>2026-04-24T10:21:26.018Z</time></trkpt><trkpt lat="42.5696988267077" lon="11.823822161283628"><ele>485.0</ele><time>2026-04-24T10:21:27.018Z</time></trkpt><trkpt lat="42.56959887316875" lon="11.823762079134465"><ele>485.0</ele><time>2026-04-24T10:21:28.018Z</time></trkpt><trkpt lat="42.56948699353642" lon="11.823672764090729"><ele>485.0</ele><time>2026-04-24T10:21:29.018Z</time></trkpt><trkpt lat="42.56936149714126" lon="11.823559993089626"><ele>485.0</ele><time>2026-04-24T10:21:30.018Z</time></trkpt><trkpt lat="42.56923264612742" lon="11.823434736769414"><ele>483.0</ele><time>2026-04-24T10:21:31.018Z</time></trkpt><trkpt lat="42.56910894126273" lon="11.823315959840194"><ele>481.0</ele><time>2026-04-24T10:21:32.018Z</time></trkpt><trkpt lat="42.56897906990989" lon="11.823188522040168"><ele>479.0</ele><time>2026-04-24T10:21:33.018Z</time></trkpt><trkpt lat="42.568845925746096" lon="11.82305035118673"><ele>479.0</ele><time>2026-04-24T10:21:34.018Z</time></trkpt><trkpt lat="42.568703005172985" lon="11.822921693630413"><ele>479.0</ele><time>2026-04-24T10:21:35.018Z</time></trkpt><trkpt lat="42.5685596808531" lon="11.822793268472976"><ele>479.0</ele><time>2026-04-24T10:21:36.018Z</time></trkpt><trkpt lat="42.568424967933986" lon="11.822673896335685"><ele>479.66666666666663</ele><time>2026-04-24T10:21:37.018Z</time></trkpt><trkpt lat="42.56830045377498" lon="11.822556144833786"><ele>480.33333333333337</ele><time>2026-04-24T10:21:38.018Z</time></trkpt><trkpt lat="42.56818314060063" lon="11.822435029142099"><ele>481.0</ele><time>2026-04-24T10:21:39.018Z</time></trkpt><trkpt lat="42.56805600322172" lon="11.822319567921815"><ele>481.0</ele><time>2026-04-24T10:21:40.018Z</time></trkpt><trkpt lat="42.56794226518332" lon="11.822199051317122"><ele>481.0</ele><time>2026-04-24T10:21:41.018Z</time></trkpt><trkpt lat="42.56783694343498" lon="11.822100047821886"><ele>481.0</ele><time>2026-04-24T10:21:42.018Z</time></trkpt><trkpt lat="42.56774077496501" lon="11.821982147799293"><ele>481.0</ele><time>2026-04-24T10:21:43.018Z</time></trkpt><trkpt lat="42.567651257589674" lon="11.821850073083564"><ele>484.0</ele><time>2026-04-24T10:21:44.018Z</time></trkpt><trkpt lat="42.56756975439528" lon="11.821705182840214"><ele>487.0</ele><time>2026-04-24T10:21:45.018Z</time></trkpt><trkpt lat="42.56752025298439" lon="11.821534784232894"><ele>490.0</ele><time>2026-04-24T10:21:46.018Z</time></trkpt><trkpt lat="42.56746761252123" lon="11.821371661697134"><ele>493.0</ele><time>2026-04-24T10:21:47.018Z</time></trkpt><trkpt lat="42.56742522103022" lon="11.821194039331292"><ele>493.0</ele><time>2026-04-24T10:21:48.018Z</time></trkpt><trkpt lat="42.567399384956914" lon="11.821039398548852"><ele>493.0</ele><time>2026-04-24T10:21:49.018Z</time></trkpt><trkpt lat="42.5674015027723" lon="11.820888936184582"><ele>493.0</ele><time>2026-04-24T10:21:50.018Z</time></trkpt><trkpt lat="42.56742489936102" lon="11.820744123086486"><ele>493.0</ele><time>2026-04-24T10:21:51.018Z</time></trkpt><trkpt lat="42.56744718053258" lon="11.820575719246671"><ele>494.5</ele><time>2026-04-24T10:21:52.018Z</time></trkpt><trkpt lat="42.56747022855915" lon="11.82041095109047"><ele>496.0</ele><time>2026-04-24T10:21:53.018Z</time></trkpt><trkpt lat="42.56747991257199" lon="11.820255240421394"><ele>497.5</ele><time>2026-04-24T10:21:54.018Z</time></trkpt><trkpt lat="42.567493977021066" lon="11.82008873766209"><ele>499.0</ele><time>2026-04-24T10:21:55.018Z</time></trkpt><trkpt lat="42.56748438267899" lon="11.81993161377657"><ele>501.2</ele><time>2026-04-24T10:21:56.018Z</time></trkpt><trkpt lat="42.56745283334779" lon="11.81979212456164"><ele>503.4</ele><time>2026-04-24T10:21:57.018Z</time></trkpt><trkpt lat="42.56740002671966" lon="11.819667196858228"><ele>505.6</ele><time>2026-04-24T10:21:58.018Z</time></trkpt><trkpt lat="42.56733659071486" lon="11.819582983261252"><ele>507.8</ele><time>2026-04-24T10:21:59.018Z</time></trkpt><trkpt lat="42.56726223502953" lon="11.81955233683212"><ele>510.0</ele><time>2026-04-24T10:22:00.018Z</time></trkpt><trkpt lat="42.567165088163875" lon="11.819548699759462"><ele>510.0</ele><time>2026-04-24T10:22:01.018Z</time></trkpt><trkpt lat="42.56707525159575" lon="11.819566841702908"><ele>510.0</ele><time>2026-04-24T10:22:02.018Z</time></trkpt><trkpt lat="42.56698190310015" lon="11.819574303601378"><ele>510.0</ele><time>2026-04-24T10:22:03.018Z</time></trkpt><trkpt lat="42.56689909377147" lon="11.819546350331564"><ele>510.0</ele><time>2026-04-24T10:22:04.018Z</time></trkpt><trkpt lat="42.56682536124644" lon="11.819512266479846"><ele>510.0</ele><time>2026-04-24T10:22:05.018Z</time></trkpt><trkpt lat="42.56676656048931" lon="11.819468516380276"><ele>510.0</ele><time>2026-04-24T10:22:06.018Z</time></trkpt><trkpt lat="42.56673070372744" lon="11.819397134217159"><ele>511.1666666666667</ele><time>2026-04-24T10:22:07.018Z</time></trkpt><trkpt lat="42.56670279095984" lon="11.81930782913575"><ele>512.3333333333334</ele><time>2026-04-24T10:22:08.019Z</time></trkpt><trkpt lat="42.56672020406756" lon="11.819205513364016"><ele>513.5</ele><time>2026-04-24T10:22:09.019Z</time></trkpt><trkpt lat="42.566755195273544" lon="11.819091594063"><ele>514.6666666666667</ele><time>2026-04-24T10:22:10.019Z</time></trkpt><trkpt lat="42.5667694717965" lon="11.8189854606567"><ele>515.8333333333334</ele><time>2026-04-24T10:22:11.019Z</time></trkpt><trkpt lat="42.56675294392164" lon="11.818872620405532"><ele>517.0</ele><time>2026-04-24T10:22:12.019Z</time></trkpt><trkpt lat="42.56674017332654" lon="11.818767607867212"><ele>517.0</ele><time>2026-04-24T10:22:13.019Z</time></trkpt><trkpt lat="42.56672302851866" lon="11.81868527510483"><ele>517.0</ele><time>2026-04-24T10:22:14.019Z</time></trkpt><trkpt lat="42.56669521338683" lon="11.818556490718374"><ele>517.0</ele><time>2026-04-24T10:22:16.019Z</time></trkpt><trkpt lat="42.566634598927045" lon="11.81847512515657"><ele>517.0</ele><time>2026-04-24T10:22:18.019Z</time></trkpt><trkpt lat="42.56659529632873" lon="11.818400124003828"><ele>517.0</ele><time>2026-04-24T10:22:38.019Z</time></trkpt><trkpt lat="42.56653289561709" lon="11.818315661067901"><ele>517.0</ele><time>2026-04-24T10:22:40.019Z</time></trkpt><trkpt lat="42.56644804082361" lon="11.81834329429952"><ele>517.0</ele><time>2026-04-24T10:22:42.019Z</time></trkpt><trkpt lat="42.566443134457074" lon="11.818437767829622"><ele>517.0</ele><time>2026-04-24T10:22:56.019Z</time></trkpt><trkpt lat="42.566424168424305" lon="11.818590411498064"><ele>517.0</ele><time>2026-04-24T10:22:58.019Z</time></trkpt><trkpt lat="42.56639959255716" lon="11.818714343118982"><ele>517.0</ele><time>2026-04-24T10:22:59.019Z</time></trkpt><trkpt lat="42.566351995456955" lon="11.818839005515638"><ele>517.0</ele><time>2026-04-24T10:23:01.02Z</time></trkpt><trkpt lat="42.5664120273988" lon="11.818868397468036"><ele>517.0</ele><time>2026-04-24T10:26:56Z</time></trkpt><trkpt lat="42.56641364734309" lon="11.818742651660326"><ele>517.0</ele><time>2026-04-24T10:26:59Z</time></trkpt><trkpt lat="42.56641364734214" lon="11.818591516074658"><ele>517.0</ele><time>2026-04-24T10:27:01Z</time></trkpt><trkpt lat="42.5664136473424" lon="11.818437270709607"><ele>517.0</ele><time>2026-04-24T10:27:03Z</time></trkpt><trkpt lat="42.56641364734436" lon="11.81833072309694"><ele>517.0</ele><time>2026-04-24T10:27:05.001Z</time></trkpt><trkpt lat="42.566413647350046" lon="11.818219706966186"><ele>517.0</ele><time>2026-04-24T10:27:08Z</time></trkpt><trkpt lat="42.5671238182531" lon="11.818206127492466"><ele>518.6666666666667</ele><time>2026-04-24T10:27:11Z</time></trkpt><trkpt lat="42.5671975112224" lon="11.818181822438527"><ele>520.3333333333334</ele><time>2026-04-24T10:27:12Z</time></trkpt><trkpt lat="42.56727189581728" lon="11.818173880225892"><ele>522.0</ele><time>2026-04-24T10:27:13Z</time></trkpt><trkpt lat="42.56735186617778" lon="11.818172452317608"><ele>523.6666666666666</ele><time>2026-04-24T10:27:14Z</time></trkpt><trkpt lat="42.567422534455666" lon="11.818169766872792"><ele>525.3333333333333</ele><time>2026-04-24T10:27:15Z</time></trkpt><trkpt lat="42.56749722227206" lon="11.818169740334264"><ele>527.0</ele><time>2026-04-24T10:27:16Z</time></trkpt><trkpt lat="42.56757085449224" lon="11.818163714965516"><ele>527.0</ele><time>2026-04-24T10:27:17Z</time></trkpt><trkpt lat="42.567668270468324" lon="11.8181654067989"><ele>527.0</ele><time>2026-04-24T10:27:18Z</time></trkpt><trkpt lat="42.56777145151247" lon="11.818180452325091"><ele>527.0</ele><time>2026-04-24T10:27:19Z</time></trkpt><trkpt lat="42.56783511554616" lon="11.818181541169855"><ele>527.0</ele><time>2026-04-24T10:27:20Z</time></trkpt><trkpt lat="42.56790201340018" lon="11.818178243558803"><ele>527.0</ele><time>2026-04-24T10:27:21Z</time></trkpt><trkpt lat="42.56797100632613" lon="11.81817206691607"><ele>527.0</ele><time>2026-04-24T10:27:22.001Z</time></trkpt><trkpt lat="42.568042678232345" lon="11.81816485298127"><ele>528.6666666666666</ele><time>2026-04-24T10:27:23.001Z</time></trkpt><trkpt lat="42.568114778969544" lon="11.818146468661105"><ele>530.3333333333333</ele><time>2026-04-24T10:27:24.001Z</time></trkpt><trkpt lat="42.56818825653896" lon="11.818126897061017"><ele>532.0</ele><time>2026-04-24T10:27:25.001Z</time></trkpt><trkpt lat="42.568252957363015" lon="11.818108164450813"><ele>533.6666666666666</ele><time>2026-04-24T10:27:26.001Z</time></trkpt><trkpt lat="42.56832203702034" lon="11.818088388480092"><ele>535.3333333333334</ele><time>2026-04-24T10:27:27.001Z</time></trkpt><trkpt lat="42.56841322335344" lon="11.818073505327405"><ele>537.0</ele><time>2026-04-24T10:27:29.001Z</time></trkpt><trkpt lat="42.568530715799234" lon="11.818065288572175"><ele>536.9999999999999</ele><time>2026-04-24T10:27:31.001Z</time></trkpt><trkpt lat="42.56860230995565" lon="11.818067589746587"><ele>537.0</ele><time>2026-04-24T10:27:32.001Z</time></trkpt><trkpt lat="42.56869792129616" lon="11.818049459585236"><ele>537.0</ele><time>2026-04-24T10:27:34.001Z</time></trkpt><trkpt lat="42.56877502831991" lon="11.818092281247916"><ele>537.0</ele><time>2026-04-24T10:27:36.001Z</time></trkpt><trkpt lat="42.568839071969805" lon="11.818115766510086"><ele>537.0</ele><time>2026-04-24T10:27:38.001Z</time></trkpt><trkpt lat="42.56888955671526" lon="11.8181693852113"><ele>536.9999999999999</ele><time>2026-04-24T10:27:41.001Z</time></trkpt><trkpt lat="42.56883808200342" lon="11.818220325584877"><ele>537.0</ele><time>2026-04-24T10:27:43.001Z</time></trkpt><trkpt lat="42.56878745952744" lon="11.818383533879748"><ele>537.4</ele><time>2026-04-24T10:27:45.001Z</time></trkpt><trkpt lat="42.56873303617933" lon="11.818547202412214"><ele>537.8000000000001</ele><time>2026-04-24T10:27:47.001Z</time></trkpt><trkpt lat="42.56866862011696" lon="11.818709580464867"><ele>538.2</ele><time>2026-04-24T10:27:49.001Z</time></trkpt><trkpt lat="42.56864843452002" lon="11.818790900197596"><ele>538.6</ele><time>2026-04-24T10:27:50.001Z</time></trkpt><trkpt lat="42.56862616075865" lon="11.818880632458306"><ele>539.0</ele><time>2026-04-24T10:27:51.001Z</time></trkpt><trkpt lat="42.56859371411562" lon="11.819002078523253"><ele>540.25</ele><time>2026-04-24T10:27:53.001Z</time></trkpt><trkpt lat="42.56855813993507" lon="11.819097729099445"><ele>541.5</ele><time>2026-04-24T10:27:56.001Z</time></trkpt><trkpt lat="42.56852984538063" lon="11.819174511449477"><ele>542.75</ele><time>2026-04-24T10:27:59.001Z</time></trkpt><trkpt lat="42.56838229319917" lon="11.81909884222273"><ele>544.0</ele><time>2026-04-24T10:28:00.001Z</time></trkpt><trkpt lat="42.56850623389019" lon="11.81930115289908"><ele>544.0</ele><time>2026-04-24T10:28:03.001Z</time></trkpt><trkpt lat="42.568487538217155" lon="11.819386101496594"><ele>538.0</ele><time>2026-04-24T10:29:17.003Z</time></trkpt><trkpt lat="42.56846454606507" lon="11.81947002742955"><ele>538.0</ele><time>2026-04-24T10:29:27.003Z</time></trkpt><trkpt lat="42.56831132731206" lon="11.81938306692344"><ele>538.0</ele><time>2026-04-24T10:29:31.003Z</time></trkpt><trkpt lat="42.56843784500189" lon="11.819491019084618"><ele>538.0</ele><time>2026-04-24T10:31:14.004Z</time></trkpt></trkseg><trkseg><trkpt lat="42.56820908396285" lon="11.819360216723291"><ele>539.0</ele><time>2026-04-24T12:21:05Z</time></trkpt><trkpt lat="42.56827495464999" lon="11.81930442419569"><ele>540.0</ele><time>2026-04-24T12:22:18Z</time></trkpt><trkpt lat="42.568296350887394" lon="11.819191938141033"><ele>541.0</ele><time>2026-04-24T12:22:21Z</time></trkpt><trkpt lat="42.56836167705098" lon="11.819132114584159"><ele>542.0</ele><time>2026-04-24T12:22:24Z</time></trkpt><trkpt lat="42.56844840566835" lon="11.819118301402552"><ele>543.0</ele><time>2026-04-24T12:22:27Z</time></trkpt><trkpt lat="42.568511997197376" lon="11.819096917494637"><ele>544.0</ele><time>2026-04-24T12:22:29Z</time></trkpt><trkpt lat="42.56855755402242" lon="11.819035540843625"><ele>544.0</ele><time>2026-04-24T12:22:31Z</time></trkpt><trkpt lat="42.568585673964456" lon="11.818947404023438"><ele>544.0</ele><time>2026-04-24T12:22:33Z</time></trkpt><trkpt lat="42.56860657426868" lon="11.818824111807361"><ele>544.0</ele><time>2026-04-24T12:22:35Z</time></trkpt><trkpt lat="42.56861113458115" lon="11.818714561030681"><ele>544.0</ele><time>2026-04-24T12:22:38Z</time></trkpt><trkpt lat="42.568647059731255" lon="11.818602279148427"><ele>544.0</ele><time>2026-04-24T12:22:40Z</time></trkpt><trkpt lat="42.56869202157001" lon="11.818511430793484"><ele>544.0</ele><time>2026-04-24T12:22:42Z</time></trkpt><trkpt lat="42.56875958590492" lon="11.818500787730018"><ele>543.0</ele><time>2026-04-24T12:22:45Z</time></trkpt><trkpt lat="42.5688580774044" lon="11.818549743849525"><ele>542.0</ele><time>2026-04-24T12:22:47Z</time></trkpt><trkpt lat="42.56892305894054" lon="11.818618707087476"><ele>541.0</ele><time>2026-04-24T12:22:49Z</time></trkpt><trkpt lat="42.568981031753516" lon="11.81869659163666"><ele>540.0</ele><time>2026-04-24T12:22:51Z</time></trkpt><trkpt lat="42.569033053661" lon="11.818791653299915"><ele>539.0</ele><time>2026-04-24T12:22:53Z</time></trkpt><trkpt lat="42.56912949907133" lon="11.818880303151174"><ele>539.0</ele><time>2026-04-24T12:22:55Z</time></trkpt><trkpt lat="42.569204156082016" lon="11.818936253962788"><ele>539.0</ele><time>2026-04-24T12:22:57Z</time></trkpt><trkpt lat="42.56928594415323" lon="11.819003202916731"><ele>539.0</ele><time>2026-04-24T12:22:59Z</time></trkpt><trkpt lat="42.56936283306241" lon="11.819146802411913"><ele>539.0</ele><time>2026-04-24T12:23:01Z</time></trkpt><trkpt lat="42.56941710246729" lon="11.81924344482076"><ele>539.0</ele><time>2026-04-24T12:23:03Z</time></trkpt><trkpt lat="42.569488264087326" lon="11.81932427097613"><ele>538.0</ele><time>2026-04-24T12:23:05Z</time></trkpt><trkpt lat="42.569650913077815" lon="11.819136830414378"><ele>537.0</ele><time>2026-04-24T12:23:11Z</time></trkpt><trkpt lat="42.56969401318645" lon="11.819054556529565"><ele>536.0</ele><time>2026-04-24T12:23:13Z</time></trkpt><trkpt lat="42.56972174864148" lon="11.818966179608728"><ele>535.0</ele><time>2026-04-24T12:23:17Z</time></trkpt><trkpt lat="42.56973308046409" lon="11.818862026315971"><ele>534.0</ele><time>2026-04-24T12:23:19Z</time></trkpt><trkpt lat="42.56977063943472" lon="11.818736614281217"><ele>534.0</ele><time>2026-04-24T12:23:21Z</time></trkpt><trkpt lat="42.56977071576385" lon="11.81864650980735"><ele>534.0</ele><time>2026-04-24T12:23:24Z</time></trkpt><trkpt lat="42.569768047437044" lon="11.818541763138581"><ele>534.0</ele><time>2026-04-24T12:23:26Z</time></trkpt><trkpt lat="42.569720141513216" lon="11.818424133221102"><ele>534.0</ele><time>2026-04-24T12:23:28Z</time></trkpt><trkpt lat="42.569665111996656" lon="11.818312210369335"><ele>534.0</ele><time>2026-04-24T12:23:30Z</time></trkpt><trkpt lat="42.56958644931567" lon="11.818204862943603"><ele>534.5</ele><time>2026-04-24T12:23:32Z</time></trkpt><trkpt lat="42.569525391054185" lon="11.818134431716139"><ele>535.0</ele><time>2026-04-24T12:23:33Z</time></trkpt><trkpt lat="42.56946208068082" lon="11.818057725947702"><ele>535.5</ele><time>2026-04-24T12:23:34Z</time></trkpt><trkpt lat="42.56939304909897" lon="11.817975608099138"><ele>536.0</ele><time>2026-04-24T12:23:35Z</time></trkpt><trkpt lat="42.56933047482234" lon="11.817912621122364"><ele>536.5</ele><time>2026-04-24T12:23:36Z</time></trkpt><trkpt lat="42.56927141088953" lon="11.817864184341177"><ele>537.0</ele><time>2026-04-24T12:23:37Z</time></trkpt><trkpt lat="42.56919622072979" lon="11.81782438430577"><ele>537.0</ele><time>2026-04-24T12:23:38Z</time></trkpt><trkpt lat="42.56912012610585" lon="11.81779250046928"><ele>537.0</ele><time>2026-04-24T12:23:39Z</time></trkpt><trkpt lat="42.56904795688167" lon="11.817753232375463"><ele>537.0</ele><time>2026-04-24T12:23:40Z</time></trkpt><trkpt lat="42.56892926375723" lon="11.81771190594409"><ele>537.0</ele><time>2026-04-24T12:23:42Z</time></trkpt><trkpt lat="42.56881164027173" lon="11.817672424834324"><ele>537.0</ele><time>2026-04-24T12:23:44Z</time></trkpt><trkpt lat="42.56875017614542" lon="11.817694341151151"><ele>537.0</ele><time>2026-04-24T12:23:45Z</time></trkpt><trkpt lat="42.56865376074535" lon="11.817723639430094"><ele>537.0</ele><time>2026-04-24T12:23:47Z</time></trkpt><trkpt lat="42.56855786109139" lon="11.817773119780227"><ele>537.0</ele><time>2026-04-24T12:23:49Z</time></trkpt><trkpt lat="42.568534050336694" lon="11.8178607528759"><ele>537.0</ele><time>2026-04-24T12:23:50Z</time></trkpt><trkpt lat="42.568572611550124" lon="11.817935092474032"><ele>537.0</ele><time>2026-04-24T12:23:52Z</time></trkpt><trkpt lat="42.56849965021846" lon="11.817965026864046"><ele>537.0</ele><time>2026-04-24T12:23:54Z</time></trkpt><trkpt lat="42.56840767110829" lon="11.81798915714998"><ele>537.0</ele><time>2026-04-24T12:23:56Z</time></trkpt><trkpt lat="42.5682921981274" lon="11.818006124761318"><ele>537.0</ele><time>2026-04-24T12:23:58Z</time></trkpt><trkpt lat="42.56821083884532" lon="11.818028233155765"><ele>537.0</ele><time>2026-04-24T12:23:59Z</time></trkpt><trkpt lat="42.568137199903774" lon="11.818039814400844"><ele>537.0</ele><time>2026-04-24T12:24:00Z</time></trkpt><trkpt lat="42.56804622211901" lon="11.81805537616847"><ele>537.0</ele><time>2026-04-24T12:24:01Z</time></trkpt><trkpt lat="42.56796924789603" lon="11.818070033945649"><ele>537.0</ele><time>2026-04-24T12:24:02Z</time></trkpt><trkpt lat="42.56789315063011" lon="11.818070976078445"><ele>535.3333333333334</ele><time>2026-04-24T12:24:03Z</time></trkpt><trkpt lat="42.56781190407372" lon="11.818074688421282"><ele>533.6666666666666</ele><time>2026-04-24T12:24:04Z</time></trkpt><trkpt lat="42.56772579607893" lon="11.81808409378528"><ele>532.0</ele><time>2026-04-24T12:24:05Z</time></trkpt><trkpt lat="42.56764556698925" lon="11.818096541904909"><ele>530.3333333333333</ele><time>2026-04-24T12:24:06Z</time></trkpt><trkpt lat="42.567560610705726" lon="11.818112553825852"><ele>528.6666666666666</ele><time>2026-04-24T12:24:07Z</time></trkpt><trkpt lat="42.56747048115704" lon="11.818134496714803"><ele>527.0</ele><time>2026-04-24T12:24:08Z</time></trkpt><trkpt lat="42.56737989420211" lon="11.818153814637649"><ele>527.0</ele><time>2026-04-24T12:24:09Z</time></trkpt><trkpt lat="42.56729115277702" lon="11.818177806221778"><ele>527.0</ele><time>2026-04-24T12:24:10Z</time></trkpt><trkpt lat="42.56721162306829" lon="11.818209039984389"><ele>527.0</ele><time>2026-04-24T12:24:11Z</time></trkpt><trkpt lat="42.567129097504385" lon="11.818230233356218"><ele>527.0</ele><time>2026-04-24T12:24:12Z</time></trkpt><trkpt lat="42.5670579364541" lon="11.818243791674371"><ele>527.0</ele><time>2026-04-24T12:24:13Z</time></trkpt><trkpt lat="42.566989757219574" lon="11.818249752000588"><ele>527.0</ele><time>2026-04-24T12:24:14Z</time></trkpt><trkpt lat="42.5668596403919" lon="11.818265507100278"><ele>526.0000000000001</ele><time>2026-04-24T12:24:16Z</time></trkpt><trkpt lat="42.566791836855444" lon="11.818261244488772"><ele>525.0</ele><time>2026-04-24T12:24:17Z</time></trkpt><trkpt lat="42.5667263948458" lon="11.818272053402469"><ele>524.0</ele><time>2026-04-24T12:24:18Z</time></trkpt><trkpt lat="42.56665675419593" lon="11.818271759388951"><ele>523.0</ele><time>2026-04-24T12:24:19Z</time></trkpt><trkpt lat="42.566578938464154" lon="11.818277408356812"><ele>522.0</ele><time>2026-04-24T12:24:20Z</time></trkpt><trkpt lat="42.566508819844465" lon="11.81827813426348"><ele>521.0000000000001</ele><time>2026-04-24T12:24:21Z</time></trkpt><trkpt lat="42.56644205384386" lon="11.818278620685703"><ele>520.0</ele><time>2026-04-24T12:24:22Z</time></trkpt><trkpt lat="42.566312626258096" lon="11.818283529634881"><ele>520.0</ele><time>2026-04-24T12:24:24Z</time></trkpt><trkpt lat="42.566220927731095" lon="11.818267503711784"><ele>520.0</ele><time>2026-04-24T12:24:25Z</time></trkpt><trkpt lat="42.566126012740256" lon="11.818252652133063"><ele>520.0</ele><time>2026-04-24T12:24:26Z</time></trkpt><trkpt lat="42.566026850440764" lon="11.818224617100167"><ele>520.0</ele><time>2026-04-24T12:24:27Z</time></trkpt><trkpt lat="42.56591629562459" lon="11.818220836978565"><ele>520.0</ele><time>2026-04-24T12:24:28Z</time></trkpt><trkpt lat="42.565799627779" lon="11.818225532710168"><ele>519.6</ele><time>2026-04-24T12:24:29.001Z</time></trkpt><trkpt lat="42.5656881738417" lon="11.818208117307913"><ele>519.2</ele><time>2026-04-24T12:24:30.001Z</time></trkpt><trkpt lat="42.56557672393508" lon="11.818200294970044"><ele>518.8</ele><time>2026-04-24T12:24:31.001Z</time></trkpt><trkpt lat="42.56547049642841" lon="11.818196196349557"><ele>518.4</ele><time>2026-04-24T12:24:32.001Z</time></trkpt><trkpt lat="42.56536582741313" lon="11.818210697516774"><ele>518.0</ele><time>2026-04-24T12:24:33.001Z</time></trkpt><trkpt lat="42.565274214052046" lon="11.818195925022586"><ele>518.0</ele><time>2026-04-24T12:24:34.001Z</time></trkpt><trkpt lat="42.565184837390134" lon="11.818174332635888"><ele>518.0</ele><time>2026-04-24T12:24:35.001Z</time></trkpt><trkpt lat="42.56510006038746" lon="11.81813047108269"><ele>518.0</ele><time>2026-04-24T12:24:36.001Z</time></trkpt><trkpt lat="42.565014355285996" lon="11.818061046229985"><ele>518.0</ele><time>2026-04-24T12:24:37.001Z</time></trkpt><trkpt lat="42.56493676841008" lon="11.817962072093993"><ele>518.0</ele><time>2026-04-24T12:24:38.001Z</time></trkpt><trkpt lat="42.564855749679516" lon="11.817852530520621"><ele>518.0</ele><time>2026-04-24T12:24:39.001Z</time></trkpt><trkpt lat="42.56477212136278" lon="11.817717618796031"><ele>518.0</ele><time>2026-04-24T12:24:40.001Z</time></trkpt><trkpt lat="42.5646912875298" lon="11.817578381082757"><ele>518.0</ele><time>2026-04-24T12:24:41.001Z</time></trkpt><trkpt lat="42.56462105043866" lon="11.817438410571059"><ele>518.0</ele><time>2026-04-24T12:24:42.001Z</time></trkpt><trkpt lat="42.56455031262079" lon="11.817308630302678"><ele>517.75</ele><time>2026-04-24T12:24:43.001Z</time></trkpt><trkpt lat="42.564497343842966" lon="11.817183867835915"><ele>517.5</ele><time>2026-04-24T12:24:44.001Z</time></trkpt><trkpt lat="42.564439445892965" lon="11.817063407862516"><ele>517.25</ele><time>2026-04-24T12:24:45.001Z</time></trkpt><trkpt lat="42.5643736775241" lon="11.816955648215972"><ele>517.0</ele><time>2026-04-24T12:24:46.001Z</time></trkpt><trkpt lat="42.564412911638534" lon="11.816752528394874"><ele>513.25</ele><time>2026-04-24T12:24:47.001Z</time></trkpt><trkpt lat="42.56437378142473" lon="11.816605128374047"><ele>509.5</ele><time>2026-04-24T12:24:48.001Z</time></trkpt><trkpt lat="42.564351759108" lon="11.816451167577027"><ele>505.75</ele><time>2026-04-24T12:24:49.001Z</time></trkpt><trkpt lat="42.564323075652005" lon="11.81630078680368"><ele>502.0</ele><time>2026-04-24T12:24:50.001Z</time></trkpt><trkpt lat="42.564297511230286" lon="11.816149082321017"><ele>502.0</ele><time>2026-04-24T12:24:51.001Z</time></trkpt><trkpt lat="42.56428279736934" lon="11.815999971097298"><ele>502.00000000000006</ele><time>2026-04-24T12:24:52.001Z</time></trkpt><trkpt lat="42.56427570575746" lon="11.815845421262129"><ele>502.00000000000006</ele><time>2026-04-24T12:24:53.001Z</time></trkpt><trkpt lat="42.56431179665611" lon="11.815703763355303"><ele>502.0</ele><time>2026-04-24T12:24:54.001Z</time></trkpt><trkpt lat="42.564343891356906" lon="11.815580542682936"><ele>502.0</ele><time>2026-04-24T12:24:55.001Z</time></trkpt><trkpt lat="42.564447190306346" lon="11.815502432307063"><ele>498.25</ele><time>2026-04-24T12:24:56.001Z</time></trkpt><trkpt lat="42.56457119229622" lon="11.815463491719845"><ele>494.5</ele><time>2026-04-24T12:24:57.001Z</time></trkpt><trkpt lat="42.56467343185848" lon="11.81537181282997"><ele>490.75</ele><time>2026-04-24T12:24:58.001Z</time></trkpt><trkpt lat="42.56478388970548" lon="11.81529172752145"><ele>487.0</ele><time>2026-04-24T12:24:59.001Z</time></trkpt><trkpt lat="42.5649022646525" lon="11.815197006089097"><ele>487.25</ele><time>2026-04-24T12:25:00.001Z</time></trkpt><trkpt lat="42.56501647867633" lon="11.815108218217553"><ele>487.5</ele><time>2026-04-24T12:25:01.001Z</time></trkpt><trkpt lat="42.5651249054544" lon="11.815028977064765"><ele>487.75</ele><time>2026-04-24T12:25:02.001Z</time></trkpt><trkpt lat="42.5652360372772" lon="11.814946617375421"><ele>488.0</ele><time>2026-04-24T12:25:03.001Z</time></trkpt><trkpt lat="42.565339807790764" lon="11.814868625301095"><ele>485.25</ele><time>2026-04-24T12:25:04.001Z</time></trkpt><trkpt lat="42.56544771499663" lon="11.814796605133967"><ele>482.5</ele><time>2026-04-24T12:25:05.001Z</time></trkpt><trkpt lat="42.56556389687954" lon="11.814753014455261"><ele>479.75</ele><time>2026-04-24T12:25:06.001Z</time></trkpt><trkpt lat="42.5656840956207" lon="11.814754341297641"><ele>477.0</ele><time>2026-04-24T12:25:07.001Z</time></trkpt><trkpt lat="42.56578047175102" lon="11.814832545277474"><ele>477.0</ele><time>2026-04-24T12:25:08.001Z</time></trkpt><trkpt lat="42.565872560256146" lon="11.81491825788966"><ele>477.0</ele><time>2026-04-24T12:25:09.001Z</time></trkpt><trkpt lat="42.56597590030055" lon="11.814995738204642"><ele>477.0</ele><time>2026-04-24T12:25:10.001Z</time></trkpt><trkpt lat="42.566074951182564" lon="11.815100969500863"><ele>477.0</ele><time>2026-04-24T12:25:11.001Z</time></trkpt><trkpt lat="42.566173286783716" lon="11.815199975399626"><ele>479.25</ele><time>2026-04-24T12:25:12.001Z</time></trkpt><trkpt lat="42.56626691389758" lon="11.815290255060349"><ele>481.5</ele><time>2026-04-24T12:25:13.001Z</time></trkpt><trkpt lat="42.5663723927404" lon="11.815367130411262"><ele>483.75</ele><time>2026-04-24T12:25:14.001Z</time></trkpt><trkpt lat="42.566493697614405" lon="11.815412077637589"><ele>486.0</ele><time>2026-04-24T12:25:15.001Z</time></trkpt><trkpt lat="42.56659713539168" lon="11.815441842503366"><ele>486.0</ele><time>2026-04-24T12:25:16.001Z</time></trkpt><trkpt lat="42.56671078055257" lon="11.81545189538007"><ele>486.0</ele><time>2026-04-24T12:25:17.001Z</time></trkpt><trkpt lat="42.56683502322463" lon="11.815439710142526"><ele>486.0</ele><time>2026-04-24T12:25:18.001Z</time></trkpt><trkpt lat="42.56695411532261" lon="11.815416836857262"><ele>486.0</ele><time>2026-04-24T12:25:19.001Z</time></trkpt><trkpt lat="42.56707396533568" lon="11.815385161172733"><ele>485.5</ele><time>2026-04-24T12:25:20.001Z</time></trkpt><trkpt lat="42.5671985152612" lon="11.81535218851473"><ele>485.0</ele><time>2026-04-24T12:25:21.001Z</time></trkpt><trkpt lat="42.56731523990374" lon="11.815325999795549"><ele>484.5</ele><time>2026-04-24T12:25:22.001Z</time></trkpt><trkpt lat="42.567427286706675" lon="11.81530063543161"><ele>484.0</ele><time>2026-04-24T12:25:23.001Z</time></trkpt><trkpt lat="42.5675383415497" lon="11.815284443166723"><ele>484.0</ele><time>2026-04-24T12:25:24.001Z</time></trkpt><trkpt lat="42.56764956494684" lon="11.81526690834236"><ele>484.0</ele><time>2026-04-24T12:25:25.001Z</time></trkpt><trkpt lat="42.56776056996838" lon="11.815249292703013"><ele>484.0</ele><time>2026-04-24T12:25:26.001Z</time></trkpt><trkpt lat="42.567861679569" lon="11.81522853447579"><ele>484.0</ele><time>2026-04-24T12:25:27.001Z</time></trkpt><trkpt lat="42.567961575868125" lon="11.815209486652215"><ele>484.0</ele><time>2026-04-24T12:25:28.001Z</time></trkpt><trkpt lat="42.568067250856345" lon="11.815198696907887"><ele>482.0</ele><time>2026-04-24T12:25:29.001Z</time></trkpt><trkpt lat="42.568178108710484" lon="11.815174971904677"><ele>480.0</ele><time>2026-04-24T12:25:30.001Z</time></trkpt><trkpt lat="42.56829843926156" lon="11.815142594754816"><ele>478.0</ele><time>2026-04-24T12:25:31.001Z</time></trkpt><trkpt lat="42.56841921739403" lon="11.815099096711798"><ele>476.0</ele><time>2026-04-24T12:25:32.001Z</time></trkpt><trkpt lat="42.568539917970384" lon="11.815044383805214"><ele>472.0</ele><time>2026-04-24T12:25:33.001Z</time></trkpt><trkpt lat="42.56866898485559" lon="11.814977172803907"><ele>468.0</ele><time>2026-04-24T12:25:34.001Z</time></trkpt><trkpt lat="42.56881809277241" lon="11.814893702821385"><ele>464.0</ele><time>2026-04-24T12:25:35.001Z</time></trkpt><trkpt lat="42.56896995073087" lon="11.814804664176936"><ele>462.0</ele><time>2026-04-24T12:25:36.001Z</time></trkpt><trkpt lat="42.56913030680883" lon="11.814718586331786"><ele>460.0</ele><time>2026-04-24T12:25:37.001Z</time></trkpt><trkpt lat="42.56928602829254" lon="11.814629708762329"><ele>458.0</ele><time>2026-04-24T12:25:38.001Z</time></trkpt><trkpt lat="42.569435246574415" lon="11.814548256372104"><ele>456.66666666666663</ele><time>2026-04-24T12:25:39.001Z</time></trkpt><trkpt lat="42.56957986954414" lon="11.81447828479732"><ele>455.33333333333337</ele><time>2026-04-24T12:25:40.001Z</time></trkpt><trkpt lat="42.56972351747142" lon="11.814401343665432"><ele>454.0</ele><time>2026-04-24T12:25:41.001Z</time></trkpt><trkpt lat="42.5698655586617" lon="11.814322595454664"><ele>451.33333333333337</ele><time>2026-04-24T12:25:42.001Z</time></trkpt><trkpt lat="42.57000144313086" lon="11.814245357761525"><ele>448.66666666666663</ele><time>2026-04-24T12:25:43.001Z</time></trkpt><trkpt lat="42.57014449472836" lon="11.81415437848257"><ele>446.0</ele><time>2026-04-24T12:25:44.001Z</time></trkpt><trkpt lat="42.570289140599826" lon="11.814073419625233"><ele>445.0</ele><time>2026-04-24T12:25:45.001Z</time></trkpt><trkpt lat="42.5704273834113" lon="11.81396150477662"><ele>444.0</ele><time>2026-04-24T12:25:46.001Z</time></trkpt><trkpt lat="42.570544442195384" lon="11.813864329256312"><ele>443.0</ele><time>2026-04-24T12:25:47.001Z</time></trkpt><trkpt lat="42.57066476039996" lon="11.81374435920859"><ele>442.0</ele><time>2026-04-24T12:25:48.001Z</time></trkpt><trkpt lat="42.57078761916676" lon="11.813603492287612"><ele>440.0</ele><time>2026-04-24T12:25:49.001Z</time></trkpt><trkpt lat="42.5709189944118" lon="11.813446828781085"><ele>438.0</ele><time>2026-04-24T12:25:50.001Z</time></trkpt><trkpt lat="42.571053959798704" lon="11.813283304490879"><ele>436.0</ele><time>2026-04-24T12:25:51.001Z</time></trkpt><trkpt lat="42.57118613769056" lon="11.813117215597302"><ele>435.33333333333337</ele><time>2026-04-24T12:25:52.001Z</time></trkpt><trkpt lat="42.57133034990312" lon="11.81292512225397"><ele>434.66666666666663</ele><time>2026-04-24T12:25:53.001Z</time></trkpt><trkpt lat="42.5714807165011" lon="11.812736587743725"><ele>434.0</ele><time>2026-04-24T12:25:54.001Z</time></trkpt><trkpt lat="42.5716201960168" lon="11.812557237802904"><ele>432.3333333333333</ele><time>2026-04-24T12:25:55.001Z</time></trkpt><trkpt lat="42.57175945814449" lon="11.812376746478463"><ele>430.66666666666663</ele><time>2026-04-24T12:25:56.001Z</time></trkpt><trkpt lat="42.5718956533537" lon="11.812204354731342"><ele>429.0</ele><time>2026-04-24T12:25:57.001Z</time></trkpt><trkpt lat="42.572028985002895" lon="11.812029623489634"><ele>427.33333333333337</ele><time>2026-04-24T12:25:58.001Z</time></trkpt><trkpt lat="42.572158953229405" lon="11.811858479901586"><ele>425.6666666666667</ele><time>2026-04-24T12:25:59.001Z</time></trkpt><trkpt lat="42.57229594967896" lon="11.811689336565633"><ele>424.0</ele><time>2026-04-24T12:26:00.001Z</time></trkpt><trkpt lat="42.57242652565757" lon="11.811522480675091"><ele>423.33333333333337</ele><time>2026-04-24T12:26:01.001Z</time></trkpt><trkpt lat="42.57255477199427" lon="11.811366174701345"><ele>422.66666666666663</ele><time>2026-04-24T12:26:02.001Z</time></trkpt><trkpt lat="42.5726764900745" lon="11.811216801542953"><ele>422.0</ele><time>2026-04-24T12:26:03.001Z</time></trkpt><trkpt lat="42.57280103179988" lon="11.811063372401382"><ele>419.66666666666663</ele><time>2026-04-24T12:26:04.001Z</time></trkpt><trkpt lat="42.572926097166935" lon="11.810911734314534"><ele>417.33333333333337</ele><time>2026-04-24T12:26:05.001Z</time></trkpt><trkpt lat="42.573053257998396" lon="11.810751203753272"><ele>415.0</ele><time>2026-04-24T12:26:06.001Z</time></trkpt><trkpt lat="42.57318131472693" lon="11.810587462240424"><ele>415.0</ele><time>2026-04-24T12:26:07.001Z</time></trkpt><trkpt lat="42.573302736097595" lon="11.810435527760957"><ele>415.0</ele><time>2026-04-24T12:26:08.001Z</time></trkpt><trkpt lat="42.573417616334275" lon="11.810294262618516"><ele>415.0</ele><time>2026-04-24T12:26:09.001Z</time></trkpt><trkpt lat="42.57352547813034" lon="11.81015102683254"><ele>414.33333333333337</ele><time>2026-04-24T12:26:10.001Z</time></trkpt><trkpt lat="42.57361675249209" lon="11.809972414581534"><ele>413.66666666666663</ele><time>2026-04-24T12:26:11.001Z</time></trkpt><trkpt lat="42.573691643982976" lon="11.809759690559128"><ele>413.0</ele><time>2026-04-24T12:26:12.001Z</time></trkpt><trkpt lat="42.573754263849374" lon="11.809531314055546"><ele>411.3333333333333</ele><time>2026-04-24T12:26:13.001Z</time></trkpt><trkpt lat="42.573804585948" lon="11.809303382809148"><ele>409.66666666666663</ele><time>2026-04-24T12:26:14.001Z</time></trkpt><trkpt lat="42.57385005208564" lon="11.80908520854723"><ele>408.0</ele><time>2026-04-24T12:26:15.001Z</time></trkpt><trkpt lat="42.57389977345361" lon="11.808889769707346"><ele>408.0</ele><time>2026-04-24T12:26:16.001Z</time></trkpt><trkpt lat="42.573967294319694" lon="11.808702496950094"><ele>408.0</ele><time>2026-04-24T12:26:17.001Z</time></trkpt><trkpt lat="42.574049193951375" lon="11.808522631440189"><ele>408.0</ele><time>2026-04-24T12:26:18.001Z</time></trkpt><trkpt lat="42.57414738969997" lon="11.808344297430672"><ele>407.33333333333337</ele><time>2026-04-24T12:26:19.001Z</time></trkpt><trkpt lat="42.57425366588376" lon="11.808169142326284"><ele>406.6666666666667</ele><time>2026-04-24T12:26:20.001Z</time></trkpt><trkpt lat="42.57436997386463" lon="11.807993095519276"><ele>406.0</ele><time>2026-04-24T12:26:21.001Z</time></trkpt><trkpt lat="42.574479996551354" lon="11.807810271850116"><ele>404.6666666666667</ele><time>2026-04-24T12:26:22.001Z</time></trkpt><trkpt lat="42.57459315450063" lon="11.807625661291667"><ele>403.33333333333337</ele><time>2026-04-24T12:26:23.001Z</time></trkpt><trkpt lat="42.57470365466443" lon="11.807443992804322"><ele>402.0</ele><time>2026-04-24T12:26:24.001Z</time></trkpt><trkpt lat="42.5748271736286" lon="11.807268854405194"><ele>402.0</ele><time>2026-04-24T12:26:25.001Z</time></trkpt><trkpt lat="42.574944908649" lon="11.807095597206247"><ele>402.0</ele><time>2026-04-24T12:26:26.001Z</time></trkpt><trkpt lat="42.575052926272804" lon="11.806916789665593"><ele>402.0</ele><time>2026-04-24T12:26:27.001Z</time></trkpt><trkpt lat="42.575160808828876" lon="11.80673372569931"><ele>401.66666666666663</ele><time>2026-04-24T12:26:28.001Z</time></trkpt><trkpt lat="42.57526248635164" lon="11.80655390595195"><ele>401.3333333333333</ele><time>2026-04-24T12:26:29.001Z</time></trkpt><trkpt lat="42.57537699717229" lon="11.806362666608827"><ele>401.0</ele><time>2026-04-24T12:26:30.001Z</time></trkpt><trkpt lat="42.57550000518981" lon="11.806168307628937"><ele>400.0</ele><time>2026-04-24T12:26:31.001Z</time></trkpt><trkpt lat="42.57562408282173" lon="11.805963872471677"><ele>399.0</ele><time>2026-04-24T12:26:32.001Z</time></trkpt><trkpt lat="42.57575002418899" lon="11.805756557324514"><ele>398.0</ele><time>2026-04-24T12:26:33.001Z</time></trkpt><trkpt lat="42.57587207791394" lon="11.805547567739955"><ele>398.0</ele><time>2026-04-24T12:26:34.001Z</time></trkpt><trkpt lat="42.575998146127624" lon="11.805335615188644"><ele>398.0</ele><time>2026-04-24T12:26:35.001Z</time></trkpt><trkpt lat="42.57612456169707" lon="11.805131267034955"><ele>398.0</ele><time>2026-04-24T12:26:36.001Z</time></trkpt><trkpt lat="42.5762500258381" lon="11.804910723444292"><ele>396.66666666666663</ele><time>2026-04-24T12:26:37.001Z</time></trkpt><trkpt lat="42.576372433608505" lon="11.804692161982869"><ele>395.33333333333337</ele><time>2026-04-24T12:26:38.001Z</time></trkpt><trkpt lat="42.576503643297194" lon="11.804471833610625"><ele>394.0</ele><time>2026-04-24T12:26:39.001Z</time></trkpt><trkpt lat="42.576635979471845" lon="11.804250617942472"><ele>394.0</ele><time>2026-04-24T12:26:40.001Z</time></trkpt><trkpt lat="42.57677275466943" lon="11.80403087057556"><ele>394.0</ele><time>2026-04-24T12:26:41.001Z</time></trkpt><trkpt lat="42.57690435349466" lon="11.803810107180814"><ele>394.0</ele><time>2026-04-24T12:26:42.001Z</time></trkpt><trkpt lat="42.577039515947355" lon="11.803591686654322"><ele>393.33333333333337</ele><time>2026-04-24T12:26:43.001Z</time></trkpt><trkpt lat="42.577171841864484" lon="11.803373043583086"><ele>392.66666666666663</ele><time>2026-04-24T12:26:44.001Z</time></trkpt><trkpt lat="42.57730069192673" lon="11.80315602299988"><ele>392.0</ele><time>2026-04-24T12:26:45.001Z</time></trkpt><trkpt lat="42.57742745019307" lon="11.802947302822641"><ele>392.0</ele><time>2026-04-24T12:26:46.001Z</time></trkpt><trkpt lat="42.57756151857298" lon="11.802734705216942"><ele>392.0</ele><time>2026-04-24T12:26:47.001Z</time></trkpt><trkpt lat="42.577692859419074" lon="11.802525331244249"><ele>392.0</ele><time>2026-04-24T12:26:48.001Z</time></trkpt><trkpt lat="42.577820221790496" lon="11.802319842387897"><ele>392.0</ele><time>2026-04-24T12:26:49.001Z</time></trkpt><trkpt lat="42.57794247433842" lon="11.802108354045345"><ele>392.0</ele><time>2026-04-24T12:26:50.001Z</time></trkpt><trkpt lat="42.57806684812899" lon="11.801903586656792"><ele>392.0</ele><time>2026-04-24T12:26:51.001Z</time></trkpt><trkpt lat="42.578197949159005" lon="11.801697193376905"><ele>391.0</ele><time>2026-04-24T12:26:52.001Z</time></trkpt><trkpt lat="42.57833414506275" lon="11.80148087740956"><ele>390.0</ele><time>2026-04-24T12:26:53.001Z</time></trkpt><trkpt lat="42.57846893113118" lon="11.801266884633344"><ele>389.0</ele><time>2026-04-24T12:26:54.001Z</time></trkpt><trkpt lat="42.578604078546974" lon="11.801042670755436"><ele>389.3333333333333</ele><time>2026-04-24T12:26:55.001Z</time></trkpt><trkpt lat="42.57874226085265" lon="11.800814928828803"><ele>389.66666666666663</ele><time>2026-04-24T12:26:56.001Z</time></trkpt><trkpt lat="42.57887994810747" lon="11.800585131186692"><ele>390.0</ele><time>2026-04-24T12:26:57.001Z</time></trkpt><trkpt lat="42.57901751078723" lon="11.800354705389346"><ele>389.66666666666663</ele><time>2026-04-24T12:26:58.001Z</time></trkpt><trkpt lat="42.579160368690815" lon="11.800123486851792"><ele>389.3333333333333</ele><time>2026-04-24T12:26:59.001Z</time></trkpt><trkpt lat="42.57929489793702" lon="11.799899140824392"><ele>389.0</ele><time>2026-04-24T12:27:00.001Z</time></trkpt><trkpt lat="42.57943045904301" lon="11.79967920745802"><ele>389.0</ele><time>2026-04-24T12:27:01.001Z</time></trkpt><trkpt lat="42.5795653060595" lon="11.799464058420758"><ele>389.0</ele><time>2026-04-24T12:27:02.001Z</time></trkpt><trkpt lat="42.579695696404364" lon="11.799253642569687"><ele>389.0</ele><time>2026-04-24T12:27:03.001Z</time></trkpt><trkpt lat="42.5798326807856" lon="11.799042101103549"><ele>389.3333333333333</ele><time>2026-04-24T12:27:04.001Z</time></trkpt><trkpt lat="42.57995743808584" lon="11.798828770760025"><ele>389.66666666666663</ele><time>2026-04-24T12:27:05.001Z</time></trkpt><trkpt lat="42.580086187123435" lon="11.798606086810432"><ele>390.0</ele><time>2026-04-24T12:27:06.001Z</time></trkpt><trkpt lat="42.580220310754676" lon="11.798380231583412"><ele>390.0</ele><time>2026-04-24T12:27:07.001Z</time></trkpt><trkpt lat="42.58035961729835" lon="11.798159785970679"><ele>390.0</ele><time>2026-04-24T12:27:08.001Z</time></trkpt><trkpt lat="42.5804943465262" lon="11.797937938686735"><ele>390.0</ele><time>2026-04-24T12:27:09.001Z</time></trkpt><trkpt lat="42.580626932366094" lon="11.79772392506396"><ele>390.0</ele><time>2026-04-24T12:27:10.001Z</time></trkpt><trkpt lat="42.5807612215158" lon="11.797503969488208"><ele>390.0</ele><time>2026-04-24T12:27:11.001Z</time></trkpt><trkpt lat="42.580893008748774" lon="11.797284777790907"><ele>390.0</ele><time>2026-04-24T12:27:12.001Z</time></trkpt><trkpt lat="42.58102287461591" lon="11.797073808787715"><ele>390.0</ele><time>2026-04-24T12:27:13.001Z</time></trkpt><trkpt lat="42.58116119316331" lon="11.796854838198394"><ele>390.0</ele><time>2026-04-24T12:27:14.001Z</time></trkpt><trkpt lat="42.58129418189958" lon="11.796633025437824"><ele>390.0</ele><time>2026-04-24T12:27:15.001Z</time></trkpt><trkpt lat="42.58142089799909" lon="11.796417796078604"><ele>390.66666666666663</ele><time>2026-04-24T12:27:16.001Z</time></trkpt><trkpt lat="42.5815501535082" lon="11.796203018130905"><ele>391.3333333333333</ele><time>2026-04-24T12:27:17.001Z</time></trkpt><trkpt lat="42.58168181633862" lon="11.795989798383713"><ele>392.0</ele><time>2026-04-24T12:27:18.001Z</time></trkpt><trkpt lat="42.58182031789103" lon="11.795765937982827"><ele>392.0</ele><time>2026-04-24T12:27:19.001Z</time></trkpt><trkpt lat="42.58197163915546" lon="11.795535377041498"><ele>392.0</ele><time>2026-04-24T12:27:20.001Z</time></trkpt><trkpt lat="42.582115116443134" lon="11.795301540915771"><ele>392.66666666666663</ele><time>2026-04-24T12:27:21.001Z</time></trkpt><trkpt lat="42.582239766812044" lon="11.795082402725441"><ele>393.33333333333337</ele><time>2026-04-24T12:27:22.001Z</time></trkpt><trkpt lat="42.58235959928317" lon="11.794882065373281"><ele>394.0</ele><time>2026-04-24T12:27:23.001Z</time></trkpt><trkpt lat="42.58248299401074" lon="11.794682591402863"><ele>394.0</ele><time>2026-04-24T12:27:24.001Z</time></trkpt><trkpt lat="42.58259949612097" lon="11.794484771752604"><ele>394.0</ele><time>2026-04-24T12:27:25.001Z</time></trkpt><trkpt lat="42.58271564190809" lon="11.794296145321567"><ele>394.0</ele><time>2026-04-24T12:27:26.001Z</time></trkpt><trkpt lat="42.582833302207156" lon="11.794101540994607"><ele>395.0</ele><time>2026-04-24T12:27:27.001Z</time></trkpt><trkpt lat="42.58295750191493" lon="11.793902623166113"><ele>396.0</ele><time>2026-04-24T12:27:28.001Z</time></trkpt><trkpt lat="42.58308292065562" lon="11.793703972086792"><ele>397.0</ele><time>2026-04-24T12:27:29.001Z</time></trkpt><trkpt lat="42.583210992089164" lon="11.793497182882332"><ele>398.0</ele><time>2026-04-24T12:27:30.001Z</time></trkpt><trkpt lat="42.58333673369151" lon="11.79328480598805"><ele>399.0</ele><time>2026-04-24T12:27:31.001Z</time></trkpt><trkpt lat="42.58346450947215" lon="11.79307757068156"><ele>400.0</ele><time>2026-04-24T12:27:32.001Z</time></trkpt><trkpt lat="42.58359299152934" lon="11.792862858528892"><ele>401.0</ele><time>2026-04-24T12:27:33.001Z</time></trkpt><trkpt lat="42.583724290042895" lon="11.792648705612915"><ele>402.0</ele><time>2026-04-24T12:27:34.001Z</time></trkpt><trkpt lat="42.583844061037325" lon="11.792440513927096"><ele>403.0</ele><time>2026-04-24T12:27:35.001Z</time></trkpt><trkpt lat="42.583961526493326" lon="11.792242623606763"><ele>403.0</ele><time>2026-04-24T12:27:36.001Z</time></trkpt><trkpt lat="42.584075084112925" lon="11.792059494912653"><ele>403.0</ele><time>2026-04-24T12:27:37.001Z</time></trkpt><trkpt lat="42.584188639984546" lon="11.791877971288105"><ele>403.0</ele><time>2026-04-24T12:27:38.001Z</time></trkpt><trkpt lat="42.5842948491802" lon="11.791699651175286"><ele>403.0</ele><time>2026-04-24T12:27:39.001Z</time></trkpt><trkpt lat="42.584402440808674" lon="11.791527658398973"><ele>403.0</ele><time>2026-04-24T12:27:40.001Z</time></trkpt><trkpt lat="42.58451108355526" lon="11.791350267785125"><ele>403.0</ele><time>2026-04-24T12:27:41.001Z</time></trkpt><trkpt lat="42.58462591555504" lon="11.791166895524322"><ele>401.33333333333337</ele><time>2026-04-24T12:27:42.001Z</time></trkpt><trkpt lat="42.58473138290269" lon="11.790987859109045"><ele>399.66666666666663</ele><time>2026-04-24T12:27:43.001Z</time></trkpt><trkpt lat="42.584829841806965" lon="11.790821271977654"><ele>398.0</ele><time>2026-04-24T12:27:44.001Z</time></trkpt><trkpt lat="42.58492581163624" lon="11.79069782740863"><ele>398.0</ele><time>2026-04-24T12:27:45.001Z</time></trkpt><trkpt lat="42.58500878414545" lon="11.79056400741288"><ele>398.0</ele><time>2026-04-24T12:27:46.001Z</time></trkpt><trkpt lat="42.58507750069316" lon="11.79042034473214"><ele>398.0</ele><time>2026-04-24T12:27:47.001Z</time></trkpt><trkpt lat="42.58515928994258" lon="11.79031644102935"><ele>398.0</ele><time>2026-04-24T12:27:48.001Z</time></trkpt><trkpt lat="42.58522447817501" lon="11.790204698049534"><ele>398.0</ele><time>2026-04-24T12:27:49.001Z</time></trkpt><trkpt lat="42.5852862157899" lon="11.790101748452997"><ele>398.0</ele><time>2026-04-24T12:27:50.001Z</time></trkpt><trkpt lat="42.58534346865798" lon="11.79000847487657"><ele>398.0</ele><time>2026-04-24T12:27:51.001Z</time></trkpt><trkpt lat="42.5854044271024" lon="11.78990520932565"><ele>398.0</ele><time>2026-04-24T12:27:52.001Z</time></trkpt><trkpt lat="42.58547810951482" lon="11.789777600012275"><ele>398.0</ele><time>2026-04-24T12:27:53.001Z</time></trkpt><trkpt lat="42.58555749388586" lon="11.789649072779468"><ele>397.75</ele><time>2026-04-24T12:27:54.001Z</time></trkpt><trkpt lat="42.58563153609724" lon="11.789532614396043"><ele>397.5</ele><time>2026-04-24T12:27:55.001Z</time></trkpt><trkpt lat="42.58570933743643" lon="11.78940079248288"><ele>397.25</ele><time>2026-04-24T12:27:56.001Z</time></trkpt><trkpt lat="42.58578767094719" lon="11.789264872136817"><ele>397.0</ele><time>2026-04-24T12:27:57.001Z</time></trkpt><trkpt lat="42.58589066045005" lon="11.789132897453408"><ele>397.5</ele><time>2026-04-24T12:27:58.001Z</time></trkpt><trkpt lat="42.58597563512539" lon="11.788994324097544"><ele>398.0</ele><time>2026-04-24T12:27:59.001Z</time></trkpt><trkpt lat="42.586071125605756" lon="11.788839977869632"><ele>398.5</ele><time>2026-04-24T12:28:00.001Z</time></trkpt><trkpt lat="42.58617159976415" lon="11.788681573829571"><ele>399.0</ele><time>2026-04-24T12:28:01.001Z</time></trkpt><trkpt lat="42.586272755569254" lon="11.788515541478736"><ele>399.66666666666663</ele><time>2026-04-24T12:28:02.001Z</time></trkpt><trkpt lat="42.58636810427641" lon="11.788365749659441"><ele>400.3333333333333</ele><time>2026-04-24T12:28:03.001Z</time></trkpt><trkpt lat="42.58646725907764" lon="11.788202000736298"><ele>401.0</ele><time>2026-04-24T12:28:04.001Z</time></trkpt><trkpt lat="42.58657118990721" lon="11.788020602010258"><ele>401.0</ele><time>2026-04-24T12:28:05.001Z</time></trkpt><trkpt lat="42.58667782877087" lon="11.78784807265689"><ele>401.0</ele><time>2026-04-24T12:28:06.001Z</time></trkpt><trkpt lat="42.586786889478574" lon="11.787671175573735"><ele>401.0</ele><time>2026-04-24T12:28:07.001Z</time></trkpt><trkpt lat="42.58688589496158" lon="11.78750121908558"><ele>401.3333333333333</ele><time>2026-04-24T12:28:08.001Z</time></trkpt><trkpt lat="42.586975093255276" lon="11.78734068300482"><ele>401.66666666666663</ele><time>2026-04-24T12:28:09.001Z</time></trkpt><trkpt lat="42.587080941880004" lon="11.787166061316997"><ele>402.0</ele><time>2026-04-24T12:28:10.001Z</time></trkpt><trkpt lat="42.5871883680978" lon="11.786978424370322"><ele>402.66666666666663</ele><time>2026-04-24T12:28:11.001Z</time></trkpt><trkpt lat="42.587295808486616" lon="11.786789952407608"><ele>403.3333333333333</ele><time>2026-04-24T12:28:12.001Z</time></trkpt><trkpt lat="42.587406611398194" lon="11.786621140455864"><ele>404.0</ele><time>2026-04-24T12:28:13.001Z</time></trkpt><trkpt lat="42.58751016811309" lon="11.786472270524177"><ele>404.0</ele><time>2026-04-24T12:28:14.001Z</time></trkpt><trkpt lat="42.58760464973257" lon="11.78633501468471"><ele>404.0</ele><time>2026-04-24T12:28:15.001Z</time></trkpt><trkpt lat="42.587696700740956" lon="11.786185978398418"><ele>404.0</ele><time>2026-04-24T12:28:16.001Z</time></trkpt><trkpt lat="42.587790517215495" lon="11.786020023041631"><ele>404.0</ele><time>2026-04-24T12:28:17.001Z</time></trkpt><trkpt lat="42.58788146558481" lon="11.785862770334463"><ele>404.75</ele><time>2026-04-24T12:28:18.001Z</time></trkpt><trkpt lat="42.58796169592591" lon="11.785725987712622"><ele>405.5</ele><time>2026-04-24T12:28:19.001Z</time></trkpt><trkpt lat="42.588058524901236" lon="11.785579107883677"><ele>406.25</ele><time>2026-04-24T12:28:20.001Z</time></trkpt><trkpt lat="42.588154105807476" lon="11.785426672007423"><ele>407.0</ele><time>2026-04-24T12:28:21.001Z</time></trkpt><trkpt lat="42.58825703189234" lon="11.785267341029396"><ele>407.66666666666663</ele><time>2026-04-24T12:28:22.001Z</time></trkpt><trkpt lat="42.58835241444298" lon="11.785106666501973"><ele>408.33333333333337</ele><time>2026-04-24T12:28:23.001Z</time></trkpt><trkpt lat="42.588453597865865" lon="11.784938189860968"><ele>409.0</ele><time>2026-04-24T12:28:24.001Z</time></trkpt><trkpt lat="42.58855540558774" lon="11.784775355476585"><ele>409.0</ele><time>2026-04-24T12:28:25.001Z</time></trkpt><trkpt lat="42.58865392363563" lon="11.78461219752275"><ele>409.0</ele><time>2026-04-24T12:28:26.001Z</time></trkpt><trkpt lat="42.58875678093977" lon="11.78444605457023"><ele>409.0</ele><time>2026-04-24T12:28:27.001Z</time></trkpt><trkpt lat="42.58885957159421" lon="11.784289542485627"><ele>410.75</ele><time>2026-04-24T12:28:28.001Z</time></trkpt><trkpt lat="42.58895367718126" lon="11.784148558662626"><ele>412.5</ele><time>2026-04-24T12:28:29.001Z</time></trkpt><trkpt lat="42.58904245974571" lon="11.784001684647096"><ele>414.25</ele><time>2026-04-24T12:28:30.002Z</time></trkpt><trkpt lat="42.58912500802332" lon="11.783837035754738"><ele>416.0</ele><time>2026-04-24T12:28:31.002Z</time></trkpt><trkpt lat="42.589192566397514" lon="11.78366645707946"><ele>416.0</ele><time>2026-04-24T12:28:32.002Z</time></trkpt><trkpt lat="42.589277613085855" lon="11.783519675441088"><ele>416.0</ele><time>2026-04-24T12:28:33.002Z</time></trkpt><trkpt lat="42.58938299342715" lon="11.78337328779174"><ele>416.0</ele><time>2026-04-24T12:28:34.002Z</time></trkpt><trkpt lat="42.589502565683595" lon="11.783232745651308"><ele>416.0</ele><time>2026-04-24T12:28:35.002Z</time></trkpt><trkpt lat="42.58962310564763" lon="11.783094620211884"><ele>419.0</ele><time>2026-04-24T12:28:36.002Z</time></trkpt><trkpt lat="42.58973060773269" lon="11.782949337256499"><ele>422.0</ele><time>2026-04-24T12:28:37.002Z</time></trkpt><trkpt lat="42.58982896774051" lon="11.78280246035263"><ele>425.0</ele><time>2026-04-24T12:28:38.002Z</time></trkpt><trkpt lat="42.58992983959272" lon="11.782647504039895"><ele>425.75</ele><time>2026-04-24T12:28:39.002Z</time></trkpt><trkpt lat="42.590028480738674" lon="11.78249571853268"><ele>426.5</ele><time>2026-04-24T12:28:40.002Z</time></trkpt><trkpt lat="42.59012336297244" lon="11.782357603811894"><ele>427.25</ele><time>2026-04-24T12:28:41.002Z</time></trkpt><trkpt lat="42.59021825095093" lon="11.782220108515206"><ele>428.0</ele><time>2026-04-24T12:28:42.002Z</time></trkpt><trkpt lat="42.590322181254066" lon="11.78208197559602"><ele>430.66666666666663</ele><time>2026-04-24T12:28:43.002Z</time></trkpt><trkpt lat="42.59043078014318" lon="11.781952093013157"><ele>433.33333333333337</ele><time>2026-04-24T12:28:44.002Z</time></trkpt><trkpt lat="42.59055477002994" lon="11.7818157275339"><ele>436.0</ele><time>2026-04-24T12:28:45.002Z</time></trkpt><trkpt lat="42.59067484761349" lon="11.78169448741068"><ele>436.0</ele><time>2026-04-24T12:28:46.002Z</time></trkpt><trkpt lat="42.59079147245626" lon="11.781577453072925"><ele>436.0</ele><time>2026-04-24T12:28:47.002Z</time></trkpt><trkpt lat="42.590912812011" lon="11.781453608686723"><ele>436.0</ele><time>2026-04-24T12:28:48.002Z</time></trkpt><trkpt lat="42.59103020983385" lon="11.781325064485985"><ele>436.0</ele><time>2026-04-24T12:28:49.002Z</time></trkpt><trkpt lat="42.591154664888805" lon="11.781216441756603"><ele>438.0</ele><time>2026-04-24T12:28:50.002Z</time></trkpt><trkpt lat="42.591267618218275" lon="11.78111246157292"><ele>440.0</ele><time>2026-04-24T12:28:51.002Z</time></trkpt><trkpt lat="42.5913783189219" lon="11.781003403134381"><ele>442.0</ele><time>2026-04-24T12:28:52.002Z</time></trkpt><trkpt lat="42.5915192610886" lon="11.780946547087314"><ele>444.0</ele><time>2026-04-24T12:28:53.002Z</time></trkpt><trkpt lat="42.59163143975765" lon="11.780923193789398"><ele>444.0</ele><time>2026-04-24T12:28:54.002Z</time></trkpt><trkpt lat="42.59174913569432" lon="11.780947234265565"><ele>444.0</ele><time>2026-04-24T12:28:55.002Z</time></trkpt><trkpt lat="42.59185797673696" lon="11.780979693182925"><ele>444.0</ele><time>2026-04-24T12:28:56.002Z</time></trkpt><trkpt lat="42.59197905678798" lon="11.78100959024098"><ele>444.0</ele><time>2026-04-24T12:28:57.002Z</time></trkpt><trkpt lat="42.59209317849076" lon="11.781084527556855"><ele>445.25</ele><time>2026-04-24T12:28:58.002Z</time></trkpt><trkpt lat="42.5922135381162" lon="11.781121842117122"><ele>446.5</ele><time>2026-04-24T12:28:59.002Z</time></trkpt><trkpt lat="42.59232638150437" lon="11.781158909871946"><ele>447.75</ele><time>2026-04-24T12:29:00.002Z</time></trkpt><trkpt lat="42.592431767835805" lon="11.7811798602567"><ele>449.0</ele><time>2026-04-24T12:29:01.002Z</time></trkpt><trkpt lat="42.59254414506489" lon="11.78117954762602"><ele>449.0</ele><time>2026-04-24T12:29:02.002Z</time></trkpt><trkpt lat="42.59264857900491" lon="11.781160087076964"><ele>449.0</ele><time>2026-04-24T12:29:03.002Z</time></trkpt><trkpt lat="42.59275146296405" lon="11.781118733278928"><ele>449.0</ele><time>2026-04-24T12:29:04.002Z</time></trkpt><trkpt lat="42.592858357807714" lon="11.781081345315766"><ele>449.0</ele><time>2026-04-24T12:29:05.002Z</time></trkpt><trkpt lat="42.59296844711153" lon="11.781056566730712"><ele>449.0</ele><time>2026-04-24T12:29:06.002Z</time></trkpt><trkpt lat="42.5930680324142" lon="11.781063104708545"><ele>450.79999999999995</ele><time>2026-04-24T12:29:07.002Z</time></trkpt><trkpt lat="42.593173201393725" lon="11.781072947809976"><ele>452.59999999999997</ele><time>2026-04-24T12:29:08.002Z</time></trkpt><trkpt lat="42.59323899565673" lon="11.781076348382335"><ele>454.4</ele><time>2026-04-24T12:29:09.002Z</time></trkpt><trkpt lat="42.59330326556841" lon="11.781054052126134"><ele>456.2</ele><time>2026-04-24T12:29:10.002Z</time></trkpt><trkpt lat="42.593408864903076" lon="11.781005417756722"><ele>458.0</ele><time>2026-04-24T12:29:11.002Z</time></trkpt><trkpt lat="42.59350322364869" lon="11.78094936189327"><ele>459.0</ele><time>2026-04-24T12:29:12.002Z</time></trkpt><trkpt lat="42.593592746225355" lon="11.780857694014474"><ele>459.99999999999994</ele><time>2026-04-24T12:29:13.002Z</time></trkpt><trkpt lat="42.59366965046843" lon="11.780784939281252"><ele>460.99999999999994</ele><time>2026-04-24T12:29:14.002Z</time></trkpt><trkpt lat="42.59375400943382" lon="11.78069510845127"><ele>462.0</ele><time>2026-04-24T12:29:15.002Z</time></trkpt><trkpt lat="42.59383470310166" lon="11.780639053335639"><ele>463.0</ele><time>2026-04-24T12:29:16.002Z</time></trkpt><trkpt lat="42.59391894972861" lon="11.780592872685743"><ele>464.50000000000006</ele><time>2026-04-24T12:29:17.002Z</time></trkpt><trkpt lat="42.59398590788413" lon="11.780590196054444"><ele>466.0</ele><time>2026-04-24T12:29:18.002Z</time></trkpt><trkpt lat="42.59409525408333" lon="11.78059395885034"><ele>467.5</ele><time>2026-04-24T12:29:20.002Z</time></trkpt><trkpt lat="42.594161991922746" lon="11.780625348567103"><ele>469.0</ele><time>2026-04-24T12:29:21.002Z</time></trkpt><trkpt lat="42.59422690219946" lon="11.780668260545616"><ele>470.50000000000006</ele><time>2026-04-24T12:29:22.002Z</time></trkpt><trkpt lat="42.594290859309304" lon="11.78069980443707"><ele>472.0</ele><time>2026-04-24T12:29:23.002Z</time></trkpt><trkpt lat="42.59440848899349" lon="11.780712148196384"><ele>474.0</ele><time>2026-04-24T12:29:25.002Z</time></trkpt><trkpt lat="42.59452317500087" lon="11.780666029989236"><ele>476.00000000000006</ele><time>2026-04-24T12:29:27.002Z</time></trkpt><trkpt lat="42.59459529993258" lon="11.780627522150013"><ele>478.00000000000006</ele><time>2026-04-24T12:29:28.002Z</time></trkpt><trkpt lat="42.594682168717405" lon="11.780579548751938"><ele>480.0</ele><time>2026-04-24T12:29:29.002Z</time></trkpt><trkpt lat="42.59478469155607" lon="11.780549023148016"><ele>482.0</ele><time>2026-04-24T12:29:30.002Z</time></trkpt><trkpt lat="42.594887274388476" lon="11.780591066537001"><ele>482.0</ele><time>2026-04-24T12:29:31.002Z</time></trkpt><trkpt lat="42.594971020782445" lon="11.780623219380379"><ele>482.00000000000006</ele><time>2026-04-24T12:29:32.002Z</time></trkpt><trkpt lat="42.59506155121181" lon="11.780667843086645"><ele>482.00000000000006</ele><time>2026-04-24T12:29:33.002Z</time></trkpt><trkpt lat="42.59518795010251" lon="11.780696086427948"><ele>482.0</ele><time>2026-04-24T12:29:34.002Z</time></trkpt><trkpt lat="42.595292811033204" lon="11.780739159454452"><ele>482.0</ele><time>2026-04-24T12:29:35.002Z</time></trkpt><trkpt lat="42.59539472537072" lon="11.780738906674898"><ele>485.0</ele><time>2026-04-24T12:29:36.002Z</time></trkpt><trkpt lat="42.59549975486622" lon="11.780717389195534"><ele>488.0</ele><time>2026-04-24T12:29:37.002Z</time></trkpt><trkpt lat="42.595615184521655" lon="11.780693405317496"><ele>491.0</ele><time>2026-04-24T12:29:38.002Z</time></trkpt><trkpt lat="42.5957447962388" lon="11.780640666603214"><ele>494.0</ele><time>2026-04-24T12:29:39.002Z</time></trkpt><trkpt lat="42.59586094055314" lon="11.78057677631977"><ele>494.0</ele><time>2026-04-24T12:29:40.002Z</time></trkpt><trkpt lat="42.595966221564396" lon="11.780470541490178"><ele>494.0</ele><time>2026-04-24T12:29:41.002Z</time></trkpt><trkpt lat="42.59604317414838" lon="11.780325312335426"><ele>494.0</ele><time>2026-04-24T12:29:42.002Z</time></trkpt><trkpt lat="42.596147278980254" lon="11.780219196808739"><ele>494.0</ele><time>2026-04-24T12:29:43.002Z</time></trkpt><trkpt lat="42.59620009890598" lon="11.78011144746587"><ele>496.5</ele><time>2026-04-24T12:29:44.002Z</time></trkpt><trkpt lat="42.59627551691249" lon="11.780018361549542"><ele>499.0</ele><time>2026-04-24T12:29:45.002Z</time></trkpt><trkpt lat="42.5963667189212" lon="11.779910347168396"><ele>501.5</ele><time>2026-04-24T12:29:46.002Z</time></trkpt><trkpt lat="42.596493303082404" lon="11.779793646576143"><ele>504.0</ele><time>2026-04-24T12:29:47.002Z</time></trkpt><trkpt lat="42.596616850366175" lon="11.77966774043083"><ele>504.0</ele><time>2026-04-24T12:29:48.002Z</time></trkpt><trkpt lat="42.596755610468534" lon="11.779561983663209"><ele>504.0</ele><time>2026-04-24T12:29:49.002Z</time></trkpt><trkpt lat="42.596873672274604" lon="11.779474604254421"><ele>504.0</ele><time>2026-04-24T12:29:50.002Z</time></trkpt><trkpt lat="42.59698165738137" lon="11.779402097455767"><ele>504.0</ele><time>2026-04-24T12:29:51.002Z</time></trkpt><trkpt lat="42.59710817820308" lon="11.779370958670237"><ele>504.25</ele><time>2026-04-24T12:29:52.002Z</time></trkpt><trkpt lat="42.59724779804428" lon="11.779352836160175"><ele>504.5</ele><time>2026-04-24T12:29:53.002Z</time></trkpt><trkpt lat="42.597384688132266" lon="11.77935358164599"><ele>504.75</ele><time>2026-04-24T12:29:54.002Z</time></trkpt><trkpt lat="42.59753043962272" lon="11.77935661830054"><ele>505.0</ele><time>2026-04-24T12:29:55.002Z</time></trkpt><trkpt lat="42.59767378111541" lon="11.779345478139831"><ele>505.0</ele><time>2026-04-24T12:29:56.002Z</time></trkpt><trkpt lat="42.59782211795321" lon="11.779326131750803"><ele>505.0</ele><time>2026-04-24T12:29:57.002Z</time></trkpt><trkpt lat="42.59797101173609" lon="11.779301614043943"><ele>505.0</ele><time>2026-04-24T12:29:58.002Z</time></trkpt><trkpt lat="42.59812694356159" lon="11.7792711329327"><ele>506.25</ele><time>2026-04-24T12:29:59.002Z</time></trkpt><trkpt lat="42.5982796146558" lon="11.7792559398253"><ele>507.5</ele><time>2026-04-24T12:30:00.002Z</time></trkpt><trkpt lat="42.598429200976135" lon="11.779245588070852"><ele>508.75</ele><time>2026-04-24T12:30:01.002Z</time></trkpt><trkpt lat="42.59856906667664" lon="11.779232626061583"><ele>510.0</ele><time>2026-04-24T12:30:02.002Z</time></trkpt><trkpt lat="42.598714157420744" lon="11.779210185171072"><ele>512.3333333333334</ele><time>2026-04-24T12:30:03.002Z</time></trkpt><trkpt lat="42.598881796243326" lon="11.779188858154525"><ele>514.6666666666667</ele><time>2026-04-24T12:30:04.002Z</time></trkpt><trkpt lat="42.59902599948369" lon="11.779190482018036"><ele>517.0</ele><time>2026-04-24T12:30:05.002Z</time></trkpt><trkpt lat="42.59916371575667" lon="11.779204805604314"><ele>517.0</ele><time>2026-04-24T12:30:06.002Z</time></trkpt><trkpt lat="42.59929253486222" lon="11.779212070000959"><ele>517.0</ele><time>2026-04-24T12:30:07.002Z</time></trkpt><trkpt lat="42.59944821375186" lon="11.77919018792506"><ele>517.0</ele><time>2026-04-24T12:30:08.002Z</time></trkpt><trkpt lat="42.59960868065013" lon="11.779146216808481"><ele>517.0</ele><time>2026-04-24T12:30:09.002Z</time></trkpt><trkpt lat="42.59976797291344" lon="11.77909449883277"><ele>519.3333333333334</ele><time>2026-04-24T12:30:10.002Z</time></trkpt><trkpt lat="42.599934716269" lon="11.77903944401134"><ele>521.6666666666666</ele><time>2026-04-24T12:30:11.002Z</time></trkpt><trkpt lat="42.60008794322148" lon="11.779016736098397"><ele>524.0</ele><time>2026-04-24T12:30:12.002Z</time></trkpt><trkpt lat="42.600216983094505" lon="11.778989545212418"><ele>524.25</ele><time>2026-04-24T12:30:13.002Z</time></trkpt><trkpt lat="42.60033805733287" lon="11.77895734551119"><ele>524.5</ele><time>2026-04-24T12:30:14.002Z</time></trkpt><trkpt lat="42.6004582051307" lon="11.778919053236354"><ele>524.75</ele><time>2026-04-24T12:30:15.002Z</time></trkpt><trkpt lat="42.600569342434696" lon="11.778890795131487"><ele>525.0</ele><time>2026-04-24T12:30:16.002Z</time></trkpt><trkpt lat="42.60066807511856" lon="11.778854209277476"><ele>525.0</ele><time>2026-04-24T12:30:17.002Z</time></trkpt><trkpt lat="42.60075807819666" lon="11.77885897295235"><ele>525.0</ele><time>2026-04-24T12:30:18.002Z</time></trkpt><trkpt lat="42.60085058782897" lon="11.778730600160381"><ele>525.0</ele><time>2026-04-24T12:30:19.002Z</time></trkpt><trkpt lat="42.60094042019323" lon="11.778639725019737"><ele>525.0</ele><time>2026-04-24T12:30:20.002Z</time></trkpt><trkpt lat="42.60103457098227" lon="11.778535926937183"><ele>524.4</ele><time>2026-04-24T12:30:21.002Z</time></trkpt><trkpt lat="42.60111251858794" lon="11.778424996537593"><ele>523.8</ele><time>2026-04-24T12:30:22.002Z</time></trkpt><trkpt lat="42.60118562790394" lon="11.77830686337511"><ele>523.2</ele><time>2026-04-24T12:30:23.002Z</time></trkpt><trkpt lat="42.601242395126526" lon="11.778185484024585"><ele>522.6</ele><time>2026-04-24T12:30:24.002Z</time></trkpt><trkpt lat="42.60129772297903" lon="11.778050282596826"><ele>522.0</ele><time>2026-04-24T12:30:25.002Z</time></trkpt><trkpt lat="42.60136680820407" lon="11.777889262201349"><ele>524.5</ele><time>2026-04-24T12:30:26.002Z</time></trkpt><trkpt lat="42.60141882213907" lon="11.777737491828859"><ele>527.0</ele><time>2026-04-24T12:30:27.002Z</time></trkpt><trkpt lat="42.601467244728255" lon="11.777600257200879"><ele>529.5</ele><time>2026-04-24T12:30:28.002Z</time></trkpt><trkpt lat="42.60151899174484" lon="11.77748323593424"><ele>532.0</ele><time>2026-04-24T12:30:29.002Z</time></trkpt><trkpt lat="42.60159075748887" lon="11.777362457961178"><ele>532.25</ele><time>2026-04-24T12:30:30.002Z</time></trkpt><trkpt lat="42.60167703979665" lon="11.777242965548876"><ele>532.5</ele><time>2026-04-24T12:30:31.002Z</time></trkpt><trkpt lat="42.6017850262744" lon="11.777119913632887"><ele>532.75</ele><time>2026-04-24T12:30:32.002Z</time></trkpt><trkpt lat="42.60187393159328" lon="11.77699527807991"><ele>533.0</ele><time>2026-04-24T12:30:33.002Z</time></trkpt><trkpt lat="42.60194903304817" lon="11.776860346422037"><ele>536.0</ele><time>2026-04-24T12:30:34.002Z</time></trkpt><trkpt lat="42.602030107302326" lon="11.776699362315348"><ele>539.0</ele><time>2026-04-24T12:30:35.002Z</time></trkpt><trkpt lat="42.602109010619415" lon="11.776525804527928"><ele>542.0</ele><time>2026-04-24T12:30:36.002Z</time></trkpt><trkpt lat="42.60218223475558" lon="11.776337079818406"><ele>542.0</ele><time>2026-04-24T12:30:37.002Z</time></trkpt><trkpt lat="42.602248808103006" lon="11.776150675453163"><ele>542.0</ele><time>2026-04-24T12:30:38.002Z</time></trkpt><trkpt lat="42.602317762319714" lon="11.775953531679622"><ele>542.0</ele><time>2026-04-24T12:30:39.002Z</time></trkpt><trkpt lat="42.602378624613124" lon="11.775747452127302"><ele>541.0</ele><time>2026-04-24T12:30:40.002Z</time></trkpt><trkpt lat="42.60244260776883" lon="11.775562544907887"><ele>540.0</ele><time>2026-04-24T12:30:41.002Z</time></trkpt><trkpt lat="42.60251283238594" lon="11.7753834582964"><ele>539.0</ele><time>2026-04-24T12:30:42.002Z</time></trkpt><trkpt lat="42.60257699510998" lon="11.77520271863496"><ele>538.0</ele><time>2026-04-24T12:30:43.002Z</time></trkpt><trkpt lat="42.60264187826655" lon="11.7750307065852"><ele>538.0</ele><time>2026-04-24T12:30:44.002Z</time></trkpt><trkpt lat="42.6027073702484" lon="11.774862289397596"><ele>538.0</ele><time>2026-04-24T12:30:45.002Z</time></trkpt><trkpt lat="42.602765897818166" lon="11.774678038862508"><ele>538.0</ele><time>2026-04-24T12:30:46.002Z</time></trkpt><trkpt lat="42.602832484368335" lon="11.77449654424584"><ele>538.0</ele><time>2026-04-24T12:30:47.002Z</time></trkpt><trkpt lat="42.60290909220313" lon="11.774334218212289"><ele>540.4</ele><time>2026-04-24T12:30:48.002Z</time></trkpt><trkpt lat="42.6029698713469" lon="11.774179372831592"><ele>542.8</ele><time>2026-04-24T12:30:49.002Z</time></trkpt><trkpt lat="42.60302413311429" lon="11.77405462667225"><ele>545.2</ele><time>2026-04-24T12:30:50.002Z</time></trkpt><trkpt lat="42.603077012409116" lon="11.773945011731561"><ele>547.6</ele><time>2026-04-24T12:30:51.002Z</time></trkpt><trkpt lat="42.603134464432486" lon="11.773837532936634"><ele>550.0</ele><time>2026-04-24T12:30:52.002Z</time></trkpt><trkpt lat="42.60319693002371" lon="11.773734657911048"><ele>550.0</ele><time>2026-04-24T12:30:53.002Z</time></trkpt><trkpt lat="42.603253564304346" lon="11.773646355934318"><ele>550.0</ele><time>2026-04-24T12:30:54.002Z</time></trkpt><trkpt lat="42.60333351145106" lon="11.773545906787014"><ele>550.0</ele><time>2026-04-24T12:30:55.002Z</time></trkpt><trkpt lat="42.60341372846146" lon="11.773456284753427"><ele>550.0</ele><time>2026-04-24T12:30:56.002Z</time></trkpt><trkpt lat="42.60348670035084" lon="11.773341075043437"><ele>550.0</ele><time>2026-04-24T12:30:57.002Z</time></trkpt><trkpt lat="42.60356483259239" lon="11.773215129419205"><ele>549.3333333333334</ele><time>2026-04-24T12:30:58.002Z</time></trkpt><trkpt lat="42.60365189084553" lon="11.773070465944407"><ele>548.6666666666666</ele><time>2026-04-24T12:30:59.002Z</time></trkpt><trkpt lat="42.603759742484115" lon="11.772901029337055"><ele>548.0</ele><time>2026-04-24T12:31:00.002Z</time></trkpt><trkpt lat="42.603865246704544" lon="11.77270427419417"><ele>544.6666666666666</ele><time>2026-04-24T12:31:01.002Z</time></trkpt><trkpt lat="42.603970832299346" lon="11.772518877698028"><ele>541.3333333333334</ele><time>2026-04-24T12:31:02.002Z</time></trkpt><trkpt lat="42.60408922856122" lon="11.772332847467858"><ele>538.0</ele><time>2026-04-24T12:31:03.002Z</time></trkpt><trkpt lat="42.604209698805874" lon="11.772154039424233"><ele>538.0</ele><time>2026-04-24T12:31:04.002Z</time></trkpt><trkpt lat="42.60434042946635" lon="11.771953814663368"><ele>538.0</ele><time>2026-04-24T12:31:05.002Z</time></trkpt><trkpt lat="42.60446637482338" lon="11.771752846992717"><ele>538.0</ele><time>2026-04-24T12:31:06.002Z</time></trkpt><trkpt lat="42.60458306299314" lon="11.771570594767368"><ele>536.3333333333334</ele><time>2026-04-24T12:31:07.002Z</time></trkpt><trkpt lat="42.6046796376974" lon="11.771410565958556"><ele>534.6666666666666</ele><time>2026-04-24T12:31:08.002Z</time></trkpt><trkpt lat="42.604775039087535" lon="11.771251270772426"><ele>533.0</ele><time>2026-04-24T12:31:09.002Z</time></trkpt><trkpt lat="42.604876311592776" lon="11.771089268869419"><ele>532.75</ele><time>2026-04-24T12:31:10.002Z</time></trkpt><trkpt lat="42.604971887344625" lon="11.770936581046282"><ele>532.5</ele><time>2026-04-24T12:31:11.002Z</time></trkpt><trkpt lat="42.60506701364758" lon="11.770779930432921"><ele>532.25</ele><time>2026-04-24T12:31:12.002Z</time></trkpt><trkpt lat="42.60515659114073" lon="11.770629620519836"><ele>532.0</ele><time>2026-04-24T12:31:13.002Z</time></trkpt><trkpt lat="42.60525016398028" lon="11.770479036190721"><ele>531.5</ele><time>2026-04-24T12:31:14.002Z</time></trkpt><trkpt lat="42.60534235682824" lon="11.770326380521938"><ele>531.0</ele><time>2026-04-24T12:31:15.002Z</time></trkpt><trkpt lat="42.60543043972292" lon="11.770171171815004"><ele>530.5</ele><time>2026-04-24T12:31:16.002Z</time></trkpt><trkpt lat="42.605518108752555" lon="11.770017188652513"><ele>530.0</ele><time>2026-04-24T12:31:17.002Z</time></trkpt><trkpt lat="42.60560535026201" lon="11.76987017794493"><ele>531.25</ele><time>2026-04-24T12:31:18.002Z</time></trkpt><trkpt lat="42.60568778668277" lon="11.769722321307905"><ele>532.5</ele><time>2026-04-24T12:31:19.002Z</time></trkpt><trkpt lat="42.60576519891356" lon="11.769575032807637"><ele>533.75</ele><time>2026-04-24T12:31:20.002Z</time></trkpt><trkpt lat="42.60583255962178" lon="11.76943183360231"><ele>535.0</ele><time>2026-04-24T12:31:21.002Z</time></trkpt><trkpt lat="42.605883344420626" lon="11.769302360169451"><ele>535.6</ele><time>2026-04-24T12:31:22.002Z</time></trkpt><trkpt lat="42.60592799767305" lon="11.769170244013422"><ele>536.2</ele><time>2026-04-24T12:31:23.002Z</time></trkpt><trkpt lat="42.605956290061336" lon="11.76904523942361"><ele>536.8</ele><time>2026-04-24T12:31:24.002Z</time></trkpt><trkpt lat="42.605983535701775" lon="11.768908878368297"><ele>537.4</ele><time>2026-04-24T12:31:25.002Z</time></trkpt><trkpt lat="42.6059926509226" lon="11.768773699795847"><ele>538.0</ele><time>2026-04-24T12:31:26.002Z</time></trkpt><trkpt lat="42.605994216404035" lon="11.768651563398176"><ele>537.4</ele><time>2026-04-24T12:31:27.002Z</time></trkpt><trkpt lat="42.60598711350147" lon="11.768522918694682"><ele>536.8</ele><time>2026-04-24T12:31:28.002Z</time></trkpt><trkpt lat="42.60600733819233" lon="11.768391433593257"><ele>536.2</ele><time>2026-04-24T12:31:29.002Z</time></trkpt><trkpt lat="42.606000621275186" lon="11.768264746440831"><ele>535.6</ele><time>2026-04-24T12:31:30.002Z</time></trkpt><trkpt lat="42.6059959806563" lon="11.768136662731978"><ele>535.0</ele><time>2026-04-24T12:31:31.002Z</time></trkpt><trkpt lat="42.60599321751089" lon="11.768004371805167"><ele>535.0</ele><time>2026-04-24T12:31:32.002Z</time></trkpt><trkpt lat="42.60600422680257" lon="11.76787204028313"><ele>535.0</ele><time>2026-04-24T12:31:33.002Z</time></trkpt><trkpt lat="42.60602918803905" lon="11.767737877212571"><ele>535.0</ele><time>2026-04-24T12:31:34.002Z</time></trkpt><trkpt lat="42.60604579173756" lon="11.767601140452552"><ele>535.0</ele><time>2026-04-24T12:31:35.002Z</time></trkpt><trkpt lat="42.6060624404406" lon="11.767470666671622"><ele>535.0</ele><time>2026-04-24T12:31:36.002Z</time></trkpt><trkpt lat="42.6060742712249" lon="11.76734683968801"><ele>534.2</ele><time>2026-04-24T12:31:37.002Z</time></trkpt><trkpt lat="42.60608393184821" lon="11.767221494790522"><ele>533.4</ele><time>2026-04-24T12:31:38.002Z</time></trkpt><trkpt lat="42.60607598752199" lon="11.767100797592345"><ele>532.6</ele><time>2026-04-24T12:31:39.002Z</time></trkpt><trkpt lat="42.606081679471366" lon="11.7669768585315"><ele>531.8</ele><time>2026-04-24T12:31:40.002Z</time></trkpt><trkpt lat="42.606089862404716" lon="11.76684608138117"><ele>531.0</ele><time>2026-04-24T12:31:41.002Z</time></trkpt><trkpt lat="42.60608555669646" lon="11.766684998296975"><ele>529.75</ele><time>2026-04-24T12:31:42.002Z</time></trkpt><trkpt lat="42.606080118541335" lon="11.76652401429762"><ele>528.5</ele><time>2026-04-24T12:31:43.002Z</time></trkpt><trkpt lat="42.606109664522826" lon="11.766377387546777"><ele>527.25</ele><time>2026-04-24T12:31:44.002Z</time></trkpt><trkpt lat="42.60612974318091" lon="11.766230035774965"><ele>526.0</ele><time>2026-04-24T12:31:45.002Z</time></trkpt><trkpt lat="42.60616112186645" lon="11.766060145169016"><ele>526.0</ele><time>2026-04-24T12:31:46.002Z</time></trkpt><trkpt lat="42.606201489933504" lon="11.765904131337615"><ele>526.0</ele><time>2026-04-24T12:31:47.002Z</time></trkpt><trkpt lat="42.606253074851466" lon="11.765766787028458"><ele>526.0</ele><time>2026-04-24T12:31:48.002Z</time></trkpt><trkpt lat="42.606307645547794" lon="11.76564048667945"><ele>526.0</ele><time>2026-04-24T12:31:49.002Z</time></trkpt><trkpt lat="42.60636545722578" lon="11.765531602491711"><ele>526.0</ele><time>2026-04-24T12:31:50.002Z</time></trkpt><trkpt lat="42.606423864458804" lon="11.765429520874372"><ele>526.0</ele><time>2026-04-24T12:31:51.002Z</time></trkpt><trkpt lat="42.6064886061318" lon="11.765332178715337"><ele>526.0</ele><time>2026-04-24T12:31:52.002Z</time></trkpt><trkpt lat="42.606555423215674" lon="11.765255623941698"><ele>526.0</ele><time>2026-04-24T12:31:53.002Z</time></trkpt><trkpt lat="42.606612343540185" lon="11.765190153835277"><ele>526.0</ele><time>2026-04-24T12:31:54.002Z</time></trkpt><trkpt lat="42.60668755084566" lon="11.765161340307564"><ele>526.0</ele><time>2026-04-24T12:31:55.002Z</time></trkpt><trkpt lat="42.6067602142874" lon="11.765139362009428"><ele>526.0</ele><time>2026-04-24T12:31:56.002Z</time></trkpt><trkpt lat="42.60685568585269" lon="11.765124206731594"><ele>525.75</ele><time>2026-04-24T12:31:57.002Z</time></trkpt><trkpt lat="42.60697812278162" lon="11.765105047162676"><ele>525.5</ele><time>2026-04-24T12:31:58.002Z</time></trkpt><trkpt lat="42.607111690328416" lon="11.76505503958747"><ele>525.25</ele><time>2026-04-24T12:31:59.002Z</time></trkpt><trkpt lat="42.60724921111934" lon="11.765039661914152"><ele>525.0</ele><time>2026-04-24T12:32:00.002Z</time></trkpt><trkpt lat="42.607403600901826" lon="11.765031504420136"><ele>526.75</ele><time>2026-04-24T12:32:01.002Z</time></trkpt><trkpt lat="42.6075423830379" lon="11.765026163042407"><ele>528.5</ele><time>2026-04-24T12:32:02.002Z</time></trkpt><trkpt lat="42.60766573653915" lon="11.765024216895549"><ele>530.25</ele><time>2026-04-24T12:32:03.002Z</time></trkpt><trkpt lat="42.60778992419634" lon="11.765009369236193"><ele>532.0</ele><time>2026-04-24T12:32:04.002Z</time></trkpt><trkpt lat="42.607892284830996" lon="11.76498087411669"><ele>532.6</ele><time>2026-04-24T12:32:05.002Z</time></trkpt><trkpt lat="42.60797471774064" lon="11.764935241947033"><ele>533.2</ele><time>2026-04-24T12:32:06.002Z</time></trkpt><trkpt lat="42.60803783517707" lon="11.76486381001051"><ele>533.8</ele><time>2026-04-24T12:32:07.002Z</time></trkpt><trkpt lat="42.60809662847009" lon="11.76477165833023"><ele>534.4</ele><time>2026-04-24T12:32:08.002Z</time></trkpt><trkpt lat="42.60817238375467" lon="11.76465760092884"><ele>535.0</ele><time>2026-04-24T12:32:09.002Z</time></trkpt><trkpt lat="42.60826051237345" lon="11.764518247876312"><ele>535.0</ele><time>2026-04-24T12:32:10.002Z</time></trkpt><trkpt lat="42.608368011180815" lon="11.764390157412455"><ele>535.0</ele><time>2026-04-24T12:32:11.002Z</time></trkpt><trkpt lat="42.60846607131183" lon="11.764249636851732"><ele>535.0</ele><time>2026-04-24T12:32:12.002Z</time></trkpt><trkpt lat="42.60856557204047" lon="11.764118322235518"><ele>535.0</ele><time>2026-04-24T12:32:13.002Z</time></trkpt><trkpt lat="42.608662423333236" lon="11.76399856589887"><ele>534.5</ele><time>2026-04-24T12:32:14.002Z</time></trkpt><trkpt lat="42.60876545587624" lon="11.763897652148923"><ele>534.0</ele><time>2026-04-24T12:32:15.002Z</time></trkpt><trkpt lat="42.60887542133923" lon="11.76380764785622"><ele>533.5</ele><time>2026-04-24T12:32:16.002Z</time></trkpt><trkpt lat="42.60899629808381" lon="11.763726663755058"><ele>533.0</ele><time>2026-04-24T12:32:17.002Z</time></trkpt><trkpt lat="42.6091174034546" lon="11.763642086538335"><ele>533.0</ele><time>2026-04-24T12:32:18.002Z</time></trkpt><trkpt lat="42.60923625216936" lon="11.763550900180002"><ele>533.0</ele><time>2026-04-24T12:32:19.002Z</time></trkpt><trkpt lat="42.60935068445061" lon="11.763463236613426"><ele>533.0</ele><time>2026-04-24T12:32:20.002Z</time></trkpt><trkpt lat="42.60943366276988" lon="11.7633943846705"><ele>533.0</ele><time>2026-04-24T12:32:21.002Z</time></trkpt><trkpt lat="42.60951494580136" lon="11.76332480309689"><ele>534.75</ele><time>2026-04-24T12:32:22.002Z</time></trkpt><trkpt lat="42.60962906421921" lon="11.763285800555364"><ele>536.5</ele><time>2026-04-24T12:32:23.002Z</time></trkpt><trkpt lat="42.609748902607336" lon="11.763269733310233"><ele>538.25</ele><time>2026-04-24T12:32:24.002Z</time></trkpt><trkpt lat="42.60988223273974" lon="11.763256558447534"><ele>540.0</ele><time>2026-04-24T12:32:25.002Z</time></trkpt><trkpt lat="42.61002056242974" lon="11.763236889314964"><ele>540.0</ele><time>2026-04-24T12:32:26.002Z</time></trkpt><trkpt lat="42.610144408132236" lon="11.763180792969647"><ele>540.0</ele><time>2026-04-24T12:32:27.002Z</time></trkpt><trkpt lat="42.61028353590325" lon="11.763110903155233"><ele>540.0</ele><time>2026-04-24T12:32:28.002Z</time></trkpt><trkpt lat="42.61043578784754" lon="11.76305333826159"><ele>540.0</ele><time>2026-04-24T12:32:29.002Z</time></trkpt><trkpt lat="42.61054598283395" lon="11.762996428395372"><ele>536.2</ele><time>2026-04-24T12:32:30.003Z</time></trkpt><trkpt lat="42.610641160981956" lon="11.762940203752265"><ele>532.4</ele><time>2026-04-24T12:32:31.003Z</time></trkpt><trkpt lat="42.610731149254974" lon="11.762881661655044"><ele>528.6</ele><time>2026-04-24T12:32:32.003Z</time></trkpt><trkpt lat="42.610835535436244" lon="11.762827501970996"><ele>524.8</ele><time>2026-04-24T12:32:33.003Z</time></trkpt><trkpt lat="42.61092804039322" lon="11.762765010423852"><ele>521.0</ele><time>2026-04-24T12:32:34.003Z</time></trkpt><trkpt lat="42.611031246598586" lon="11.762717631599443"><ele>522.2</ele><time>2026-04-24T12:32:35.003Z</time></trkpt><trkpt lat="42.61111963480199" lon="11.762656710106691"><ele>523.4000000000001</ele><time>2026-04-24T12:32:36.003Z</time></trkpt><trkpt lat="42.61119839425267" lon="11.762594144991553"><ele>524.6</ele><time>2026-04-24T12:32:37.003Z</time></trkpt><trkpt lat="42.61130960934551" lon="11.762536219728362"><ele>525.8000000000001</ele><time>2026-04-24T12:32:38.003Z</time></trkpt><trkpt lat="42.6114101756717" lon="11.762481197673528"><ele>527.0</ele><time>2026-04-24T12:32:39.003Z</time></trkpt><trkpt lat="42.61151284289443" lon="11.762423983286203"><ele>527.0</ele><time>2026-04-24T12:32:40.003Z</time></trkpt><trkpt lat="42.611626720627086" lon="11.762360709141975"><ele>527.0</ele><time>2026-04-24T12:32:41.003Z</time></trkpt><trkpt lat="42.61173726516575" lon="11.76229568239061"><ele>527.0</ele><time>2026-04-24T12:32:42.003Z</time></trkpt><trkpt lat="42.61184004491246" lon="11.762248778468662"><ele>527.0</ele><time>2026-04-24T12:32:43.003Z</time></trkpt><trkpt lat="42.61193512193349" lon="11.762225163359584"><ele>527.0</ele><time>2026-04-24T12:32:44.003Z</time></trkpt><trkpt lat="42.6120402378778" lon="11.762228727828067"><ele>523.4</ele><time>2026-04-24T12:32:45.003Z</time></trkpt><trkpt lat="42.61217406458628" lon="11.76224038503893"><ele>519.8000000000001</ele><time>2026-04-24T12:32:46.003Z</time></trkpt><trkpt lat="42.61228391392638" lon="11.762243234621465"><ele>516.2</ele><time>2026-04-24T12:32:47.003Z</time></trkpt><trkpt lat="42.612388594609136" lon="11.76223976204232"><ele>512.6</ele><time>2026-04-24T12:32:48.003Z</time></trkpt><trkpt lat="42.61247067781481" lon="11.76223804148324"><ele>509.0</ele><time>2026-04-24T12:32:49.003Z</time></trkpt><trkpt lat="42.61255089070083" lon="11.762225270343222"><ele>508.99999999999994</ele><time>2026-04-24T12:32:50.003Z</time></trkpt><trkpt lat="42.61262446262794" lon="11.762188708805002"><ele>509.0</ele><time>2026-04-24T12:32:51.003Z</time></trkpt><trkpt lat="42.61268877070445" lon="11.762126126869987"><ele>508.99999999999994</ele><time>2026-04-24T12:32:52.003Z</time></trkpt><trkpt lat="42.61273185715466" lon="11.762049860518866"><ele>508.99999999999994</ele><time>2026-04-24T12:32:53.003Z</time></trkpt><trkpt lat="42.61278554774836" lon="11.761963669569338"><ele>509.0</ele><time>2026-04-24T12:32:54.003Z</time></trkpt><trkpt lat="42.61283432322414" lon="11.761901713597672"><ele>508.99999999999994</ele><time>2026-04-24T12:32:55.003Z</time></trkpt><trkpt lat="42.61285334728562" lon="11.761814817925845"><ele>508.99999999999994</ele><time>2026-04-24T12:32:58.003Z</time></trkpt><trkpt lat="42.612884989345034" lon="11.761733209549554"><ele>506.2</ele><time>2026-04-24T12:34:06.003Z</time></trkpt><trkpt lat="42.612938779714554" lon="11.761550096718567"><ele>503.4</ele><time>2026-04-24T12:34:08.003Z</time></trkpt><trkpt lat="42.61295543498311" lon="11.761451185345472"><ele>500.6</ele><time>2026-04-24T12:34:09.003Z</time></trkpt><trkpt lat="42.61296566921787" lon="11.761366666558587"><ele>497.8</ele><time>2026-04-24T12:34:10.003Z</time></trkpt><trkpt lat="42.612998816737445" lon="11.761219706499459"><ele>495.0</ele><time>2026-04-24T12:34:12.003Z</time></trkpt><trkpt lat="42.61301560899383" lon="11.761129110178038"><ele>494.5</ele><time>2026-04-24T12:34:13.003Z</time></trkpt><trkpt lat="42.61306083159839" lon="11.76099748642213"><ele>494.0</ele><time>2026-04-24T12:34:14.003Z</time></trkpt><trkpt lat="42.61308715344016" lon="11.760857807403896"><ele>493.5</ele><time>2026-04-24T12:34:15.003Z</time></trkpt><trkpt lat="42.61314058939533" lon="11.760703849729342"><ele>493.0</ele><time>2026-04-24T12:34:16.003Z</time></trkpt><trkpt lat="42.61319432384347" lon="11.760571160624425"><ele>493.0</ele><time>2026-04-24T12:34:17.003Z</time></trkpt><trkpt lat="42.61325056121268" lon="11.760444592064141"><ele>492.99999999999994</ele><time>2026-04-24T12:34:18.003Z</time></trkpt><trkpt lat="42.61331913871686" lon="11.760323313170865"><ele>492.99999999999994</ele><time>2026-04-24T12:34:19.003Z</time></trkpt><trkpt lat="42.61337787191216" lon="11.76020572551877"><ele>493.0</ele><time>2026-04-24T12:34:20.003Z</time></trkpt><trkpt lat="42.61344007122584" lon="11.760120802520602"><ele>493.0</ele><time>2026-04-24T12:34:21.003Z</time></trkpt><trkpt lat="42.613507095348005" lon="11.760037250171921"><ele>491.79999999999995</ele><time>2026-04-24T12:34:22.003Z</time></trkpt><trkpt lat="42.613588515094335" lon="11.759938685328535"><ele>490.59999999999997</ele><time>2026-04-24T12:34:23.003Z</time></trkpt><trkpt lat="42.61364716933448" lon="11.759864821894313"><ele>489.40000000000003</ele><time>2026-04-24T12:34:24.003Z</time></trkpt><trkpt lat="42.61372370041189" lon="11.759758184154702"><ele>488.20000000000005</ele><time>2026-04-24T12:34:25.003Z</time></trkpt><trkpt lat="42.61380201632996" lon="11.759654002366931"><ele>487.0</ele><time>2026-04-24T12:34:26.003Z</time></trkpt><trkpt lat="42.613897672561734" lon="11.759534748221222"><ele>485.75</ele><time>2026-04-24T12:34:27.003Z</time></trkpt><trkpt lat="42.61400392549571" lon="11.7594121181379"><ele>484.5</ele><time>2026-04-24T12:34:28.003Z</time></trkpt><trkpt lat="42.61410765704888" lon="11.759289280281793"><ele>483.25</ele><time>2026-04-24T12:34:29.003Z</time></trkpt><trkpt lat="42.61421476121415" lon="11.759158316113648"><ele>482.0</ele><time>2026-04-24T12:34:30.003Z</time></trkpt><trkpt lat="42.61432380983007" lon="11.759020942147927"><ele>481.25</ele><time>2026-04-24T12:34:31.003Z</time></trkpt><trkpt lat="42.614428635398816" lon="11.758886098893507"><ele>480.5</ele><time>2026-04-24T12:34:32.003Z</time></trkpt><trkpt lat="42.61452991964042" lon="11.758758756600793"><ele>479.75</ele><time>2026-04-24T12:34:33.003Z</time></trkpt><trkpt lat="42.614632965318044" lon="11.758630053505406"><ele>479.0</ele><time>2026-04-24T12:34:34.003Z</time></trkpt><trkpt lat="42.61473710561502" lon="11.75849862139447"><ele>478.75</ele><time>2026-04-24T12:34:35.003Z</time></trkpt><trkpt lat="42.61483270768809" lon="11.758356096746777"><ele>478.5</ele><time>2026-04-24T12:34:36.003Z</time></trkpt><trkpt lat="42.614929628921814" lon="11.758214277744683"><ele>478.25</ele><time>2026-04-24T12:34:37.003Z</time></trkpt><trkpt lat="42.61503766415757" lon="11.758073891786832"><ele>478.0</ele><time>2026-04-24T12:34:38.003Z</time></trkpt><trkpt lat="42.615154222411334" lon="11.757911606108003"><ele>478.0</ele><time>2026-04-24T12:34:39.003Z</time></trkpt><trkpt lat="42.615263732387476" lon="11.757745022029559"><ele>478.0</ele><time>2026-04-24T12:34:40.003Z</time></trkpt><trkpt lat="42.61537504047811" lon="11.757582153557923"><ele>478.0</ele><time>2026-04-24T12:34:41.003Z</time></trkpt><trkpt lat="42.61549340452249" lon="11.75741491523978"><ele>478.0</ele><time>2026-04-24T12:34:42.003Z</time></trkpt><trkpt lat="42.6156043030481" lon="11.757250423397961"><ele>478.0</ele><time>2026-04-24T12:34:43.003Z</time></trkpt><trkpt lat="42.61570587377932" lon="11.757096215911925"><ele>478.0</ele><time>2026-04-24T12:34:44.003Z</time></trkpt><trkpt lat="42.61581446068805" lon="11.756942925843903"><ele>477.0</ele><time>2026-04-24T12:34:45.003Z</time></trkpt><trkpt lat="42.615920831889895" lon="11.756797570736586"><ele>476.0</ele><time>2026-04-24T12:34:46.003Z</time></trkpt><trkpt lat="42.61603252715892" lon="11.756643419287355"><ele>475.0</ele><time>2026-04-24T12:34:47.003Z</time></trkpt><trkpt lat="42.616145809927644" lon="11.75649639770744"><ele>475.33333333333337</ele><time>2026-04-24T12:34:48.003Z</time></trkpt><trkpt lat="42.61626800712131" lon="11.756322904526112"><ele>475.66666666666663</ele><time>2026-04-24T12:34:49.003Z</time></trkpt><trkpt lat="42.6163776208712" lon="11.75615068134642"><ele>476.0</ele><time>2026-04-24T12:34:50.003Z</time></trkpt><trkpt lat="42.616487844574884" lon="11.756000336183916"><ele>476.0</ele><time>2026-04-24T12:34:51.003Z</time></trkpt><trkpt lat="42.61659165061671" lon="11.755856047378941"><ele>476.0</ele><time>2026-04-24T12:34:52.003Z</time></trkpt><trkpt lat="42.616699534088504" lon="11.755710047936496"><ele>476.0</ele><time>2026-04-24T12:34:53.003Z</time></trkpt><trkpt lat="42.616806335523954" lon="11.755560907730732"><ele>476.0</ele><time>2026-04-24T12:34:54.003Z</time></trkpt><trkpt lat="42.61689872157363" lon="11.75541448511946"><ele>476.0</ele><time>2026-04-24T12:34:55.003Z</time></trkpt><trkpt lat="42.61699843062056" lon="11.755255120245044"><ele>476.0</ele><time>2026-04-24T12:34:56.003Z</time></trkpt><trkpt lat="42.61713048354578" lon="11.755104440762587"><ele>476.3333333333333</ele><time>2026-04-24T12:34:57.003Z</time></trkpt><trkpt lat="42.61724623414353" lon="11.75494576915608"><ele>476.66666666666663</ele><time>2026-04-24T12:34:58.003Z</time></trkpt><trkpt lat="42.61736721421382" lon="11.754808540491616"><ele>477.0</ele><time>2026-04-24T12:34:59.003Z</time></trkpt><trkpt lat="42.61748196810836" lon="11.754662097930064"><ele>477.0</ele><time>2026-04-24T12:35:00.003Z</time></trkpt><trkpt lat="42.61758114701129" lon="11.754512078278893"><ele>477.0</ele><time>2026-04-24T12:35:01.003Z</time></trkpt><trkpt lat="42.61768523852043" lon="11.754351421056066"><ele>477.0</ele><time>2026-04-24T12:35:02.003Z</time></trkpt><trkpt lat="42.61779518118874" lon="11.754191039478277"><ele>477.0</ele><time>2026-04-24T12:35:03.003Z</time></trkpt><trkpt lat="42.617904097092755" lon="11.75403938562592"><ele>477.0</ele><time>2026-04-24T12:35:04.003Z</time></trkpt><trkpt lat="42.61801670632372" lon="11.753897986480299"><ele>477.0</ele><time>2026-04-24T12:35:05.003Z</time></trkpt><trkpt lat="42.61812956744344" lon="11.753742483180336"><ele>477.0</ele><time>2026-04-24T12:35:06.003Z</time></trkpt><trkpt lat="42.61823199032887" lon="11.753596400516267"><ele>477.0</ele><time>2026-04-24T12:35:07.003Z</time></trkpt><trkpt lat="42.61833508305336" lon="11.753450261236559"><ele>477.0</ele><time>2026-04-24T12:35:08.003Z</time></trkpt><trkpt lat="42.61843031059468" lon="11.753312427190926"><ele>477.0</ele><time>2026-04-24T12:35:09.003Z</time></trkpt><trkpt lat="42.618534200165165" lon="11.753168114135507"><ele>476.66666666666663</ele><time>2026-04-24T12:35:10.003Z</time></trkpt><trkpt lat="42.61864427292002" lon="11.753019660127665"><ele>476.3333333333333</ele><time>2026-04-24T12:35:11.003Z</time></trkpt><trkpt lat="42.61875980149289" lon="11.752861345590146"><ele>476.0</ele><time>2026-04-24T12:35:12.003Z</time></trkpt><trkpt lat="42.618877215665336" lon="11.752703036815301"><ele>475.0</ele><time>2026-04-24T12:35:13.003Z</time></trkpt><trkpt lat="42.618992586171565" lon="11.752552599087881"><ele>474.0</ele><time>2026-04-24T12:35:14.003Z</time></trkpt><trkpt lat="42.619096201530375" lon="11.752404698762493"><ele>473.0</ele><time>2026-04-24T12:35:15.003Z</time></trkpt><trkpt lat="42.61918938779459" lon="11.752276490470214"><ele>472.0</ele><time>2026-04-24T12:35:16.003Z</time></trkpt><trkpt lat="42.61926479946323" lon="11.752165578175797"><ele>472.0</ele><time>2026-04-24T12:35:17.003Z</time></trkpt><trkpt lat="42.61933854290538" lon="11.75206025141206"><ele>472.00000000000006</ele><time>2026-04-24T12:35:18.003Z</time></trkpt><trkpt lat="42.619409327396724" lon="11.751957072706551"><ele>472.00000000000006</ele><time>2026-04-24T12:35:19.003Z</time></trkpt><trkpt lat="42.61948026174363" lon="11.751850204732678"><ele>472.0</ele><time>2026-04-24T12:35:20.003Z</time></trkpt><trkpt lat="42.61955870524439" lon="11.751742322293499"><ele>472.0</ele><time>2026-04-24T12:35:21.003Z</time></trkpt><trkpt lat="42.61963413133559" lon="11.751633851105314"><ele>471.50000000000006</ele><time>2026-04-24T12:35:22.003Z</time></trkpt><trkpt lat="42.619707314773045" lon="11.751548317837294"><ele>471.0</ele><time>2026-04-24T12:35:23.003Z</time></trkpt><trkpt lat="42.61976772106776" lon="11.751470352214437"><ele>470.5</ele><time>2026-04-24T12:35:24.003Z</time></trkpt><trkpt lat="42.61982707538411" lon="11.75139820490089"><ele>470.0</ele><time>2026-04-24T12:35:25.003Z</time></trkpt><trkpt lat="42.6199013872671" lon="11.751340015092998"><ele>469.50000000000006</ele><time>2026-04-24T12:35:26.003Z</time></trkpt><trkpt lat="42.61997329956119" lon="11.751307033630646"><ele>469.0</ele><time>2026-04-24T12:35:27.003Z</time></trkpt><trkpt lat="42.62005406772594" lon="11.751288061096892"><ele>469.0</ele><time>2026-04-24T12:35:28.003Z</time></trkpt><trkpt lat="42.62015745531395" lon="11.751291780754523"><ele>469.0</ele><time>2026-04-24T12:35:29.003Z</time></trkpt><trkpt lat="42.62027791351218" lon="11.751298147959472"><ele>469.0</ele><time>2026-04-24T12:35:30.003Z</time></trkpt><trkpt lat="42.62038626231036" lon="11.751231815402331"><ele>469.0</ele><time>2026-04-24T12:35:31.003Z</time></trkpt><trkpt lat="42.62051396659119" lon="11.751191457757917"><ele>469.0</ele><time>2026-04-24T12:35:32.003Z</time></trkpt><trkpt lat="42.62063131174445" lon="11.75110818655686"><ele>469.0</ele><time>2026-04-24T12:35:33.003Z</time></trkpt><trkpt lat="42.62074635469718" lon="11.751052048075636"><ele>469.0</ele><time>2026-04-24T12:35:34.003Z</time></trkpt><trkpt lat="42.620847083958424" lon="11.750998497054397"><ele>469.0</ele><time>2026-04-24T12:35:35.003Z</time></trkpt><trkpt lat="42.620952196523874" lon="11.750937818133721"><ele>469.25</ele><time>2026-04-24T12:35:36.003Z</time></trkpt><trkpt lat="42.62108292644805" lon="11.750870539336074"><ele>469.5</ele><time>2026-04-24T12:35:37.003Z</time></trkpt><trkpt lat="42.62122389247114" lon="11.750807832588093"><ele>469.75</ele><time>2026-04-24T12:35:38.003Z</time></trkpt><trkpt lat="42.621365001684836" lon="11.750754533331573"><ele>470.0</ele><time>2026-04-24T12:35:39.003Z</time></trkpt><trkpt lat="42.62148003698132" lon="11.750715574026685"><ele>470.0</ele><time>2026-04-24T12:35:40.003Z</time></trkpt><trkpt lat="42.62155148077735" lon="11.750650167684162"><ele>470.0</ele><time>2026-04-24T12:35:41.003Z</time></trkpt><trkpt lat="42.62159875249088" lon="11.750557794436222"><ele>470.0</ele><time>2026-04-24T12:35:42.003Z</time></trkpt><trkpt lat="42.62164331372958" lon="11.750441328621257"><ele>470.0</ele><time>2026-04-24T12:35:43.003Z</time></trkpt><trkpt lat="42.62170041283945" lon="11.750311106414422"><ele>470.0</ele><time>2026-04-24T12:35:44.003Z</time></trkpt><trkpt lat="42.621762247926725" lon="11.750169066874424"><ele>470.25</ele><time>2026-04-24T12:35:45.003Z</time></trkpt><trkpt lat="42.62182074581931" lon="11.75001912979131"><ele>470.5</ele><time>2026-04-24T12:35:46.003Z</time></trkpt><trkpt lat="42.6218734922175" lon="11.749860037213493"><ele>470.75</ele><time>2026-04-24T12:35:47.003Z</time></trkpt><trkpt lat="42.621928523389606" lon="11.749706411476009"><ele>471.0</ele><time>2026-04-24T12:35:48.003Z</time></trkpt><trkpt lat="42.62196591168207" lon="11.749537204475171"><ele>472.0</ele><time>2026-04-24T12:35:49.003Z</time></trkpt><trkpt lat="42.62200240088769" lon="11.749383554627792"><ele>473.0</ele><time>2026-04-24T12:35:50.003Z</time></trkpt><trkpt lat="42.622040436466854" lon="11.74923672864399"><ele>474.0</ele><time>2026-04-24T12:35:51.003Z</time></trkpt><trkpt lat="42.62208978160558" lon="11.74908602670118"><ele>475.0</ele><time>2026-04-24T12:35:52.003Z</time></trkpt><trkpt lat="42.62214766403202" lon="11.748931773881775"><ele>475.6</ele><time>2026-04-24T12:35:53.003Z</time></trkpt><trkpt lat="42.6222090312897" lon="11.748801944487873"><ele>476.2</ele><time>2026-04-24T12:35:54.003Z</time></trkpt><trkpt lat="42.62226833242352" lon="11.748677711951647"><ele>476.79999999999995</ele><time>2026-04-24T12:35:55.003Z</time></trkpt><trkpt lat="42.62232114347996" lon="11.74853763880703"><ele>477.4</ele><time>2026-04-24T12:35:56.003Z</time></trkpt><trkpt lat="42.622363583955625" lon="11.748406285730404"><ele>478.0</ele><time>2026-04-24T12:35:57.003Z</time></trkpt><trkpt lat="42.62243799372128" lon="11.748326792940746"><ele>478.59999999999997</ele><time>2026-04-24T12:35:58.003Z</time></trkpt><trkpt lat="42.62250073299523" lon="11.748238893573667"><ele>479.19999999999993</ele><time>2026-04-24T12:35:59.003Z</time></trkpt><trkpt lat="42.6225600606782" lon="11.74815588117124"><ele>479.8</ele><time>2026-04-24T12:36:00.003Z</time></trkpt><trkpt lat="42.62261699683637" lon="11.748076503009912"><ele>480.4</ele><time>2026-04-24T12:36:01.003Z</time></trkpt><trkpt lat="42.622681849326426" lon="11.747978369526036"><ele>481.0</ele><time>2026-04-24T12:36:02.003Z</time></trkpt><trkpt lat="42.62276275873439" lon="11.747849051950817"><ele>481.5</ele><time>2026-04-24T12:36:03.003Z</time></trkpt><trkpt lat="42.622847849248565" lon="11.747706841275907"><ele>482.0</ele><time>2026-04-24T12:36:04.003Z</time></trkpt><trkpt lat="42.62291359578036" lon="11.747581800991737"><ele>482.5</ele><time>2026-04-24T12:36:05.003Z</time></trkpt><trkpt lat="42.6229770167989" lon="11.747466796599902"><ele>483.0</ele><time>2026-04-24T12:36:06.003Z</time></trkpt><trkpt lat="42.623061842222775" lon="11.747364421229396"><ele>483.0</ele><time>2026-04-24T12:36:07.003Z</time></trkpt><trkpt lat="42.62314106356748" lon="11.7472415758627"><ele>483.0</ele><time>2026-04-24T12:36:08.003Z</time></trkpt><trkpt lat="42.62324012344442" lon="11.74709774277828"><ele>483.0</ele><time>2026-04-24T12:36:09.003Z</time></trkpt><trkpt lat="42.62333185527939" lon="11.746962542835865"><ele>483.0</ele><time>2026-04-24T12:36:10.003Z</time></trkpt><trkpt lat="42.623411051620565" lon="11.746837149567854"><ele>482.4</ele><time>2026-04-24T12:36:11.003Z</time></trkpt><trkpt lat="42.62348354428" lon="11.746720495869623"><ele>481.79999999999995</ele><time>2026-04-24T12:36:12.003Z</time></trkpt><trkpt lat="42.623543766719614" lon="11.746610460164463"><ele>481.2</ele><time>2026-04-24T12:36:13.003Z</time></trkpt><trkpt lat="42.623606842826575" lon="11.746514798462611"><ele>480.6</ele><time>2026-04-24T12:36:14.003Z</time></trkpt><trkpt lat="42.623664169502646" lon="11.746440657809007"><ele>480.0</ele><time>2026-04-24T12:36:15.003Z</time></trkpt><trkpt lat="42.62371061093665" lon="11.746370284645316"><ele>479.6</ele><time>2026-04-24T12:36:16.003Z</time></trkpt><trkpt lat="42.62375668093444" lon="11.746254130095561"><ele>479.2</ele><time>2026-04-24T12:36:18.003Z</time></trkpt><trkpt lat="42.62380767675184" lon="11.746184639386604"><ele>478.79999999999995</ele><time>2026-04-24T12:36:20.003Z</time></trkpt><trkpt lat="42.623696856466076" lon="11.746023045332135"><ele>478.4</ele><time>2026-04-24T12:36:24.003Z</time></trkpt><trkpt lat="42.6236394410912" lon="11.745965157761603"><ele>478.0</ele><time>2026-04-24T12:36:25.003Z</time></trkpt><trkpt lat="42.623535020178444" lon="11.74586987954311"><ele>478.0</ele><time>2026-04-24T12:36:27.003Z</time></trkpt><trkpt lat="42.62347362272617" lon="11.74582306306424"><ele>477.99999999999994</ele><time>2026-04-24T12:36:28.003Z</time></trkpt><trkpt lat="42.623386842539084" lon="11.745771622876122"><ele>477.99999999999994</ele><time>2026-04-24T12:36:29.003Z</time></trkpt><trkpt lat="42.62327767493499" lon="11.745738358985527"><ele>478.0</ele><time>2026-04-24T12:36:30.003Z</time></trkpt><trkpt lat="42.62316177952938" lon="11.745734719855376"><ele>478.0</ele><time>2026-04-24T12:36:31.004Z</time></trkpt><trkpt lat="42.62304826574943" lon="11.74572562374491"><ele>478.0</ele><time>2026-04-24T12:36:32.004Z</time></trkpt><trkpt lat="42.62292724505805" lon="11.74570778346307"><ele>478.0</ele><time>2026-04-24T12:36:33.004Z</time></trkpt><trkpt lat="42.62279514285366" lon="11.74566792058603"><ele>478.0</ele><time>2026-04-24T12:36:34.004Z</time></trkpt><trkpt lat="42.6226526977456" lon="11.74562117636681"><ele>478.0</ele><time>2026-04-24T12:36:35.004Z</time></trkpt><trkpt lat="42.62252997405578" lon="11.745571202413185"><ele>478.4</ele><time>2026-04-24T12:36:36.004Z</time></trkpt><trkpt lat="42.622424094335855" lon="11.745511832829791"><ele>478.79999999999995</ele><time>2026-04-24T12:36:37.004Z</time></trkpt><trkpt lat="42.62233112391463" lon="11.745442096401366"><ele>479.2</ele><time>2026-04-24T12:36:38.004Z</time></trkpt><trkpt lat="42.622244658594134" lon="11.745364239622372"><ele>479.6</ele><time>2026-04-24T12:36:39.004Z</time></trkpt><trkpt lat="42.62214222759595" lon="11.7453049232492"><ele>480.0</ele><time>2026-04-24T12:36:40.004Z</time></trkpt><trkpt lat="42.62204368043327" lon="11.745228234675098"><ele>480.5</ele><time>2026-04-24T12:36:41.004Z</time></trkpt><trkpt lat="42.62193164877995" lon="11.745152015402093"><ele>481.0</ele><time>2026-04-24T12:36:42.004Z</time></trkpt><trkpt lat="42.621850099806075" lon="11.745047097299603"><ele>481.5</ele><time>2026-04-24T12:36:43.004Z</time></trkpt><trkpt lat="42.621778366584564" lon="11.744933289375647"><ele>482.0</ele><time>2026-04-24T12:36:44.004Z</time></trkpt><trkpt lat="42.621715127814454" lon="11.74478958760295"><ele>482.0</ele><time>2026-04-24T12:36:45.004Z</time></trkpt><trkpt lat="42.62165333710762" lon="11.744648145456784"><ele>482.0</ele><time>2026-04-24T12:36:46.004Z</time></trkpt><trkpt lat="42.62157390060794" lon="11.744543364836943"><ele>482.0</ele><time>2026-04-24T12:36:47.004Z</time></trkpt><trkpt lat="42.62149541721661" lon="11.744438123078533"><ele>482.0</ele><time>2026-04-24T12:36:48.004Z</time></trkpt><trkpt lat="42.621395081397054" lon="11.744336027786247"><ele>481.75</ele><time>2026-04-24T12:36:49.004Z</time></trkpt><trkpt lat="42.621288142017825" lon="11.744229937271555"><ele>481.5</ele><time>2026-04-24T12:36:50.004Z</time></trkpt><trkpt lat="42.62117498003805" lon="11.744131834274183"><ele>481.25</ele><time>2026-04-24T12:36:51.004Z</time></trkpt><trkpt lat="42.62105010200628" lon="11.744030736801522"><ele>481.0</ele><time>2026-04-24T12:36:52.004Z</time></trkpt><trkpt lat="42.62092724955103" lon="11.743939547184715"><ele>481.0</ele><time>2026-04-24T12:36:53.004Z</time></trkpt><trkpt lat="42.62080480234031" lon="11.743847621418032"><ele>481.0</ele><time>2026-04-24T12:36:54.004Z</time></trkpt><trkpt lat="42.62070231288918" lon="11.743736194601206"><ele>481.0</ele><time>2026-04-24T12:36:55.004Z</time></trkpt><trkpt lat="42.620602942841906" lon="11.743648163333672"><ele>481.0</ele><time>2026-04-24T12:36:56.004Z</time></trkpt><trkpt lat="42.620493060487625" lon="11.743549542647033"><ele>481.5</ele><time>2026-04-24T12:36:57.004Z</time></trkpt><trkpt lat="42.620395468230136" lon="11.743456481710261"><ele>482.0</ele><time>2026-04-24T12:36:58.004Z</time></trkpt><trkpt lat="42.62030719466601" lon="11.74335720249636"><ele>482.5</ele><time>2026-04-24T12:36:59.004Z</time></trkpt><trkpt lat="42.62019719917415" lon="11.74324962843996"><ele>483.0</ele><time>2026-04-24T12:37:00.004Z</time></trkpt><trkpt lat="42.62009563050093" lon="11.74314797039888"><ele>483.0</ele><time>2026-04-24T12:37:01.004Z</time></trkpt><trkpt lat="42.61996791679989" lon="11.743034733893044"><ele>483.0</ele><time>2026-04-24T12:37:02.004Z</time></trkpt><trkpt lat="42.61984300066581" lon="11.742924595370162"><ele>483.0</ele><time>2026-04-24T12:37:03.004Z</time></trkpt><trkpt lat="42.61971292985163" lon="11.742815439617493"><ele>482.66666666666663</ele><time>2026-04-24T12:37:04.004Z</time></trkpt><trkpt lat="42.61958818063751" lon="11.742707077917498"><ele>482.3333333333333</ele><time>2026-04-24T12:37:05.004Z</time></trkpt><trkpt lat="42.61945383086063" lon="11.742595638396946"><ele>482.0</ele><time>2026-04-24T12:37:06.004Z</time></trkpt><trkpt lat="42.619330386949606" lon="11.742483282894511"><ele>482.75</ele><time>2026-04-24T12:37:07.004Z</time></trkpt><trkpt lat="42.61920980165942" lon="11.742386711616742"><ele>483.5</ele><time>2026-04-24T12:37:08.004Z</time></trkpt><trkpt lat="42.6190951024854" lon="11.742300207699339"><ele>484.25</ele><time>2026-04-24T12:37:09.004Z</time></trkpt><trkpt lat="42.61899127665697" lon="11.742226717540547"><ele>485.0</ele><time>2026-04-24T12:37:10.004Z</time></trkpt><trkpt lat="42.618879301729656" lon="11.742147971908336"><ele>485.0</ele><time>2026-04-24T12:37:11.004Z</time></trkpt><trkpt lat="42.61877308434454" lon="11.74206602428187"><ele>485.0</ele><time>2026-04-24T12:37:12.004Z</time></trkpt><trkpt lat="42.61866786856785" lon="11.74197830278523"><ele>485.0</ele><time>2026-04-24T12:37:13.004Z</time></trkpt><trkpt lat="42.61855898716377" lon="11.741892062504034"><ele>485.0</ele><time>2026-04-24T12:37:14.004Z</time></trkpt><trkpt lat="42.618444758538836" lon="11.74180038304374"><ele>483.75</ele><time>2026-04-24T12:37:15.004Z</time></trkpt><trkpt lat="42.61835001456131" lon="11.741724691752058"><ele>482.5</ele><time>2026-04-24T12:37:16.004Z</time></trkpt><trkpt lat="42.61826265712291" lon="11.741663532193218"><ele>481.25</ele><time>2026-04-24T12:37:17.004Z</time></trkpt><trkpt lat="42.61815704702032" lon="11.74160727869559"><ele>480.0</ele><time>2026-04-24T12:37:18.004Z</time></trkpt><trkpt lat="42.61802493451179" lon="11.741552700525872"><ele>480.0</ele><time>2026-04-24T12:37:19.004Z</time></trkpt><trkpt lat="42.61786991447716" lon="11.74149684005076"><ele>480.0</ele><time>2026-04-24T12:37:20.004Z</time></trkpt><trkpt lat="42.61771872887559" lon="11.741456183917327"><ele>480.0</ele><time>2026-04-24T12:37:21.004Z</time></trkpt><trkpt lat="42.61757846978093" lon="11.741395795571046"><ele>479.25</ele><time>2026-04-24T12:37:22.004Z</time></trkpt><trkpt lat="42.617447719912576" lon="11.74133683706454"><ele>478.5</ele><time>2026-04-24T12:37:23.004Z</time></trkpt><trkpt lat="42.61732129695822" lon="11.741269216620635"><ele>477.75</ele><time>2026-04-24T12:37:24.004Z</time></trkpt><trkpt lat="42.617211774753535" lon="11.741195103817542"><ele>477.0</ele><time>2026-04-24T12:37:25.004Z</time></trkpt><trkpt lat="42.61710810184931" lon="11.74110876314855"><ele>475.75</ele><time>2026-04-24T12:37:26.004Z</time></trkpt><trkpt lat="42.616995366949624" lon="11.741012006294461"><ele>474.5</ele><time>2026-04-24T12:37:27.004Z</time></trkpt><trkpt lat="42.61688073793537" lon="11.740911243736363"><ele>473.25</ele><time>2026-04-24T12:37:28.004Z</time></trkpt><trkpt lat="42.61676831592376" lon="11.740810420041829"><ele>472.0</ele><time>2026-04-24T12:37:29.004Z</time></trkpt><trkpt lat="42.61664453157335" lon="11.74070720779179"><ele>472.0</ele><time>2026-04-24T12:37:30.004Z</time></trkpt><trkpt lat="42.61651960099999" lon="11.740606378232291"><ele>472.0</ele><time>2026-04-24T12:37:31.004Z</time></trkpt><trkpt lat="42.61642521978683" lon="11.740501007308035"><ele>472.0</ele><time>2026-04-24T12:37:32.004Z</time></trkpt><trkpt lat="42.6163115927713" lon="11.740405553535423"><ele>472.0</ele><time>2026-04-24T12:37:33.004Z</time></trkpt><trkpt lat="42.616222710769186" lon="11.740334998515426"><ele>471.25</ele><time>2026-04-24T12:37:34.004Z</time></trkpt><trkpt lat="42.616132141793564" lon="11.740259656340804"><ele>470.5</ele><time>2026-04-24T12:37:35.004Z</time></trkpt><trkpt lat="42.616030076941065" lon="11.74017882480132"><ele>469.75</ele><time>2026-04-24T12:37:36.004Z</time></trkpt><trkpt lat="42.61594293298589" lon="11.74007003566066"><ele>469.0</ele><time>2026-04-24T12:37:37.004Z</time></trkpt><trkpt lat="42.61583494293923" lon="11.739973702276036"><ele>469.0</ele><time>2026-04-24T12:37:38.004Z</time></trkpt><trkpt lat="42.615732952919" lon="11.739881871677618"><ele>469.0</ele><time>2026-04-24T12:37:39.004Z</time></trkpt><trkpt lat="42.61564029121842" lon="11.739780769855885"><ele>469.0</ele><time>2026-04-24T12:37:40.004Z</time></trkpt><trkpt lat="42.61555163578307" lon="11.739679347077779"><ele>469.0</ele><time>2026-04-24T12:37:41.004Z</time></trkpt><trkpt lat="42.61547754783079" lon="11.739558667430446"><ele>469.0</ele><time>2026-04-24T12:37:42.004Z</time></trkpt><trkpt lat="42.615408309227654" lon="11.739444407799743"><ele>469.0</ele><time>2026-04-24T12:37:43.004Z</time></trkpt><trkpt lat="42.615346360585846" lon="11.739333298216303"><ele>469.0</ele><time>2026-04-24T12:37:44.004Z</time></trkpt><trkpt lat="42.61528799458424" lon="11.73920485935734"><ele>469.0</ele><time>2026-04-24T12:37:45.004Z</time></trkpt><trkpt lat="42.61522340865806" lon="11.739052946882039"><ele>466.25</ele><time>2026-04-24T12:37:46.004Z</time></trkpt><trkpt lat="42.61516382918613" lon="11.738899083715937"><ele>463.5</ele><time>2026-04-24T12:37:47.004Z</time></trkpt><trkpt lat="42.61511724676075" lon="11.738770432840568"><ele>460.75</ele><time>2026-04-24T12:37:48.004Z</time></trkpt><trkpt lat="42.615074541895474" lon="11.73864059386752"><ele>458.0</ele><time>2026-04-24T12:37:49.004Z</time></trkpt><trkpt lat="42.615012978544804" lon="11.738484475668866"><ele>457.4</ele><time>2026-04-24T12:37:50.004Z</time></trkpt><trkpt lat="42.61502091828752" lon="11.738352952383556"><ele>456.79999999999995</ele><time>2026-04-24T12:37:51.004Z</time></trkpt><trkpt lat="42.6149998545624" lon="11.738202287555302"><ele>456.2</ele><time>2026-04-24T12:37:52.004Z</time></trkpt><trkpt lat="42.61497071114005" lon="11.738048737916724"><ele>455.6</ele><time>2026-04-24T12:37:53.004Z</time></trkpt><trkpt lat="42.61493313092382" lon="11.737902154788326"><ele>455.0</ele><time>2026-04-24T12:37:54.004Z</time></trkpt><trkpt lat="42.61489872744011" lon="11.737763799694216"><ele>453.8333333333333</ele><time>2026-04-24T12:37:55.004Z</time></trkpt><trkpt lat="42.61486755728065" lon="11.737647202000533"><ele>452.66666666666663</ele><time>2026-04-24T12:37:56.004Z</time></trkpt><trkpt lat="42.61483654828249" lon="11.737544798989818"><ele>451.5</ele><time>2026-04-24T12:37:57.004Z</time></trkpt><trkpt lat="42.614792443569435" lon="11.737441843949641"><ele>450.33333333333337</ele><time>2026-04-24T12:37:58.004Z</time></trkpt><trkpt lat="42.614728522973245" lon="11.737353240719708"><ele>449.1666666666667</ele><time>2026-04-24T12:37:59.004Z</time></trkpt><trkpt lat="42.61466038852914" lon="11.737277633485128"><ele>448.0</ele><time>2026-04-24T12:38:00.004Z</time></trkpt><trkpt lat="42.61455205025426" lon="11.737179567757684"><ele>447.75</ele><time>2026-04-24T12:38:01.004Z</time></trkpt><trkpt lat="42.6144324001108" lon="11.737073075325437"><ele>447.5</ele><time>2026-04-24T12:38:02.004Z</time></trkpt><trkpt lat="42.61431252178775" lon="11.736957263623289"><ele>447.25</ele><time>2026-04-24T12:38:03.004Z</time></trkpt><trkpt lat="42.61418961552307" lon="11.736860101083456"><ele>447.0</ele><time>2026-04-24T12:38:04.004Z</time></trkpt><trkpt lat="42.61405866021761" lon="11.736772282212726"><ele>446.0</ele><time>2026-04-24T12:38:05.004Z</time></trkpt><trkpt lat="42.61394935698012" lon="11.736663349202102"><ele>445.0</ele><time>2026-04-24T12:38:06.004Z</time></trkpt><trkpt lat="42.613825274940076" lon="11.73658816920964"><ele>444.0</ele><time>2026-04-24T12:38:07.004Z</time></trkpt><trkpt lat="42.61370746742622" lon="11.736509174537503"><ele>443.0</ele><time>2026-04-24T12:38:08.004Z</time></trkpt><trkpt lat="42.61361423670968" lon="11.736399374837747"><ele>441.5</ele><time>2026-04-24T12:38:09.004Z</time></trkpt><trkpt lat="42.61352443289684" lon="11.736313733892294"><ele>440.0</ele><time>2026-04-24T12:38:10.004Z</time></trkpt><trkpt lat="42.61343900593995" lon="11.736217739422614"><ele>438.5</ele><time>2026-04-24T12:38:11.004Z</time></trkpt><trkpt lat="42.613344964978744" lon="11.736134070146289"><ele>437.0</ele><time>2026-04-24T12:38:12.004Z</time></trkpt><trkpt lat="42.613260532445906" lon="11.736023254651226"><ele>436.75</ele><time>2026-04-24T12:38:13.004Z</time></trkpt><trkpt lat="42.61318209402398" lon="11.735906684060776"><ele>436.5</ele><time>2026-04-24T12:38:14.004Z</time></trkpt><trkpt lat="42.613107015357585" lon="11.735784042246456"><ele>436.25</ele><time>2026-04-24T12:38:15.004Z</time></trkpt><trkpt lat="42.613043813408474" lon="11.73564173072478"><ele>436.0</ele><time>2026-04-24T12:38:16.004Z</time></trkpt><trkpt lat="42.61298296304937" lon="11.735524462819875"><ele>436.0</ele><time>2026-04-24T12:38:17.004Z</time></trkpt><trkpt lat="42.612922833618704" lon="11.73540858424434"><ele>436.0</ele><time>2026-04-24T12:38:18.004Z</time></trkpt><trkpt lat="42.61284619001817" lon="11.735303187714699"><ele>436.0</ele><time>2026-04-24T12:38:19.004Z</time></trkpt><trkpt lat="42.6128013922107" lon="11.735178855540099"><ele>436.0</ele><time>2026-04-24T12:38:20.004Z</time></trkpt><trkpt lat="42.61274255539824" lon="11.735063341184137"><ele>436.0</ele><time>2026-04-24T12:38:21.004Z</time></trkpt><trkpt lat="42.61267941369195" lon="11.73494790407335"><ele>433.8</ele><time>2026-04-24T12:38:22.004Z</time></trkpt><trkpt lat="42.612607121407095" lon="11.734843270061814"><ele>431.6</ele><time>2026-04-24T12:38:23.004Z</time></trkpt><trkpt lat="42.61252777378535" lon="11.734761305106986"><ele>429.4</ele><time>2026-04-24T12:38:24.004Z</time></trkpt><trkpt lat="42.612446505729004" lon="11.734693003491795"><ele>427.2</ele><time>2026-04-24T12:38:25.004Z</time></trkpt><trkpt lat="42.612367275099736" lon="11.734630599449211"><ele>425.0</ele><time>2026-04-24T12:38:26.004Z</time></trkpt><trkpt lat="42.61229072419436" lon="11.73456202409739"><ele>425.0</ele><time>2026-04-24T12:38:27.004Z</time></trkpt><trkpt lat="42.61222147700936" lon="11.73448566900924"><ele>425.0</ele><time>2026-04-24T12:38:28.004Z</time></trkpt><trkpt lat="42.612143846995515" lon="11.73443588803078"><ele>425.0</ele><time>2026-04-24T12:38:29.004Z</time></trkpt><trkpt lat="42.612057243348076" lon="11.734410188501522"><ele>425.0</ele><time>2026-04-24T12:38:30.004Z</time></trkpt><trkpt lat="42.611955234121616" lon="11.734449687989093"><ele>425.0</ele><time>2026-04-24T12:38:31.004Z</time></trkpt><trkpt lat="42.611848480753714" lon="11.734443429287698"><ele>425.16666666666663</ele><time>2026-04-24T12:38:32.004Z</time></trkpt><trkpt lat="42.6117398161485" lon="11.734432321311736"><ele>425.3333333333333</ele><time>2026-04-24T12:38:33.004Z</time></trkpt><trkpt lat="42.61164466104138" lon="11.734395980610334"><ele>425.5</ele><time>2026-04-24T12:38:34.004Z</time></trkpt><trkpt lat="42.611563103429624" lon="11.734361787303303"><ele>425.66666666666663</ele><time>2026-04-24T12:38:35.004Z</time></trkpt><trkpt lat="42.61150126405028" lon="11.734298071740545"><ele>425.8333333333333</ele><time>2026-04-24T12:38:36.004Z</time></trkpt><trkpt lat="42.61144965733307" lon="11.734235570452666"><ele>426.0</ele><time>2026-04-24T12:38:37.004Z</time></trkpt><trkpt lat="42.61139312896248" lon="11.734159725891875"><ele>426.0</ele><time>2026-04-24T12:38:38.004Z</time></trkpt><trkpt lat="42.61134022251011" lon="11.734110148548396"><ele>426.0</ele><time>2026-04-24T12:38:39.004Z</time></trkpt><trkpt lat="42.61125582830878" lon="11.734060175908871"><ele>426.0</ele><time>2026-04-24T12:38:40.004Z</time></trkpt><trkpt lat="42.61118133054374" lon="11.733955829109492"><ele>426.0</ele><time>2026-04-24T12:38:41.004Z</time></trkpt><trkpt lat="42.61109256956331" lon="11.733870707455711"><ele>426.0</ele><time>2026-04-24T12:38:42.004Z</time></trkpt><trkpt lat="42.610983577070726" lon="11.73378808737662"><ele>426.0</ele><time>2026-04-24T12:38:43.004Z</time></trkpt><trkpt lat="42.61088000795177" lon="11.733677243521951"><ele>426.0</ele><time>2026-04-24T12:38:44.004Z</time></trkpt><trkpt lat="42.610776214396815" lon="11.733596700660991"><ele>426.0</ele><time>2026-04-24T12:38:45.004Z</time></trkpt><trkpt lat="42.61068177156882" lon="11.733527663801755"><ele>426.0</ele><time>2026-04-24T12:38:46.004Z</time></trkpt><trkpt lat="42.610594041748364" lon="11.733446295033058"><ele>425.5</ele><time>2026-04-24T12:38:47.004Z</time></trkpt><trkpt lat="42.610508911253206" lon="11.733346758067801"><ele>425.0</ele><time>2026-04-24T12:38:48.004Z</time></trkpt><trkpt lat="42.6104278108713" lon="11.73324769371158"><ele>424.5</ele><time>2026-04-24T12:38:49.004Z</time></trkpt><trkpt lat="42.610338273214175" lon="11.733152487716918"><ele>424.0</ele><time>2026-04-24T12:38:50.004Z</time></trkpt><trkpt lat="42.61023736284306" lon="11.733061591947013"><ele>425.25</ele><time>2026-04-24T12:38:51.004Z</time></trkpt><trkpt lat="42.61014515535343" lon="11.732983664035082"><ele>426.5</ele><time>2026-04-24T12:38:52.004Z</time></trkpt><trkpt lat="42.610027566652576" lon="11.732914233198374"><ele>427.75</ele><time>2026-04-24T12:38:53.004Z</time></trkpt><trkpt lat="42.60991472451144" lon="11.732833828047095"><ele>429.0</ele><time>2026-04-24T12:38:54.004Z</time></trkpt><trkpt lat="42.609828722851006" lon="11.732760932119213"><ele>429.1666666666667</ele><time>2026-04-24T12:38:55.004Z</time></trkpt><trkpt lat="42.60976910088834" lon="11.732678109234353"><ele>429.33333333333337</ele><time>2026-04-24T12:38:56.004Z</time></trkpt><trkpt lat="42.60974386583153" lon="11.73257365945357"><ele>429.5</ele><time>2026-04-24T12:38:57.004Z</time></trkpt><trkpt lat="42.609728541719605" lon="11.73246771461999"><ele>429.6666666666667</ele><time>2026-04-24T12:38:58.004Z</time></trkpt><trkpt lat="42.60970080248898" lon="11.732350820499"><ele>429.83333333333337</ele><time>2026-04-24T12:38:59.004Z</time></trkpt><trkpt lat="42.609653673899764" lon="11.73221462983836"><ele>430.0</ele><time>2026-04-24T12:39:00.004Z</time></trkpt><trkpt lat="42.6096305184291" lon="11.73207713682226"><ele>430.0</ele><time>2026-04-24T12:39:01.004Z</time></trkpt><trkpt lat="42.60955936680412" lon="11.73192471603461"><ele>430.0</ele><time>2026-04-24T12:39:02.004Z</time></trkpt><trkpt lat="42.60952049592263" lon="11.73174310401867"><ele>430.0</ele><time>2026-04-24T12:39:03.004Z</time></trkpt><trkpt lat="42.609467809918414" lon="11.731558282695053"><ele>430.0</ele><time>2026-04-24T12:39:04.004Z</time></trkpt><trkpt lat="42.60940905669293" lon="11.731378073946084"><ele>432.0</ele><time>2026-04-24T12:39:05.004Z</time></trkpt><trkpt lat="42.609339302588985" lon="11.73118514236777"><ele>434.0</ele><time>2026-04-24T12:39:06.004Z</time></trkpt><trkpt lat="42.60926611573643" lon="11.730987751980702"><ele>436.0</ele><time>2026-04-24T12:39:07.004Z</time></trkpt><trkpt lat="42.60919526982447" lon="11.730791169367246"><ele>437.25</ele><time>2026-04-24T12:39:08.004Z</time></trkpt><trkpt lat="42.609138700221415" lon="11.730615380515752"><ele>438.5</ele><time>2026-04-24T12:39:09.004Z</time></trkpt><trkpt lat="42.6090866499606" lon="11.730446540417573"><ele>439.75</ele><time>2026-04-24T12:39:10.004Z</time></trkpt><trkpt lat="42.609040162543494" lon="11.730277621056441"><ele>441.0</ele><time>2026-04-24T12:39:11.004Z</time></trkpt><trkpt lat="42.608993553018614" lon="11.73013266634244"><ele>442.0</ele><time>2026-04-24T12:39:12.004Z</time></trkpt><trkpt lat="42.60894492781865" lon="11.729990560603227"><ele>443.0</ele><time>2026-04-24T12:39:13.004Z</time></trkpt><trkpt lat="42.60889862074689" lon="11.729859893923555"><ele>444.0</ele><time>2026-04-24T12:39:14.004Z</time></trkpt><trkpt lat="42.608849531121656" lon="11.729734284489021"><ele>445.0</ele><time>2026-04-24T12:39:15.004Z</time></trkpt><trkpt lat="42.60881181379756" lon="11.729617081463623"><ele>446.0</ele><time>2026-04-24T12:39:16.004Z</time></trkpt><trkpt lat="42.60878113408748" lon="11.729524303376225"><ele>446.0</ele><time>2026-04-24T12:39:17.004Z</time></trkpt><trkpt lat="42.60872822644676" lon="11.729410121122264"><ele>446.0</ele><time>2026-04-24T12:39:19.004Z</time></trkpt><trkpt lat="42.608636953299566" lon="11.729387350019163"><ele>446.0</ele><time>2026-04-24T12:39:21.004Z</time></trkpt><trkpt lat="42.60851223498552" lon="11.729432903391148"><ele>446.0</ele><time>2026-04-24T12:39:22.004Z</time></trkpt><trkpt lat="42.60840755141315" lon="11.72946320557183"><ele>446.0</ele><time>2026-04-24T12:39:23.004Z</time></trkpt><trkpt lat="42.60830386884067" lon="11.729516219005275"><ele>446.75</ele><time>2026-04-24T12:39:24.004Z</time></trkpt><trkpt lat="42.608214054269894" lon="11.729526657734986"><ele>447.5</ele><time>2026-04-24T12:39:25.004Z</time></trkpt><trkpt lat="42.60811176748997" lon="11.729563347965861"><ele>448.25</ele><time>2026-04-24T12:39:26.004Z</time></trkpt><trkpt lat="42.60799493260487" lon="11.729595224449652"><ele>449.0</ele><time>2026-04-24T12:39:27.004Z</time></trkpt><trkpt lat="42.60785305701248" lon="11.729626891667067"><ele>451.0</ele><time>2026-04-24T12:39:28.004Z</time></trkpt><trkpt lat="42.607709469190674" lon="11.72966190975455"><ele>453.0</ele><time>2026-04-24T12:39:29.004Z</time></trkpt><trkpt lat="42.60757173940095" lon="11.729693159399082"><ele>455.0</ele><time>2026-04-24T12:39:30.004Z</time></trkpt><trkpt lat="42.6074344344259" lon="11.729726471188103"><ele>457.0</ele><time>2026-04-24T12:39:31.004Z</time></trkpt><trkpt lat="42.60730341980401" lon="11.729773396066367"><ele>457.0</ele><time>2026-04-24T12:39:32.004Z</time></trkpt><trkpt lat="42.60716568667105" lon="11.729785440441999"><ele>457.0</ele><time>2026-04-24T12:39:33.004Z</time></trkpt><trkpt lat="42.60703703589946" lon="11.729817265727283"><ele>457.0</ele><time>2026-04-24T12:39:34.004Z</time></trkpt><trkpt lat="42.60690757311142" lon="11.72985447094341"><ele>457.0</ele><time>2026-04-24T12:39:35.004Z</time></trkpt><trkpt lat="42.606782763206866" lon="11.729893420828324"><ele>458.5</ele><time>2026-04-24T12:39:36.004Z</time></trkpt><trkpt lat="42.60665429835362" lon="11.729928598345692"><ele>460.0</ele><time>2026-04-24T12:39:37.004Z</time></trkpt><trkpt lat="42.6065166082006" lon="11.729965111785612"><ele>461.5</ele><time>2026-04-24T12:39:38.004Z</time></trkpt><trkpt lat="42.60638967565804" lon="11.730004655170006"><ele>463.0</ele><time>2026-04-24T12:39:39.004Z</time></trkpt><trkpt lat="42.60626170954591" lon="11.73004618009868"><ele>463.4</ele><time>2026-04-24T12:39:40.004Z</time></trkpt><trkpt lat="42.60613378557555" lon="11.730084909765562"><ele>463.79999999999995</ele><time>2026-04-24T12:39:41.004Z</time></trkpt><trkpt lat="42.60603103239017" lon="11.730114047037684"><ele>464.2</ele><time>2026-04-24T12:39:42.004Z</time></trkpt><trkpt lat="42.60593827472334" lon="11.730134919971055"><ele>464.6</ele><time>2026-04-24T12:39:43.004Z</time></trkpt><trkpt lat="42.60586393940238" lon="11.730111982527905"><ele>465.0</ele><time>2026-04-24T12:39:44.004Z</time></trkpt><trkpt lat="42.60576651258682" lon="11.730027388874667"><ele>465.0</ele><time>2026-04-24T12:39:46.004Z</time></trkpt><trkpt lat="42.60580022653867" lon="11.72989908671825"><ele>465.0</ele><time>2026-04-24T12:39:47.004Z</time></trkpt><trkpt lat="42.6058222840612" lon="11.729802721808223"><ele>465.0</ele><time>2026-04-24T12:39:48.004Z</time></trkpt><trkpt lat="42.605857529632736" lon="11.729711226706252"><ele>465.0</ele><time>2026-04-24T12:39:49.004Z</time></trkpt><trkpt lat="42.60587733875113" lon="11.729611515184498"><ele>465.0</ele><time>2026-04-24T12:39:50.004Z</time></trkpt><trkpt lat="42.60589065266954" lon="11.729500191714358"><ele>465.0</ele><time>2026-04-24T12:39:51.004Z</time></trkpt><trkpt lat="42.605890652670105" lon="11.729383077400943"><ele>465.0</ele><time>2026-04-24T12:39:53.004Z</time></trkpt><trkpt lat="42.605777133429" lon="11.729318878776155"><ele>465.0</ele><time>2026-04-24T12:39:55.004Z</time></trkpt><trkpt lat="42.60562976580975" lon="11.729430856722285"><ele>465.0</ele><time>2026-04-24T12:39:58.004Z</time></trkpt><trkpt lat="42.605551001066324" lon="11.729456774852814"><ele>465.0</ele><time>2026-04-24T12:39:59.004Z</time></trkpt><trkpt lat="42.60547016013142" lon="11.7295063411929"><ele>465.0</ele><time>2026-04-24T12:40:00.004Z</time></trkpt><trkpt lat="42.60538835672695" lon="11.729578529794336"><ele>465.0</ele><time>2026-04-24T12:40:01.004Z</time></trkpt><trkpt lat="42.60528255787626" lon="11.72962844226322"><ele>465.0</ele><time>2026-04-24T12:40:02.004Z</time></trkpt><trkpt lat="42.605194533037555" lon="11.729684955619353"><ele>465.0</ele><time>2026-04-24T12:40:03.004Z</time></trkpt><trkpt lat="42.60510810656082" lon="11.729735745842586"><ele>465.0</ele><time>2026-04-24T12:40:04.004Z</time></trkpt><trkpt lat="42.6050366996999" lon="11.729784132194553"><ele>464.8</ele><time>2026-04-24T12:40:05.004Z</time></trkpt><trkpt lat="42.60496544090812" lon="11.729830813285464"><ele>464.6</ele><time>2026-04-24T12:40:06.004Z</time></trkpt><trkpt lat="42.6048910909698" lon="11.729899750968015"><ele>464.4</ele><time>2026-04-24T12:40:07.004Z</time></trkpt><trkpt lat="42.604794705540094" lon="11.729988888346996"><ele>464.2</ele><time>2026-04-24T12:40:08.004Z</time></trkpt><trkpt lat="42.60469667255876" lon="11.730080116040307"><ele>464.0</ele><time>2026-04-24T12:40:09.004Z</time></trkpt><trkpt lat="42.604599811769326" lon="11.730171369924715"><ele>464.5</ele><time>2026-04-24T12:40:10.004Z</time></trkpt><trkpt lat="42.6045149153371" lon="11.73026203194841"><ele>465.0</ele><time>2026-04-24T12:40:11.004Z</time></trkpt><trkpt lat="42.604422944923385" lon="11.730361070976135"><ele>465.5</ele><time>2026-04-24T12:40:12.004Z</time></trkpt><trkpt lat="42.60432054114877" lon="11.730473136447483"><ele>466.0</ele><time>2026-04-24T12:40:13.004Z</time></trkpt><trkpt lat="42.604214968304696" lon="11.730583869986084"><ele>462.75</ele><time>2026-04-24T12:40:14.004Z</time></trkpt><trkpt lat="42.60411656303138" lon="11.730675509516203"><ele>459.5</ele><time>2026-04-24T12:40:15.004Z</time></trkpt><trkpt lat="42.60402255980352" lon="11.730779408654772"><ele>456.25</ele><time>2026-04-24T12:40:16.004Z</time></trkpt><trkpt lat="42.60392264969641" lon="11.730881313442815"><ele>453.0</ele><time>2026-04-24T12:40:17.004Z</time></trkpt><trkpt lat="42.60380857977645" lon="11.730994486966395"><ele>453.33333333333337</ele><time>2026-04-24T12:40:18.004Z</time></trkpt><trkpt lat="42.603680072690445" lon="11.731140356429773"><ele>453.6666666666667</ele><time>2026-04-24T12:40:19.004Z</time></trkpt><trkpt lat="42.603567551427325" lon="11.731259982786629"><ele>454.0</ele><time>2026-04-24T12:40:20.004Z</time></trkpt><trkpt lat="42.603453069070206" lon="11.731377701629087"><ele>451.0</ele><time>2026-04-24T12:40:21.004Z</time></trkpt><trkpt lat="42.60334497073195" lon="11.731488987657611"><ele>448.0</ele><time>2026-04-24T12:40:22.004Z</time></trkpt><trkpt lat="42.603223281540075" lon="11.731610957267913"><ele>445.0</ele><time>2026-04-24T12:40:23.004Z</time></trkpt><trkpt lat="42.6030890870888" lon="11.73174236272933"><ele>445.0</ele><time>2026-04-24T12:40:24.004Z</time></trkpt><trkpt lat="42.60295809032185" lon="11.731878212776978"><ele>445.0</ele><time>2026-04-24T12:40:25.004Z</time></trkpt><trkpt lat="42.60283103858602" lon="11.73201262119979"><ele>445.0</ele><time>2026-04-24T12:40:26.004Z</time></trkpt><trkpt lat="42.60270432213694" lon="11.73214539989896"><ele>445.75</ele><time>2026-04-24T12:40:27.004Z</time></trkpt><trkpt lat="42.60258515421145" lon="11.732270763777915"><ele>446.5</ele><time>2026-04-24T12:40:28.004Z</time></trkpt><trkpt lat="42.60246519675133" lon="11.732394536218399"><ele>447.25</ele><time>2026-04-24T12:40:29.004Z</time></trkpt><trkpt lat="42.60235021828226" lon="11.732514929491558"><ele>448.0</ele><time>2026-04-24T12:40:29.985Z</time></trkpt><trkpt lat="42.602216042997334" lon="11.732629693146928"><ele>448.6666666666667</ele><time>2026-04-24T12:40:30.985Z</time></trkpt><trkpt lat="42.60208831470161" lon="11.732758110880454"><ele>449.33333333333337</ele><time>2026-04-24T12:40:31.985Z</time></trkpt><trkpt lat="42.60196457184871" lon="11.732882522115364"><ele>450.0</ele><time>2026-04-24T12:40:32.985Z</time></trkpt><trkpt lat="42.60183527716692" lon="11.733012514799471"><ele>450.0</ele><time>2026-04-24T12:40:33.985Z</time></trkpt><trkpt lat="42.601696956548906" lon="11.733153309703614"><ele>450.0</ele><time>2026-04-24T12:40:34.985Z</time></trkpt><trkpt lat="42.601558259897246" lon="11.733295813280536"><ele>450.0</ele><time>2026-04-24T12:40:35.985Z</time></trkpt><trkpt lat="42.60142520322525" lon="11.733455159591129"><ele>451.33333333333337</ele><time>2026-04-24T12:40:36.985Z</time></trkpt><trkpt lat="42.601290275214495" lon="11.733583163058075"><ele>452.6666666666667</ele><time>2026-04-24T12:40:37.985Z</time></trkpt><trkpt lat="42.60116859299716" lon="11.733707016299741"><ele>454.0</ele><time>2026-04-24T12:40:38.985Z</time></trkpt><trkpt lat="42.601048483365595" lon="11.733832915891101"><ele>454.6666666666667</ele><time>2026-04-24T12:40:39.985Z</time></trkpt><trkpt lat="42.60091622583654" lon="11.733933787457431"><ele>455.33333333333337</ele><time>2026-04-24T12:40:40.985Z</time></trkpt><trkpt lat="42.600796567166185" lon="11.734050587358885"><ele>456.0</ele><time>2026-04-24T12:40:41.985Z</time></trkpt><trkpt lat="42.600675821697536" lon="11.7341733255701"><ele>456.0</ele><time>2026-04-24T12:40:42.985Z</time></trkpt><trkpt lat="42.60057794748879" lon="11.7342767989394"><ele>456.0</ele><time>2026-04-24T12:40:43.985Z</time></trkpt><trkpt lat="42.600490454776256" lon="11.734389031494345"><ele>456.0</ele><time>2026-04-24T12:40:44.985Z</time></trkpt><trkpt lat="42.600393748493026" lon="11.734487065373235"><ele>456.0</ele><time>2026-04-24T12:40:45.985Z</time></trkpt><trkpt lat="42.600293359316936" lon="11.734598537220366"><ele>458.75</ele><time>2026-04-24T12:40:46.985Z</time></trkpt><trkpt lat="42.600180241592845" lon="11.734726391803667"><ele>461.5</ele><time>2026-04-24T12:40:47.985Z</time></trkpt><trkpt lat="42.60009905688457" lon="11.734840559985294"><ele>464.25</ele><time>2026-04-24T12:40:48.985Z</time></trkpt><trkpt lat="42.600011677356605" lon="11.734969268626587"><ele>467.0</ele><time>2026-04-24T12:40:49.985Z</time></trkpt><trkpt lat="42.599931317094" lon="11.735070990163342"><ele>467.0</ele><time>2026-04-24T12:40:50.985Z</time></trkpt><trkpt lat="42.59987115779913" lon="11.735187566040553"><ele>467.0</ele><time>2026-04-24T12:40:51.985Z</time></trkpt><trkpt lat="42.59979847931342" lon="11.735339686001675"><ele>467.0</ele><time>2026-04-24T12:40:52.985Z</time></trkpt><trkpt lat="42.59973434974807" lon="11.735489854702905"><ele>467.0</ele><time>2026-04-24T12:40:53.985Z</time></trkpt><trkpt lat="42.599670955135956" lon="11.73563208185062"><ele>466.25</ele><time>2026-04-24T12:40:54.985Z</time></trkpt><trkpt lat="42.59960048432253" lon="11.73579089005958"><ele>465.5</ele><time>2026-04-24T12:40:55.985Z</time></trkpt><trkpt lat="42.59952559739012" lon="11.73594762635082"><ele>464.75</ele><time>2026-04-24T12:40:56.985Z</time></trkpt><trkpt lat="42.59945210255415" lon="11.73609987723354"><ele>464.0</ele><time>2026-04-24T12:40:57.985Z</time></trkpt><trkpt lat="42.59935758429755" lon="11.736246564006343"><ele>464.0</ele><time>2026-04-24T12:40:58.985Z</time></trkpt><trkpt lat="42.59928861133759" lon="11.736371092574663"><ele>464.0</ele><time>2026-04-24T12:40:59.985Z</time></trkpt><trkpt lat="42.599221525642086" lon="11.736485721865561"><ele>464.0</ele><time>2026-04-24T12:41:00.985Z</time></trkpt><trkpt lat="42.59915194979558" lon="11.7366042700018"><ele>464.0</ele><time>2026-04-24T12:41:01.985Z</time></trkpt><trkpt lat="42.59907816144298" lon="11.736733292661478"><ele>463.0</ele><time>2026-04-24T12:41:02.985Z</time></trkpt><trkpt lat="42.59900162797374" lon="11.736897914096735"><ele>462.0</ele><time>2026-04-24T12:41:03.985Z</time></trkpt><trkpt lat="42.598922934177416" lon="11.73707397688528"><ele>461.0</ele><time>2026-04-24T12:41:04.985Z</time></trkpt><trkpt lat="42.59884597153519" lon="11.7372398576465"><ele>460.0</ele><time>2026-04-24T12:41:05.985Z</time></trkpt><trkpt lat="42.59876678167765" lon="11.737401360569985"><ele>460.0</ele><time>2026-04-24T12:41:06.985Z</time></trkpt><trkpt lat="42.598691295855545" lon="11.73757663396124"><ele>460.0</ele><time>2026-04-24T12:41:07.985Z</time></trkpt><trkpt lat="42.598617167462415" lon="11.737745845355517"><ele>460.0</ele><time>2026-04-24T12:41:08.985Z</time></trkpt><trkpt lat="42.5985489075326" lon="11.737915024750777"><ele>460.0</ele><time>2026-04-24T12:41:09.985Z</time></trkpt><trkpt lat="42.598471752642894" lon="11.738082158897376"><ele>460.0</ele><time>2026-04-24T12:41:10.985Z</time></trkpt><trkpt lat="42.59840186158303" lon="11.73825098702295"><ele>460.0</ele><time>2026-04-24T12:41:11.985Z</time></trkpt><trkpt lat="42.59832667133608" lon="11.738394290917272"><ele>460.0</ele><time>2026-04-24T12:41:12.986Z</time></trkpt><trkpt lat="42.5982439913606" lon="11.73852090447261"><ele>460.0</ele><time>2026-04-24T12:41:13.986Z</time></trkpt><trkpt lat="42.598148829600795" lon="11.738591571973346"><ele>460.0</ele><time>2026-04-24T12:41:14.986Z</time></trkpt><trkpt lat="42.59808103815216" lon="11.738637699888429"><ele>460.0</ele><time>2026-04-24T12:41:15.986Z</time></trkpt><trkpt lat="42.597981461825924" lon="11.73868929152883"><ele>460.0</ele><time>2026-04-24T12:41:16.983Z</time></trkpt><trkpt lat="42.597854585566836" lon="11.738747483282653"><ele>460.0</ele><time>2026-04-24T12:41:17.983Z</time></trkpt><trkpt lat="42.59770638000368" lon="11.738820967469602"><ele>460.0</ele><time>2026-04-24T12:41:18.983Z</time></trkpt><trkpt lat="42.59756699356581" lon="11.738889567558811"><ele>460.0</ele><time>2026-04-24T12:41:19.984Z</time></trkpt><trkpt lat="42.59743663376378" lon="11.738960743989969"><ele>460.0</ele><time>2026-04-24T12:41:20.983Z</time></trkpt><trkpt lat="42.59730290482756" lon="11.739031372485355"><ele>460.0</ele><time>2026-04-24T12:41:21.983Z</time></trkpt><trkpt lat="42.59717944521583" lon="11.739093650403609"><ele>460.0</ele><time>2026-04-24T12:41:22.983Z</time></trkpt><trkpt lat="42.59705220589292" lon="11.73915302239093"><ele>460.0</ele><time>2026-04-24T12:41:23.983Z</time></trkpt><trkpt lat="42.59692424944819" lon="11.739216493072078"><ele>460.0</ele><time>2026-04-24T12:41:24.983Z</time></trkpt><trkpt lat="42.596806898183445" lon="11.739271482403913"><ele>460.0</ele><time>2026-04-24T12:41:25.983Z</time></trkpt><trkpt lat="42.59669733957804" lon="11.739331243548097"><ele>460.75</ele><time>2026-04-24T12:41:26.983Z</time></trkpt><trkpt lat="42.59657441198671" lon="11.73940264947245"><ele>461.5</ele><time>2026-04-24T12:41:27.983Z</time></trkpt><trkpt lat="42.59645538066527" lon="11.73948665001459"><ele>462.25</ele><time>2026-04-24T12:41:28.983Z</time></trkpt><trkpt lat="42.59633378583098" lon="11.739577775018873"><ele>463.0</ele><time>2026-04-24T12:41:29.983Z</time></trkpt><trkpt lat="42.596226397901226" lon="11.739679589292946"><ele>460.0</ele><time>2026-04-24T12:41:30.983Z</time></trkpt><trkpt lat="42.596117124163094" lon="11.739784243724618"><ele>457.0</ele><time>2026-04-24T12:41:31.983Z</time></trkpt><trkpt lat="42.59599505137254" lon="11.739877172763043"><ele>454.0</ele><time>2026-04-24T12:41:32.983Z</time></trkpt><trkpt lat="42.595884126747094" lon="11.73997033444289"><ele>451.0</ele><time>2026-04-24T12:41:33.983Z</time></trkpt><trkpt lat="42.595772925482564" lon="11.740015423045206"><ele>451.0</ele><time>2026-04-24T12:41:34.983Z</time></trkpt><trkpt lat="42.5956600196252" lon="11.740071297620887"><ele>451.0</ele><time>2026-04-24T12:41:35.983Z</time></trkpt><trkpt lat="42.595554833653374" lon="11.740109478582504"><ele>451.0</ele><time>2026-04-24T12:41:36.983Z</time></trkpt><trkpt lat="42.59543673709793" lon="11.740140191107866"><ele>451.0</ele><time>2026-04-24T12:41:37.983Z</time></trkpt><trkpt lat="42.59531101386304" lon="11.74015234193399"><ele>449.25</ele><time>2026-04-24T12:41:38.983Z</time></trkpt><trkpt lat="42.595174268214635" lon="11.740158807970525"><ele>447.5</ele><time>2026-04-24T12:41:39.983Z</time></trkpt><trkpt lat="42.59503900577878" lon="11.740158352562041"><ele>445.75</ele><time>2026-04-24T12:41:40.983Z</time></trkpt><trkpt lat="42.59490813344114" lon="11.740155098924484"><ele>444.0</ele><time>2026-04-24T12:41:41.983Z</time></trkpt><trkpt lat="42.59478401179728" lon="11.74015201311439"><ele>444.0</ele><time>2026-04-24T12:41:42.983Z</time></trkpt><trkpt lat="42.59466937916227" lon="11.740149204415436"><ele>444.0</ele><time>2026-04-24T12:41:43.983Z</time></trkpt><trkpt lat="42.59455391381601" lon="11.740147535960444"><ele>444.0</ele><time>2026-04-24T12:41:44.983Z</time></trkpt><trkpt lat="42.594425198907274" lon="11.740145674090092"><ele>444.0</ele><time>2026-04-24T12:41:45.983Z</time></trkpt><trkpt lat="42.5943041051877" lon="11.740165226183215"><ele>443.4</ele><time>2026-04-24T12:41:46.983Z</time></trkpt><trkpt lat="42.59419853398015" lon="11.74014546559179"><ele>442.79999999999995</ele><time>2026-04-24T12:41:47.983Z</time></trkpt><trkpt lat="42.59411113551033" lon="11.740147527993068"><ele>442.20000000000005</ele><time>2026-04-24T12:41:48.983Z</time></trkpt><trkpt lat="42.594014561360055" lon="11.74013559534769"><ele>441.6</ele><time>2026-04-24T12:41:50.983Z</time></trkpt><trkpt lat="42.59400261465097" lon="11.740009766219023"><ele>441.0</ele><time>2026-04-24T12:42:02.984Z</time></trkpt><trkpt lat="42.594027922470545" lon="11.73989315209117"><ele>441.0</ele><time>2026-04-24T12:42:04.984Z</time></trkpt><trkpt lat="42.594102601094555" lon="11.739878540307169"><ele>441.0</ele><time>2026-04-24T12:42:05.984Z</time></trkpt><trkpt lat="42.5941587325737" lon="11.73983346983046"><ele>441.0</ele><time>2026-04-24T12:42:06.984Z</time></trkpt><trkpt lat="42.59421303940728" lon="11.739751758095231"><ele>441.0</ele><time>2026-04-24T12:42:07.984Z</time></trkpt><trkpt lat="42.59425606656405" lon="11.739675288135897"><ele>441.0</ele><time>2026-04-24T12:42:08.984Z</time></trkpt><trkpt lat="42.594312571742876" lon="11.739539979451873"><ele>441.0</ele><time>2026-04-24T12:42:10.984Z</time></trkpt><trkpt lat="42.594331909091125" lon="11.739448779447635"><ele>441.5</ele><time>2026-04-24T12:42:11.984Z</time></trkpt><trkpt lat="42.59433638054362" lon="11.739332657784031"><ele>442.0</ele><time>2026-04-24T12:42:12.984Z</time></trkpt><trkpt lat="42.59432881177385" lon="11.739235390490748"><ele>442.5</ele><time>2026-04-24T12:42:13.984Z</time></trkpt><trkpt lat="42.594319327540184" lon="11.739111190996269"><ele>443.0</ele><time>2026-04-24T12:42:15.984Z</time></trkpt><trkpt lat="42.59429811846824" lon="11.739018696278054"><ele>443.5</ele><time>2026-04-24T12:42:16.984Z</time></trkpt><trkpt lat="42.59432971905283" lon="11.738920435891952"><ele>444.0</ele><time>2026-04-24T12:42:17.984Z</time></trkpt><trkpt lat="42.59434863093827" lon="11.73880201746689"><ele>444.0</ele><time>2026-04-24T12:42:18.984Z</time></trkpt><trkpt lat="42.5943767951344" lon="11.738678652118534"><ele>444.0</ele><time>2026-04-24T12:42:19.984Z</time></trkpt><trkpt lat="42.594390742767544" lon="11.738564909050481"><ele>444.0</ele><time>2026-04-24T12:42:20.984Z</time></trkpt><trkpt lat="42.5944119402738" lon="11.738456221481654"><ele>444.0</ele><time>2026-04-24T12:42:21.984Z</time></trkpt><trkpt lat="42.59443896009945" lon="11.73833098553339"><ele>444.0</ele><time>2026-04-24T12:42:22.984Z</time></trkpt><trkpt lat="42.594464652958635" lon="11.738200440134094"><ele>445.2</ele><time>2026-04-24T12:42:23.984Z</time></trkpt><trkpt lat="42.594483549419564" lon="11.738075576079375"><ele>446.4</ele><time>2026-04-24T12:42:24.984Z</time></trkpt><trkpt lat="42.59450727051475" lon="11.73795673265807"><ele>447.6</ele><time>2026-04-24T12:42:25.984Z</time></trkpt><trkpt lat="42.59452906813189" lon="11.737839027898838"><ele>448.8</ele><time>2026-04-24T12:42:26.984Z</time></trkpt><trkpt lat="42.59456912491159" lon="11.737666633185519"><ele>450.0</ele><time>2026-04-24T12:42:28.984Z</time></trkpt><trkpt lat="42.594578279736325" lon="11.73755269615661"><ele>451.0</ele><time>2026-04-24T12:42:29.984Z</time></trkpt><trkpt lat="42.59459270569237" lon="11.737428955110436"><ele>452.0</ele><time>2026-04-24T12:42:30.984Z</time></trkpt><trkpt lat="42.59461036179961" lon="11.737277239728842"><ele>453.0</ele><time>2026-04-24T12:42:31.984Z</time></trkpt><trkpt lat="42.59464405777931" lon="11.737157361715687"><ele>454.0</ele><time>2026-04-24T12:42:32.984Z</time></trkpt><trkpt lat="42.59468259902051" lon="11.737057742846066"><ele>455.0</ele><time>2026-04-24T12:42:33.984Z</time></trkpt><trkpt lat="42.59472504757199" lon="11.7369674134871"><ele>455.0</ele><time>2026-04-24T12:42:34.984Z</time></trkpt><trkpt lat="42.59478953334108" lon="11.736890007479541"><ele>455.0</ele><time>2026-04-24T12:42:35.984Z</time></trkpt><trkpt lat="42.594854213099744" lon="11.736797668880026"><ele>455.0</ele><time>2026-04-24T12:42:36.984Z</time></trkpt><trkpt lat="42.59492347734723" lon="11.736689053748634"><ele>455.0</ele><time>2026-04-24T12:42:38.984Z</time></trkpt><trkpt lat="42.594933990201945" lon="11.736519343087823"><ele>455.0</ele><time>2026-04-24T12:42:40.984Z</time></trkpt><trkpt lat="42.59489681081213" lon="11.73638425644313"><ele>454.8333333333333</ele><time>2026-04-24T12:42:41.984Z</time></trkpt><trkpt lat="42.59486297355105" lon="11.736281805026541"><ele>454.66666666666663</ele><time>2026-04-24T12:42:42.984Z</time></trkpt><trkpt lat="42.594833228692686" lon="11.736196205439812"><ele>454.5</ele><time>2026-04-24T12:42:43.984Z</time></trkpt><trkpt lat="42.594800541046524" lon="11.736117836856176"><ele>454.33333333333337</ele><time>2026-04-24T12:42:44.984Z</time></trkpt><trkpt lat="42.59477606751976" lon="11.736015457261704"><ele>454.1666666666667</ele><time>2026-04-24T12:42:45.984Z</time></trkpt><trkpt lat="42.59477262039125" lon="11.735902663042982"><ele>454.0</ele><time>2026-04-24T12:42:46.984Z</time></trkpt><trkpt lat="42.59479491257642" lon="11.735767996244876"><ele>454.0</ele><time>2026-04-24T12:42:47.984Z</time></trkpt><trkpt lat="42.59484442758682" lon="11.73561066321131"><ele>454.0</ele><time>2026-04-24T12:42:48.984Z</time></trkpt><trkpt lat="42.59488071668804" lon="11.735453970002274"><ele>454.0</ele><time>2026-04-24T12:42:49.984Z</time></trkpt><trkpt lat="42.594903252844" lon="11.735301634067882"><ele>454.0</ele><time>2026-04-24T12:42:50.984Z</time></trkpt><trkpt lat="42.59493564677012" lon="11.735179662741833"><ele>454.4</ele><time>2026-04-24T12:42:51.984Z</time></trkpt><trkpt lat="42.594960929870595" lon="11.735082130565269"><ele>454.79999999999995</ele><time>2026-04-24T12:42:52.984Z</time></trkpt><trkpt lat="42.59497640708629" lon="11.7349631228902"><ele>455.20000000000005</ele><time>2026-04-24T12:42:53.984Z</time></trkpt><trkpt lat="42.59499470694781" lon="11.734831344532614"><ele>455.6</ele><time>2026-04-24T12:42:54.984Z</time></trkpt><trkpt lat="42.59502560754684" lon="11.734684502016558"><ele>456.0</ele><time>2026-04-24T12:42:55.984Z</time></trkpt><trkpt lat="42.59502532509834" lon="11.734534145734845"><ele>455.75</ele><time>2026-04-24T12:42:56.984Z</time></trkpt><trkpt lat="42.595041414922775" lon="11.7343746183301"><ele>455.5</ele><time>2026-04-24T12:42:57.984Z</time></trkpt><trkpt lat="42.59504942665628" lon="11.734224128805709"><ele>455.25</ele><time>2026-04-24T12:42:58.984Z</time></trkpt><trkpt lat="42.59503716201336" lon="11.734080621739723"><ele>455.0</ele><time>2026-04-24T12:42:59.984Z</time></trkpt><trkpt lat="42.59501140590878" lon="11.733922325297844"><ele>455.0</ele><time>2026-04-24T12:43:00.984Z</time></trkpt><trkpt lat="42.59498436026294" lon="11.733744596841335"><ele>455.0</ele><time>2026-04-24T12:43:01.984Z</time></trkpt><trkpt lat="42.59495590745602" lon="11.733575511934806"><ele>455.0</ele><time>2026-04-24T12:43:02.984Z</time></trkpt><trkpt lat="42.59493543823317" lon="11.733411911504945"><ele>455.0</ele><time>2026-04-24T12:43:03.984Z</time></trkpt><trkpt lat="42.594913383136" lon="11.733263056677082"><ele>455.2</ele><time>2026-04-24T12:43:04.984Z</time></trkpt><trkpt lat="42.59491240415861" lon="11.733124730762901"><ele>455.4</ele><time>2026-04-24T12:43:05.984Z</time></trkpt><trkpt lat="42.59489751880477" lon="11.733002297461097"><ele>455.6</ele><time>2026-04-24T12:43:06.984Z</time></trkpt><trkpt lat="42.59486979293436" lon="11.73287794163765"><ele>455.8</ele><time>2026-04-24T12:43:07.984Z</time></trkpt><trkpt lat="42.59485387956165" lon="11.732713584272469"><ele>456.0</ele><time>2026-04-24T12:43:08.984Z</time></trkpt><trkpt lat="42.59484913274298" lon="11.732560271025857"><ele>456.0</ele><time>2026-04-24T12:43:09.984Z</time></trkpt><trkpt lat="42.594857295545765" lon="11.732391599656312"><ele>456.0</ele><time>2026-04-24T12:43:10.984Z</time></trkpt><trkpt lat="42.594863745784856" lon="11.732206299517765"><ele>456.0</ele><time>2026-04-24T12:43:11.984Z</time></trkpt><trkpt lat="42.594875451050115" lon="11.732019660357606"><ele>456.0</ele><time>2026-04-24T12:43:12.984Z</time></trkpt><trkpt lat="42.594870165607446" lon="11.731853198754134"><ele>456.25</ele><time>2026-04-24T12:43:13.984Z</time></trkpt><trkpt lat="42.594895275917246" lon="11.73167088803699"><ele>456.5</ele><time>2026-04-24T12:43:14.984Z</time></trkpt><trkpt lat="42.594904358561806" lon="11.731454700430339"><ele>456.75</ele><time>2026-04-24T12:43:15.984Z</time></trkpt><trkpt lat="42.59490597673709" lon="11.731302000924682"><ele>457.0</ele><time>2026-04-24T12:43:16.984Z</time></trkpt><trkpt lat="42.594911555780655" lon="11.73117578798212"><ele>456.6</ele><time>2026-04-24T12:43:17.984Z</time></trkpt><trkpt lat="42.59491382936272" lon="11.73103232595931"><ele>456.20000000000005</ele><time>2026-04-24T12:43:18.984Z</time></trkpt><trkpt lat="42.59491674041153" lon="11.730881346407498"><ele>455.8</ele><time>2026-04-24T12:43:19.984Z</time></trkpt><trkpt lat="42.5949361281979" lon="11.730735234750513"><ele>455.4</ele><time>2026-04-24T12:43:20.984Z</time></trkpt><trkpt lat="42.5949241268743" lon="11.730593325176617"><ele>455.0</ele><time>2026-04-24T12:43:21.984Z</time></trkpt><trkpt lat="42.594927655019546" lon="11.730473794623487"><ele>455.0</ele><time>2026-04-24T12:43:22.981Z</time></trkpt><trkpt lat="42.59493514332408" lon="11.730340812853525"><ele>455.0</ele><time>2026-04-24T12:43:23.981Z</time></trkpt><trkpt lat="42.59493916639539" lon="11.730166701273406"><ele>455.0</ele><time>2026-04-24T12:43:24.981Z</time></trkpt><trkpt lat="42.59493705783958" lon="11.729975277763426"><ele>455.0</ele><time>2026-04-24T12:43:25.981Z</time></trkpt><trkpt lat="42.59493258379705" lon="11.729777638966311"><ele>454.75</ele><time>2026-04-24T12:43:26.98Z</time></trkpt><trkpt lat="42.59492373403608" lon="11.729572422019839"><ele>454.5</ele><time>2026-04-24T12:43:27.98Z</time></trkpt><trkpt lat="42.59491782530017" lon="11.729391036518535"><ele>454.25</ele><time>2026-04-24T12:43:28.98Z</time></trkpt><trkpt lat="42.594924582524364" lon="11.729196139933345"><ele>454.0</ele><time>2026-04-24T12:43:29.98Z</time></trkpt><trkpt lat="42.594907135353" lon="11.728989371791165"><ele>453.75</ele><time>2026-04-24T12:43:30.98Z</time></trkpt><trkpt lat="42.59490891854976" lon="11.72882853209038"><ele>453.5</ele><time>2026-04-24T12:43:31.98Z</time></trkpt><trkpt lat="42.594925602587054" lon="11.728662875503874"><ele>453.25</ele><time>2026-04-24T12:43:32.981Z</time></trkpt><trkpt lat="42.59492849034596" lon="11.728495050705854"><ele>453.0</ele><time>2026-04-24T12:43:33.981Z</time></trkpt><trkpt lat="42.594931293839686" lon="11.728332123841088"><ele>452.0</ele><time>2026-04-24T12:43:34.98Z</time></trkpt><trkpt lat="42.59493478233408" lon="11.728129386566033"><ele>451.0</ele><time>2026-04-24T12:43:35.981Z</time></trkpt><trkpt lat="42.594937450537024" lon="11.727974321167894"><ele>450.0</ele><time>2026-04-24T12:43:36.981Z</time></trkpt><trkpt lat="42.5949255606531" lon="11.727817188246425"><ele>449.0</ele><time>2026-04-24T12:43:37.981Z</time></trkpt><trkpt lat="42.594935126281" lon="11.727655844247973"><ele>448.2</ele><time>2026-04-24T12:43:38.981Z</time></trkpt><trkpt lat="42.59492107683708" lon="11.727482268545547"><ele>447.4</ele><time>2026-04-24T12:43:39.981Z</time></trkpt><trkpt lat="42.594936058366315" lon="11.727343182127955"><ele>446.6</ele><time>2026-04-24T12:43:40.981Z</time></trkpt><trkpt lat="42.59494439255367" lon="11.727207718003765"><ele>445.8</ele><time>2026-04-24T12:43:41.981Z</time></trkpt><trkpt lat="42.59493904059355" lon="11.727084396643333"><ele>445.0</ele><time>2026-04-24T12:43:42.981Z</time></trkpt><trkpt lat="42.5949706358631" lon="11.726975734437595"><ele>444.2</ele><time>2026-04-24T12:43:43.981Z</time></trkpt><trkpt lat="42.59501538011325" lon="11.726857716848968"><ele>443.4</ele><time>2026-04-24T12:43:44.981Z</time></trkpt><trkpt lat="42.595123386248375" lon="11.726790173475505"><ele>442.6</ele><time>2026-04-24T12:43:45.981Z</time></trkpt><trkpt lat="42.59518765199068" lon="11.7267261219422"><ele>441.8</ele><time>2026-04-24T12:43:46.981Z</time></trkpt><trkpt lat="42.595253904472685" lon="11.726643003102527"><ele>441.0</ele><time>2026-04-24T12:43:47.981Z</time></trkpt><trkpt lat="42.595314744308055" lon="11.726551521256512"><ele>441.20000000000005</ele><time>2026-04-24T12:43:48.981Z</time></trkpt><trkpt lat="42.59536369335634" lon="11.726455456358913"><ele>441.40000000000003</ele><time>2026-04-24T12:43:49.981Z</time></trkpt><trkpt lat="42.5954034716078" lon="11.726365014539784"><ele>441.6</ele><time>2026-04-24T12:43:50.981Z</time></trkpt><trkpt lat="42.59539533107391" lon="11.726273561207659"><ele>441.8</ele><time>2026-04-24T12:43:51.981Z</time></trkpt><trkpt lat="42.595364111627504" lon="11.726104294574432"><ele>442.0</ele><time>2026-04-24T12:43:53.981Z</time></trkpt><trkpt lat="42.59529203833708" lon="11.726015158189389"><ele>441.20000000000005</ele><time>2026-04-24T12:43:54.981Z</time></trkpt><trkpt lat="42.59521708506704" lon="11.725962854497192"><ele>440.40000000000003</ele><time>2026-04-24T12:43:55.981Z</time></trkpt><trkpt lat="42.59512482075153" lon="11.72592277291942"><ele>439.59999999999997</ele><time>2026-04-24T12:43:56.981Z</time></trkpt><trkpt lat="42.59499483960559" lon="11.72591351402098"><ele>438.79999999999995</ele><time>2026-04-24T12:43:57.981Z</time></trkpt><trkpt lat="42.594895577137244" lon="11.725914597169517"><ele>438.0</ele><time>2026-04-24T12:43:58.981Z</time></trkpt><trkpt lat="42.59482302074728" lon="11.725905515241362"><ele>438.0</ele><time>2026-04-24T12:43:59.981Z</time></trkpt><trkpt lat="42.59473118902956" lon="11.725855202415161"><ele>437.99999999999994</ele><time>2026-04-24T12:44:01.981Z</time></trkpt><trkpt lat="42.594685350716716" lon="11.725786383386913"><ele>437.99999999999994</ele><time>2026-04-24T12:44:02.981Z</time></trkpt><trkpt lat="42.594618242502385" lon="11.725650259883608"><ele>438.0</ele><time>2026-04-24T12:44:03.981Z</time></trkpt><trkpt lat="42.59458419669183" lon="11.725506323640307"><ele>438.0</ele><time>2026-04-24T12:44:04.981Z</time></trkpt><trkpt lat="42.59454680055128" lon="11.72539551214286"><ele>438.0</ele><time>2026-04-24T12:44:05.981Z</time></trkpt><trkpt lat="42.59451725113166" lon="11.725266872084688"><ele>438.0</ele><time>2026-04-24T12:44:06.981Z</time></trkpt><trkpt lat="42.59448170954577" lon="11.72514197888951"><ele>438.0</ele><time>2026-04-24T12:44:07.981Z</time></trkpt><trkpt lat="42.594464980801526" lon="11.725029109655877"><ele>438.0</ele><time>2026-04-24T12:44:08.981Z</time></trkpt><trkpt lat="42.594460044849846" lon="11.724928028017017"><ele>438.0</ele><time>2026-04-24T12:44:09.981Z</time></trkpt><trkpt lat="42.59442054180935" lon="11.724821794153103"><ele>438.0</ele><time>2026-04-24T12:44:10.981Z</time></trkpt><trkpt lat="42.594354163065155" lon="11.72467718642925"><ele>437.25</ele><time>2026-04-24T12:44:11.981Z</time></trkpt><trkpt lat="42.5942917703012" lon="11.724532255502718"><ele>436.5</ele><time>2026-04-24T12:44:12.981Z</time></trkpt><trkpt lat="42.59422251781558" lon="11.72434718943432"><ele>435.75</ele><time>2026-04-24T12:44:13.981Z</time></trkpt><trkpt lat="42.59414175244478" lon="11.724215357218585"><ele>435.0</ele><time>2026-04-24T12:44:14.981Z</time></trkpt><trkpt lat="42.594092164860776" lon="11.724086797906164"><ele>434.5</ele><time>2026-04-24T12:44:15.981Z</time></trkpt><trkpt lat="42.59405696342949" lon="11.724015310570191"><ele>434.0</ele><time>2026-04-24T12:44:16.981Z</time></trkpt><trkpt lat="42.594014522429475" lon="11.723921558805065"><ele>433.5</ele><time>2026-04-24T12:44:17.981Z</time></trkpt><trkpt lat="42.593984541148885" lon="11.723842977535117"><ele>433.0</ele><time>2026-04-24T12:44:18.981Z</time></trkpt><trkpt lat="42.593936322488325" lon="11.723664208543305"><ele>432.5</ele><time>2026-04-24T12:44:20.981Z</time></trkpt><trkpt lat="42.59392645283297" lon="11.723558321728898"><ele>432.0</ele><time>2026-04-24T12:44:21.981Z</time></trkpt><trkpt lat="42.593937627510144" lon="11.723402083444498"><ele>431.6</ele><time>2026-04-24T12:44:22.981Z</time></trkpt><trkpt lat="42.59398836434882" lon="11.72324878343899"><ele>431.20000000000005</ele><time>2026-04-24T12:44:23.981Z</time></trkpt><trkpt lat="42.594040340411055" lon="11.723130022411905"><ele>430.8</ele><time>2026-04-24T12:44:24.981Z</time></trkpt><trkpt lat="42.594082691178365" lon="11.723007842419138"><ele>430.4</ele><time>2026-04-24T12:44:25.981Z</time></trkpt><trkpt lat="42.5941110059304" lon="11.722892485780923"><ele>430.0</ele><time>2026-04-24T12:44:26.981Z</time></trkpt><trkpt lat="42.594133482235954" lon="11.722783947445174"><ele>429.0</ele><time>2026-04-24T12:44:27.981Z</time></trkpt><trkpt lat="42.59415119356752" lon="11.722686989532125"><ele>428.0</ele><time>2026-04-24T12:44:28.981Z</time></trkpt><trkpt lat="42.59416166146066" lon="11.722585185150635"><ele>427.0</ele><time>2026-04-24T12:44:29.981Z</time></trkpt><trkpt lat="42.59414647565748" lon="11.722457381653403"><ele>426.0</ele><time>2026-04-24T12:44:30.981Z</time></trkpt><trkpt lat="42.59411334037405" lon="11.722314915150722"><ele>425.0</ele><time>2026-04-24T12:44:31.981Z</time></trkpt><trkpt lat="42.59408972644921" lon="11.72214701864339"><ele>425.0</ele><time>2026-04-24T12:44:32.981Z</time></trkpt><trkpt lat="42.59403486245805" lon="11.721987267718076"><ele>425.0</ele><time>2026-04-24T12:44:33.981Z</time></trkpt><trkpt lat="42.59400098371743" lon="11.721842751471671"><ele>425.0</ele><time>2026-04-24T12:44:34.981Z</time></trkpt><trkpt lat="42.593963801795795" lon="11.721694558897447"><ele>425.0</ele><time>2026-04-24T12:44:35.981Z</time></trkpt><trkpt lat="42.59392107442239" lon="11.721558919646226"><ele>425.0</ele><time>2026-04-24T12:44:36.981Z</time></trkpt><trkpt lat="42.59387305841075" lon="11.721398233596727"><ele>425.0</ele><time>2026-04-24T12:44:37.981Z</time></trkpt><trkpt lat="42.5938268118429" lon="11.721236904596301"><ele>425.0</ele><time>2026-04-24T12:44:38.981Z</time></trkpt><trkpt lat="42.59379446324625" lon="11.721074998584786"><ele>425.0</ele><time>2026-04-24T12:44:39.981Z</time></trkpt><trkpt lat="42.593740801399015" lon="11.720929751724428"><ele>424.75</ele><time>2026-04-24T12:44:40.981Z</time></trkpt><trkpt lat="42.59370147573017" lon="11.720780611124418"><ele>424.5</ele><time>2026-04-24T12:44:41.981Z</time></trkpt><trkpt lat="42.593658519844276" lon="11.720623653926603"><ele>424.25</ele><time>2026-04-24T12:44:42.981Z</time></trkpt><trkpt lat="42.59362127327048" lon="11.720486360630929"><ele>424.0</ele><time>2026-04-24T12:44:43.981Z</time></trkpt><trkpt lat="42.5935801767327" lon="11.720339841733207"><ele>424.0</ele><time>2026-04-24T12:44:44.981Z</time></trkpt><trkpt lat="42.593544708832525" lon="11.720196531743834"><ele>424.0</ele><time>2026-04-24T12:44:45.981Z</time></trkpt><trkpt lat="42.59351491640474" lon="11.720064668325188"><ele>424.0</ele><time>2026-04-24T12:44:46.981Z</time></trkpt><trkpt lat="42.593482223849655" lon="11.719932251314216"><ele>424.0</ele><time>2026-04-24T12:44:47.981Z</time></trkpt><trkpt lat="42.5934429221367" lon="11.719808308845076"><ele>424.0</ele><time>2026-04-24T12:44:48.981Z</time></trkpt><trkpt lat="42.593410512196904" lon="11.719678494856172"><ele>424.0</ele><time>2026-04-24T12:44:49.981Z</time></trkpt><trkpt lat="42.59334341418692" lon="11.719556968583937"><ele>424.0</ele><time>2026-04-24T12:44:50.981Z</time></trkpt><trkpt lat="42.593275744326235" lon="11.71941197502829"><ele>424.0</ele><time>2026-04-24T12:44:51.981Z</time></trkpt><trkpt lat="42.59321809689934" lon="11.719260524996063"><ele>424.0</ele><time>2026-04-24T12:44:52.981Z</time></trkpt><trkpt lat="42.59313386171361" lon="11.719110822697715"><ele>423.5</ele><time>2026-04-24T12:44:53.981Z</time></trkpt><trkpt lat="42.593056542563296" lon="11.718989835351547"><ele>423.0</ele><time>2026-04-24T12:44:54.981Z</time></trkpt><trkpt lat="42.59299142812789" lon="11.718870632911328"><ele>422.5</ele><time>2026-04-24T12:44:55.981Z</time></trkpt><trkpt lat="42.592943735322095" lon="11.718712313080106"><ele>422.0</ele><time>2026-04-24T12:44:56.981Z</time></trkpt><trkpt lat="42.59289359095038" lon="11.718552603979795"><ele>420.25</ele><time>2026-04-24T12:44:57.981Z</time></trkpt><trkpt lat="42.592837017913645" lon="11.718411359372796"><ele>418.5</ele><time>2026-04-24T12:44:58.981Z</time></trkpt><trkpt lat="42.59279882113156" lon="11.718236779514449"><ele>416.75</ele><time>2026-04-24T12:44:59.981Z</time></trkpt><trkpt lat="42.59274586877303" lon="11.718043292999825"><ele>415.0</ele><time>2026-04-24T12:45:00.981Z</time></trkpt><trkpt lat="42.592694331747516" lon="11.717858469999232"><ele>414.25</ele><time>2026-04-24T12:45:01.981Z</time></trkpt><trkpt lat="42.59264553197977" lon="11.717674032408087"><ele>413.5</ele><time>2026-04-24T12:45:02.981Z</time></trkpt><trkpt lat="42.592596587476095" lon="11.717503849063682"><ele>412.75</ele><time>2026-04-24T12:45:03.981Z</time></trkpt><trkpt lat="42.592546687582015" lon="11.717325475362285"><ele>412.0</ele><time>2026-04-24T12:45:04.981Z</time></trkpt><trkpt lat="42.592503104177226" lon="11.71718501604862"><ele>412.0</ele><time>2026-04-24T12:45:05.981Z</time></trkpt><trkpt lat="42.592476100452295" lon="11.717024900476686"><ele>412.0</ele><time>2026-04-24T12:45:06.981Z</time></trkpt><trkpt lat="42.59241764583948" lon="11.71687168342816"><ele>412.0</ele><time>2026-04-24T12:45:07.981Z</time></trkpt><trkpt lat="42.59237555744603" lon="11.716671592256402"><ele>412.0</ele><time>2026-04-24T12:45:08.981Z</time></trkpt><trkpt lat="42.5923097925189" lon="11.716499376445734"><ele>411.25</ele><time>2026-04-24T12:45:09.981Z</time></trkpt><trkpt lat="42.59225259787285" lon="11.716319513528466"><ele>410.5</ele><time>2026-04-24T12:45:10.981Z</time></trkpt><trkpt lat="42.592199619427696" lon="11.716143825289658"><ele>409.75</ele><time>2026-04-24T12:45:11.981Z</time></trkpt><trkpt lat="42.59214655357364" lon="11.715968725276529"><ele>409.0</ele><time>2026-04-24T12:45:12.981Z</time></trkpt><trkpt lat="42.59210386758228" lon="11.715875811620629"><ele>407.75</ele><time>2026-04-24T12:45:13.981Z</time></trkpt><trkpt lat="42.592031574187104" lon="11.715703556853569"><ele>406.5</ele><time>2026-04-24T12:45:14.981Z</time></trkpt><trkpt lat="42.59196240237497" lon="11.715534374256455"><ele>405.25</ele><time>2026-04-24T12:45:15.981Z</time></trkpt><trkpt lat="42.59189361997934" lon="11.715367025698125"><ele>404.0</ele><time>2026-04-24T12:45:16.981Z</time></trkpt><trkpt lat="42.59183739691383" lon="11.715189186587736"><ele>403.4</ele><time>2026-04-24T12:45:17.981Z</time></trkpt><trkpt lat="42.59177539746425" lon="11.715024184782955"><ele>402.79999999999995</ele><time>2026-04-24T12:45:18.981Z</time></trkpt><trkpt lat="42.59171360775695" lon="11.7148909410584"><ele>402.20000000000005</ele><time>2026-04-24T12:45:19.981Z</time></trkpt><trkpt lat="42.59166704925941" lon="11.714757188186605"><ele>401.6</ele><time>2026-04-24T12:45:20.981Z</time></trkpt><trkpt lat="42.591622784459595" lon="11.714655236231899"><ele>401.0</ele><time>2026-04-24T12:45:21.981Z</time></trkpt><trkpt lat="42.59160030273697" lon="11.714542429648377"><ele>401.0</ele><time>2026-04-24T12:45:22.981Z</time></trkpt><trkpt lat="42.591542462519136" lon="11.714420384407504"><ele>401.0</ele><time>2026-04-24T12:45:23.981Z</time></trkpt><trkpt lat="42.59151650823149" lon="11.71430730403758"><ele>401.0</ele><time>2026-04-24T12:45:24.981Z</time></trkpt><trkpt lat="42.59147900768642" lon="11.714198596032018"><ele>401.0</ele><time>2026-04-24T12:45:25.981Z</time></trkpt><trkpt lat="42.591453176699" lon="11.714057509628885"><ele>401.0</ele><time>2026-04-24T12:45:26.981Z</time></trkpt><trkpt lat="42.591436901238204" lon="11.713917624820738"><ele>400.20000000000005</ele><time>2026-04-24T12:45:27.981Z</time></trkpt><trkpt lat="42.59141813990356" lon="11.713788248675975"><ele>399.40000000000003</ele><time>2026-04-24T12:45:28.979Z</time></trkpt><trkpt lat="42.59141984599602" lon="11.713646397685492"><ele>398.6</ele><time>2026-04-24T12:45:29.979Z</time></trkpt><trkpt lat="42.591459810470035" lon="11.713512921950146"><ele>397.8</ele><time>2026-04-24T12:45:30.979Z</time></trkpt><trkpt lat="42.59143605969339" lon="11.713393136302226"><ele>397.0</ele><time>2026-04-24T12:45:31.978Z</time></trkpt><trkpt lat="42.59143951578225" lon="11.713283317812374"><ele>396.0</ele><time>2026-04-24T12:45:32.979Z</time></trkpt><trkpt lat="42.59144251136852" lon="11.713173204507031"><ele>395.0</ele><time>2026-04-24T12:45:33.979Z</time></trkpt><trkpt lat="42.59146271424912" lon="11.713079223576313"><ele>394.0</ele><time>2026-04-24T12:45:34.979Z</time></trkpt><trkpt lat="42.59145736876252" lon="11.712963131123384"><ele>393.0</ele><time>2026-04-24T12:45:35.979Z</time></trkpt><trkpt lat="42.59140189948609" lon="11.712753642112048"><ele>392.0</ele><time>2026-04-24T12:45:36.979Z</time></trkpt><trkpt lat="42.5913153366578" lon="11.712638703015504"><ele>390.75</ele><time>2026-04-24T12:45:37.979Z</time></trkpt><trkpt lat="42.59122510177891" lon="11.712558397695634"><ele>389.5</ele><time>2026-04-24T12:45:38.979Z</time></trkpt><trkpt lat="42.591106375848625" lon="11.712481151646166"><ele>388.25</ele><time>2026-04-24T12:45:39.979Z</time></trkpt><trkpt lat="42.59099463809754" lon="11.712414467040768"><ele>387.0</ele><time>2026-04-24T12:45:40.979Z</time></trkpt><trkpt lat="42.590886264272974" lon="11.712355002864022"><ele>386.8</ele><time>2026-04-24T12:45:41.979Z</time></trkpt><trkpt lat="42.59076032785472" lon="11.712294109592376"><ele>386.6</ele><time>2026-04-24T12:45:42.979Z</time></trkpt><trkpt lat="42.590642342426925" lon="11.712245394946908"><ele>386.40000000000003</ele><time>2026-04-24T12:45:43.979Z</time></trkpt><trkpt lat="42.59055419108641" lon="11.712212126702449"><ele>386.20000000000005</ele><time>2026-04-24T12:45:44.979Z</time></trkpt><trkpt lat="42.590483257379766" lon="11.712194466353724"><ele>386.0</ele><time>2026-04-24T12:45:45.979Z</time></trkpt><trkpt lat="42.5903263891979" lon="11.712131585142878"><ele>385.8</ele><time>2026-04-24T12:45:47.979Z</time></trkpt><trkpt lat="42.59023134806203" lon="11.712125333794093"><ele>385.6</ele><time>2026-04-24T12:45:48.979Z</time></trkpt><trkpt lat="42.59013000785191" lon="11.712099859425642"><ele>385.4</ele><time>2026-04-24T12:45:49.979Z</time></trkpt><trkpt lat="42.59000593648757" lon="11.712067647668531"><ele>385.2</ele><time>2026-04-24T12:45:50.979Z</time></trkpt><trkpt lat="42.589912329792476" lon="11.712038986427144"><ele>385.0</ele><time>2026-04-24T12:45:51.979Z</time></trkpt><trkpt lat="42.58981680925295" lon="11.711998043105249"><ele>385.0</ele><time>2026-04-24T12:45:52.979Z</time></trkpt><trkpt lat="42.589699402892194" lon="11.711966074524275"><ele>385.0</ele><time>2026-04-24T12:45:53.979Z</time></trkpt><trkpt lat="42.58958004035265" lon="11.711901728161262"><ele>385.0</ele><time>2026-04-24T12:45:54.979Z</time></trkpt><trkpt lat="42.5894810424003" lon="11.711824051244431"><ele>385.0</ele><time>2026-04-24T12:45:55.979Z</time></trkpt><trkpt lat="42.589406356027645" lon="11.711729687563933"><ele>384.83333333333337</ele><time>2026-04-24T12:45:56.979Z</time></trkpt><trkpt lat="42.58933588000052" lon="11.711666680594783"><ele>384.6666666666667</ele><time>2026-04-24T12:45:57.979Z</time></trkpt><trkpt lat="42.58928677120575" lon="11.711593216932714"><ele>384.5</ele><time>2026-04-24T12:45:58.979Z</time></trkpt><trkpt lat="42.58924932055998" lon="11.711480802970652"><ele>384.33333333333337</ele><time>2026-04-24T12:45:59.979Z</time></trkpt><trkpt lat="42.589203191090775" lon="11.711361554280625"><ele>384.1666666666667</ele><time>2026-04-24T12:46:00.979Z</time></trkpt><trkpt lat="42.58915679079827" lon="11.711247813751275"><ele>384.0</ele><time>2026-04-24T12:46:01.979Z</time></trkpt><trkpt lat="42.58909284233841" lon="11.711142193887317"><ele>383.0</ele><time>2026-04-24T12:46:02.979Z</time></trkpt><trkpt lat="42.58904988597048" lon="11.711030619346158"><ele>382.0</ele><time>2026-04-24T12:46:03.979Z</time></trkpt><trkpt lat="42.58900939984938" lon="11.710936854748335"><ele>381.0</ele><time>2026-04-24T12:46:04.979Z</time></trkpt><trkpt lat="42.58898109176978" lon="11.710856756505898"><ele>380.0</ele><time>2026-04-24T12:46:05.979Z</time></trkpt><trkpt lat="42.58894329904155" lon="11.710770132543292"><ele>379.0</ele><time>2026-04-24T12:46:06.979Z</time></trkpt><trkpt lat="42.588889237635925" lon="11.710646228757458"><ele>378.0</ele><time>2026-04-24T12:46:07.979Z</time></trkpt><trkpt lat="42.58883665233764" lon="11.710524582828636"><ele>378.0</ele><time>2026-04-24T12:46:08.979Z</time></trkpt><trkpt lat="42.58876991466706" lon="11.710386209823522"><ele>378.0</ele><time>2026-04-24T12:46:09.979Z</time></trkpt><trkpt lat="42.58871253382547" lon="11.71025965947661"><ele>378.0</ele><time>2026-04-24T12:46:10.979Z</time></trkpt><trkpt lat="42.588656867642236" lon="11.710142095762743"><ele>378.0</ele><time>2026-04-24T12:46:11.979Z</time></trkpt><trkpt lat="42.58860757858802" lon="11.710024322152941"><ele>378.0</ele><time>2026-04-24T12:46:12.979Z</time></trkpt><trkpt lat="42.58855572310225" lon="11.709924441487576"><ele>377.2</ele><time>2026-04-24T12:46:13.979Z</time></trkpt><trkpt lat="42.588508065481996" lon="11.709826700707165"><ele>376.4</ele><time>2026-04-24T12:46:14.979Z</time></trkpt><trkpt lat="42.58845176263515" lon="11.709714722459088"><ele>375.59999999999997</ele><time>2026-04-24T12:46:15.979Z</time></trkpt><trkpt lat="42.58839502640965" lon="11.709594202222458"><ele>374.79999999999995</ele><time>2026-04-24T12:46:16.979Z</time></trkpt><trkpt lat="42.588334298133866" lon="11.709476402956136"><ele>374.0</ele><time>2026-04-24T12:46:17.979Z</time></trkpt><trkpt lat="42.58827861617207" lon="11.709347101900415"><ele>373.2</ele><time>2026-04-24T12:46:18.979Z</time></trkpt><trkpt lat="42.58822174162406" lon="11.709232364634572"><ele>372.4</ele><time>2026-04-24T12:46:19.979Z</time></trkpt><trkpt lat="42.588166038020695" lon="11.709115405182771"><ele>371.6</ele><time>2026-04-24T12:46:20.979Z</time></trkpt><trkpt lat="42.58810711048985" lon="11.70899032968895"><ele>370.8</ele><time>2026-04-24T12:46:21.979Z</time></trkpt><trkpt lat="42.588042624095834" lon="11.708864151098428"><ele>370.0</ele><time>2026-04-24T12:46:22.979Z</time></trkpt><trkpt lat="42.58797918777828" lon="11.708748540042109"><ele>370.0</ele><time>2026-04-24T12:46:23.979Z</time></trkpt><trkpt lat="42.58791672340019" lon="11.708638295699965"><ele>370.0</ele><time>2026-04-24T12:46:24.979Z</time></trkpt><trkpt lat="42.587874895750794" lon="11.708537845558203"><ele>370.0</ele><time>2026-04-24T12:46:25.979Z</time></trkpt><trkpt lat="42.58778289004208" lon="11.708410669135818"><ele>370.0</ele><time>2026-04-24T12:46:27.979Z</time></trkpt><trkpt lat="42.58766967254188" lon="11.708321560906874"><ele>370.0</ele><time>2026-04-24T12:46:28.979Z</time></trkpt><trkpt lat="42.58755307134083" lon="11.708302211134328"><ele>368.8</ele><time>2026-04-24T12:46:29.979Z</time></trkpt><trkpt lat="42.58744164974885" lon="11.708272528804255"><ele>367.6</ele><time>2026-04-24T12:46:30.979Z</time></trkpt><trkpt lat="42.587366787854364" lon="11.708239003470641"><ele>366.4</ele><time>2026-04-24T12:46:31.979Z</time></trkpt><trkpt lat="42.58728176292164" lon="11.708189102118704"><ele>365.2</ele><time>2026-04-24T12:46:32.979Z</time></trkpt><trkpt lat="42.58718972539448" lon="11.708138453413335"><ele>364.0</ele><time>2026-04-24T12:46:33.979Z</time></trkpt><trkpt lat="42.587109337528496" lon="11.708089770913002"><ele>364.0</ele><time>2026-04-24T12:46:34.979Z</time></trkpt><trkpt lat="42.58703016860188" lon="11.708037283379358"><ele>364.0</ele><time>2026-04-24T12:46:35.979Z</time></trkpt><trkpt lat="42.58695035533329" lon="11.707977304255722"><ele>364.0</ele><time>2026-04-24T12:46:36.979Z</time></trkpt><trkpt lat="42.58686376397122" lon="11.707897984041423"><ele>364.0</ele><time>2026-04-24T12:46:37.979Z</time></trkpt><trkpt lat="42.58678452601403" lon="11.707801807048044"><ele>364.0</ele><time>2026-04-24T12:46:38.979Z</time></trkpt><trkpt lat="42.58669523206632" lon="11.707696716130833"><ele>362.4</ele><time>2026-04-24T12:46:39.979Z</time></trkpt><trkpt lat="42.586625167727036" lon="11.707579806809319"><ele>360.79999999999995</ele><time>2026-04-24T12:46:40.979Z</time></trkpt><trkpt lat="42.58655465697663" lon="11.70747082301874"><ele>359.20000000000005</ele><time>2026-04-24T12:46:41.979Z</time></trkpt><trkpt lat="42.58648629748867" lon="11.707364373413608"><ele>357.6</ele><time>2026-04-24T12:46:42.979Z</time></trkpt><trkpt lat="42.58642368508489" lon="11.707278884666227"><ele>356.0</ele><time>2026-04-24T12:46:43.979Z</time></trkpt><trkpt lat="42.586364356289444" lon="11.707224086650031"><ele>356.0</ele><time>2026-04-24T12:46:44.979Z</time></trkpt><trkpt lat="42.58629643850338" lon="11.707183411100816"><ele>356.0</ele><time>2026-04-24T12:46:45.979Z</time></trkpt><trkpt lat="42.58622975301702" lon="11.707119523601206"><ele>356.0</ele><time>2026-04-24T12:46:46.979Z</time></trkpt><trkpt lat="42.58615760287925" lon="11.707061255729684"><ele>356.0</ele><time>2026-04-24T12:46:47.979Z</time></trkpt><trkpt lat="42.58605535058158" lon="11.706992635623324"><ele>356.0</ele><time>2026-04-24T12:46:48.979Z</time></trkpt><trkpt lat="42.58592001616606" lon="11.706926314825225"><ele>355.6</ele><time>2026-04-24T12:46:49.979Z</time></trkpt><trkpt lat="42.585815363891584" lon="11.70689461464422"><ele>355.20000000000005</ele><time>2026-04-24T12:46:50.979Z</time></trkpt><trkpt lat="42.58570788820446" lon="11.706871303377865"><ele>354.79999999999995</ele><time>2026-04-24T12:46:51.979Z</time></trkpt><trkpt lat="42.58561094858202" lon="11.70685466398521"><ele>354.4</ele><time>2026-04-24T12:46:52.979Z</time></trkpt><trkpt lat="42.585513068247906" lon="11.706839946362411"><ele>354.0</ele><time>2026-04-24T12:46:53.979Z</time></trkpt><trkpt lat="42.58543353567482" lon="11.706813591267396"><ele>354.5</ele><time>2026-04-24T12:46:54.979Z</time></trkpt><trkpt lat="42.58531355531152" lon="11.706720006578452"><ele>355.0</ele><time>2026-04-24T12:46:55.979Z</time></trkpt><trkpt lat="42.585202495900276" lon="11.706628476563983"><ele>355.5</ele><time>2026-04-24T12:46:56.979Z</time></trkpt><trkpt lat="42.58510315533331" lon="11.70656348040771"><ele>356.0</ele><time>2026-04-24T12:46:57.979Z</time></trkpt><trkpt lat="42.58503516689939" lon="11.706468170058852"><ele>356.0</ele><time>2026-04-24T12:46:58.979Z</time></trkpt><trkpt lat="42.58496323157082" lon="11.70638573734949"><ele>356.0</ele><time>2026-04-24T12:46:59.979Z</time></trkpt><trkpt lat="42.5849200823383" lon="11.706315378375542"><ele>356.0</ele><time>2026-04-24T12:47:00.979Z</time></trkpt><trkpt lat="42.58485594787275" lon="11.706188716094145"><ele>356.0</ele><time>2026-04-24T12:47:02.979Z</time></trkpt><trkpt lat="42.5848032908043" lon="11.706034959374222"><ele>356.0</ele><time>2026-04-24T12:47:04.979Z</time></trkpt><trkpt lat="42.584783147846316" lon="11.705906531575119"><ele>355.4</ele><time>2026-04-24T12:47:05.979Z</time></trkpt><trkpt lat="42.5847372667652" lon="11.705743182257683"><ele>354.8</ele><time>2026-04-24T12:47:06.979Z</time></trkpt><trkpt lat="42.58470335423248" lon="11.705618757798073"><ele>354.2</ele><time>2026-04-24T12:47:07.979Z</time></trkpt><trkpt lat="42.5846975279873" lon="11.705500774920493"><ele>353.59999999999997</ele><time>2026-04-24T12:47:08.979Z</time></trkpt><trkpt lat="42.58468174002329" lon="11.70537352791915"><ele>353.0</ele><time>2026-04-24T12:47:09.979Z</time></trkpt><trkpt lat="42.58467110900702" lon="11.705267235029767"><ele>352.59999999999997</ele><time>2026-04-24T12:47:10.979Z</time></trkpt><trkpt lat="42.58466087742061" lon="11.705129360204133"><ele>352.2</ele><time>2026-04-24T12:47:11.979Z</time></trkpt><trkpt lat="42.58464049227834" lon="11.705032477202442"><ele>351.8</ele><time>2026-04-24T12:47:12.979Z</time></trkpt><trkpt lat="42.58465017077305" lon="11.704839167093704"><ele>351.4</ele><time>2026-04-24T12:47:14.979Z</time></trkpt><trkpt lat="42.58464283695125" lon="11.704708554578904"><ele>351.0</ele><time>2026-04-24T12:47:15.979Z</time></trkpt><trkpt lat="42.5846636941681" lon="11.70459314808474"><ele>351.0</ele><time>2026-04-24T12:47:16.979Z</time></trkpt><trkpt lat="42.584676574614434" lon="11.704463079158424"><ele>351.0</ele><time>2026-04-24T12:47:17.979Z</time></trkpt><trkpt lat="42.58469789040224" lon="11.704287545183377"><ele>351.0</ele><time>2026-04-24T12:47:18.979Z</time></trkpt><trkpt lat="42.58470540594164" lon="11.704139052501834"><ele>351.0</ele><time>2026-04-24T12:47:19.979Z</time></trkpt><trkpt lat="42.58472504677999" lon="11.70398268962818"><ele>350.6</ele><time>2026-04-24T12:47:20.979Z</time></trkpt><trkpt lat="42.58472954133906" lon="11.703845818125547"><ele>350.20000000000005</ele><time>2026-04-24T12:47:21.979Z</time></trkpt><trkpt lat="42.58473134471079" lon="11.703728625013857"><ele>349.79999999999995</ele><time>2026-04-24T12:47:22.979Z</time></trkpt><trkpt lat="42.5847488286961" lon="11.703589102324242"><ele>349.4</ele><time>2026-04-24T12:47:23.979Z</time></trkpt><trkpt lat="42.58473944270632" lon="11.703421674325002"><ele>349.0</ele><time>2026-04-24T12:47:24.979Z</time></trkpt><trkpt lat="42.58474650648169" lon="11.70327160341775"><ele>348.4</ele><time>2026-04-24T12:47:25.979Z</time></trkpt><trkpt lat="42.58474782329715" lon="11.703141056337438"><ele>347.79999999999995</ele><time>2026-04-24T12:47:26.979Z</time></trkpt><trkpt lat="42.58475285936225" lon="11.703023359533754"><ele>347.20000000000005</ele><time>2026-04-24T12:47:27.979Z</time></trkpt><trkpt lat="42.584748331632994" lon="11.702902138131536"><ele>346.6</ele><time>2026-04-24T12:47:28.979Z</time></trkpt><trkpt lat="42.58474837449714" lon="11.7027916145845"><ele>346.0</ele><time>2026-04-24T12:47:29.979Z</time></trkpt><trkpt lat="42.58472007185009" lon="11.702654947382726"><ele>345.25</ele><time>2026-04-24T12:47:30.979Z</time></trkpt><trkpt lat="42.58469921797402" lon="11.702493032115965"><ele>344.5</ele><time>2026-04-24T12:47:31.979Z</time></trkpt><trkpt lat="42.584663726200816" lon="11.702319886640945"><ele>343.75</ele><time>2026-04-24T12:47:32.979Z</time></trkpt><trkpt lat="42.5846315047386" lon="11.70217200550334"><ele>343.0</ele><time>2026-04-24T12:47:33.979Z</time></trkpt><trkpt lat="42.584596408869146" lon="11.702027041470435"><ele>342.59999999999997</ele><time>2026-04-24T12:47:34.978Z</time></trkpt><trkpt lat="42.58455453584788" lon="11.701871463509944"><ele>342.2</ele><time>2026-04-24T12:47:35.977Z</time></trkpt><trkpt lat="42.584523140248166" lon="11.701737493085748"><ele>341.8</ele><time>2026-04-24T12:47:36.977Z</time></trkpt><trkpt lat="42.58448188584671" lon="11.701625425585027"><ele>341.4</ele><time>2026-04-24T12:47:37.977Z</time></trkpt><trkpt lat="42.58444394940443" lon="11.701526021082454"><ele>341.0</ele><time>2026-04-24T12:47:38.977Z</time></trkpt><trkpt lat="42.584396014567155" lon="11.701401857817238"><ele>341.0</ele><time>2026-04-24T12:47:39.977Z</time></trkpt><trkpt lat="42.58433956917871" lon="11.701273381841341"><ele>341.0</ele><time>2026-04-24T12:47:40.977Z</time></trkpt><trkpt lat="42.58426522938863" lon="11.701131195860098"><ele>341.0</ele><time>2026-04-24T12:47:41.978Z</time></trkpt><trkpt lat="42.58420164992636" lon="11.701003630526275"><ele>341.0</ele><time>2026-04-24T12:47:42.978Z</time></trkpt><trkpt lat="42.58413484764736" lon="11.700897798237262"><ele>340.25</ele><time>2026-04-24T12:47:43.977Z</time></trkpt><trkpt lat="42.58405709344746" lon="11.70077755094678"><ele>339.5</ele><time>2026-04-24T12:47:44.977Z</time></trkpt><trkpt lat="42.58398876782147" lon="11.700645723781644"><ele>338.75</ele><time>2026-04-24T12:47:45.977Z</time></trkpt><trkpt lat="42.583914125526135" lon="11.700530845064192"><ele>338.0</ele><time>2026-04-24T12:47:46.977Z</time></trkpt><trkpt lat="42.583821507632074" lon="11.700413575752771"><ele>338.0</ele><time>2026-04-24T12:47:47.977Z</time></trkpt><trkpt lat="42.583736605843235" lon="11.700287622930169"><ele>338.0</ele><time>2026-04-24T12:47:48.977Z</time></trkpt><trkpt lat="42.58364618012083" lon="11.700167255307123"><ele>338.0</ele><time>2026-04-24T12:47:49.977Z</time></trkpt><trkpt lat="42.58356641335486" lon="11.700054665371269"><ele>338.0</ele><time>2026-04-24T12:47:50.977Z</time></trkpt><trkpt lat="42.58349531688641" lon="11.699953336230914"><ele>337.4</ele><time>2026-04-24T12:47:51.977Z</time></trkpt><trkpt lat="42.583442924064556" lon="11.69984234136422"><ele>336.79999999999995</ele><time>2026-04-24T12:47:52.977Z</time></trkpt><trkpt lat="42.58338531149021" lon="11.69973985766879"><ele>336.2</ele><time>2026-04-24T12:47:53.977Z</time></trkpt><trkpt lat="42.583318688097904" lon="11.699616781778847"><ele>335.6</ele><time>2026-04-24T12:47:54.977Z</time></trkpt><trkpt lat="42.58325418351555" lon="11.699495392421795"><ele>335.0</ele><time>2026-04-24T12:47:55.977Z</time></trkpt><trkpt lat="42.583185713905706" lon="11.699388645906586"><ele>333.8</ele><time>2026-04-24T12:47:56.977Z</time></trkpt><trkpt lat="42.5831248009911" lon="11.699278340496708"><ele>332.6</ele><time>2026-04-24T12:47:57.977Z</time></trkpt><trkpt lat="42.58306682739655" lon="11.699180164370992"><ele>331.4</ele><time>2026-04-24T12:47:58.977Z</time></trkpt><trkpt lat="42.58301440276248" lon="11.699083003763091"><ele>330.2</ele><time>2026-04-24T12:47:59.977Z</time></trkpt><trkpt lat="42.58295551841912" lon="11.699012882762723"><ele>329.0</ele><time>2026-04-24T12:48:00.977Z</time></trkpt><trkpt lat="42.582831034524105" lon="11.698936540952898"><ele>329.0</ele><time>2026-04-24T12:48:02.977Z</time></trkpt><trkpt lat="42.58273652260335" lon="11.69892505681878"><ele>329.0</ele><time>2026-04-24T12:48:03.977Z</time></trkpt><trkpt lat="42.5826343870961" lon="11.698911805803888"><ele>329.0</ele><time>2026-04-24T12:48:04.977Z</time></trkpt><trkpt lat="42.582476050206004" lon="11.698909506067599"><ele>329.0</ele><time>2026-04-24T12:48:05.977Z</time></trkpt><trkpt lat="42.582367933122036" lon="11.69892192978648"><ele>329.0</ele><time>2026-04-24T12:48:06.977Z</time></trkpt><trkpt lat="42.582261246289484" lon="11.698905501667989"><ele>329.0</ele><time>2026-04-24T12:48:07.977Z</time></trkpt><trkpt lat="42.58215779367987" lon="11.698903435317465"><ele>329.0</ele><time>2026-04-24T12:48:08.977Z</time></trkpt><trkpt lat="42.58205552959469" lon="11.698897586129688"><ele>329.0</ele><time>2026-04-24T12:48:09.977Z</time></trkpt><trkpt lat="42.58197363418432" lon="11.698885247591019"><ele>329.0</ele><time>2026-04-24T12:48:10.977Z</time></trkpt><trkpt lat="42.581881908758675" lon="11.698862180937402"><ele>329.25</ele><time>2026-04-24T12:48:11.977Z</time></trkpt><trkpt lat="42.58177252505514" lon="11.698811728250186"><ele>329.5</ele><time>2026-04-24T12:48:12.977Z</time></trkpt><trkpt lat="42.58165369854664" lon="11.698765256938156"><ele>329.75</ele><time>2026-04-24T12:48:13.977Z</time></trkpt><trkpt lat="42.58153873546708" lon="11.698658913550688"><ele>330.0</ele><time>2026-04-24T12:48:14.977Z</time></trkpt><trkpt lat="42.5814385819312" lon="11.698605202181144"><ele>330.4</ele><time>2026-04-24T12:48:15.977Z</time></trkpt><trkpt lat="42.58134326207434" lon="11.698529681099396"><ele>330.8</ele><time>2026-04-24T12:48:16.977Z</time></trkpt><trkpt lat="42.58125533054544" lon="11.698461005027529"><ele>331.20000000000005</ele><time>2026-04-24T12:48:17.977Z</time></trkpt><trkpt lat="42.58114846326476" lon="11.69839953991244"><ele>331.6</ele><time>2026-04-24T12:48:18.977Z</time></trkpt><trkpt lat="42.58103607832314" lon="11.698354722020264"><ele>332.0</ele><time>2026-04-24T12:48:19.977Z</time></trkpt><trkpt lat="42.58090163180837" lon="11.698301651404515"><ele>332.0</ele><time>2026-04-24T12:48:20.977Z</time></trkpt><trkpt lat="42.580752207732175" lon="11.698261569787766"><ele>332.0</ele><time>2026-04-24T12:48:21.977Z</time></trkpt><trkpt lat="42.580645162465764" lon="11.698225978648805"><ele>332.0</ele><time>2026-04-24T12:48:22.977Z</time></trkpt><trkpt lat="42.58054062104432" lon="11.698190900603995"><ele>332.0</ele><time>2026-04-24T12:48:23.977Z</time></trkpt><trkpt lat="42.58046940539666" lon="11.698138621097021"><ele>332.0</ele><time>2026-04-24T12:48:24.977Z</time></trkpt><trkpt lat="42.58039824865241" lon="11.698102851497518"><ele>332.0</ele><time>2026-04-24T12:48:25.977Z</time></trkpt><trkpt lat="42.580320568472644" lon="11.698053773625189"><ele>332.0</ele><time>2026-04-24T12:48:26.977Z</time></trkpt><trkpt lat="42.58024428004104" lon="11.697983715243156"><ele>332.0</ele><time>2026-04-24T12:48:27.977Z</time></trkpt><trkpt lat="42.580158978340926" lon="11.697891237059354"><ele>332.0</ele><time>2026-04-24T12:48:28.977Z</time></trkpt><trkpt lat="42.58008503004014" lon="11.697798335105588"><ele>332.0</ele><time>2026-04-24T12:48:29.977Z</time></trkpt><trkpt lat="42.58002634994007" lon="11.697705680764738"><ele>332.0</ele><time>2026-04-24T12:48:30.977Z</time></trkpt><trkpt lat="42.57997295884762" lon="11.69759553104077"><ele>332.0</ele><time>2026-04-24T12:48:31.977Z</time></trkpt><trkpt lat="42.57995214483288" lon="11.6974528836611"><ele>332.0</ele><time>2026-04-24T12:48:32.977Z</time></trkpt><trkpt lat="42.579955932637745" lon="11.697306767719688"><ele>332.0</ele><time>2026-04-24T12:48:33.977Z</time></trkpt><trkpt lat="42.57995815311469" lon="11.697161957444786"><ele>332.0</ele><time>2026-04-24T12:48:34.977Z</time></trkpt><trkpt lat="42.57995415741411" lon="11.697012099419714"><ele>332.0</ele><time>2026-04-24T12:48:35.977Z</time></trkpt><trkpt lat="42.57992761192364" lon="11.69684406713958"><ele>332.0</ele><time>2026-04-24T12:48:36.977Z</time></trkpt><trkpt lat="42.57990773786076" lon="11.69669199158973"><ele>332.0</ele><time>2026-04-24T12:48:37.977Z</time></trkpt><trkpt lat="42.579902893411635" lon="11.696549081956938"><ele>331.75</ele><time>2026-04-24T12:48:38.977Z</time></trkpt><trkpt lat="42.5798725578055" lon="11.696409311029056"><ele>331.5</ele><time>2026-04-24T12:48:39.977Z</time></trkpt><trkpt lat="42.579850700213235" lon="11.696181278452197"><ele>331.25</ele><time>2026-04-24T12:48:40.977Z</time></trkpt><trkpt lat="42.57985725483524" lon="11.696026807234464"><ele>331.0</ele><time>2026-04-24T12:48:41.977Z</time></trkpt><trkpt lat="42.579848761681454" lon="11.69588464441456"><ele>330.6</ele><time>2026-04-24T12:48:42.977Z</time></trkpt><trkpt lat="42.57982830811066" lon="11.695748912250028"><ele>330.20000000000005</ele><time>2026-04-24T12:48:43.977Z</time></trkpt><trkpt lat="42.579785101549746" lon="11.695612712978535"><ele>329.79999999999995</ele><time>2026-04-24T12:48:44.977Z</time></trkpt><trkpt lat="42.57973970428958" lon="11.695473861083734"><ele>329.4</ele><time>2026-04-24T12:48:45.977Z</time></trkpt><trkpt lat="42.57969315047947" lon="11.695355336408827"><ele>329.0</ele><time>2026-04-24T12:48:46.977Z</time></trkpt><trkpt lat="42.57965742036544" lon="11.695235055702057"><ele>328.79999999999995</ele><time>2026-04-24T12:48:47.977Z</time></trkpt><trkpt lat="42.579622015685516" lon="11.695130897236956"><ele>328.59999999999997</ele><time>2026-04-24T12:48:48.977Z</time></trkpt><trkpt lat="42.57958120292642" lon="11.695019566868893"><ele>328.4</ele><time>2026-04-24T12:48:49.977Z</time></trkpt><trkpt lat="42.57958428935464" lon="11.694883720142228"><ele>328.2</ele><time>2026-04-24T12:48:50.977Z</time></trkpt><trkpt lat="42.5795572526648" lon="11.694728811887261"><ele>328.0</ele><time>2026-04-24T12:48:51.977Z</time></trkpt><trkpt lat="42.5795302589337" lon="11.694567971346537"><ele>327.75</ele><time>2026-04-24T12:48:52.977Z</time></trkpt><trkpt lat="42.57949598744877" lon="11.694433233284796"><ele>327.5</ele><time>2026-04-24T12:48:53.977Z</time></trkpt><trkpt lat="42.57947362065192" lon="11.694267249123328"><ele>327.25</ele><time>2026-04-24T12:48:54.977Z</time></trkpt><trkpt lat="42.57944050847706" lon="11.694086616875722"><ele>327.0</ele><time>2026-04-24T12:48:55.977Z</time></trkpt><trkpt lat="42.579409729853886" lon="11.693906834150509"><ele>327.5</ele><time>2026-04-24T12:48:56.977Z</time></trkpt><trkpt lat="42.57939588522269" lon="11.69371300691453"><ele>328.0</ele><time>2026-04-24T12:48:57.977Z</time></trkpt><trkpt lat="42.57937440619806" lon="11.693552515526891"><ele>328.5</ele><time>2026-04-24T12:48:58.977Z</time></trkpt><trkpt lat="42.57935411818922" lon="11.693391217045443"><ele>329.0</ele><time>2026-04-24T12:48:59.977Z</time></trkpt><trkpt lat="42.57931758955839" lon="11.693233479376898"><ele>329.0</ele><time>2026-04-24T12:49:00.977Z</time></trkpt><trkpt lat="42.57930725589349" lon="11.693082078566745"><ele>329.0</ele><time>2026-04-24T12:49:01.977Z</time></trkpt><trkpt lat="42.57927381748104" lon="11.692898779619867"><ele>329.0</ele><time>2026-04-24T12:49:02.977Z</time></trkpt><trkpt lat="42.57924376143715" lon="11.69272909121669"><ele>329.0</ele><time>2026-04-24T12:49:03.977Z</time></trkpt><trkpt lat="42.57921122864876" lon="11.692564138789688"><ele>328.79999999999995</ele><time>2026-04-24T12:49:04.977Z</time></trkpt><trkpt lat="42.579183491442016" lon="11.692418508376301"><ele>328.59999999999997</ele><time>2026-04-24T12:49:05.977Z</time></trkpt><trkpt lat="42.57917166678683" lon="11.692265547634928"><ele>328.4</ele><time>2026-04-24T12:49:06.977Z</time></trkpt><trkpt lat="42.579149355566614" lon="11.692118398732394"><ele>328.2</ele><time>2026-04-24T12:49:07.977Z</time></trkpt><trkpt lat="42.57913297647908" lon="11.692003469203149"><ele>328.0</ele><time>2026-04-24T12:49:08.977Z</time></trkpt><trkpt lat="42.579096745067744" lon="11.691895099887134"><ele>327.59999999999997</ele><time>2026-04-24T12:49:09.977Z</time></trkpt><trkpt lat="42.579073927709004" lon="11.691758019366864"><ele>327.2</ele><time>2026-04-24T12:49:10.977Z</time></trkpt><trkpt lat="42.579024750398425" lon="11.691630863183489"><ele>326.8</ele><time>2026-04-24T12:49:11.977Z</time></trkpt><trkpt lat="42.578968346638284" lon="11.691518481641642"><ele>326.4</ele><time>2026-04-24T12:49:12.977Z</time></trkpt><trkpt lat="42.57892543986358" lon="11.69140740455886"><ele>326.0</ele><time>2026-04-24T12:49:13.977Z</time></trkpt><trkpt lat="42.57887254215273" lon="11.691319987285045"><ele>326.0</ele><time>2026-04-24T12:49:14.978Z</time></trkpt><trkpt lat="42.57880890675686" lon="11.691236221824802"><ele>326.0</ele><time>2026-04-24T12:49:15.978Z</time></trkpt><trkpt lat="42.57871727519021" lon="11.691148316672821"><ele>326.0</ele><time>2026-04-24T12:49:16.978Z</time></trkpt><trkpt lat="42.57858205851357" lon="11.691058826357366"><ele>326.0</ele><time>2026-04-24T12:49:17.978Z</time></trkpt><trkpt lat="42.57841693706709" lon="11.690979530738796"><ele>325.33333333333337</ele><time>2026-04-24T12:49:18.978Z</time></trkpt><trkpt lat="42.57826229119767" lon="11.690912960318142"><ele>324.6666666666667</ele><time>2026-04-24T12:49:19.978Z</time></trkpt><trkpt lat="42.57811760823617" lon="11.69081705389965"><ele>324.0</ele><time>2026-04-24T12:49:20.978Z</time></trkpt><trkpt lat="42.5779779103464" lon="11.690740839015485"><ele>324.5</ele><time>2026-04-24T12:49:21.978Z</time></trkpt><trkpt lat="42.57784323026903" lon="11.690667413806354"><ele>325.0</ele><time>2026-04-24T12:49:22.978Z</time></trkpt><trkpt lat="42.57770347286728" lon="11.690591227961795"><ele>325.5</ele><time>2026-04-24T12:49:23.978Z</time></trkpt><trkpt lat="42.57756921559726" lon="11.69051805541041"><ele>326.0</ele><time>2026-04-24T12:49:24.978Z</time></trkpt><trkpt lat="42.57744994039809" lon="11.690454601514794"><ele>326.0</ele><time>2026-04-24T12:49:25.978Z</time></trkpt><trkpt lat="42.57731777156049" lon="11.690398340817426"><ele>326.0</ele><time>2026-04-24T12:49:26.978Z</time></trkpt><trkpt lat="42.57720247448239" lon="11.69033574068715"><ele>326.0</ele><time>2026-04-24T12:49:27.978Z</time></trkpt><trkpt lat="42.57707327762217" lon="11.690275737592554"><ele>326.0</ele><time>2026-04-24T12:49:28.978Z</time></trkpt><trkpt lat="42.57694087732674" lon="11.690213515430655"><ele>326.5</ele><time>2026-04-24T12:49:29.978Z</time></trkpt><trkpt lat="42.57679608518146" lon="11.690146782940005"><ele>327.0</ele><time>2026-04-24T12:49:30.978Z</time></trkpt><trkpt lat="42.57667543551759" lon="11.690070278988651"><ele>327.5</ele><time>2026-04-24T12:49:31.978Z</time></trkpt><trkpt lat="42.57651695445998" lon="11.690017609949424"><ele>328.0</ele><time>2026-04-24T12:49:32.978Z</time></trkpt><trkpt lat="42.576405506871424" lon="11.689964192937731"><ele>328.0</ele><time>2026-04-24T12:49:33.978Z</time></trkpt><trkpt lat="42.576286502482475" lon="11.689921181727277"><ele>328.0</ele><time>2026-04-24T12:49:34.978Z</time></trkpt><trkpt lat="42.576171760149954" lon="11.68988362132027"><ele>328.0</ele><time>2026-04-24T12:49:35.978Z</time></trkpt><trkpt lat="42.57605139880336" lon="11.68980739686804"><ele>328.0</ele><time>2026-04-24T12:49:36.978Z</time></trkpt><trkpt lat="42.57594361202947" lon="11.689744829031666"><ele>327.79999999999995</ele><time>2026-04-24T12:49:37.978Z</time></trkpt><trkpt lat="42.575829568613266" lon="11.689675327721874"><ele>327.6</ele><time>2026-04-24T12:49:38.978Z</time></trkpt><trkpt lat="42.57571884182143" lon="11.689628323952263"><ele>327.4</ele><time>2026-04-24T12:49:39.978Z</time></trkpt><trkpt lat="42.57564198902724" lon="11.689550587625213"><ele>327.20000000000005</ele><time>2026-04-24T12:49:40.976Z</time></trkpt><trkpt lat="42.575565137833856" lon="11.689484582860368"><ele>327.0</ele><time>2026-04-24T12:49:41.976Z</time></trkpt><trkpt lat="42.575506547841464" lon="11.689430972817888"><ele>327.0</ele><time>2026-04-24T12:49:42.976Z</time></trkpt><trkpt lat="42.57543294023128" lon="11.689357897253245"><ele>327.0</ele><time>2026-04-24T12:49:43.977Z</time></trkpt><trkpt lat="42.575358860484954" lon="11.689281022542296"><ele>327.0</ele><time>2026-04-24T12:49:44.976Z</time></trkpt><trkpt lat="42.57526163456073" lon="11.689201354639412"><ele>327.0</ele><time>2026-04-24T12:49:45.976Z</time></trkpt><trkpt lat="42.57517623641782" lon="11.689075195963749"><ele>327.0</ele><time>2026-04-24T12:49:46.976Z</time></trkpt><trkpt lat="42.57507509577671" lon="11.68895403794956"><ele>327.0</ele><time>2026-04-24T12:49:47.976Z</time></trkpt><trkpt lat="42.57497951935764" lon="11.688834669437531"><ele>327.0</ele><time>2026-04-24T12:49:48.976Z</time></trkpt><trkpt lat="42.57488204659518" lon="11.688711096114028"><ele>327.0</ele><time>2026-04-24T12:49:49.976Z</time></trkpt><trkpt lat="42.574793539135044" lon="11.688596932531132"><ele>327.0</ele><time>2026-04-24T12:49:50.976Z</time></trkpt><trkpt lat="42.57472168157379" lon="11.688504245252577"><ele>327.0</ele><time>2026-04-24T12:49:51.976Z</time></trkpt><trkpt lat="42.57460580360557" lon="11.688370532127687"><ele>327.0</ele><time>2026-04-24T12:49:53.975Z</time></trkpt><trkpt lat="42.574513460924734" lon="11.688258394594262"><ele>327.0</ele><time>2026-04-24T12:49:54.975Z</time></trkpt><trkpt lat="42.57444284589112" lon="11.688139093005567"><ele>327.0</ele><time>2026-04-24T12:49:55.976Z</time></trkpt><trkpt lat="42.5743611307712" lon="11.688027084338039"><ele>326.75</ele><time>2026-04-24T12:49:56.976Z</time></trkpt><trkpt lat="42.574267454145" lon="11.687931201118126"><ele>326.5</ele><time>2026-04-24T12:49:57.976Z</time></trkpt><trkpt lat="42.57417246538973" lon="11.687801912107847"><ele>326.25</ele><time>2026-04-24T12:49:58.976Z</time></trkpt><trkpt lat="42.57407887280754" lon="11.68768099858524"><ele>326.0</ele><time>2026-04-24T12:49:59.976Z</time></trkpt><trkpt lat="42.573981769688146" lon="11.687606796205957"><ele>325.75</ele><time>2026-04-24T12:50:00.976Z</time></trkpt><trkpt lat="42.57385689970424" lon="11.687508263377635"><ele>325.5</ele><time>2026-04-24T12:50:01.976Z</time></trkpt><trkpt lat="42.57372794923143" lon="11.68740403021241"><ele>325.25</ele><time>2026-04-24T12:50:02.976Z</time></trkpt><trkpt lat="42.57362757069566" lon="11.68729760492475"><ele>325.0</ele><time>2026-04-24T12:50:03.976Z</time></trkpt><trkpt lat="42.57352354282523" lon="11.687231095565176"><ele>325.4</ele><time>2026-04-24T12:50:04.976Z</time></trkpt><trkpt lat="42.57344435563577" lon="11.687150664547538"><ele>325.8</ele><time>2026-04-24T12:50:05.976Z</time></trkpt><trkpt lat="42.57337353684347" lon="11.687077717137981"><ele>326.20000000000005</ele><time>2026-04-24T12:50:06.976Z</time></trkpt><trkpt lat="42.573309950431565" lon="11.686994310915003"><ele>326.6</ele><time>2026-04-24T12:50:07.976Z</time></trkpt><trkpt lat="42.57324105485493" lon="11.68688797307657"><ele>327.0</ele><time>2026-04-24T12:50:08.976Z</time></trkpt><trkpt lat="42.573167872895105" lon="11.686759427647772"><ele>327.25</ele><time>2026-04-24T12:50:09.976Z</time></trkpt><trkpt lat="42.57312373270633" lon="11.68660674978891"><ele>327.5</ele><time>2026-04-24T12:50:10.976Z</time></trkpt><trkpt lat="42.57304205042786" lon="11.686451113849747"><ele>327.75</ele><time>2026-04-24T12:50:11.976Z</time></trkpt><trkpt lat="42.57299008148317" lon="11.686330487991508"><ele>328.0</ele><time>2026-04-24T12:50:12.976Z</time></trkpt><trkpt lat="42.57294454488866" lon="11.686213595515682"><ele>328.0</ele><time>2026-04-24T12:50:13.976Z</time></trkpt><trkpt lat="42.572898379958104" lon="11.686116656695859"><ele>328.0</ele><time>2026-04-24T12:50:14.976Z</time></trkpt><trkpt lat="42.572844183764325" lon="11.686034684710823"><ele>328.0</ele><time>2026-04-24T12:50:15.976Z</time></trkpt><trkpt lat="42.57276793365987" lon="11.685962513805508"><ele>328.0</ele><time>2026-04-24T12:50:16.976Z</time></trkpt><trkpt lat="42.57268061090937" lon="11.685875572041864"><ele>328.0</ele><time>2026-04-24T12:50:17.976Z</time></trkpt><trkpt lat="42.572567340304225" lon="11.685788253638167"><ele>328.3333333333333</ele><time>2026-04-24T12:50:18.976Z</time></trkpt><trkpt lat="42.57243310520575" lon="11.685685001180838"><ele>328.6666666666667</ele><time>2026-04-24T12:50:19.976Z</time></trkpt><trkpt lat="42.57231346162659" lon="11.685569003367318"><ele>329.0</ele><time>2026-04-24T12:50:20.976Z</time></trkpt><trkpt lat="42.5721898300765" lon="11.685456708457318"><ele>329.0</ele><time>2026-04-24T12:50:21.976Z</time></trkpt><trkpt lat="42.572069882795816" lon="11.685330519978969"><ele>329.0</ele><time>2026-04-24T12:50:22.976Z</time></trkpt><trkpt lat="42.571960759634386" lon="11.685215941424511"><ele>329.0</ele><time>2026-04-24T12:50:23.976Z</time></trkpt><trkpt lat="42.57185908234973" lon="11.685119950043699"><ele>329.0</ele><time>2026-04-24T12:50:24.976Z</time></trkpt><trkpt lat="42.57176189702799" lon="11.685049406255102"><ele>329.0</ele><time>2026-04-24T12:50:25.976Z</time></trkpt><trkpt lat="42.5717016229446" lon="11.68501294148837"><ele>329.0</ele><time>2026-04-24T12:50:26.976Z</time></trkpt><trkpt lat="42.57163509257714" lon="11.685001292752915"><ele>329.0</ele><time>2026-04-24T12:50:27.976Z</time></trkpt><trkpt lat="42.5715596309159" lon="11.684997634434726"><ele>329.0</ele><time>2026-04-24T12:50:28.976Z</time></trkpt><trkpt lat="42.57147457088367" lon="11.685007600565838"><ele>329.0</ele><time>2026-04-24T12:50:29.976Z</time></trkpt><trkpt lat="42.57136493769022" lon="11.6850337269303"><ele>329.0</ele><time>2026-04-24T12:50:30.976Z</time></trkpt><trkpt lat="42.5712729436334" lon="11.685064722226238"><ele>329.0</ele><time>2026-04-24T12:50:31.976Z</time></trkpt><trkpt lat="42.571192592610004" lon="11.685051182412256"><ele>329.0</ele><time>2026-04-24T12:50:32.976Z</time></trkpt><trkpt lat="42.57108942097272" lon="11.685057782350802"><ele>329.0</ele><time>2026-04-24T12:50:33.976Z</time></trkpt><trkpt lat="42.57100270707769" lon="11.685085769099501"><ele>329.0</ele><time>2026-04-24T12:50:34.976Z</time></trkpt><trkpt lat="42.570912178174275" lon="11.685080953979702"><ele>329.0</ele><time>2026-04-24T12:50:35.976Z</time></trkpt><trkpt lat="42.570827797138726" lon="11.685066587195207"><ele>329.0</ele><time>2026-04-24T12:50:36.976Z</time></trkpt><trkpt lat="42.57074447414741" lon="11.685064451036384"><ele>329.0</ele><time>2026-04-24T12:50:37.976Z</time></trkpt><trkpt lat="42.57066138398243" lon="11.685044637254672"><ele>329.0</ele><time>2026-04-24T12:50:38.976Z</time></trkpt><trkpt lat="42.570589856467244" lon="11.685014291397897"><ele>329.0</ele><time>2026-04-24T12:50:39.976Z</time></trkpt><trkpt lat="42.57051143927787" lon="11.68494114453298"><ele>329.0</ele><time>2026-04-24T12:50:40.976Z</time></trkpt><trkpt lat="42.570427271623636" lon="11.68489270017883"><ele>329.0</ele><time>2026-04-24T12:50:41.976Z</time></trkpt><trkpt lat="42.57035014291067" lon="11.684829114426618"><ele>329.0</ele><time>2026-04-24T12:50:42.976Z</time></trkpt><trkpt lat="42.57029714628782" lon="11.684729843823664"><ele>329.0</ele><time>2026-04-24T12:50:43.976Z</time></trkpt><trkpt lat="42.57024561340714" lon="11.684647375255377"><ele>329.0</ele><time>2026-04-24T12:50:44.976Z</time></trkpt><trkpt lat="42.570184053488624" lon="11.684554682619845"><ele>329.0</ele><time>2026-04-24T12:50:45.976Z</time></trkpt><trkpt lat="42.57011707942956" lon="11.684468943028428"><ele>329.0</ele><time>2026-04-24T12:50:46.976Z</time></trkpt><trkpt lat="42.5700451520118" lon="11.684418300175695"><ele>329.0</ele><time>2026-04-24T12:50:47.976Z</time></trkpt><trkpt lat="42.569980304418415" lon="11.684356955598176"><ele>329.0</ele><time>2026-04-24T12:50:48.976Z</time></trkpt><trkpt lat="42.56991301923383" lon="11.684298835375683"><ele>328.5</ele><time>2026-04-24T12:50:49.976Z</time></trkpt><trkpt lat="42.56985359629447" lon="11.68425449208576"><ele>328.0</ele><time>2026-04-24T12:50:50.976Z</time></trkpt><trkpt lat="42.56979080088549" lon="11.684227768336614"><ele>327.5</ele><time>2026-04-24T12:50:51.976Z</time></trkpt><trkpt lat="42.5697262062449" lon="11.68421284433205"><ele>327.0</ele><time>2026-04-24T12:50:52.976Z</time></trkpt><trkpt lat="42.56964438318589" lon="11.684227235640082"><ele>326.5</ele><time>2026-04-24T12:50:53.976Z</time></trkpt><trkpt lat="42.56954770217637" lon="11.684210604613966"><ele>326.0</ele><time>2026-04-24T12:50:54.976Z</time></trkpt><trkpt lat="42.56945114845222" lon="11.684180610039496"><ele>325.8</ele><time>2026-04-24T12:50:55.976Z</time></trkpt><trkpt lat="42.569353698430845" lon="11.684178054321851"><ele>325.6</ele><time>2026-04-24T12:50:56.976Z</time></trkpt><trkpt lat="42.56924043459178" lon="11.684174389905678"><ele>325.4</ele><time>2026-04-24T12:50:57.976Z</time></trkpt><trkpt lat="42.56912739873367" lon="11.684183134469123"><ele>325.2</ele><time>2026-04-24T12:50:58.976Z</time></trkpt><trkpt lat="42.569019639363674" lon="11.68420571303537"><ele>325.0</ele><time>2026-04-24T12:50:59.976Z</time></trkpt><trkpt lat="42.56890341617878" lon="11.684230814245774"><ele>325.0</ele><time>2026-04-24T12:51:00.976Z</time></trkpt><trkpt lat="42.56880093897033" lon="11.684243096567714"><ele>325.0</ele><time>2026-04-24T12:51:01.976Z</time></trkpt><trkpt lat="42.56873480982222" lon="11.6842234987546"><ele>325.0</ele><time>2026-04-24T12:51:02.976Z</time></trkpt><trkpt lat="42.56866065054486" lon="11.684197030001938"><ele>325.0</ele><time>2026-04-24T12:51:03.976Z</time></trkpt><trkpt lat="42.56858837539508" lon="11.684153483224579"><ele>325.0</ele><time>2026-04-24T12:51:04.976Z</time></trkpt><trkpt lat="42.56853429252943" lon="11.684094934165852"><ele>325.0</ele><time>2026-04-24T12:51:05.976Z</time></trkpt><trkpt lat="42.56848443514329" lon="11.68402491594438"><ele>325.0</ele><time>2026-04-24T12:51:06.976Z</time></trkpt><trkpt lat="42.568410997406666" lon="11.683936523247427"><ele>325.0</ele><time>2026-04-24T12:51:07.976Z</time></trkpt><trkpt lat="42.568318551405696" lon="11.683854961077166"><ele>325.0</ele><time>2026-04-24T12:51:08.976Z</time></trkpt><trkpt lat="42.568231082937736" lon="11.683775176478331"><ele>325.0</ele><time>2026-04-24T12:51:09.976Z</time></trkpt><trkpt lat="42.56814933851428" lon="11.68367355869947"><ele>325.0</ele><time>2026-04-24T12:51:10.976Z</time></trkpt><trkpt lat="42.56804741919123" lon="11.68359842903255"><ele>325.0</ele><time>2026-04-24T12:51:11.976Z</time></trkpt><trkpt lat="42.567978892620474" lon="11.683525722242791"><ele>325.0</ele><time>2026-04-24T12:51:12.976Z</time></trkpt><trkpt lat="42.5679038132144" lon="11.683445591187354"><ele>325.0</ele><time>2026-04-24T12:51:13.976Z</time></trkpt><trkpt lat="42.567826041799925" lon="11.683378474465043"><ele>325.0</ele><time>2026-04-24T12:51:14.976Z</time></trkpt><trkpt lat="42.56775762359149" lon="11.683311494226672"><ele>325.0</ele><time>2026-04-24T12:51:15.976Z</time></trkpt><trkpt lat="42.56770013734426" lon="11.683255020819413"><ele>325.0</ele><time>2026-04-24T12:51:16.976Z</time></trkpt><trkpt lat="42.56764281409494" lon="11.683186161807065"><ele>324.66666666666663</ele><time>2026-04-24T12:51:17.976Z</time></trkpt><trkpt lat="42.567596658234066" lon="11.683100700373043"><ele>324.3333333333333</ele><time>2026-04-24T12:51:18.976Z</time></trkpt><trkpt lat="42.5675572770759" lon="11.683001256724422"><ele>324.0</ele><time>2026-04-24T12:51:19.976Z</time></trkpt><trkpt lat="42.56750424545995" lon="11.68288278577035"><ele>323.6666666666667</ele><time>2026-04-24T12:51:20.976Z</time></trkpt><trkpt lat="42.567458257124365" lon="11.682770249000246"><ele>323.33333333333337</ele><time>2026-04-24T12:51:21.976Z</time></trkpt><trkpt lat="42.567402079636345" lon="11.68268517799634"><ele>323.0</ele><time>2026-04-24T12:51:22.976Z</time></trkpt><trkpt lat="42.56733321173141" lon="11.682622417802882"><ele>323.0</ele><time>2026-04-24T12:51:23.976Z</time></trkpt><trkpt lat="42.56721797631398" lon="11.682536687880729"><ele>323.0</ele><time>2026-04-24T12:51:25.976Z</time></trkpt><trkpt lat="42.56715609688076" lon="11.682504939347684"><ele>323.0</ele><time>2026-04-24T12:51:26.976Z</time></trkpt><trkpt lat="42.567075354108106" lon="11.682486677573339"><ele>323.0</ele><time>2026-04-24T12:51:27.976Z</time></trkpt><trkpt lat="42.56698090424536" lon="11.682433035674705"><ele>323.0</ele><time>2026-04-24T12:51:28.976Z</time></trkpt><trkpt lat="42.56684205629892" lon="11.682386721935869"><ele>323.4</ele><time>2026-04-24T12:51:29.976Z</time></trkpt><trkpt lat="42.566735060564184" lon="11.682310439550207"><ele>323.79999999999995</ele><time>2026-04-24T12:51:30.976Z</time></trkpt><trkpt lat="42.56661306747484" lon="11.68224631567139"><ele>324.2</ele><time>2026-04-24T12:51:31.976Z</time></trkpt><trkpt lat="42.56651471884884" lon="11.682218942965456"><ele>324.6</ele><time>2026-04-24T12:51:32.976Z</time></trkpt><trkpt lat="42.56643548633992" lon="11.682180362262237"><ele>325.0</ele><time>2026-04-24T12:51:33.976Z</time></trkpt><trkpt lat="42.56635837389354" lon="11.682148415781766"><ele>325.0</ele><time>2026-04-24T12:51:34.976Z</time></trkpt><trkpt lat="42.566276265086785" lon="11.682133418160502"><ele>325.0</ele><time>2026-04-24T12:51:35.976Z</time></trkpt><trkpt lat="42.5661869786838" lon="11.682131373766506"><ele>325.0</ele><time>2026-04-24T12:51:36.976Z</time></trkpt><trkpt lat="42.56605628390979" lon="11.682124547789497"><ele>325.0</ele><time>2026-04-24T12:51:37.976Z</time></trkpt><trkpt lat="42.56593615661877" lon="11.682140055835525"><ele>325.0</ele><time>2026-04-24T12:51:38.976Z</time></trkpt><trkpt lat="42.565810037679356" lon="11.68212432764898"><ele>324.66666666666663</ele><time>2026-04-24T12:51:40.976Z</time></trkpt><trkpt lat="42.56573255682908" lon="11.682111658234968"><ele>324.3333333333333</ele><time>2026-04-24T12:51:41.976Z</time></trkpt><trkpt lat="42.565653696607015" lon="11.68207861779032"><ele>324.0</ele><time>2026-04-24T12:51:42.976Z</time></trkpt><trkpt lat="42.56557998307101" lon="11.682023830750564"><ele>323.6666666666667</ele><time>2026-04-24T12:51:43.976Z</time></trkpt><trkpt lat="42.565522236060595" lon="11.68194666662831"><ele>323.33333333333337</ele><time>2026-04-24T12:51:44.976Z</time></trkpt><trkpt lat="42.56545635680933" lon="11.68187981367854"><ele>323.0</ele><time>2026-04-24T12:51:45.976Z</time></trkpt><trkpt lat="42.565390367067444" lon="11.681820060648962"><ele>323.0</ele><time>2026-04-24T12:51:46.975Z</time></trkpt><trkpt lat="42.56529219814471" lon="11.681744999985812"><ele>323.0</ele><time>2026-04-24T12:51:48.975Z</time></trkpt><trkpt lat="42.56516102228861" lon="11.681799261833326"><ele>323.0</ele><time>2026-04-24T12:51:50.975Z</time></trkpt><trkpt lat="42.565086654188136" lon="11.681851877322508"><ele>323.0</ele><time>2026-04-24T12:51:51.975Z</time></trkpt><trkpt lat="42.56499470409562" lon="11.681898583791568"><ele>323.0</ele><time>2026-04-24T12:51:52.975Z</time></trkpt><trkpt lat="42.56492273357425" lon="11.68193500369001"><ele>323.0</ele><time>2026-04-24T12:51:53.975Z</time></trkpt><trkpt lat="42.564859506277074" lon="11.68191686589579"><ele>323.0</ele><time>2026-04-24T12:51:54.975Z</time></trkpt><trkpt lat="42.56479522517635" lon="11.681914027226501"><ele>323.0</ele><time>2026-04-24T12:51:55.975Z</time></trkpt><trkpt lat="42.564719684247834" lon="11.681860893575424"><ele>323.0</ele><time>2026-04-24T12:51:56.975Z</time></trkpt><trkpt lat="42.56464182216157" lon="11.681791562135544"><ele>323.0</ele><time>2026-04-24T12:51:57.975Z</time></trkpt><trkpt lat="42.56456730841018" lon="11.681710231586392"><ele>323.0</ele><time>2026-04-24T12:51:58.974Z</time></trkpt><trkpt lat="42.564493505857115" lon="11.681609057643787"><ele>323.0</ele><time>2026-04-24T12:51:59.975Z</time></trkpt><trkpt lat="42.56443948699854" lon="11.681532892841318"><ele>323.0</ele><time>2026-04-24T12:52:00.975Z</time></trkpt><trkpt lat="42.56438396968601" lon="11.681456346409046"><ele>323.0</ele><time>2026-04-24T12:52:01.975Z</time></trkpt><trkpt lat="42.56432893322681" lon="11.681391315404026"><ele>323.0</ele><time>2026-04-24T12:52:02.975Z</time></trkpt><trkpt lat="42.564261188493376" lon="11.681348479855696"><ele>323.0</ele><time>2026-04-24T12:52:03.975Z</time></trkpt><trkpt lat="42.5641744869539" lon="11.68130601384925"><ele>323.0</ele><time>2026-04-24T12:52:04.975Z</time></trkpt><trkpt lat="42.564083516314525" lon="11.681271653836584"><ele>323.0</ele><time>2026-04-24T12:52:05.975Z</time></trkpt><trkpt lat="42.56399009087834" lon="11.681244135519362"><ele>323.0</ele><time>2026-04-24T12:52:06.975Z</time></trkpt><trkpt lat="42.56389666256846" lon="11.681235083775269"><ele>323.0</ele><time>2026-04-24T12:52:07.975Z</time></trkpt><trkpt lat="42.56381046797365" lon="11.681177961745476"><ele>323.0</ele><time>2026-04-24T12:52:08.975Z</time></trkpt><trkpt lat="42.56373816443163" lon="11.681117436000685"><ele>323.0</ele><time>2026-04-24T12:52:09.975Z</time></trkpt><trkpt lat="42.56368564566179" lon="11.681064172709469"><ele>323.0</ele><time>2026-04-24T12:52:10.975Z</time></trkpt><trkpt lat="42.56363657239299" lon="11.681006332911902"><ele>323.4</ele><time>2026-04-24T12:52:11.975Z</time></trkpt><trkpt lat="42.56357901932414" lon="11.680931504290502"><ele>323.79999999999995</ele><time>2026-04-24T12:52:12.975Z</time></trkpt><trkpt lat="42.563511151274156" lon="11.68083847373098"><ele>324.2</ele><time>2026-04-24T12:52:13.975Z</time></trkpt><trkpt lat="42.56344042080067" lon="11.680741000434471"><ele>324.6</ele><time>2026-04-24T12:52:14.975Z</time></trkpt><trkpt lat="42.56337252544239" lon="11.680641265102768"><ele>325.0</ele><time>2026-04-24T12:52:15.975Z</time></trkpt><trkpt lat="42.56329899418733" lon="11.680527579476987"><ele>325.0</ele><time>2026-04-24T12:52:16.975Z</time></trkpt><trkpt lat="42.563239740434135" lon="11.680433315292483"><ele>325.0</ele><time>2026-04-24T12:52:17.975Z</time></trkpt><trkpt lat="42.563177984192045" lon="11.680322089859235"><ele>325.0</ele><time>2026-04-24T12:52:18.975Z</time></trkpt><trkpt lat="42.563121780576864" lon="11.680211849826192"><ele>325.0</ele><time>2026-04-24T12:52:19.975Z</time></trkpt><trkpt lat="42.56307652895402" lon="11.680094165366846"><ele>325.0</ele><time>2026-04-24T12:52:20.975Z</time></trkpt><trkpt lat="42.56302496681929" lon="11.679973276547658"><ele>325.5</ele><time>2026-04-24T12:52:21.975Z</time></trkpt><trkpt lat="42.56296842846485" lon="11.679789799036076"><ele>326.0</ele><time>2026-04-24T12:52:22.975Z</time></trkpt><trkpt lat="42.562918186869005" lon="11.679641548195658"><ele>326.5</ele><time>2026-04-24T12:52:23.975Z</time></trkpt><trkpt lat="42.56288192030704" lon="11.679481241267604"><ele>327.0</ele><time>2026-04-24T12:52:24.975Z</time></trkpt><trkpt lat="42.56283426166152" lon="11.679324362767389"><ele>327.0</ele><time>2026-04-24T12:52:25.975Z</time></trkpt><trkpt lat="42.56277460470014" lon="11.679185230555902"><ele>327.0</ele><time>2026-04-24T12:52:26.975Z</time></trkpt><trkpt lat="42.56273686877511" lon="11.679069199248952"><ele>327.0</ele><time>2026-04-24T12:52:27.975Z</time></trkpt><trkpt lat="42.56269931586787" lon="11.678938409165033"><ele>327.0</ele><time>2026-04-24T12:52:28.975Z</time></trkpt><trkpt lat="42.56262993066056" lon="11.678787389900265"><ele>327.0</ele><time>2026-04-24T12:52:29.975Z</time></trkpt><trkpt lat="42.562579496105734" lon="11.678669651832083"><ele>326.0</ele><time>2026-04-24T12:52:30.975Z</time></trkpt><trkpt lat="42.56253703974125" lon="11.678570073214509"><ele>325.0</ele><time>2026-04-24T12:52:31.975Z</time></trkpt><trkpt lat="42.56250543989379" lon="11.678458737041698"><ele>324.0</ele><time>2026-04-24T12:52:32.975Z</time></trkpt><trkpt lat="42.56246240503815" lon="11.678352609220088"><ele>323.0</ele><time>2026-04-24T12:52:33.975Z</time></trkpt><trkpt lat="42.56241922880481" lon="11.67823814471238"><ele>322.0</ele><time>2026-04-24T12:52:34.975Z</time></trkpt><trkpt lat="42.56237757511867" lon="11.678109909538005"><ele>322.0</ele><time>2026-04-24T12:52:35.975Z</time></trkpt><trkpt lat="42.562345102798695" lon="11.67797405629615"><ele>322.0</ele><time>2026-04-24T12:52:36.975Z</time></trkpt><trkpt lat="42.5623388001097" lon="11.677841999725167"><ele>322.0</ele><time>2026-04-24T12:52:37.975Z</time></trkpt><trkpt lat="42.562320994822535" lon="11.677724467982493"><ele>322.0</ele><time>2026-04-24T12:52:38.975Z</time></trkpt><trkpt lat="42.562298593517625" lon="11.677603673848184"><ele>322.0</ele><time>2026-04-24T12:52:39.975Z</time></trkpt><trkpt lat="42.56228002656703" lon="11.677503555502078"><ele>322.8</ele><time>2026-04-24T12:52:40.975Z</time></trkpt><trkpt lat="42.56224561419302" lon="11.677336733664797"><ele>323.6</ele><time>2026-04-24T12:52:42.975Z</time></trkpt><trkpt lat="42.56222320034778" lon="11.677251535550813"><ele>324.40000000000003</ele><time>2026-04-24T12:52:43.975Z</time></trkpt><trkpt lat="42.56219516408362" lon="11.677168249186701"><ele>325.20000000000005</ele><time>2026-04-24T12:52:45.975Z</time></trkpt><trkpt lat="42.562137791386554" lon="11.677065497973452"><ele>326.0</ele><time>2026-04-24T12:53:28.975Z</time></trkpt><trkpt lat="42.56203164996998" lon="11.67699482041601"><ele>325.25</ele><time>2026-04-24T12:53:30.975Z</time></trkpt><trkpt lat="42.56189175110555" lon="11.67691394442919"><ele>324.5</ele><time>2026-04-24T12:53:32.975Z</time></trkpt><trkpt lat="42.56180526742384" lon="11.676861926303415"><ele>323.75</ele><time>2026-04-24T12:53:34.975Z</time></trkpt><trkpt lat="42.56174157527587" lon="11.676807278804553"><ele>323.0</ele><time>2026-04-24T12:53:35.975Z</time></trkpt><trkpt lat="42.561632122794876" lon="11.676705090597176"><ele>323.0</ele><time>2026-04-24T12:53:36.975Z</time></trkpt><trkpt lat="42.56156427186728" lon="11.676645490674218"><ele>323.0</ele><time>2026-04-24T12:53:37.975Z</time></trkpt><trkpt lat="42.5614562715907" lon="11.67654183945266"><ele>323.0</ele><time>2026-04-24T12:53:38.975Z</time></trkpt><trkpt lat="42.56137087496109" lon="11.676450975143483"><ele>323.0</ele><time>2026-04-24T12:53:39.975Z</time></trkpt><trkpt lat="42.5612967045774" lon="11.676370938337492"><ele>323.0</ele><time>2026-04-24T12:53:40.975Z</time></trkpt><trkpt lat="42.56121850887503" lon="11.676310962294366"><ele>322.59999999999997</ele><time>2026-04-24T12:53:41.975Z</time></trkpt><trkpt lat="42.56114995884873" lon="11.67624010637627"><ele>322.2</ele><time>2026-04-24T12:53:42.975Z</time></trkpt><trkpt lat="42.56106461015049" lon="11.676207198098526"><ele>321.8</ele><time>2026-04-24T12:53:43.975Z</time></trkpt><trkpt lat="42.56096670253954" lon="11.676204150906768"><ele>321.4</ele><time>2026-04-24T12:53:44.975Z</time></trkpt><trkpt lat="42.560873811621505" lon="11.67630676814277"><ele>321.0</ele><time>2026-04-24T12:53:45.975Z</time></trkpt><trkpt lat="42.56078684167311" lon="11.676336723742267"><ele>321.0</ele><time>2026-04-24T12:53:46.975Z</time></trkpt><trkpt lat="42.560698295417446" lon="11.676387977720609"><ele>321.0</ele><time>2026-04-24T12:53:47.975Z</time></trkpt><trkpt lat="42.56060592563633" lon="11.676447905580606"><ele>321.0</ele><time>2026-04-24T12:53:48.975Z</time></trkpt><trkpt lat="42.56051357031118" lon="11.676512858068834"><ele>321.0</ele><time>2026-04-24T12:53:49.975Z</time></trkpt><trkpt lat="42.56042383802491" lon="11.676614134050057"><ele>321.0</ele><time>2026-04-24T12:53:50.975Z</time></trkpt><trkpt lat="42.56034099808224" lon="11.676717434994057"><ele>320.40000000000003</ele><time>2026-04-24T12:53:51.975Z</time></trkpt><trkpt lat="42.56025348418252" lon="11.676783998710844"><ele>319.8</ele><time>2026-04-24T12:53:52.973Z</time></trkpt><trkpt lat="42.56018311731796" lon="11.676838246209064"><ele>319.20000000000005</ele><time>2026-04-24T12:53:53.974Z</time></trkpt><trkpt lat="42.560107122550725" lon="11.676880357804645"><ele>318.6</ele><time>2026-04-24T12:53:54.974Z</time></trkpt><trkpt lat="42.55996815195027" lon="11.67686366695743"><ele>318.0</ele><time>2026-04-24T12:53:56.973Z</time></trkpt><trkpt lat="42.55987945751762" lon="11.676851884621753"><ele>318.0</ele><time>2026-04-24T12:53:57.973Z</time></trkpt><trkpt lat="42.559773643849624" lon="11.676859254263181"><ele>318.0</ele><time>2026-04-24T12:53:58.974Z</time></trkpt><trkpt lat="42.55967596774877" lon="11.67687204250321"><ele>318.0</ele><time>2026-04-24T12:53:59.973Z</time></trkpt><trkpt lat="42.55958260569342" lon="11.676906318451016"><ele>318.0</ele><time>2026-04-24T12:54:00.974Z</time></trkpt><trkpt lat="42.55948859939943" lon="11.676950565277057"><ele>318.0</ele><time>2026-04-24T12:54:01.973Z</time></trkpt><trkpt lat="42.55938483987774" lon="11.677012443011916"><ele>317.5</ele><time>2026-04-24T12:54:02.973Z</time></trkpt><trkpt lat="42.55927145327864" lon="11.677073914318571"><ele>317.0</ele><time>2026-04-24T12:54:03.973Z</time></trkpt><trkpt lat="42.55915772504619" lon="11.677112842673145"><ele>316.5</ele><time>2026-04-24T12:54:04.973Z</time></trkpt><trkpt lat="42.55904586658779" lon="11.677156444471024"><ele>316.0</ele><time>2026-04-24T12:54:05.973Z</time></trkpt><trkpt lat="42.55893538257366" lon="11.677210007942941"><ele>316.0</ele><time>2026-04-24T12:54:06.973Z</time></trkpt><trkpt lat="42.55884177308776" lon="11.677263754972461"><ele>316.0</ele><time>2026-04-24T12:54:07.973Z</time></trkpt><trkpt lat="42.55874370599017" lon="11.67728002687841"><ele>316.0</ele><time>2026-04-24T12:54:08.973Z</time></trkpt><trkpt lat="42.55870627319039" lon="11.677394249102942"><ele>316.0</ele><time>2026-04-24T12:54:09.973Z</time></trkpt><trkpt lat="42.55866357048201" lon="11.677523199100333"><ele>316.0</ele><time>2026-04-24T12:54:10.973Z</time></trkpt><trkpt lat="42.558562868259685" lon="11.677668504129295"><ele>317.0</ele><time>2026-04-24T12:54:11.973Z</time></trkpt><trkpt lat="42.55849753335678" lon="11.677793757416584"><ele>318.0</ele><time>2026-04-24T12:54:12.973Z</time></trkpt><trkpt lat="42.558438995316145" lon="11.677905980408642"><ele>319.0</ele><time>2026-04-24T12:54:13.973Z</time></trkpt><trkpt lat="42.55838944168068" lon="11.678005298962692"><ele>320.0</ele><time>2026-04-24T12:54:14.973Z</time></trkpt><trkpt lat="42.55835291323891" lon="11.67809243652393"><ele>321.0</ele><time>2026-04-24T12:54:15.973Z</time></trkpt><trkpt lat="42.55831124601598" lon="11.678247521306764"><ele>321.0</ele><time>2026-04-24T12:54:17.973Z</time></trkpt><trkpt lat="42.558314310099696" lon="11.678343590860253"><ele>321.0</ele><time>2026-04-24T12:54:18.973Z</time></trkpt><trkpt lat="42.558366854430055" lon="11.6784767162215"><ele>321.0</ele><time>2026-04-24T12:54:19.973Z</time></trkpt><trkpt lat="42.55840749743163" lon="11.678616450070988"><ele>321.0</ele><time>2026-04-24T12:54:20.973Z</time></trkpt><trkpt lat="42.55843982586648" lon="11.678762382026143"><ele>321.0</ele><time>2026-04-24T12:54:21.973Z</time></trkpt><trkpt lat="42.55844344960132" lon="11.678878554984147"><ele>321.0</ele><time>2026-04-24T12:54:22.973Z</time></trkpt><trkpt lat="42.55843225383917" lon="11.678985146008584"><ele>321.0</ele><time>2026-04-24T12:54:23.974Z</time></trkpt><trkpt lat="42.55841285045935" lon="11.679089557103575"><ele>321.0</ele><time>2026-04-24T12:54:24.974Z</time></trkpt><trkpt lat="42.55838767665603" lon="11.6791892084719"><ele>321.0</ele><time>2026-04-24T12:54:25.974Z</time></trkpt><trkpt lat="42.55832508061794" lon="11.679267972173937"><ele>321.0</ele><time>2026-04-24T12:54:26.974Z</time></trkpt><trkpt lat="42.55825426770681" lon="11.679369868032659"><ele>321.0</ele><time>2026-04-24T12:54:27.974Z</time></trkpt><trkpt lat="42.55818549215158" lon="11.67947142076159"><ele>321.0</ele><time>2026-04-24T12:54:28.974Z</time></trkpt><trkpt lat="42.55811527129052" lon="11.679571443412703"><ele>321.0</ele><time>2026-04-24T12:54:29.974Z</time></trkpt><trkpt lat="42.5580542765927" lon="11.679656762166935"><ele>321.0</ele><time>2026-04-24T12:54:30.974Z</time></trkpt><trkpt lat="42.55799167425119" lon="11.679724030963657"><ele>321.0</ele><time>2026-04-24T12:54:31.974Z</time></trkpt><trkpt lat="42.55792870900083" lon="11.679767414174222"><ele>321.0</ele><time>2026-04-24T12:54:32.974Z</time></trkpt><trkpt lat="42.5577905959231" lon="11.679783734376356"><ele>321.20000000000005</ele><time>2026-04-24T12:54:34.974Z</time></trkpt><trkpt lat="42.55768069565607" lon="11.679791101802767"><ele>321.40000000000003</ele><time>2026-04-24T12:54:35.974Z</time></trkpt><trkpt lat="42.557560791391886" lon="11.679786912819294"><ele>321.6</ele><time>2026-04-24T12:54:36.974Z</time></trkpt><trkpt lat="42.55745477188749" lon="11.679795360125782"><ele>321.8</ele><time>2026-04-24T12:54:37.974Z</time></trkpt><trkpt lat="42.55737114437571" lon="11.679867510688142"><ele>322.0</ele><time>2026-04-24T12:54:38.974Z</time></trkpt><trkpt lat="42.55727027379711" lon="11.679935243137061"><ele>322.0</ele><time>2026-04-24T12:54:39.974Z</time></trkpt><trkpt lat="42.55716745109832" lon="11.680002373697647"><ele>322.0</ele><time>2026-04-24T12:54:40.974Z</time></trkpt><trkpt lat="42.55707115648812" lon="11.680019797740988"><ele>322.0</ele><time>2026-04-24T12:54:41.974Z</time></trkpt><trkpt lat="42.55699656157022" lon="11.680042845571379"><ele>322.0</ele><time>2026-04-24T12:54:42.974Z</time></trkpt><trkpt lat="42.556909562096955" lon="11.680089124048722"><ele>322.0</ele><time>2026-04-24T12:54:43.974Z</time></trkpt><trkpt lat="42.55679875853125" lon="11.680115219516997"><ele>321.0</ele><time>2026-04-24T12:54:44.974Z</time></trkpt><trkpt lat="42.55667729489216" lon="11.680136089730563"><ele>320.0</ele><time>2026-04-24T12:54:45.974Z</time></trkpt><trkpt lat="42.5565645883254" lon="11.680173267875988"><ele>319.0</ele><time>2026-04-24T12:54:46.974Z</time></trkpt><trkpt lat="42.55643452235216" lon="11.680237461860694"><ele>318.0</ele><time>2026-04-24T12:54:47.974Z</time></trkpt><trkpt lat="42.556329025157915" lon="11.680273844345365"><ele>317.6</ele><time>2026-04-24T12:54:48.974Z</time></trkpt><trkpt lat="42.55622400833776" lon="11.680330530240711"><ele>317.20000000000005</ele><time>2026-04-24T12:54:49.974Z</time></trkpt><trkpt lat="42.5561357682132" lon="11.680372154907133"><ele>316.8</ele><time>2026-04-24T12:54:50.974Z</time></trkpt><trkpt lat="42.55605194703556" lon="11.680407440166187"><ele>316.40000000000003</ele><time>2026-04-24T12:54:51.974Z</time></trkpt><trkpt lat="42.55595904890004" lon="11.680441530443801"><ele>316.0</ele><time>2026-04-24T12:54:52.974Z</time></trkpt><trkpt lat="42.55585413614011" lon="11.680469886922321"><ele>315.8</ele><time>2026-04-24T12:54:53.974Z</time></trkpt><trkpt lat="42.555747551637324" lon="11.680504734140507"><ele>315.6</ele><time>2026-04-24T12:54:54.974Z</time></trkpt><trkpt lat="42.55563920766213" lon="11.680547529040771"><ele>315.4</ele><time>2026-04-24T12:54:55.974Z</time></trkpt><trkpt lat="42.555540825501296" lon="11.680556219132798"><ele>315.2</ele><time>2026-04-24T12:54:56.974Z</time></trkpt><trkpt lat="42.55545300365654" lon="11.680549904001504"><ele>315.0</ele><time>2026-04-24T12:54:57.974Z</time></trkpt><trkpt lat="42.55535917476953" lon="11.68049326063385"><ele>314.8</ele><time>2026-04-24T12:54:58.974Z</time></trkpt><trkpt lat="42.55524339454661" lon="11.680435513832192"><ele>314.6</ele><time>2026-04-24T12:54:59.974Z</time></trkpt><trkpt lat="42.55517395850406" lon="11.680366345702636"><ele>314.4</ele><time>2026-04-24T12:55:00.974Z</time></trkpt><trkpt lat="42.55512544603986" lon="11.680266960544053"><ele>314.2</ele><time>2026-04-24T12:55:01.974Z</time></trkpt><trkpt lat="42.555075076894155" lon="11.680173221538688"><ele>314.0</ele><time>2026-04-24T12:55:02.974Z</time></trkpt><trkpt lat="42.5550077277541" lon="11.680057659879653"><ele>314.59999999999997</ele><time>2026-04-24T12:55:03.974Z</time></trkpt><trkpt lat="42.55493256652711" lon="11.67993731849846"><ele>315.2</ele><time>2026-04-24T12:55:04.974Z</time></trkpt><trkpt lat="42.55485857504529" lon="11.67983737845027"><ele>315.79999999999995</ele><time>2026-04-24T12:55:05.974Z</time></trkpt><trkpt lat="42.55479806293029" lon="11.679742316743527"><ele>316.4</ele><time>2026-04-24T12:55:06.974Z</time></trkpt><trkpt lat="42.55474772030865" lon="11.679667785290468"><ele>317.0</ele><time>2026-04-24T12:55:07.974Z</time></trkpt><trkpt lat="42.554683807888125" lon="11.679620748191711"><ele>317.0</ele><time>2026-04-24T12:55:08.974Z</time></trkpt><trkpt lat="42.55461552120833" lon="11.679610251996044"><ele>317.0</ele><time>2026-04-24T12:55:09.974Z</time></trkpt><trkpt lat="42.55454391118165" lon="11.679558717450535"><ele>317.0</ele><time>2026-04-24T12:55:10.974Z</time></trkpt><trkpt lat="42.55445360045822" lon="11.679541400260522"><ele>317.0</ele><time>2026-04-24T12:55:11.974Z</time></trkpt><trkpt lat="42.55435175653571" lon="11.679555897150161"><ele>317.0</ele><time>2026-04-24T12:55:12.974Z</time></trkpt><trkpt lat="42.55428140018909" lon="11.679579749041674"><ele>317.0</ele><time>2026-04-24T12:55:13.974Z</time></trkpt><trkpt lat="42.554202116009996" lon="11.679647103678331"><ele>316.5</ele><time>2026-04-24T12:55:14.974Z</time></trkpt><trkpt lat="42.554130157266684" lon="11.679699448102403"><ele>316.0</ele><time>2026-04-24T12:55:15.974Z</time></trkpt><trkpt lat="42.554058862249015" lon="11.679853703659795"><ele>315.5</ele><time>2026-04-24T12:55:16.974Z</time></trkpt><trkpt lat="42.55401859415476" lon="11.679992300711135"><ele>315.0</ele><time>2026-04-24T12:55:17.974Z</time></trkpt><trkpt lat="42.5539463915245" lon="11.680141068429426"><ele>315.0</ele><time>2026-04-24T12:55:18.974Z</time></trkpt><trkpt lat="42.55391722924663" lon="11.680252617834489"><ele>315.0</ele><time>2026-04-24T12:55:19.974Z</time></trkpt><trkpt lat="42.55386673298371" lon="11.680419952205073"><ele>315.0</ele><time>2026-04-24T12:55:20.974Z</time></trkpt><trkpt lat="42.55383108971845" lon="11.680550477351643"><ele>315.0</ele><time>2026-04-24T12:55:21.974Z</time></trkpt><trkpt lat="42.55380258276256" lon="11.680685792438382"><ele>315.0</ele><time>2026-04-24T12:55:22.974Z</time></trkpt><trkpt lat="42.55377731104051" lon="11.680798503148463"><ele>314.6</ele><time>2026-04-24T12:55:23.974Z</time></trkpt><trkpt lat="42.553745909290065" lon="11.68090673340868"><ele>314.2</ele><time>2026-04-24T12:55:24.974Z</time></trkpt><trkpt lat="42.553732600033136" lon="11.680997920021353"><ele>313.8</ele><time>2026-04-24T12:55:25.974Z</time></trkpt><trkpt lat="42.5536988749776" lon="11.681072516912415"><ele>313.4</ele><time>2026-04-24T12:55:26.974Z</time></trkpt><trkpt lat="42.55358914516373" lon="11.681149596877383"><ele>313.0</ele><time>2026-04-24T12:55:28.974Z</time></trkpt><trkpt lat="42.55345693288892" lon="11.681105684228598"><ele>312.8333333333333</ele><time>2026-04-24T12:55:30.974Z</time></trkpt><trkpt lat="42.55334236679207" lon="11.681051673691565"><ele>312.66666666666663</ele><time>2026-04-24T12:55:32.974Z</time></trkpt><trkpt lat="42.5532708268733" lon="11.68099574518045"><ele>312.5</ele><time>2026-04-24T12:55:33.974Z</time></trkpt><trkpt lat="42.55320914392089" lon="11.68093641849764"><ele>312.3333333333333</ele><time>2026-04-24T12:55:34.974Z</time></trkpt><trkpt lat="42.553153415906344" lon="11.680846389411403"><ele>312.1666666666667</ele><time>2026-04-24T12:55:35.974Z</time></trkpt><trkpt lat="42.55310618460151" lon="11.680775294317154"><ele>312.0</ele><time>2026-04-24T12:55:36.974Z</time></trkpt><trkpt lat="42.552991324145935" lon="11.680708524955792"><ele>312.0</ele><time>2026-04-24T12:55:38.974Z</time></trkpt><trkpt lat="42.55291105087062" lon="11.68069457514877"><ele>312.0</ele><time>2026-04-24T12:55:39.974Z</time></trkpt><trkpt lat="42.552826617140866" lon="11.680709655734153"><ele>312.0</ele><time>2026-04-24T12:55:40.974Z</time></trkpt><trkpt lat="42.5527271251144" lon="11.68074512589291"><ele>312.0</ele><time>2026-04-24T12:55:41.974Z</time></trkpt><trkpt lat="42.55263229977533" lon="11.680797338596893"><ele>312.0</ele><time>2026-04-24T12:55:42.974Z</time></trkpt><trkpt lat="42.55254185755525" lon="11.680831409769214"><ele>311.5</ele><time>2026-04-24T12:55:43.974Z</time></trkpt><trkpt lat="42.55246552307773" lon="11.680859050795311"><ele>311.0</ele><time>2026-04-24T12:55:44.974Z</time></trkpt><trkpt lat="42.55235046053079" lon="11.68087485480383"><ele>310.5</ele><time>2026-04-24T12:55:46.974Z</time></trkpt><trkpt lat="42.55228526902382" lon="11.68085985334512"><ele>310.0</ele><time>2026-04-24T12:55:47.974Z</time></trkpt><trkpt lat="42.55220782181519" lon="11.680858776772672"><ele>309.5</ele><time>2026-04-24T12:55:48.974Z</time></trkpt><trkpt lat="42.55213518017048" lon="11.680867186534945"><ele>309.0</ele><time>2026-04-24T12:55:49.974Z</time></trkpt><trkpt lat="42.552050590734" lon="11.680901196943653"><ele>308.8333333333333</ele><time>2026-04-24T12:55:50.974Z</time></trkpt><trkpt lat="42.55196937981845" lon="11.680950457555745"><ele>308.6666666666667</ele><time>2026-04-24T12:55:51.974Z</time></trkpt><trkpt lat="42.55189656173584" lon="11.681010523390215"><ele>308.5</ele><time>2026-04-24T12:55:52.974Z</time></trkpt><trkpt lat="42.55183985640242" lon="11.681052851864584"><ele>308.33333333333337</ele><time>2026-04-24T12:55:53.974Z</time></trkpt><trkpt lat="42.55174928568852" lon="11.681103555655262"><ele>308.1666666666667</ele><time>2026-04-24T12:55:54.974Z</time></trkpt><trkpt lat="42.551657325560726" lon="11.681155221966197"><ele>308.0</ele><time>2026-04-24T12:55:55.974Z</time></trkpt><trkpt lat="42.551540876655075" lon="11.681178107265557"><ele>308.0</ele><time>2026-04-24T12:55:56.974Z</time></trkpt><trkpt lat="42.55143494096082" lon="11.681214166477877"><ele>308.0</ele><time>2026-04-24T12:55:57.974Z</time></trkpt><trkpt lat="42.551349978633496" lon="11.681222332325854"><ele>308.0</ele><time>2026-04-24T12:55:58.971Z</time></trkpt><trkpt lat="42.55127689350725" lon="11.68124141615013"><ele>308.0</ele><time>2026-04-24T12:55:59.971Z</time></trkpt><trkpt lat="42.55117329141872" lon="11.681314052411414"><ele>308.0</ele><time>2026-04-24T12:56:01.971Z</time></trkpt><trkpt lat="42.551122211144765" lon="11.681430897034934"><ele>307.83333333333337</ele><time>2026-04-24T12:56:02.971Z</time></trkpt><trkpt lat="42.55106161306414" lon="11.681505564210775"><ele>307.6666666666667</ele><time>2026-04-24T12:56:03.971Z</time></trkpt><trkpt lat="42.55095552633915" lon="11.681602011812837"><ele>307.5</ele><time>2026-04-24T12:56:05.971Z</time></trkpt><trkpt lat="42.55089695072134" lon="11.681650066748384"><ele>307.3333333333333</ele><time>2026-04-24T12:56:06.971Z</time></trkpt><trkpt lat="42.55084807680415" lon="11.681720376986299"><ele>307.16666666666663</ele><time>2026-04-24T12:56:07.971Z</time></trkpt><trkpt lat="42.55079175633523" lon="11.681785070153609"><ele>307.0</ele><time>2026-04-24T12:56:08.97Z</time></trkpt><trkpt lat="42.55072120271041" lon="11.681861957020583"><ele>306.75</ele><time>2026-04-24T12:56:09.97Z</time></trkpt><trkpt lat="42.55065623301392" lon="11.681976925333396"><ele>306.5</ele><time>2026-04-24T12:56:10.971Z</time></trkpt><trkpt lat="42.550591751352094" lon="11.68210767935838"><ele>306.25</ele><time>2026-04-24T12:56:11.971Z</time></trkpt><trkpt lat="42.550528134609735" lon="11.68224067716403"><ele>306.0</ele><time>2026-04-24T12:56:12.971Z</time></trkpt><trkpt lat="42.55047482831489" lon="11.682373257808072"><ele>306.0</ele><time>2026-04-24T12:56:13.971Z</time></trkpt><trkpt lat="42.55044602713342" lon="11.682484151706833"><ele>306.0</ele><time>2026-04-24T12:56:14.971Z</time></trkpt><trkpt lat="42.550400740670916" lon="11.68262621559151"><ele>306.0</ele><time>2026-04-24T12:56:15.971Z</time></trkpt><trkpt lat="42.55034392241617" lon="11.682742910907086"><ele>306.0</ele><time>2026-04-24T12:56:16.971Z</time></trkpt><trkpt lat="42.55030120303228" lon="11.682863184132732"><ele>306.0</ele><time>2026-04-24T12:56:17.971Z</time></trkpt><trkpt lat="42.550268475954894" lon="11.682955324408134"><ele>305.0</ele><time>2026-04-24T12:56:18.971Z</time></trkpt><trkpt lat="42.5502331451186" lon="11.68304961436326"><ele>304.0</ele><time>2026-04-24T12:56:19.971Z</time></trkpt><trkpt lat="42.55021071541719" lon="11.683130762301474"><ele>303.0</ele><time>2026-04-24T12:56:20.971Z</time></trkpt><trkpt lat="42.55018751388281" lon="11.68321069912963"><ele>302.0</ele><time>2026-04-24T12:56:21.971Z</time></trkpt><trkpt lat="42.55008099242056" lon="11.68332415814512"><ele>301.0</ele><time>2026-04-24T12:56:23.971Z</time></trkpt><trkpt lat="42.54998177926703" lon="11.683394374903102"><ele>301.0</ele><time>2026-04-24T12:56:24.971Z</time></trkpt><trkpt lat="42.54990903020896" lon="11.683495817678462"><ele>301.0</ele><time>2026-04-24T12:56:25.971Z</time></trkpt><trkpt lat="42.549875668085406" lon="11.683616706357057"><ele>301.0</ele><time>2026-04-24T12:56:26.971Z</time></trkpt><trkpt lat="42.54981666719058" lon="11.68369948809037"><ele>301.0</ele><time>2026-04-24T12:56:27.971Z</time></trkpt><trkpt lat="42.549734063053826" lon="11.683740539145852"><ele>301.0</ele><time>2026-04-24T12:56:28.971Z</time></trkpt><trkpt lat="42.54964416781787" lon="11.683804511428747"><ele>300.8</ele><time>2026-04-24T12:56:29.971Z</time></trkpt><trkpt lat="42.549546547593366" lon="11.683866478151016"><ele>300.6</ele><time>2026-04-24T12:56:30.971Z</time></trkpt><trkpt lat="42.54946612242214" lon="11.683911275615545"><ele>300.4</ele><time>2026-04-24T12:56:31.971Z</time></trkpt><trkpt lat="42.54939679853103" lon="11.683941971877383"><ele>300.2</ele><time>2026-04-24T12:56:32.971Z</time></trkpt><trkpt lat="42.54926932479504" lon="11.683973857610265"><ele>300.0</ele><time>2026-04-24T12:56:34.971Z</time></trkpt><trkpt lat="42.549171537005414" lon="11.683998648181559"><ele>299.5</ele><time>2026-04-24T12:56:35.971Z</time></trkpt><trkpt lat="42.549072949930675" lon="11.683994914052578"><ele>299.0</ele><time>2026-04-24T12:56:36.971Z</time></trkpt><trkpt lat="42.54897231954901" lon="11.684007876743832"><ele>298.5</ele><time>2026-04-24T12:56:37.971Z</time></trkpt><trkpt lat="42.548901732505456" lon="11.684023660915832"><ele>298.0</ele><time>2026-04-24T12:56:38.971Z</time></trkpt><trkpt lat="42.54883273018501" lon="11.68403978918405"><ele>297.5</ele><time>2026-04-24T12:56:39.971Z</time></trkpt><trkpt lat="42.548761852657144" lon="11.684054230813421"><ele>297.0</ele><time>2026-04-24T12:56:40.971Z</time></trkpt><trkpt lat="42.54868750256304" lon="11.684083369024899"><ele>296.25</ele><time>2026-04-24T12:56:41.971Z</time></trkpt><trkpt lat="42.54850243027377" lon="11.684107921126564"><ele>295.5</ele><time>2026-04-24T12:56:42.971Z</time></trkpt><trkpt lat="42.548363406503796" lon="11.68410366667617"><ele>294.75</ele><time>2026-04-24T12:56:43.971Z</time></trkpt><trkpt lat="42.54828165034451" lon="11.684115870680985"><ele>294.0</ele><time>2026-04-24T12:56:44.971Z</time></trkpt><trkpt lat="42.548199335437644" lon="11.684166714734564"><ele>294.0</ele><time>2026-04-24T12:56:45.971Z</time></trkpt><trkpt lat="42.548114497463416" lon="11.684182268275842"><ele>294.0</ele><time>2026-04-24T12:56:46.971Z</time></trkpt><trkpt lat="42.54804542465807" lon="11.684235195264376"><ele>294.0</ele><time>2026-04-24T12:56:47.971Z</time></trkpt><trkpt lat="42.547929800633916" lon="11.684289507969458"><ele>294.0</ele><time>2026-04-24T12:56:48.971Z</time></trkpt><trkpt lat="42.54785556542446" lon="11.684327213057662"><ele>294.0</ele><time>2026-04-24T12:56:49.971Z</time></trkpt><trkpt lat="42.54776252911488" lon="11.684375303391906"><ele>292.59999999999997</ele><time>2026-04-24T12:56:50.971Z</time></trkpt><trkpt lat="42.54768918516269" lon="11.684438089966468"><ele>291.2</ele><time>2026-04-24T12:56:51.971Z</time></trkpt><trkpt lat="42.547591552430994" lon="11.68448950350815"><ele>289.79999999999995</ele><time>2026-04-24T12:56:52.971Z</time></trkpt><trkpt lat="42.54748094761023" lon="11.684551142785269"><ele>288.4</ele><time>2026-04-24T12:56:53.971Z</time></trkpt><trkpt lat="42.54738269338865" lon="11.684624758520316"><ele>287.0</ele><time>2026-04-24T12:56:54.971Z</time></trkpt><trkpt lat="42.54731532160332" lon="11.684717355717936"><ele>287.0</ele><time>2026-04-24T12:56:55.971Z</time></trkpt><trkpt lat="42.54722398466398" lon="11.684807265156262"><ele>287.0</ele><time>2026-04-24T12:56:56.971Z</time></trkpt><trkpt lat="42.54713715442443" lon="11.684896598460515"><ele>287.0</ele><time>2026-04-24T12:56:57.971Z</time></trkpt><trkpt lat="42.54704686519059" lon="11.684976338612438"><ele>287.0</ele><time>2026-04-24T12:56:58.971Z</time></trkpt><trkpt lat="42.54698028898557" lon="11.685001609330538"><ele>287.0</ele><time>2026-04-24T12:56:59.971Z</time></trkpt><trkpt lat="42.54691460005725" lon="11.685035882846705"><ele>285.8</ele><time>2026-04-24T12:57:00.971Z</time></trkpt><trkpt lat="42.54682406519114" lon="11.68496547670004"><ele>284.6</ele><time>2026-04-24T12:57:02.971Z</time></trkpt><trkpt lat="42.54682061050682" lon="11.684812086563147"><ele>283.40000000000003</ele><time>2026-04-24T12:57:03.971Z</time></trkpt><trkpt lat="42.54672121285833" lon="11.684728116223203"><ele>282.2</ele><time>2026-04-24T12:57:04.971Z</time></trkpt><trkpt lat="42.54663628476432" lon="11.684675308264827"><ele>281.0</ele><time>2026-04-24T12:57:05.971Z</time></trkpt><trkpt lat="42.54657039028129" lon="11.684649472574838"><ele>281.0</ele><time>2026-04-24T12:57:06.971Z</time></trkpt><trkpt lat="42.54650685689996" lon="11.684624866413916"><ele>281.0</ele><time>2026-04-24T12:57:07.971Z</time></trkpt><trkpt lat="42.54641481545602" lon="11.684671010842242"><ele>281.0</ele><time>2026-04-24T12:57:08.971Z</time></trkpt><trkpt lat="42.54633768841633" lon="11.684718640757731"><ele>281.0</ele><time>2026-04-24T12:57:09.971Z</time></trkpt><trkpt lat="42.54626424750602" lon="11.68477087813177"><ele>281.0</ele><time>2026-04-24T12:57:10.971Z</time></trkpt><trkpt lat="42.54620641410693" lon="11.684836305858473"><ele>281.0</ele><time>2026-04-24T12:57:11.971Z</time></trkpt><trkpt lat="42.54614283780192" lon="11.684899521957176"><ele>279.40000000000003</ele><time>2026-04-24T12:57:12.971Z</time></trkpt><trkpt lat="42.5460755917447" lon="11.684928560161678"><ele>277.8</ele><time>2026-04-24T12:57:13.971Z</time></trkpt><trkpt lat="42.545980233135204" lon="11.685012333402735"><ele>276.20000000000005</ele><time>2026-04-24T12:57:15.971Z</time></trkpt><trkpt lat="42.54586549396875" lon="11.685056556940015"><ele>274.6</ele><time>2026-04-24T12:57:17.971Z</time></trkpt><trkpt lat="42.545799193171746" lon="11.685051020466268"><ele>273.0</ele><time>2026-04-24T12:57:18.971Z</time></trkpt><trkpt lat="42.545727781396984" lon="11.685001046910468"><ele>273.0</ele><time>2026-04-24T12:57:19.971Z</time></trkpt><trkpt lat="42.5456360762798" lon="11.684992523833031"><ele>273.0</ele><time>2026-04-24T12:57:20.971Z</time></trkpt><trkpt lat="42.54551458929478" lon="11.68493770556045"><ele>273.0</ele><time>2026-04-24T12:57:21.971Z</time></trkpt><trkpt lat="42.545388280850126" lon="11.684878949771248"><ele>273.0</ele><time>2026-04-24T12:57:22.971Z</time></trkpt><trkpt lat="42.54527077693236" lon="11.684835128099877"><ele>270.3333333333333</ele><time>2026-04-24T12:57:23.971Z</time></trkpt><trkpt lat="42.545174410760666" lon="11.684798459969738"><ele>267.6666666666667</ele><time>2026-04-24T12:57:24.971Z</time></trkpt><trkpt lat="42.54509577276507" lon="11.684731283709134"><ele>265.0</ele><time>2026-04-24T12:57:25.971Z</time></trkpt><trkpt lat="42.54503964814498" lon="11.684690637144614"><ele>262.33333333333337</ele><time>2026-04-24T12:57:26.971Z</time></trkpt><trkpt lat="42.544978710970256" lon="11.684644542404547"><ele>259.6666666666667</ele><time>2026-04-24T12:57:27.971Z</time></trkpt><trkpt lat="42.54492032378795" lon="11.68459828104102"><ele>257.0</ele><time>2026-04-24T12:57:28.971Z</time></trkpt><trkpt lat="42.54488309056355" lon="11.684513075437213"><ele>256.8</ele><time>2026-04-24T12:57:30.971Z</time></trkpt><trkpt lat="42.5449041533828" lon="11.684379383174846"><ele>256.6</ele><time>2026-04-24T12:57:32.971Z</time></trkpt><trkpt lat="42.54495809149854" lon="11.68427368303968"><ele>256.40000000000003</ele><time>2026-04-24T12:57:33.971Z</time></trkpt><trkpt lat="42.54500951079695" lon="11.684152689375434"><ele>256.2</ele><time>2026-04-24T12:57:34.971Z</time></trkpt><trkpt lat="42.54503604197823" lon="11.684041622893895"><ele>256.0</ele><time>2026-04-24T12:57:35.971Z</time></trkpt><trkpt lat="42.54504288148986" lon="11.683935856615907"><ele>256.0</ele><time>2026-04-24T12:57:36.971Z</time></trkpt><trkpt lat="42.54506348890666" lon="11.683818340609106"><ele>256.0</ele><time>2026-04-24T12:57:37.971Z</time></trkpt><trkpt lat="42.54504771261287" lon="11.683674868702271"><ele>256.0</ele><time>2026-04-24T12:57:38.971Z</time></trkpt><trkpt lat="42.54503261701713" lon="11.683561728802655"><ele>256.0</ele><time>2026-04-24T12:57:39.971Z</time></trkpt><trkpt lat="42.545009003189584" lon="11.683438976031951"><ele>256.0</ele><time>2026-04-24T12:57:40.971Z</time></trkpt><trkpt lat="42.544974127588205" lon="11.683333999782334"><ele>256.16666666666663</ele><time>2026-04-24T12:57:41.971Z</time></trkpt><trkpt lat="42.54497081742212" lon="11.683239005769725"><ele>256.3333333333333</ele><time>2026-04-24T12:57:42.971Z</time></trkpt><trkpt lat="42.544943377791476" lon="11.68314061514601"><ele>256.5</ele><time>2026-04-24T12:57:43.971Z</time></trkpt><trkpt lat="42.544905357173164" lon="11.683056156981582"><ele>256.6666666666667</ele><time>2026-04-24T12:57:44.971Z</time></trkpt><trkpt lat="42.544861871299474" lon="11.682974334827135"><ele>256.83333333333337</ele><time>2026-04-24T12:57:45.971Z</time></trkpt><trkpt lat="42.54479733535954" lon="11.682871899156886"><ele>257.0</ele><time>2026-04-24T12:57:46.971Z</time></trkpt><trkpt lat="42.544729887479996" lon="11.682784262019322"><ele>258.6</ele><time>2026-04-24T12:57:47.971Z</time></trkpt><trkpt lat="42.54465846574787" lon="11.682687386619405"><ele>260.2</ele><time>2026-04-24T12:57:48.971Z</time></trkpt><trkpt lat="42.544615615244" lon="11.682579844529451"><ele>261.8</ele><time>2026-04-24T12:57:49.971Z</time></trkpt><trkpt lat="42.54455887417561" lon="11.682502211575663"><ele>263.4</ele><time>2026-04-24T12:57:50.971Z</time></trkpt><trkpt lat="42.544469870087624" lon="11.68240861527467"><ele>265.0</ele><time>2026-04-24T12:57:52.971Z</time></trkpt><trkpt lat="42.54440866402984" lon="11.682374278358212"><ele>260.6</ele><time>2026-04-24T12:57:53.971Z</time></trkpt><trkpt lat="42.54434019179054" lon="11.682385471008029"><ele>256.2</ele><time>2026-04-24T12:57:54.971Z</time></trkpt><trkpt lat="42.54428878633662" lon="11.682486882607373"><ele>251.8</ele><time>2026-04-24T12:57:55.971Z</time></trkpt><trkpt lat="42.54435269876391" lon="11.682620251152493"><ele>247.4</ele><time>2026-04-24T12:57:56.971Z</time></trkpt><trkpt lat="42.54438772691834" lon="11.682762909938539"><ele>243.0</ele><time>2026-04-24T12:57:58.971Z</time></trkpt><trkpt lat="42.54440903576496" lon="11.682953888654554"><ele>241.2</ele><time>2026-04-24T12:58:00.971Z</time></trkpt><trkpt lat="42.54439167142252" lon="11.683080071221122"><ele>239.4</ele><time>2026-04-24T12:58:01.971Z</time></trkpt><trkpt lat="42.54436857740777" lon="11.683212020325925"><ele>237.59999999999997</ele><time>2026-04-24T12:58:02.971Z</time></trkpt><trkpt lat="42.54431954226877" lon="11.683331088480008"><ele>235.79999999999998</ele><time>2026-04-24T12:58:03.971Z</time></trkpt><trkpt lat="42.544276108666324" lon="11.683440793605602"><ele>234.0</ele><time>2026-04-24T12:58:04.969Z</time></trkpt><trkpt lat="42.54425283569668" lon="11.683537784828776"><ele>234.0</ele><time>2026-04-24T12:58:05.969Z</time></trkpt><trkpt lat="42.544207601267715" lon="11.68364103657834"><ele>233.99999999999997</ele><time>2026-04-24T12:58:06.969Z</time></trkpt><trkpt lat="42.544164663399656" lon="11.68371861721974"><ele>233.99999999999997</ele><time>2026-04-24T12:58:07.969Z</time></trkpt><trkpt lat="42.54410611290957" lon="11.683853350626464"><ele>234.0</ele><time>2026-04-24T12:58:09.968Z</time></trkpt><trkpt lat="42.54400394143097" lon="11.683935722138564"><ele>234.0</ele><time>2026-04-24T12:58:11.969Z</time></trkpt><trkpt lat="42.54393707447742" lon="11.68391366281297"><ele>234.0</ele><time>2026-04-24T12:58:12.969Z</time></trkpt><trkpt lat="42.54384398946671" lon="11.683914372421267"><ele>234.0</ele><time>2026-04-24T12:58:14.969Z</time></trkpt><trkpt lat="42.543831485770305" lon="11.683776844450396"><ele>234.0</ele><time>2026-04-24T12:58:17.968Z</time></trkpt><trkpt lat="42.54384451243597" lon="11.683672158468793"><ele>234.0</ele><time>2026-04-24T12:58:18.968Z</time></trkpt><trkpt lat="42.543852748117" lon="11.683566533805246"><ele>234.0</ele><time>2026-04-24T12:58:19.968Z</time></trkpt><trkpt lat="42.543838855381594" lon="11.68347330563135"><ele>234.0</ele><time>2026-04-24T12:58:20.968Z</time></trkpt><trkpt lat="42.543839556985716" lon="11.683378321315512"><ele>234.0</ele><time>2026-04-24T12:58:21.968Z</time></trkpt><trkpt lat="42.54383302900467" lon="11.683278989435255"><ele>233.99999999999997</ele><time>2026-04-24T12:58:22.968Z</time></trkpt><trkpt lat="42.54382152833582" lon="11.683184357847999"><ele>233.99999999999997</ele><time>2026-04-24T12:58:23.968Z</time></trkpt><trkpt lat="42.543809524991836" lon="11.683062930944454"><ele>234.0</ele><time>2026-04-24T12:58:24.968Z</time></trkpt><trkpt lat="42.54377325419528" lon="11.682916255530692"><ele>234.0</ele><time>2026-04-24T12:58:25.968Z</time></trkpt><trkpt lat="42.543730671540814" lon="11.682766922986056"><ele>229.75</ele><time>2026-04-24T12:58:26.968Z</time></trkpt><trkpt lat="42.54369173286753" lon="11.682629792999633"><ele>225.5</ele><time>2026-04-24T12:58:27.968Z</time></trkpt><trkpt lat="42.54364444357549" lon="11.68246895999619"><ele>221.25</ele><time>2026-04-24T12:58:28.968Z</time></trkpt><trkpt lat="42.54359227163878" lon="11.682301704311307"><ele>217.0</ele><time>2026-04-24T12:58:29.968Z</time></trkpt><trkpt lat="42.54353884125972" lon="11.682115105273041"><ele>217.0</ele><time>2026-04-24T12:58:30.968Z</time></trkpt><trkpt lat="42.54348776561521" lon="11.681933600415265"><ele>217.0</ele><time>2026-04-24T12:58:31.968Z</time></trkpt><trkpt lat="42.543446983223504" lon="11.681752681042886"><ele>217.0</ele><time>2026-04-24T12:58:32.968Z</time></trkpt><trkpt lat="42.5434054007024" lon="11.681578927255963"><ele>217.0</ele><time>2026-04-24T12:58:33.968Z</time></trkpt><trkpt lat="42.543338649353885" lon="11.681407439880354"><ele>220.5</ele><time>2026-04-24T12:58:34.968Z</time></trkpt><trkpt lat="42.54328004085719" lon="11.681228640041182"><ele>224.0</ele><time>2026-04-24T12:58:35.968Z</time></trkpt><trkpt lat="42.54324263622556" lon="11.681069072932566"><ele>227.5</ele><time>2026-04-24T12:58:36.968Z</time></trkpt><trkpt lat="42.543203760793254" lon="11.680919216064929"><ele>231.0</ele><time>2026-04-24T12:58:37.968Z</time></trkpt><trkpt lat="42.54315781687308" lon="11.680748601939573"><ele>234.5</ele><time>2026-04-24T12:58:38.968Z</time></trkpt><trkpt lat="42.543108534813804" lon="11.68055836977336"><ele>238.0</ele><time>2026-04-24T12:58:39.968Z</time></trkpt><trkpt lat="42.543084650515205" lon="11.68036058688278"><ele>241.5</ele><time>2026-04-24T12:58:40.968Z</time></trkpt><trkpt lat="42.54307327620142" lon="11.680159715748465"><ele>245.0</ele><time>2026-04-24T12:58:41.968Z</time></trkpt><trkpt lat="42.54307063373632" lon="11.679971529968158"><ele>248.0</ele><time>2026-04-24T12:58:42.968Z</time></trkpt><trkpt lat="42.54307734176638" lon="11.679773006925046"><ele>251.0</ele><time>2026-04-24T12:58:43.968Z</time></trkpt><trkpt lat="42.54309586173989" lon="11.679569089035645"><ele>254.0</ele><time>2026-04-24T12:58:44.968Z</time></trkpt><trkpt lat="42.543120881526626" lon="11.679336976688042"><ele>254.0</ele><time>2026-04-24T12:58:45.968Z</time></trkpt><trkpt lat="42.54313875826165" lon="11.679118017995409"><ele>254.0</ele><time>2026-04-24T12:58:46.968Z</time></trkpt><trkpt lat="42.5431593968418" lon="11.67889920055133"><ele>254.0</ele><time>2026-04-24T12:58:47.968Z</time></trkpt><trkpt lat="42.54319084299831" lon="11.67868767127855"><ele>255.0</ele><time>2026-04-24T12:58:48.968Z</time></trkpt><trkpt lat="42.543208032433455" lon="11.678470664787843"><ele>256.0</ele><time>2026-04-24T12:58:49.968Z</time></trkpt><trkpt lat="42.54321310339581" lon="11.678246132216135"><ele>257.0</ele><time>2026-04-24T12:58:50.968Z</time></trkpt><trkpt lat="42.54322282975177" lon="11.678023573022065"><ele>257.0</ele><time>2026-04-24T12:58:51.968Z</time></trkpt><trkpt lat="42.54322597319793" lon="11.677815211709802"><ele>257.0</ele><time>2026-04-24T12:58:52.968Z</time></trkpt><trkpt lat="42.54322694283021" lon="11.677612620045146"><ele>257.0</ele><time>2026-04-24T12:58:53.968Z</time></trkpt><trkpt lat="42.54322691025551" lon="11.677412032123696"><ele>258.0</ele><time>2026-04-24T12:58:54.968Z</time></trkpt><trkpt lat="42.54321935588191" lon="11.677212045863568"><ele>259.0</ele><time>2026-04-24T12:58:55.968Z</time></trkpt><trkpt lat="42.543213479364304" lon="11.677012405026982"><ele>260.0</ele><time>2026-04-24T12:58:56.968Z</time></trkpt><trkpt lat="42.54322515598937" lon="11.676802858357647"><ele>260.0</ele><time>2026-04-24T12:58:57.968Z</time></trkpt><trkpt lat="42.543211178540716" lon="11.67659542518435"><ele>260.0</ele><time>2026-04-24T12:58:58.968Z</time></trkpt><trkpt lat="42.5432109207821" lon="11.676378181524422"><ele>260.0</ele><time>2026-04-24T12:58:59.968Z</time></trkpt><trkpt lat="42.54321289328882" lon="11.676150817754499"><ele>258.0</ele><time>2026-04-24T12:59:00.968Z</time></trkpt><trkpt lat="42.54321313109436" lon="11.675931163601227"><ele>256.0</ele><time>2026-04-24T12:59:01.968Z</time></trkpt><trkpt lat="42.54321739842387" lon="11.67570835568962"><ele>254.0</ele><time>2026-04-24T12:59:02.968Z</time></trkpt><trkpt lat="42.54322472746637" lon="11.675483861429644"><ele>254.66666666666669</ele><time>2026-04-24T12:59:03.968Z</time></trkpt><trkpt lat="42.54322265486576" lon="11.67525172216311"><ele>255.33333333333331</ele><time>2026-04-24T12:59:04.968Z</time></trkpt><trkpt lat="42.54321235714135" lon="11.67502617068978"><ele>256.0</ele><time>2026-04-24T12:59:05.968Z</time></trkpt><trkpt lat="42.5432123624969" lon="11.674807533829346"><ele>256.0</ele><time>2026-04-24T12:59:06.968Z</time></trkpt><trkpt lat="42.54321302165757" lon="11.674585527072326"><ele>256.0</ele><time>2026-04-24T12:59:07.968Z</time></trkpt><trkpt lat="42.54321257469551" lon="11.674368013827637"><ele>256.0</ele><time>2026-04-24T12:59:08.968Z</time></trkpt><trkpt lat="42.54321657811249" lon="11.674175369582963"><ele>256.25</ele><time>2026-04-24T12:59:09.968Z</time></trkpt><trkpt lat="42.543230470515155" lon="11.673981812722774"><ele>256.5</ele><time>2026-04-24T12:59:10.968Z</time></trkpt><trkpt lat="42.54323502518525" lon="11.67380539034413"><ele>256.75</ele><time>2026-04-24T12:59:11.968Z</time></trkpt><trkpt lat="42.54324983804812" lon="11.6736304943199"><ele>257.0</ele><time>2026-04-24T12:59:12.968Z</time></trkpt><trkpt lat="42.54328819321759" lon="11.67347572764342"><ele>258.0</ele><time>2026-04-24T12:59:13.968Z</time></trkpt><trkpt lat="42.54333995654241" lon="11.673336017320073"><ele>259.0</ele><time>2026-04-24T12:59:14.968Z</time></trkpt><trkpt lat="42.54339822255171" lon="11.673233160171284"><ele>260.0</ele><time>2026-04-24T12:59:15.968Z</time></trkpt><trkpt lat="42.53744608349769" lon="11.65897998489468"><ele>252.5</ele><time>2026-04-24T13:01:07.966Z</time></trkpt><trkpt lat="42.53735928370987" lon="11.6588337812012"><ele>245.0</ele><time>2026-04-24T13:01:08.966Z</time></trkpt><trkpt lat="42.537265475532564" lon="11.658688674495629"><ele>237.5</ele><time>2026-04-24T13:01:09.966Z</time></trkpt><trkpt lat="42.53716619637167" lon="11.658561949186689"><ele>230.0</ele><time>2026-04-24T13:01:10.966Z</time></trkpt><trkpt lat="42.53693370094181" lon="11.65832899385414"><ele>229.25</ele><time>2026-04-24T13:01:12.966Z</time></trkpt><trkpt lat="42.536822565588764" lon="11.658236621687314"><ele>228.5</ele><time>2026-04-24T13:01:13.967Z</time></trkpt><trkpt lat="42.53671775977964" lon="11.658174935818279"><ele>227.75</ele><time>2026-04-24T13:01:14.967Z</time></trkpt><trkpt lat="42.536609578530346" lon="11.658139200882081"><ele>227.0</ele><time>2026-04-24T13:01:15.967Z</time></trkpt><trkpt lat="42.53648401653315" lon="11.65809855535898"><ele>227.0</ele><time>2026-04-24T13:01:16.967Z</time></trkpt><trkpt lat="42.5363376404612" lon="11.658076702592458"><ele>227.0</ele><time>2026-04-24T13:01:17.967Z</time></trkpt><trkpt lat="42.53617703913464" lon="11.658077782951354"><ele>227.0</ele><time>2026-04-24T13:01:18.967Z</time></trkpt><trkpt lat="42.53602261952129" lon="11.658033435649221"><ele>226.5</ele><time>2026-04-24T13:01:19.967Z</time></trkpt><trkpt lat="42.53588230540069" lon="11.658017191226953"><ele>226.0</ele><time>2026-04-24T13:01:20.967Z</time></trkpt><trkpt lat="42.53575167691617" lon="11.657989697955697"><ele>225.5</ele><time>2026-04-24T13:01:21.967Z</time></trkpt><trkpt lat="42.53564146890887" lon="11.657915509721638"><ele>225.0</ele><time>2026-04-24T13:01:22.967Z</time></trkpt><trkpt lat="42.535570293445026" lon="11.657854016752124"><ele>225.0</ele><time>2026-04-24T13:01:23.967Z</time></trkpt><trkpt lat="42.53550166751712" lon="11.657795647871811"><ele>225.0</ele><time>2026-04-24T13:01:24.967Z</time></trkpt><trkpt lat="42.535426429307655" lon="11.657725260441008"><ele>225.0</ele><time>2026-04-24T13:01:25.967Z</time></trkpt><trkpt lat="42.535347482700985" lon="11.657643113858924"><ele>225.0</ele><time>2026-04-24T13:01:26.967Z</time></trkpt><trkpt lat="42.535282621461214" lon="11.657550268245137"><ele>225.0</ele><time>2026-04-24T13:01:27.967Z</time></trkpt><trkpt lat="42.53522838226112" lon="11.657439035647515"><ele>224.0</ele><time>2026-04-24T13:01:28.967Z</time></trkpt><trkpt lat="42.53517461898518" lon="11.657324917008717"><ele>223.0</ele><time>2026-04-24T13:01:29.967Z</time></trkpt><trkpt lat="42.53511811179003" lon="11.657202564465102"><ele>222.0</ele><time>2026-04-24T13:01:30.967Z</time></trkpt><trkpt lat="42.535057053703774" lon="11.65707750862186"><ele>221.0</ele><time>2026-04-24T13:01:31.967Z</time></trkpt><trkpt lat="42.53494103084007" lon="11.656795140574332"><ele>220.4</ele><time>2026-04-24T13:01:33.967Z</time></trkpt><trkpt lat="42.534887792724" lon="11.656664087078086"><ele>219.8</ele><time>2026-04-24T13:01:34.967Z</time></trkpt><trkpt lat="42.53483358933535" lon="11.656538660180907"><ele>219.20000000000002</ele><time>2026-04-24T13:01:35.967Z</time></trkpt><trkpt lat="42.53477723868062" lon="11.656413589983018"><ele>218.60000000000002</ele><time>2026-04-24T13:01:36.967Z</time></trkpt><trkpt lat="42.534722966374815" lon="11.656281030576306"><ele>218.0</ele><time>2026-04-24T13:01:37.967Z</time></trkpt><trkpt lat="42.534680582396575" lon="11.656152011480577"><ele>218.8</ele><time>2026-04-24T13:01:38.967Z</time></trkpt><trkpt lat="42.53463419234855" lon="11.656028332979883"><ele>219.60000000000002</ele><time>2026-04-24T13:01:39.967Z</time></trkpt><trkpt lat="42.53458953962006" lon="11.655899111884628"><ele>220.39999999999998</ele><time>2026-04-24T13:01:40.967Z</time></trkpt><trkpt lat="42.53454122281174" lon="11.655760914051255"><ele>221.2</ele><time>2026-04-24T13:01:41.967Z</time></trkpt><trkpt lat="42.53451585713523" lon="11.655600751847018"><ele>222.0</ele><time>2026-04-24T13:01:42.967Z</time></trkpt><trkpt lat="42.53445957547799" lon="11.655436406836326"><ele>218.8</ele><time>2026-04-24T13:01:43.967Z</time></trkpt><trkpt lat="42.5344132843689" lon="11.655265558895984"><ele>215.6</ele><time>2026-04-24T13:01:44.967Z</time></trkpt><trkpt lat="42.53437960644766" lon="11.655165005994663"><ele>212.4</ele><time>2026-04-24T13:01:45.967Z</time></trkpt><trkpt lat="42.534351135537555" lon="11.655075570933104"><ele>209.20000000000002</ele><time>2026-04-24T13:01:46.967Z</time></trkpt><trkpt lat="42.534344444254685" lon="11.654963867112016"><ele>206.0</ele><time>2026-04-24T13:01:48.967Z</time></trkpt><trkpt lat="42.53437935170037" lon="11.654834986051144"><ele>206.0</ele><time>2026-04-24T13:01:50.967Z</time></trkpt><trkpt lat="42.534472138969704" lon="11.654792623871714"><ele>206.0</ele><time>2026-04-24T13:01:51.967Z</time></trkpt><trkpt lat="42.53456559282352" lon="11.654761914394697"><ele>206.0</ele><time>2026-04-24T13:01:52.967Z</time></trkpt><trkpt lat="42.53471363999104" lon="11.654569709124933"><ele>206.0</ele><time>2026-04-24T13:01:54.967Z</time></trkpt><trkpt lat="42.53478727410373" lon="11.654479127190475"><ele>206.20000000000002</ele><time>2026-04-24T13:01:55.967Z</time></trkpt><trkpt lat="42.53487993179952" lon="11.654372032453585"><ele>206.4</ele><time>2026-04-24T13:01:56.967Z</time></trkpt><trkpt lat="42.53495954043793" lon="11.654329478913127"><ele>206.6</ele><time>2026-04-24T13:01:57.967Z</time></trkpt><trkpt lat="42.53505664055219" lon="11.65427590463798"><ele>206.8</ele><time>2026-04-24T13:01:58.967Z</time></trkpt><trkpt lat="42.535138171425146" lon="11.65422261508641"><ele>207.0</ele><time>2026-04-24T13:01:59.967Z</time></trkpt><trkpt lat="42.53521221891024" lon="11.654184041702614"><ele>207.0</ele><time>2026-04-24T13:02:00.967Z</time></trkpt><trkpt lat="42.53528793246979" lon="11.65414142642418"><ele>207.0</ele><time>2026-04-24T13:02:01.967Z</time></trkpt><trkpt lat="42.53535497607563" lon="11.654126658937066"><ele>207.0</ele><time>2026-04-24T13:02:02.967Z</time></trkpt><trkpt lat="42.535423942095726" lon="11.654131694369102"><ele>207.0</ele><time>2026-04-24T13:02:03.967Z</time></trkpt><trkpt lat="42.53551177832452" lon="11.654225084697769"><ele>207.0</ele><time>2026-04-24T13:02:04.967Z</time></trkpt><trkpt lat="42.53559201356996" lon="11.654323897280506"><ele>207.0</ele><time>2026-04-24T13:02:05.967Z</time></trkpt><trkpt lat="42.53569179128993" lon="11.654397746934452"><ele>206.39999999999998</ele><time>2026-04-24T13:02:06.967Z</time></trkpt><trkpt lat="42.53577946767822" lon="11.654431178960515"><ele>205.79999999999998</ele><time>2026-04-24T13:02:07.967Z</time></trkpt><trkpt lat="42.53586457517923" lon="11.654436926562843"><ele>205.2</ele><time>2026-04-24T13:02:08.967Z</time></trkpt><trkpt lat="42.535967243606265" lon="11.654476630191771"><ele>204.6</ele><time>2026-04-24T13:02:09.967Z</time></trkpt><trkpt lat="42.53604553008088" lon="11.654522450148226"><ele>204.0</ele><time>2026-04-24T13:02:10.967Z</time></trkpt><trkpt lat="42.53613159404519" lon="11.654562157597482"><ele>203.0</ele><time>2026-04-24T13:02:11.967Z</time></trkpt><trkpt lat="42.53621364723291" lon="11.654609235562061"><ele>202.0</ele><time>2026-04-24T13:02:12.967Z</time></trkpt><trkpt lat="42.53628940538874" lon="11.654679073380844"><ele>201.0</ele><time>2026-04-24T13:02:13.967Z</time></trkpt><trkpt lat="42.536476894406725" lon="11.654921940302362"><ele>200.0</ele><time>2026-04-24T13:02:15.967Z</time></trkpt><trkpt lat="42.53654718744466" lon="11.65501827168806"><ele>200.00000000000003</ele><time>2026-04-24T13:02:16.965Z</time></trkpt><trkpt lat="42.536604616113046" lon="11.65509650015832"><ele>200.0</ele><time>2026-04-24T13:02:17.965Z</time></trkpt><trkpt lat="42.5366586336517" lon="11.65517360122213"><ele>200.0</ele><time>2026-04-24T13:02:18.965Z</time></trkpt><trkpt lat="42.536711258190834" lon="11.655246593248037"><ele>200.0</ele><time>2026-04-24T13:02:19.965Z</time></trkpt><trkpt lat="42.536791238130405" lon="11.655330973065086"><ele>200.00000000000003</ele><time>2026-04-24T13:02:21.965Z</time></trkpt><trkpt lat="42.53685978012739" lon="11.655355103942837"><ele>200.0</ele><time>2026-04-24T13:02:23.965Z</time></trkpt><trkpt lat="42.536943996548956" lon="11.655323700136467"><ele>212.0</ele><time>2026-04-24T13:02:25.965Z</time></trkpt><trkpt lat="42.53705944795718" lon="11.655251620399413"><ele>202.0</ele><time>2026-04-24T13:02:27.965Z</time></trkpt><trkpt lat="42.53716290380159" lon="11.655236217989101"><ele>202.0</ele><time>2026-04-24T13:02:29.965Z</time></trkpt><trkpt lat="42.53722119871913" lon="11.655186934249437"><ele>202.0</ele><time>2026-04-24T13:02:31.965Z</time></trkpt><trkpt lat="42.53728054351529" lon="11.655137324993696"><ele>202.0</ele><time>2026-04-24T13:02:34.965Z</time></trkpt></trkseg><trkseg><trkpt lat="42.52708761390234" lon="11.601961444789183"><ele>116.5</ele><time>2026-04-24T13:35:48Z</time></trkpt><trkpt lat="42.527046874728946" lon="11.60212505349369"><ele>122.0</ele><time>2026-04-24T13:35:49Z</time></trkpt><trkpt lat="42.52700825914581" lon="11.602294263641113"><ele>127.5</ele><time>2026-04-24T13:35:50Z</time></trkpt><trkpt lat="42.52696530925538" lon="11.602430695377567"><ele>133.0</ele><time>2026-04-24T13:35:51Z</time></trkpt><trkpt lat="42.526922299762006" lon="11.602566148293333"><ele>133.0</ele><time>2026-04-24T13:35:52Z</time></trkpt><trkpt lat="42.526879892315606" lon="11.602703853836003"><ele>133.0</ele><time>2026-04-24T13:35:53Z</time></trkpt><trkpt lat="42.526832714709286" lon="11.602844509187948"><ele>133.0</ele><time>2026-04-24T13:35:54Z</time></trkpt><trkpt lat="42.52678979629305" lon="11.602978429990856"><ele>133.0</ele><time>2026-04-24T13:35:55Z</time></trkpt><trkpt lat="42.52674850427031" lon="11.603100529018711"><ele>133.0</ele><time>2026-04-24T13:35:56Z</time></trkpt><trkpt lat="42.526699279449765" lon="11.603232168574653"><ele>130.0</ele><time>2026-04-24T13:35:57Z</time></trkpt><trkpt lat="42.52665189601295" lon="11.603360221863674"><ele>127.00000000000001</ele><time>2026-04-24T13:35:58Z</time></trkpt><trkpt lat="42.526605387809894" lon="11.60348676854531"><ele>124.00000000000001</ele><time>2026-04-24T13:35:59Z</time></trkpt><trkpt lat="42.52655355737365" lon="11.60357990953118"><ele>121.0</ele><time>2026-04-24T13:36:00Z</time></trkpt><trkpt lat="42.52649090184426" lon="11.60366941401524"><ele>118.0</ele><time>2026-04-24T13:36:01Z</time></trkpt><trkpt lat="42.52642245500631" lon="11.603770066162497"><ele>120.75</ele><time>2026-04-24T13:36:02Z</time></trkpt><trkpt lat="42.526337689706466" lon="11.603874914134773"><ele>123.5</ele><time>2026-04-24T13:36:03Z</time></trkpt><trkpt lat="42.526269315540354" lon="11.603993675758261"><ele>126.25</ele><time>2026-04-24T13:36:04Z</time></trkpt><trkpt lat="42.52621309934077" lon="11.60412506576884"><ele>129.0</ele><time>2026-04-24T13:36:05Z</time></trkpt><trkpt lat="42.5261673797264" lon="11.604266100041919"><ele>129.0</ele><time>2026-04-24T13:36:06Z</time></trkpt><trkpt lat="42.52612607205347" lon="11.604401022247007"><ele>129.0</ele><time>2026-04-24T13:36:07Z</time></trkpt><trkpt lat="42.52607697043308" lon="11.604523587100317"><ele>129.0</ele><time>2026-04-24T13:36:08Z</time></trkpt><trkpt lat="42.52603573959265" lon="11.60465203298302"><ele>129.0</ele><time>2026-04-24T13:36:09Z</time></trkpt><trkpt lat="42.52598998242431" lon="11.604766484966232"><ele>129.0</ele><time>2026-04-24T13:36:10Z</time></trkpt><trkpt lat="42.5259143893791" lon="11.60489004510597"><ele>124.0</ele><time>2026-04-24T13:36:11Z</time></trkpt><trkpt lat="42.52584573161206" lon="11.605010565969357"><ele>119.0</ele><time>2026-04-24T13:36:12Z</time></trkpt><trkpt lat="42.52576485143668" lon="11.605132459971006"><ele>114.0</ele><time>2026-04-24T13:36:13Z</time></trkpt><trkpt lat="42.525697223245686" lon="11.60526463098636"><ele>109.0</ele><time>2026-04-24T13:36:14Z</time></trkpt><trkpt lat="42.52562713862415" lon="11.605387404638982"><ele>110.4</ele><time>2026-04-24T13:36:15Z</time></trkpt><trkpt lat="42.52555233882173" lon="11.605496070099568"><ele>111.80000000000001</ele><time>2026-04-24T13:36:16Z</time></trkpt><trkpt lat="42.52547276509912" lon="11.605622421078495"><ele>113.19999999999999</ele><time>2026-04-24T13:36:17Z</time></trkpt><trkpt lat="42.525402924554015" lon="11.6057276879743"><ele>114.6</ele><time>2026-04-24T13:36:18Z</time></trkpt><trkpt lat="42.52534195954488" lon="11.605825560055758"><ele>116.0</ele><time>2026-04-24T13:36:19Z</time></trkpt><trkpt lat="42.52526702791431" lon="11.60591687561487"><ele>115.99999999999999</ele><time>2026-04-24T13:36:20Z</time></trkpt><trkpt lat="42.525202382778915" lon="11.606000971098268"><ele>116.0</ele><time>2026-04-24T13:36:21Z</time></trkpt><trkpt lat="42.525122966077845" lon="11.60607483614315"><ele>116.0</ele><time>2026-04-24T13:36:22Z</time></trkpt><trkpt lat="42.52504140881051" lon="11.606146208437307"><ele>116.0</ele><time>2026-04-24T13:36:23Z</time></trkpt><trkpt lat="42.524964555968204" lon="11.606175661118266"><ele>115.99999999999999</ele><time>2026-04-24T13:36:24Z</time></trkpt><trkpt lat="42.52489071983853" lon="11.606181817352233"><ele>116.0</ele><time>2026-04-24T13:36:25Z</time></trkpt><trkpt lat="42.52479552097707" lon="11.606175413344165"><ele>116.0</ele><time>2026-04-24T13:36:26Z</time></trkpt><trkpt lat="42.524671575168924" lon="11.60616045320592"><ele>116.0</ele><time>2026-04-24T13:36:27Z</time></trkpt><trkpt lat="42.52454396569966" lon="11.60614425638997"><ele>116.0</ele><time>2026-04-24T13:36:28Z</time></trkpt><trkpt lat="42.52440575296557" lon="11.606105359789767"><ele>116.0</ele><time>2026-04-24T13:36:29Z</time></trkpt><trkpt lat="42.524253456486704" lon="11.606081335518795"><ele>117.6</ele><time>2026-04-24T13:36:30Z</time></trkpt><trkpt lat="42.5241151717877" lon="11.60605540680122"><ele>119.19999999999999</ele><time>2026-04-24T13:36:31Z</time></trkpt><trkpt lat="42.52400345144697" lon="11.606034796341751"><ele>120.80000000000001</ele><time>2026-04-24T13:36:32Z</time></trkpt><trkpt lat="42.52391858051134" lon="11.606011064511328"><ele>122.4</ele><time>2026-04-24T13:36:33Z</time></trkpt><trkpt lat="42.52383708336116" lon="11.605988579148104"><ele>124.0</ele><time>2026-04-24T13:36:34Z</time></trkpt><trkpt lat="42.52375728411651" lon="11.60599546602667"><ele>125.80000000000001</ele><time>2026-04-24T13:36:35Z</time></trkpt><trkpt lat="42.52366754977765" lon="11.606032546984688"><ele>127.60000000000001</ele><time>2026-04-24T13:36:36Z</time></trkpt><trkpt lat="42.52358083779271" lon="11.606098862843483"><ele>129.4</ele><time>2026-04-24T13:36:37Z</time></trkpt><trkpt lat="42.523491367476936" lon="11.606191667539369"><ele>131.20000000000002</ele><time>2026-04-24T13:36:38Z</time></trkpt><trkpt lat="42.52340729377062" lon="11.606259054419887"><ele>133.0</ele><time>2026-04-24T13:36:39Z</time></trkpt><trkpt lat="42.523315362829074" lon="11.606313639142265"><ele>128.0</ele><time>2026-04-24T13:36:40Z</time></trkpt><trkpt lat="42.523215461027725" lon="11.606373501612042"><ele>123.00000000000001</ele><time>2026-04-24T13:36:41Z</time></trkpt><trkpt lat="42.52313137009732" lon="11.606409940849348"><ele>118.00000000000001</ele><time>2026-04-24T13:36:42Z</time></trkpt><trkpt lat="42.52304690060821" lon="11.606441122767903"><ele>113.0</ele><time>2026-04-24T13:36:43Z</time></trkpt><trkpt lat="42.52296654912995" lon="11.606474284184404"><ele>108.0</ele><time>2026-04-24T13:36:44Z</time></trkpt><trkpt lat="42.522883278095385" lon="11.606497435234893"><ele>108.0</ele><time>2026-04-24T13:36:45Z</time></trkpt><trkpt lat="42.52281744742895" lon="11.606525473919204"><ele>108.0</ele><time>2026-04-24T13:36:46Z</time></trkpt><trkpt lat="42.52275010204237" lon="11.606534791764744"><ele>108.0</ele><time>2026-04-24T13:36:47Z</time></trkpt><trkpt lat="42.5226787096851" lon="11.60651990105311"><ele>108.0</ele><time>2026-04-24T13:36:48Z</time></trkpt><trkpt lat="42.5225963646335" lon="11.606514812547616"><ele>108.0</ele><time>2026-04-24T13:36:49Z</time></trkpt><trkpt lat="42.52248149921578" lon="11.606478231187303"><ele>108.0</ele><time>2026-04-24T13:36:50Z</time></trkpt><trkpt lat="42.52237819180414" lon="11.606451921218754"><ele>108.0</ele><time>2026-04-24T13:36:51Z</time></trkpt><trkpt lat="42.52228219328514" lon="11.606437980054013"><ele>108.00000000000001</ele><time>2026-04-24T13:36:52Z</time></trkpt><trkpt lat="42.52220081104856" lon="11.606405859408143"><ele>108.00000000000001</ele><time>2026-04-24T13:36:53Z</time></trkpt><trkpt lat="42.522111745054424" lon="11.606373189633914"><ele>108.0</ele><time>2026-04-24T13:36:54Z</time></trkpt><trkpt lat="42.52203330092748" lon="11.606309218583277"><ele>108.0</ele><time>2026-04-24T13:36:55Z</time></trkpt><trkpt lat="42.52193684586968" lon="11.606259479091655"><ele>106.4</ele><time>2026-04-24T13:36:56Z</time></trkpt><trkpt lat="42.52183936494543" lon="11.60622049097572"><ele>104.80000000000001</ele><time>2026-04-24T13:36:57Z</time></trkpt><trkpt lat="42.52173340529515" lon="11.606204624343652"><ele>103.2</ele><time>2026-04-24T13:36:58Z</time></trkpt><trkpt lat="42.52161569732485" lon="11.606197080988421"><ele>101.6</ele><time>2026-04-24T13:36:59Z</time></trkpt><trkpt lat="42.52150364399263" lon="11.606191118011596"><ele>100.0</ele><time>2026-04-24T13:37:00Z</time></trkpt><trkpt lat="42.52138693217439" lon="11.606205533916485"><ele>100.0</ele><time>2026-04-24T13:37:01Z</time></trkpt><trkpt lat="42.521272773346276" lon="11.606208587090435"><ele>100.0</ele><time>2026-04-24T13:37:02Z</time></trkpt><trkpt lat="42.521180706839175" lon="11.606227364284509"><ele>100.0</ele><time>2026-04-24T13:37:03Z</time></trkpt><trkpt lat="42.52108709328652" lon="11.606237317396548"><ele>100.0</ele><time>2026-04-24T13:37:04Z</time></trkpt><trkpt lat="42.52099019527102" lon="11.606241146658192"><ele>100.0</ele><time>2026-04-24T13:37:05Z</time></trkpt><trkpt lat="42.5209150920686" lon="11.606224938143434"><ele>102.2</ele><time>2026-04-24T13:37:06Z</time></trkpt><trkpt lat="42.52082285213753" lon="11.606155456464718"><ele>104.4</ele><time>2026-04-24T13:37:08Z</time></trkpt><trkpt lat="42.520819865477456" lon="11.605978213951364"><ele>106.6</ele><time>2026-04-24T13:37:10Z</time></trkpt><trkpt lat="42.520843731147096" lon="11.605828954874433"><ele>108.8</ele><time>2026-04-24T13:37:11Z</time></trkpt><trkpt lat="42.520856983232626" lon="11.605711684897365"><ele>111.0</ele><time>2026-04-24T13:37:12Z</time></trkpt><trkpt lat="42.520873647793195" lon="11.605586038302759"><ele>111.0</ele><time>2026-04-24T13:37:13Z</time></trkpt><trkpt lat="42.52089062786802" lon="11.60547248036261"><ele>111.0</ele><time>2026-04-24T13:37:14Z</time></trkpt><trkpt lat="42.5209286827957" lon="11.605373580579275"><ele>111.0</ele><time>2026-04-24T13:37:15Z</time></trkpt><trkpt lat="42.520975992831104" lon="11.605297886454647"><ele>111.0</ele><time>2026-04-24T13:37:16Z</time></trkpt><trkpt lat="42.5210556441147" lon="11.605237908191619"><ele>111.0</ele><time>2026-04-24T13:37:17Z</time></trkpt><trkpt lat="42.521126048368245" lon="11.605202213839783"><ele>111.0</ele><time>2026-04-24T13:37:18Z</time></trkpt><trkpt lat="42.52124546118139" lon="11.605133959301122"><ele>111.83333333333333</ele><time>2026-04-24T13:37:20Z</time></trkpt><trkpt lat="42.52129358992817" lon="11.60507742717395"><ele>112.66666666666666</ele><time>2026-04-24T13:37:21Z</time></trkpt><trkpt lat="42.521338296687354" lon="11.605009351754147"><ele>113.5</ele><time>2026-04-24T13:37:22Z</time></trkpt><trkpt lat="42.52136375534075" lon="11.604913289414545"><ele>114.33333333333333</ele><time>2026-04-24T13:37:23Z</time></trkpt><trkpt lat="42.52138703638828" lon="11.604792035227174"><ele>115.16666666666666</ele><time>2026-04-24T13:37:23.999Z</time></trkpt><trkpt lat="42.521409478605555" lon="11.604646921200834"><ele>116.0</ele><time>2026-04-24T13:37:24.999Z</time></trkpt><trkpt lat="42.52141103138388" lon="11.604490527325328"><ele>116.0</ele><time>2026-04-24T13:37:25.999Z</time></trkpt><trkpt lat="42.52141270952266" lon="11.60434524179455"><ele>116.0</ele><time>2026-04-24T13:37:26.999Z</time></trkpt><trkpt lat="42.52141919581163" lon="11.604220175364166"><ele>116.0</ele><time>2026-04-24T13:37:27.999Z</time></trkpt><trkpt lat="42.52142564845612" lon="11.604070862917153"><ele>116.0</ele><time>2026-04-24T13:37:28.999Z</time></trkpt><trkpt lat="42.52144636118765" lon="11.603943639035144"><ele>116.0</ele><time>2026-04-24T13:37:29.999Z</time></trkpt><trkpt lat="42.52146393051795" lon="11.603814028908703"><ele>115.99999999999999</ele><time>2026-04-24T13:37:30.999Z</time></trkpt><trkpt lat="42.52148966558418" lon="11.603692417344483"><ele>116.0</ele><time>2026-04-24T13:37:31.999Z</time></trkpt><trkpt lat="42.52150547817342" lon="11.603575125741692"><ele>116.0</ele><time>2026-04-24T13:37:32.999Z</time></trkpt><trkpt lat="42.52152233953108" lon="11.60346212794217"><ele>116.0</ele><time>2026-04-24T13:37:33.999Z</time></trkpt><trkpt lat="42.52154477549737" lon="11.603361438685651"><ele>115.99999999999999</ele><time>2026-04-24T13:37:34.999Z</time></trkpt><trkpt lat="42.52156753461253" lon="11.60326404714997"><ele>116.0</ele><time>2026-04-24T13:37:35.999Z</time></trkpt><trkpt lat="42.521584009596154" lon="11.603172887099019"><ele>116.0</ele><time>2026-04-24T13:37:36.999Z</time></trkpt><trkpt lat="42.5215766240302" lon="11.603026225296112"><ele>116.0</ele><time>2026-04-24T13:37:38.999Z</time></trkpt><trkpt lat="42.52149984110409" lon="11.603007881378403"><ele>116.0</ele><time>2026-04-24T13:37:40.999Z</time></trkpt><trkpt lat="42.521410008790745" lon="11.603072136715925"><ele>116.0</ele><time>2026-04-24T13:37:42.999Z</time></trkpt><trkpt lat="42.52135015950323" lon="11.60320290107653"><ele>116.0</ele><time>2026-04-24T13:37:44.999Z</time></trkpt><trkpt lat="42.52131681023494" lon="11.603288506732278"><ele>116.0</ele><time>2026-04-24T13:37:45.999Z</time></trkpt><trkpt lat="42.52128416520857" lon="11.603378022830158"><ele>116.0</ele><time>2026-04-24T13:37:46.999Z</time></trkpt><trkpt lat="42.52125221612925" lon="11.603460149192598"><ele>116.0</ele><time>2026-04-24T13:37:47.999Z</time></trkpt><trkpt lat="42.521216468586445" lon="11.603615584619849"><ele>116.0</ele><time>2026-04-24T13:37:49.999Z</time></trkpt><trkpt lat="42.52116407786172" lon="11.603786995946832"><ele>116.0</ele><time>2026-04-24T13:37:51.999Z</time></trkpt><trkpt lat="42.52113412027498" lon="11.603887734079578"><ele>121.19999999999999</ele><time>2026-04-24T13:37:52.999Z</time></trkpt><trkpt lat="42.52110478125024" lon="11.603989452878462"><ele>126.39999999999999</ele><time>2026-04-24T13:37:53.999Z</time></trkpt><trkpt lat="42.52109011962539" lon="11.604104894519837"><ele>131.6</ele><time>2026-04-24T13:37:54.999Z</time></trkpt><trkpt lat="42.52107426465182" lon="11.604223730295688"><ele>136.79999999999998</ele><time>2026-04-24T13:37:55.999Z</time></trkpt><trkpt lat="42.52105196902129" lon="11.604357572385057"><ele>142.0</ele><time>2026-04-24T13:37:56.999Z</time></trkpt><trkpt lat="42.52102397522493" lon="11.604483864877142"><ele>139.16666666666669</ele><time>2026-04-24T13:37:57.999Z</time></trkpt><trkpt lat="42.52099591902815" lon="11.604600325148645"><ele>136.33333333333334</ele><time>2026-04-24T13:37:58.999Z</time></trkpt><trkpt lat="42.52096002682711" lon="11.604700229516354"><ele>133.5</ele><time>2026-04-24T13:37:59.999Z</time></trkpt><trkpt lat="42.52091082521274" lon="11.604785115193694"><ele>130.66666666666666</ele><time>2026-04-24T13:38:00.999Z</time></trkpt><trkpt lat="42.52083399068909" lon="11.60484981902959"><ele>127.83333333333333</ele><time>2026-04-24T13:38:01.999Z</time></trkpt><trkpt lat="42.520749424188324" lon="11.604917453004317"><ele>125.0</ele><time>2026-04-24T13:38:02.999Z</time></trkpt><trkpt lat="42.52066042924437" lon="11.604987679385438"><ele>125.0</ele><time>2026-04-24T13:38:03.999Z</time></trkpt><trkpt lat="42.52057921052829" lon="11.605069963099833"><ele>125.0</ele><time>2026-04-24T13:38:04.999Z</time></trkpt><trkpt lat="42.52048800347911" lon="11.605162361612315"><ele>125.0</ele><time>2026-04-24T13:38:05.999Z</time></trkpt><trkpt lat="42.52040273634955" lon="11.605247569054448"><ele>125.0</ele><time>2026-04-24T13:38:06.999Z</time></trkpt><trkpt lat="42.520312742607615" lon="11.60534147352518"><ele>125.0</ele><time>2026-04-24T13:38:07.999Z</time></trkpt><trkpt lat="42.520222332292015" lon="11.60544369874153"><ele>129.25</ele><time>2026-04-24T13:38:08.999Z</time></trkpt><trkpt lat="42.520127548592654" lon="11.605555866713068"><ele>133.5</ele><time>2026-04-24T13:38:09.999Z</time></trkpt><trkpt lat="42.52003330395827" lon="11.605673767936269"><ele>137.75</ele><time>2026-04-24T13:38:10.999Z</time></trkpt><trkpt lat="42.51993737676312" lon="11.605762727651967"><ele>142.0</ele><time>2026-04-24T13:38:11.999Z</time></trkpt><trkpt lat="42.519843315339635" lon="11.605839255452297"><ele>142.0</ele><time>2026-04-24T13:38:12.999Z</time></trkpt><trkpt lat="42.519749047803835" lon="11.605903401660127"><ele>142.0</ele><time>2026-04-24T13:38:13.999Z</time></trkpt><trkpt lat="42.519659272936" lon="11.605957818629832"><ele>142.0</ele><time>2026-04-24T13:38:14.999Z</time></trkpt><trkpt lat="42.51956458232911" lon="11.605988464702031"><ele>142.0</ele><time>2026-04-24T13:38:15.999Z</time></trkpt><trkpt lat="42.51946522585499" lon="11.605999823668334"><ele>142.0</ele><time>2026-04-24T13:38:16.999Z</time></trkpt><trkpt lat="42.51936125685137" lon="11.606013663380663"><ele>142.79999999999998</ele><time>2026-04-24T13:38:17.999Z</time></trkpt><trkpt lat="42.51926395299382" lon="11.606017182489154"><ele>143.6</ele><time>2026-04-24T13:38:19Z</time></trkpt><trkpt lat="42.51917143757762" lon="11.606053063134292"><ele>144.39999999999998</ele><time>2026-04-24T13:38:20Z</time></trkpt><trkpt lat="42.51909116000993" lon="11.606107148084208"><ele>145.2</ele><time>2026-04-24T13:38:21Z</time></trkpt><trkpt lat="42.51900558636776" lon="11.60617344344228"><ele>146.0</ele><time>2026-04-24T13:38:22Z</time></trkpt><trkpt lat="42.518917541521716" lon="11.606236681136805"><ele>146.0</ele><time>2026-04-24T13:38:23Z</time></trkpt><trkpt lat="42.5188228730676" lon="11.60633000214097"><ele>146.0</ele><time>2026-04-24T13:38:24Z</time></trkpt><trkpt lat="42.51873907416771" lon="11.606432531646906"><ele>146.0</ele><time>2026-04-24T13:38:25Z</time></trkpt><trkpt lat="42.518673712171115" lon="11.606549691107995"><ele>146.0</ele><time>2026-04-24T13:38:26Z</time></trkpt><trkpt lat="42.51862576860407" lon="11.60666037587593"><ele>146.0</ele><time>2026-04-24T13:38:27Z</time></trkpt><trkpt lat="42.518581724052" lon="11.60677463141628"><ele>147.0</ele><time>2026-04-24T13:38:28Z</time></trkpt><trkpt lat="42.51853942653196" lon="11.606893354566271"><ele>148.0</ele><time>2026-04-24T13:38:29Z</time></trkpt><trkpt lat="42.51850869460043" lon="11.606998833160766"><ele>149.0</ele><time>2026-04-24T13:38:30Z</time></trkpt><trkpt lat="42.51847429401658" lon="11.60710974609708"><ele>150.0</ele><time>2026-04-24T13:38:31Z</time></trkpt><trkpt lat="42.51843675506954" lon="11.607220305463596"><ele>151.0</ele><time>2026-04-24T13:38:32Z</time></trkpt><trkpt lat="42.518394190390666" lon="11.607311386146284"><ele>152.0</ele><time>2026-04-24T13:38:33Z</time></trkpt><trkpt lat="42.518325720544915" lon="11.607364338894056"><ele>152.0</ele><time>2026-04-24T13:38:34Z</time></trkpt><trkpt lat="42.51826662731046" lon="11.607423031470285"><ele>152.0</ele><time>2026-04-24T13:38:35Z</time></trkpt><trkpt lat="42.51820420608257" lon="11.607466489305507"><ele>152.0</ele><time>2026-04-24T13:38:36Z</time></trkpt><trkpt lat="42.51814076891397" lon="11.607501124696775"><ele>152.0</ele><time>2026-04-24T13:38:37Z</time></trkpt><trkpt lat="42.518074725180654" lon="11.607520838549235"><ele>152.0</ele><time>2026-04-24T13:38:38Z</time></trkpt><trkpt lat="42.51801637925964" lon="11.607557275256115"><ele>152.0</ele><time>2026-04-24T13:38:39Z</time></trkpt><trkpt lat="42.517923410051935" lon="11.607642490059451"><ele>154.0</ele><time>2026-04-24T13:38:41Z</time></trkpt><trkpt lat="42.51787909360962" lon="11.607736876148365"><ele>156.0</ele><time>2026-04-24T13:38:43Z</time></trkpt><trkpt lat="42.51791874862987" lon="11.607831517649856"><ele>158.0</ele><time>2026-04-24T13:38:46Z</time></trkpt><trkpt lat="42.518033569936115" lon="11.607848578974473"><ele>160.0</ele><time>2026-04-24T13:38:48Z</time></trkpt><trkpt lat="42.51814215594531" lon="11.607886713336438"><ele>162.0</ele><time>2026-04-24T13:38:50Z</time></trkpt><trkpt lat="42.518205043904345" lon="11.607946002974233"><ele>157.0</ele><time>2026-04-24T13:38:51Z</time></trkpt><trkpt lat="42.51826596027726" lon="11.607978138159465"><ele>152.0</ele><time>2026-04-24T13:38:52Z</time></trkpt><trkpt lat="42.51832406449117" lon="11.608077643479808"><ele>147.0</ele><time>2026-04-24T13:38:54Z</time></trkpt><trkpt lat="42.51831129042495" lon="11.608166572755067"><ele>142.0</ele><time>2026-04-24T13:38:55Z</time></trkpt><trkpt lat="42.518275649942844" lon="11.608249249956412"><ele>137.0</ele><time>2026-04-24T13:38:56Z</time></trkpt><trkpt lat="42.518243857161636" lon="11.60833783588135"><ele>132.0</ele><time>2026-04-24T13:38:57Z</time></trkpt><trkpt lat="42.51820442365358" lon="11.608433407836493"><ele>132.0</ele><time>2026-04-24T13:38:58Z</time></trkpt><trkpt lat="42.51816364241238" lon="11.608524144657776"><ele>132.0</ele><time>2026-04-24T13:38:59Z</time></trkpt><trkpt lat="42.51810321791065" lon="11.60857132867888"><ele>132.0</ele><time>2026-04-24T13:39:00Z</time></trkpt><trkpt lat="42.51805166802014" lon="11.608621486300345"><ele>132.0</ele><time>2026-04-24T13:39:01Z</time></trkpt><trkpt lat="42.5179916782984" lon="11.608662687807087"><ele>132.0</ele><time>2026-04-24T13:39:02Z</time></trkpt><trkpt lat="42.517866724729615" lon="11.608719081732778"><ele>132.0</ele><time>2026-04-24T13:39:04Z</time></trkpt><trkpt lat="42.517794016598295" lon="11.608739532525737"><ele>129.6</ele><time>2026-04-24T13:39:05Z</time></trkpt><trkpt lat="42.517704548277095" lon="11.608743174301026"><ele>127.19999999999999</ele><time>2026-04-24T13:39:06Z</time></trkpt><trkpt lat="42.517597366991275" lon="11.608757319750485"><ele>124.8</ele><time>2026-04-24T13:39:07Z</time></trkpt><trkpt lat="42.51748714011284" lon="11.608775584389695"><ele>122.4</ele><time>2026-04-24T13:39:08Z</time></trkpt><trkpt lat="42.51738280616395" lon="11.60882202567328"><ele>120.0</ele><time>2026-04-24T13:39:09Z</time></trkpt><trkpt lat="42.51723910108077" lon="11.608822963570796"><ele>120.0</ele><time>2026-04-24T13:39:10Z</time></trkpt><trkpt lat="42.51710297872569" lon="11.608850108537181"><ele>120.0</ele><time>2026-04-24T13:39:11Z</time></trkpt><trkpt lat="42.51699322313626" lon="11.608877937283276"><ele>120.0</ele><time>2026-04-24T13:39:12Z</time></trkpt><trkpt lat="42.51689629029959" lon="11.60891337048866"><ele>120.0</ele><time>2026-04-24T13:39:13Z</time></trkpt><trkpt lat="42.51679699303865" lon="11.608948823524397"><ele>120.4</ele><time>2026-04-24T13:39:14Z</time></trkpt><trkpt lat="42.51669185398696" lon="11.60898073502858"><ele>120.8</ele><time>2026-04-24T13:39:15Z</time></trkpt><trkpt lat="42.51658607365732" lon="11.609006039822294"><ele>121.19999999999999</ele><time>2026-04-24T13:39:16Z</time></trkpt><trkpt lat="42.51647704904241" lon="11.609055955216087"><ele>121.6</ele><time>2026-04-24T13:39:17Z</time></trkpt><trkpt lat="42.51637025919384" lon="11.6091133431778"><ele>122.0</ele><time>2026-04-24T13:39:18Z</time></trkpt><trkpt lat="42.51628205503085" lon="11.609229973715799"><ele>123.5</ele><time>2026-04-24T13:39:19Z</time></trkpt><trkpt lat="42.51617926072223" lon="11.609304913750858"><ele>125.0</ele><time>2026-04-24T13:39:20Z</time></trkpt><trkpt lat="42.51607197930948" lon="11.609358959910105"><ele>126.5</ele><time>2026-04-24T13:39:21Z</time></trkpt><trkpt lat="42.515955630363045" lon="11.609381469930351"><ele>128.0</ele><time>2026-04-24T13:39:22Z</time></trkpt><trkpt lat="42.51583649908863" lon="11.609416050334124"><ele>128.0</ele><time>2026-04-24T13:39:23Z</time></trkpt><trkpt lat="42.515720334597376" lon="11.609444500917421"><ele>128.0</ele><time>2026-04-24T13:39:24Z</time></trkpt><trkpt lat="42.51563240072309" lon="11.60946171473787"><ele>128.0</ele><time>2026-04-24T13:39:25Z</time></trkpt><trkpt lat="42.515531900932686" lon="11.609474071055494"><ele>128.0</ele><time>2026-04-24T13:39:26Z</time></trkpt><trkpt lat="42.5154313636569" lon="11.609489296400156"><ele>128.0</ele><time>2026-04-24T13:39:27Z</time></trkpt><trkpt lat="42.51534342249949" lon="11.609537063314791"><ele>127.4</ele><time>2026-04-24T13:39:28Z</time></trkpt><trkpt lat="42.51525197621517" lon="11.609594728385009"><ele>126.80000000000001</ele><time>2026-04-24T13:39:29Z</time></trkpt><trkpt lat="42.515167562242716" lon="11.609669888053599"><ele>126.2</ele><time>2026-04-24T13:39:29.998Z</time></trkpt><trkpt lat="42.51509136861377" lon="11.609754348325792"><ele>125.6</ele><time>2026-04-24T13:39:30.998Z</time></trkpt><trkpt lat="42.51501890559476" lon="11.60985531704104"><ele>125.0</ele><time>2026-04-24T13:39:31.998Z</time></trkpt><trkpt lat="42.51492096427577" lon="11.60992086634226"><ele>125.0</ele><time>2026-04-24T13:39:32.998Z</time></trkpt><trkpt lat="42.514821774491814" lon="11.609980489473939"><ele>125.0</ele><time>2026-04-24T13:39:33.998Z</time></trkpt><trkpt lat="42.51472912678007" lon="11.610036461624695"><ele>125.0</ele><time>2026-04-24T13:39:34.998Z</time></trkpt><trkpt lat="42.514645294030956" lon="11.610106552134635"><ele>125.0</ele><time>2026-04-24T13:39:35.998Z</time></trkpt><trkpt lat="42.51456914145688" lon="11.61017172203232"><ele>125.0</ele><time>2026-04-24T13:39:36.998Z</time></trkpt><trkpt lat="42.51449184060911" lon="11.610223368859243"><ele>125.16666666666666</ele><time>2026-04-24T13:39:37.998Z</time></trkpt><trkpt lat="42.51445203813287" lon="11.610292516474754"><ele>125.33333333333333</ele><time>2026-04-24T13:39:38.998Z</time></trkpt><trkpt lat="42.51439953539417" lon="11.610397278899804"><ele>125.5</ele><time>2026-04-24T13:39:54.998Z</time></trkpt><trkpt lat="42.514340492118826" lon="11.610456995381098"><ele>125.66666666666666</ele><time>2026-04-24T13:39:55.998Z</time></trkpt><trkpt lat="42.514274799177755" lon="11.610530362697398"><ele>125.83333333333333</ele><time>2026-04-24T13:39:56.998Z</time></trkpt><trkpt lat="42.514193591007704" lon="11.610593428438166"><ele>126.0</ele><time>2026-04-24T13:39:57.999Z</time></trkpt><trkpt lat="42.51412087595286" lon="11.610662908603949"><ele>126.0</ele><time>2026-04-24T13:39:58.999Z</time></trkpt><trkpt lat="42.51405000209292" lon="11.61075097777795"><ele>126.0</ele><time>2026-04-24T13:39:59.999Z</time></trkpt><trkpt lat="42.513970149317714" lon="11.610834692870453"><ele>126.0</ele><time>2026-04-24T13:40:00.999Z</time></trkpt><trkpt lat="42.51388757315727" lon="11.610913170355387"><ele>126.0</ele><time>2026-04-24T13:40:01.999Z</time></trkpt><trkpt lat="42.5138003326798" lon="11.610998727721903"><ele>126.0</ele><time>2026-04-24T13:40:02.999Z</time></trkpt><trkpt lat="42.51371479009681" lon="11.611092699097377"><ele>126.75</ele><time>2026-04-24T13:40:03.999Z</time></trkpt><trkpt lat="42.513630331215026" lon="11.611184720970446"><ele>127.5</ele><time>2026-04-24T13:40:04.999Z</time></trkpt><trkpt lat="42.513548111549476" lon="11.611267419196963"><ele>128.25</ele><time>2026-04-24T13:40:05.999Z</time></trkpt><trkpt lat="42.513466946842854" lon="11.611372398822716"><ele>129.0</ele><time>2026-04-24T13:40:06.999Z</time></trkpt><trkpt lat="42.513397314182654" lon="11.611522557636848"><ele>129.0</ele><time>2026-04-24T13:40:07.999Z</time></trkpt><trkpt lat="42.51333879355822" lon="11.611655048914571"><ele>129.0</ele><time>2026-04-24T13:40:08.999Z</time></trkpt><trkpt lat="42.51326769810811" lon="11.611792208838"><ele>129.0</ele><time>2026-04-24T13:40:09.999Z</time></trkpt><trkpt lat="42.51318930979579" lon="11.611940404167818"><ele>129.0</ele><time>2026-04-24T13:40:10.999Z</time></trkpt><trkpt lat="42.513106218552416" lon="11.61207792238169"><ele>128.5</ele><time>2026-04-24T13:40:11.999Z</time></trkpt><trkpt lat="42.513023995964815" lon="11.612218555032845"><ele>128.0</ele><time>2026-04-24T13:40:12.999Z</time></trkpt><trkpt lat="42.51294429164863" lon="11.61235299979521"><ele>127.5</ele><time>2026-04-24T13:40:13.999Z</time></trkpt><trkpt lat="42.51284631921804" lon="11.612473237863696"><ele>127.0</ele><time>2026-04-24T13:40:14.999Z</time></trkpt><trkpt lat="42.51275776814632" lon="11.61258586485441"><ele>127.0</ele><time>2026-04-24T13:40:15.999Z</time></trkpt><trkpt lat="42.51266216554725" lon="11.61262632123094"><ele>126.99999999999999</ele><time>2026-04-24T13:40:16.999Z</time></trkpt><trkpt lat="42.512566434609944" lon="11.612677456474913"><ele>126.99999999999999</ele><time>2026-04-24T13:40:17.999Z</time></trkpt><trkpt lat="42.51247404577502" lon="11.612688155070527"><ele>127.0</ele><time>2026-04-24T13:40:18.999Z</time></trkpt><trkpt lat="42.51239201505563" lon="11.612682036172652"><ele>127.0</ele><time>2026-04-24T13:40:19.999Z</time></trkpt><trkpt lat="42.51231664596333" lon="11.612665152639032"><ele>127.0</ele><time>2026-04-24T13:40:20.999Z</time></trkpt><trkpt lat="42.512252159757345" lon="11.612609033681382"><ele>126.99999999999999</ele><time>2026-04-24T13:40:21.999Z</time></trkpt><trkpt lat="42.51217239170307" lon="11.612555905206612"><ele>126.99999999999999</ele><time>2026-04-24T13:40:22.999Z</time></trkpt><trkpt lat="42.51207103885799" lon="11.61250023808908"><ele>127.0</ele><time>2026-04-24T13:40:23.999Z</time></trkpt><trkpt lat="42.511939889828994" lon="11.61244133733755"><ele>127.0</ele><time>2026-04-24T13:40:24.999Z</time></trkpt><trkpt lat="42.51184896766386" lon="11.612408045213504"><ele>127.19999999999999</ele><time>2026-04-24T13:40:25.999Z</time></trkpt><trkpt lat="42.51175399731822" lon="11.61239367025667"><ele>127.39999999999999</ele><time>2026-04-24T13:40:26.999Z</time></trkpt><trkpt lat="42.51163759737462" lon="11.61245080344415"><ele>127.60000000000001</ele><time>2026-04-24T13:40:27.999Z</time></trkpt><trkpt lat="42.51155052471379" lon="11.61250244337486"><ele>127.80000000000001</ele><time>2026-04-24T13:40:28.999Z</time></trkpt><trkpt lat="42.511452200126854" lon="11.612593754265752"><ele>128.0</ele><time>2026-04-24T13:40:29.999Z</time></trkpt><trkpt lat="42.51135079104424" lon="11.612678231388756"><ele>127.25</ele><time>2026-04-24T13:40:30.999Z</time></trkpt><trkpt lat="42.51122461532511" lon="11.61272960846092"><ele>126.5</ele><time>2026-04-24T13:40:31.999Z</time></trkpt><trkpt lat="42.511094532192175" lon="11.612815408085382"><ele>125.75</ele><time>2026-04-24T13:40:32.999Z</time></trkpt><trkpt lat="42.51095252569082" lon="11.61290203809337"><ele>125.0</ele><time>2026-04-24T13:40:33.999Z</time></trkpt><trkpt lat="42.510786336164344" lon="11.6129959743389"><ele>125.0</ele><time>2026-04-24T13:40:34.999Z</time></trkpt><trkpt lat="42.51063124809038" lon="11.613072283851729"><ele>125.0</ele><time>2026-04-24T13:40:35.999Z</time></trkpt><trkpt lat="42.51048514264471" lon="11.61314194667865"><ele>125.0</ele><time>2026-04-24T13:40:36.999Z</time></trkpt><trkpt lat="42.51033975092137" lon="11.613193015679537"><ele>125.2</ele><time>2026-04-24T13:40:37.999Z</time></trkpt><trkpt lat="42.51022399520423" lon="11.613236004447288"><ele>125.4</ele><time>2026-04-24T13:40:38.999Z</time></trkpt><trkpt lat="42.51013861408372" lon="11.613251489823062"><ele>125.6</ele><time>2026-04-24T13:40:39.999Z</time></trkpt><trkpt lat="42.51005482702854" lon="11.613197478561197"><ele>125.8</ele><time>2026-04-24T13:40:40.999Z</time></trkpt><trkpt lat="42.5099729758034" lon="11.613143591328123"><ele>126.0</ele><time>2026-04-24T13:40:41.999Z</time></trkpt><trkpt lat="42.50989402608217" lon="11.613084280457448"><ele>126.0</ele><time>2026-04-24T13:40:42.999Z</time></trkpt><trkpt lat="42.50979589893626" lon="11.613009070218752"><ele>126.0</ele><time>2026-04-24T13:40:43.999Z</time></trkpt><trkpt lat="42.50968251731903" lon="11.612921604502647"><ele>126.0</ele><time>2026-04-24T13:40:44.999Z</time></trkpt><trkpt lat="42.509559292813655" lon="11.612813622993649"><ele>126.0</ele><time>2026-04-24T13:40:45.999Z</time></trkpt><trkpt lat="42.50942602324424" lon="11.612698925517691"><ele>131.33333333333334</ele><time>2026-04-24T13:40:46.999Z</time></trkpt><trkpt lat="42.50928236087424" lon="11.612596675511194"><ele>136.66666666666669</ele><time>2026-04-24T13:40:47.999Z</time></trkpt><trkpt lat="42.509146318312226" lon="11.612477078623218"><ele>142.0</ele><time>2026-04-24T13:40:48.999Z</time></trkpt><trkpt lat="42.50901163834426" lon="11.612411644213887"><ele>142.0</ele><time>2026-04-24T13:40:49.999Z</time></trkpt><trkpt lat="42.5088985596347" lon="11.612342860976094"><ele>142.0</ele><time>2026-04-24T13:40:50.999Z</time></trkpt><trkpt lat="42.50878561300101" lon="11.612270633358559"><ele>142.0</ele><time>2026-04-24T13:40:51.999Z</time></trkpt><trkpt lat="42.5086683384291" lon="11.612169296032812"><ele>142.0</ele><time>2026-04-24T13:40:52.999Z</time></trkpt><trkpt lat="42.50852613992223" lon="11.612115481340725"><ele>140.5</ele><time>2026-04-24T13:40:53.999Z</time></trkpt><trkpt lat="42.50840582760011" lon="11.612037047798998"><ele>139.0</ele><time>2026-04-24T13:40:54.999Z</time></trkpt><trkpt lat="42.508293663096865" lon="11.611927820269628"><ele>137.5</ele><time>2026-04-24T13:40:55.999Z</time></trkpt><trkpt lat="42.508174380660215" lon="11.611810875264318"><ele>136.0</ele><time>2026-04-24T13:40:56.999Z</time></trkpt><trkpt lat="42.508078709597854" lon="11.61169729165608"><ele>138.75</ele><time>2026-04-24T13:40:57.999Z</time></trkpt><trkpt lat="42.50798770006147" lon="11.611571281763272"><ele>141.5</ele><time>2026-04-24T13:40:58.999Z</time></trkpt><trkpt lat="42.50789229707859" lon="11.611438964151334"><ele>144.25</ele><time>2026-04-24T13:41:00Z</time></trkpt><trkpt lat="42.507791217806385" lon="11.61129397211101"><ele>147.0</ele><time>2026-04-24T13:41:01Z</time></trkpt><trkpt lat="42.50770298510007" lon="11.611149710142099"><ele>147.33333333333334</ele><time>2026-04-24T13:41:02Z</time></trkpt><trkpt lat="42.50761990458947" lon="11.610997287025835"><ele>147.66666666666669</ele><time>2026-04-24T13:41:03Z</time></trkpt><trkpt lat="42.50753210425158" lon="11.610826069861522"><ele>148.0</ele><time>2026-04-24T13:41:04Z</time></trkpt><trkpt lat="42.50744161421391" lon="11.610642617710125"><ele>148.0</ele><time>2026-04-24T13:41:05Z</time></trkpt><trkpt lat="42.50734911472563" lon="11.61046542584084"><ele>148.0</ele><time>2026-04-24T13:41:06Z</time></trkpt><trkpt lat="42.507268960216734" lon="11.610310705872575"><ele>148.0</ele><time>2026-04-24T13:41:07Z</time></trkpt><trkpt lat="42.507192561821256" lon="11.610167680552623"><ele>148.0</ele><time>2026-04-24T13:41:08Z</time></trkpt><trkpt lat="42.507118688716325" lon="11.610056296952825"><ele>147.6</ele><time>2026-04-24T13:41:09Z</time></trkpt><trkpt lat="42.50704251478583" lon="11.609935944529232"><ele>147.20000000000002</ele><time>2026-04-24T13:41:10Z</time></trkpt><trkpt lat="42.50698376453622" lon="11.609835331621358"><ele>146.8</ele><time>2026-04-24T13:41:11Z</time></trkpt><trkpt lat="42.50692658967371" lon="11.609725697457034"><ele>146.4</ele><time>2026-04-24T13:41:12Z</time></trkpt><trkpt lat="42.506879605345574" lon="11.60964230667924"><ele>146.0</ele><time>2026-04-24T13:41:13Z</time></trkpt><trkpt lat="42.50681535886155" lon="11.60956500372958"><ele>146.0</ele><time>2026-04-24T13:41:14Z</time></trkpt><trkpt lat="42.50675164343211" lon="11.609537401448415"><ele>146.0</ele><time>2026-04-24T13:41:15Z</time></trkpt><trkpt lat="42.50668820341609" lon="11.609503031639619"><ele>146.0</ele><time>2026-04-24T13:41:16Z</time></trkpt><trkpt lat="42.506583350833736" lon="11.60946918152984"><ele>146.0</ele><time>2026-04-24T13:41:17Z</time></trkpt><trkpt lat="42.50648442227629" lon="11.609441643804086"><ele>146.0</ele><time>2026-04-24T13:41:18Z</time></trkpt><trkpt lat="42.50638501897203" lon="11.609427986386127"><ele>146.0</ele><time>2026-04-24T13:41:19Z</time></trkpt><trkpt lat="42.50628993849462" lon="11.609354736365885"><ele>148.83333333333331</ele><time>2026-04-24T13:41:20Z</time></trkpt><trkpt lat="42.50619164547678" lon="11.609302104344351"><ele>151.66666666666666</ele><time>2026-04-24T13:41:21Z</time></trkpt><trkpt lat="42.50612806565534" lon="11.609286358821716"><ele>154.5</ele><time>2026-04-24T13:41:22Z</time></trkpt><trkpt lat="42.506036362474205" lon="11.609272460334047"><ele>157.33333333333334</ele><time>2026-04-24T13:41:24Z</time></trkpt><trkpt lat="42.505987576056185" lon="11.609326455092683"><ele>160.16666666666669</ele><time>2026-04-24T13:41:25Z</time></trkpt><trkpt lat="42.505921704262505" lon="11.60945238976761"><ele>163.0</ele><time>2026-04-24T13:41:27Z</time></trkpt><trkpt lat="42.50593009971275" lon="11.609641211777006"><ele>163.0</ele><time>2026-04-24T13:41:29Z</time></trkpt><trkpt lat="42.50594642843901" lon="11.609782095388555"><ele>163.0</ele><time>2026-04-24T13:41:30Z</time></trkpt><trkpt lat="42.50598735239273" lon="11.609976510548686"><ele>163.0</ele><time>2026-04-24T13:41:31Z</time></trkpt><trkpt lat="42.50606018933068" lon="11.610184663575618"><ele>163.0</ele><time>2026-04-24T13:41:32Z</time></trkpt><trkpt lat="42.506135616130834" lon="11.610366938578208"><ele>166.25</ele><time>2026-04-24T13:41:33Z</time></trkpt><trkpt lat="42.506212005341325" lon="11.610540732122132"><ele>169.5</ele><time>2026-04-24T13:41:34Z</time></trkpt><trkpt lat="42.506297776568424" lon="11.610683599858879"><ele>172.75</ele><time>2026-04-24T13:41:35Z</time></trkpt><trkpt lat="42.50637476818074" lon="11.610844505858688"><ele>176.0</ele><time>2026-04-24T13:41:35.998Z</time></trkpt><trkpt lat="42.50645604920628" lon="11.611022730478647"><ele>175.0</ele><time>2026-04-24T13:41:36.998Z</time></trkpt><trkpt lat="42.50655964048152" lon="11.611174931016572"><ele>174.0</ele><time>2026-04-24T13:41:37.998Z</time></trkpt><trkpt lat="42.50665794897281" lon="11.6113132926469"><ele>173.0</ele><time>2026-04-24T13:41:38.998Z</time></trkpt><trkpt lat="42.50675640199656" lon="11.611443411906075"><ele>172.0</ele><time>2026-04-24T13:41:39.998Z</time></trkpt><trkpt lat="42.506830521925195" lon="11.611594611809876"><ele>172.0</ele><time>2026-04-24T13:41:40.998Z</time></trkpt><trkpt lat="42.506894013368786" lon="11.611755167832362"><ele>172.0</ele><time>2026-04-24T13:41:41.998Z</time></trkpt><trkpt lat="42.50695813794761" lon="11.611913968605217"><ele>172.0</ele><time>2026-04-24T13:41:42.998Z</time></trkpt><trkpt lat="42.50699396548989" lon="11.612058363030137"><ele>172.0</ele><time>2026-04-24T13:41:43.998Z</time></trkpt><trkpt lat="42.507024950097005" lon="11.612203830470877"><ele>174.0</ele><time>2026-04-24T13:41:44.998Z</time></trkpt><trkpt lat="42.507046407315876" lon="11.612342585184718"><ele>176.0</ele><time>2026-04-24T13:41:45.998Z</time></trkpt><trkpt lat="42.507060809387205" lon="11.612503387411438"><ele>178.0</ele><time>2026-04-24T13:41:46.998Z</time></trkpt><trkpt lat="42.50704174693974" lon="11.612641761998994"><ele>180.0</ele><time>2026-04-24T13:41:47.998Z</time></trkpt><trkpt lat="42.507024078779" lon="11.612747573250685"><ele>182.0</ele><time>2026-04-24T13:41:48.998Z</time></trkpt><trkpt lat="42.50697362677786" lon="11.61283327129141"><ele>182.8</ele><time>2026-04-24T13:41:49.998Z</time></trkpt><trkpt lat="42.50691891624968" lon="11.612915182077387"><ele>183.6</ele><time>2026-04-24T13:41:50.998Z</time></trkpt><trkpt lat="42.506855791395644" lon="11.612961158849364"><ele>184.4</ele><time>2026-04-24T13:41:51.998Z</time></trkpt><trkpt lat="42.50673671766988" lon="11.613019357043061"><ele>185.20000000000002</ele><time>2026-04-24T13:41:52.998Z</time></trkpt><trkpt lat="42.5065753413648" lon="11.613085836545858"><ele>186.0</ele><time>2026-04-24T13:41:53.998Z</time></trkpt><trkpt lat="42.50644510405555" lon="11.61313249347563"><ele>186.0</ele><time>2026-04-24T13:41:54.998Z</time></trkpt><trkpt lat="42.50631292874383" lon="11.613167021849254"><ele>186.0</ele><time>2026-04-24T13:41:55.998Z</time></trkpt><trkpt lat="42.50617749796042" lon="11.613219255882429"><ele>186.0</ele><time>2026-04-24T13:41:56.998Z</time></trkpt><trkpt lat="42.50607014552062" lon="11.613274206142542"><ele>186.0</ele><time>2026-04-24T13:41:57.998Z</time></trkpt><trkpt lat="42.505975442946145" lon="11.613338614475476"><ele>185.75</ele><time>2026-04-24T13:41:58.998Z</time></trkpt><trkpt lat="42.505878822302314" lon="11.613429151770834"><ele>185.5</ele><time>2026-04-24T13:41:59.999Z</time></trkpt><trkpt lat="42.50577334841625" lon="11.613531268336434"><ele>185.25</ele><time>2026-04-24T13:42:00.999Z</time></trkpt><trkpt lat="42.505670306007715" lon="11.613621801039322"><ele>185.0</ele><time>2026-04-24T13:42:01.999Z</time></trkpt><trkpt lat="42.505573781760006" lon="11.61372136033237"><ele>183.33333333333331</ele><time>2026-04-24T13:42:02.999Z</time></trkpt><trkpt lat="42.50546021458206" lon="11.613806443098527"><ele>181.66666666666666</ele><time>2026-04-24T13:42:03.999Z</time></trkpt><trkpt lat="42.50532503564163" lon="11.613911091168283"><ele>180.0</ele><time>2026-04-24T13:42:04.999Z</time></trkpt><trkpt lat="42.505181597277094" lon="11.61402473290777"><ele>180.0</ele><time>2026-04-24T13:42:05.999Z</time></trkpt><trkpt lat="42.50504584887052" lon="11.614131885750947"><ele>180.0</ele><time>2026-04-24T13:42:06.999Z</time></trkpt><trkpt lat="42.50490984174672" lon="11.614236592189778"><ele>180.0</ele><time>2026-04-24T13:42:07.999Z</time></trkpt><trkpt lat="42.50477663642548" lon="11.614335745441464"><ele>180.0</ele><time>2026-04-24T13:42:08.999Z</time></trkpt><trkpt lat="42.5046455444951" lon="11.614443722831108"><ele>180.0</ele><time>2026-04-24T13:42:09.999Z</time></trkpt><trkpt lat="42.504505823791725" lon="11.614550336278253"><ele>180.0</ele><time>2026-04-24T13:42:10.999Z</time></trkpt><trkpt lat="42.50436888718277" lon="11.61465760390551"><ele>178.33333333333334</ele><time>2026-04-24T13:42:11.999Z</time></trkpt><trkpt lat="42.504228653649974" lon="11.614767196945605"><ele>176.66666666666669</ele><time>2026-04-24T13:42:12.999Z</time></trkpt><trkpt lat="42.504090653727545" lon="11.614877239485894"><ele>175.0</ele><time>2026-04-24T13:42:13.999Z</time></trkpt><trkpt lat="42.50395813050125" lon="11.614987676994627"><ele>175.0</ele><time>2026-04-24T13:42:14.999Z</time></trkpt><trkpt lat="42.50382190576831" lon="11.615068539130375"><ele>175.0</ele><time>2026-04-24T13:42:15.999Z</time></trkpt><trkpt lat="42.503690539905634" lon="11.615166884757336"><ele>175.0</ele><time>2026-04-24T13:42:16.999Z</time></trkpt><trkpt lat="42.50356641386572" lon="11.615259810441255"><ele>175.0</ele><time>2026-04-24T13:42:17.999Z</time></trkpt><trkpt lat="42.50344558538148" lon="11.615350267371031"><ele>174.25</ele><time>2026-04-24T13:42:18.999Z</time></trkpt><trkpt lat="42.50333461939628" lon="11.615451652918683"><ele>173.5</ele><time>2026-04-24T13:42:19.999Z</time></trkpt><trkpt lat="42.503211229255975" lon="11.615539661850208"><ele>172.75</ele><time>2026-04-24T13:42:20.999Z</time></trkpt><trkpt lat="42.50306988773536" lon="11.615635114354818"><ele>172.0</ele><time>2026-04-24T13:42:21.999Z</time></trkpt><trkpt lat="42.50293319540926" lon="11.61574277721196"><ele>172.0</ele><time>2026-04-24T13:42:22.999Z</time></trkpt><trkpt lat="42.502805508244265" lon="11.61584899623216"><ele>172.0</ele><time>2026-04-24T13:42:23.999Z</time></trkpt><trkpt lat="42.50267240979622" lon="11.615968091956468"><ele>172.0</ele><time>2026-04-24T13:42:24.999Z</time></trkpt><trkpt lat="42.50254223861357" lon="11.616087991954945"><ele>172.0</ele><time>2026-04-24T13:42:25.999Z</time></trkpt><trkpt lat="42.502411821504744" lon="11.616209474681806"><ele>172.0</ele><time>2026-04-24T13:42:26.999Z</time></trkpt><trkpt lat="42.502296838131734" lon="11.616312449414266"><ele>172.0</ele><time>2026-04-24T13:42:27.999Z</time></trkpt><trkpt lat="42.50218482279699" lon="11.616409629978753"><ele>172.0</ele><time>2026-04-24T13:42:28.999Z</time></trkpt><trkpt lat="42.50205232137718" lon="11.616503206563904"><ele>172.0</ele><time>2026-04-24T13:42:29.999Z</time></trkpt><trkpt lat="42.501910549509695" lon="11.616580022359747"><ele>172.0</ele><time>2026-04-24T13:42:30.999Z</time></trkpt><trkpt lat="42.50177416692563" lon="11.616645310858551"><ele>172.0</ele><time>2026-04-24T13:42:31.999Z</time></trkpt><trkpt lat="42.501648487746145" lon="11.616702562368301"><ele>172.0</ele><time>2026-04-24T13:42:32.999Z</time></trkpt><trkpt lat="42.50152102594193" lon="11.616756284119145"><ele>172.0</ele><time>2026-04-24T13:42:33.999Z</time></trkpt><trkpt lat="42.501405670008914" lon="11.616803358838949"><ele>172.0</ele><time>2026-04-24T13:42:34.999Z</time></trkpt><trkpt lat="42.50129025041834" lon="11.616850012965811"><ele>172.0</ele><time>2026-04-24T13:42:35.999Z</time></trkpt><trkpt lat="42.501168228803444" lon="11.61688628163231"><ele>172.0</ele><time>2026-04-24T13:42:36.999Z</time></trkpt><trkpt lat="42.50104603879257" lon="11.616879281942737"><ele>171.5</ele><time>2026-04-24T13:42:37.999Z</time></trkpt><trkpt lat="42.50091827322029" lon="11.6168888673434"><ele>171.0</ele><time>2026-04-24T13:42:38.999Z</time></trkpt><trkpt lat="42.500769911651666" lon="11.616894106698263"><ele>170.5</ele><time>2026-04-24T13:42:39.999Z</time></trkpt><trkpt lat="42.500619986959535" lon="11.616885346305132"><ele>170.0</ele><time>2026-04-24T13:42:40.999Z</time></trkpt><trkpt lat="42.50047031567579" lon="11.616871604667946"><ele>169.25</ele><time>2026-04-24T13:42:41.999Z</time></trkpt><trkpt lat="42.50032302257369" lon="11.616884736087261"><ele>168.5</ele><time>2026-04-24T13:42:42.999Z</time></trkpt><trkpt lat="42.50018707350259" lon="11.616868207450665"><ele>167.75</ele><time>2026-04-24T13:42:43.999Z</time></trkpt><trkpt lat="42.500050137441306" lon="11.616857104716992"><ele>167.0</ele><time>2026-04-24T13:42:44.999Z</time></trkpt><trkpt lat="42.49991715782035" lon="11.61684196339078"><ele>167.0</ele><time>2026-04-24T13:42:46Z</time></trkpt><trkpt lat="42.49979019684045" lon="11.616833205231995"><ele>167.0</ele><time>2026-04-24T13:42:47Z</time></trkpt><trkpt lat="42.49966728485326" lon="11.616841613424118"><ele>167.0</ele><time>2026-04-24T13:42:48Z</time></trkpt><trkpt lat="42.499542981737655" lon="11.616845100296766"><ele>167.0</ele><time>2026-04-24T13:42:49Z</time></trkpt><trkpt lat="42.49940886507224" lon="11.616836892563391"><ele>166.5</ele><time>2026-04-24T13:42:50Z</time></trkpt><trkpt lat="42.499263577896606" lon="11.616818258282754"><ele>166.0</ele><time>2026-04-24T13:42:51Z</time></trkpt><trkpt lat="42.49911414654663" lon="11.61680158403062"><ele>165.5</ele><time>2026-04-24T13:42:52Z</time></trkpt><trkpt lat="42.498967527998026" lon="11.616784619437974"><ele>165.0</ele><time>2026-04-24T13:42:53Z</time></trkpt><trkpt lat="42.49882568433445" lon="11.616764888480915"><ele>163.5</ele><time>2026-04-24T13:42:54Z</time></trkpt><trkpt lat="42.49869543213282" lon="11.6167378392991"><ele>162.0</ele><time>2026-04-24T13:42:55Z</time></trkpt><trkpt lat="42.49855956364997" lon="11.616714436401683"><ele>160.5</ele><time>2026-04-24T13:42:56Z</time></trkpt><trkpt lat="42.49842260687316" lon="11.616682637342588"><ele>159.0</ele><time>2026-04-24T13:42:57Z</time></trkpt><trkpt lat="42.49828549603868" lon="11.616663773517324"><ele>159.0</ele><time>2026-04-24T13:42:58Z</time></trkpt><trkpt lat="42.49817198799843" lon="11.616647196731739"><ele>159.0</ele><time>2026-04-24T13:42:59Z</time></trkpt><trkpt lat="42.49804899389843" lon="11.61664312331362"><ele>159.0</ele><time>2026-04-24T13:43:00Z</time></trkpt><trkpt lat="42.49792829757113" lon="11.61665131688023"><ele>159.0</ele><time>2026-04-24T13:43:01Z</time></trkpt><trkpt lat="42.497805822748575" lon="11.61667169481772"><ele>159.5</ele><time>2026-04-24T13:43:02Z</time></trkpt><trkpt lat="42.49768215077432" lon="11.616661352767284"><ele>160.0</ele><time>2026-04-24T13:43:03Z</time></trkpt><trkpt lat="42.49753216537985" lon="11.616655359666039"><ele>160.5</ele><time>2026-04-24T13:43:04Z</time></trkpt><trkpt lat="42.49738436666615" lon="11.616647651388464"><ele>161.0</ele><time>2026-04-24T13:43:05Z</time></trkpt><trkpt lat="42.49723502406216" lon="11.616635074513033"><ele>161.0</ele><time>2026-04-24T13:43:06Z</time></trkpt><trkpt lat="42.49710090298813" lon="11.616620230382226"><ele>161.0</ele><time>2026-04-24T13:43:07Z</time></trkpt><trkpt lat="42.49697509137367" lon="11.616606449659681"><ele>161.0</ele><time>2026-04-24T13:43:08Z</time></trkpt><trkpt lat="42.49685477251941" lon="11.616596685556049"><ele>161.0</ele><time>2026-04-24T13:43:09Z</time></trkpt><trkpt lat="42.49672415013226" lon="11.616602424769757"><ele>156.66666666666666</ele><time>2026-04-24T13:43:10Z</time></trkpt><trkpt lat="42.49655295316403" lon="11.616585967287786"><ele>152.33333333333334</ele><time>2026-04-24T13:43:11Z</time></trkpt><trkpt lat="42.49638058173893" lon="11.616577020361355"><ele>148.0</ele><time>2026-04-24T13:43:12Z</time></trkpt><trkpt lat="42.496242718034175" lon="11.616576244666039"><ele>147.0</ele><time>2026-04-24T13:43:13Z</time></trkpt><trkpt lat="42.49611222951885" lon="11.616595279216218"><ele>146.0</ele><time>2026-04-24T13:43:14Z</time></trkpt><trkpt lat="42.49598331661771" lon="11.616632765909603"><ele>145.0</ele><time>2026-04-24T13:43:15Z</time></trkpt><trkpt lat="42.495843319672595" lon="11.616688360650562"><ele>144.0</ele><time>2026-04-24T13:43:16Z</time></trkpt><trkpt lat="42.49569482804725" lon="11.616758209961652"><ele>144.0</ele><time>2026-04-24T13:43:17Z</time></trkpt><trkpt lat="42.49554705685897" lon="11.616842326349742"><ele>144.0</ele><time>2026-04-24T13:43:18Z</time></trkpt><trkpt lat="42.49539878705759" lon="11.616905441193616"><ele>144.0</ele><time>2026-04-24T13:43:19Z</time></trkpt><trkpt lat="42.495257522498406" lon="11.616955661255794"><ele>144.25</ele><time>2026-04-24T13:43:20Z</time></trkpt><trkpt lat="42.495134188091896" lon="11.616989005783251"><ele>144.5</ele><time>2026-04-24T13:43:21Z</time></trkpt><trkpt lat="42.49501312720234" lon="11.61701560156098"><ele>144.75</ele><time>2026-04-24T13:43:22Z</time></trkpt><trkpt lat="42.49489516762515" lon="11.617032906856549"><ele>145.0</ele><time>2026-04-24T13:43:23Z</time></trkpt><trkpt lat="42.49477182208136" lon="11.617042968445578"><ele>145.0</ele><time>2026-04-24T13:43:24Z</time></trkpt><trkpt lat="42.49467259901586" lon="11.617041587719871"><ele>145.0</ele><time>2026-04-24T13:43:25Z</time></trkpt><trkpt lat="42.494573332389926" lon="11.61703906185536"><ele>145.0</ele><time>2026-04-24T13:43:26Z</time></trkpt><trkpt lat="42.4944664970074" lon="11.617027949408978"><ele>145.0</ele><time>2026-04-24T13:43:27Z</time></trkpt><trkpt lat="42.49436221141347" lon="11.61700905311467"><ele>145.0</ele><time>2026-04-24T13:43:28Z</time></trkpt><trkpt lat="42.494241022547975" lon="11.616994633275713"><ele>147.66666666666669</ele><time>2026-04-24T13:43:29Z</time></trkpt><trkpt lat="42.494101982540876" lon="11.616925505277742"><ele>150.33333333333334</ele><time>2026-04-24T13:43:30Z</time></trkpt><trkpt lat="42.493950501757475" lon="11.616844726338488"><ele>153.0</ele><time>2026-04-24T13:43:31Z</time></trkpt><trkpt lat="42.493797138423474" lon="11.616773580279817"><ele>151.0</ele><time>2026-04-24T13:43:32Z</time></trkpt><trkpt lat="42.49364038056751" lon="11.61671092600416"><ele>149.0</ele><time>2026-04-24T13:43:33Z</time></trkpt><trkpt lat="42.493483177600815" lon="11.61664190210555"><ele>147.0</ele><time>2026-04-24T13:43:34Z</time></trkpt><trkpt lat="42.49333334586603" lon="11.616590858528939"><ele>147.0</ele><time>2026-04-24T13:43:35Z</time></trkpt><trkpt lat="42.49321650842064" lon="11.616545629401482"><ele>147.0</ele><time>2026-04-24T13:43:36Z</time></trkpt><trkpt lat="42.493100000871486" lon="11.616514507870347"><ele>147.0</ele><time>2026-04-24T13:43:37Z</time></trkpt><trkpt lat="42.492994839076815" lon="11.616510281230617"><ele>147.0</ele><time>2026-04-24T13:43:38Z</time></trkpt><trkpt lat="42.492876880790135" lon="11.616530038767099"><ele>146.25</ele><time>2026-04-24T13:43:39Z</time></trkpt><trkpt lat="42.49274674688096" lon="11.616580949469679"><ele>145.5</ele><time>2026-04-24T13:43:40Z</time></trkpt><trkpt lat="42.492623229090164" lon="11.61663524494336"><ele>144.75</ele><time>2026-04-24T13:43:41Z</time></trkpt><trkpt lat="42.492507303038394" lon="11.616681195854957"><ele>144.0</ele><time>2026-04-24T13:43:41.999Z</time></trkpt><trkpt lat="42.492414817682345" lon="11.61671560681361"><ele>144.0</ele><time>2026-04-24T13:43:42.999Z</time></trkpt><trkpt lat="42.49232205375695" lon="11.616740032365529"><ele>144.0</ele><time>2026-04-24T13:43:43.999Z</time></trkpt><trkpt lat="42.49223319527081" lon="11.61675544128245"><ele>144.0</ele><time>2026-04-24T13:43:44.999Z</time></trkpt><trkpt lat="42.492154684128856" lon="11.616718611052951"><ele>144.0</ele><time>2026-04-24T13:43:45.999Z</time></trkpt><trkpt lat="42.492086798895905" lon="11.616673392239042"><ele>144.0</ele><time>2026-04-24T13:43:46.999Z</time></trkpt><trkpt lat="42.49204439734929" lon="11.616596301468778"><ele>144.0</ele><time>2026-04-24T13:43:47.999Z</time></trkpt><trkpt lat="42.491932830358415" lon="11.616597851495065"><ele>142.2</ele><time>2026-04-24T13:43:48.999Z</time></trkpt><trkpt lat="42.491879036171085" lon="11.616489713041224"><ele>140.4</ele><time>2026-04-24T13:43:49.999Z</time></trkpt><trkpt lat="42.49183281089885" lon="11.616370775751795"><ele>138.6</ele><time>2026-04-24T13:43:50.999Z</time></trkpt><trkpt lat="42.49180607900083" lon="11.616219407208204"><ele>136.8</ele><time>2026-04-24T13:43:51.999Z</time></trkpt><trkpt lat="42.49177735767097" lon="11.61607463704619"><ele>135.0</ele><time>2026-04-24T13:43:52.999Z</time></trkpt><trkpt lat="42.49172065604883" lon="11.615957453772033"><ele>134.6</ele><time>2026-04-24T13:43:53.999Z</time></trkpt><trkpt lat="42.491657446329555" lon="11.615866387270254"><ele>134.2</ele><time>2026-04-24T13:43:54.999Z</time></trkpt><trkpt lat="42.49160243725355" lon="11.615766155158536"><ele>133.8</ele><time>2026-04-24T13:43:55.999Z</time></trkpt><trkpt lat="42.49155996225804" lon="11.615650663331886"><ele>133.4</ele><time>2026-04-24T13:43:56.999Z</time></trkpt><trkpt lat="42.4915035839727" lon="11.615558690642956"><ele>133.0</ele><time>2026-04-24T13:43:57.999Z</time></trkpt><trkpt lat="42.491441954699134" lon="11.615467640185825"><ele>133.0</ele><time>2026-04-24T13:43:58.999Z</time></trkpt><trkpt lat="42.49138801060363" lon="11.61538123337832"><ele>133.0</ele><time>2026-04-24T13:43:59.999Z</time></trkpt><trkpt lat="42.491338075540874" lon="11.615295730559524"><ele>133.0</ele><time>2026-04-24T13:44:00.999Z</time></trkpt><trkpt lat="42.49128561479014" lon="11.615212062379383"><ele>133.0</ele><time>2026-04-24T13:44:01.999Z</time></trkpt><trkpt lat="42.4912337273103" lon="11.615125900064125"><ele>133.0</ele><time>2026-04-24T13:44:02.999Z</time></trkpt><trkpt lat="42.49117865279109" lon="11.6150282730485"><ele>133.0</ele><time>2026-04-24T13:44:03.999Z</time></trkpt><trkpt lat="42.49112502697893" lon="11.614909564358669"><ele>131.0</ele><time>2026-04-24T13:44:04.999Z</time></trkpt><trkpt lat="42.49107560210694" lon="11.614778587374591"><ele>129.0</ele><time>2026-04-24T13:44:05.999Z</time></trkpt><trkpt lat="42.49102106092537" lon="11.614656820263972"><ele>127.00000000000001</ele><time>2026-04-24T13:44:06.999Z</time></trkpt><trkpt lat="42.49096783726993" lon="11.614540945959181"><ele>125.0</ele><time>2026-04-24T13:44:07.999Z</time></trkpt><trkpt lat="42.49090782879045" lon="11.614406751161626"><ele>123.0</ele><time>2026-04-24T13:44:08.999Z</time></trkpt><trkpt lat="42.49086882681399" lon="11.614262373699903"><ele>123.0</ele><time>2026-04-24T13:44:09.999Z</time></trkpt><trkpt lat="42.49081469568583" lon="11.614135796443016"><ele>123.0</ele><time>2026-04-24T13:44:10.999Z</time></trkpt><trkpt lat="42.490751892154016" lon="11.613986461370052"><ele>123.0</ele><time>2026-04-24T13:44:11.999Z</time></trkpt><trkpt lat="42.49069460891238" lon="11.613862105956715"><ele>123.0</ele><time>2026-04-24T13:44:12.999Z</time></trkpt><trkpt lat="42.490644667976305" lon="11.613729733827094"><ele>122.4</ele><time>2026-04-24T13:44:14Z</time></trkpt><trkpt lat="42.49059247534311" lon="11.613613770718846"><ele>121.80000000000001</ele><time>2026-04-24T13:44:15Z</time></trkpt><trkpt lat="42.49053371050184" lon="11.613499237161259"><ele>121.2</ele><time>2026-04-24T13:44:16Z</time></trkpt><trkpt lat="42.49045274680713" lon="11.613417976399784"><ele>120.6</ele><time>2026-04-24T13:44:17Z</time></trkpt><trkpt lat="42.49036850412649" lon="11.613389751845927"><ele>120.0</ele><time>2026-04-24T13:44:18Z</time></trkpt><trkpt lat="42.49024273062424" lon="11.613381820502697"><ele>120.0</ele><time>2026-04-24T13:44:20Z</time></trkpt><trkpt lat="42.49016734363726" lon="11.613403281408184"><ele>120.0</ele><time>2026-04-24T13:44:21Z</time></trkpt><trkpt lat="42.49008952740307" lon="11.6134434382914"><ele>120.0</ele><time>2026-04-24T13:44:22Z</time></trkpt><trkpt lat="42.490010705241076" lon="11.613509449075915"><ele>120.0</ele><time>2026-04-24T13:44:23Z</time></trkpt><trkpt lat="42.489943930865024" lon="11.613576774177444"><ele>120.0</ele><time>2026-04-24T13:44:24Z</time></trkpt><trkpt lat="42.489900381062135" lon="11.613684349489308"><ele>120.0</ele><time>2026-04-24T13:44:25Z</time></trkpt><trkpt lat="42.489834728713504" lon="11.61382923763342"><ele>118.6</ele><time>2026-04-24T13:44:26Z</time></trkpt><trkpt lat="42.48976043893867" lon="11.613962708230742"><ele>117.2</ele><time>2026-04-24T13:44:27Z</time></trkpt><trkpt lat="42.4896835277958" lon="11.614052548871062"><ele>115.80000000000001</ele><time>2026-04-24T13:44:28Z</time></trkpt><trkpt lat="42.489603379252365" lon="11.614133986586868"><ele>114.4</ele><time>2026-04-24T13:44:29Z</time></trkpt><trkpt lat="42.48951738769829" lon="11.614191397313284"><ele>113.0</ele><time>2026-04-24T13:44:30Z</time></trkpt><trkpt lat="42.48940499159137" lon="11.614253151203288"><ele>113.0</ele><time>2026-04-24T13:44:31Z</time></trkpt><trkpt lat="42.48930446682856" lon="11.614306569608983"><ele>113.0</ele><time>2026-04-24T13:44:32Z</time></trkpt><trkpt lat="42.48920044471625" lon="11.614339031518064"><ele>113.0</ele><time>2026-04-24T13:44:33Z</time></trkpt><trkpt lat="42.489094162230984" lon="11.614392100209914"><ele>113.0</ele><time>2026-04-24T13:44:34Z</time></trkpt><trkpt lat="42.4889798293038" lon="11.614466250201854"><ele>112.80000000000001</ele><time>2026-04-24T13:44:35Z</time></trkpt><trkpt lat="42.48887058386997" lon="11.614531168272425"><ele>112.60000000000001</ele><time>2026-04-24T13:44:36Z</time></trkpt><trkpt lat="42.488765559987996" lon="11.614592607146808"><ele>112.39999999999999</ele><time>2026-04-24T13:44:37Z</time></trkpt><trkpt lat="42.488670314514046" lon="11.614661073155911"><ele>112.19999999999999</ele><time>2026-04-24T13:44:38Z</time></trkpt><trkpt lat="42.48858369930991" lon="11.614747846515957"><ele>112.0</ele><time>2026-04-24T13:44:39Z</time></trkpt><trkpt lat="42.48849078604284" lon="11.614833858823918"><ele>112.0</ele><time>2026-04-24T13:44:40Z</time></trkpt><trkpt lat="42.488392287644196" lon="11.614914925472892"><ele>111.99999999999999</ele><time>2026-04-24T13:44:41Z</time></trkpt><trkpt lat="42.488299488311476" lon="11.614964754464356"><ele>111.99999999999999</ele><time>2026-04-24T13:44:42Z</time></trkpt><trkpt lat="42.488207642233824" lon="11.614971869052432"><ele>112.0</ele><time>2026-04-24T13:44:43Z</time></trkpt><trkpt lat="42.48812037874424" lon="11.614970097731542"><ele>112.0</ele><time>2026-04-24T13:44:44Z</time></trkpt><trkpt lat="42.48803533952717" lon="11.614931991604337"><ele>112.0</ele><time>2026-04-24T13:44:45Z</time></trkpt><trkpt lat="42.48794897664884" lon="11.6148827861162"><ele>111.99999999999999</ele><time>2026-04-24T13:44:46Z</time></trkpt><trkpt lat="42.4878614045354" lon="11.614820079986444"><ele>111.99999999999999</ele><time>2026-04-24T13:44:47Z</time></trkpt><trkpt lat="42.48777232180334" lon="11.614732515542013"><ele>112.0</ele><time>2026-04-24T13:44:48Z</time></trkpt><trkpt lat="42.48768217253318" lon="11.614623528113292"><ele>112.0</ele><time>2026-04-24T13:44:49Z</time></trkpt><trkpt lat="42.48761129029685" lon="11.61452528712873"><ele>112.8</ele><time>2026-04-24T13:44:50Z</time></trkpt><trkpt lat="42.48754994925618" lon="11.614428317821284"><ele>113.6</ele><time>2026-04-24T13:44:51Z</time></trkpt><trkpt lat="42.4875018890181" lon="11.614324241557886"><ele>114.39999999999999</ele><time>2026-04-24T13:44:52Z</time></trkpt><trkpt lat="42.48745339341342" lon="11.614202146387536"><ele>115.19999999999999</ele><time>2026-04-24T13:44:53Z</time></trkpt><trkpt lat="42.48741567492109" lon="11.614064733550446"><ele>116.0</ele><time>2026-04-24T13:44:54Z</time></trkpt><trkpt lat="42.48735421884668" lon="11.613939225692866"><ele>116.0</ele><time>2026-04-24T13:44:55Z</time></trkpt><trkpt lat="42.48725609364069" lon="11.613876489697667"><ele>116.0</ele><time>2026-04-24T13:44:56Z</time></trkpt><trkpt lat="42.48716946008464" lon="11.613800923001891"><ele>116.0</ele><time>2026-04-24T13:44:57Z</time></trkpt><trkpt lat="42.48709200478902" lon="11.613728426776298"><ele>116.0</ele><time>2026-04-24T13:44:58Z</time></trkpt><trkpt lat="42.48702175634905" lon="11.61363291766517"><ele>116.0</ele><time>2026-04-24T13:44:59Z</time></trkpt><trkpt lat="42.486956599207204" lon="11.613509341630284"><ele>116.19999999999999</ele><time>2026-04-24T13:45:00Z</time></trkpt><trkpt lat="42.48688890714108" lon="11.613358154997604"><ele>116.39999999999999</ele><time>2026-04-24T13:45:01Z</time></trkpt><trkpt lat="42.4868394014749" lon="11.613222130419963"><ele>116.6</ele><time>2026-04-24T13:45:02Z</time></trkpt><trkpt lat="42.486802410999175" lon="11.613083812548227"><ele>116.8</ele><time>2026-04-24T13:45:03Z</time></trkpt><trkpt lat="42.486758856019634" lon="11.612967408575187"><ele>117.0</ele><time>2026-04-24T13:45:04Z</time></trkpt><trkpt lat="42.48669994775677" lon="11.612844120077192"><ele>119.0</ele><time>2026-04-24T13:45:05Z</time></trkpt><trkpt lat="42.48662781768211" lon="11.61274040590576"><ele>120.99999999999999</ele><time>2026-04-24T13:45:06Z</time></trkpt><trkpt lat="42.48654742915401" lon="11.612680589988583"><ele>122.99999999999999</ele><time>2026-04-24T13:45:07Z</time></trkpt><trkpt lat="42.486466749048574" lon="11.612629345177202"><ele>125.0</ele><time>2026-04-24T13:45:08Z</time></trkpt><trkpt lat="42.486371543832966" lon="11.6125669694391"><ele>127.0</ele><time>2026-04-24T13:45:09Z</time></trkpt><trkpt lat="42.48627508916553" lon="11.612507798637255"><ele>125.6</ele><time>2026-04-24T13:45:10.001Z</time></trkpt><trkpt lat="42.4861742899038" lon="11.612443553920215"><ele>124.19999999999999</ele><time>2026-04-24T13:45:11.001Z</time></trkpt><trkpt lat="42.48609946719917" lon="11.612379575693454"><ele>122.8</ele><time>2026-04-24T13:45:12.001Z</time></trkpt><trkpt lat="42.486035581671715" lon="11.612287410698569"><ele>121.4</ele><time>2026-04-24T13:45:13.001Z</time></trkpt><trkpt lat="42.48595285803055" lon="11.612168023842617"><ele>120.0</ele><time>2026-04-24T13:45:14.001Z</time></trkpt><trkpt lat="42.48585939544796" lon="11.612036278566267"><ele>122.25</ele><time>2026-04-24T13:45:15.001Z</time></trkpt><trkpt lat="42.48576347846355" lon="11.611898822819153"><ele>124.5</ele><time>2026-04-24T13:45:16.001Z</time></trkpt><trkpt lat="42.48566163676477" lon="11.611751792222602"><ele>126.75</ele><time>2026-04-24T13:45:17.001Z</time></trkpt><trkpt lat="42.48556891669949" lon="11.611618021274785"><ele>129.0</ele><time>2026-04-24T13:45:18.001Z</time></trkpt><trkpt lat="42.485476878245" lon="11.611515782080936"><ele>129.6</ele><time>2026-04-24T13:45:19.001Z</time></trkpt><trkpt lat="42.485417725729555" lon="11.611382350613534"><ele>130.2</ele><time>2026-04-24T13:45:20.001Z</time></trkpt><trkpt lat="42.485349333468456" lon="11.61127108368702"><ele>130.79999999999998</ele><time>2026-04-24T13:45:21.001Z</time></trkpt><trkpt lat="42.48528450358083" lon="11.611180427519633"><ele>131.4</ele><time>2026-04-24T13:45:22.001Z</time></trkpt><trkpt lat="42.48522509704017" lon="11.611095757987101"><ele>132.0</ele><time>2026-04-24T13:45:23.001Z</time></trkpt><trkpt lat="42.48517541228107" lon="11.61100660268646"><ele>132.0</ele><time>2026-04-24T13:45:24.001Z</time></trkpt><trkpt lat="42.48514443683293" lon="11.61089706481095"><ele>132.0</ele><time>2026-04-24T13:45:25.001Z</time></trkpt><trkpt lat="42.485100601835555" lon="11.610833010705447"><ele>132.0</ele><time>2026-04-24T13:45:26.001Z</time></trkpt><trkpt lat="42.48500107532489" lon="11.610809299248748"><ele>132.0</ele><time>2026-04-24T13:45:28.001Z</time></trkpt><trkpt lat="42.48491490860403" lon="11.610861943855554"><ele>132.0</ele><time>2026-04-24T13:45:29.001Z</time></trkpt><trkpt lat="42.484796293719285" lon="11.610865063939093"><ele>132.0</ele><time>2026-04-24T13:45:30.001Z</time></trkpt><trkpt lat="42.48468063792357" lon="11.610906201833512"><ele>132.0</ele><time>2026-04-24T13:45:31.001Z</time></trkpt><trkpt lat="42.48456348460115" lon="11.61092241114321"><ele>132.0</ele><time>2026-04-24T13:45:32.001Z</time></trkpt><trkpt lat="42.48440964204198" lon="11.610939340049235"><ele>132.0</ele><time>2026-04-24T13:45:33.001Z</time></trkpt><trkpt lat="42.48426993880682" lon="11.610946931797878"><ele>131.75</ele><time>2026-04-24T13:45:34.001Z</time></trkpt><trkpt lat="42.48413477303629" lon="11.610949861586963"><ele>131.5</ele><time>2026-04-24T13:45:35.001Z</time></trkpt><trkpt lat="42.48400241358829" lon="11.610949957061864"><ele>131.25</ele><time>2026-04-24T13:45:36.001Z</time></trkpt><trkpt lat="42.483875399867685" lon="11.610952214040845"><ele>131.0</ele><time>2026-04-24T13:45:37.001Z</time></trkpt><trkpt lat="42.483771644387005" lon="11.610948777877399"><ele>130.83333333333331</ele><time>2026-04-24T13:45:38.001Z</time></trkpt><trkpt lat="42.48369568582055" lon="11.610934452607301"><ele>130.66666666666666</ele><time>2026-04-24T13:45:39.001Z</time></trkpt><trkpt lat="42.483624488885816" lon="11.610920544149318"><ele>130.5</ele><time>2026-04-24T13:45:40.001Z</time></trkpt><trkpt lat="42.48355784364572" lon="11.610894892403369"><ele>130.33333333333334</ele><time>2026-04-24T13:45:41.001Z</time></trkpt><trkpt lat="42.48348021204631" lon="11.61083475451591"><ele>130.16666666666669</ele><time>2026-04-24T13:45:42.001Z</time></trkpt><trkpt lat="42.483388745132615" lon="11.610803068157965"><ele>130.0</ele><time>2026-04-24T13:45:43.001Z</time></trkpt><trkpt lat="42.48329986570775" lon="11.610764505909643"><ele>130.0</ele><time>2026-04-24T13:45:44.001Z</time></trkpt><trkpt lat="42.483211813350444" lon="11.610766914208583"><ele>130.0</ele><time>2026-04-24T13:45:45.001Z</time></trkpt><trkpt lat="42.48311739909946" lon="11.610788598092768"><ele>130.0</ele><time>2026-04-24T13:45:46.001Z</time></trkpt><trkpt lat="42.48301451382792" lon="11.610819642984945"><ele>130.0</ele><time>2026-04-24T13:45:47.001Z</time></trkpt><trkpt lat="42.482908624512326" lon="11.610820114807556"><ele>130.0</ele><time>2026-04-24T13:45:48Z</time></trkpt><trkpt lat="42.48280766627888" lon="11.610844519471605"><ele>130.0</ele><time>2026-04-24T13:45:48.999Z</time></trkpt><trkpt lat="42.48270751385728" lon="11.610880613406502"><ele>130.0</ele><time>2026-04-24T13:45:50Z</time></trkpt><trkpt lat="42.48260700739916" lon="11.610916543143814"><ele>130.0</ele><time>2026-04-24T13:45:51Z</time></trkpt><trkpt lat="42.48249903200556" lon="11.610965807046155"><ele>130.0</ele><time>2026-04-24T13:45:52Z</time></trkpt><trkpt lat="42.48239095008231" lon="11.611000683744644"><ele>130.0</ele><time>2026-04-24T13:45:53Z</time></trkpt><trkpt lat="42.482278031086615" lon="11.611018311218436"><ele>130.0</ele><time>2026-04-24T13:45:54Z</time></trkpt><trkpt lat="42.48216675281958" lon="11.611018880469622"><ele>130.0</ele><time>2026-04-24T13:45:55Z</time></trkpt><trkpt lat="42.482051375446126" lon="11.611011253318315"><ele>130.0</ele><time>2026-04-24T13:45:56Z</time></trkpt><trkpt lat="42.48193174634108" lon="11.610993391408275"><ele>130.0</ele><time>2026-04-24T13:45:57Z</time></trkpt><trkpt lat="42.481818348599056" lon="11.610966452601923"><ele>130.8</ele><time>2026-04-24T13:45:58Z</time></trkpt><trkpt lat="42.48171097565881" lon="11.610932195777323"><ele>131.6</ele><time>2026-04-24T13:45:59Z</time></trkpt><trkpt lat="42.48161456597044" lon="11.610908035270848"><ele>132.4</ele><time>2026-04-24T13:46:00Z</time></trkpt><trkpt lat="42.48153991372823" lon="11.610900804217904"><ele>133.2</ele><time>2026-04-24T13:46:01Z</time></trkpt><trkpt lat="42.481416388182275" lon="11.610880313409117"><ele>134.0</ele><time>2026-04-24T13:46:03Z</time></trkpt><trkpt lat="42.481353375697765" lon="11.610836322012048"><ele>134.0</ele><time>2026-04-24T13:46:04Z</time></trkpt><trkpt lat="42.48127990353718" lon="11.61081868051565"><ele>134.0</ele><time>2026-04-24T13:46:05Z</time></trkpt><trkpt lat="42.48120314274549" lon="11.610811673391124"><ele>134.0</ele><time>2026-04-24T13:46:06Z</time></trkpt><trkpt lat="42.48112826043855" lon="11.610798861454446"><ele>134.0</ele><time>2026-04-24T13:46:07Z</time></trkpt><trkpt lat="42.48104569233637" lon="11.610791578041756"><ele>134.0</ele><time>2026-04-24T13:46:08Z</time></trkpt><trkpt lat="42.480959566717566" lon="11.610801661716906"><ele>134.0</ele><time>2026-04-24T13:46:09Z</time></trkpt><trkpt lat="42.48086092453659" lon="11.610837329469243"><ele>134.0</ele><time>2026-04-24T13:46:10Z</time></trkpt><trkpt lat="42.480751564415826" lon="11.610888736201838"><ele>134.0</ele><time>2026-04-24T13:46:11Z</time></trkpt><trkpt lat="42.48062998932718" lon="11.610948042845362"><ele>134.0</ele><time>2026-04-24T13:46:12Z</time></trkpt><trkpt lat="42.480506962028514" lon="11.611001143329819"><ele>134.0</ele><time>2026-04-24T13:46:13Z</time></trkpt><trkpt lat="42.48040302777179" lon="11.611043766523967"><ele>134.5</ele><time>2026-04-24T13:46:14Z</time></trkpt><trkpt lat="42.480302377931686" lon="11.611087502198128"><ele>135.0</ele><time>2026-04-24T13:46:15Z</time></trkpt><trkpt lat="42.48020909675427" lon="11.611126882880953"><ele>135.5</ele><time>2026-04-24T13:46:16Z</time></trkpt><trkpt lat="42.4801312766791" lon="11.61116238220267"><ele>136.0</ele><time>2026-04-24T13:46:17Z</time></trkpt><trkpt lat="42.4800612821492" lon="11.61120272716151"><ele>136.5</ele><time>2026-04-24T13:46:18Z</time></trkpt><trkpt lat="42.479984131023585" lon="11.611238542552767"><ele>137.0</ele><time>2026-04-24T13:46:19Z</time></trkpt><trkpt lat="42.47990358301614" lon="11.611273068954626"><ele>135.25</ele><time>2026-04-24T13:46:20Z</time></trkpt><trkpt lat="42.4798045258666" lon="11.611269539964027"><ele>133.5</ele><time>2026-04-24T13:46:21Z</time></trkpt><trkpt lat="42.47969717759733" lon="11.611272201125985"><ele>131.75</ele><time>2026-04-24T13:46:22Z</time></trkpt><trkpt lat="42.479577851406226" lon="11.611266424441032"><ele>130.0</ele><time>2026-04-24T13:46:23Z</time></trkpt><trkpt lat="42.479452258720904" lon="11.611249160039673"><ele>130.0</ele><time>2026-04-24T13:46:24Z</time></trkpt><trkpt lat="42.47934486226" lon="11.611225566415497"><ele>130.0</ele><time>2026-04-24T13:46:25Z</time></trkpt><trkpt lat="42.47924903278695" lon="11.61119398240931"><ele>130.0</ele><time>2026-04-24T13:46:26Z</time></trkpt><trkpt lat="42.47915628023115" lon="11.61115568976127"><ele>130.0</ele><time>2026-04-24T13:46:27Z</time></trkpt><trkpt lat="42.47906325311327" lon="11.611118164014874"><ele>130.0</ele><time>2026-04-24T13:46:28Z</time></trkpt><trkpt lat="42.47895400375624" lon="11.611089427112663"><ele>131.8</ele><time>2026-04-24T13:46:29Z</time></trkpt><trkpt lat="42.47884505347129" lon="11.611102528819973"><ele>133.6</ele><time>2026-04-24T13:46:30Z</time></trkpt><trkpt lat="42.47872567825372" lon="11.611084403246064"><ele>135.4</ele><time>2026-04-24T13:46:31Z</time></trkpt><trkpt lat="42.47861305548194" lon="11.611085372215392"><ele>137.2</ele><time>2026-04-24T13:46:32Z</time></trkpt><trkpt lat="42.47851117629938" lon="11.61109400596962"><ele>139.0</ele><time>2026-04-24T13:46:33Z</time></trkpt><trkpt lat="42.47840411507309" lon="11.611077494991171"><ele>139.0</ele><time>2026-04-24T13:46:34Z</time></trkpt><trkpt lat="42.47830669052163" lon="11.611054662064506"><ele>139.0</ele><time>2026-04-24T13:46:35Z</time></trkpt><trkpt lat="42.47820419552245" lon="11.611047063574553"><ele>139.0</ele><time>2026-04-24T13:46:36Z</time></trkpt><trkpt lat="42.47810413667787" lon="11.611057108112712"><ele>139.0</ele><time>2026-04-24T13:46:37Z</time></trkpt><trkpt lat="42.47800378045439" lon="11.611079663400986"><ele>139.0</ele><time>2026-04-24T13:46:38Z</time></trkpt><trkpt lat="42.47790718753175" lon="11.611103579881657"><ele>139.2</ele><time>2026-04-24T13:46:39Z</time></trkpt><trkpt lat="42.477805432424624" lon="11.611128547909173"><ele>139.4</ele><time>2026-04-24T13:46:40Z</time></trkpt><trkpt lat="42.47770904233866" lon="11.611126483619968"><ele>139.6</ele><time>2026-04-24T13:46:41Z</time></trkpt><trkpt lat="42.477615948019945" lon="11.611136990737856"><ele>139.8</ele><time>2026-04-24T13:46:42Z</time></trkpt><trkpt lat="42.47751492311078" lon="11.611147147885983"><ele>140.0</ele><time>2026-04-24T13:46:43Z</time></trkpt><trkpt lat="42.47740164742287" lon="11.61117291139954"><ele>138.0</ele><time>2026-04-24T13:46:44Z</time></trkpt><trkpt lat="42.477278002718" lon="11.611177868385235"><ele>136.0</ele><time>2026-04-24T13:46:45Z</time></trkpt><trkpt lat="42.477150425054475" lon="11.61116465895826"><ele>134.0</ele><time>2026-04-24T13:46:46Z</time></trkpt><trkpt lat="42.47703273750074" lon="11.611173276553103"><ele>132.0</ele><time>2026-04-24T13:46:47Z</time></trkpt><trkpt lat="42.476921056088216" lon="11.611191898828551"><ele>132.0</ele><time>2026-04-24T13:46:48Z</time></trkpt><trkpt lat="42.476804363158635" lon="11.611222209529867"><ele>132.0</ele><time>2026-04-24T13:46:49Z</time></trkpt><trkpt lat="42.476689395929384" lon="11.611250439760262"><ele>132.0</ele><time>2026-04-24T13:46:50Z</time></trkpt><trkpt lat="42.47657357810199" lon="11.611271324792714"><ele>132.0</ele><time>2026-04-24T13:46:51Z</time></trkpt><trkpt lat="42.47646345404083" lon="11.611277454807041"><ele>132.0</ele><time>2026-04-24T13:46:52Z</time></trkpt><trkpt lat="42.476361875591024" lon="11.6112893258443"><ele>132.0</ele><time>2026-04-24T13:46:53Z</time></trkpt><trkpt lat="42.476268161347924" lon="11.611296896538379"><ele>132.0</ele><time>2026-04-24T13:46:54Z</time></trkpt><trkpt lat="42.47617147611774" lon="11.61131066042641"><ele>132.0</ele><time>2026-04-24T13:46:55Z</time></trkpt><trkpt lat="42.47608394604171" lon="11.611326884639864"><ele>132.0</ele><time>2026-04-24T13:46:56Z</time></trkpt><trkpt lat="42.47598397412974" lon="11.611348715484766"><ele>132.0</ele><time>2026-04-24T13:46:57.001Z</time></trkpt><trkpt lat="42.47588678380084" lon="11.611373517297203"><ele>132.0</ele><time>2026-04-24T13:46:58.001Z</time></trkpt><trkpt lat="42.47577409290076" lon="11.611405827968381"><ele>132.0</ele><time>2026-04-24T13:46:59.001Z</time></trkpt><trkpt lat="42.47565247006474" lon="11.611442545284726"><ele>132.0</ele><time>2026-04-24T13:47:00.001Z</time></trkpt><trkpt lat="42.47555501191097" lon="11.61145090250191"><ele>132.0</ele><time>2026-04-24T13:47:01.001Z</time></trkpt><trkpt lat="42.47547151093628" lon="11.611478414283214"><ele>131.83333333333334</ele><time>2026-04-24T13:47:02.001Z</time></trkpt><trkpt lat="42.47538946750027" lon="11.611507752123886"><ele>131.66666666666666</ele><time>2026-04-24T13:47:03.001Z</time></trkpt><trkpt lat="42.47531541554606" lon="11.61153092926037"><ele>131.5</ele><time>2026-04-24T13:47:04.001Z</time></trkpt><trkpt lat="42.47524554884792" lon="11.611561757256318"><ele>131.33333333333331</ele><time>2026-04-24T13:47:05.001Z</time></trkpt><trkpt lat="42.47516789173369" lon="11.61161104209083"><ele>131.16666666666666</ele><time>2026-04-24T13:47:06.001Z</time></trkpt><trkpt lat="42.475076555180074" lon="11.611659783659933"><ele>131.0</ele><time>2026-04-24T13:47:07.001Z</time></trkpt><trkpt lat="42.47498247831758" lon="11.611710150980594"><ele>131.0</ele><time>2026-04-24T13:47:08.001Z</time></trkpt><trkpt lat="42.47486305139414" lon="11.611769643305816"><ele>131.0</ele><time>2026-04-24T13:47:09.001Z</time></trkpt><trkpt lat="42.47474264154806" lon="11.611829555049656"><ele>131.0</ele><time>2026-04-24T13:47:10.001Z</time></trkpt><trkpt lat="42.474619593059074" lon="11.611873882134347"><ele>131.0</ele><time>2026-04-24T13:47:11.001Z</time></trkpt><trkpt lat="42.47449702908625" lon="11.61192171177795"><ele>131.4</ele><time>2026-04-24T13:47:12.001Z</time></trkpt><trkpt lat="42.47438946786908" lon="11.611973624849101"><ele>131.8</ele><time>2026-04-24T13:47:13.001Z</time></trkpt><trkpt lat="42.47428273858997" lon="11.612013802452573"><ele>132.20000000000002</ele><time>2026-04-24T13:47:14.001Z</time></trkpt><trkpt lat="42.47417844312724" lon="11.612060676879253"><ele>132.6</ele><time>2026-04-24T13:47:15.001Z</time></trkpt><trkpt lat="42.474072645429196" lon="11.612114446528478"><ele>133.0</ele><time>2026-04-24T13:47:16.001Z</time></trkpt><trkpt lat="42.473971746832895" lon="11.612163543351754"><ele>132.0</ele><time>2026-04-24T13:47:17.001Z</time></trkpt><trkpt lat="42.47388033773212" lon="11.612208466082125"><ele>131.0</ele><time>2026-04-24T13:47:18.001Z</time></trkpt><trkpt lat="42.47380241865536" lon="11.612256135885172"><ele>130.0</ele><time>2026-04-24T13:47:19.001Z</time></trkpt><trkpt lat="42.47370814834684" lon="11.612301343512113"><ele>129.0</ele><time>2026-04-24T13:47:20.001Z</time></trkpt><trkpt lat="42.4736098363918" lon="11.612340562153449"><ele>128.0</ele><time>2026-04-24T13:47:21.001Z</time></trkpt><trkpt lat="42.47350008134518" lon="11.612375871486833"><ele>128.0</ele><time>2026-04-24T13:47:22.001Z</time></trkpt><trkpt lat="42.47338634967952" lon="11.612414048386793"><ele>128.0</ele><time>2026-04-24T13:47:23.001Z</time></trkpt><trkpt lat="42.4732879994404" lon="11.612448233152499"><ele>128.0</ele><time>2026-04-24T13:47:24.001Z</time></trkpt><trkpt lat="42.47320599966727" lon="11.612480229861196"><ele>128.0</ele><time>2026-04-24T13:47:25.001Z</time></trkpt><trkpt lat="42.47313506807261" lon="11.612515320325482"><ele>128.0</ele><time>2026-04-24T13:47:26.001Z</time></trkpt><trkpt lat="42.473038330712725" lon="11.612534610846588"><ele>128.20000000000002</ele><time>2026-04-24T13:47:27.001Z</time></trkpt><trkpt lat="42.47292970251953" lon="11.612578096696199"><ele>128.4</ele><time>2026-04-24T13:47:28.001Z</time></trkpt><trkpt lat="42.47281103834669" lon="11.61264709221798"><ele>128.60000000000002</ele><time>2026-04-24T13:47:29.001Z</time></trkpt><trkpt lat="42.47270713896512" lon="11.612658131038106"><ele>128.8</ele><time>2026-04-24T13:47:30.001Z</time></trkpt><trkpt lat="42.47261509051358" lon="11.612655938068077"><ele>129.0</ele><time>2026-04-24T13:47:31.001Z</time></trkpt><trkpt lat="42.47252632400234" lon="11.612657633220675"><ele>129.0</ele><time>2026-04-24T13:47:32.001Z</time></trkpt><trkpt lat="42.47244714187654" lon="11.612658807252242"><ele>129.0</ele><time>2026-04-24T13:47:33.001Z</time></trkpt><trkpt lat="42.47238315243664" lon="11.6126840567104"><ele>129.0</ele><time>2026-04-24T13:47:34.001Z</time></trkpt><trkpt lat="42.47228448472027" lon="11.612702137374972"><ele>129.0</ele><time>2026-04-24T13:47:36.001Z</time></trkpt><trkpt lat="42.47219874005889" lon="11.612718734856536"><ele>129.0</ele><time>2026-04-24T13:47:39.001Z</time></trkpt><trkpt lat="42.472117539475974" lon="11.612745711549561"><ele>129.0</ele><time>2026-04-24T13:47:41.001Z</time></trkpt><trkpt lat="42.47200225050989" lon="11.612799918327143"><ele>127.0</ele><time>2026-04-24T13:47:43.001Z</time></trkpt><trkpt lat="42.47194583889874" lon="11.612872066634193"><ele>125.0</ele><time>2026-04-24T13:47:44.001Z</time></trkpt><trkpt lat="42.47189924594005" lon="11.612936102629396"><ele>123.0</ele><time>2026-04-24T13:47:45.001Z</time></trkpt><trkpt lat="42.47185443749628" lon="11.613008267544169"><ele>121.0</ele><time>2026-04-24T13:47:46.001Z</time></trkpt><trkpt lat="42.47174729247851" lon="11.613070421347505"><ele>119.0</ele><time>2026-04-24T13:47:48.001Z</time></trkpt><trkpt lat="42.47168200976231" lon="11.61308029126986"><ele>117.0</ele><time>2026-04-24T13:47:49.001Z</time></trkpt><trkpt lat="42.4715509582584" lon="11.613054410420393"><ele>117.0</ele><time>2026-04-24T13:47:51.001Z</time></trkpt><trkpt lat="42.47147921668479" lon="11.613017330507663"><ele>117.0</ele><time>2026-04-24T13:47:52.001Z</time></trkpt><trkpt lat="42.471411130430006" lon="11.612979630540543"><ele>117.0</ele><time>2026-04-24T13:47:53.001Z</time></trkpt><trkpt lat="42.4713325613879" lon="11.612936571086593"><ele>117.0</ele><time>2026-04-24T13:47:54Z</time></trkpt><trkpt lat="42.47123632413934" lon="11.612874293293572"><ele>117.0</ele><time>2026-04-24T13:47:56Z</time></trkpt><trkpt lat="42.47116625685988" lon="11.612791834920476"><ele>117.0</ele><time>2026-04-24T13:47:58Z</time></trkpt><trkpt lat="42.47106401473337" lon="11.61265200001358"><ele>116.85714285714286</ele><time>2026-04-24T13:48:00Z</time></trkpt><trkpt lat="42.471002245940376" lon="11.612605823141138"><ele>116.71428571428572</ele><time>2026-04-24T13:48:01Z</time></trkpt><trkpt lat="42.4709383431671" lon="11.612599898363435"><ele>116.57142857142858</ele><time>2026-04-24T13:48:02Z</time></trkpt><trkpt lat="42.4708655535612" lon="11.612612972207518"><ele>116.42857142857144</ele><time>2026-04-24T13:48:03Z</time></trkpt><trkpt lat="42.470792079833764" lon="11.612653130654161"><ele>116.28571428571429</ele><time>2026-04-24T13:48:04Z</time></trkpt><trkpt lat="42.47072955697005" lon="11.612683876659595"><ele>116.14285714285717</ele><time>2026-04-24T13:48:05Z</time></trkpt><trkpt lat="42.470666094244976" lon="11.612699523205903"><ele>116.00000000000001</ele><time>2026-04-24T13:48:06Z</time></trkpt><trkpt lat="42.47059697765654" lon="11.61270384531762"><ele>116.00000000000001</ele><time>2026-04-24T13:48:07Z</time></trkpt><trkpt lat="42.47052660827809" lon="11.612692465198023"><ele>116.0</ele><time>2026-04-24T13:48:08Z</time></trkpt><trkpt lat="42.47045829998413" lon="11.612683431464415"><ele>116.00000000000001</ele><time>2026-04-24T13:48:09Z</time></trkpt><trkpt lat="42.470389580650284" lon="11.61267324237804"><ele>116.00000000000001</ele><time>2026-04-24T13:48:10Z</time></trkpt><trkpt lat="42.47032259219422" lon="11.612653744780005"><ele>116.0</ele><time>2026-04-24T13:48:11Z</time></trkpt><trkpt lat="42.47025820968036" lon="11.612615616003454"><ele>116.00000000000001</ele><time>2026-04-24T13:48:12Z</time></trkpt><trkpt lat="42.47019252900175" lon="11.612576616074053"><ele>116.00000000000001</ele><time>2026-04-24T13:48:13Z</time></trkpt><trkpt lat="42.47011629004042" lon="11.612563416244628"><ele>114.6</ele><time>2026-04-24T13:48:14Z</time></trkpt><trkpt lat="42.47003352048172" lon="11.612552087188229"><ele>113.19999999999999</ele><time>2026-04-24T13:48:15Z</time></trkpt><trkpt lat="42.46991140377628" lon="11.612541376238047"><ele>111.80000000000001</ele><time>2026-04-24T13:48:17Z</time></trkpt><trkpt lat="42.469805423123866" lon="11.612529781679353"><ele>110.4</ele><time>2026-04-24T13:48:19Z</time></trkpt><trkpt lat="42.469673589534125" lon="11.612539826279534"><ele>109.0</ele><time>2026-04-24T13:48:21Z</time></trkpt><trkpt lat="42.46959001539515" lon="11.612537258008494"><ele>107.50000000000001</ele><time>2026-04-24T13:48:22Z</time></trkpt><trkpt lat="42.46950824574036" lon="11.61253876964647"><ele>106.0</ele><time>2026-04-24T13:48:23Z</time></trkpt><trkpt lat="42.469432594971764" lon="11.612544921389336"><ele>104.5</ele><time>2026-04-24T13:48:24Z</time></trkpt><trkpt lat="42.469360945557376" lon="11.612559019880939"><ele>103.0</ele><time>2026-04-24T13:48:25Z</time></trkpt><trkpt lat="42.46929765399438" lon="11.61258173416974"><ele>101.50000000000001</ele><time>2026-04-24T13:48:26Z</time></trkpt><trkpt lat="42.46915596128133" lon="11.6125967776132"><ele>100.0</ele><time>2026-04-24T13:48:28Z</time></trkpt><trkpt lat="42.46905476849178" lon="11.612580858036347"><ele>100.0</ele><time>2026-04-24T13:48:29Z</time></trkpt><trkpt lat="42.468953742539284" lon="11.612557825809398"><ele>100.0</ele><time>2026-04-24T13:48:30Z</time></trkpt><trkpt lat="42.46888590836887" lon="11.61255975342084"><ele>100.0</ele><time>2026-04-24T13:48:31Z</time></trkpt><trkpt lat="42.46878638141101" lon="11.61261586132904"><ele>100.0</ele><time>2026-04-24T13:48:33Z</time></trkpt><trkpt lat="42.46865927469575" lon="11.61269464651005"><ele>100.0</ele><time>2026-04-24T13:48:35Z</time></trkpt><trkpt lat="42.46853470000835" lon="11.612680180864942"><ele>99.50000000000001</ele><time>2026-04-24T13:48:37Z</time></trkpt><trkpt lat="42.46843970006899" lon="11.612661441370806"><ele>99.0</ele><time>2026-04-24T13:48:38Z</time></trkpt><trkpt lat="42.46836177029496" lon="11.612658053795933"><ele>98.5</ele><time>2026-04-24T13:48:39Z</time></trkpt><trkpt lat="42.46826119453277" lon="11.612670668524716"><ele>98.0</ele><time>2026-04-24T13:48:41Z</time></trkpt><trkpt lat="42.46818997602167" lon="11.612679239955161"><ele>97.50000000000001</ele><time>2026-04-24T13:48:42Z</time></trkpt><trkpt lat="42.46810843840397" lon="11.61268604598972"><ele>97.0</ele><time>2026-04-24T13:48:43Z</time></trkpt><trkpt lat="42.468004630648316" lon="11.612683093893414"><ele>95.66666666666667</ele><time>2026-04-24T13:48:44Z</time></trkpt><trkpt lat="42.467926524760856" lon="11.612682054101827"><ele>94.33333333333334</ele><time>2026-04-24T13:48:45Z</time></trkpt><trkpt lat="42.46785774219449" lon="11.612675167738391"><ele>93.0</ele><time>2026-04-24T13:48:46.001Z</time></trkpt><trkpt lat="42.467789168540804" lon="11.612673568659467"><ele>91.66666666666667</ele><time>2026-04-24T13:48:47.001Z</time></trkpt><trkpt lat="42.46771414477896" lon="11.6127037297823"><ele>90.33333333333334</ele><time>2026-04-24T13:48:48.001Z</time></trkpt><trkpt lat="42.467633209700644" lon="11.61271089679419"><ele>89.0</ele><time>2026-04-24T13:48:49.001Z</time></trkpt><trkpt lat="42.467509245933954" lon="11.612668862465966"><ele>89.0</ele><time>2026-04-24T13:48:51.001Z</time></trkpt><trkpt lat="42.467440122815425" lon="11.61266497547422"><ele>89.0</ele><time>2026-04-24T13:48:52.001Z</time></trkpt><trkpt lat="42.4673745007301" lon="11.612680738479364"><ele>89.0</ele><time>2026-04-24T13:48:53.001Z</time></trkpt><trkpt lat="42.46726805090879" lon="11.612782675244228"><ele>89.0</ele><time>2026-04-24T13:48:55.001Z</time></trkpt><trkpt lat="42.46722216187531" lon="11.61284489099179"><ele>89.0</ele><time>2026-04-24T13:48:56.001Z</time></trkpt><trkpt lat="42.467185057199266" lon="11.612914801277897"><ele>89.0</ele><time>2026-04-24T13:48:57.001Z</time></trkpt><trkpt lat="42.467119090350096" lon="11.612998139035488"><ele>87.0</ele><time>2026-04-24T13:48:58.001Z</time></trkpt><trkpt lat="42.46705639101767" lon="11.61308001319016"><ele>85.0</ele><time>2026-04-24T13:48:59.001Z</time></trkpt><trkpt lat="42.467000635201366" lon="11.613138727459436"><ele>83.0</ele><time>2026-04-24T13:49:00.001Z</time></trkpt><trkpt lat="42.46691194336525" lon="11.61320112438048"><ele>81.0</ele><time>2026-04-24T13:49:02.001Z</time></trkpt><trkpt lat="42.466849021162815" lon="11.613238628659332"><ele>79.0</ele><time>2026-04-24T13:49:03.001Z</time></trkpt><trkpt lat="42.46678903141746" lon="11.613280265563724"><ele>77.0</ele><time>2026-04-24T13:49:04.001Z</time></trkpt><trkpt lat="42.466726106305295" lon="11.613313862455481"><ele>77.0</ele><time>2026-04-24T13:49:05.001Z</time></trkpt><trkpt lat="42.466639119651234" lon="11.613347122449559"><ele>77.0</ele><time>2026-04-24T13:49:07.001Z</time></trkpt><trkpt lat="42.466556335909296" lon="11.61332273257987"><ele>77.0</ele><time>2026-04-24T13:49:10.001Z</time></trkpt><trkpt lat="42.46649387245576" lon="11.613281159895996"><ele>77.0</ele><time>2026-04-24T13:49:12.001Z</time></trkpt><trkpt lat="42.46644177370926" lon="11.613219530731339"><ele>77.0</ele><time>2026-04-24T13:49:14.001Z</time></trkpt><trkpt lat="42.46636954344267" lon="11.613162159996572"><ele>77.0</ele><time>2026-04-24T13:49:16.001Z</time></trkpt><trkpt lat="42.46631229659867" lon="11.61311639150143"><ele>76.5</ele><time>2026-04-24T13:49:18.001Z</time></trkpt><trkpt lat="42.46624054723739" lon="11.613056613166226"><ele>76.0</ele><time>2026-04-24T13:49:21.001Z</time></trkpt><trkpt lat="42.46616356211189" lon="11.613017146972377"><ele>75.5</ele><time>2026-04-24T13:49:23.001Z</time></trkpt><trkpt lat="42.46607466832618" lon="11.613031890545937"><ele>75.0</ele><time>2026-04-24T13:49:25.001Z</time></trkpt><trkpt lat="42.46600917443375" lon="11.613036183673874"><ele>74.5</ele><time>2026-04-24T13:49:27.001Z</time></trkpt><trkpt lat="42.46594260816284" lon="11.613027152239027"><ele>74.0</ele><time>2026-04-24T13:49:38.001Z</time></trkpt><trkpt lat="42.46583409640539" lon="11.613000974298439"><ele>74.0</ele><time>2026-04-24T13:49:40.001Z</time></trkpt><trkpt lat="42.465718731601484" lon="11.612959065330436"><ele>74.0</ele><time>2026-04-24T13:49:42.001Z</time></trkpt><trkpt lat="42.465612432761745" lon="11.612901388784739"><ele>74.0</ele><time>2026-04-24T13:49:44.001Z</time></trkpt><trkpt lat="42.46550874434601" lon="11.612853930979146"><ele>74.0</ele><time>2026-04-24T13:49:46.001Z</time></trkpt><trkpt lat="42.46539174863036" lon="11.612819279996092"><ele>74.42857142857143</ele><time>2026-04-24T13:49:48.001Z</time></trkpt><trkpt lat="42.46532686366804" lon="11.612792524324203"><ele>74.85714285714286</ele><time>2026-04-24T13:49:49.001Z</time></trkpt><trkpt lat="42.46525413530927" lon="11.612785416451882"><ele>75.28571428571428</ele><time>2026-04-24T13:49:50.002Z</time></trkpt><trkpt lat="42.465185951448596" lon="11.612764407088461"><ele>75.71428571428572</ele><time>2026-04-24T13:49:51.002Z</time></trkpt><trkpt lat="42.46511231007346" lon="11.612752209645897"><ele>76.14285714285714</ele><time>2026-04-24T13:49:52.002Z</time></trkpt><trkpt lat="42.46503107480661" lon="11.612754251640567"><ele>76.57142857142857</ele><time>2026-04-24T13:49:53.002Z</time></trkpt><trkpt lat="42.46495914696955" lon="11.612749153887489"><ele>77.0</ele><time>2026-04-24T13:49:54.002Z</time></trkpt><trkpt lat="42.46487857443989" lon="11.612755310776217"><ele>77.0</ele><time>2026-04-24T13:49:55.002Z</time></trkpt><trkpt lat="42.46479371117683" lon="11.612769436677098"><ele>77.0</ele><time>2026-04-24T13:49:56.002Z</time></trkpt><trkpt lat="42.464716379151035" lon="11.612794432319737"><ele>77.0</ele><time>2026-04-24T13:49:57.002Z</time></trkpt><trkpt lat="42.464637209166774" lon="11.612824487204282"><ele>77.0</ele><time>2026-04-24T13:49:58.002Z</time></trkpt><trkpt lat="42.464568865360846" lon="11.612873412252414"><ele>77.0</ele><time>2026-04-24T13:49:59.002Z</time></trkpt><trkpt lat="42.464504769321344" lon="11.612914022762896"><ele>77.0</ele><time>2026-04-24T13:50:00Z</time></trkpt><trkpt lat="42.46443125915248" lon="11.61294885685447"><ele>76.83333333333334</ele><time>2026-04-24T13:50:01Z</time></trkpt><trkpt lat="42.46436461837627" lon="11.612956185552695"><ele>76.66666666666667</ele><time>2026-04-24T13:50:02Z</time></trkpt><trkpt lat="42.46424993667608" lon="11.612901697456342"><ele>76.5</ele><time>2026-04-24T13:50:04Z</time></trkpt><trkpt lat="42.46418936868179" lon="11.612871262437915"><ele>76.33333333333333</ele><time>2026-04-24T13:50:06Z</time></trkpt><trkpt lat="42.46409060054205" lon="11.6128343771285"><ele>76.16666666666666</ele><time>2026-04-24T13:50:10Z</time></trkpt><trkpt lat="42.464026422654854" lon="11.612809119405837"><ele>76.0</ele><time>2026-04-24T13:50:12Z</time></trkpt><trkpt lat="42.46376824505456" lon="11.61278511665282"><ele>76.16666666666666</ele><time>2026-04-24T13:50:25Z</time></trkpt><trkpt lat="42.46370480823042" lon="11.612780922028405"><ele>76.33333333333333</ele><time>2026-04-24T13:50:26Z</time></trkpt><trkpt lat="42.46362708959697" lon="11.612764270987814"><ele>76.5</ele><time>2026-04-24T13:50:27Z</time></trkpt><trkpt lat="42.46353988907112" lon="11.612800226645295"><ele>76.66666666666667</ele><time>2026-04-24T13:50:28Z</time></trkpt><trkpt lat="42.46346180383601" lon="11.612872124113043"><ele>76.83333333333334</ele><time>2026-04-24T13:50:29Z</time></trkpt><trkpt lat="42.463376973829035" lon="11.612919717315672"><ele>77.0</ele><time>2026-04-24T13:50:30Z</time></trkpt><trkpt lat="42.46330698217664" lon="11.612948657136638"><ele>77.0</ele><time>2026-04-24T13:50:31Z</time></trkpt><trkpt lat="42.46322752092377" lon="11.612952551608975"><ele>77.0</ele><time>2026-04-24T13:50:32Z</time></trkpt><trkpt lat="42.46314552775314" lon="11.612966345044512"><ele>77.0</ele><time>2026-04-24T13:50:33Z</time></trkpt><trkpt lat="42.463063758605855" lon="11.612957155280817"><ele>77.0</ele><time>2026-04-24T13:50:34Z</time></trkpt><trkpt lat="42.46298096170425" lon="11.61296889110191"><ele>77.0</ele><time>2026-04-24T13:50:35Z</time></trkpt><trkpt lat="42.46287085323407" lon="11.61298272849151"><ele>77.0</ele><time>2026-04-24T13:50:37Z</time></trkpt><trkpt lat="42.46274299431239" lon="11.612947976108751"><ele>76.66666666666667</ele><time>2026-04-24T13:50:39Z</time></trkpt><trkpt lat="42.46266518468568" lon="11.612931172797058"><ele>76.33333333333334</ele><time>2026-04-24T13:50:40Z</time></trkpt><trkpt lat="42.46258355853254" lon="11.612910887613111"><ele>76.0</ele><time>2026-04-24T13:50:41Z</time></trkpt><trkpt lat="42.46248731973653" lon="11.612915512117151"><ele>75.66666666666667</ele><time>2026-04-24T13:50:42Z</time></trkpt><trkpt lat="42.46239257580286" lon="11.612922157138945"><ele>75.33333333333333</ele><time>2026-04-24T13:50:43Z</time></trkpt><trkpt lat="42.46229680270326" lon="11.612927176287716"><ele>75.0</ele><time>2026-04-24T13:50:44Z</time></trkpt><trkpt lat="42.462192677677926" lon="11.612949560779361"><ele>75.0</ele><time>2026-04-24T13:50:45Z</time></trkpt><trkpt lat="42.46209400175104" lon="11.612959207087751"><ele>75.0</ele><time>2026-04-24T13:50:46Z</time></trkpt><trkpt lat="42.46200759769036" lon="11.61296086337818"><ele>75.0</ele><time>2026-04-24T13:50:47Z</time></trkpt><trkpt lat="42.461908554376656" lon="11.612939923599077"><ele>75.0</ele><time>2026-04-24T13:50:49Z</time></trkpt><trkpt lat="42.4618066810369" lon="11.612859096472032"><ele>75.0</ele><time>2026-04-24T13:50:51Z</time></trkpt><trkpt lat="42.461750202870604" lon="11.612815883212301"><ele>75.33333333333333</ele><time>2026-04-24T13:50:53.001Z</time></trkpt><trkpt lat="42.46165080043245" lon="11.6127706372555"><ele>75.66666666666667</ele><time>2026-04-24T13:50:55.001Z</time></trkpt><trkpt lat="42.46156949516927" lon="11.612757616159458"><ele>76.0</ele><time>2026-04-24T13:50:56.001Z</time></trkpt><trkpt lat="42.46149258519617" lon="11.612766289400735"><ele>76.33333333333334</ele><time>2026-04-24T13:50:57.001Z</time></trkpt><trkpt lat="42.461427935241225" lon="11.612778537432792"><ele>76.66666666666667</ele><time>2026-04-24T13:50:58.001Z</time></trkpt><trkpt lat="42.461341510191936" lon="11.612789572559933"><ele>77.0</ele><time>2026-04-24T13:50:59.001Z</time></trkpt><trkpt lat="42.4612578666185" lon="11.61280367560245"><ele>77.0</ele><time>2026-04-24T13:51:00.001Z</time></trkpt><trkpt lat="42.461170802889605" lon="11.612808198000058"><ele>77.0</ele><time>2026-04-24T13:51:01.001Z</time></trkpt><trkpt lat="42.461091135932676" lon="11.612807263170033"><ele>77.0</ele><time>2026-04-24T13:51:02.001Z</time></trkpt><trkpt lat="42.461011304226076" lon="11.612805077687202"><ele>77.0</ele><time>2026-04-24T13:51:03.001Z</time></trkpt><trkpt lat="42.460930901183055" lon="11.61279931819943"><ele>77.0</ele><time>2026-04-24T13:51:04.001Z</time></trkpt><trkpt lat="42.46085642789034" lon="11.61278576852528"><ele>77.0</ele><time>2026-04-24T13:51:05.001Z</time></trkpt><trkpt lat="42.46075422458432" lon="11.612761748614437"><ele>77.0</ele><time>2026-04-24T13:51:07.001Z</time></trkpt><trkpt lat="42.460663144949535" lon="11.612716727261699"><ele>77.0</ele><time>2026-04-24T13:51:09.001Z</time></trkpt><trkpt lat="42.46060319964845" lon="11.612688440555331"><ele>77.0</ele><time>2026-04-24T13:51:11.001Z</time></trkpt><trkpt lat="42.46051974813695" lon="11.612666907928523"><ele>77.0</ele><time>2026-04-24T13:51:13.001Z</time></trkpt><trkpt lat="42.46043428864327" lon="11.612627442625824"><ele>77.0</ele><time>2026-04-24T13:51:15.001Z</time></trkpt><trkpt lat="42.46033097167404" lon="11.612595719402593"><ele>77.0</ele><time>2026-04-24T13:51:17.001Z</time></trkpt><trkpt lat="42.46019824054854" lon="11.612573887688152"><ele>76.8</ele><time>2026-04-24T13:51:19.001Z</time></trkpt><trkpt lat="42.46011856419855" lon="11.612573951021298"><ele>76.6</ele><time>2026-04-24T13:51:21.001Z</time></trkpt><trkpt lat="42.46000781375357" lon="11.612576622041923"><ele>76.39999999999999</ele><time>2026-04-24T13:51:24.001Z</time></trkpt><trkpt lat="42.45990044869123" lon="11.612565100023868"><ele>76.2</ele><time>2026-04-24T13:51:26.001Z</time></trkpt><trkpt lat="42.45976017507369" lon="11.61256291323001"><ele>76.0</ele><time>2026-04-24T13:51:28.001Z</time></trkpt><trkpt lat="42.459661521697164" lon="11.612561537211459"><ele>75.83333333333333</ele><time>2026-04-24T13:51:29.001Z</time></trkpt><trkpt lat="42.459568044937356" lon="11.612559521276316"><ele>75.66666666666666</ele><time>2026-04-24T13:51:30.001Z</time></trkpt><trkpt lat="42.45950209435548" lon="11.612556307966624"><ele>75.5</ele><time>2026-04-24T13:51:31.001Z</time></trkpt><trkpt lat="42.45940402123096" lon="11.612546083942595"><ele>75.33333333333333</ele><time>2026-04-24T13:51:33.001Z</time></trkpt><trkpt lat="42.459333074026404" lon="11.612540849682286"><ele>75.16666666666667</ele><time>2026-04-24T13:51:34.001Z</time></trkpt><trkpt lat="42.45924062766889" lon="11.612534277920444"><ele>75.0</ele><time>2026-04-24T13:51:35.001Z</time></trkpt><trkpt lat="42.4591652042518" lon="11.612518855062216"><ele>75.0</ele><time>2026-04-24T13:51:36.001Z</time></trkpt><trkpt lat="42.45902267887937" lon="11.612506260742848"><ele>75.0</ele><time>2026-04-24T13:51:38.001Z</time></trkpt><trkpt lat="42.458935956843945" lon="11.612497928641966"><ele>75.0</ele><time>2026-04-24T13:51:39.001Z</time></trkpt><trkpt lat="42.45884601320427" lon="11.612486092018607"><ele>75.0</ele><time>2026-04-24T13:51:40.001Z</time></trkpt><trkpt lat="42.4587607926766" lon="11.612485089585197"><ele>75.0</ele><time>2026-04-24T13:51:41.001Z</time></trkpt><trkpt lat="42.45867641967178" lon="11.612499945289594"><ele>75.0</ele><time>2026-04-24T13:51:42.001Z</time></trkpt><trkpt lat="42.45858511317656" lon="11.612509202847855"><ele>75.0</ele><time>2026-04-24T13:51:43.001Z</time></trkpt><trkpt lat="42.45849656237183" lon="11.612519082030591"><ele>75.0</ele><time>2026-04-24T13:51:44.001Z</time></trkpt><trkpt lat="42.45840789007999" lon="11.61251712303599"><ele>75.0</ele><time>2026-04-24T13:51:45.001Z</time></trkpt><trkpt lat="42.458290055491474" lon="11.612529664430928"><ele>75.0</ele><time>2026-04-24T13:51:46.001Z</time></trkpt><trkpt lat="42.45817711410916" lon="11.612552477693276"><ele>75.0</ele><time>2026-04-24T13:51:47.001Z</time></trkpt><trkpt lat="42.45806905786157" lon="11.612575090849298"><ele>75.0</ele><time>2026-04-24T13:51:48.001Z</time></trkpt><trkpt lat="42.457968397158105" lon="11.61259406278405"><ele>75.0</ele><time>2026-04-24T13:51:49.001Z</time></trkpt><trkpt lat="42.45786267361665" lon="11.612616540361586"><ele>75.0</ele><time>2026-04-24T13:51:50.001Z</time></trkpt><trkpt lat="42.45775857616366" lon="11.612635272203367"><ele>75.0</ele><time>2026-04-24T13:51:51.001Z</time></trkpt><trkpt lat="42.45764330864815" lon="11.61264798971215"><ele>75.0</ele><time>2026-04-24T13:51:52.001Z</time></trkpt><trkpt lat="42.4575196393768" lon="11.612666530590099"><ele>75.0</ele><time>2026-04-24T13:51:53.001Z</time></trkpt><trkpt lat="42.45739335237883" lon="11.612696559261147"><ele>75.0</ele><time>2026-04-24T13:51:54.001Z</time></trkpt><trkpt lat="42.45727258782282" lon="11.612730744573255"><ele>75.0</ele><time>2026-04-24T13:51:55.001Z</time></trkpt><trkpt lat="42.45716173471072" lon="11.612756332818332"><ele>75.0</ele><time>2026-04-24T13:51:56.001Z</time></trkpt><trkpt lat="42.457057036914904" lon="11.612771934660847"><ele>75.0</ele><time>2026-04-24T13:51:57.001Z</time></trkpt><trkpt lat="42.45695111215454" lon="11.612772126629674"><ele>75.0</ele><time>2026-04-24T13:51:58.001Z</time></trkpt><trkpt lat="42.456833478334694" lon="11.61275784656803"><ele>75.0</ele><time>2026-04-24T13:51:59.001Z</time></trkpt><trkpt lat="42.45671511294869" lon="11.612733489402858"><ele>75.0</ele><time>2026-04-24T13:52:00.002Z</time></trkpt><trkpt lat="42.456589861976234" lon="11.612696543035206"><ele>75.0</ele><time>2026-04-24T13:52:01.002Z</time></trkpt><trkpt lat="42.45646204300375" lon="11.61264628067069"><ele>75.0</ele><time>2026-04-24T13:52:02.002Z</time></trkpt><trkpt lat="42.456350075364" lon="11.61259889887942"><ele>75.0</ele><time>2026-04-24T13:52:03.002Z</time></trkpt><trkpt lat="42.456252628891036" lon="11.612556904636786"><ele>75.0</ele><time>2026-04-24T13:52:04.002Z</time></trkpt><trkpt lat="42.456162248278716" lon="11.612505952617806"><ele>74.4</ele><time>2026-04-24T13:52:05.002Z</time></trkpt><trkpt lat="42.45608091811344" lon="11.612452792945371"><ele>73.8</ele><time>2026-04-24T13:52:06Z</time></trkpt><trkpt lat="42.45598907578902" lon="11.61239684510976"><ele>73.2</ele><time>2026-04-24T13:52:07Z</time></trkpt><trkpt lat="42.45589144575297" lon="11.612340775565217"><ele>72.6</ele><time>2026-04-24T13:52:08Z</time></trkpt><trkpt lat="42.45579311937758" lon="11.612283502500118"><ele>72.0</ele><time>2026-04-24T13:52:09Z</time></trkpt><trkpt lat="42.45569595517769" lon="11.612212912037561"><ele>72.0</ele><time>2026-04-24T13:52:10Z</time></trkpt><trkpt lat="42.45560033262317" lon="11.612148830771158"><ele>72.0</ele><time>2026-04-24T13:52:11Z</time></trkpt><trkpt lat="42.4555185479508" lon="11.612091363970261"><ele>72.0</ele><time>2026-04-24T13:52:12Z</time></trkpt><trkpt lat="42.455428916543724" lon="11.61203267644383"><ele>72.0</ele><time>2026-04-24T13:52:13Z</time></trkpt><trkpt lat="42.45533419907198" lon="11.61196872394819"><ele>72.0</ele><time>2026-04-24T13:52:14Z</time></trkpt><trkpt lat="42.45523414875804" lon="11.611905664676183"><ele>72.0</ele><time>2026-04-24T13:52:15Z</time></trkpt><trkpt lat="42.45513437412158" lon="11.611845015650628"><ele>72.0</ele><time>2026-04-24T13:52:16Z</time></trkpt><trkpt lat="42.45503492979344" lon="11.611778830082127"><ele>72.0</ele><time>2026-04-24T13:52:17Z</time></trkpt><trkpt lat="42.4549481658207" lon="11.611710414584593"><ele>72.0</ele><time>2026-04-24T13:52:18Z</time></trkpt><trkpt lat="42.45484927994103" lon="11.61164438129827"><ele>72.0</ele><time>2026-04-24T13:52:19Z</time></trkpt><trkpt lat="42.45475202331717" lon="11.611574529117023"><ele>72.0</ele><time>2026-04-24T13:52:20Z</time></trkpt><trkpt lat="42.4546723497051" lon="11.61150617887448"><ele>72.0</ele><time>2026-04-24T13:52:21Z</time></trkpt><trkpt lat="42.454599810327615" lon="11.611436241868809"><ele>72.0</ele><time>2026-04-24T13:52:22Z</time></trkpt><trkpt lat="42.45452775752654" lon="11.611370023783127"><ele>72.0</ele><time>2026-04-24T13:52:23Z</time></trkpt><trkpt lat="42.45444987112768" lon="11.611304841348836"><ele>72.0</ele><time>2026-04-24T13:52:24Z</time></trkpt><trkpt lat="42.45436770571114" lon="11.611232575939715"><ele>72.0</ele><time>2026-04-24T13:52:25Z</time></trkpt><trkpt lat="42.454277981805554" lon="11.611171017905303"><ele>72.0</ele><time>2026-04-24T13:52:26Z</time></trkpt><trkpt lat="42.45421021034803" lon="11.611102018527687"><ele>72.0</ele><time>2026-04-24T13:52:27Z</time></trkpt><trkpt lat="42.454138942903434" lon="11.611019022178892"><ele>72.0</ele><time>2026-04-24T13:52:28Z</time></trkpt><trkpt lat="42.45406405018295" lon="11.610941036130923"><ele>72.0</ele><time>2026-04-24T13:52:29Z</time></trkpt><trkpt lat="42.453995665633265" lon="11.610865117389475"><ele>72.16666666666667</ele><time>2026-04-24T13:52:30Z</time></trkpt><trkpt lat="42.45392887215602" lon="11.610786317739421"><ele>72.33333333333333</ele><time>2026-04-24T13:52:31Z</time></trkpt><trkpt lat="42.453860765031294" lon="11.610739348271485"><ele>72.5</ele><time>2026-04-24T13:52:32Z</time></trkpt><trkpt lat="42.45379179907718" lon="11.610684480661353"><ele>72.66666666666666</ele><time>2026-04-24T13:52:33Z</time></trkpt><trkpt lat="42.45373620875077" lon="11.610620183073246"><ele>72.83333333333333</ele><time>2026-04-24T13:52:34Z</time></trkpt><trkpt lat="42.453682059625834" lon="11.61054752873621"><ele>73.0</ele><time>2026-04-24T13:52:35Z</time></trkpt><trkpt lat="42.453629071773676" lon="11.610493105154381"><ele>72.8</ele><time>2026-04-24T13:52:36Z</time></trkpt><trkpt lat="42.45356051512851" lon="11.610451885380762"><ele>72.6</ele><time>2026-04-24T13:52:37Z</time></trkpt><trkpt lat="42.45347624449342" lon="11.610386748228974"><ele>72.4</ele><time>2026-04-24T13:52:38Z</time></trkpt><trkpt lat="42.45337520915122" lon="11.610295548298852"><ele>72.2</ele><time>2026-04-24T13:52:39Z</time></trkpt><trkpt lat="42.453266500946306" lon="11.610199834204494"><ele>72.0</ele><time>2026-04-24T13:52:40Z</time></trkpt><trkpt lat="42.45317328533108" lon="11.610109455005746"><ele>72.0</ele><time>2026-04-24T13:52:41Z</time></trkpt><trkpt lat="42.45308705767759" lon="11.610030098714399"><ele>72.0</ele><time>2026-04-24T13:52:42Z</time></trkpt><trkpt lat="42.453005112378854" lon="11.609984947412734"><ele>72.0</ele><time>2026-04-24T13:52:43Z</time></trkpt><trkpt lat="42.452934048617244" lon="11.60996555449498"><ele>72.0</ele><time>2026-04-24T13:52:44Z</time></trkpt><trkpt lat="42.45286148522543" lon="11.609953528125304"><ele>72.0</ele><time>2026-04-24T13:52:45Z</time></trkpt><trkpt lat="42.45278233242112" lon="11.60994035526698"><ele>72.0</ele><time>2026-04-24T13:52:46Z</time></trkpt><trkpt lat="42.45271270298067" lon="11.60992008316065"><ele>72.16666666666667</ele><time>2026-04-24T13:52:47Z</time></trkpt><trkpt lat="42.45264878915549" lon="11.609899545279033"><ele>72.33333333333333</ele><time>2026-04-24T13:52:48Z</time></trkpt><trkpt lat="42.452570825202244" lon="11.60988088286695"><ele>72.5</ele><time>2026-04-24T13:52:49Z</time></trkpt><trkpt lat="42.45248902560792" lon="11.609868300822205"><ele>72.66666666666666</ele><time>2026-04-24T13:52:50Z</time></trkpt><trkpt lat="42.452417298156774" lon="11.60985277437042"><ele>72.83333333333333</ele><time>2026-04-24T13:52:51Z</time></trkpt><trkpt lat="42.452341815549104" lon="11.609838041522718"><ele>73.0</ele><time>2026-04-24T13:52:52Z</time></trkpt><trkpt lat="42.45226693283075" lon="11.60980895618555"><ele>73.0</ele><time>2026-04-24T13:52:53Z</time></trkpt><trkpt lat="42.45219416430476" lon="11.609774608759956"><ele>73.0</ele><time>2026-04-24T13:52:54Z</time></trkpt><trkpt lat="42.452132028007725" lon="11.609732263057467"><ele>73.0</ele><time>2026-04-24T13:52:55Z</time></trkpt><trkpt lat="42.452073374920396" lon="11.609695725344706"><ele>73.0</ele><time>2026-04-24T13:52:56Z</time></trkpt><trkpt lat="42.451990805486204" lon="11.609629629922841"><ele>73.0</ele><time>2026-04-24T13:52:57Z</time></trkpt><trkpt lat="42.45190192322569" lon="11.609533633169415"><ele>73.0</ele><time>2026-04-24T13:52:58Z</time></trkpt><trkpt lat="42.45182208560458" lon="11.609412048479015"><ele>74.0</ele><time>2026-04-24T13:52:59Z</time></trkpt><trkpt lat="42.451745389221976" lon="11.609277228018668"><ele>75.0</ele><time>2026-04-24T13:53:00Z</time></trkpt><trkpt lat="42.451659743402494" lon="11.609097513504437"><ele>76.0</ele><time>2026-04-24T13:53:01Z</time></trkpt><trkpt lat="42.451575691504985" lon="11.60889878969143"><ele>76.0</ele><time>2026-04-24T13:53:02Z</time></trkpt><trkpt lat="42.451490806643854" lon="11.608699285533746"><ele>76.0</ele><time>2026-04-24T13:53:03Z</time></trkpt><trkpt lat="42.451396914500016" lon="11.608492090912309"><ele>76.0</ele><time>2026-04-24T13:53:04Z</time></trkpt><trkpt lat="42.45129651414988" lon="11.60829965978661"><ele>77.0</ele><time>2026-04-24T13:53:05.001Z</time></trkpt><trkpt lat="42.451210847837125" lon="11.608146301280788"><ele>78.0</ele><time>2026-04-24T13:53:06.001Z</time></trkpt><trkpt lat="42.45113815732742" lon="11.60802552982416"><ele>79.0</ele><time>2026-04-24T13:53:07.001Z</time></trkpt><trkpt lat="42.45109211663552" lon="11.607913278957545"><ele>80.0</ele><time>2026-04-24T13:53:08.001Z</time></trkpt><trkpt lat="42.45106397202902" lon="11.607783803318593"><ele>80.0</ele><time>2026-04-24T13:53:09.001Z</time></trkpt><trkpt lat="42.45103728998517" lon="11.607633013703902"><ele>80.0</ele><time>2026-04-24T13:53:10.001Z</time></trkpt><trkpt lat="42.45100366300569" lon="11.607458075427521"><ele>80.0</ele><time>2026-04-24T13:53:11.001Z</time></trkpt><trkpt lat="42.450962372467885" lon="11.607266981506367"><ele>80.0</ele><time>2026-04-24T13:53:12.001Z</time></trkpt><trkpt lat="42.45090834214272" lon="11.607053636767324"><ele>80.66666666666667</ele><time>2026-04-24T13:53:13.001Z</time></trkpt><trkpt lat="42.450847697996885" lon="11.60683135893382"><ele>81.33333333333333</ele><time>2026-04-24T13:53:14.001Z</time></trkpt><trkpt lat="42.450792079576566" lon="11.606609284049096"><ele>82.0</ele><time>2026-04-24T13:53:15.001Z</time></trkpt><trkpt lat="42.45073207880089" lon="11.606373852328144"><ele>82.66666666666666</ele><time>2026-04-24T13:53:16.001Z</time></trkpt><trkpt lat="42.45066741019476" lon="11.606149042437824"><ele>83.33333333333333</ele><time>2026-04-24T13:53:17.001Z</time></trkpt><trkpt lat="42.45060769665285" lon="11.605937828118188"><ele>84.0</ele><time>2026-04-24T13:53:18.001Z</time></trkpt><trkpt lat="42.45055001827318" lon="11.605743420006565"><ele>84.0</ele><time>2026-04-24T13:53:19.001Z</time></trkpt><trkpt lat="42.45049144645289" lon="11.605546581203035"><ele>84.0</ele><time>2026-04-24T13:53:20.001Z</time></trkpt><trkpt lat="42.45044033339205" lon="11.60537519122799"><ele>84.0</ele><time>2026-04-24T13:53:21.001Z</time></trkpt><trkpt lat="42.4503909321189" lon="11.60521739202266"><ele>84.0</ele><time>2026-04-24T13:53:22.001Z</time></trkpt><trkpt lat="42.45033551837632" lon="11.605065929511387"><ele>84.0</ele><time>2026-04-24T13:53:23.001Z</time></trkpt><trkpt lat="42.45026366411823" lon="11.604918681776118"><ele>84.0</ele><time>2026-04-24T13:53:24.001Z</time></trkpt><trkpt lat="42.45018712249204" lon="11.604789565873679"><ele>84.0</ele><time>2026-04-24T13:53:25.001Z</time></trkpt><trkpt lat="42.45010037896252" lon="11.604680859978618"><ele>84.0</ele><time>2026-04-24T13:53:26.001Z</time></trkpt><trkpt lat="42.44999139421174" lon="11.604581217194578"><ele>84.5</ele><time>2026-04-24T13:53:27.001Z</time></trkpt><trkpt lat="42.4498751214374" lon="11.60447600239043"><ele>85.0</ele><time>2026-04-24T13:53:28.001Z</time></trkpt><trkpt lat="42.44974298132985" lon="11.604353366148587"><ele>85.5</ele><time>2026-04-24T13:53:29.001Z</time></trkpt><trkpt lat="42.449625222974745" lon="11.604235880480157"><ele>86.0</ele><time>2026-04-24T13:53:30.001Z</time></trkpt><trkpt lat="42.44951477640594" lon="11.604122264018173"><ele>86.0</ele><time>2026-04-24T13:53:31.001Z</time></trkpt><trkpt lat="42.44940632005537" lon="11.604010138050038"><ele>86.0</ele><time>2026-04-24T13:53:32.001Z</time></trkpt><trkpt lat="42.44932074336989" lon="11.603906304036634"><ele>86.0</ele><time>2026-04-24T13:53:33.001Z</time></trkpt><trkpt lat="42.44926375856917" lon="11.603824035841628"><ele>86.0</ele><time>2026-04-24T13:53:34.001Z</time></trkpt><trkpt lat="42.449199203668165" lon="11.603771497216202"><ele>86.0</ele><time>2026-04-24T13:53:35.001Z</time></trkpt><trkpt lat="42.449115169512275" lon="11.603742197736748"><ele>86.0</ele><time>2026-04-24T13:53:36.001Z</time></trkpt><trkpt lat="42.449012924446286" lon="11.603753839801449"><ele>86.0</ele><time>2026-04-24T13:53:37.001Z</time></trkpt><trkpt lat="42.44888966207407" lon="11.603805325022568"><ele>86.0</ele><time>2026-04-24T13:53:38.001Z</time></trkpt><trkpt lat="42.448760271589435" lon="11.603873356818337"><ele>86.0</ele><time>2026-04-24T13:53:39.001Z</time></trkpt><trkpt lat="42.44862880447225" lon="11.603935454286116"><ele>87.0</ele><time>2026-04-24T13:53:40.001Z</time></trkpt><trkpt lat="42.44848929821787" lon="11.603991304704117"><ele>88.0</ele><time>2026-04-24T13:53:41.001Z</time></trkpt><trkpt lat="42.44834950258928" lon="11.604039912457168"><ele>89.0</ele><time>2026-04-24T13:53:42.001Z</time></trkpt><trkpt lat="42.44821310398414" lon="11.604101830602477"><ele>90.0</ele><time>2026-04-24T13:53:43.001Z</time></trkpt><trkpt lat="42.44808035750704" lon="11.604161326235106"><ele>91.33333333333333</ele><time>2026-04-24T13:53:44.001Z</time></trkpt><trkpt lat="42.44792807575269" lon="11.604211220116612"><ele>92.66666666666666</ele><time>2026-04-24T13:53:45.001Z</time></trkpt><trkpt lat="42.44777399791239" lon="11.604249598083403"><ele>94.0</ele><time>2026-04-24T13:53:46.001Z</time></trkpt><trkpt lat="42.447615183320536" lon="11.60429551337326"><ele>94.0</ele><time>2026-04-24T13:53:47.001Z</time></trkpt><trkpt lat="42.44745691914961" lon="11.604354616252424"><ele>94.0</ele><time>2026-04-24T13:53:48.001Z</time></trkpt><trkpt lat="42.44730678286205" lon="11.60441281519802"><ele>94.0</ele><time>2026-04-24T13:53:49.001Z</time></trkpt><trkpt lat="42.447173148878946" lon="11.60445880048363"><ele>95.0</ele><time>2026-04-24T13:53:50.001Z</time></trkpt><trkpt lat="42.44705811388458" lon="11.604499675006597"><ele>96.0</ele><time>2026-04-24T13:53:51.001Z</time></trkpt><trkpt lat="42.446959522752785" lon="11.604530725125471"><ele>97.0</ele><time>2026-04-24T13:53:52.001Z</time></trkpt><trkpt lat="42.44686894497884" lon="11.604561693324818"><ele>98.0</ele><time>2026-04-24T13:53:53.001Z</time></trkpt><trkpt lat="42.44680057707127" lon="11.60458627167343"><ele>99.0</ele><time>2026-04-24T13:53:54.001Z</time></trkpt><trkpt lat="42.44673064834274" lon="11.604608999229457"><ele>99.0</ele><time>2026-04-24T13:53:55.001Z</time></trkpt><trkpt lat="42.44666820448697" lon="11.604630232590388"><ele>99.0</ele><time>2026-04-24T13:53:56.001Z</time></trkpt><trkpt lat="42.44656504703318" lon="11.60465034912073"><ele>99.0</ele><time>2026-04-24T13:53:58.001Z</time></trkpt><trkpt lat="42.44649621987484" lon="11.604630884946276"><ele>99.0</ele><time>2026-04-24T13:54:15.002Z</time></trkpt><trkpt lat="42.44640681604834" lon="11.60467761637161"><ele>99.0</ele><time>2026-04-24T13:54:17.002Z</time></trkpt><trkpt lat="42.44635381049069" lon="11.604741251046113"><ele>99.0</ele><time>2026-04-24T13:54:18.002Z</time></trkpt><trkpt lat="42.44627493004986" lon="11.604815548099479"><ele>97.75</ele><time>2026-04-24T13:54:19.002Z</time></trkpt><trkpt lat="42.446160731887524" lon="11.604891455040221"><ele>96.5</ele><time>2026-04-24T13:54:20.002Z</time></trkpt><trkpt lat="42.44605334153517" lon="11.604965925062674"><ele>95.25</ele><time>2026-04-24T13:54:21.002Z</time></trkpt><trkpt lat="42.445928752110824" lon="11.605049549531222"><ele>94.0</ele><time>2026-04-24T13:54:22.002Z</time></trkpt><trkpt lat="42.44579221443234" lon="11.60514017764771"><ele>94.0</ele><time>2026-04-24T13:54:23.002Z</time></trkpt><trkpt lat="42.445647625218484" lon="11.605232134958314"><ele>94.0</ele><time>2026-04-24T13:54:24.002Z</time></trkpt><trkpt lat="42.44550390721053" lon="11.605323322812088"><ele>94.0</ele><time>2026-04-24T13:54:25.002Z</time></trkpt><trkpt lat="42.44536356730453" lon="11.605416783406003"><ele>93.33333333333333</ele><time>2026-04-24T13:54:26.002Z</time></trkpt><trkpt lat="42.44521225160942" lon="11.605510862760402"><ele>92.66666666666667</ele><time>2026-04-24T13:54:27.002Z</time></trkpt><trkpt lat="42.44505070683168" lon="11.605619717526624"><ele>92.0</ele><time>2026-04-24T13:54:28.002Z</time></trkpt><trkpt lat="42.44488902896496" lon="11.605725225087351"><ele>92.0</ele><time>2026-04-24T13:54:29.002Z</time></trkpt><trkpt lat="42.44471719751146" lon="11.6058366874039"><ele>92.0</ele><time>2026-04-24T13:54:30.002Z</time></trkpt><trkpt lat="42.44454055059876" lon="11.605950561317137"><ele>92.0</ele><time>2026-04-24T13:54:31.002Z</time></trkpt><trkpt lat="42.44437449271774" lon="11.606053712362037"><ele>90.66666666666667</ele><time>2026-04-24T13:54:32.002Z</time></trkpt><trkpt lat="42.444205826923586" lon="11.60615705897857"><ele>89.33333333333333</ele><time>2026-04-24T13:54:33.002Z</time></trkpt><trkpt lat="42.444047298262355" lon="11.606223644595046"><ele>88.0</ele><time>2026-04-24T13:54:34.002Z</time></trkpt><trkpt lat="42.443882275807375" lon="11.606318866867923"><ele>87.0</ele><time>2026-04-24T13:54:35.002Z</time></trkpt><trkpt lat="42.44371231478788" lon="11.606422212687088"><ele>86.0</ele><time>2026-04-24T13:54:36.002Z</time></trkpt><trkpt lat="42.44354006139678" lon="11.606566262776504"><ele>85.0</ele><time>2026-04-24T13:54:37.002Z</time></trkpt><trkpt lat="42.44335969126026" lon="11.606706249893213"><ele>85.0</ele><time>2026-04-24T13:54:38.002Z</time></trkpt><trkpt lat="42.4431737001535" lon="11.606844761288066"><ele>85.0</ele><time>2026-04-24T13:54:39.002Z</time></trkpt><trkpt lat="42.44299041990603" lon="11.606974328685103"><ele>85.0</ele><time>2026-04-24T13:54:40.002Z</time></trkpt><trkpt lat="42.442813308079394" lon="11.607102663031277"><ele>85.33333333333333</ele><time>2026-04-24T13:54:41.002Z</time></trkpt><trkpt lat="42.44264068571215" lon="11.607230808617869"><ele>85.66666666666667</ele><time>2026-04-24T13:54:42.002Z</time></trkpt><trkpt lat="42.442469776062616" lon="11.607354504886446"><ele>86.0</ele><time>2026-04-24T13:54:43.002Z</time></trkpt><trkpt lat="42.44230348073426" lon="11.60747953819522"><ele>86.0</ele><time>2026-04-24T13:54:44.002Z</time></trkpt><trkpt lat="42.442139824733346" lon="11.607610775240746"><ele>86.0</ele><time>2026-04-24T13:54:45.002Z</time></trkpt><trkpt lat="42.4419808513927" lon="11.607754617402009"><ele>86.0</ele><time>2026-04-24T13:54:46.002Z</time></trkpt><trkpt lat="42.44181655862637" lon="11.607913204738406"><ele>85.66666666666667</ele><time>2026-04-24T13:54:47.002Z</time></trkpt><trkpt lat="42.441651250526625" lon="11.608084937644163"><ele>85.33333333333333</ele><time>2026-04-24T13:54:48.002Z</time></trkpt><trkpt lat="42.44148355534731" lon="11.608260092416677"><ele>85.0</ele><time>2026-04-24T13:54:49.002Z</time></trkpt><trkpt lat="42.441307875329606" lon="11.608401895114847"><ele>85.33333333333333</ele><time>2026-04-24T13:54:50.002Z</time></trkpt><trkpt lat="42.441145099030194" lon="11.608554599361629"><ele>85.66666666666667</ele><time>2026-04-24T13:54:51.002Z</time></trkpt><trkpt lat="42.44098243068965" lon="11.608707202277966"><ele>86.0</ele><time>2026-04-24T13:54:52.002Z</time></trkpt><trkpt lat="42.44082156794245" lon="11.608858111268088"><ele>86.33333333333334</ele><time>2026-04-24T13:54:53.002Z</time></trkpt><trkpt lat="42.44066037253308" lon="11.609009602844592"><ele>86.66666666666667</ele><time>2026-04-24T13:54:54.002Z</time></trkpt><trkpt lat="42.44050236100843" lon="11.60915999718504"><ele>87.0</ele><time>2026-04-24T13:54:55.002Z</time></trkpt><trkpt lat="42.44034475104618" lon="11.609310009260946"><ele>87.33333333333333</ele><time>2026-04-24T13:54:56.002Z</time></trkpt><trkpt lat="42.44018875775434" lon="11.60945848258923"><ele>87.66666666666666</ele><time>2026-04-24T13:54:57.002Z</time></trkpt><trkpt lat="42.440034029006405" lon="11.609603528308128"><ele>88.0</ele><time>2026-04-24T13:54:58.002Z</time></trkpt><trkpt lat="42.43988174377362" lon="11.609745845191203"><ele>87.33333333333333</ele><time>2026-04-24T13:54:59.002Z</time></trkpt><trkpt lat="42.43972832281244" lon="11.609889965866932"><ele>86.66666666666667</ele><time>2026-04-24T13:55:00.002Z</time></trkpt><trkpt lat="42.43957616505686" lon="11.610033216042563"><ele>86.0</ele><time>2026-04-24T13:55:01.002Z</time></trkpt><trkpt lat="42.439423726995926" lon="11.61017695771611"><ele>86.0</ele><time>2026-04-24T13:55:02.002Z</time></trkpt><trkpt lat="42.43927036910278" lon="11.610321566805137"><ele>86.0</ele><time>2026-04-24T13:55:03.002Z</time></trkpt><trkpt lat="42.439115240506005" lon="11.61046774670637"><ele>86.0</ele><time>2026-04-24T13:55:04.002Z</time></trkpt><trkpt lat="42.438961829522526" lon="11.610609910787305"><ele>87.0</ele><time>2026-04-24T13:55:05.002Z</time></trkpt><trkpt lat="42.43880247359834" lon="11.610757583961506"><ele>88.0</ele><time>2026-04-24T13:55:06.002Z</time></trkpt><trkpt lat="42.43864143171644" lon="11.6109041113201"><ele>89.0</ele><time>2026-04-24T13:55:07.002Z</time></trkpt><trkpt lat="42.438480816616405" lon="11.611042480705198"><ele>90.33333333333334</ele><time>2026-04-24T13:55:08.002Z</time></trkpt><trkpt lat="42.438324923301856" lon="11.6111676212146"><ele>91.66666666666667</ele><time>2026-04-24T13:55:09.002Z</time></trkpt><trkpt lat="42.438171533908566" lon="11.611289367206854"><ele>93.0</ele><time>2026-04-24T13:55:10.002Z</time></trkpt><trkpt lat="42.43801702706524" lon="11.611409687974898"><ele>92.33333333333333</ele><time>2026-04-24T13:55:11.002Z</time></trkpt><trkpt lat="42.437869380190584" lon="11.611524952403625"><ele>91.66666666666666</ele><time>2026-04-24T13:55:12.002Z</time></trkpt><trkpt lat="42.43772018655039" lon="11.611641594783828"><ele>91.0</ele><time>2026-04-24T13:55:13.002Z</time></trkpt><trkpt lat="42.437571430997494" lon="11.611757894587694"><ele>91.0</ele><time>2026-04-24T13:55:14.002Z</time></trkpt><trkpt lat="42.43742298054962" lon="11.611873943861617"><ele>91.0</ele><time>2026-04-24T13:55:15.002Z</time></trkpt><trkpt lat="42.43727185317322" lon="11.611991785067522"><ele>91.0</ele><time>2026-04-24T13:55:16.002Z</time></trkpt><trkpt lat="42.437129214004734" lon="11.612124554761946"><ele>90.25</ele><time>2026-04-24T13:55:17.003Z</time></trkpt><trkpt lat="42.43698659011252" lon="11.612231287345143"><ele>89.5</ele><time>2026-04-24T13:55:18.003Z</time></trkpt><trkpt lat="42.43685243937306" lon="11.612328145091734"><ele>88.75</ele><time>2026-04-24T13:55:19.003Z</time></trkpt><trkpt lat="42.43673240775427" lon="11.612406364851644"><ele>88.0</ele><time>2026-04-24T13:55:20.003Z</time></trkpt><trkpt lat="42.43663303102378" lon="11.61247268125913"><ele>88.0</ele><time>2026-04-24T13:55:21.003Z</time></trkpt><trkpt lat="42.43655281286823" lon="11.612534556937362"><ele>88.0</ele><time>2026-04-24T13:55:22.003Z</time></trkpt><trkpt lat="42.43649034702734" lon="11.612586483981874"><ele>88.0</ele><time>2026-04-24T13:55:23.003Z</time></trkpt><trkpt lat="42.43642766481928" lon="11.612621322730691"><ele>88.0</ele><time>2026-04-24T13:55:24.003Z</time></trkpt><trkpt lat="42.436346919746796" lon="11.612630069936044"><ele>88.0</ele><time>2026-04-24T13:55:26.003Z</time></trkpt><trkpt lat="42.43638531702082" lon="11.61244088821783"><ele>88.0</ele><time>2026-04-24T13:55:29.003Z</time></trkpt><trkpt lat="42.43640208714201" lon="11.612303587351812"><ele>88.0</ele><time>2026-04-24T13:55:31.003Z</time></trkpt><trkpt lat="42.436421265353594" lon="11.612180961429948"><ele>88.0</ele><time>2026-04-24T13:55:33.003Z</time></trkpt><trkpt lat="42.43642825416733" lon="11.612017912236995"><ele>88.0</ele><time>2026-04-24T13:55:35.003Z</time></trkpt><trkpt lat="42.43642765625956" lon="11.611915747246854"><ele>88.0</ele><time>2026-04-24T13:55:36.003Z</time></trkpt><trkpt lat="42.436411458594286" lon="11.611784855262037"><ele>88.2</ele><time>2026-04-24T13:55:37.003Z</time></trkpt><trkpt lat="42.43643404518186" lon="11.611644257259227"><ele>88.4</ele><time>2026-04-24T13:55:38.003Z</time></trkpt><trkpt lat="42.43643703490815" lon="11.61152155118631"><ele>88.60000000000001</ele><time>2026-04-24T13:55:39.003Z</time></trkpt><trkpt lat="42.436433480830445" lon="11.61137228954201"><ele>88.80000000000001</ele><time>2026-04-24T13:55:40.003Z</time></trkpt><trkpt lat="42.43643809952782" lon="11.611222955636585"><ele>89.0</ele><time>2026-04-24T13:55:41.003Z</time></trkpt><trkpt lat="42.43644485075233" lon="11.611112521866099"><ele>88.66666666666667</ele><time>2026-04-24T13:55:42.003Z</time></trkpt><trkpt lat="42.436439502699706" lon="11.611016576211378"><ele>88.33333333333334</ele><time>2026-04-24T13:55:43.003Z</time></trkpt><trkpt lat="42.43643533015356" lon="11.610923733922368"><ele>88.0</ele><time>2026-04-24T13:55:44.003Z</time></trkpt><trkpt lat="42.43644375299175" lon="11.610832084400908"><ele>87.66666666666667</ele><time>2026-04-24T13:55:45.003Z</time></trkpt><trkpt lat="42.436448972459296" lon="11.610740371735794"><ele>87.33333333333333</ele><time>2026-04-24T13:55:46.003Z</time></trkpt><trkpt lat="42.436445147347044" lon="11.610621307399898"><ele>87.0</ele><time>2026-04-24T13:55:47.003Z</time></trkpt><trkpt lat="42.43644113789006" lon="11.610504164614689"><ele>87.0</ele><time>2026-04-24T13:55:48.003Z</time></trkpt><trkpt lat="42.43643373131746" lon="11.610395619095623"><ele>87.0</ele><time>2026-04-24T13:55:49.003Z</time></trkpt><trkpt lat="42.436435744692936" lon="11.610280665425796"><ele>87.0</ele><time>2026-04-24T13:55:50.003Z</time></trkpt><trkpt lat="42.4364321311265" lon="11.610174811080157"><ele>87.0</ele><time>2026-04-24T13:55:51.003Z</time></trkpt><trkpt lat="42.43642647846504" lon="11.610059866834671"><ele>87.0</ele><time>2026-04-24T13:55:52.003Z</time></trkpt><trkpt lat="42.43642624424045" lon="11.609930624061041"><ele>87.0</ele><time>2026-04-24T13:55:53.003Z</time></trkpt><trkpt lat="42.43642393618039" lon="11.609807657320218"><ele>86.0</ele><time>2026-04-24T13:55:54.003Z</time></trkpt><trkpt lat="42.43641842847902" lon="11.609670176587931"><ele>85.0</ele><time>2026-04-24T13:55:55.003Z</time></trkpt><trkpt lat="42.43641195784412" lon="11.609536178570432"><ele>84.0</ele><time>2026-04-24T13:55:56.003Z</time></trkpt><trkpt lat="42.43640615278206" lon="11.609407475626039"><ele>83.0</ele><time>2026-04-24T13:55:57.003Z</time></trkpt><trkpt lat="42.43640073852758" lon="11.609282214428278"><ele>82.0</ele><time>2026-04-24T13:55:58.003Z</time></trkpt><trkpt lat="42.436395180713355" lon="11.609157481225257"><ele>81.39999999999999</ele><time>2026-04-24T13:55:59.003Z</time></trkpt><trkpt lat="42.436391004184834" lon="11.609011082426711"><ele>80.8</ele><time>2026-04-24T13:56:00.003Z</time></trkpt><trkpt lat="42.43638026612171" lon="11.608839633248817"><ele>80.2</ele><time>2026-04-24T13:56:01.003Z</time></trkpt><trkpt lat="42.436372243586675" lon="11.60868926665588"><ele>79.6</ele><time>2026-04-24T13:56:02.003Z</time></trkpt><trkpt lat="42.43635813614408" lon="11.608581452050538"><ele>79.0</ele><time>2026-04-24T13:56:03.003Z</time></trkpt><trkpt lat="42.43634353806864" lon="11.608492155954606"><ele>79.0</ele><time>2026-04-24T13:56:04.003Z</time></trkpt><trkpt lat="42.43636953275049" lon="11.608334844368049"><ele>79.0</ele><time>2026-04-24T13:56:06.003Z</time></trkpt><trkpt lat="42.43634578600737" lon="11.608186656561925"><ele>79.0</ele><time>2026-04-24T13:56:08.003Z</time></trkpt><trkpt lat="42.43636430046378" lon="11.608078217809222"><ele>79.0</ele><time>2026-04-24T13:56:09.003Z</time></trkpt><trkpt lat="42.436361740512865" lon="11.60795655957909"><ele>79.0</ele><time>2026-04-24T13:56:10.003Z</time></trkpt><trkpt lat="42.4363607874044" lon="11.607815984033072"><ele>78.83333333333333</ele><time>2026-04-24T13:56:11.003Z</time></trkpt><trkpt lat="42.43635256984492" lon="11.607667695939023"><ele>78.66666666666666</ele><time>2026-04-24T13:56:12.003Z</time></trkpt><trkpt lat="42.43634784802173" lon="11.60754890891238"><ele>78.5</ele><time>2026-04-24T13:56:13.003Z</time></trkpt><trkpt lat="42.436346125563695" lon="11.607435264641165"><ele>78.33333333333333</ele><time>2026-04-24T13:56:14.003Z</time></trkpt><trkpt lat="42.436352291241676" lon="11.607324893533416"><ele>78.16666666666667</ele><time>2026-04-24T13:56:15.003Z</time></trkpt><trkpt lat="42.43635268470822" lon="11.607213311592316"><ele>78.0</ele><time>2026-04-24T13:56:16.003Z</time></trkpt><trkpt lat="42.43634899241275" lon="11.607109064474733"><ele>78.0</ele><time>2026-04-24T13:56:17.003Z</time></trkpt><trkpt lat="42.436344918405865" lon="11.607016876418768"><ele>78.0</ele><time>2026-04-24T13:56:18.003Z</time></trkpt><trkpt lat="42.436348389512844" lon="11.60693005754146"><ele>78.0</ele><time>2026-04-24T13:56:19.003Z</time></trkpt><trkpt lat="42.43634705418997" lon="11.606761208901698"><ele>78.0</ele><time>2026-04-24T13:56:21.003Z</time></trkpt><trkpt lat="42.43633669484949" lon="11.606613395483018"><ele>78.0</ele><time>2026-04-24T13:56:23.003Z</time></trkpt><trkpt lat="42.43633317951946" lon="11.606467275339424"><ele>77.83333333333333</ele><time>2026-04-24T13:56:25.003Z</time></trkpt><trkpt lat="42.436335429866986" lon="11.60633208546377"><ele>77.66666666666667</ele><time>2026-04-24T13:56:27.004Z</time></trkpt><trkpt lat="42.43634317702178" lon="11.60619894246114"><ele>77.5</ele><time>2026-04-24T13:56:29.004Z</time></trkpt><trkpt lat="42.436358145151715" lon="11.606079251606378"><ele>77.33333333333334</ele><time>2026-04-24T13:56:32.004Z</time></trkpt><trkpt lat="42.43634941694465" lon="11.605963331253962"><ele>77.16666666666667</ele><time>2026-04-24T13:56:34.004Z</time></trkpt><trkpt lat="42.43634585695803" lon="11.605861466423065"><ele>77.0</ele><time>2026-04-24T13:56:36.004Z</time></trkpt><trkpt lat="42.436340057410746" lon="11.60571955234588"><ele>76.2</ele><time>2026-04-24T13:56:38.004Z</time></trkpt><trkpt lat="42.43633240840898" lon="11.605457536394804"><ele>75.4</ele><time>2026-04-24T13:56:42.004Z</time></trkpt><trkpt lat="42.43633043152318" lon="11.605335877978927"><ele>74.6</ele><time>2026-04-24T13:56:43.004Z</time></trkpt><trkpt lat="42.43632676487441" lon="11.605242826155852"><ele>73.8</ele><time>2026-04-24T13:56:44.004Z</time></trkpt><trkpt lat="42.43632579920502" lon="11.605141753804622"><ele>73.0</ele><time>2026-04-24T13:56:46.004Z</time></trkpt><trkpt lat="42.43630843486113" lon="11.605048726193228"><ele>72.2</ele><time>2026-04-24T13:56:50.004Z</time></trkpt><trkpt lat="42.43630196155653" lon="11.6048821980684"><ele>71.4</ele><time>2026-04-24T13:56:52.004Z</time></trkpt><trkpt lat="42.43630040564894" lon="11.60479622091982"><ele>70.60000000000001</ele><time>2026-04-24T13:56:53.004Z</time></trkpt><trkpt lat="42.436286918161436" lon="11.60464609593414"><ele>69.8</ele><time>2026-04-24T13:56:55.004Z</time></trkpt><trkpt lat="42.436271819634435" lon="11.604504744237765"><ele>69.0</ele><time>2026-04-24T13:56:57.004Z</time></trkpt><trkpt lat="42.43626216599016" lon="11.60434978373224"><ele>69.0</ele><time>2026-04-24T13:56:59.004Z</time></trkpt><trkpt lat="42.43625799788735" lon="11.604236028084454"><ele>69.0</ele><time>2026-04-24T13:57:01.004Z</time></trkpt><trkpt lat="42.43625466899302" lon="11.604142930178199"><ele>69.0</ele><time>2026-04-24T13:57:02.004Z</time></trkpt><trkpt lat="42.436253665215155" lon="11.604031791620033"><ele>69.0</ele><time>2026-04-24T13:57:03.004Z</time></trkpt><trkpt lat="42.436257746658285" lon="11.603898696004423"><ele>69.0</ele><time>2026-04-24T13:57:04.004Z</time></trkpt><trkpt lat="42.43625729858861" lon="11.603772728989961"><ele>69.0</ele><time>2026-04-24T13:57:05.004Z</time></trkpt><trkpt lat="42.436255101341125" lon="11.603656972988496"><ele>69.8</ele><time>2026-04-24T13:57:06.004Z</time></trkpt><trkpt lat="42.436253373566934" lon="11.603522768820948"><ele>70.60000000000001</ele><time>2026-04-24T13:57:07.004Z</time></trkpt><trkpt lat="42.436255932609" lon="11.603395349312889"><ele>71.4</ele><time>2026-04-24T13:57:08.004Z</time></trkpt><trkpt lat="42.43625808729668" lon="11.603253079579567"><ele>72.2</ele><time>2026-04-24T13:57:09.004Z</time></trkpt><trkpt lat="42.43625846466932" lon="11.603119483849959"><ele>73.0</ele><time>2026-04-24T13:57:10.004Z</time></trkpt><trkpt lat="42.43626171356318" lon="11.6029845526829"><ele>73.0</ele><time>2026-04-24T13:57:11.004Z</time></trkpt><trkpt lat="42.436271207388465" lon="11.602848834631548"><ele>73.0</ele><time>2026-04-24T13:57:12.004Z</time></trkpt><trkpt lat="42.43627886531133" lon="11.602708861190127"><ele>73.0</ele><time>2026-04-24T13:57:13.004Z</time></trkpt><trkpt lat="42.43628751301522" lon="11.602588369457175"><ele>73.0</ele><time>2026-04-24T13:57:14.004Z</time></trkpt><trkpt lat="42.436299161886424" lon="11.602474214705762"><ele>73.0</ele><time>2026-04-24T13:57:15.004Z</time></trkpt><trkpt lat="42.436311647066255" lon="11.602366820334867"><ele>74.0</ele><time>2026-04-24T13:57:16.004Z</time></trkpt><trkpt lat="42.4363240917037" lon="11.60225690078655"><ele>75.0</ele><time>2026-04-24T13:57:17.004Z</time></trkpt><trkpt lat="42.43633095089245" lon="11.602111916666743"><ele>76.0</ele><time>2026-04-24T13:57:18.004Z</time></trkpt><trkpt lat="42.43635984467942" lon="11.60197798211496"><ele>77.0</ele><time>2026-04-24T13:57:19.004Z</time></trkpt><trkpt lat="42.436351791097756" lon="11.601862055631655"><ele>78.0</ele><time>2026-04-24T13:57:20.004Z</time></trkpt><trkpt lat="42.436385392073014" lon="11.601769883975312"><ele>78.66666666666667</ele><time>2026-04-24T13:57:21.004Z</time></trkpt><trkpt lat="42.436388368643" lon="11.601679274750778"><ele>79.33333333333333</ele><time>2026-04-24T13:57:22.004Z</time></trkpt><trkpt lat="42.43638772360736" lon="11.601574443907197"><ele>80.0</ele><time>2026-04-24T13:57:23.004Z</time></trkpt><trkpt lat="42.43638649848217" lon="11.601453966297417"><ele>80.66666666666666</ele><time>2026-04-24T13:57:24.004Z</time></trkpt><trkpt lat="42.43638958290531" lon="11.60132903237952"><ele>81.33333333333333</ele><time>2026-04-24T13:57:25.004Z</time></trkpt><trkpt lat="42.43638356065955" lon="11.601182433893404"><ele>82.0</ele><time>2026-04-24T13:57:26.004Z</time></trkpt><trkpt lat="42.43636712187057" lon="11.601033141796648"><ele>82.16666666666666</ele><time>2026-04-24T13:57:27.004Z</time></trkpt><trkpt lat="42.43636746287385" lon="11.600912044617697"><ele>82.33333333333333</ele><time>2026-04-24T13:57:28.004Z</time></trkpt><trkpt lat="42.43636751305709" lon="11.60080164827588"><ele>82.5</ele><time>2026-04-24T13:57:29.004Z</time></trkpt><trkpt lat="42.43637072757941" lon="11.60071244416304"><ele>82.66666666666667</ele><time>2026-04-24T13:57:30.004Z</time></trkpt><trkpt lat="42.436368980573654" lon="11.600623473026952"><ele>82.83333333333334</ele><time>2026-04-24T13:57:31.004Z</time></trkpt><trkpt lat="42.436365612855624" lon="11.6004556155805"><ele>83.0</ele><time>2026-04-24T13:57:33.004Z</time></trkpt><trkpt lat="42.4363677846414" lon="11.600322596755593"><ele>82.5</ele><time>2026-04-24T13:57:35.004Z</time></trkpt><trkpt lat="42.436369531956075" lon="11.600226441538522"><ele>82.0</ele><time>2026-04-24T13:57:38.005Z</time></trkpt><trkpt lat="42.43635959706768" lon="11.600107186299052"><ele>81.5</ele><time>2026-04-24T13:57:51.005Z</time></trkpt><trkpt lat="42.4363591936955" lon="11.600018616230999"><ele>81.0</ele><time>2026-04-24T13:57:52.005Z</time></trkpt><trkpt lat="42.436361327206384" lon="11.599931371038409"><ele>80.5</ele><time>2026-04-24T13:57:53.005Z</time></trkpt><trkpt lat="42.43635705955745" lon="11.599821036713438"><ele>80.0</ele><time>2026-04-24T13:57:54.005Z</time></trkpt><trkpt lat="42.43635936852667" lon="11.599711033715197"><ele>80.0</ele><time>2026-04-24T13:57:55.005Z</time></trkpt><trkpt lat="42.43634932396121" lon="11.599594559112257"><ele>80.0</ele><time>2026-04-24T13:57:56.005Z</time></trkpt><trkpt lat="42.436338712027315" lon="11.599462422313545"><ele>80.0</ele><time>2026-04-24T13:57:57.005Z</time></trkpt><trkpt lat="42.43633256119511" lon="11.599345387040463"><ele>80.0</ele><time>2026-04-24T13:57:58.005Z</time></trkpt><trkpt lat="42.43632370624787" lon="11.599236805890689"><ele>80.0</ele><time>2026-04-24T13:58:00.005Z</time></trkpt><trkpt lat="42.436326995451715" lon="11.599147631823463"><ele>80.0</ele><time>2026-04-24T13:58:04.005Z</time></trkpt><trkpt lat="42.43631010246677" lon="11.59905210140063"><ele>80.0</ele><time>2026-04-24T13:58:07.005Z</time></trkpt><trkpt lat="42.43632560121218" lon="11.598956644406778"><ele>80.0</ele><time>2026-04-24T13:58:09.005Z</time></trkpt><trkpt lat="42.43632348409309" lon="11.598812721431365"><ele>80.0</ele><time>2026-04-24T13:58:11.005Z</time></trkpt><trkpt lat="42.43630396751485" lon="11.598697237354498"><ele>80.0</ele><time>2026-04-24T13:58:22.005Z</time></trkpt><trkpt lat="42.43630150067013" lon="11.598546122515154"><ele>80.0</ele><time>2026-04-24T13:58:24.005Z</time></trkpt><trkpt lat="42.436298038962896" lon="11.59843039500417"><ele>80.0</ele><time>2026-04-24T13:58:25.005Z</time></trkpt><trkpt lat="42.436289380575325" lon="11.598285333863387"><ele>80.0</ele><time>2026-04-24T13:58:26.005Z</time></trkpt><trkpt lat="42.43627950242869" lon="11.598144546908388"><ele>80.0</ele><time>2026-04-24T13:58:27.005Z</time></trkpt><trkpt lat="42.436290978256736" lon="11.597993531207484"><ele>80.0</ele><time>2026-04-24T13:58:28.005Z</time></trkpt><trkpt lat="42.43628387804659" lon="11.597838029183242"><ele>80.0</ele><time>2026-04-24T13:58:29.005Z</time></trkpt><trkpt lat="42.436282227923314" lon="11.597669859446947"><ele>80.6</ele><time>2026-04-24T13:58:30.005Z</time></trkpt><trkpt lat="42.4362847179052" lon="11.597503033616231"><ele>81.2</ele><time>2026-04-24T13:58:31.005Z</time></trkpt><trkpt lat="42.43630163133859" lon="11.597337548931893"><ele>81.80000000000001</ele><time>2026-04-24T13:58:32.005Z</time></trkpt><trkpt lat="42.43630638492521" lon="11.59719383789963"><ele>82.4</ele><time>2026-04-24T13:58:33.005Z</time></trkpt><trkpt lat="42.43631073069072" lon="11.597071676529369"><ele>83.0</ele><time>2026-04-24T13:58:34.005Z</time></trkpt><trkpt lat="42.436315387164086" lon="11.596970606135212"><ele>83.83333333333334</ele><time>2026-04-24T13:58:35.005Z</time></trkpt><trkpt lat="42.43631734732702" lon="11.596849595219108"><ele>84.66666666666667</ele><time>2026-04-24T13:58:37.005Z</time></trkpt><trkpt lat="42.43631908069411" lon="11.596757176387996"><ele>85.5</ele><time>2026-04-24T13:58:38.005Z</time></trkpt><trkpt lat="42.43632649509723" lon="11.59665241904475"><ele>86.33333333333333</ele><time>2026-04-24T13:58:39.005Z</time></trkpt><trkpt lat="42.43632937487299" lon="11.596532894519866"><ele>87.16666666666666</ele><time>2026-04-24T13:58:40.005Z</time></trkpt><trkpt lat="42.43633529378034" lon="11.596406987317527"><ele>88.0</ele><time>2026-04-24T13:58:41.005Z</time></trkpt><trkpt lat="42.43634621095577" lon="11.596267923319559"><ele>88.25</ele><time>2026-04-24T13:58:42.005Z</time></trkpt><trkpt lat="42.43635709399655" lon="11.596126456405614"><ele>88.5</ele><time>2026-04-24T13:58:43.005Z</time></trkpt><trkpt lat="42.436360235613925" lon="11.595976884858027"><ele>88.75</ele><time>2026-04-24T13:58:44.005Z</time></trkpt><trkpt lat="42.436355524905366" lon="11.595819999158225"><ele>89.0</ele><time>2026-04-24T13:58:45.005Z</time></trkpt><trkpt lat="42.436344785683005" lon="11.595653951183161"><ele>89.0</ele><time>2026-04-24T13:58:46.005Z</time></trkpt><trkpt lat="42.43634041848328" lon="11.595476861197126"><ele>89.0</ele><time>2026-04-24T13:58:47.006Z</time></trkpt><trkpt lat="42.43633999127965" lon="11.595319095884937"><ele>89.0</ele><time>2026-04-24T13:58:48.006Z</time></trkpt><trkpt lat="42.436339300463686" lon="11.595176979690018"><ele>89.0</ele><time>2026-04-24T13:58:49.006Z</time></trkpt><trkpt lat="42.43633883928952" lon="11.595051559739774"><ele>89.0</ele><time>2026-04-24T13:58:50.006Z</time></trkpt><trkpt lat="42.43634956228385" lon="11.594935357755805"><ele>89.2</ele><time>2026-04-24T13:58:51.006Z</time></trkpt><trkpt lat="42.43636290868211" lon="11.594817685948673"><ele>89.4</ele><time>2026-04-24T13:58:52.006Z</time></trkpt><trkpt lat="42.43638989965489" lon="11.594672728390572"><ele>89.6</ele><time>2026-04-24T13:58:53.006Z</time></trkpt><trkpt lat="42.436419662170906" lon="11.594526492116069"><ele>89.8</ele><time>2026-04-24T13:58:54.006Z</time></trkpt><trkpt lat="42.43646008704572" lon="11.594377511194594"><ele>90.0</ele><time>2026-04-24T13:58:55.006Z</time></trkpt><trkpt lat="42.43649272952507" lon="11.594263998017942"><ele>89.66666666666667</ele><time>2026-04-24T13:58:56.006Z</time></trkpt><trkpt lat="42.4365178334908" lon="11.594169153704547"><ele>89.33333333333333</ele><time>2026-04-24T13:58:57.006Z</time></trkpt><trkpt lat="42.43653923704848" lon="11.594078434406482"><ele>89.0</ele><time>2026-04-24T13:58:58.006Z</time></trkpt><trkpt lat="42.4365597899984" lon="11.59398723147721"><ele>88.66666666666666</ele><time>2026-04-24T13:58:59.006Z</time></trkpt><trkpt lat="42.436575270817414" lon="11.593902944458247"><ele>88.33333333333333</ele><time>2026-04-24T13:59:00.006Z</time></trkpt><trkpt lat="42.43660856821072" lon="11.593753726495635"><ele>88.0</ele><time>2026-04-24T13:59:02.006Z</time></trkpt><trkpt lat="42.43662920458529" lon="11.593669040540739"><ele>87.5</ele><time>2026-04-24T13:59:03.006Z</time></trkpt><trkpt lat="42.436646267384106" lon="11.59358173668269"><ele>87.0</ele><time>2026-04-24T13:59:04.006Z</time></trkpt><trkpt lat="42.43668211335947" lon="11.593490461500492"><ele>86.5</ele><time>2026-04-24T13:59:05.006Z</time></trkpt><trkpt lat="42.43670715556403" lon="11.593376058561732"><ele>86.0</ele><time>2026-04-24T13:59:06.006Z</time></trkpt><trkpt lat="42.43673049215836" lon="11.59325907844364"><ele>85.5</ele><time>2026-04-24T13:59:07.006Z</time></trkpt><trkpt lat="42.436757762472716" lon="11.59313632717473"><ele>85.0</ele><time>2026-04-24T13:59:08.006Z</time></trkpt><trkpt lat="42.436776766052006" lon="11.593008873703633"><ele>85.0</ele><time>2026-04-24T13:59:09.006Z</time></trkpt><trkpt lat="42.436797118942124" lon="11.592883476704948"><ele>85.0</ele><time>2026-04-24T13:59:10.006Z</time></trkpt><trkpt lat="42.4368454634056" lon="11.592769304701694"><ele>85.0</ele><time>2026-04-24T13:59:11.006Z</time></trkpt><trkpt lat="42.43687114830383" lon="11.592655927737448"><ele>85.0</ele><time>2026-04-24T13:59:12.006Z</time></trkpt><trkpt lat="42.43689539209797" lon="11.592553990542573"><ele>85.0</ele><time>2026-04-24T13:59:13.006Z</time></trkpt><trkpt lat="42.43691698405971" lon="11.592449112703585"><ele>85.0</ele><time>2026-04-24T13:59:14.006Z</time></trkpt><trkpt lat="42.43694541856284" lon="11.592350107275154"><ele>84.33333333333333</ele><time>2026-04-24T13:59:15.006Z</time></trkpt><trkpt lat="42.436958431532155" lon="11.592263641392913"><ele>83.66666666666666</ele><time>2026-04-24T13:59:16.006Z</time></trkpt><trkpt lat="42.43697526389766" lon="11.592174924293712"><ele>83.0</ele><time>2026-04-24T13:59:17.006Z</time></trkpt><trkpt lat="42.437012402858116" lon="11.592067705270178"><ele>82.33333333333333</ele><time>2026-04-24T13:59:18.006Z</time></trkpt><trkpt lat="42.43703059140628" lon="11.591952283404442"><ele>81.66666666666667</ele><time>2026-04-24T13:59:19.006Z</time></trkpt><trkpt lat="42.437047113536934" lon="11.59182597322202"><ele>81.0</ele><time>2026-04-24T13:59:20.006Z</time></trkpt><trkpt lat="42.43707352208461" lon="11.591680690248877"><ele>80.83333333333333</ele><time>2026-04-24T13:59:21.006Z</time></trkpt><trkpt lat="42.43710412573938" lon="11.591545846368888"><ele>80.66666666666667</ele><time>2026-04-24T13:59:22.006Z</time></trkpt><trkpt lat="42.43712722852538" lon="11.591404889709374"><ele>80.5</ele><time>2026-04-24T13:59:23.006Z</time></trkpt><trkpt lat="42.437144820227594" lon="11.591292481020234"><ele>80.33333333333334</ele><time>2026-04-24T13:59:24.006Z</time></trkpt><trkpt lat="42.437155351771274" lon="11.591195700571921"><ele>80.16666666666667</ele><time>2026-04-24T13:59:25.006Z</time></trkpt><trkpt lat="42.43715875428414" lon="11.591094918382616"><ele>80.0</ele><time>2026-04-24T13:59:26.006Z</time></trkpt><trkpt lat="42.43712879790939" lon="11.590933671289656"><ele>79.8</ele><time>2026-04-24T13:59:28.006Z</time></trkpt><trkpt lat="42.43711037184062" lon="11.590800893899802"><ele>79.6</ele><time>2026-04-24T13:59:30.006Z</time></trkpt><trkpt lat="42.437105133675985" lon="11.590661220967284"><ele>79.4</ele><time>2026-04-24T13:59:32.006Z</time></trkpt><trkpt lat="42.43708159137059" lon="11.590474632818678"><ele>79.2</ele><time>2026-04-24T13:59:34.006Z</time></trkpt><trkpt lat="42.437076700601416" lon="11.59035939430861"><ele>79.0</ele><time>2026-04-24T13:59:35.006Z</time></trkpt><trkpt lat="42.437073543813725" lon="11.590234841605092"><ele>78.66666666666666</ele><time>2026-04-24T13:59:36.006Z</time></trkpt><trkpt lat="42.43706245830842" lon="11.590117843237337"><ele>78.33333333333333</ele><time>2026-04-24T13:59:37.006Z</time></trkpt><trkpt lat="42.43704832145748" lon="11.589987041205967"><ele>78.0</ele><time>2026-04-24T13:59:38.006Z</time></trkpt><trkpt lat="42.437035584225804" lon="11.58987154880851"><ele>77.66666666666667</ele><time>2026-04-24T13:59:39.006Z</time></trkpt><trkpt lat="42.43702501841063" lon="11.58976761205378"><ele>77.33333333333334</ele><time>2026-04-24T13:59:40.006Z</time></trkpt><trkpt lat="42.43701637954628" lon="11.589664732246092"><ele>77.0</ele><time>2026-04-24T13:59:41.006Z</time></trkpt><trkpt lat="42.436998464869916" lon="11.58954793715064"><ele>76.6</ele><time>2026-04-24T13:59:42.006Z</time></trkpt><trkpt lat="42.43698994645919" lon="11.589409927832548"><ele>76.2</ele><time>2026-04-24T13:59:43.006Z</time></trkpt><trkpt lat="42.43698549686795" lon="11.589270344080186"><ele>75.8</ele><time>2026-04-24T13:59:44.006Z</time></trkpt><trkpt lat="42.4369784153011" lon="11.58912993028587"><ele>75.4</ele><time>2026-04-24T13:59:45.006Z</time></trkpt><trkpt lat="42.436970886999895" lon="11.588998124244284"><ele>75.0</ele><time>2026-04-24T13:59:46.006Z</time></trkpt><trkpt lat="42.436967167210945" lon="11.58887334228471"><ele>75.0</ele><time>2026-04-24T13:59:47.006Z</time></trkpt><trkpt lat="42.43696125280029" lon="11.58877041355693"><ele>75.0</ele><time>2026-04-24T13:59:48.006Z</time></trkpt><trkpt lat="42.43694562933535" lon="11.588584275448218"><ele>75.0</ele><time>2026-04-24T13:59:50.006Z</time></trkpt><trkpt lat="42.43694395991612" lon="11.588481999248868"><ele>75.0</ele><time>2026-04-24T13:59:51.006Z</time></trkpt><trkpt lat="42.436949715118736" lon="11.588389053642327"><ele>75.0</ele><time>2026-04-24T13:59:52.006Z</time></trkpt><trkpt lat="42.43696077971642" lon="11.588304725645283"><ele>75.0</ele><time>2026-04-24T13:59:53.006Z</time></trkpt><trkpt lat="42.43696971094808" lon="11.588208462903253"><ele>74.4</ele><time>2026-04-24T13:59:54.006Z</time></trkpt><trkpt lat="42.43696913304326" lon="11.588119436643545"><ele>73.8</ele><time>2026-04-24T13:59:55.006Z</time></trkpt><trkpt lat="42.43695422379067" lon="11.588024276291957"><ele>73.2</ele><time>2026-04-24T13:59:56.006Z</time></trkpt><trkpt lat="42.4369316483968" lon="11.587874069725073"><ele>72.6</ele><time>2026-04-24T13:59:57.007Z</time></trkpt><trkpt lat="42.43691077807174" lon="11.587728348327342"><ele>72.0</ele><time>2026-04-24T13:59:58.007Z</time></trkpt><trkpt lat="42.4368930593956" lon="11.587582063979866"><ele>71.83333333333333</ele><time>2026-04-24T13:59:59.007Z</time></trkpt><trkpt lat="42.43687255736504" lon="11.587451147478154"><ele>71.66666666666667</ele><time>2026-04-24T14:00:00.007Z</time></trkpt><trkpt lat="42.43684578892611" lon="11.587334752419636"><ele>71.5</ele><time>2026-04-24T14:00:01.007Z</time></trkpt><trkpt lat="42.436818710585506" lon="11.587246963042592"><ele>71.33333333333334</ele><time>2026-04-24T14:00:02.007Z</time></trkpt><trkpt lat="42.43678824489017" lon="11.58714460731189"><ele>71.16666666666667</ele><time>2026-04-24T14:00:04.007Z</time></trkpt><trkpt lat="42.436786454475566" lon="11.587020640662836"><ele>71.0</ele><time>2026-04-24T14:00:06.007Z</time></trkpt><trkpt lat="42.43677958193303" lon="11.586913750811703"><ele>71.0</ele><time>2026-04-24T14:00:07.007Z</time></trkpt><trkpt lat="42.43678527116551" lon="11.586827572577295"><ele>71.0</ele><time>2026-04-24T14:00:08.007Z</time></trkpt><trkpt lat="42.436791060096674" lon="11.586721676168317"><ele>71.0</ele><time>2026-04-24T14:00:09.007Z</time></trkpt><trkpt lat="42.43678169598256" lon="11.586612658013255"><ele>71.0</ele><time>2026-04-24T14:00:10.007Z</time></trkpt><trkpt lat="42.436776754261" lon="11.586493104591929"><ele>71.0</ele><time>2026-04-24T14:00:11.007Z</time></trkpt><trkpt lat="42.43678506652625" lon="11.586354143103101"><ele>71.0</ele><time>2026-04-24T14:00:12.007Z</time></trkpt><trkpt lat="42.43679709446137" lon="11.586230686240082"><ele>71.0</ele><time>2026-04-24T14:00:13.007Z</time></trkpt><trkpt lat="42.43680068513708" lon="11.586126807053619"><ele>71.0</ele><time>2026-04-24T14:00:14.007Z</time></trkpt><trkpt lat="42.43679964952677" lon="11.585967900145656"><ele>71.0</ele><time>2026-04-24T14:00:16.007Z</time></trkpt><trkpt lat="42.43680030188252" lon="11.585882068918966"><ele>71.0</ele><time>2026-04-24T14:00:17.007Z</time></trkpt><trkpt lat="42.43680337405303" lon="11.585720036567455"><ele>71.0</ele><time>2026-04-24T14:00:19.007Z</time></trkpt><trkpt lat="42.43681366244235" lon="11.585616023300387"><ele>71.0</ele><time>2026-04-24T14:00:20.007Z</time></trkpt><trkpt lat="42.43682432883467" lon="11.585501281018647"><ele>71.0</ele><time>2026-04-24T14:00:21.007Z</time></trkpt><trkpt lat="42.43682861552068" lon="11.585386962035052"><ele>71.0</ele><time>2026-04-24T14:00:22.007Z</time></trkpt><trkpt lat="42.43683557463792" lon="11.585291128089798"><ele>71.0</ele><time>2026-04-24T14:00:23.007Z</time></trkpt><trkpt lat="42.43685654565083" lon="11.58514717339103"><ele>71.0</ele><time>2026-04-24T14:00:25.007Z</time></trkpt><trkpt lat="42.436839450691046" lon="11.584983336313776"><ele>71.0</ele><time>2026-04-24T14:00:27.007Z</time></trkpt><trkpt lat="42.43683846507591" lon="11.584884556955666"><ele>71.0</ele><time>2026-04-24T14:00:28.007Z</time></trkpt><trkpt lat="42.43684161883631" lon="11.584788318185742"><ele>71.0</ele><time>2026-04-24T14:00:29.007Z</time></trkpt><trkpt lat="42.43684813988929" lon="11.584674722936294"><ele>71.0</ele><time>2026-04-24T14:00:30.007Z</time></trkpt><trkpt lat="42.43686199462828" lon="11.584545731613458"><ele>71.0</ele><time>2026-04-24T14:00:31.007Z</time></trkpt><trkpt lat="42.436882706276926" lon="11.584415831420142"><ele>71.0</ele><time>2026-04-24T14:00:32.007Z</time></trkpt><trkpt lat="42.436898542686855" lon="11.58429966518408"><ele>71.0</ele><time>2026-04-24T14:00:33.007Z</time></trkpt><trkpt lat="42.43691017420584" lon="11.584170075776973"><ele>71.0</ele><time>2026-04-24T14:00:34.007Z</time></trkpt><trkpt lat="42.43692420620523" lon="11.58403762075449"><ele>71.0</ele><time>2026-04-24T14:00:35.007Z</time></trkpt><trkpt lat="42.436936675107624" lon="11.583916257728376"><ele>71.0</ele><time>2026-04-24T14:00:36.007Z</time></trkpt><trkpt lat="42.43694704142375" lon="11.583778963653932"><ele>71.0</ele><time>2026-04-24T14:00:37.007Z</time></trkpt><trkpt lat="42.43695577855311" lon="11.58365403365923"><ele>71.6</ele><time>2026-04-24T14:00:38.007Z</time></trkpt><trkpt lat="42.43696137204329" lon="11.583533117262986"><ele>72.19999999999999</ele><time>2026-04-24T14:00:39.007Z</time></trkpt><trkpt lat="42.43696993866442" lon="11.583389352151501"><ele>72.80000000000001</ele><time>2026-04-24T14:00:40.007Z</time></trkpt><trkpt lat="42.43697512872269" lon="11.583229040263838"><ele>73.4</ele><time>2026-04-24T14:00:41.007Z</time></trkpt><trkpt lat="42.43697819917264" lon="11.583060215693875"><ele>74.0</ele><time>2026-04-24T14:00:42.007Z</time></trkpt><trkpt lat="42.43698489770376" lon="11.582876633744918"><ele>74.25</ele><time>2026-04-24T14:00:43.007Z</time></trkpt><trkpt lat="42.436990321886014" lon="11.582709455327764"><ele>74.5</ele><time>2026-04-24T14:00:44.007Z</time></trkpt><trkpt lat="42.43699261968544" lon="11.582525812543198"><ele>74.75</ele><time>2026-04-24T14:00:45.007Z</time></trkpt><trkpt lat="42.436997966520714" lon="11.582354986442297"><ele>75.0</ele><time>2026-04-24T14:00:46.007Z</time></trkpt><trkpt lat="42.437002828260994" lon="11.582173949694791"><ele>75.25</ele><time>2026-04-24T14:00:47.007Z</time></trkpt><trkpt lat="42.43700934003462" lon="11.58200390343748"><ele>75.5</ele><time>2026-04-24T14:00:48.007Z</time></trkpt><trkpt lat="42.4370141600249" lon="11.581825238053797"><ele>75.75</ele><time>2026-04-24T14:00:49.007Z</time></trkpt><trkpt lat="42.43702155389126" lon="11.581645492927498"><ele>76.0</ele><time>2026-04-24T14:00:50.007Z</time></trkpt><trkpt lat="42.437035222929424" lon="11.581464547126092"><ele>76.0</ele><time>2026-04-24T14:00:51.007Z</time></trkpt><trkpt lat="42.43704223309057" lon="11.581299285497495"><ele>76.0</ele><time>2026-04-24T14:00:52.007Z</time></trkpt><trkpt lat="42.43705417698968" lon="11.581137613813468"><ele>76.0</ele><time>2026-04-24T14:00:53.007Z</time></trkpt><trkpt lat="42.437071516781295" lon="11.580972598601631"><ele>76.0</ele><time>2026-04-24T14:00:54.007Z</time></trkpt><trkpt lat="42.43708552188398" lon="11.580800974769481"><ele>76.0</ele><time>2026-04-24T14:00:55.007Z</time></trkpt><trkpt lat="42.43709366931802" lon="11.580636816099576"><ele>76.0</ele><time>2026-04-24T14:00:56.007Z</time></trkpt><trkpt lat="42.43710540240966" lon="11.580456527528849"><ele>76.0</ele><time>2026-04-24T14:00:57.007Z</time></trkpt><trkpt lat="42.43712089494553" lon="11.580264549756222"><ele>76.0</ele><time>2026-04-24T14:00:58.007Z</time></trkpt><trkpt lat="42.437131775606176" lon="11.58009286683959"><ele>75.8</ele><time>2026-04-24T14:00:59.007Z</time></trkpt><trkpt lat="42.43714604510844" lon="11.579935396341222"><ele>75.6</ele><time>2026-04-24T14:01:00.007Z</time></trkpt><trkpt lat="42.437159323654164" lon="11.579796107602883"><ele>75.4</ele><time>2026-04-24T14:01:01.007Z</time></trkpt><trkpt lat="42.43717188157848" lon="11.579667462439085"><ele>75.2</ele><time>2026-04-24T14:01:02.007Z</time></trkpt><trkpt lat="42.43718060246073" lon="11.579566624635131"><ele>75.0</ele><time>2026-04-24T14:01:03.007Z</time></trkpt><trkpt lat="42.437208792504684" lon="11.579437948344186"><ele>74.85714285714285</ele><time>2026-04-24T14:01:05.007Z</time></trkpt><trkpt lat="42.437212064571526" lon="11.57934985099605"><ele>74.71428571428571</ele><time>2026-04-24T14:01:06.007Z</time></trkpt><trkpt lat="42.43722336833388" lon="11.579242809732738"><ele>74.57142857142857</ele><time>2026-04-24T14:01:07.008Z</time></trkpt><trkpt lat="42.437239234022734" lon="11.579126178452118"><ele>74.42857142857142</ele><time>2026-04-24T14:01:08.008Z</time></trkpt><trkpt lat="42.43725059020003" lon="11.579019625063655"><ele>74.28571428571428</ele><time>2026-04-24T14:01:09.008Z</time></trkpt><trkpt lat="42.43725883446561" lon="11.578927103447993"><ele>74.14285714285714</ele><time>2026-04-24T14:01:10.008Z</time></trkpt><trkpt lat="42.437266068667284" lon="11.57883776625837"><ele>74.0</ele><time>2026-04-24T14:01:11.008Z</time></trkpt><trkpt lat="42.43727412339695" lon="11.578736668437667"><ele>74.0</ele><time>2026-04-24T14:01:12.008Z</time></trkpt><trkpt lat="42.43728525686807" lon="11.578628042467408"><ele>74.0</ele><time>2026-04-24T14:01:13.008Z</time></trkpt><trkpt lat="42.437291799122235" lon="11.578523171667356"><ele>74.0</ele><time>2026-04-24T14:01:14.008Z</time></trkpt><trkpt lat="42.437304324513896" lon="11.578403745434393"><ele>74.0</ele><time>2026-04-24T14:01:15.008Z</time></trkpt><trkpt lat="42.43732351927126" lon="11.578316624515166"><ele>74.0</ele><time>2026-04-24T14:01:16.008Z</time></trkpt><trkpt lat="42.43733021478909" lon="11.578196766971423"><ele>74.0</ele><time>2026-04-24T14:01:18.008Z</time></trkpt><trkpt lat="42.43732193293346" lon="11.578073715430776"><ele>74.0</ele><time>2026-04-24T14:01:20.008Z</time></trkpt><trkpt lat="42.437351517710376" lon="11.577968843700763"><ele>74.0</ele><time>2026-04-24T14:01:23.008Z</time></trkpt><trkpt lat="42.4373732211475" lon="11.577806653295736"><ele>74.0</ele><time>2026-04-24T14:01:25.008Z</time></trkpt><trkpt lat="42.43738470660046" lon="11.577699978795081"><ele>74.0</ele><time>2026-04-24T14:01:26.008Z</time></trkpt><trkpt lat="42.43740189467402" lon="11.577601297796667"><ele>74.0</ele><time>2026-04-24T14:01:27.008Z</time></trkpt><trkpt lat="42.43740597035134" lon="11.577509232630455"><ele>74.0</ele><time>2026-04-24T14:01:28.008Z</time></trkpt><trkpt lat="42.43740512849099" lon="11.577400117341782"><ele>74.2</ele><time>2026-04-24T14:01:29.008Z</time></trkpt><trkpt lat="42.43741804892231" lon="11.577249598921822"><ele>74.4</ele><time>2026-04-24T14:01:31.008Z</time></trkpt><trkpt lat="42.43742959400653" lon="11.577165607003886"><ele>74.6</ele><time>2026-04-24T14:01:34.008Z</time></trkpt><trkpt lat="42.43743111289028" lon="11.576986805749591"><ele>74.8</ele><time>2026-04-24T14:01:56.008Z</time></trkpt><trkpt lat="42.437421246377355" lon="11.576884846157055"><ele>75.0</ele><time>2026-04-24T14:01:57.008Z</time></trkpt><trkpt lat="42.43741330282735" lon="11.576746613087824"><ele>74.5</ele><time>2026-04-24T14:01:58.008Z</time></trkpt><trkpt lat="42.43738902536002" lon="11.576557226961265"><ele>74.0</ele><time>2026-04-24T14:01:59.008Z</time></trkpt><trkpt lat="42.43731913607079" lon="11.576475414580374"><ele>73.5</ele><time>2026-04-24T14:02:02.008Z</time></trkpt><trkpt lat="42.43731924885361" lon="11.57632605136978"><ele>73.0</ele><time>2026-04-24T14:02:04.008Z</time></trkpt><trkpt lat="42.43731282267733" lon="11.5761722771952"><ele>72.16666666666666</ele><time>2026-04-24T14:02:06.008Z</time></trkpt><trkpt lat="42.43729843376948" lon="11.576059334060835"><ele>71.33333333333333</ele><time>2026-04-24T14:02:07.008Z</time></trkpt><trkpt lat="42.43728046056647" lon="11.575946229465012"><ele>70.5</ele><time>2026-04-24T14:02:08.008Z</time></trkpt><trkpt lat="42.43725721094817" lon="11.575805293417233"><ele>69.66666666666667</ele><time>2026-04-24T14:02:09.008Z</time></trkpt><trkpt lat="42.437236868368544" lon="11.575703407481257"><ele>68.83333333333334</ele><time>2026-04-24T14:02:10.008Z</time></trkpt><trkpt lat="42.437220396063914" lon="11.57561928893075"><ele>68.0</ele><time>2026-04-24T14:02:11.008Z</time></trkpt><trkpt lat="42.43720674975368" lon="11.575483102846043"><ele>67.16666666666667</ele><time>2026-04-24T14:02:13.008Z</time></trkpt><trkpt lat="42.43719851799713" lon="11.57531931320855"><ele>66.33333333333334</ele><time>2026-04-24T14:02:15.008Z</time></trkpt><trkpt lat="42.437198815007804" lon="11.575205702461625"><ele>65.5</ele><time>2026-04-24T14:02:17.009Z</time></trkpt><trkpt lat="42.43719323922474" lon="11.57511677199531"><ele>64.66666666666667</ele><time>2026-04-24T14:02:19.009Z</time></trkpt><trkpt lat="42.43721549588214" lon="11.575020875426945"><ele>63.833333333333336</ele><time>2026-04-24T14:02:21.009Z</time></trkpt><trkpt lat="42.437233588591226" lon="11.574934756597958"><ele>63.0</ele><time>2026-04-24T14:02:23.009Z</time></trkpt><trkpt lat="42.4372595295634" lon="11.574851045238677"><ele>63.0</ele><time>2026-04-24T14:02:27.009Z</time></trkpt><trkpt lat="42.43729527585596" lon="11.574763935118924"><ele>63.0</ele><time>2026-04-24T14:02:29.009Z</time></trkpt><trkpt lat="42.437344168837654" lon="11.574616633839382"><ele>63.0</ele><time>2026-04-24T14:02:31.009Z</time></trkpt><trkpt lat="42.437379272040815" lon="11.574544887683977"><ele>63.0</ele><time>2026-04-24T14:02:33.009Z</time></trkpt><trkpt lat="42.43738835982862" lon="11.574458971255671"><ele>63.0</ele><time>2026-04-24T14:02:36.009Z</time></trkpt><trkpt lat="42.43744712558404" lon="11.574273901535939"><ele>63.0</ele><time>2026-04-24T14:02:48.009Z</time></trkpt><trkpt lat="42.43750136852399" lon="11.574187750985708"><ele>63.0</ele><time>2026-04-24T14:02:49.009Z</time></trkpt><trkpt lat="42.43754119851317" lon="11.574115253776407"><ele>63.0</ele><time>2026-04-24T14:02:50.009Z</time></trkpt><trkpt lat="42.43760234869877" lon="11.574021968212564"><ele>63.0</ele><time>2026-04-24T14:02:51.009Z</time></trkpt><trkpt lat="42.43765675717916" lon="11.573941180110754"><ele>63.0</ele><time>2026-04-24T14:02:52.009Z</time></trkpt><trkpt lat="42.43769095638942" lon="11.573845942139199"><ele>63.0</ele><time>2026-04-24T14:02:53.009Z</time></trkpt><trkpt lat="42.437708962010475" lon="11.573761913202253"><ele>63.0</ele><time>2026-04-24T14:02:54.009Z</time></trkpt><trkpt lat="42.43772337894476" lon="11.573658081656289"><ele>63.0</ele><time>2026-04-24T14:02:55.009Z</time></trkpt><trkpt lat="42.43772459774266" lon="11.573530175572866"><ele>63.0</ele><time>2026-04-24T14:02:56.009Z</time></trkpt><trkpt lat="42.43773422994291" lon="11.573407745224193"><ele>63.0</ele><time>2026-04-24T14:02:57.009Z</time></trkpt><trkpt lat="42.43772285872606" lon="11.573292930272448"><ele>63.0</ele><time>2026-04-24T14:02:58.009Z</time></trkpt><trkpt lat="42.43772016665679" lon="11.573159115748622"><ele>63.0</ele><time>2026-04-24T14:02:59.009Z</time></trkpt><trkpt lat="42.43773036318622" lon="11.573049140682944"><ele>63.0</ele><time>2026-04-24T14:03:00.009Z</time></trkpt><trkpt lat="42.43775187484624" lon="11.572929432054691"><ele>63.0</ele><time>2026-04-24T14:03:01.009Z</time></trkpt><trkpt lat="42.43777176753289" lon="11.572783371373413"><ele>63.0</ele><time>2026-04-24T14:03:02.009Z</time></trkpt><trkpt lat="42.437784569524425" lon="11.572647060328627"><ele>63.0</ele><time>2026-04-24T14:03:03.009Z</time></trkpt><trkpt lat="42.43781354473603" lon="11.572536718962844"><ele>63.0</ele><time>2026-04-24T14:03:04.009Z</time></trkpt><trkpt lat="42.437818178604985" lon="11.572421896554342"><ele>64.0</ele><time>2026-04-24T14:03:05.009Z</time></trkpt><trkpt lat="42.437815052840115" lon="11.572317130614751"><ele>65.0</ele><time>2026-04-24T14:03:06.009Z</time></trkpt><trkpt lat="42.43785479813676" lon="11.57222701092125"><ele>66.0</ele><time>2026-04-24T14:03:07.009Z</time></trkpt><trkpt lat="42.43791126129877" lon="11.572140551762308"><ele>67.0</ele><time>2026-04-24T14:03:08.009Z</time></trkpt><trkpt lat="42.437963744906526" lon="11.572068021663041"><ele>68.0</ele><time>2026-04-24T14:03:09.009Z</time></trkpt><trkpt lat="42.43800869652419" lon="11.57199210195611"><ele>69.0</ele><time>2026-04-24T14:03:10.009Z</time></trkpt><trkpt lat="42.43805253516661" lon="11.571890762964015"><ele>71.0</ele><time>2026-04-24T14:03:11.009Z</time></trkpt><trkpt lat="42.438097531101334" lon="11.571789395289267"><ele>73.0</ele><time>2026-04-24T14:03:12.009Z</time></trkpt><trkpt lat="42.438133930791345" lon="11.571694767048356"><ele>75.0</ele><time>2026-04-24T14:03:13.009Z</time></trkpt><trkpt lat="42.43815542865619" lon="11.571587641861967"><ele>77.0</ele><time>2026-04-24T14:03:14.009Z</time></trkpt><trkpt lat="42.43817263629954" lon="11.571476532398925"><ele>79.0</ele><time>2026-04-24T14:03:15.009Z</time></trkpt><trkpt lat="42.43818701314446" lon="11.571349579480316"><ele>81.0</ele><time>2026-04-24T14:03:16.009Z</time></trkpt><trkpt lat="42.438204401331205" lon="11.571220365209543"><ele>82.0</ele><time>2026-04-24T14:03:17.009Z</time></trkpt><trkpt lat="42.438224237597666" lon="11.571101192389335"><ele>83.0</ele><time>2026-04-24T14:03:18.009Z</time></trkpt><trkpt lat="42.438248464948565" lon="11.571002202770982"><ele>84.0</ele><time>2026-04-24T14:03:19.009Z</time></trkpt><trkpt lat="42.438276939276754" lon="11.570882719235298"><ele>85.0</ele><time>2026-04-24T14:03:20.009Z</time></trkpt><trkpt lat="42.438311849484755" lon="11.570752674634372"><ele>86.0</ele><time>2026-04-24T14:03:21.009Z</time></trkpt><trkpt lat="42.438343729263536" lon="11.57058653067561"><ele>86.0</ele><time>2026-04-24T14:03:22.009Z</time></trkpt><trkpt lat="42.43838891446278" lon="11.570421821807539"><ele>86.0</ele><time>2026-04-24T14:03:23.009Z</time></trkpt><trkpt lat="42.43843798844617" lon="11.57022502737534"><ele>86.0</ele><time>2026-04-24T14:03:24.009Z</time></trkpt><trkpt lat="42.438494834612385" lon="11.570027722324934"><ele>86.0</ele><time>2026-04-24T14:03:25.009Z</time></trkpt><trkpt lat="42.43854955562125" lon="11.569841720038017"><ele>86.5</ele><time>2026-04-24T14:03:26.01Z</time></trkpt><trkpt lat="42.4385971426302" lon="11.56966381495409"><ele>87.0</ele><time>2026-04-24T14:03:27.01Z</time></trkpt><trkpt lat="42.43863638462112" lon="11.569508560486417"><ele>87.5</ele><time>2026-04-24T14:03:28.01Z</time></trkpt><trkpt lat="42.438675498411286" lon="11.569370723461747"><ele>88.0</ele><time>2026-04-24T14:03:29.01Z</time></trkpt><trkpt lat="42.438711435882105" lon="11.569268139348553"><ele>88.0</ele><time>2026-04-24T14:03:30.01Z</time></trkpt><trkpt lat="42.438733549609914" lon="11.569176164134479"><ele>88.0</ele><time>2026-04-24T14:03:31.01Z</time></trkpt><trkpt lat="42.43875439976105" lon="11.569084475284273"><ele>88.0</ele><time>2026-04-24T14:03:32.01Z</time></trkpt><trkpt lat="42.43878100924426" lon="11.56899645691939"><ele>88.0</ele><time>2026-04-24T14:03:33.01Z</time></trkpt><trkpt lat="42.43880568562988" lon="11.56890583606346"><ele>88.0</ele><time>2026-04-24T14:03:34.01Z</time></trkpt><trkpt lat="42.43882981646425" lon="11.568819400231055"><ele>88.0</ele><time>2026-04-24T14:03:35.01Z</time></trkpt><trkpt lat="42.438873994689786" lon="11.568667198930365"><ele>87.60000000000001</ele><time>2026-04-24T14:03:37.01Z</time></trkpt><trkpt lat="42.43892253840998" lon="11.568496642621335"><ele>87.2</ele><time>2026-04-24T14:03:39.01Z</time></trkpt><trkpt lat="42.438966048680406" lon="11.568402084116485"><ele>86.8</ele><time>2026-04-24T14:03:40.01Z</time></trkpt><trkpt lat="42.4389964063295" lon="11.568296366411825"><ele>86.4</ele><time>2026-04-24T14:03:41.01Z</time></trkpt><trkpt lat="42.43901138044547" lon="11.568183994528587"><ele>86.0</ele><time>2026-04-24T14:03:42.01Z</time></trkpt><trkpt lat="42.43904687673685" lon="11.568065757838568"><ele>86.0</ele><time>2026-04-24T14:03:43.01Z</time></trkpt><trkpt lat="42.43908122581047" lon="11.567950468399552"><ele>86.0</ele><time>2026-04-24T14:03:44.01Z</time></trkpt><trkpt lat="42.43910827275571" lon="11.567825334524724"><ele>86.0</ele><time>2026-04-24T14:03:45.01Z</time></trkpt><trkpt lat="42.439124497115735" lon="11.567717704863506"><ele>86.0</ele><time>2026-04-24T14:03:46.01Z</time></trkpt><trkpt lat="42.439149468864876" lon="11.5675944770049"><ele>86.0</ele><time>2026-04-24T14:03:47.01Z</time></trkpt><trkpt lat="42.439179065170094" lon="11.567498806012429"><ele>86.0</ele><time>2026-04-24T14:03:48.01Z</time></trkpt><trkpt lat="42.439212895998025" lon="11.567391405268621"><ele>85.83333333333334</ele><time>2026-04-24T14:03:49.01Z</time></trkpt><trkpt lat="42.43923150168195" lon="11.567296509467706"><ele>85.66666666666667</ele><time>2026-04-24T14:03:50.01Z</time></trkpt><trkpt lat="42.43925129976916" lon="11.567164634873093"><ele>85.5</ele><time>2026-04-24T14:03:52.01Z</time></trkpt><trkpt lat="42.439309478906054" lon="11.56704356727662"><ele>85.33333333333333</ele><time>2026-04-24T14:03:54.01Z</time></trkpt><trkpt lat="42.439345118100356" lon="11.566957408848424"><ele>85.16666666666666</ele><time>2026-04-24T14:03:55.01Z</time></trkpt><trkpt lat="42.439373299044455" lon="11.56687857730965"><ele>85.0</ele><time>2026-04-24T14:03:56.01Z</time></trkpt><trkpt lat="42.43940742622818" lon="11.566749071262121"><ele>84.8</ele><time>2026-04-24T14:03:58.01Z</time></trkpt><trkpt lat="42.43942856313865" lon="11.566623595399832"><ele>84.6</ele><time>2026-04-24T14:04:00.01Z</time></trkpt><trkpt lat="42.43943523389051" lon="11.566479095006697"><ele>84.4</ele><time>2026-04-24T14:04:02.01Z</time></trkpt><trkpt lat="42.439423970774946" lon="11.566314650658281"><ele>84.2</ele><time>2026-04-24T14:04:04.01Z</time></trkpt><trkpt lat="42.4394137487897" lon="11.566226631322692"><ele>84.0</ele><time>2026-04-24T14:04:05.01Z</time></trkpt><trkpt lat="42.43937435077713" lon="11.566092533949055"><ele>83.0</ele><time>2026-04-24T14:04:07.01Z</time></trkpt><trkpt lat="42.43932964907718" lon="11.565954630665606"><ele>82.0</ele><time>2026-04-24T14:04:09.01Z</time></trkpt><trkpt lat="42.43929769217278" lon="11.565816354664047"><ele>81.0</ele><time>2026-04-24T14:04:11.01Z</time></trkpt><trkpt lat="42.43930363188643" lon="11.56571313612361"><ele>80.0</ele><time>2026-04-24T14:04:12.01Z</time></trkpt><trkpt lat="42.439280775698045" lon="11.565622667793443"><ele>79.0</ele><time>2026-04-24T14:04:13.01Z</time></trkpt><trkpt lat="42.43924233041238" lon="11.56553757167503"><ele>78.0</ele><time>2026-04-24T14:04:14.01Z</time></trkpt><trkpt lat="42.43922532153692" lon="11.565438404738298"><ele>76.4</ele><time>2026-04-24T14:04:15.01Z</time></trkpt><trkpt lat="42.43920634166398" lon="11.565340106047527"><ele>74.8</ele><time>2026-04-24T14:04:16.01Z</time></trkpt><trkpt lat="42.4391799921467" lon="11.565234407175685"><ele>73.2</ele><time>2026-04-24T14:04:17.01Z</time></trkpt><trkpt lat="42.43914788398145" lon="11.565116460336352"><ele>71.6</ele><time>2026-04-24T14:04:18.01Z</time></trkpt><trkpt lat="42.43910380881201" lon="11.564966719930439"><ele>70.0</ele><time>2026-04-24T14:04:19.01Z</time></trkpt><trkpt lat="42.43906208107372" lon="11.564838043270507"><ele>70.0</ele><time>2026-04-24T14:04:20.01Z</time></trkpt><trkpt lat="42.439025024186094" lon="11.564711042785515"><ele>70.0</ele><time>2026-04-24T14:04:21.01Z</time></trkpt><trkpt lat="42.43899245891761" lon="11.564595299156363"><ele>70.0</ele><time>2026-04-24T14:04:22.01Z</time></trkpt><trkpt lat="42.43896682244222" lon="11.564465728272932"><ele>70.0</ele><time>2026-04-24T14:04:23.01Z</time></trkpt><trkpt lat="42.43894885163831" lon="11.564341194277315"><ele>70.0</ele><time>2026-04-24T14:04:24.01Z</time></trkpt><trkpt lat="42.43893430715699" lon="11.564217902248094"><ele>69.2</ele><time>2026-04-24T14:04:25.01Z</time></trkpt><trkpt lat="42.43890643352626" lon="11.564109990979283"><ele>68.4</ele><time>2026-04-24T14:04:26.01Z</time></trkpt><trkpt lat="42.438882256624595" lon="11.56401044308407"><ele>67.6</ele><time>2026-04-24T14:04:27.01Z</time></trkpt><trkpt lat="42.43885832073393" lon="11.563869106020384"><ele>66.8</ele><time>2026-04-24T14:04:29.01Z</time></trkpt><trkpt lat="42.438844813006284" lon="11.563718449594534"><ele>66.0</ele><time>2026-04-24T14:04:31.01Z</time></trkpt><trkpt lat="42.438828640660354" lon="11.563614313205148"><ele>65.6</ele><time>2026-04-24T14:04:32.01Z</time></trkpt><trkpt lat="42.438818004669756" lon="11.563519174056154"><ele>65.19999999999999</ele><time>2026-04-24T14:04:33.01Z</time></trkpt><trkpt lat="42.43880280632173" lon="11.563348262875383"><ele>64.80000000000001</ele><time>2026-04-24T14:04:35.01Z</time></trkpt><trkpt lat="42.43879821037149" lon="11.563251676058467"><ele>64.4</ele><time>2026-04-24T14:04:36.011Z</time></trkpt><trkpt lat="42.4387813259016" lon="11.563120587626592"><ele>64.0</ele><time>2026-04-24T14:04:38.011Z</time></trkpt><trkpt lat="42.43878621681686" lon="11.56296128426324"><ele>63.49999999999999</ele><time>2026-04-24T14:04:40.011Z</time></trkpt><trkpt lat="42.43878647888967" lon="11.562863274466608"><ele>63.0</ele><time>2026-04-24T14:04:41.011Z</time></trkpt><trkpt lat="42.43879701957736" lon="11.562774213758164"><ele>62.5</ele><time>2026-04-24T14:04:42.011Z</time></trkpt><trkpt lat="42.43884072562323" lon="11.562666055640237"><ele>62.0</ele><time>2026-04-24T14:04:44.011Z</time></trkpt><trkpt lat="42.438873680689234" lon="11.562565715199666"><ele>61.49999999999999</ele><time>2026-04-24T14:04:46.011Z</time></trkpt><trkpt lat="42.43887957270296" lon="11.562431253129901"><ele>61.0</ele><time>2026-04-24T14:04:48.011Z</time></trkpt><trkpt lat="42.43887281534894" lon="11.562332930843379"><ele>61.0</ele><time>2026-04-24T14:04:50.011Z</time></trkpt><trkpt lat="42.43887057611002" lon="11.562189172325173"><ele>60.99999999999999</ele><time>2026-04-24T14:04:52.011Z</time></trkpt><trkpt lat="42.43888334758972" lon="11.562013486701396"><ele>60.99999999999999</ele><time>2026-04-24T14:04:54.011Z</time></trkpt><trkpt lat="42.43891243240355" lon="11.561907124765495"><ele>61.0</ele><time>2026-04-24T14:04:55.011Z</time></trkpt><trkpt lat="42.43894002972859" lon="11.561817109675657"><ele>61.0</ele><time>2026-04-24T14:04:56.011Z</time></trkpt><trkpt lat="42.439000574836925" lon="11.56169033286831"><ele>60.0</ele><time>2026-04-24T14:04:58.011Z</time></trkpt><trkpt lat="42.43905714842203" lon="11.561552016009198"><ele>58.99999999999999</ele><time>2026-04-24T14:05:00.011Z</time></trkpt><trkpt lat="42.43905960227137" lon="11.561372980304515"><ele>57.99999999999999</ele><time>2026-04-24T14:05:02.011Z</time></trkpt><trkpt lat="42.439028622170895" lon="11.561281846194637"><ele>57.0</ele><time>2026-04-24T14:05:03.011Z</time></trkpt><trkpt lat="42.43898217202361" lon="11.56119339010059"><ele>56.0</ele><time>2026-04-24T14:05:04.011Z</time></trkpt><trkpt lat="42.43893426923134" lon="11.561109832967235"><ele>56.00000000000001</ele><time>2026-04-24T14:05:05.011Z</time></trkpt><trkpt lat="42.43888614807741" lon="11.561030296044628"><ele>56.0</ele><time>2026-04-24T14:05:06.011Z</time></trkpt><trkpt lat="42.43884379624089" lon="11.56095272428071"><ele>56.0</ele><time>2026-04-24T14:05:07.011Z</time></trkpt><trkpt lat="42.43882674622002" lon="11.560866636357872"><ele>56.0</ele><time>2026-04-24T14:05:08.011Z</time></trkpt><trkpt lat="42.438825492483396" lon="11.56075792235431"><ele>56.00000000000001</ele><time>2026-04-24T14:05:10.011Z</time></trkpt><trkpt lat="42.43880911612066" lon="11.560622445341494"><ele>56.0</ele><time>2026-04-24T14:05:13.011Z</time></trkpt><trkpt lat="42.438778898683296" lon="11.560470954917237"><ele>55.8</ele><time>2026-04-24T14:05:15.011Z</time></trkpt><trkpt lat="42.43876691040849" lon="11.560386357902246"><ele>55.599999999999994</ele><time>2026-04-24T14:05:17.011Z</time></trkpt><trkpt lat="42.438795555412746" lon="11.560236720861813"><ele>55.4</ele><time>2026-04-24T14:05:20.011Z</time></trkpt><trkpt lat="42.438836024571486" lon="11.560120985326375"><ele>55.2</ele><time>2026-04-24T14:05:22.011Z</time></trkpt><trkpt lat="42.438885633862675" lon="11.55997496219388"><ele>55.0</ele><time>2026-04-24T14:05:24.011Z</time></trkpt><trkpt lat="42.43891911623914" lon="11.559840687744721"><ele>54.99999999999999</ele><time>2026-04-24T14:05:31.011Z</time></trkpt><trkpt lat="42.43895063156582" lon="11.559730267354706"><ele>55.0</ele><time>2026-04-24T14:05:32.011Z</time></trkpt><trkpt lat="42.43897114702584" lon="11.559629067425064"><ele>55.0</ele><time>2026-04-24T14:05:33.011Z</time></trkpt><trkpt lat="42.4389907704364" lon="11.559528962519058"><ele>55.0</ele><time>2026-04-24T14:05:34.011Z</time></trkpt><trkpt lat="42.4390129214203" lon="11.559410017626634"><ele>54.99999999999999</ele><time>2026-04-24T14:05:35.011Z</time></trkpt><trkpt lat="42.43903110225224" lon="11.559280320834736"><ele>55.0</ele><time>2026-04-24T14:05:36.011Z</time></trkpt><trkpt lat="42.439050845889675" lon="11.55914901560209"><ele>55.49999999999999</ele><time>2026-04-24T14:05:37.011Z</time></trkpt><trkpt lat="42.439075156250325" lon="11.559022021369584"><ele>56.0</ele><time>2026-04-24T14:05:38.011Z</time></trkpt><trkpt lat="42.43909154573391" lon="11.558904926403894"><ele>56.5</ele><time>2026-04-24T14:05:39.011Z</time></trkpt><trkpt lat="42.439099997277026" lon="11.558791692305647"><ele>57.0</ele><time>2026-04-24T14:05:40.011Z</time></trkpt><trkpt lat="42.439113088711125" lon="11.558673418848883"><ele>57.49999999999999</ele><time>2026-04-24T14:05:41.011Z</time></trkpt><trkpt lat="42.439127147933554" lon="11.558569692212277"><ele>58.0</ele><time>2026-04-24T14:05:42.011Z</time></trkpt><trkpt lat="42.439131348131326" lon="11.558479573154148"><ele>58.33333333333333</ele><time>2026-04-24T14:05:43.011Z</time></trkpt><trkpt lat="42.43914290414023" lon="11.558381515713943"><ele>58.666666666666664</ele><time>2026-04-24T14:05:44.011Z</time></trkpt><trkpt lat="42.439150363135965" lon="11.558291048097074"><ele>59.0</ele><time>2026-04-24T14:05:45.011Z</time></trkpt><trkpt lat="42.43916474931146" lon="11.558187203833175"><ele>59.33333333333333</ele><time>2026-04-24T14:05:46.012Z</time></trkpt><trkpt lat="42.4391697184293" lon="11.5580742075718"><ele>59.666666666666664</ele><time>2026-04-24T14:05:47.012Z</time></trkpt><trkpt lat="42.43916594097209" lon="11.557952723363066"><ele>60.0</ele><time>2026-04-24T14:05:48.012Z</time></trkpt><trkpt lat="42.439158776811354" lon="11.557798522342006"><ele>60.75</ele><time>2026-04-24T14:05:49.012Z</time></trkpt><trkpt lat="42.439145692418904" lon="11.557625983874257"><ele>61.5</ele><time>2026-04-24T14:05:50.012Z</time></trkpt><trkpt lat="42.43912622104959" lon="11.557471480207926"><ele>62.25</ele><time>2026-04-24T14:05:51.012Z</time></trkpt><trkpt lat="42.43910208483914" lon="11.557312432374152"><ele>63.0</ele><time>2026-04-24T14:05:52.012Z</time></trkpt><trkpt lat="42.43907861493267" lon="11.557157003812723"><ele>63.75</ele><time>2026-04-24T14:05:53.012Z</time></trkpt><trkpt lat="42.439045214375355" lon="11.556988117412432"><ele>64.5</ele><time>2026-04-24T14:05:54.012Z</time></trkpt><trkpt lat="42.439014340124544" lon="11.556801785824957"><ele>65.25</ele><time>2026-04-24T14:05:55.012Z</time></trkpt><trkpt lat="42.438981846937494" lon="11.556642055331103"><ele>66.0</ele><time>2026-04-24T14:05:56.012Z</time></trkpt><trkpt lat="42.43897237693276" lon="11.55645291096275"><ele>66.0</ele><time>2026-04-24T14:05:57.012Z</time></trkpt><trkpt lat="42.4389286574212" lon="11.556280911711033"><ele>66.0</ele><time>2026-04-24T14:05:58.012Z</time></trkpt><trkpt lat="42.43888371829022" lon="11.556104134593829"><ele>66.0</ele><time>2026-04-24T14:05:59.012Z</time></trkpt><trkpt lat="42.43882446973568" lon="11.555946448147298"><ele>66.0</ele><time>2026-04-24T14:06:00.012Z</time></trkpt><trkpt lat="42.43878602320024" lon="11.555818321547978"><ele>65.6</ele><time>2026-04-24T14:06:01.012Z</time></trkpt><trkpt lat="42.43874756389448" lon="11.555721098715312"><ele>65.19999999999999</ele><time>2026-04-24T14:06:02.012Z</time></trkpt><trkpt lat="42.43870919405316" lon="11.555604865789695"><ele>64.80000000000001</ele><time>2026-04-24T14:06:03.012Z</time></trkpt><trkpt lat="42.43869180231878" lon="11.555466346497848"><ele>64.4</ele><time>2026-04-24T14:06:04.012Z</time></trkpt><trkpt lat="42.43866536164695" lon="11.55532152809498"><ele>64.0</ele><time>2026-04-24T14:06:05.012Z</time></trkpt><trkpt lat="42.438645101130206" lon="11.555178491894193"><ele>65.0</ele><time>2026-04-24T14:06:06.012Z</time></trkpt><trkpt lat="42.4386086444228" lon="11.555035252998556"><ele>66.0</ele><time>2026-04-24T14:06:07.012Z</time></trkpt><trkpt lat="42.43860952680418" lon="11.554881167041158"><ele>67.0</ele><time>2026-04-24T14:06:08.012Z</time></trkpt><trkpt lat="42.43861816499354" lon="11.554737481436261"><ele>68.0</ele><time>2026-04-24T14:06:09.012Z</time></trkpt><trkpt lat="42.43863749710682" lon="11.554563572161413"><ele>68.5</ele><time>2026-04-24T14:06:10.012Z</time></trkpt><trkpt lat="42.43870639511559" lon="11.554417297242221"><ele>69.0</ele><time>2026-04-24T14:06:11.012Z</time></trkpt><trkpt lat="42.438747645664435" lon="11.554284028716188"><ele>69.5</ele><time>2026-04-24T14:06:12.012Z</time></trkpt><trkpt lat="42.438786127441766" lon="11.554118683953789"><ele>70.0</ele><time>2026-04-24T14:06:13.012Z</time></trkpt><trkpt lat="42.43885936166645" lon="11.553974432659768"><ele>69.75</ele><time>2026-04-24T14:06:14.012Z</time></trkpt><trkpt lat="42.438918388198054" lon="11.553808186998195"><ele>69.5</ele><time>2026-04-24T14:06:15.012Z</time></trkpt><trkpt lat="42.43898700014818" lon="11.553620831980389"><ele>69.25</ele><time>2026-04-24T14:06:16.012Z</time></trkpt><trkpt lat="42.43905533854123" lon="11.553449497273222"><ele>69.0</ele><time>2026-04-24T14:06:17.012Z</time></trkpt><trkpt lat="42.43912775023823" lon="11.553281171465079"><ele>69.0</ele><time>2026-04-24T14:06:18.012Z</time></trkpt><trkpt lat="42.439189578920406" lon="11.55310678201399"><ele>69.0</ele><time>2026-04-24T14:06:19.012Z</time></trkpt><trkpt lat="42.43924416725556" lon="11.55292903837564"><ele>69.0</ele><time>2026-04-24T14:06:20.012Z</time></trkpt><trkpt lat="42.439296068555386" lon="11.552732793210243"><ele>69.0</ele><time>2026-04-24T14:06:21.012Z</time></trkpt><trkpt lat="42.43934843008232" lon="11.552535427330795"><ele>68.75</ele><time>2026-04-24T14:06:22.012Z</time></trkpt><trkpt lat="42.4394020082156" lon="11.5523544391095"><ele>68.5</ele><time>2026-04-24T14:06:23.012Z</time></trkpt><trkpt lat="42.43945650082365" lon="11.55218697920071"><ele>68.25</ele><time>2026-04-24T14:06:24.012Z</time></trkpt><trkpt lat="42.43950025017572" lon="11.552030082447175"><ele>68.0</ele><time>2026-04-24T14:06:25.012Z</time></trkpt><trkpt lat="42.43954279678911" lon="11.551885473909854"><ele>67.8</ele><time>2026-04-24T14:06:26.012Z</time></trkpt><trkpt lat="42.439580920268746" lon="11.55173445827605"><ele>67.6</ele><time>2026-04-24T14:06:27.012Z</time></trkpt><trkpt lat="42.43960479640531" lon="11.551595628506048"><ele>67.4</ele><time>2026-04-24T14:06:28.012Z</time></trkpt><trkpt lat="42.43963282718997" lon="11.55145082063783"><ele>67.2</ele><time>2026-04-24T14:06:29.012Z</time></trkpt><trkpt lat="42.43967343644307" lon="11.551332802297459"><ele>67.0</ele><time>2026-04-24T14:06:30.012Z</time></trkpt><trkpt lat="42.43972329671363" lon="11.551211003008188"><ele>67.8</ele><time>2026-04-24T14:06:31.012Z</time></trkpt><trkpt lat="42.43975693779225" lon="11.551077079437666"><ele>68.6</ele><time>2026-04-24T14:06:32.012Z</time></trkpt><trkpt lat="42.43977379038319" lon="11.550945839008497"><ele>69.39999999999999</ele><time>2026-04-24T14:06:33.012Z</time></trkpt><trkpt lat="42.439772648363025" lon="11.550797131895482"><ele>70.2</ele><time>2026-04-24T14:06:34.012Z</time></trkpt><trkpt lat="42.439793735894725" lon="11.550646913539294"><ele>71.0</ele><time>2026-04-24T14:06:35.012Z</time></trkpt><trkpt lat="42.43982011024724" lon="11.550489994144616"><ele>70.75</ele><time>2026-04-24T14:06:36.012Z</time></trkpt><trkpt lat="42.439850666090784" lon="11.550337144512683"><ele>70.5</ele><time>2026-04-24T14:06:37.012Z</time></trkpt><trkpt lat="42.43986526166278" lon="11.550175977705132"><ele>70.25</ele><time>2026-04-24T14:06:38.012Z</time></trkpt><trkpt lat="42.43991293799705" lon="11.550020166551931"><ele>70.0</ele><time>2026-04-24T14:06:39.012Z</time></trkpt><trkpt lat="42.43994725692754" lon="11.54986249424105"><ele>70.0</ele><time>2026-04-24T14:06:40.012Z</time></trkpt><trkpt lat="42.43998556785459" lon="11.549714715157428"><ele>70.0</ele><time>2026-04-24T14:06:41.012Z</time></trkpt><trkpt lat="42.4400250285835" lon="11.54957416448841"><ele>70.0</ele><time>2026-04-24T14:06:42.012Z</time></trkpt><trkpt lat="42.44006978528233" lon="11.549455841880354"><ele>70.0</ele><time>2026-04-24T14:06:43.012Z</time></trkpt><trkpt lat="42.440117911553365" lon="11.549339719277183"><ele>70.0</ele><time>2026-04-24T14:06:44.012Z</time></trkpt><trkpt lat="42.44017067700096" lon="11.549244587676691"><ele>69.8</ele><time>2026-04-24T14:06:45.012Z</time></trkpt><trkpt lat="42.4402320732469" lon="11.549144432001752"><ele>69.6</ele><time>2026-04-24T14:06:46.012Z</time></trkpt><trkpt lat="42.44030101999861" lon="11.549032120385997"><ele>69.4</ele><time>2026-04-24T14:06:47.012Z</time></trkpt><trkpt lat="42.44037185991726" lon="11.548915558333778"><ele>69.2</ele><time>2026-04-24T14:06:48.012Z</time></trkpt><trkpt lat="42.440430560008906" lon="11.548804238827762"><ele>69.0</ele><time>2026-04-24T14:06:49.012Z</time></trkpt><trkpt lat="42.44049336949177" lon="11.548690055006649"><ele>69.4</ele><time>2026-04-24T14:06:50.012Z</time></trkpt><trkpt lat="42.44055572402891" lon="11.548552540351311"><ele>69.80000000000001</ele><time>2026-04-24T14:06:51.012Z</time></trkpt><trkpt lat="42.44061268681535" lon="11.548428002424354"><ele>70.19999999999999</ele><time>2026-04-24T14:06:52.012Z</time></trkpt><trkpt lat="42.44067112526794" lon="11.548298454951482"><ele>70.6</ele><time>2026-04-24T14:06:53.012Z</time></trkpt><trkpt lat="42.44073220257761" lon="11.548189289328167"><ele>71.0</ele><time>2026-04-24T14:06:54.012Z</time></trkpt><trkpt lat="42.44080502072255" lon="11.54807828218824"><ele>71.0</ele><time>2026-04-24T14:06:55.013Z</time></trkpt><trkpt lat="42.440889624903214" lon="11.547968152774693"><ele>71.0</ele><time>2026-04-24T14:06:56.013Z</time></trkpt><trkpt lat="42.44096829562951" lon="11.547856614174988"><ele>71.0</ele><time>2026-04-24T14:06:57.013Z</time></trkpt><trkpt lat="42.4410445256678" lon="11.547756299069656"><ele>71.0</ele><time>2026-04-24T14:06:58.013Z</time></trkpt><trkpt lat="42.441124506415576" lon="11.547664713106812"><ele>71.0</ele><time>2026-04-24T14:06:59.013Z</time></trkpt><trkpt lat="42.44120325822886" lon="11.547558340832634"><ele>70.75</ele><time>2026-04-24T14:07:00.013Z</time></trkpt><trkpt lat="42.44129999816757" lon="11.547456240084149"><ele>70.5</ele><time>2026-04-24T14:07:01.013Z</time></trkpt><trkpt lat="42.441373129922496" lon="11.547323342858347"><ele>70.25</ele><time>2026-04-24T14:07:02.013Z</time></trkpt><trkpt lat="42.4414390965727" lon="11.547198772984352"><ele>70.0</ele><time>2026-04-24T14:07:03.013Z</time></trkpt><trkpt lat="42.441492473910785" lon="11.547075289954334"><ele>69.8</ele><time>2026-04-24T14:07:04.013Z</time></trkpt><trkpt lat="42.44153064111679" lon="11.546944481455636"><ele>69.6</ele><time>2026-04-24T14:07:05.013Z</time></trkpt><trkpt lat="42.44156083050146" lon="11.54681328004553"><ele>69.4</ele><time>2026-04-24T14:07:06.013Z</time></trkpt><trkpt lat="42.44159124115326" lon="11.546682594464812"><ele>69.2</ele><time>2026-04-24T14:07:07.013Z</time></trkpt><trkpt lat="42.44162106026265" lon="11.546537387649499"><ele>69.0</ele><time>2026-04-24T14:07:08.013Z</time></trkpt><trkpt lat="42.44167351778141" lon="11.546372951487767"><ele>69.25</ele><time>2026-04-24T14:07:09.013Z</time></trkpt><trkpt lat="42.44169784172263" lon="11.546194806302816"><ele>69.5</ele><time>2026-04-24T14:07:10.013Z</time></trkpt><trkpt lat="42.44171995138258" lon="11.546035853914008"><ele>69.75</ele><time>2026-04-24T14:07:11.013Z</time></trkpt><trkpt lat="42.44175424100405" lon="11.545891962852352"><ele>70.0</ele><time>2026-04-24T14:07:12.013Z</time></trkpt><trkpt lat="42.441779798158734" lon="11.545735502331521"><ele>70.0</ele><time>2026-04-24T14:07:13.013Z</time></trkpt><trkpt lat="42.44178128115768" lon="11.545553461372974"><ele>70.0</ele><time>2026-04-24T14:07:14.013Z</time></trkpt><trkpt lat="42.44180781892062" lon="11.545372286108433"><ele>70.0</ele><time>2026-04-24T14:07:15.013Z</time></trkpt><trkpt lat="42.44181832943098" lon="11.545196049485558"><ele>70.0</ele><time>2026-04-24T14:07:16.013Z</time></trkpt><trkpt lat="42.441823486059164" lon="11.545036472178065"><ele>70.25</ele><time>2026-04-24T14:07:17.013Z</time></trkpt><trkpt lat="42.441843336704096" lon="11.544884136526019"><ele>70.5</ele><time>2026-04-24T14:07:18.013Z</time></trkpt><trkpt lat="42.44189218521239" lon="11.544732696596835"><ele>70.75</ele><time>2026-04-24T14:07:19.013Z</time></trkpt><trkpt lat="42.44194739458679" lon="11.544557592462228"><ele>71.0</ele><time>2026-04-24T14:07:20.013Z</time></trkpt><trkpt lat="42.441996922382046" lon="11.544380781973807"><ele>71.0</ele><time>2026-04-24T14:07:21.013Z</time></trkpt><trkpt lat="42.44205048496834" lon="11.544198668831259"><ele>71.0</ele><time>2026-04-24T14:07:22.013Z</time></trkpt><trkpt lat="42.44210071966947" lon="11.54402780342351"><ele>71.0</ele><time>2026-04-24T14:07:23.013Z</time></trkpt><trkpt lat="42.44214692955458" lon="11.543862656491681"><ele>71.0</ele><time>2026-04-24T14:07:24.013Z</time></trkpt><trkpt lat="42.44219127578773" lon="11.54368650174625"><ele>71.0</ele><time>2026-04-24T14:07:25.013Z</time></trkpt><trkpt lat="42.4421891358023" lon="11.543515127554102"><ele>71.0</ele><time>2026-04-24T14:07:26.013Z</time></trkpt><trkpt lat="42.442186368619616" lon="11.543370583236605"><ele>71.0</ele><time>2026-04-24T14:07:27.013Z</time></trkpt><trkpt lat="42.442177733745496" lon="11.543233291383185"><ele>71.0</ele><time>2026-04-24T14:07:28.013Z</time></trkpt><trkpt lat="42.44216242778495" lon="11.543105487117165"><ele>71.0</ele><time>2026-04-24T14:07:29.013Z</time></trkpt><trkpt lat="42.442130002285545" lon="11.542954252652093"><ele>70.5</ele><time>2026-04-24T14:07:30.013Z</time></trkpt><trkpt lat="42.442089272333185" lon="11.542793253583206"><ele>70.0</ele><time>2026-04-24T14:07:31.013Z</time></trkpt><trkpt lat="42.442042710560244" lon="11.54263049530672"><ele>69.5</ele><time>2026-04-24T14:07:32.013Z</time></trkpt><trkpt lat="42.441997485596936" lon="11.542460358718344"><ele>69.0</ele><time>2026-04-24T14:07:33.013Z</time></trkpt><trkpt lat="42.4419744746726" lon="11.542304713629408"><ele>69.0</ele><time>2026-04-24T14:07:34.013Z</time></trkpt><trkpt lat="42.44195425798651" lon="11.542149728931836"><ele>69.0</ele><time>2026-04-24T14:07:35.013Z</time></trkpt><trkpt lat="42.4419164693654" lon="11.541989848348228"><ele>69.0</ele><time>2026-04-24T14:07:36.013Z</time></trkpt><trkpt lat="42.44187486059433" lon="11.54183182983225"><ele>69.0</ele><time>2026-04-24T14:07:37.013Z</time></trkpt><trkpt lat="42.44181037864021" lon="11.54168905769495"><ele>69.25</ele><time>2026-04-24T14:07:38.013Z</time></trkpt><trkpt lat="42.44173513564939" lon="11.541546682956609"><ele>69.5</ele><time>2026-04-24T14:07:39.013Z</time></trkpt><trkpt lat="42.44166297222752" lon="11.541402445020697"><ele>69.75</ele><time>2026-04-24T14:07:40.013Z</time></trkpt><trkpt lat="42.44158770146917" lon="11.541240393573732"><ele>70.0</ele><time>2026-04-24T14:07:41.013Z</time></trkpt><trkpt lat="42.441520727192746" lon="11.541065984400213"><ele>70.0</ele><time>2026-04-24T14:07:42.013Z</time></trkpt><trkpt lat="42.44146354956182" lon="11.540894425617715"><ele>70.0</ele><time>2026-04-24T14:07:43.013Z</time></trkpt><trkpt lat="42.441409501789856" lon="11.540719589119082"><ele>70.0</ele><time>2026-04-24T14:07:44.013Z</time></trkpt><trkpt lat="42.441352840787644" lon="11.540543242878899"><ele>70.0</ele><time>2026-04-24T14:07:45.013Z</time></trkpt><trkpt lat="42.44128876876408" lon="11.540372833909334"><ele>70.5</ele><time>2026-04-24T14:07:46.013Z</time></trkpt><trkpt lat="42.44122301716569" lon="11.54020351786813"><ele>71.0</ele><time>2026-04-24T14:07:47.013Z</time></trkpt><trkpt lat="42.44115398728949" lon="11.540012001020758"><ele>71.5</ele><time>2026-04-24T14:07:48.013Z</time></trkpt><trkpt lat="42.44108241692814" lon="11.5398358270792"><ele>72.0</ele><time>2026-04-24T14:07:49.013Z</time></trkpt><trkpt lat="42.44100547622446" lon="11.539671099253422"><ele>71.66666666666667</ele><time>2026-04-24T14:07:50.013Z</time></trkpt><trkpt lat="42.440925543230314" lon="11.539500113467318"><ele>71.33333333333334</ele><time>2026-04-24T14:07:51.013Z</time></trkpt><trkpt lat="42.44083426571168" lon="11.539321777448562"><ele>71.0</ele><time>2026-04-24T14:07:52.013Z</time></trkpt><trkpt lat="42.440762127400845" lon="11.539121512431697"><ele>71.0</ele><time>2026-04-24T14:07:53.013Z</time></trkpt><trkpt lat="42.440677448695396" lon="11.53893692037313"><ele>71.0</ele><time>2026-04-24T14:07:54.013Z</time></trkpt><trkpt lat="42.44059144774472" lon="11.538757757549448"><ele>71.0</ele><time>2026-04-24T14:07:55.013Z</time></trkpt><trkpt lat="42.440510937149575" lon="11.53856038491251"><ele>70.66666666666667</ele><time>2026-04-24T14:07:56.013Z</time></trkpt><trkpt lat="42.44043620838985" lon="11.538366763284746"><ele>70.33333333333333</ele><time>2026-04-24T14:07:57.013Z</time></trkpt><trkpt lat="42.44036661718467" lon="11.538191014575762"><ele>70.0</ele><time>2026-04-24T14:07:58.013Z</time></trkpt><trkpt lat="42.440302144506575" lon="11.538016644137326"><ele>69.25</ele><time>2026-04-24T14:07:59.013Z</time></trkpt><trkpt lat="42.44023375682132" lon="11.537846583342395"><ele>68.5</ele><time>2026-04-24T14:08:00.013Z</time></trkpt><trkpt lat="42.440154476931625" lon="11.537672610358968"><ele>67.75</ele><time>2026-04-24T14:08:01.013Z</time></trkpt><trkpt lat="42.440067583641756" lon="11.537508309601105"><ele>67.0</ele><time>2026-04-24T14:08:02.013Z</time></trkpt><trkpt lat="42.43997246732128" lon="11.537344837517256"><ele>67.0</ele><time>2026-04-24T14:08:03.013Z</time></trkpt><trkpt lat="42.439881890253226" lon="11.537198861323825"><ele>67.0</ele><time>2026-04-24T14:08:04.013Z</time></trkpt><trkpt lat="42.439799027793946" lon="11.537060955495695"><ele>67.0</ele><time>2026-04-24T14:08:05.013Z</time></trkpt><trkpt lat="42.4397289386169" lon="11.536943954076783"><ele>67.0</ele><time>2026-04-24T14:08:06.014Z</time></trkpt><trkpt lat="42.43967118624714" lon="11.536830756203061"><ele>66.75</ele><time>2026-04-24T14:08:07.014Z</time></trkpt><trkpt lat="42.43962170776392" lon="11.536712210867416"><ele>66.5</ele><time>2026-04-24T14:08:08.014Z</time></trkpt><trkpt lat="42.43956766981488" lon="11.536558705779102"><ele>66.25</ele><time>2026-04-24T14:08:09.014Z</time></trkpt><trkpt lat="42.4395185943786" lon="11.536388223131624"><ele>66.0</ele><time>2026-04-24T14:08:10.014Z</time></trkpt><trkpt lat="42.43946512232695" lon="11.53619490297114"><ele>66.0</ele><time>2026-04-24T14:08:11.014Z</time></trkpt><trkpt lat="42.439395249910284" lon="11.536011441615846"><ele>66.0</ele><time>2026-04-24T14:08:12.014Z</time></trkpt><trkpt lat="42.439317888236296" lon="11.535834334946562"><ele>66.0</ele><time>2026-04-24T14:08:13.014Z</time></trkpt><trkpt lat="42.43923234290145" lon="11.535659194512903"><ele>66.0</ele><time>2026-04-24T14:08:14.014Z</time></trkpt><trkpt lat="42.439154833725105" lon="11.535485455142073"><ele>66.0</ele><time>2026-04-24T14:08:15.014Z</time></trkpt><trkpt lat="42.439091079594355" lon="11.535280724473408"><ele>66.0</ele><time>2026-04-24T14:08:16.014Z</time></trkpt><trkpt lat="42.43901652198582" lon="11.535073756638347"><ele>67.0</ele><time>2026-04-24T14:08:17.014Z</time></trkpt><trkpt lat="42.43892681011589" lon="11.53487436666301"><ele>68.0</ele><time>2026-04-24T14:08:18.014Z</time></trkpt><trkpt lat="42.43887632778549" lon="11.534659881515564"><ele>69.0</ele><time>2026-04-24T14:08:19.014Z</time></trkpt><trkpt lat="42.43880867787997" lon="11.534447942077175"><ele>68.33333333333333</ele><time>2026-04-24T14:08:20.014Z</time></trkpt><trkpt lat="42.43873574114846" lon="11.534254187611776"><ele>67.66666666666666</ele><time>2026-04-24T14:08:21.014Z</time></trkpt><trkpt lat="42.43867364224892" lon="11.534051805308483"><ele>67.0</ele><time>2026-04-24T14:08:22.014Z</time></trkpt><trkpt lat="42.4386040670841" lon="11.533849220686399"><ele>68.25</ele><time>2026-04-24T14:08:23.014Z</time></trkpt><trkpt lat="42.43857011861659" lon="11.533656462976262"><ele>69.5</ele><time>2026-04-24T14:08:24.014Z</time></trkpt><trkpt lat="42.43854069749156" lon="11.533465310127818"><ele>70.75</ele><time>2026-04-24T14:08:25.014Z</time></trkpt><trkpt lat="42.438527218733164" lon="11.533269028929865"><ele>72.0</ele><time>2026-04-24T14:08:26.014Z</time></trkpt><trkpt lat="42.43852375419512" lon="11.533058726775822"><ele>73.0</ele><time>2026-04-24T14:08:27.014Z</time></trkpt><trkpt lat="42.43852507079807" lon="11.53284421032511"><ele>74.0</ele><time>2026-04-24T14:08:28.014Z</time></trkpt><trkpt lat="42.43853053782254" lon="11.5326209733829"><ele>75.0</ele><time>2026-04-24T14:08:29.014Z</time></trkpt><trkpt lat="42.438531120383274" lon="11.532407263258547"><ele>75.0</ele><time>2026-04-24T14:08:30.014Z</time></trkpt><trkpt lat="42.43850393949233" lon="11.532227700159865"><ele>75.0</ele><time>2026-04-24T14:08:31.014Z</time></trkpt><trkpt lat="42.43846374583284" lon="11.532074743289089"><ele>75.0</ele><time>2026-04-24T14:08:32.014Z</time></trkpt><trkpt lat="42.438402199402276" lon="11.531935263681616"><ele>75.0</ele><time>2026-04-24T14:08:33.014Z</time></trkpt><trkpt lat="42.438320833883694" lon="11.531775495465656"><ele>74.66666666666667</ele><time>2026-04-24T14:08:34.014Z</time></trkpt><trkpt lat="42.43821812401381" lon="11.531615353935441"><ele>74.33333333333334</ele><time>2026-04-24T14:08:35.014Z</time></trkpt><trkpt lat="42.43812941349647" lon="11.53147277815848"><ele>74.0</ele><time>2026-04-24T14:08:36.014Z</time></trkpt><trkpt lat="42.43802626733452" lon="11.53129132218227"><ele>72.66666666666667</ele><time>2026-04-24T14:08:37.014Z</time></trkpt><trkpt lat="42.437934987150065" lon="11.531068348502885"><ele>71.33333333333333</ele><time>2026-04-24T14:08:38.014Z</time></trkpt><trkpt lat="42.437837324740634" lon="11.530863448514843"><ele>70.0</ele><time>2026-04-24T14:08:39.014Z</time></trkpt><trkpt lat="42.437777526176966" lon="11.53063704139145"><ele>70.0</ele><time>2026-04-24T14:08:40.014Z</time></trkpt><trkpt lat="42.4377172827029" lon="11.530416491434902"><ele>70.0</ele><time>2026-04-24T14:08:41.014Z</time></trkpt><trkpt lat="42.43767947478074" lon="11.530194168890985"><ele>70.0</ele><time>2026-04-24T14:08:42.014Z</time></trkpt><trkpt lat="42.437644793762495" lon="11.529973720220399"><ele>71.66666666666666</ele><time>2026-04-24T14:08:43.014Z</time></trkpt><trkpt lat="42.437584421765" lon="11.529748749019321"><ele>73.33333333333333</ele><time>2026-04-24T14:08:44.014Z</time></trkpt><trkpt lat="42.437539952082176" lon="11.529518722821932"><ele>75.0</ele><time>2026-04-24T14:08:45.014Z</time></trkpt><trkpt lat="42.437478567801165" lon="11.529286821981099"><ele>76.33333333333333</ele><time>2026-04-24T14:08:46.014Z</time></trkpt><trkpt lat="42.4374116126619" lon="11.52907158809951"><ele>77.66666666666666</ele><time>2026-04-24T14:08:47.014Z</time></trkpt><trkpt lat="42.43733756816767" lon="11.528859744833737"><ele>79.0</ele><time>2026-04-24T14:08:48.014Z</time></trkpt><trkpt lat="42.43725326366306" lon="11.52865689220988"><ele>79.0</ele><time>2026-04-24T14:08:49.014Z</time></trkpt><trkpt lat="42.4371929738288" lon="11.528423955649368"><ele>79.0</ele><time>2026-04-24T14:08:50.014Z</time></trkpt><trkpt lat="42.43711996180991" lon="11.528194406964223"><ele>79.0</ele><time>2026-04-24T14:08:51.014Z</time></trkpt><trkpt lat="42.43704721368138" lon="11.527982301872191"><ele>77.66666666666666</ele><time>2026-04-24T14:08:52.014Z</time></trkpt><trkpt lat="42.43697671198209" lon="11.527768128597822"><ele>76.33333333333333</ele><time>2026-04-24T14:08:53.014Z</time></trkpt><trkpt lat="42.43690528513316" lon="11.527532331375083"><ele>75.0</ele><time>2026-04-24T14:08:54.014Z</time></trkpt><trkpt lat="42.4368149651806" lon="11.527318559944348"><ele>75.0</ele><time>2026-04-24T14:08:55.014Z</time></trkpt><trkpt lat="42.43673009534742" lon="11.527094081409743"><ele>75.0</ele><time>2026-04-24T14:08:56.014Z</time></trkpt><trkpt lat="42.43665587457311" lon="11.526874347978568"><ele>75.0</ele><time>2026-04-24T14:08:57.014Z</time></trkpt><trkpt lat="42.436579671270366" lon="11.52665317622125"><ele>74.66666666666667</ele><time>2026-04-24T14:08:58.014Z</time></trkpt><trkpt lat="42.43649813874836" lon="11.526435882925698"><ele>74.33333333333334</ele><time>2026-04-24T14:08:59.014Z</time></trkpt><trkpt lat="42.436419280041385" lon="11.52624531020902"><ele>74.0</ele><time>2026-04-24T14:09:00.014Z</time></trkpt><trkpt lat="42.4363443598968" lon="11.526058277321981"><ele>72.5</ele><time>2026-04-24T14:09:01.014Z</time></trkpt><trkpt lat="42.436272178651684" lon="11.525895034096264"><ele>71.0</ele><time>2026-04-24T14:09:02.014Z</time></trkpt><trkpt lat="42.4361972203503" lon="11.525752433279914"><ele>69.5</ele><time>2026-04-24T14:09:03.014Z</time></trkpt><trkpt lat="42.436093061494475" lon="11.525617894998668"><ele>68.0</ele><time>2026-04-24T14:09:04.014Z</time></trkpt><trkpt lat="42.435970129911766" lon="11.525471573471357"><ele>68.0</ele><time>2026-04-24T14:09:05.014Z</time></trkpt><trkpt lat="42.43584718897848" lon="11.525314716484546"><ele>68.0</ele><time>2026-04-24T14:09:06.014Z</time></trkpt><trkpt lat="42.43572024715022" lon="11.525163558161998"><ele>68.0</ele><time>2026-04-24T14:09:07.014Z</time></trkpt><trkpt lat="42.43560430113352" lon="11.525027779309005"><ele>68.0</ele><time>2026-04-24T14:09:08.014Z</time></trkpt><trkpt lat="42.43548719326497" lon="11.524899501025905"><ele>68.0</ele><time>2026-04-24T14:09:09.014Z</time></trkpt><trkpt lat="42.43535890079519" lon="11.524796291952631"><ele>68.0</ele><time>2026-04-24T14:09:10.014Z</time></trkpt><trkpt lat="42.435225837474455" lon="11.524714687576722"><ele>68.0</ele><time>2026-04-24T14:09:11.014Z</time></trkpt><trkpt lat="42.43508622227129" lon="11.52463931454707"><ele>68.25</ele><time>2026-04-24T14:09:12.014Z</time></trkpt><trkpt lat="42.434952477230595" lon="11.524559985799572"><ele>68.5</ele><time>2026-04-24T14:09:13.014Z</time></trkpt><trkpt lat="42.43482916157091" lon="11.52447471763158"><ele>68.75</ele><time>2026-04-24T14:09:14.014Z</time></trkpt><trkpt lat="42.434719681100624" lon="11.524361236739065"><ele>69.0</ele><time>2026-04-24T14:09:15.014Z</time></trkpt><trkpt lat="42.43463077412653" lon="11.524293537297988"><ele>69.0</ele><time>2026-04-24T14:09:16.015Z</time></trkpt><trkpt lat="42.43457744712772" lon="11.524240921548934"><ele>69.0</ele><time>2026-04-24T14:09:17.015Z</time></trkpt><trkpt lat="42.43458897791909" lon="11.524082106860677"><ele>69.0</ele><time>2026-04-24T14:09:18.015Z</time></trkpt><trkpt lat="42.43460593807796" lon="11.523967902024713"><ele>69.0</ele><time>2026-04-24T14:09:19.015Z</time></trkpt><trkpt lat="42.434618185072594" lon="11.523830270218586"><ele>69.0</ele><time>2026-04-24T14:09:20.015Z</time></trkpt><trkpt lat="42.43462945109078" lon="11.523673615267857"><ele>66.25</ele><time>2026-04-24T14:09:21.015Z</time></trkpt><trkpt lat="42.43465032318006" lon="11.523491589326825"><ele>63.5</ele><time>2026-04-24T14:09:22.015Z</time></trkpt><trkpt lat="42.43469247022038" lon="11.523312655089336"><ele>60.75</ele><time>2026-04-24T14:09:23.015Z</time></trkpt><trkpt lat="42.43472664205794" lon="11.523119858107844"><ele>58.0</ele><time>2026-04-24T14:09:24.015Z</time></trkpt><trkpt lat="42.43478352617996" lon="11.522957324377387"><ele>58.0</ele><time>2026-04-24T14:09:25.015Z</time></trkpt><trkpt lat="42.434846988428795" lon="11.522794340115267"><ele>58.0</ele><time>2026-04-24T14:09:26.015Z</time></trkpt><trkpt lat="42.4349076207199" lon="11.522666358507694"><ele>58.0</ele><time>2026-04-24T14:09:27.015Z</time></trkpt><trkpt lat="42.434954713131816" lon="11.522539763167824"><ele>58.0</ele><time>2026-04-24T14:09:28.015Z</time></trkpt><trkpt lat="42.434978681024056" lon="11.522427145401139"><ele>58.0</ele><time>2026-04-24T14:09:29.015Z</time></trkpt><trkpt lat="42.43495777437146" lon="11.5223267922885"><ele>58.0</ele><time>2026-04-24T14:09:30.015Z</time></trkpt><trkpt lat="42.43491555062931" lon="11.522220956100307"><ele>58.0</ele><time>2026-04-24T14:09:31.015Z</time></trkpt><trkpt lat="42.434843871191525" lon="11.522133583388575"><ele>58.0</ele><time>2026-04-24T14:09:32.015Z</time></trkpt><trkpt lat="42.43476066023373" lon="11.522070704036722"><ele>58.0</ele><time>2026-04-24T14:09:33.015Z</time></trkpt><trkpt lat="42.43466185604318" lon="11.522015858726077"><ele>58.0</ele><time>2026-04-24T14:09:34.015Z</time></trkpt><trkpt lat="42.434542226544934" lon="11.5219521213768"><ele>56.75</ele><time>2026-04-24T14:09:35.015Z</time></trkpt><trkpt lat="42.43441362090865" lon="11.521876217512961"><ele>55.5</ele><time>2026-04-24T14:09:36.015Z</time></trkpt><trkpt lat="42.434279431936275" lon="11.521786667470252"><ele>54.25</ele><time>2026-04-24T14:09:37.015Z</time></trkpt><trkpt lat="42.43415344010694" lon="11.52170494254915"><ele>53.0</ele><time>2026-04-24T14:09:38.015Z</time></trkpt><trkpt lat="42.43404703366724" lon="11.521632953246664"><ele>53.0</ele><time>2026-04-24T14:09:39.015Z</time></trkpt><trkpt lat="42.4339496010805" lon="11.52154432755719"><ele>53.0</ele><time>2026-04-24T14:09:40.015Z</time></trkpt><trkpt lat="42.43387506973342" lon="11.521453641551338"><ele>53.0</ele><time>2026-04-24T14:09:41.015Z</time></trkpt><trkpt lat="42.43386020447233" lon="11.52134876004099"><ele>53.0</ele><time>2026-04-24T14:09:42.015Z</time></trkpt><trkpt lat="42.43384609902918" lon="11.521213896185746"><ele>53.0</ele><time>2026-04-24T14:09:43.015Z</time></trkpt><trkpt lat="42.43383184312393" lon="11.521085122822376"><ele>53.16666666666667</ele><time>2026-04-24T14:09:44.015Z</time></trkpt><trkpt lat="42.43382024916012" lon="11.520961701649595"><ele>53.333333333333336</ele><time>2026-04-24T14:09:45.015Z</time></trkpt><trkpt lat="42.43381384125178" lon="11.520858667151204"><ele>53.5</ele><time>2026-04-24T14:09:46.015Z</time></trkpt><trkpt lat="42.433847482783676" lon="11.520713281290744"><ele>53.66666666666667</ele><time>2026-04-24T14:09:48.015Z</time></trkpt><trkpt lat="42.43389592127877" lon="11.520647675347922"><ele>53.833333333333336</ele><time>2026-04-24T14:09:49.015Z</time></trkpt><trkpt lat="42.43392007455749" lon="11.520553745797292"><ele>54.0</ele><time>2026-04-24T14:09:50.015Z</time></trkpt><trkpt lat="42.433932091645225" lon="11.520434101673017"><ele>53.800000000000004</ele><time>2026-04-24T14:09:51.015Z</time></trkpt><trkpt lat="42.433937230553795" lon="11.520316568167434"><ele>53.60000000000001</ele><time>2026-04-24T14:09:52.015Z</time></trkpt><trkpt lat="42.43393326524835" lon="11.520192417284147"><ele>53.4</ele><time>2026-04-24T14:09:53.015Z</time></trkpt><trkpt lat="42.43394053917398" lon="11.520082690430733"><ele>53.2</ele><time>2026-04-24T14:09:54.015Z</time></trkpt><trkpt lat="42.433939637224555" lon="11.51998271677122"><ele>53.0</ele><time>2026-04-24T14:09:55.015Z</time></trkpt><trkpt lat="42.43393792026538" lon="11.519792403401691"><ele>53.0</ele><time>2026-04-24T14:09:57.015Z</time></trkpt><trkpt lat="42.43393128824291" lon="11.519641027812183"><ele>53.0</ele><time>2026-04-24T14:09:58.015Z</time></trkpt><trkpt lat="42.433919473090704" lon="11.519467451218912"><ele>53.0</ele><time>2026-04-24T14:09:59.015Z</time></trkpt><trkpt lat="42.43391668576234" lon="11.519284998394102"><ele>53.0</ele><time>2026-04-24T14:10:00.015Z</time></trkpt><trkpt lat="42.433876339546735" lon="11.519094812450165"><ele>52.0</ele><time>2026-04-24T14:10:01.015Z</time></trkpt><trkpt lat="42.43384215461588" lon="11.518905803755574"><ele>51.0</ele><time>2026-04-24T14:10:02.015Z</time></trkpt><trkpt lat="42.43378085624881" lon="11.518715172541649"><ele>50.0</ele><time>2026-04-24T14:10:03.015Z</time></trkpt><trkpt lat="42.43370912607948" lon="11.518523531502517"><ele>49.66666666666667</ele><time>2026-04-24T14:10:04.015Z</time></trkpt><trkpt lat="42.43363880053502" lon="11.518343070476842"><ele>49.33333333333333</ele><time>2026-04-24T14:10:05.015Z</time></trkpt><trkpt lat="42.43358003976956" lon="11.518161334700139"><ele>49.0</ele><time>2026-04-24T14:10:06.015Z</time></trkpt><trkpt lat="42.4335391591056" lon="11.517953877521947"><ele>50.0</ele><time>2026-04-24T14:10:07.015Z</time></trkpt><trkpt lat="42.43350159888195" lon="11.517735481431274"><ele>51.0</ele><time>2026-04-24T14:10:08.015Z</time></trkpt><trkpt lat="42.43347392407659" lon="11.517534420605333"><ele>52.0</ele><time>2026-04-24T14:10:09.015Z</time></trkpt><trkpt lat="42.433490802332095" lon="11.517352425164308"><ele>52.0</ele><time>2026-04-24T14:10:10.015Z</time></trkpt><trkpt lat="42.43350869795035" lon="11.517218148165247"><ele>52.0</ele><time>2026-04-24T14:10:11.015Z</time></trkpt><trkpt lat="42.433535872216325" lon="11.517084083572374"><ele>52.0</ele><time>2026-04-24T14:10:12.015Z</time></trkpt><trkpt lat="42.43356733953354" lon="11.516938993233328"><ele>52.0</ele><time>2026-04-24T14:10:13.015Z</time></trkpt><trkpt lat="42.433596490295855" lon="11.516789669084138"><ele>52.0</ele><time>2026-04-24T14:10:14.015Z</time></trkpt><trkpt lat="42.43364425544806" lon="11.51661442688191"><ele>53.5</ele><time>2026-04-24T14:10:15.015Z</time></trkpt><trkpt lat="42.433701063271435" lon="11.516449994580446"><ele>55.0</ele><time>2026-04-24T14:10:16.015Z</time></trkpt><trkpt lat="42.433759719059786" lon="11.516277110226314"><ele>56.5</ele><time>2026-04-24T14:10:17.015Z</time></trkpt><trkpt lat="42.433824081885604" lon="11.516111108493796"><ele>58.0</ele><time>2026-04-24T14:10:18.015Z</time></trkpt><trkpt lat="42.433890560266" lon="11.515903231100333"><ele>58.0</ele><time>2026-04-24T14:10:19.015Z</time></trkpt><trkpt lat="42.43397062479628" lon="11.515689392834428"><ele>58.0</ele><time>2026-04-24T14:10:20.015Z</time></trkpt><trkpt lat="42.4340555719802" lon="11.515448981394703"><ele>58.0</ele><time>2026-04-24T14:10:21.015Z</time></trkpt><trkpt lat="42.434139458283674" lon="11.51521676789967"><ele>58.0</ele><time>2026-04-24T14:10:22.015Z</time></trkpt><trkpt lat="42.4342153819483" lon="11.515004793706384"><ele>58.0</ele><time>2026-04-24T14:10:23.015Z</time></trkpt><trkpt lat="42.43429139701396" lon="11.51480711837941"><ele>58.0</ele><time>2026-04-24T14:10:24.015Z</time></trkpt><trkpt lat="42.43435755427938" lon="11.514631553011037"><ele>58.4</ele><time>2026-04-24T14:10:25.015Z</time></trkpt><trkpt lat="42.434349216575356" lon="11.514470719546654"><ele>58.8</ele><time>2026-04-24T14:10:26.016Z</time></trkpt><trkpt lat="42.43433963652369" lon="11.514382778792543"><ele>59.2</ele><time>2026-04-24T14:10:27.016Z</time></trkpt><trkpt lat="42.434303153002766" lon="11.514262470947473"><ele>59.6</ele><time>2026-04-24T14:10:28.016Z</time></trkpt><trkpt lat="42.434251000936676" lon="11.514097887147763"><ele>60.0</ele><time>2026-04-24T14:10:29.016Z</time></trkpt><trkpt lat="42.43419654520739" lon="11.513915595694536"><ele>61.0</ele><time>2026-04-24T14:10:30.016Z</time></trkpt><trkpt lat="42.43416220069505" lon="11.513696243990308"><ele>62.0</ele><time>2026-04-24T14:10:31.016Z</time></trkpt><trkpt lat="42.43414838187326" lon="11.513500721460899"><ele>63.0</ele><time>2026-04-24T14:10:32.016Z</time></trkpt><trkpt lat="42.434171462356744" lon="11.513319428802184"><ele>64.0</ele><time>2026-04-24T14:10:33.016Z</time></trkpt><trkpt lat="42.434213947013205" lon="11.513163515076066"><ele>64.0</ele><time>2026-04-24T14:10:34.016Z</time></trkpt><trkpt lat="42.434264024608446" lon="11.513006151699265"><ele>64.0</ele><time>2026-04-24T14:10:35.016Z</time></trkpt><trkpt lat="42.43431622347636" lon="11.512805602036895"><ele>64.0</ele><time>2026-04-24T14:10:36.016Z</time></trkpt><trkpt lat="42.43439436773642" lon="11.512599443964943"><ele>63.666666666666664</ele><time>2026-04-24T14:10:37.016Z</time></trkpt><trkpt lat="42.434466897060084" lon="11.512407896449176"><ele>63.33333333333333</ele><time>2026-04-24T14:10:38.016Z</time></trkpt><trkpt lat="42.43453626443526" lon="11.512195666173099"><ele>63.0</ele><time>2026-04-24T14:10:39.016Z</time></trkpt><trkpt lat="42.434604130482015" lon="11.511942667540612"><ele>63.33333333333333</ele><time>2026-04-24T14:10:40.016Z</time></trkpt><trkpt lat="42.43467977588893" lon="11.511694024126442"><ele>63.666666666666664</ele><time>2026-04-24T14:10:41.016Z</time></trkpt><trkpt lat="42.43475225883221" lon="11.511444259716207"><ele>64.0</ele><time>2026-04-24T14:10:42.016Z</time></trkpt><trkpt lat="42.434833508547825" lon="11.511190067990963"><ele>63.0</ele><time>2026-04-24T14:10:43.016Z</time></trkpt><trkpt lat="42.4349171432213" lon="11.510946264122094"><ele>62.0</ele><time>2026-04-24T14:10:44.016Z</time></trkpt><trkpt lat="42.43499163081903" lon="11.510710174153292"><ele>61.0</ele><time>2026-04-24T14:10:45.016Z</time></trkpt><trkpt lat="42.43508199711637" lon="11.510519395776278"><ele>61.0</ele><time>2026-04-24T14:10:46.016Z</time></trkpt><trkpt lat="42.43515235333081" lon="11.510327659463764"><ele>61.0</ele><time>2026-04-24T14:10:47.016Z</time></trkpt><trkpt lat="42.43522360415357" lon="11.51015149722191"><ele>61.0</ele><time>2026-04-24T14:10:48.016Z</time></trkpt><trkpt lat="42.43529791077728" lon="11.509960621071068"><ele>61.0</ele><time>2026-04-24T14:10:49.016Z</time></trkpt><trkpt lat="42.43536968847692" lon="11.509745485776541"><ele>61.0</ele><time>2026-04-24T14:10:50.016Z</time></trkpt><trkpt lat="42.43543256416518" lon="11.509508992381607"><ele>61.0</ele><time>2026-04-24T14:10:51.016Z</time></trkpt><trkpt lat="42.43547601415947" lon="11.509257331196071"><ele>62.0</ele><time>2026-04-24T14:10:52.016Z</time></trkpt><trkpt lat="42.43550827490755" lon="11.508993307346167"><ele>63.0</ele><time>2026-04-24T14:10:53.016Z</time></trkpt><trkpt lat="42.43554487054694" lon="11.508728528538434"><ele>64.0</ele><time>2026-04-24T14:10:54.016Z</time></trkpt><trkpt lat="42.4355856584315" lon="11.50847299733545"><ele>64.0</ele><time>2026-04-24T14:10:55.016Z</time></trkpt><trkpt lat="42.43563013224533" lon="11.508227909340624"><ele>64.0</ele><time>2026-04-24T14:10:56.016Z</time></trkpt><trkpt lat="42.43566654446124" lon="11.508003559216842"><ele>64.0</ele><time>2026-04-24T14:10:57.016Z</time></trkpt><trkpt lat="42.43570085425461" lon="11.507784730410764"><ele>64.0</ele><time>2026-04-24T14:10:58.016Z</time></trkpt><trkpt lat="42.43573405578367" lon="11.507561364884511"><ele>64.0</ele><time>2026-04-24T14:10:59.016Z</time></trkpt><trkpt lat="42.435773715154276" lon="11.507326831188921"><ele>64.0</ele><time>2026-04-24T14:11:00.016Z</time></trkpt><trkpt lat="42.43581570446006" lon="11.507088548683608"><ele>63.666666666666664</ele><time>2026-04-24T14:11:01.016Z</time></trkpt><trkpt lat="42.43585703489982" lon="11.506858266307837"><ele>63.33333333333333</ele><time>2026-04-24T14:11:02.016Z</time></trkpt><trkpt lat="42.43591244679439" lon="11.506650211784697"><ele>63.0</ele><time>2026-04-24T14:11:03.016Z</time></trkpt><trkpt lat="42.435982925273684" lon="11.50648648479198"><ele>63.0</ele><time>2026-04-24T14:11:04.016Z</time></trkpt><trkpt lat="42.436075258286316" lon="11.506307020784305"><ele>63.0</ele><time>2026-04-24T14:11:05.016Z</time></trkpt><trkpt lat="42.43618802340512" lon="11.50610617211692"><ele>63.0</ele><time>2026-04-24T14:11:06.016Z</time></trkpt><trkpt lat="42.436299346246315" lon="11.505883882435258"><ele>64.33333333333333</ele><time>2026-04-24T14:11:07.016Z</time></trkpt><trkpt lat="42.43642497574751" lon="11.505683026093731"><ele>65.66666666666666</ele><time>2026-04-24T14:11:08.016Z</time></trkpt><trkpt lat="42.436553884722926" lon="11.505513638552978"><ele>67.0</ele><time>2026-04-24T14:11:09.016Z</time></trkpt><trkpt lat="42.4366462800445" lon="11.505327655093875"><ele>67.33333333333333</ele><time>2026-04-24T14:11:10.016Z</time></trkpt><trkpt lat="42.436746321095285" lon="11.505140729872458"><ele>67.66666666666667</ele><time>2026-04-24T14:11:11.016Z</time></trkpt><trkpt lat="42.43683555638897" lon="11.504946186378302"><ele>68.0</ele><time>2026-04-24T14:11:12.016Z</time></trkpt><trkpt lat="42.43691730070213" lon="11.504736484633021"><ele>69.66666666666667</ele><time>2026-04-24T14:11:13.016Z</time></trkpt><trkpt lat="42.43700353615786" lon="11.504517612372728"><ele>71.33333333333333</ele><time>2026-04-24T14:11:14.016Z</time></trkpt><trkpt lat="42.43709821943318" lon="11.504299449616502"><ele>73.0</ele><time>2026-04-24T14:11:15.016Z</time></trkpt><trkpt lat="42.437193329214125" lon="11.504073984198126"><ele>73.0</ele><time>2026-04-24T14:11:16.016Z</time></trkpt><trkpt lat="42.43729983146211" lon="11.503866077769578"><ele>73.0</ele><time>2026-04-24T14:11:17.016Z</time></trkpt><trkpt lat="42.43738689072779" lon="11.503662296980043"><ele>73.0</ele><time>2026-04-24T14:11:18.016Z</time></trkpt><trkpt lat="42.43746472483935" lon="11.503480104787974"><ele>73.0</ele><time>2026-04-24T14:11:19.016Z</time></trkpt><trkpt lat="42.43752979349573" lon="11.503293901438061"><ele>73.0</ele><time>2026-04-24T14:11:20.016Z</time></trkpt><trkpt lat="42.43762172476173" lon="11.503129914259246"><ele>73.0</ele><time>2026-04-24T14:11:21.016Z</time></trkpt><trkpt lat="42.43769601750793" lon="11.502948289924278"><ele>72.0</ele><time>2026-04-24T14:11:22.016Z</time></trkpt><trkpt lat="42.437770036705814" lon="11.502748272240348"><ele>71.0</ele><time>2026-04-24T14:11:23.016Z</time></trkpt><trkpt lat="42.43784750473489" lon="11.502535047609502"><ele>70.0</ele><time>2026-04-24T14:11:24.016Z</time></trkpt><trkpt lat="42.437930089491715" lon="11.502325939172966"><ele>69.33333333333333</ele><time>2026-04-24T14:11:25.016Z</time></trkpt><trkpt lat="42.43801460806196" lon="11.50210982854784"><ele>68.66666666666667</ele><time>2026-04-24T14:11:26.016Z</time></trkpt><trkpt lat="42.438097443744674" lon="11.501887928851344"><ele>68.0</ele><time>2026-04-24T14:11:27.016Z</time></trkpt><trkpt lat="42.43818001776833" lon="11.501669039695164"><ele>67.33333333333334</ele><time>2026-04-24T14:11:28.016Z</time></trkpt><trkpt lat="42.438269982942735" lon="11.501459394059298"><ele>66.66666666666667</ele><time>2026-04-24T14:11:29.016Z</time></trkpt><trkpt lat="42.43836934243553" lon="11.501269246716248"><ele>66.0</ele><time>2026-04-24T14:11:30.016Z</time></trkpt><trkpt lat="42.43847212046468" lon="11.501086426701411"><ele>65.66666666666667</ele><time>2026-04-24T14:11:31.016Z</time></trkpt><trkpt lat="42.43857354246005" lon="11.500894971726774"><ele>65.33333333333334</ele><time>2026-04-24T14:11:32.016Z</time></trkpt><trkpt lat="42.43866967045237" lon="11.500701982073267"><ele>65.0</ele><time>2026-04-24T14:11:33.016Z</time></trkpt><trkpt lat="42.43875823180656" lon="11.500517648538763"><ele>65.25</ele><time>2026-04-24T14:11:34.016Z</time></trkpt><trkpt lat="42.438826603059184" lon="11.500339192973655"><ele>65.5</ele><time>2026-04-24T14:11:35.016Z</time></trkpt><trkpt lat="42.43886311298538" lon="11.500152814918799"><ele>65.75</ele><time>2026-04-24T14:11:36.017Z</time></trkpt><trkpt lat="42.43888340848443" lon="11.499955778608806"><ele>66.0</ele><time>2026-04-24T14:11:37.017Z</time></trkpt><trkpt lat="42.4389209219308" lon="11.499797540602687"><ele>66.0</ele><time>2026-04-24T14:11:38.017Z</time></trkpt><trkpt lat="42.43896250919751" lon="11.499693427641036"><ele>66.0</ele><time>2026-04-24T14:11:39.017Z</time></trkpt><trkpt lat="42.439013085121225" lon="11.499584145346896"><ele>66.0</ele><time>2026-04-24T14:11:40.017Z</time></trkpt><trkpt lat="42.4390451867186" lon="11.499428119301616"><ele>66.0</ele><time>2026-04-24T14:11:41.017Z</time></trkpt><trkpt lat="42.43907837918422" lon="11.499239774723742"><ele>66.0</ele><time>2026-04-24T14:11:42.017Z</time></trkpt><trkpt lat="42.43909691738437" lon="11.499031853577867"><ele>65.25</ele><time>2026-04-24T14:11:43.017Z</time></trkpt><trkpt lat="42.439112022735536" lon="11.498839440556852"><ele>64.5</ele><time>2026-04-24T14:11:44.017Z</time></trkpt><trkpt lat="42.43906799500793" lon="11.49866273101908"><ele>63.75</ele><time>2026-04-24T14:11:45.017Z</time></trkpt><trkpt lat="42.43900970418926" lon="11.49849021205624"><ele>63.0</ele><time>2026-04-24T14:11:46.017Z</time></trkpt><trkpt lat="42.438924830977435" lon="11.498315011351979"><ele>63.0</ele><time>2026-04-24T14:11:47.017Z</time></trkpt><trkpt lat="42.438831310937076" lon="11.498132286025884"><ele>63.0</ele><time>2026-04-24T14:11:48.017Z</time></trkpt><trkpt lat="42.438729338439046" lon="11.497957160830325"><ele>63.0</ele><time>2026-04-24T14:11:49.017Z</time></trkpt><trkpt lat="42.438616243031795" lon="11.497786771129524"><ele>63.33333333333333</ele><time>2026-04-24T14:11:50.017Z</time></trkpt><trkpt lat="42.438483627289244" lon="11.49760556612212"><ele>63.666666666666664</ele><time>2026-04-24T14:11:51.017Z</time></trkpt><trkpt lat="42.438343414323" lon="11.497426855018018"><ele>64.0</ele><time>2026-04-24T14:11:52.017Z</time></trkpt><trkpt lat="42.438202000264795" lon="11.497246299143196"><ele>65.0</ele><time>2026-04-24T14:11:53.017Z</time></trkpt><trkpt lat="42.438066467329385" lon="11.497073406623619"><ele>66.0</ele><time>2026-04-24T14:11:54.017Z</time></trkpt><trkpt lat="42.437942523453735" lon="11.49691384574496"><ele>67.0</ele><time>2026-04-24T14:11:55.017Z</time></trkpt><trkpt lat="42.43783495550131" lon="11.496773810061518"><ele>67.0</ele><time>2026-04-24T14:11:56.017Z</time></trkpt><trkpt lat="42.43773952378176" lon="11.496642538490786"><ele>67.0</ele><time>2026-04-24T14:11:57.017Z</time></trkpt><trkpt lat="42.43765400276499" lon="11.496487536847248"><ele>67.0</ele><time>2026-04-24T14:11:58.017Z</time></trkpt><trkpt lat="42.43757658040664" lon="11.496307503799732"><ele>67.0</ele><time>2026-04-24T14:11:59.017Z</time></trkpt><trkpt lat="42.43749367475243" lon="11.496112480154842"><ele>68.5</ele><time>2026-04-24T14:12:00.017Z</time></trkpt><trkpt lat="42.43741191310608" lon="11.49592014764845"><ele>70.0</ele><time>2026-04-24T14:12:01.017Z</time></trkpt><trkpt lat="42.43734017984626" lon="11.495734075612118"><ele>71.5</ele><time>2026-04-24T14:12:02.017Z</time></trkpt><trkpt lat="42.43730010426761" lon="11.495584917698721"><ele>73.0</ele><time>2026-04-24T14:12:03.017Z</time></trkpt><trkpt lat="42.437262176964566" lon="11.495435643535718"><ele>73.0</ele><time>2026-04-24T14:12:04.017Z</time></trkpt><trkpt lat="42.43733259885744" lon="11.495319231825487"><ele>73.0</ele><time>2026-04-24T14:12:05.017Z</time></trkpt><trkpt lat="42.437375588974035" lon="11.495159978058362"><ele>73.0</ele><time>2026-04-24T14:12:06.017Z</time></trkpt><trkpt lat="42.437410274248116" lon="11.49496587433138"><ele>73.0</ele><time>2026-04-24T14:12:07.017Z</time></trkpt><trkpt lat="42.4374277092888" lon="11.494755502533588"><ele>72.0</ele><time>2026-04-24T14:12:08.017Z</time></trkpt><trkpt lat="42.43743528982261" lon="11.494527149035308"><ele>71.0</ele><time>2026-04-24T14:12:09.017Z</time></trkpt><trkpt lat="42.43744435191239" lon="11.494304533363914"><ele>70.0</ele><time>2026-04-24T14:12:10.017Z</time></trkpt><trkpt lat="42.43745869933924" lon="11.494088714965741"><ele>70.0</ele><time>2026-04-24T14:12:11.017Z</time></trkpt><trkpt lat="42.437474056157384" lon="11.493873830051724"><ele>70.0</ele><time>2026-04-24T14:12:12.017Z</time></trkpt><trkpt lat="42.43749598735077" lon="11.493658088061444"><ele>70.0</ele><time>2026-04-24T14:12:13.017Z</time></trkpt><trkpt lat="42.437525872238176" lon="11.493458280949156"><ele>67.0</ele><time>2026-04-24T14:12:14.017Z</time></trkpt><trkpt lat="42.43757065320861" lon="11.493279985088469"><ele>64.0</ele><time>2026-04-24T14:12:15.017Z</time></trkpt><trkpt lat="42.437636066586975" lon="11.49308097205258"><ele>61.0</ele><time>2026-04-24T14:12:16.017Z</time></trkpt><trkpt lat="42.437714735177" lon="11.492872107538753"><ele>60.0</ele><time>2026-04-24T14:12:17.017Z</time></trkpt><trkpt lat="42.43779373227305" lon="11.4926651911563"><ele>59.0</ele><time>2026-04-24T14:12:18.017Z</time></trkpt><trkpt lat="42.437861448966196" lon="11.492441791576729"><ele>58.0</ele><time>2026-04-24T14:12:19.003Z</time></trkpt><trkpt lat="42.437949332727314" lon="11.49221068342734"><ele>57.666666666666664</ele><time>2026-04-24T14:12:20.003Z</time></trkpt><trkpt lat="42.43803971338436" lon="11.491972461202762"><ele>57.33333333333333</ele><time>2026-04-24T14:12:21.003Z</time></trkpt><trkpt lat="42.438133601184965" lon="11.491732824029931"><ele>57.0</ele><time>2026-04-24T14:12:22.003Z</time></trkpt><trkpt lat="42.43822958226475" lon="11.49147785594771"><ele>56.66666666666667</ele><time>2026-04-24T14:12:23.003Z</time></trkpt><trkpt lat="42.43832812377291" lon="11.49124182438332"><ele>56.333333333333336</ele><time>2026-04-24T14:12:24.003Z</time></trkpt><trkpt lat="42.43843686325191" lon="11.491029386812308"><ele>56.0</ele><time>2026-04-24T14:12:25.003Z</time></trkpt><trkpt lat="42.43854347618224" lon="11.490818989570169"><ele>56.0</ele><time>2026-04-24T14:12:26.003Z</time></trkpt><trkpt lat="42.43864588976821" lon="11.490615643346908"><ele>56.0</ele><time>2026-04-24T14:12:27.003Z</time></trkpt><trkpt lat="42.43873942260144" lon="11.49039427073796"><ele>56.0</ele><time>2026-04-24T14:12:28.003Z</time></trkpt><trkpt lat="42.43886074315565" lon="11.490200244981573"><ele>56.66666666666667</ele><time>2026-04-24T14:12:29.003Z</time></trkpt><trkpt lat="42.43895862739811" lon="11.489994023734736"><ele>57.33333333333333</ele><time>2026-04-24T14:12:30.003Z</time></trkpt><trkpt lat="42.43905220107933" lon="11.489805075850652"><ele>58.0</ele><time>2026-04-24T14:12:31.003Z</time></trkpt><trkpt lat="42.43913566956957" lon="11.489637943351319"><ele>58.25</ele><time>2026-04-24T14:12:32.003Z</time></trkpt><trkpt lat="42.43920182783538" lon="11.489493279473386"><ele>58.5</ele><time>2026-04-24T14:12:33.003Z</time></trkpt><trkpt lat="42.43925379861556" lon="11.489335439908027"><ele>58.75</ele><time>2026-04-24T14:12:34.003Z</time></trkpt><trkpt lat="42.43928614468904" lon="11.489176643134837"><ele>59.0</ele><time>2026-04-24T14:12:35.003Z</time></trkpt><trkpt lat="42.43928297070588" lon="11.489024722322375"><ele>59.0</ele><time>2026-04-24T14:12:36.003Z</time></trkpt><trkpt lat="42.439237402325965" lon="11.48889194085367"><ele>59.0</ele><time>2026-04-24T14:12:37.003Z</time></trkpt><trkpt lat="42.439156812862066" lon="11.488763702929402"><ele>59.0</ele><time>2026-04-24T14:12:38.003Z</time></trkpt><trkpt lat="42.43906081916606" lon="11.488621141445119"><ele>59.0</ele><time>2026-04-24T14:12:39.003Z</time></trkpt><trkpt lat="42.43896690022741" lon="11.488518164732373"><ele>59.66666666666667</ele><time>2026-04-24T14:12:40.003Z</time></trkpt><trkpt lat="42.43887608353662" lon="11.488348968695522"><ele>60.33333333333333</ele><time>2026-04-24T14:12:41.003Z</time></trkpt><trkpt lat="42.43876874515521" lon="11.48820170905731"><ele>61.0</ele><time>2026-04-24T14:12:42.003Z</time></trkpt><trkpt lat="42.438647682465124" lon="11.488039634163373"><ele>62.0</ele><time>2026-04-24T14:12:43.003Z</time></trkpt><trkpt lat="42.43853116316325" lon="11.487871415461113"><ele>63.0</ele><time>2026-04-24T14:12:44.003Z</time></trkpt><trkpt lat="42.438420842266915" lon="11.487730760311592"><ele>64.0</ele><time>2026-04-24T14:12:45.003Z</time></trkpt><trkpt lat="42.43832598661736" lon="11.48758211389149"><ele>64.0</ele><time>2026-04-24T14:12:46.003Z</time></trkpt><trkpt lat="42.43825358953309" lon="11.487416496841249"><ele>64.0</ele><time>2026-04-24T14:12:47.003Z</time></trkpt><trkpt lat="42.4382322308374" lon="11.487238858311594"><ele>64.0</ele><time>2026-04-24T14:12:48.003Z</time></trkpt><trkpt lat="42.43825728904761" lon="11.487079563265963"><ele>64.0</ele><time>2026-04-24T14:12:49.003Z</time></trkpt><trkpt lat="42.43830279336077" lon="11.486945046433783"><ele>64.0</ele><time>2026-04-24T14:12:50.003Z</time></trkpt><trkpt lat="42.438362968908066" lon="11.486778519997799"><ele>64.0</ele><time>2026-04-24T14:12:51.003Z</time></trkpt><trkpt lat="42.43843902801455" lon="11.48658464704808"><ele>64.0</ele><time>2026-04-24T14:12:52.003Z</time></trkpt><trkpt lat="42.438510053487235" lon="11.486358946668075"><ele>63.0</ele><time>2026-04-24T14:12:53.003Z</time></trkpt><trkpt lat="42.43860222078365" lon="11.486126788207173"><ele>62.0</ele><time>2026-04-24T14:12:54.003Z</time></trkpt><trkpt lat="42.43869579505624" lon="11.485892102838372"><ele>61.0</ele><time>2026-04-24T14:12:55.003Z</time></trkpt><trkpt lat="42.43878584821487" lon="11.48566595899037"><ele>61.666666666666664</ele><time>2026-04-24T14:12:56.003Z</time></trkpt><trkpt lat="42.43886715515593" lon="11.485457010685051"><ele>62.33333333333333</ele><time>2026-04-24T14:12:57.003Z</time></trkpt><trkpt lat="42.4389288607779" lon="11.485266359096633"><ele>63.0</ele><time>2026-04-24T14:12:58.003Z</time></trkpt><trkpt lat="42.43896722661032" lon="11.485071362375797"><ele>63.0</ele><time>2026-04-24T14:12:59.003Z</time></trkpt><trkpt lat="42.43895987111133" lon="11.484867148857308"><ele>63.0</ele><time>2026-04-24T14:13:00.003Z</time></trkpt><trkpt lat="42.43894188289751" lon="11.484653255579211"><ele>63.0</ele><time>2026-04-24T14:13:01.003Z</time></trkpt><trkpt lat="42.438928007734305" lon="11.484430342118218"><ele>63.66666666666667</ele><time>2026-04-24T14:13:02.003Z</time></trkpt><trkpt lat="42.4388972477562" lon="11.48419807144285"><ele>64.33333333333334</ele><time>2026-04-24T14:13:03.003Z</time></trkpt><trkpt lat="42.43886130448152" lon="11.48395719205806"><ele>65.0</ele><time>2026-04-24T14:13:04.003Z</time></trkpt><trkpt lat="42.438855354231194" lon="11.483733681108369"><ele>65.75</ele><time>2026-04-24T14:13:05.003Z</time></trkpt><trkpt lat="42.438887396101705" lon="11.483537482460404"><ele>66.5</ele><time>2026-04-24T14:13:06.001Z</time></trkpt><trkpt lat="42.438952403147745" lon="11.483377191341924"><ele>67.25</ele><time>2026-04-24T14:13:07.001Z</time></trkpt><trkpt lat="42.439021117095194" lon="11.483225119635991"><ele>68.0</ele><time>2026-04-24T14:13:08.001Z</time></trkpt><trkpt lat="42.43911113574438" lon="11.483052494821285"><ele>68.0</ele><time>2026-04-24T14:13:09.001Z</time></trkpt><trkpt lat="42.439203461772095" lon="11.482880191991757"><ele>68.0</ele><time>2026-04-24T14:13:10.002Z</time></trkpt><trkpt lat="42.439269656973465" lon="11.482700952796344"><ele>68.0</ele><time>2026-04-24T14:13:11.002Z</time></trkpt><trkpt lat="42.43933655215747" lon="11.48253033065409"><ele>68.0</ele><time>2026-04-24T14:13:12.001Z</time></trkpt><trkpt lat="42.43937585289972" lon="11.482327769913235"><ele>68.0</ele><time>2026-04-24T14:13:13.001Z</time></trkpt><trkpt lat="42.439414703880466" lon="11.482119560870998"><ele>68.0</ele><time>2026-04-24T14:13:14.001Z</time></trkpt><trkpt lat="42.43944779717993" lon="11.481927666966705"><ele>68.0</ele><time>2026-04-24T14:13:15.001Z</time></trkpt><trkpt lat="42.43947761549024" lon="11.48176633601044"><ele>68.0</ele><time>2026-04-24T14:13:16.001Z</time></trkpt><trkpt lat="42.439505880683555" lon="11.481613599326915"><ele>67.6</ele><time>2026-04-24T14:13:17.001Z</time></trkpt><trkpt lat="42.43953445101181" lon="11.481455364804997"><ele>67.19999999999999</ele><time>2026-04-24T14:13:18.002Z</time></trkpt><trkpt lat="42.43955812726947" lon="11.481311874327279"><ele>66.8</ele><time>2026-04-24T14:13:19.002Z</time></trkpt><trkpt lat="42.43958032713971" lon="11.48117782680457"><ele>66.39999999999999</ele><time>2026-04-24T14:13:20.002Z</time></trkpt><trkpt lat="42.43960018776884" lon="11.481054734931618"><ele>66.0</ele><time>2026-04-24T14:13:21.002Z</time></trkpt><trkpt lat="42.43960754364619" lon="11.480954923387568"><ele>66.0</ele><time>2026-04-24T14:13:22.002Z</time></trkpt><trkpt lat="42.43962927114748" lon="11.480862513604388"><ele>66.0</ele><time>2026-04-24T14:13:24.002Z</time></trkpt><trkpt lat="42.439425264088584" lon="11.480892688311696"><ele>66.0</ele><time>2026-04-24T14:15:04.003Z</time></trkpt></trkseg></trk></gpx>